<?xml version="1.0" encoding="UTF-8"?>
<TrainingCenterDatabase xmlns="http://www.garmin.com/xmlschemas/TrainingCenterDatabase/v2" xmlns:xsi="http://www.w3.org/2001/XMLSchema-instance" xsi:schemaLocation="http://www.garmin.com/xmlschemas/TrainingCenterDatabase/v2 http://www.garmin.com/xmlschemas/TrainingCenterDatabasev2.xsd">
  <Activities>
    <Activity Sport="Other">
      <Id>2019-08-04T13:54:49.000Z</Id>
      <Lap StartTime="2019-08-04T13:54:49.000Z">
        <TotalTimeSeconds>13560</TotalTimeSeconds>
        <DistanceMeters>8770</DistanceMeters>
        <Track>
          <Trackpoint>
            <Time>2019-08-04T13:54:49.000Z</Time>
            <Position>
              <LatitudeDegrees>-33.517310321331024169921875</LatitudeDegrees>
              <LongitudeDegrees>-70.22210762836039066314697265625</LongitudeDegrees>
            </Position>
            <AltitudeMeters>1283</AltitudeMeters>
            <DistanceMeters>0</DistanceMeters>
          </Trackpoint>
          <Trackpoint>
            <Time>2019-08-04T13:54:55.000Z</Time>
            <Position>
              <LatitudeDegrees>-33.51731124334037303924560546875</LatitudeDegrees>
              <LongitudeDegrees>-70.22213679738342761993408203125</LongitudeDegrees>
            </Position>
            <AltitudeMeters>1284</AltitudeMeters>
            <DistanceMeters>2.7078445436345</DistanceMeters>
          </Trackpoint>
          <Trackpoint>
            <Time>2019-08-04T13:54:59.000Z</Time>
            <Position>
              <LatitudeDegrees>-33.5173299349844455718994140625</LatitudeDegrees>
              <LongitudeDegrees>-70.22225565277040004730224609375</LongitudeDegrees>
            </Position>
            <AltitudeMeters>1283.199951171875</AltitudeMeters>
            <DistanceMeters>13.931461001497</DistanceMeters>
          </Trackpoint>
          <Trackpoint>
            <Time>2019-08-04T13:55:00.000Z</Time>
            <Position>
              <LatitudeDegrees>-33.5173309408128261566162109375</LatitudeDegrees>
              <LongitudeDegrees>-70.2222664654254913330078125</LongitudeDegrees>
            </Position>
            <AltitudeMeters>1283.4000244140625</AltitudeMeters>
            <DistanceMeters>14.937129218019</DistanceMeters>
          </Trackpoint>
          <Trackpoint>
            <Time>2019-08-04T13:55:08.000Z</Time>
            <Position>
              <LatitudeDegrees>-33.51737142540514469146728515625</LatitudeDegrees>
              <LongitudeDegrees>-70.2223373763263225555419921875</LongitudeDegrees>
            </Position>
            <AltitudeMeters>1284.5999755859375</AltitudeMeters>
            <DistanceMeters>22.912016577398</DistanceMeters>
          </Trackpoint>
          <Trackpoint>
            <Time>2019-08-04T13:55:11.000Z</Time>
            <Position>
              <LatitudeDegrees>-33.51738885976374149322509765625</LatitudeDegrees>
              <LongitudeDegrees>-70.22236361168324947357177734375</LongitudeDegrees>
            </Position>
            <AltitudeMeters>1285.199951171875</AltitudeMeters>
            <DistanceMeters>26.023325296879</DistanceMeters>
          </Trackpoint>
          <Trackpoint>
            <Time>2019-08-04T13:55:16.000Z</Time>
            <Position>
              <LatitudeDegrees>-33.51738550700247287750244140625</LatitudeDegrees>
              <LongitudeDegrees>-70.22241490893065929412841796875</LongitudeDegrees>
            </Position>
            <AltitudeMeters>1285.800048828125</AltitudeMeters>
            <DistanceMeters>30.797412952603</DistanceMeters>
          </Trackpoint>
          <Trackpoint>
            <Time>2019-08-04T13:55:19.000Z</Time>
            <Position>
              <LatitudeDegrees>-33.51738885976374149322509765625</LatitudeDegrees>
              <LongitudeDegrees>-70.22243536077439785003662109375</LongitudeDegrees>
            </Position>
            <AltitudeMeters>1286.4000244140625</AltitudeMeters>
            <DistanceMeters>32.730920554811</DistanceMeters>
          </Trackpoint>
          <Trackpoint>
            <Time>2019-08-04T13:55:22.000Z</Time>
            <Position>
              <LatitudeDegrees>-33.517400510609149932861328125</LatitudeDegrees>
              <LongitudeDegrees>-70.2224500291049480438232421875</LongitudeDegrees>
            </Position>
            <AltitudeMeters>1287</AltitudeMeters>
            <DistanceMeters>34.609952190944</DistanceMeters>
          </Trackpoint>
          <Trackpoint>
            <Time>2019-08-04T13:55:24.000Z</Time>
            <Position>
              <LatitudeDegrees>-33.5174127481877803802490234375</LatitudeDegrees>
              <LongitudeDegrees>-70.22246520034968852996826171875</LongitudeDegrees>
            </Position>
            <AltitudeMeters>1287.4000244140625</AltitudeMeters>
            <DistanceMeters>36.568978093958</DistanceMeters>
          </Trackpoint>
          <Trackpoint>
            <Time>2019-08-04T13:55:25.000Z</Time>
            <Position>
              <LatitudeDegrees>-33.5174218006432056427001953125</LatitudeDegrees>
              <LongitudeDegrees>-70.22246788255870342254638671875</LongitudeDegrees>
            </Position>
            <AltitudeMeters>1287.5999755859375</AltitudeMeters>
            <DistanceMeters>37.601232432959</DistanceMeters>
          </Trackpoint>
          <Trackpoint>
            <Time>2019-08-04T13:55:27.000Z</Time>
            <Position>
              <LatitudeDegrees>-33.51744065992534160614013671875</LatitudeDegrees>
              <LongitudeDegrees>-70.2224768511950969696044921875</LongitudeDegrees>
            </Position>
            <AltitudeMeters>1287.800048828125</AltitudeMeters>
            <DistanceMeters>39.857991860632</DistanceMeters>
          </Trackpoint>
          <Trackpoint>
            <Time>2019-08-04T13:55:31.000Z</Time>
            <Position>
              <LatitudeDegrees>-33.51746924221515655517578125</LatitudeDegrees>
              <LongitudeDegrees>-70.22248934023082256317138671875</LongitudeDegrees>
            </Position>
            <AltitudeMeters>1288.5999755859375</AltitudeMeters>
            <DistanceMeters>43.241796957108</DistanceMeters>
          </Trackpoint>
          <Trackpoint>
            <Time>2019-08-04T13:55:33.000Z</Time>
            <Position>
              <LatitudeDegrees>-33.517485000193119049072265625</LatitudeDegrees>
              <LongitudeDegrees>-70.22248548455536365509033203125</LongitudeDegrees>
            </Position>
            <AltitudeMeters>1289</AltitudeMeters>
            <DistanceMeters>45.029713918591</DistanceMeters>
          </Trackpoint>
          <Trackpoint>
            <Time>2019-08-04T13:55:34.000Z</Time>
            <Position>
              <LatitudeDegrees>-33.51749380119144916534423828125</LatitudeDegrees>
              <LongitudeDegrees>-70.22249051369726657867431640625</LongitudeDegrees>
            </Position>
            <AltitudeMeters>1289.199951171875</AltitudeMeters>
            <DistanceMeters>46.113185163117</DistanceMeters>
          </Trackpoint>
          <Trackpoint>
            <Time>2019-08-04T13:55:36.000Z</Time>
            <Position>
              <LatitudeDegrees>-33.51750905625522136688232421875</LatitudeDegrees>
              <LongitudeDegrees>-70.222502164542675018310546875</LongitudeDegrees>
            </Position>
            <AltitudeMeters>1289.800048828125</AltitudeMeters>
            <DistanceMeters>48.124521596161</DistanceMeters>
          </Trackpoint>
          <Trackpoint>
            <Time>2019-08-04T13:55:42.000Z</Time>
            <Position>
              <LatitudeDegrees>-33.5175488702952861785888671875</LatitudeDegrees>
              <LongitudeDegrees>-70.22252839989960193634033203125</LongitudeDegrees>
            </Position>
            <AltitudeMeters>1290.800048828125</AltitudeMeters>
            <DistanceMeters>53.181514426814</DistanceMeters>
          </Trackpoint>
          <Trackpoint>
            <Time>2019-08-04T13:55:47.000Z</Time>
            <Position>
              <LatitudeDegrees>-33.5175857506692409515380859375</LatitudeDegrees>
              <LongitudeDegrees>-70.22254264913499355316162109375</LongitudeDegrees>
            </Position>
            <AltitudeMeters>1291.4000244140625</AltitudeMeters>
            <DistanceMeters>57.494513090685</DistanceMeters>
          </Trackpoint>
          <Trackpoint>
            <Time>2019-08-04T13:55:51.000Z</Time>
            <Position>
              <LatitudeDegrees>-33.5176162607967853546142578125</LatitudeDegrees>
              <LongitudeDegrees>-70.22255270741879940032958984375</LongitudeDegrees>
            </Position>
            <AltitudeMeters>1292</AltitudeMeters>
            <DistanceMeters>61.016916394396</DistanceMeters>
          </Trackpoint>
          <Trackpoint>
            <Time>2019-08-04T13:55:54.000Z</Time>
            <Position>
              <LatitudeDegrees>-33.51763285696506500244140625</LatitudeDegrees>
              <LongitudeDegrees>-70.2225713990628719329833984375</LongitudeDegrees>
            </Position>
            <AltitudeMeters>1292.800048828125</AltitudeMeters>
            <DistanceMeters>63.55254539488</DistanceMeters>
          </Trackpoint>
          <Trackpoint>
            <Time>2019-08-04T13:55:56.000Z</Time>
            <Position>
              <LatitudeDegrees>-33.51764216087758541107177734375</LatitudeDegrees>
              <LongitudeDegrees>-70.2225883305072784423828125</LongitudeDegrees>
            </Position>
            <AltitudeMeters>1293.199951171875</AltitudeMeters>
            <DistanceMeters>65.431577031012</DistanceMeters>
          </Trackpoint>
          <Trackpoint>
            <Time>2019-08-04T13:56:00.000Z</Time>
            <Position>
              <LatitudeDegrees>-33.517663367092609405517578125</LatitudeDegrees>
              <LongitudeDegrees>-70.22261439822614192962646484375</LongitudeDegrees>
            </Position>
            <AltitudeMeters>1293.800048828125</AltitudeMeters>
            <DistanceMeters>68.810040679648</DistanceMeters>
          </Trackpoint>
          <Trackpoint>
            <Time>2019-08-04T13:56:02.000Z</Time>
            <Position>
              <LatitudeDegrees>-33.51766906678676605224609375</LatitudeDegrees>
              <LongitudeDegrees>-70.22262697108089923858642578125</LongitudeDegrees>
            </Position>
            <AltitudeMeters>1294</AltitudeMeters>
            <DistanceMeters>70.140414680828</DistanceMeters>
          </Trackpoint>
          <Trackpoint>
            <Time>2019-08-04T13:56:03.000Z</Time>
            <Position>
              <LatitudeDegrees>-33.51767283864319324493408203125</LatitudeDegrees>
              <LongitudeDegrees>-70.22263065911829471588134765625</LongitudeDegrees>
            </Position>
            <AltitudeMeters>1294.199951171875</AltitudeMeters>
            <DistanceMeters>70.686301594621</DistanceMeters>
          </Trackpoint>
          <Trackpoint>
            <Time>2019-08-04T13:56:09.000Z</Time>
            <Position>
              <LatitudeDegrees>-33.51771374233067035675048828125</LatitudeDegrees>
              <LongitudeDegrees>-70.22265513427555561065673828125</LongitudeDegrees>
            </Position>
            <AltitudeMeters>1295.199951171875</AltitudeMeters>
            <DistanceMeters>75.774447540329</DistanceMeters>
          </Trackpoint>
          <Trackpoint>
            <Time>2019-08-04T13:56:11.000Z</Time>
            <Position>
              <LatitudeDegrees>-33.5177262313663959503173828125</LatitudeDegrees>
              <LongitudeDegrees>-70.22265982814133167266845703125</LongitudeDegrees>
            </Position>
            <AltitudeMeters>1295.4000244140625</AltitudeMeters>
            <DistanceMeters>77.234275626362</DistanceMeters>
          </Trackpoint>
          <Trackpoint>
            <Time>2019-08-04T13:56:16.000Z</Time>
            <Position>
              <LatitudeDegrees>-33.51777845062315464019775390625</LatitudeDegrees>
              <LongitudeDegrees>-70.22265136241912841796875</LongitudeDegrees>
            </Position>
            <AltitudeMeters>1296</AltitudeMeters>
            <DistanceMeters>83.099818333689</DistanceMeters>
          </Trackpoint>
          <Trackpoint>
            <Time>2019-08-04T13:56:18.000Z</Time>
            <Position>
              <LatitudeDegrees>-33.51779420860111713409423828125</LatitudeDegrees>
              <LongitudeDegrees>-70.2226458303630352020263671875</LongitudeDegrees>
            </Position>
            <AltitudeMeters>1296.199951171875</AltitudeMeters>
            <DistanceMeters>84.927693680714</DistanceMeters>
          </Trackpoint>
          <Trackpoint>
            <Time>2019-08-04T13:56:19.000Z</Time>
            <Position>
              <LatitudeDegrees>-33.51780183613300323486328125</LatitudeDegrees>
              <LongitudeDegrees>-70.2226444892585277557373046875</LongitudeDegrees>
            </Position>
            <AltitudeMeters>1296.4000244140625</AltitudeMeters>
            <DistanceMeters>85.777638452753</DistanceMeters>
          </Trackpoint>
          <Trackpoint>
            <Time>2019-08-04T13:56:23.000Z</Time>
            <Position>
              <LatitudeDegrees>-33.5178365372121334075927734375</LatitudeDegrees>
              <LongitudeDegrees>-70.22263954393565654754638671875</LongitudeDegrees>
            </Position>
            <AltitudeMeters>1296.800048828125</AltitudeMeters>
            <DistanceMeters>89.667935114971</DistanceMeters>
          </Trackpoint>
          <Trackpoint>
            <Time>2019-08-04T13:56:27.000Z</Time>
            <Position>
              <LatitudeDegrees>-33.51785170845687389373779296875</LatitudeDegrees>
              <LongitudeDegrees>-70.22260970436036586761474609375</LongitudeDegrees>
            </Position>
            <AltitudeMeters>1297.4000244140625</AltitudeMeters>
            <DistanceMeters>92.911396083938</DistanceMeters>
          </Trackpoint>
          <Trackpoint>
            <Time>2019-08-04T13:56:31.000Z</Time>
            <Position>
              <LatitudeDegrees>-33.517854474484920501708984375</LatitudeDegrees>
              <LongitudeDegrees>-70.222569890320301055908203125</LongitudeDegrees>
            </Position>
            <AltitudeMeters>1297.800048828125</AltitudeMeters>
            <DistanceMeters>96.618656035398</DistanceMeters>
          </Trackpoint>
          <Trackpoint>
            <Time>2019-08-04T13:56:34.000Z</Time>
            <Position>
              <LatitudeDegrees>-33.51786361075937747955322265625</LatitudeDegrees>
              <LongitudeDegrees>-70.2225680463016033172607421875</LongitudeDegrees>
            </Position>
            <AltitudeMeters>1298.4000244140625</AltitudeMeters>
            <DistanceMeters>97.650910374399</DistanceMeters>
          </Trackpoint>
          <Trackpoint>
            <Time>2019-08-04T13:56:35.000Z</Time>
            <Position>
              <LatitudeDegrees>-33.51786511950194835662841796875</LatitudeDegrees>
              <LongitudeDegrees>-70.222567208111286163330078125</LongitudeDegrees>
            </Position>
            <AltitudeMeters>1298.5999755859375</AltitudeMeters>
            <DistanceMeters>97.840963803139</DistanceMeters>
          </Trackpoint>
          <Trackpoint>
            <Time>2019-08-04T13:56:44.000Z</Time>
            <Position>
              <LatitudeDegrees>-33.51789412088692188262939453125</LatitudeDegrees>
              <LongitudeDegrees>-70.222598724067211151123046875</LongitudeDegrees>
            </Position>
            <AltitudeMeters>1299.800048828125</AltitudeMeters>
            <DistanceMeters>102.19667162263</DistanceMeters>
          </Trackpoint>
          <Trackpoint>
            <Time>2019-08-04T13:56:46.000Z</Time>
            <Position>
              <LatitudeDegrees>-33.51790350861847400665283203125</LatitudeDegrees>
              <LongitudeDegrees>-70.22260651923716068267822265625</LongitudeDegrees>
            </Position>
            <AltitudeMeters>1300.199951171875</AltitudeMeters>
            <DistanceMeters>103.46804241176</DistanceMeters>
          </Trackpoint>
          <Trackpoint>
            <Time>2019-08-04T13:56:51.000Z</Time>
            <Position>
              <LatitudeDegrees>-33.51792714558541774749755859375</LatitudeDegrees>
              <LongitudeDegrees>-70.22260333411395549774169921875</LongitudeDegrees>
            </Position>
            <AltitudeMeters>1300.5999755859375</AltitudeMeters>
            <DistanceMeters>106.11858942576</DistanceMeters>
          </Trackpoint>
          <Trackpoint>
            <Time>2019-08-04T13:56:52.000Z</Time>
            <Position>
              <LatitudeDegrees>-33.51793192327022552490234375</LatitudeDegrees>
              <LongitudeDegrees>-70.2226022444665431976318359375</LongitudeDegrees>
            </Position>
            <AltitudeMeters>1300.800048828125</AltitudeMeters>
            <DistanceMeters>106.65614169876</DistanceMeters>
          </Trackpoint>
          <Trackpoint>
            <Time>2019-08-04T13:56:53.000Z</Time>
            <Position>
              <LatitudeDegrees>-33.51793753914535045623779296875</LatitudeDegrees>
              <LongitudeDegrees>-70.222601406276226043701171875</LongitudeDegrees>
            </Position>
            <AltitudeMeters>1301</AltitudeMeters>
            <DistanceMeters>107.28647761201</DistanceMeters>
          </Trackpoint>
          <Trackpoint>
            <Time>2019-08-04T13:56:57.000Z</Time>
            <Position>
              <LatitudeDegrees>-33.51795606315135955810546875</LatitudeDegrees>
              <LongitudeDegrees>-70.2226106263697147369384765625</LongitudeDegrees>
            </Position>
            <AltitudeMeters>1302</AltitudeMeters>
            <DistanceMeters>109.51909988124</DistanceMeters>
          </Trackpoint>
          <Trackpoint>
            <Time>2019-08-04T13:56:59.000Z</Time>
            <Position>
              <LatitudeDegrees>-33.51797006092965602874755859375</LatitudeDegrees>
              <LongitudeDegrees>-70.2226178348064422607421875</LongitudeDegrees>
            </Position>
            <AltitudeMeters>1302.199951171875</AltitudeMeters>
            <DistanceMeters>111.21366894421</DistanceMeters>
          </Trackpoint>
          <Trackpoint>
            <Time>2019-08-04T13:57:04.000Z</Time>
            <Position>
              <LatitudeDegrees>-33.5179981403052806854248046875</LatitudeDegrees>
              <LongitudeDegrees>-70.22263585589826107025146484375</LongitudeDegrees>
            </Position>
            <AltitudeMeters>1303</AltitudeMeters>
            <DistanceMeters>114.7590696846</DistanceMeters>
          </Trackpoint>
          <Trackpoint>
            <Time>2019-08-04T13:57:05.000Z</Time>
            <Position>
              <LatitudeDegrees>-33.5180068574845790863037109375</LatitudeDegrees>
              <LongitudeDegrees>-70.22264289669692516326904296875</LongitudeDegrees>
            </Position>
            <AltitudeMeters>1303.199951171875</AltitudeMeters>
            <DistanceMeters>115.93063770204</DistanceMeters>
          </Trackpoint>
          <Trackpoint>
            <Time>2019-08-04T13:57:06.000Z</Time>
            <Position>
              <LatitudeDegrees>-33.51801465265452861785888671875</LatitudeDegrees>
              <LongitudeDegrees>-70.2226527035236358642578125</LongitudeDegrees>
            </Position>
            <AltitudeMeters>1303.5999755859375</AltitudeMeters>
            <DistanceMeters>117.19130952854</DistanceMeters>
          </Trackpoint>
          <Trackpoint>
            <Time>2019-08-04T13:57:08.000Z</Time>
            <Position>
              <LatitudeDegrees>-33.5180278122425079345703125</LatitudeDegrees>
              <LongitudeDegrees>-70.22266209125518798828125</LongitudeDegrees>
            </Position>
            <AltitudeMeters>1304</AltitudeMeters>
            <DistanceMeters>118.89650295304</DistanceMeters>
          </Trackpoint>
          <Trackpoint>
            <Time>2019-08-04T13:57:11.000Z</Time>
            <Position>
              <LatitudeDegrees>-33.51804583333432674407958984375</LatitudeDegrees>
              <LongitudeDegrees>-70.222663767635822296142578125</LongitudeDegrees>
            </Position>
            <AltitudeMeters>1304.800048828125</AltitudeMeters>
            <DistanceMeters>120.90783938608</DistanceMeters>
          </Trackpoint>
          <Trackpoint>
            <Time>2019-08-04T13:57:13.000Z</Time>
            <Position>
              <LatitudeDegrees>-33.51805505342781543731689453125</LatitudeDegrees>
              <LongitudeDegrees>-70.222667790949344635009765625</LongitudeDegrees>
            </Position>
            <AltitudeMeters>1305.199951171875</AltitudeMeters>
            <DistanceMeters>121.99546984454</DistanceMeters>
          </Trackpoint>
          <Trackpoint>
            <Time>2019-08-04T13:57:18.000Z</Time>
            <Position>
              <LatitudeDegrees>-33.5180729068815708160400390625</LatitudeDegrees>
              <LongitudeDegrees>-70.22267642430961132049560546875</LongitudeDegrees>
            </Position>
            <AltitudeMeters>1306.4000244140625</AltitudeMeters>
            <DistanceMeters>124.13726321308</DistanceMeters>
          </Trackpoint>
          <Trackpoint>
            <Time>2019-08-04T13:57:24.000Z</Time>
            <Position>
              <LatitudeDegrees>-33.51808204315602779388427734375</LatitudeDegrees>
              <LongitudeDegrees>-70.2226823754608631134033203125</LongitudeDegrees>
            </Position>
            <AltitudeMeters>1307.4000244140625</AltitudeMeters>
            <DistanceMeters>125.29721208702</DistanceMeters>
          </Trackpoint>
          <Trackpoint>
            <Time>2019-08-04T13:57:25.000Z</Time>
            <Position>
              <LatitudeDegrees>-33.51808371953666210174560546875</LatitudeDegrees>
              <LongitudeDegrees>-70.22268421947956085205078125</LongitudeDegrees>
            </Position>
            <AltitudeMeters>1307.5999755859375</AltitudeMeters>
            <DistanceMeters>125.54862914115</DistanceMeters>
          </Trackpoint>
          <Trackpoint>
            <Time>2019-08-04T13:57:27.000Z</Time>
            <Position>
              <LatitudeDegrees>-33.51809210143983364105224609375</LatitudeDegrees>
              <LongitudeDegrees>-70.2226833812892436981201171875</LongitudeDegrees>
            </Position>
            <AltitudeMeters>1308</AltitudeMeters>
            <DistanceMeters>126.48453373835</DistanceMeters>
          </Trackpoint>
          <Trackpoint>
            <Time>2019-08-04T13:57:30.000Z</Time>
            <Position>
              <LatitudeDegrees>-33.51810584776103496551513671875</LatitudeDegrees>
              <LongitudeDegrees>-70.22268556058406829833984375</LongitudeDegrees>
            </Position>
            <AltitudeMeters>1308.5999755859375</AltitudeMeters>
            <DistanceMeters>128.02853509237</DistanceMeters>
          </Trackpoint>
          <Trackpoint>
            <Time>2019-08-04T13:57:33.000Z</Time>
            <Position>
              <LatitudeDegrees>-33.5181377828121185302734375</LatitudeDegrees>
              <LongitudeDegrees>-70.2226741611957550048828125</LongitudeDegrees>
            </Position>
            <AltitudeMeters>1309.199951171875</AltitudeMeters>
            <DistanceMeters>131.73823002599</DistanceMeters>
          </Trackpoint>
          <Trackpoint>
            <Time>2019-08-04T13:57:35.000Z</Time>
            <Position>
              <LatitudeDegrees>-33.51816250942647457122802734375</LatitudeDegrees>
              <LongitudeDegrees>-70.22265446372330188751220703125</LongitudeDegrees>
            </Position>
            <AltitudeMeters>1309.800048828125</AltitudeMeters>
            <DistanceMeters>135.04237324637</DistanceMeters>
          </Trackpoint>
          <Trackpoint>
            <Time>2019-08-04T13:57:39.000Z</Time>
            <Position>
              <LatitudeDegrees>-33.518186397850513458251953125</LatitudeDegrees>
              <LongitudeDegrees>-70.2226580679416656494140625</LongitudeDegrees>
            </Position>
            <AltitudeMeters>1310.4000244140625</AltitudeMeters>
            <DistanceMeters>137.72340678763</DistanceMeters>
          </Trackpoint>
          <Trackpoint>
            <Time>2019-08-04T13:57:41.000Z</Time>
            <Position>
              <LatitudeDegrees>-33.51819838397204875946044921875</LatitudeDegrees>
              <LongitudeDegrees>-70.222657732665538787841796875</LongitudeDegrees>
            </Position>
            <AltitudeMeters>1310.800048828125</AltitudeMeters>
            <DistanceMeters>139.06055118369</DistanceMeters>
          </Trackpoint>
          <Trackpoint>
            <Time>2019-08-04T13:57:42.000Z</Time>
            <Position>
              <LatitudeDegrees>-33.51820777170360088348388671875</LatitudeDegrees>
              <LongitudeDegrees>-70.22265563718974590301513671875</LongitudeDegrees>
            </Position>
            <AltitudeMeters>1311</AltitudeMeters>
            <DistanceMeters>140.11872389126</DistanceMeters>
          </Trackpoint>
          <Trackpoint>
            <Time>2019-08-04T13:57:43.000Z</Time>
            <Position>
              <LatitudeDegrees>-33.518213890492916107177734375</LatitudeDegrees>
              <LongitudeDegrees>-70.2226548828184604644775390625</LongitudeDegrees>
            </Position>
            <AltitudeMeters>1311.199951171875</AltitudeMeters>
            <DistanceMeters>140.80397127366</DistanceMeters>
          </Trackpoint>
          <Trackpoint>
            <Time>2019-08-04T13:57:44.000Z</Time>
            <Position>
              <LatitudeDegrees>-33.51821866817772388458251953125</LatitudeDegrees>
              <LongitudeDegrees>-70.2226552180945873260498046875</LongitudeDegrees>
            </Position>
            <AltitudeMeters>1311.5999755859375</AltitudeMeters>
            <DistanceMeters>141.33305762745</DistanceMeters>
          </Trackpoint>
          <Trackpoint>
            <Time>2019-08-04T13:57:45.000Z</Time>
            <Position>
              <LatitudeDegrees>-33.51822487078607082366943359375</LatitudeDegrees>
              <LongitudeDegrees>-70.222650356590747833251953125</LongitudeDegrees>
            </Position>
            <AltitudeMeters>1311.800048828125</AltitudeMeters>
            <DistanceMeters>142.15050833352</DistanceMeters>
          </Trackpoint>
          <Trackpoint>
            <Time>2019-08-04T13:57:46.000Z</Time>
            <Position>
              <LatitudeDegrees>-33.51822922937572002410888671875</LatitudeDegrees>
              <LongitudeDegrees>-70.222644992172718048095703125</LongitudeDegrees>
            </Position>
            <AltitudeMeters>1311.800048828125</AltitudeMeters>
            <DistanceMeters>142.84231325655</DistanceMeters>
          </Trackpoint>
          <Trackpoint>
            <Time>2019-08-04T13:57:50.000Z</Time>
            <Position>
              <LatitudeDegrees>-33.5182423889636993408203125</LatitudeDegrees>
              <LongitudeDegrees>-70.2226196788251399993896484375</LongitudeDegrees>
            </Position>
            <AltitudeMeters>1312.800048828125</AltitudeMeters>
            <DistanceMeters>145.60953294867</DistanceMeters>
          </Trackpoint>
          <Trackpoint>
            <Time>2019-08-04T13:57:51.000Z</Time>
            <Position>
              <LatitudeDegrees>-33.518250100314617156982421875</LatitudeDegrees>
              <LongitudeDegrees>-70.22261640988290309906005859375</LongitudeDegrees>
            </Position>
            <AltitudeMeters>1313</AltitudeMeters>
            <DistanceMeters>146.51603002886</DistanceMeters>
          </Trackpoint>
          <Trackpoint>
            <Time>2019-08-04T13:57:55.000Z</Time>
            <Position>
              <LatitudeDegrees>-33.518268875777721405029296875</LatitudeDegrees>
              <LongitudeDegrees>-70.22260735742747783660888671875</LongitudeDegrees>
            </Position>
            <AltitudeMeters>1313.5999755859375</AltitudeMeters>
            <DistanceMeters>148.76677943407</DistanceMeters>
          </Trackpoint>
          <Trackpoint>
            <Time>2019-08-04T13:57:58.000Z</Time>
            <Position>
              <LatitudeDegrees>-33.51828463375568389892578125</LatitudeDegrees>
              <LongitudeDegrees>-70.222598053514957427978515625</LongitudeDegrees>
            </Position>
            <AltitudeMeters>1313.800048828125</AltitudeMeters>
            <DistanceMeters>150.72119042867</DistanceMeters>
          </Trackpoint>
          <Trackpoint>
            <Time>2019-08-04T13:58:00.000Z</Time>
            <Position>
              <LatitudeDegrees>-33.51829670369625091552734375</LatitudeDegrees>
              <LongitudeDegrees>-70.22259478457272052764892578125</LongitudeDegrees>
            </Position>
            <AltitudeMeters>1314.199951171875</AltitudeMeters>
            <DistanceMeters>152.09825834756</DistanceMeters>
          </Trackpoint>
          <Trackpoint>
            <Time>2019-08-04T13:58:03.000Z</Time>
            <Position>
              <LatitudeDegrees>-33.51830164901912212371826171875</LatitudeDegrees>
              <LongitudeDegrees>-70.2226030826568603515625</LongitudeDegrees>
            </Position>
            <AltitudeMeters>1314.5999755859375</AltitudeMeters>
            <DistanceMeters>153.04376221743</DistanceMeters>
          </Trackpoint>
          <Trackpoint>
            <Time>2019-08-04T13:58:07.000Z</Time>
            <Position>
              <LatitudeDegrees>-33.5183186642825603485107421875</LatitudeDegrees>
              <LongitudeDegrees>-70.2226129733026027679443359375</LongitudeDegrees>
            </Position>
            <AltitudeMeters>1315.4000244140625</AltitudeMeters>
            <DistanceMeters>155.14726820923</DistanceMeters>
          </Trackpoint>
          <Trackpoint>
            <Time>2019-08-04T13:58:14.000Z</Time>
            <Position>
              <LatitudeDegrees>-33.518359400331974029541015625</LatitudeDegrees>
              <LongitudeDegrees>-70.22262613289058208465576171875</LongitudeDegrees>
            </Position>
            <AltitudeMeters>1316.4000244140625</AltitudeMeters>
            <DistanceMeters>159.8431650007</DistanceMeters>
          </Trackpoint>
          <Trackpoint>
            <Time>2019-08-04T13:58:16.000Z</Time>
            <Position>
              <LatitudeDegrees>-33.5183635912835597991943359375</LatitudeDegrees>
              <LongitudeDegrees>-70.22263786755502223968505859375</LongitudeDegrees>
            </Position>
            <AltitudeMeters>1316.5999755859375</AltitudeMeters>
            <DistanceMeters>161.02623805374</DistanceMeters>
          </Trackpoint>
          <Trackpoint>
            <Time>2019-08-04T13:58:19.000Z</Time>
            <Position>
              <LatitudeDegrees>-33.51836853660643100738525390625</LatitudeDegrees>
              <LongitudeDegrees>-70.2226595766842365264892578125</LongitudeDegrees>
            </Position>
            <AltitudeMeters>1317</AltitudeMeters>
            <DistanceMeters>163.11466495512</DistanceMeters>
          </Trackpoint>
          <Trackpoint>
            <Time>2019-08-04T13:58:21.000Z</Time>
            <Position>
              <LatitudeDegrees>-33.5183723084628582000732421875</LatitudeDegrees>
              <LongitudeDegrees>-70.22267307154834270477294921875</LongitudeDegrees>
            </Position>
            <AltitudeMeters>1317.4000244140625</AltitudeMeters>
            <DistanceMeters>164.43139373404</DistanceMeters>
          </Trackpoint>
          <Trackpoint>
            <Time>2019-08-04T13:58:24.000Z</Time>
            <Position>
              <LatitudeDegrees>-33.5183818638324737548828125</LatitudeDegrees>
              <LongitudeDegrees>-70.2226887457072734832763671875</LongitudeDegrees>
            </Position>
            <AltitudeMeters>1318</AltitudeMeters>
            <DistanceMeters>166.23189295464</DistanceMeters>
          </Trackpoint>
          <Trackpoint>
            <Time>2019-08-04T13:58:26.000Z</Time>
            <Position>
              <LatitudeDegrees>-33.51839326322078704833984375</LatitudeDegrees>
              <LongitudeDegrees>-70.22269989363849163055419921875</LongitudeDegrees>
            </Position>
            <AltitudeMeters>1318.4000244140625</AltitudeMeters>
            <DistanceMeters>167.86679436678</DistanceMeters>
          </Trackpoint>
          <Trackpoint>
            <Time>2019-08-04T13:58:28.000Z</Time>
            <Position>
              <LatitudeDegrees>-33.51840172894299030303955078125</LatitudeDegrees>
              <LongitudeDegrees>-70.22271246649324893951416015625</LongitudeDegrees>
            </Position>
            <AltitudeMeters>1319</AltitudeMeters>
            <DistanceMeters>169.36629062704</DistanceMeters>
          </Trackpoint>
          <Trackpoint>
            <Time>2019-08-04T13:58:32.000Z</Time>
            <Position>
              <LatitudeDegrees>-33.518402315676212310791015625</LatitudeDegrees>
              <LongitudeDegrees>-70.2227242849767208099365234375</LongitudeDegrees>
            </Position>
            <AltitudeMeters>1319.5999755859375</AltitudeMeters>
            <DistanceMeters>170.45806445463</DistanceMeters>
          </Trackpoint>
          <Trackpoint>
            <Time>2019-08-04T13:58:34.000Z</Time>
            <Position>
              <LatitudeDegrees>-33.51840022020041942596435546875</LatitudeDegrees>
              <LongitudeDegrees>-70.22273241542279720306396484375</LongitudeDegrees>
            </Position>
            <AltitudeMeters>1320</AltitudeMeters>
            <DistanceMeters>171.24741562783</DistanceMeters>
          </Trackpoint>
          <Trackpoint>
            <Time>2019-08-04T13:58:37.000Z</Time>
            <Position>
              <LatitudeDegrees>-33.5184033215045928955078125</LatitudeDegrees>
              <LongitudeDegrees>-70.2227450720965862274169921875</LongitudeDegrees>
            </Position>
            <AltitudeMeters>1320.5999755859375</AltitudeMeters>
            <DistanceMeters>172.47543141199</DistanceMeters>
          </Trackpoint>
          <Trackpoint>
            <Time>2019-08-04T13:58:39.000Z</Time>
            <Position>
              <LatitudeDegrees>-33.51841413415968418121337890625</LatitudeDegrees>
              <LongitudeDegrees>-70.222756303846836090087890625</LongitudeDegrees>
            </Position>
            <AltitudeMeters>1321.199951171875</AltitudeMeters>
            <DistanceMeters>174.06836941478</DistanceMeters>
          </Trackpoint>
          <Trackpoint>
            <Time>2019-08-04T13:58:42.000Z</Time>
            <Position>
              <LatitudeDegrees>-33.51842771284282207489013671875</LatitudeDegrees>
              <LongitudeDegrees>-70.2227635122835636138916015625</LongitudeDegrees>
            </Position>
            <AltitudeMeters>1321.800048828125</AltitudeMeters>
            <DistanceMeters>175.71975764475</DistanceMeters>
          </Trackpoint>
          <Trackpoint>
            <Time>2019-08-04T13:58:47.000Z</Time>
            <Position>
              <LatitudeDegrees>-33.5184554569423198699951171875</LatitudeDegrees>
              <LongitudeDegrees>-70.2227859757840633392333984375</LongitudeDegrees>
            </Position>
            <AltitudeMeters>1322.5999755859375</AltitudeMeters>
            <DistanceMeters>179.44645290608</DistanceMeters>
          </Trackpoint>
          <Trackpoint>
            <Time>2019-08-04T13:58:48.000Z</Time>
            <Position>
              <LatitudeDegrees>-33.51845889352262020111083984375</LatitudeDegrees>
              <LongitudeDegrees>-70.22279326803982257843017578125</LongitudeDegrees>
            </Position>
            <AltitudeMeters>1323</AltitudeMeters>
            <DistanceMeters>180.23006326728</DistanceMeters>
          </Trackpoint>
          <Trackpoint>
            <Time>2019-08-04T13:58:49.000Z</Time>
            <Position>
              <LatitudeDegrees>-33.5184609889984130859375</LatitudeDegrees>
              <LongitudeDegrees>-70.2228010632097721099853515625</LongitudeDegrees>
            </Position>
            <AltitudeMeters>1323.199951171875</AltitudeMeters>
            <DistanceMeters>180.99027698224</DistanceMeters>
          </Trackpoint>
          <Trackpoint>
            <Time>2019-08-04T13:58:51.000Z</Time>
            <Position>
              <LatitudeDegrees>-33.51846425794064998626708984375</LatitudeDegrees>
              <LongitudeDegrees>-70.22281388752162456512451171875</LongitudeDegrees>
            </Position>
            <AltitudeMeters>1323.5999755859375</AltitudeMeters>
            <DistanceMeters>182.23654065754</DistanceMeters>
          </Trackpoint>
          <Trackpoint>
            <Time>2019-08-04T13:58:53.000Z</Time>
            <Position>
              <LatitudeDegrees>-33.51846643723547458648681640625</LatitudeDegrees>
              <LongitudeDegrees>-70.22282545454800128936767578125</LongitudeDegrees>
            </Position>
            <AltitudeMeters>1324.199951171875</AltitudeMeters>
            <DistanceMeters>183.34473305797</DistanceMeters>
          </Trackpoint>
          <Trackpoint>
            <Time>2019-08-04T13:58:57.000Z</Time>
            <Position>
              <LatitudeDegrees>-33.51846761070191860198974609375</LatitudeDegrees>
              <LongitudeDegrees>-70.22285328246653079986572265625</LongitudeDegrees>
            </Position>
            <AltitudeMeters>1324.800048828125</AltitudeMeters>
            <DistanceMeters>185.92973916406</DistanceMeters>
          </Trackpoint>
          <Trackpoint>
            <Time>2019-08-04T13:58:59.000Z</Time>
            <Position>
              <LatitudeDegrees>-33.51847062818706035614013671875</LatitudeDegrees>
              <LongitudeDegrees>-70.22286803461611270904541015625</LongitudeDegrees>
            </Position>
            <AltitudeMeters>1325.199951171875</AltitudeMeters>
            <DistanceMeters>187.34241283272</DistanceMeters>
          </Trackpoint>
          <Trackpoint>
            <Time>2019-08-04T13:59:03.000Z</Time>
            <Position>
              <LatitudeDegrees>-33.51847079582512378692626953125</LatitudeDegrees>
              <LongitudeDegrees>-70.22288965992629528045654296875</LongitudeDegrees>
            </Position>
            <AltitudeMeters>1326.199951171875</AltitudeMeters>
            <DistanceMeters>189.34925465359</DistanceMeters>
          </Trackpoint>
          <Trackpoint>
            <Time>2019-08-04T13:59:08.000Z</Time>
            <Position>
              <LatitudeDegrees>-33.51848781108856201171875</LatitudeDegrees>
              <LongitudeDegrees>-70.22291178815066814422607421875</LongitudeDegrees>
            </Position>
            <AltitudeMeters>1327.5999755859375</AltitudeMeters>
            <DistanceMeters>192.14245819927</DistanceMeters>
          </Trackpoint>
          <Trackpoint>
            <Time>2019-08-04T13:59:13.000Z</Time>
            <Position>
              <LatitudeDegrees>-33.51851706393063068389892578125</LatitudeDegrees>
              <LongitudeDegrees>-70.2229271270334720611572265625</LongitudeDegrees>
            </Position>
            <AltitudeMeters>1328.4000244140625</AltitudeMeters>
            <DistanceMeters>195.69549167345</DistanceMeters>
          </Trackpoint>
          <Trackpoint>
            <Time>2019-08-04T13:59:14.000Z</Time>
            <Position>
              <LatitudeDegrees>-33.51852360181510448455810546875</LatitudeDegrees>
              <LongitudeDegrees>-70.222930647432804107666015625</LongitudeDegrees>
            </Position>
            <AltitudeMeters>1328.4000244140625</AltitudeMeters>
            <DistanceMeters>196.49054220711</DistanceMeters>
          </Trackpoint>
          <Trackpoint>
            <Time>2019-08-04T13:59:15.000Z</Time>
            <Position>
              <LatitudeDegrees>-33.51852695457637310028076171875</LatitudeDegrees>
              <LongitudeDegrees>-70.2229318208992481231689453125</LongitudeDegrees>
            </Position>
            <AltitudeMeters>1328.5999755859375</AltitudeMeters>
            <DistanceMeters>196.87064906459</DistanceMeters>
          </Trackpoint>
          <Trackpoint>
            <Time>2019-08-04T13:59:16.000Z</Time>
            <Position>
              <LatitudeDegrees>-33.51852879859507083892822265625</LatitudeDegrees>
              <LongitudeDegrees>-70.22293425165116786956787109375</LongitudeDegrees>
            </Position>
            <AltitudeMeters>1328.800048828125</AltitudeMeters>
            <DistanceMeters>197.18581702122</DistanceMeters>
          </Trackpoint>
          <Trackpoint>
            <Time>2019-08-04T13:59:22.000Z</Time>
            <Position>
              <LatitudeDegrees>-33.51853366009891033172607421875</LatitudeDegrees>
              <LongitudeDegrees>-70.22296777926385402679443359375</LongitudeDegrees>
            </Position>
            <AltitudeMeters>1329.5999755859375</AltitudeMeters>
            <DistanceMeters>200.34465137435</DistanceMeters>
          </Trackpoint>
          <Trackpoint>
            <Time>2019-08-04T13:59:23.000Z</Time>
            <Position>
              <LatitudeDegrees>-33.51853852160274982452392578125</LatitudeDegrees>
              <LongitudeDegrees>-70.22297230549156665802001953125</LongitudeDegrees>
            </Position>
            <AltitudeMeters>1329.5999755859375</AltitudeMeters>
            <DistanceMeters>201.02989875675</DistanceMeters>
          </Trackpoint>
          <Trackpoint>
            <Time>2019-08-04T13:59:28.000Z</Time>
            <Position>
              <LatitudeDegrees>-33.51855075918138027191162109375</LatitudeDegrees>
              <LongitudeDegrees>-70.223000384867191314697265625</LongitudeDegrees>
            </Position>
            <AltitudeMeters>1330.199951171875</AltitudeMeters>
            <DistanceMeters>203.97112524129</DistanceMeters>
          </Trackpoint>
          <Trackpoint>
            <Time>2019-08-04T13:59:30.000Z</Time>
            <Position>
              <LatitudeDegrees>-33.5185587219893932342529296875</LatitudeDegrees>
              <LongitudeDegrees>-70.22301186807453632354736328125</LongitudeDegrees>
            </Position>
            <AltitudeMeters>1330.199951171875</AltitudeMeters>
            <DistanceMeters>205.35799447902</DistanceMeters>
          </Trackpoint>
          <Trackpoint>
            <Time>2019-08-04T13:59:34.000Z</Time>
            <Position>
              <LatitudeDegrees>-33.5185669362545013427734375</LatitudeDegrees>
              <LongitudeDegrees>-70.223033241927623748779296875</LongitudeDegrees>
            </Position>
            <AltitudeMeters>1330.800048828125</AltitudeMeters>
            <DistanceMeters>207.54154213419</DistanceMeters>
          </Trackpoint>
          <Trackpoint>
            <Time>2019-08-04T13:59:40.000Z</Time>
            <Position>
              <LatitudeDegrees>-33.51859032176434993743896484375</LatitudeDegrees>
              <LongitudeDegrees>-70.2230652607977390289306640625</LongitudeDegrees>
            </Position>
            <AltitudeMeters>1331.800048828125</AltitudeMeters>
            <DistanceMeters>211.49058531181</DistanceMeters>
          </Trackpoint>
          <Trackpoint>
            <Time>2019-08-04T13:59:43.000Z</Time>
            <Position>
              <LatitudeDegrees>-33.51860272698104381561279296875</LatitudeDegrees>
              <LongitudeDegrees>-70.2230823598802089691162109375</LongitudeDegrees>
            </Position>
            <AltitudeMeters>1332.199951171875</AltitudeMeters>
            <DistanceMeters>213.59409130361</DistanceMeters>
          </Trackpoint>
          <Trackpoint>
            <Time>2019-08-04T13:59:51.000Z</Time>
            <Position>
              <LatitudeDegrees>-33.518659137189388275146484375</LatitudeDegrees>
              <LongitudeDegrees>-70.22312435321509838104248046875</LongitudeDegrees>
            </Position>
            <AltitudeMeters>1332.4000244140625</AltitudeMeters>
            <DistanceMeters>220.98360226555</DistanceMeters>
          </Trackpoint>
          <Trackpoint>
            <Time>2019-08-04T13:59:57.000Z</Time>
            <Position>
              <LatitudeDegrees>-33.51870465092360973358154296875</LatitudeDegrees>
              <LongitudeDegrees>-70.22315318696200847625732421875</LongitudeDegrees>
            </Position>
            <AltitudeMeters>1332.5999755859375</AltitudeMeters>
            <DistanceMeters>226.71285421268</DistanceMeters>
          </Trackpoint>
          <Trackpoint>
            <Time>2019-08-04T13:59:59.000Z</Time>
            <Position>
              <LatitudeDegrees>-33.51872661150991916656494140625</LatitudeDegrees>
              <LongitudeDegrees>-70.2231591381132602691650390625</LongitudeDegrees>
            </Position>
            <AltitudeMeters>1332.5999755859375</AltitudeMeters>
            <DistanceMeters>229.21983111824</DistanceMeters>
          </Trackpoint>
          <Trackpoint>
            <Time>2019-08-04T14:00:01.000Z</Time>
            <Position>
              <LatitudeDegrees>-33.518740944564342498779296875</LatitudeDegrees>
              <LongitudeDegrees>-70.22316341288387775421142578125</LongitudeDegrees>
            </Position>
            <AltitudeMeters>1332.800048828125</AltitudeMeters>
            <DistanceMeters>230.86299661713</DistanceMeters>
          </Trackpoint>
          <Trackpoint>
            <Time>2019-08-04T14:00:04.000Z</Time>
            <Position>
              <LatitudeDegrees>-33.5187706165015697479248046875</LatitudeDegrees>
              <LongitudeDegrees>-70.22316911257803440093994140625</LongitudeDegrees>
            </Position>
            <AltitudeMeters>1333</AltitudeMeters>
            <DistanceMeters>234.20788297007</DistanceMeters>
          </Trackpoint>
          <Trackpoint>
            <Time>2019-08-04T14:00:09.000Z</Time>
            <Position>
              <LatitudeDegrees>-33.51881277747452259063720703125</LatitudeDegrees>
              <LongitudeDegrees>-70.22317028604447841644287109375</LongitudeDegrees>
            </Position>
            <AltitudeMeters>1333.199951171875</AltitudeMeters>
            <DistanceMeters>238.90185639599</DistanceMeters>
          </Trackpoint>
          <Trackpoint>
            <Time>2019-08-04T14:00:13.000Z</Time>
            <Position>
              <LatitudeDegrees>-33.51885317824780941009521484375</LatitudeDegrees>
              <LongitudeDegrees>-70.223167352378368377685546875</LongitudeDegrees>
            </Position>
            <AltitudeMeters>1333.4000244140625</AltitudeMeters>
            <DistanceMeters>243.40636322466</DistanceMeters>
          </Trackpoint>
          <Trackpoint>
            <Time>2019-08-04T14:00:14.000Z</Time>
            <Position>
              <LatitudeDegrees>-33.51886256597936153411865234375</LatitudeDegrees>
              <LongitudeDegrees>-70.22316626273095607757568359375</LongitudeDegrees>
            </Position>
            <AltitudeMeters>1333.4000244140625</AltitudeMeters>
            <DistanceMeters>244.45596759115</DistanceMeters>
          </Trackpoint>
          <Trackpoint>
            <Time>2019-08-04T14:00:15.000Z</Time>
            <Position>
              <LatitudeDegrees>-33.51887145079672336578369140625</LatitudeDegrees>
              <LongitudeDegrees>-70.22316274233162403106689453125</LongitudeDegrees>
            </Position>
            <AltitudeMeters>1333.5999755859375</AltitudeMeters>
            <DistanceMeters>245.50126144922</DistanceMeters>
          </Trackpoint>
          <Trackpoint>
            <Time>2019-08-04T14:00:24.000Z</Time>
            <Position>
              <LatitudeDegrees>-33.51893984712660312652587890625</LatitudeDegrees>
              <LongitudeDegrees>-70.223166681826114654541015625</LongitudeDegrees>
            </Position>
            <AltitudeMeters>1333.800048828125</AltitudeMeters>
            <DistanceMeters>253.12356502757</DistanceMeters>
          </Trackpoint>
          <Trackpoint>
            <Time>2019-08-04T14:00:25.000Z</Time>
            <Position>
              <LatitudeDegrees>-33.5189463011920452117919921875</LatitudeDegrees>
              <LongitudeDegrees>-70.223171375691890716552734375</LongitudeDegrees>
            </Position>
            <AltitudeMeters>1333.800048828125</AltitudeMeters>
            <DistanceMeters>253.96281824479</DistanceMeters>
          </Trackpoint>
          <Trackpoint>
            <Time>2019-08-04T14:00:27.000Z</Time>
            <Position>
              <LatitudeDegrees>-33.51896415464580059051513671875</LatitudeDegrees>
              <LongitudeDegrees>-70.22317850030958652496337890625</LongitudeDegrees>
            </Position>
            <AltitudeMeters>1333.800048828125</AltitudeMeters>
            <DistanceMeters>256.05772090405</DistanceMeters>
          </Trackpoint>
          <Trackpoint>
            <Time>2019-08-04T14:00:29.000Z</Time>
            <Position>
              <LatitudeDegrees>-33.51897907443344593048095703125</LatitudeDegrees>
              <LongitudeDegrees>-70.2231913246214389801025390625</LongitudeDegrees>
            </Position>
            <AltitudeMeters>1334</AltitudeMeters>
            <DistanceMeters>258.1046589759</DistanceMeters>
          </Trackpoint>
          <Trackpoint>
            <Time>2019-08-04T14:00:30.000Z</Time>
            <Position>
              <LatitudeDegrees>-33.51898670196533203125</LatitudeDegrees>
              <LongitudeDegrees>-70.2231998741626739501953125</LongitudeDegrees>
            </Position>
            <AltitudeMeters>1334.199951171875</AltitudeMeters>
            <DistanceMeters>259.2684937866</DistanceMeters>
          </Trackpoint>
          <Trackpoint>
            <Time>2019-08-04T14:00:32.000Z</Time>
            <Position>
              <LatitudeDegrees>-33.51899717934429645538330078125</LatitudeDegrees>
              <LongitudeDegrees>-70.2232147939503192901611328125</LongitudeDegrees>
            </Position>
            <AltitudeMeters>1334.199951171875</AltitudeMeters>
            <DistanceMeters>261.07650033325</DistanceMeters>
          </Trackpoint>
          <Trackpoint>
            <Time>2019-08-04T14:00:36.000Z</Time>
            <Position>
              <LatitudeDegrees>-33.51902131922543048858642578125</LatitudeDegrees>
              <LongitudeDegrees>-70.22323918528854846954345703125</LongitudeDegrees>
            </Position>
            <AltitudeMeters>1334.5999755859375</AltitudeMeters>
            <DistanceMeters>264.58863421772</DistanceMeters>
          </Trackpoint>
          <Trackpoint>
            <Time>2019-08-04T14:00:39.000Z</Time>
            <Position>
              <LatitudeDegrees>-33.5190442018210887908935546875</LatitudeDegrees>
              <LongitudeDegrees>-70.22325762547552585601806640625</LongitudeDegrees>
            </Position>
            <AltitudeMeters>1334.800048828125</AltitudeMeters>
            <DistanceMeters>267.65609891264</DistanceMeters>
          </Trackpoint>
          <Trackpoint>
            <Time>2019-08-04T14:00:41.000Z</Time>
            <Position>
              <LatitudeDegrees>-33.51905845105648040771484375</LatitudeDegrees>
              <LongitudeDegrees>-70.223270617425441741943359375</LongitudeDegrees>
            </Position>
            <AltitudeMeters>1334.800048828125</AltitudeMeters>
            <DistanceMeters>269.64939608951</DistanceMeters>
          </Trackpoint>
          <Trackpoint>
            <Time>2019-08-04T14:00:49.000Z</Time>
            <Position>
              <LatitudeDegrees>-33.51911008358001708984375</LatitudeDegrees>
              <LongitudeDegrees>-70.2233103476464748382568359375</LongitudeDegrees>
            </Position>
            <AltitudeMeters>1335.5999755859375</AltitudeMeters>
            <DistanceMeters>276.47678611819</DistanceMeters>
          </Trackpoint>
          <Trackpoint>
            <Time>2019-08-04T14:00:50.000Z</Time>
            <Position>
              <LatitudeDegrees>-33.51911586709320545196533203125</LatitudeDegrees>
              <LongitudeDegrees>-70.2233137004077434539794921875</LongitudeDegrees>
            </Position>
            <AltitudeMeters>1335.800048828125</AltitudeMeters>
            <DistanceMeters>277.18790093372</DistanceMeters>
          </Trackpoint>
          <Trackpoint>
            <Time>2019-08-04T14:00:51.000Z</Time>
            <Position>
              <LatitudeDegrees>-33.51912123151123523712158203125</LatitudeDegrees>
              <LongitudeDegrees>-70.22331898100674152374267578125</LongitudeDegrees>
            </Position>
            <AltitudeMeters>1336</AltitudeMeters>
            <DistanceMeters>277.95990161073</DistanceMeters>
          </Trackpoint>
          <Trackpoint>
            <Time>2019-08-04T14:00:57.000Z</Time>
            <Position>
              <LatitudeDegrees>-33.51916179992258548736572265625</LatitudeDegrees>
              <LongitudeDegrees>-70.22335552610456943511962890625</LongitudeDegrees>
            </Position>
            <AltitudeMeters>1336.800048828125</AltitudeMeters>
            <DistanceMeters>283.6058001085</DistanceMeters>
          </Trackpoint>
          <Trackpoint>
            <Time>2019-08-04T14:00:59.000Z</Time>
            <Position>
              <LatitudeDegrees>-33.51917638443410396575927734375</LatitudeDegrees>
              <LongitudeDegrees>-70.22336625494062900543212890625</LongitudeDegrees>
            </Position>
            <AltitudeMeters>1337.199951171875</AltitudeMeters>
            <DistanceMeters>285.51107980725</DistanceMeters>
          </Trackpoint>
          <Trackpoint>
            <Time>2019-08-04T14:01:03.000Z</Time>
            <Position>
              <LatitudeDegrees>-33.51920773275196552276611328125</LatitudeDegrees>
              <LongitudeDegrees>-70.22338167764246463775634765625</LongitudeDegrees>
            </Position>
            <AltitudeMeters>1337.5999755859375</AltitudeMeters>
            <DistanceMeters>289.2835326533</DistanceMeters>
          </Trackpoint>
          <Trackpoint>
            <Time>2019-08-04T14:01:06.000Z</Time>
            <Position>
              <LatitudeDegrees>-33.51922516711056232452392578125</LatitudeDegrees>
              <LongitudeDegrees>-70.223389305174350738525390625</LongitudeDegrees>
            </Position>
            <AltitudeMeters>1338.4000244140625</AltitudeMeters>
            <DistanceMeters>291.3502271537</DistanceMeters>
          </Trackpoint>
          <Trackpoint>
            <Time>2019-08-04T14:01:14.000Z</Time>
            <Position>
              <LatitudeDegrees>-33.5192668251693248748779296875</LatitudeDegrees>
              <LongitudeDegrees>-70.223431549966335296630859375</LongitudeDegrees>
            </Position>
            <AltitudeMeters>1339.199951171875</AltitudeMeters>
            <DistanceMeters>297.42079071632</DistanceMeters>
          </Trackpoint>
          <Trackpoint>
            <Time>2019-08-04T14:01:18.000Z</Time>
            <Position>
              <LatitudeDegrees>-33.5192859359085559844970703125</LatitudeDegrees>
              <LongitudeDegrees>-70.22345929406583309173583984375</LongitudeDegrees>
            </Position>
            <AltitudeMeters>1339.4000244140625</AltitudeMeters>
            <DistanceMeters>300.76027337211</DistanceMeters>
          </Trackpoint>
          <Trackpoint>
            <Time>2019-08-04T14:01:26.000Z</Time>
            <Position>
              <LatitudeDegrees>-33.51932801306247711181640625</LatitudeDegrees>
              <LongitudeDegrees>-70.2235044725239276885986328125</LongitudeDegrees>
            </Position>
            <AltitudeMeters>1340.5999755859375</AltitudeMeters>
            <DistanceMeters>307.04569972537</DistanceMeters>
          </Trackpoint>
          <Trackpoint>
            <Time>2019-08-04T14:01:30.000Z</Time>
            <Position>
              <LatitudeDegrees>-33.51935827173292636871337890625</LatitudeDegrees>
              <LongitudeDegrees>-70.22351570427417755126953125</LongitudeDegrees>
            </Position>
            <AltitudeMeters>1341.800048828125</AltitudeMeters>
            <DistanceMeters>310.57066570916</DistanceMeters>
          </Trackpoint>
          <Trackpoint>
            <Time>2019-08-04T14:01:37.000Z</Time>
            <Position>
              <LatitudeDegrees>-33.51937050931155681610107421875</LatitudeDegrees>
              <LongitudeDegrees>-70.22356423549354076385498046875</LongitudeDegrees>
            </Position>
            <AltitudeMeters>1343</AltitudeMeters>
            <DistanceMeters>315.27520791474</DistanceMeters>
          </Trackpoint>
          <Trackpoint>
            <Time>2019-08-04T14:01:43.000Z</Time>
            <Position>
              <LatitudeDegrees>-33.51938794367015361785888671875</LatitudeDegrees>
              <LongitudeDegrees>-70.22359759546816349029541015625</LongitudeDegrees>
            </Position>
            <AltitudeMeters>1344.199951171875</AltitudeMeters>
            <DistanceMeters>318.92848767192</DistanceMeters>
          </Trackpoint>
          <Trackpoint>
            <Time>2019-08-04T14:01:46.000Z</Time>
            <Position>
              <LatitudeDegrees>-33.51940118707716464996337890625</LatitudeDegrees>
              <LongitudeDegrees>-70.2236209809780120849609375</LongitudeDegrees>
            </Position>
            <AltitudeMeters>1344.800048828125</AltitudeMeters>
            <DistanceMeters>321.55163811562</DistanceMeters>
          </Trackpoint>
          <Trackpoint>
            <Time>2019-08-04T14:01:48.000Z</Time>
            <Position>
              <LatitudeDegrees>-33.51939506828784942626953125</LatitudeDegrees>
              <LongitudeDegrees>-70.223644785583019256591796875</LongitudeDegrees>
            </Position>
            <AltitudeMeters>1345.199951171875</AltitudeMeters>
            <DistanceMeters>323.86373786581</DistanceMeters>
          </Trackpoint>
          <Trackpoint>
            <Time>2019-08-04T14:01:49.000Z</Time>
            <Position>
              <LatitudeDegrees>-33.51939372718334197998046875</LatitudeDegrees>
              <LongitudeDegrees>-70.22365543060004711151123046875</LongitudeDegrees>
            </Position>
            <AltitudeMeters>1345.4000244140625</AltitudeMeters>
            <DistanceMeters>324.86490642568</DistanceMeters>
          </Trackpoint>
          <Trackpoint>
            <Time>2019-08-04T14:01:52.000Z</Time>
            <Position>
              <LatitudeDegrees>-33.519384674727916717529296875</LatitudeDegrees>
              <LongitudeDegrees>-70.22367537952959537506103515625</LongitudeDegrees>
            </Position>
            <AltitudeMeters>1346</AltitudeMeters>
            <DistanceMeters>326.97270091529</DistanceMeters>
          </Trackpoint>
          <Trackpoint>
            <Time>2019-08-04T14:01:53.000Z</Time>
            <Position>
              <LatitudeDegrees>-33.519385345280170440673828125</LatitudeDegrees>
              <LongitudeDegrees>-70.22368074394762516021728515625</LongitudeDegrees>
            </Position>
            <AltitudeMeters>1346.199951171875</AltitudeMeters>
            <DistanceMeters>327.47553502355</DistanceMeters>
          </Trackpoint>
          <Trackpoint>
            <Time>2019-08-04T14:01:54.000Z</Time>
            <Position>
              <LatitudeDegrees>-33.51938576437532901763916015625</LatitudeDegrees>
              <LongitudeDegrees>-70.2236895449459552764892578125</LongitudeDegrees>
            </Position>
            <AltitudeMeters>1346.4000244140625</AltitudeMeters>
            <DistanceMeters>328.29298572962</DistanceMeters>
          </Trackpoint>
          <Trackpoint>
            <Time>2019-08-04T14:01:56.000Z</Time>
            <Position>
              <LatitudeDegrees>-33.51938291452825069427490234375</LatitudeDegrees>
              <LongitudeDegrees>-70.22370521910488605499267578125</LongitudeDegrees>
            </Position>
            <AltitudeMeters>1346.5999755859375</AltitudeMeters>
            <DistanceMeters>329.78038908069</DistanceMeters>
          </Trackpoint>
          <Trackpoint>
            <Time>2019-08-04T14:02:01.000Z</Time>
            <Position>
              <LatitudeDegrees>-33.51939515210688114166259765625</LatitudeDegrees>
              <LongitudeDegrees>-70.2237455360591411590576171875</LongitudeDegrees>
            </Position>
            <AltitudeMeters>1348</AltitudeMeters>
            <DistanceMeters>333.76131663079</DistanceMeters>
          </Trackpoint>
          <Trackpoint>
            <Time>2019-08-04T14:02:03.000Z</Time>
            <Position>
              <LatitudeDegrees>-33.5194130055606365203857421875</LatitudeDegrees>
              <LongitudeDegrees>-70.223759114742279052734375</LongitudeDegrees>
            </Position>
            <AltitudeMeters>1348.4000244140625</AltitudeMeters>
            <DistanceMeters>336.11406754411</DistanceMeters>
          </Trackpoint>
          <Trackpoint>
            <Time>2019-08-04T14:02:07.000Z</Time>
            <Position>
              <LatitudeDegrees>-33.51943991146981716156005859375</LatitudeDegrees>
              <LongitudeDegrees>-70.223772861063480377197265625</LongitudeDegrees>
            </Position>
            <AltitudeMeters>1349.199951171875</AltitudeMeters>
            <DistanceMeters>339.37003279964</DistanceMeters>
          </Trackpoint>
          <Trackpoint>
            <Time>2019-08-04T14:02:10.000Z</Time>
            <Position>
              <LatitudeDegrees>-33.51945701055228710174560546875</LatitudeDegrees>
              <LongitudeDegrees>-70.22377763874828815460205078125</LongitudeDegrees>
            </Position>
            <AltitudeMeters>1349.800048828125</AltitudeMeters>
            <DistanceMeters>341.32675260897</DistanceMeters>
          </Trackpoint>
          <Trackpoint>
            <Time>2019-08-04T14:02:13.000Z</Time>
            <Position>
              <LatitudeDegrees>-33.51946505717933177947998046875</LatitudeDegrees>
              <LongitudeDegrees>-70.22378870286047458648681640625</LongitudeDegrees>
            </Position>
            <AltitudeMeters>1350.4000244140625</AltitudeMeters>
            <DistanceMeters>342.69064254128</DistanceMeters>
          </Trackpoint>
          <Trackpoint>
            <Time>2019-08-04T14:02:15.000Z</Time>
            <Position>
              <LatitudeDegrees>-33.519465811550617218017578125</LatitudeDegrees>
              <LongitudeDegrees>-70.22379389964044094085693359375</LongitudeDegrees>
            </Position>
            <AltitudeMeters>1350.5999755859375</AltitudeMeters>
            <DistanceMeters>343.17518561217</DistanceMeters>
          </Trackpoint>
          <Trackpoint>
            <Time>2019-08-04T14:02:17.000Z</Time>
            <Position>
              <LatitudeDegrees>-33.51947545073926448822021484375</LatitudeDegrees>
              <LongitudeDegrees>-70.2238025330007076263427734375</LongitudeDegrees>
            </Position>
            <AltitudeMeters>1351.199951171875</AltitudeMeters>
            <DistanceMeters>344.51233000822</DistanceMeters>
          </Trackpoint>
          <Trackpoint>
            <Time>2019-08-04T14:02:19.000Z</Time>
            <Position>
              <LatitudeDegrees>-33.5194716788828372955322265625</LatitudeDegrees>
              <LongitudeDegrees>-70.22381745278835296630859375</LongitudeDegrees>
            </Position>
            <AltitudeMeters>1351.5999755859375</AltitudeMeters>
            <DistanceMeters>345.9597337995</DistanceMeters>
          </Trackpoint>
          <Trackpoint>
            <Time>2019-08-04T14:02:23.000Z</Time>
            <Position>
              <LatitudeDegrees>-33.51948089897632598876953125</LatitudeDegrees>
              <LongitudeDegrees>-70.2238436043262481689453125</LongitudeDegrees>
            </Position>
            <AltitudeMeters>1352.4000244140625</AltitudeMeters>
            <DistanceMeters>348.5949052902</DistanceMeters>
          </Trackpoint>
          <Trackpoint>
            <Time>2019-08-04T14:02:24.000Z</Time>
            <Position>
              <LatitudeDegrees>-33.51948685012757778167724609375</LatitudeDegrees>
              <LongitudeDegrees>-70.223850309848785400390625</LongitudeDegrees>
            </Position>
            <AltitudeMeters>1352.5999755859375</AltitudeMeters>
            <DistanceMeters>349.50636951486</DistanceMeters>
          </Trackpoint>
          <Trackpoint>
            <Time>2019-08-04T14:02:26.000Z</Time>
            <Position>
              <LatitudeDegrees>-33.51949808187782764434814453125</LatitudeDegrees>
              <LongitudeDegrees>-70.2238659001886844635009765625</LongitudeDegrees>
            </Position>
            <AltitudeMeters>1352.800048828125</AltitudeMeters>
            <DistanceMeters>351.41638283507</DistanceMeters>
          </Trackpoint>
          <Trackpoint>
            <Time>2019-08-04T14:02:29.000Z</Time>
            <Position>
              <LatitudeDegrees>-33.5195085592567920684814453125</LatitudeDegrees>
              <LongitudeDegrees>-70.2238883636891841888427734375</LongitudeDegrees>
            </Position>
            <AltitudeMeters>1353</AltitudeMeters>
            <DistanceMeters>353.80342666293</DistanceMeters>
          </Trackpoint>
          <Trackpoint>
            <Time>2019-08-04T14:02:31.000Z</Time>
            <Position>
              <LatitudeDegrees>-33.5195169411599636077880859375</LatitudeDegrees>
              <LongitudeDegrees>-70.22390387021005153656005859375</LongitudeDegrees>
            </Position>
            <AltitudeMeters>1353.199951171875</AltitudeMeters>
            <DistanceMeters>355.51654511893</DistanceMeters>
          </Trackpoint>
          <Trackpoint>
            <Time>2019-08-04T14:02:37.000Z</Time>
            <Position>
              <LatitudeDegrees>-33.519556336104869842529296875</LatitudeDegrees>
              <LongitudeDegrees>-70.2239265851676464080810546875</LongitudeDegrees>
            </Position>
            <AltitudeMeters>1353.5999755859375</AltitudeMeters>
            <DistanceMeters>360.38243254426</DistanceMeters>
          </Trackpoint>
          <Trackpoint>
            <Time>2019-08-04T14:02:39.000Z</Time>
            <Position>
              <LatitudeDegrees>-33.519564382731914520263671875</LatitudeDegrees>
              <LongitudeDegrees>-70.2239213883876800537109375</LongitudeDegrees>
            </Position>
            <AltitudeMeters>1354</AltitudeMeters>
            <DistanceMeters>361.40148052697</DistanceMeters>
          </Trackpoint>
          <Trackpoint>
            <Time>2019-08-04T14:02:41.000Z</Time>
            <Position>
              <LatitudeDegrees>-33.51957418955862522125244140625</LatitudeDegrees>
              <LongitudeDegrees>-70.22390755824744701385498046875</LongitudeDegrees>
            </Position>
            <AltitudeMeters>1354.5999755859375</AltitudeMeters>
            <DistanceMeters>363.08267472365</DistanceMeters>
          </Trackpoint>
          <Trackpoint>
            <Time>2019-08-04T14:02:42.000Z</Time>
            <Position>
              <LatitudeDegrees>-33.51957620121538639068603515625</LatitudeDegrees>
              <LongitudeDegrees>-70.223902948200702667236328125</LongitudeDegrees>
            </Position>
            <AltitudeMeters>1355</AltitudeMeters>
            <DistanceMeters>363.56721779454</DistanceMeters>
          </Trackpoint>
          <Trackpoint>
            <Time>2019-08-04T14:02:45.000Z</Time>
            <Position>
              <LatitudeDegrees>-33.51958340965211391448974609375</LatitudeDegrees>
              <LongitudeDegrees>-70.223890207707881927490234375</LongitudeDegrees>
            </Position>
            <AltitudeMeters>1355.4000244140625</AltitudeMeters>
            <DistanceMeters>364.99578255552</DistanceMeters>
          </Trackpoint>
          <Trackpoint>
            <Time>2019-08-04T14:02:47.000Z</Time>
            <Position>
              <LatitudeDegrees>-33.51959430612623691558837890625</LatitudeDegrees>
              <LongitudeDegrees>-70.2238806523382663726806640625</LongitudeDegrees>
            </Position>
            <AltitudeMeters>1356</AltitudeMeters>
            <DistanceMeters>366.49828683538</DistanceMeters>
          </Trackpoint>
          <Trackpoint>
            <Time>2019-08-04T14:02:49.000Z</Time>
            <Position>
              <LatitudeDegrees>-33.519602604210376739501953125</LatitudeDegrees>
              <LongitudeDegrees>-70.22386799566447734832763671875</LongitudeDegrees>
            </Position>
            <AltitudeMeters>1356.4000244140625</AltitudeMeters>
            <DistanceMeters>367.99476902976</DistanceMeters>
          </Trackpoint>
          <Trackpoint>
            <Time>2019-08-04T14:02:50.000Z</Time>
            <Position>
              <LatitudeDegrees>-33.519606292247772216796875</LatitudeDegrees>
              <LongitudeDegrees>-70.22385827265679836273193359375</LongitudeDegrees>
            </Position>
            <AltitudeMeters>1356.5999755859375</AltitudeMeters>
            <DistanceMeters>368.98687705432</DistanceMeters>
          </Trackpoint>
          <Trackpoint>
            <Time>2019-08-04T14:02:53.000Z</Time>
            <Position>
              <LatitudeDegrees>-33.5196188651025295257568359375</LatitudeDegrees>
              <LongitudeDegrees>-70.22383329458534717559814453125</LongitudeDegrees>
            </Position>
            <AltitudeMeters>1357</AltitudeMeters>
            <DistanceMeters>371.69472159795</DistanceMeters>
          </Trackpoint>
          <Trackpoint>
            <Time>2019-08-04T14:02:56.000Z</Time>
            <Position>
              <LatitudeDegrees>-33.51963219232857227325439453125</LatitudeDegrees>
              <LongitudeDegrees>-70.2238169498741626739501953125</LongitudeDegrees>
            </Position>
            <AltitudeMeters>1357.5999755859375</AltitudeMeters>
            <DistanceMeters>373.81319935159</DistanceMeters>
          </Trackpoint>
          <Trackpoint>
            <Time>2019-08-04T14:02:59.000Z</Time>
            <Position>
              <LatitudeDegrees>-33.51964359171688556671142578125</LatitudeDegrees>
              <LongitudeDegrees>-70.2238087356090545654296875</LongitudeDegrees>
            </Position>
            <AltitudeMeters>1358.199951171875</AltitudeMeters>
            <DistanceMeters>375.29146810234</DistanceMeters>
          </Trackpoint>
          <Trackpoint>
            <Time>2019-08-04T14:03:03.000Z</Time>
            <Position>
              <LatitudeDegrees>-33.5196668095886707305908203125</LatitudeDegrees>
              <LongitudeDegrees>-70.2238033711910247802734375</LongitudeDegrees>
            </Position>
            <AltitudeMeters>1359</AltitudeMeters>
            <DistanceMeters>377.92149444366</DistanceMeters>
          </Trackpoint>
          <Trackpoint>
            <Time>2019-08-04T14:03:05.000Z</Time>
            <Position>
              <LatitudeDegrees>-33.519678376615047454833984375</LatitudeDegrees>
              <LongitudeDegrees>-70.2238146029412746429443359375</LongitudeDegrees>
            </Position>
            <AltitudeMeters>1359.199951171875</AltitudeMeters>
            <DistanceMeters>379.57834182316</DistanceMeters>
          </Trackpoint>
          <Trackpoint>
            <Time>2019-08-04T14:03:06.000Z</Time>
            <Position>
              <LatitudeDegrees>-33.51968147791922092437744140625</LatitudeDegrees>
              <LongitudeDegrees>-70.22382105700671672821044921875</LongitudeDegrees>
            </Position>
            <AltitudeMeters>1359.4000244140625</AltitudeMeters>
            <DistanceMeters>380.27014674619</DistanceMeters>
          </Trackpoint>
          <Trackpoint>
            <Time>2019-08-04T14:03:10.000Z</Time>
            <Position>
              <LatitudeDegrees>-33.51969321258366107940673828125</LatitudeDegrees>
              <LongitudeDegrees>-70.223827846348285675048828125</LongitudeDegrees>
            </Position>
            <AltitudeMeters>1360.199951171875</AltitudeMeters>
            <DistanceMeters>381.72377595885</DistanceMeters>
          </Trackpoint>
          <Trackpoint>
            <Time>2019-08-04T14:03:11.000Z</Time>
            <Position>
              <LatitudeDegrees>-33.519697822630405426025390625</LatitudeDegrees>
              <LongitudeDegrees>-70.22382524795830249786376953125</LongitudeDegrees>
            </Position>
            <AltitudeMeters>1360.199951171875</AltitudeMeters>
            <DistanceMeters>382.28596158259</DistanceMeters>
          </Trackpoint>
          <Trackpoint>
            <Time>2019-08-04T14:03:12.000Z</Time>
            <Position>
              <LatitudeDegrees>-33.5197020135819911956787109375</LatitudeDegrees>
              <LongitudeDegrees>-70.2238209731876850128173828125</LongitudeDegrees>
            </Position>
            <AltitudeMeters>1360.4000244140625</AltitudeMeters>
            <DistanceMeters>382.90180507784</DistanceMeters>
          </Trackpoint>
          <Trackpoint>
            <Time>2019-08-04T14:03:14.000Z</Time>
            <Position>
              <LatitudeDegrees>-33.51970662362873554229736328125</LatitudeDegrees>
              <LongitudeDegrees>-70.2238142676651477813720703125</LongitudeDegrees>
            </Position>
            <AltitudeMeters>1361</AltitudeMeters>
            <DistanceMeters>383.70813348734</DistanceMeters>
          </Trackpoint>
          <Trackpoint>
            <Time>2019-08-04T14:03:15.000Z</Time>
            <Position>
              <LatitudeDegrees>-33.519708551466464996337890625</LatitudeDegrees>
              <LongitudeDegrees>-70.22381468676030635833740234375</LongitudeDegrees>
            </Position>
            <AltitudeMeters>1361</AltitudeMeters>
            <DistanceMeters>383.89818691608</DistanceMeters>
          </Trackpoint>
          <Trackpoint>
            <Time>2019-08-04T14:03:16.000Z</Time>
            <Position>
              <LatitudeDegrees>-33.51971148513257503509521484375</LatitudeDegrees>
              <LongitudeDegrees>-70.22381502203643321990966796875</LongitudeDegrees>
            </Position>
            <AltitudeMeters>1361.199951171875</AltitudeMeters>
            <DistanceMeters>384.22736911081</DistanceMeters>
          </Trackpoint>
          <Trackpoint>
            <Time>2019-08-04T14:03:17.000Z</Time>
            <Position>
              <LatitudeDegrees>-33.51970930583775043487548828125</LatitudeDegrees>
              <LongitudeDegrees>-70.223815105855464935302734375</LongitudeDegrees>
            </Position>
            <AltitudeMeters>1361.5999755859375</AltitudeMeters>
            <DistanceMeters>384.46013607295</DistanceMeters>
          </Trackpoint>
          <Trackpoint>
            <Time>2019-08-04T14:03:23.000Z</Time>
            <Position>
              <LatitudeDegrees>-33.5197224654257297515869140625</LatitudeDegrees>
              <LongitudeDegrees>-70.22381879389286041259765625</LongitudeDegrees>
            </Position>
            <AltitudeMeters>1362.5999755859375</AltitudeMeters>
            <DistanceMeters>385.96564236235</DistanceMeters>
          </Trackpoint>
          <Trackpoint>
            <Time>2019-08-04T14:03:28.000Z</Time>
            <Position>
              <LatitudeDegrees>-33.5197415761649608612060546875</LatitudeDegrees>
              <LongitudeDegrees>-70.2238139323890209197998046875</LongitudeDegrees>
            </Position>
            <AltitudeMeters>1363.4000244140625</AltitudeMeters>
            <DistanceMeters>388.13882665739</DistanceMeters>
          </Trackpoint>
          <Trackpoint>
            <Time>2019-08-04T14:03:29.000Z</Time>
            <Position>
              <LatitudeDegrees>-33.51974199526011943817138671875</LatitudeDegrees>
              <LongitudeDegrees>-70.223811753094196319580078125</LongitudeDegrees>
            </Position>
            <AltitudeMeters>1363.5999755859375</AltitudeMeters>
            <DistanceMeters>388.32888008613</DistanceMeters>
          </Trackpoint>
          <Trackpoint>
            <Time>2019-08-04T14:03:37.000Z</Time>
            <Position>
              <LatitudeDegrees>-33.5197821445763111114501953125</LatitudeDegrees>
              <LongitudeDegrees>-70.22381686605513095855712890625</LongitudeDegrees>
            </Position>
            <AltitudeMeters>1364.4000244140625</AltitudeMeters>
            <DistanceMeters>392.82234767015</DistanceMeters>
          </Trackpoint>
          <Trackpoint>
            <Time>2019-08-04T14:03:38.000Z</Time>
            <Position>
              <LatitudeDegrees>-33.5197861678898334503173828125</LatitudeDegrees>
              <LongitudeDegrees>-70.22382005117833614349365234375</LongitudeDegrees>
            </Position>
            <AltitudeMeters>1364.5999755859375</AltitudeMeters>
            <DistanceMeters>393.35989994315</DistanceMeters>
          </Trackpoint>
          <Trackpoint>
            <Time>2019-08-04T14:03:39.000Z</Time>
            <Position>
              <LatitudeDegrees>-33.5197908617556095123291015625</LatitudeDegrees>
              <LongitudeDegrees>-70.2238216437399387359619140625</LongitudeDegrees>
            </Position>
            <AltitudeMeters>1365</AltitudeMeters>
            <DistanceMeters>393.89745221615</DistanceMeters>
          </Trackpoint>
          <Trackpoint>
            <Time>2019-08-04T14:03:41.000Z</Time>
            <Position>
              <LatitudeDegrees>-33.5197989083826541900634765625</LatitudeDegrees>
              <LongitudeDegrees>-70.223823487758636474609375</LongitudeDegrees>
            </Position>
            <AltitudeMeters>1365.4000244140625</AltitudeMeters>
            <DistanceMeters>394.80891644082</DistanceMeters>
          </Trackpoint>
          <Trackpoint>
            <Time>2019-08-04T14:03:43.000Z</Time>
            <Position>
              <LatitudeDegrees>-33.51980812847614288330078125</LatitudeDegrees>
              <LongitudeDegrees>-70.223822481930255889892578125</LongitudeDegrees>
            </Position>
            <AltitudeMeters>1365.5999755859375</AltitudeMeters>
            <DistanceMeters>395.83678751442</DistanceMeters>
          </Trackpoint>
          <Trackpoint>
            <Time>2019-08-04T14:03:44.000Z</Time>
            <Position>
              <LatitudeDegrees>-33.51981441490352153778076171875</LatitudeDegrees>
              <LongitudeDegrees>-70.2238196320831775665283203125</LongitudeDegrees>
            </Position>
            <AltitudeMeters>1366</AltitudeMeters>
            <DistanceMeters>396.58502861161</DistanceMeters>
          </Trackpoint>
          <Trackpoint>
            <Time>2019-08-04T14:03:46.000Z</Time>
            <Position>
              <LatitudeDegrees>-33.51982698775827884674072265625</LatitudeDegrees>
              <LongitudeDegrees>-70.2238135971128940582275390625</LongitudeDegrees>
            </Position>
            <AltitudeMeters>1366.5999755859375</AltitudeMeters>
            <DistanceMeters>398.09053490101</DistanceMeters>
          </Trackpoint>
          <Trackpoint>
            <Time>2019-08-04T14:03:49.000Z</Time>
            <Position>
              <LatitudeDegrees>-33.51985146291553974151611328125</LatitudeDegrees>
              <LongitudeDegrees>-70.22380881942808628082275390625</LongitudeDegrees>
            </Position>
            <AltitudeMeters>1367</AltitudeMeters>
            <DistanceMeters>400.84958445516</DistanceMeters>
          </Trackpoint>
          <Trackpoint>
            <Time>2019-08-04T14:03:52.000Z</Time>
            <Position>
              <LatitudeDegrees>-33.51987878791987895965576171875</LatitudeDegrees>
              <LongitudeDegrees>-70.2237954922020435333251953125</LongitudeDegrees>
            </Position>
            <AltitudeMeters>1367.4000244140625</AltitudeMeters>
            <DistanceMeters>404.13316653485</DistanceMeters>
          </Trackpoint>
          <Trackpoint>
            <Time>2019-08-04T14:03:55.000Z</Time>
            <Position>
              <LatitudeDegrees>-33.5199118964374065399169921875</LatitudeDegrees>
              <LongitudeDegrees>-70.22378233261406421661376953125</LongitudeDegrees>
            </Position>
            <AltitudeMeters>1368.199951171875</AltitudeMeters>
            <DistanceMeters>408.01533056861</DistanceMeters>
          </Trackpoint>
          <Trackpoint>
            <Time>2019-08-04T14:03:56.000Z</Time>
            <Position>
              <LatitudeDegrees>-33.51992153562605381011962890625</LatitudeDegrees>
              <LongitudeDegrees>-70.22378032095730304718017578125</LongitudeDegrees>
            </Position>
            <AltitudeMeters>1368.199951171875</AltitudeMeters>
            <DistanceMeters>409.10710439619</DistanceMeters>
          </Trackpoint>
          <Trackpoint>
            <Time>2019-08-04T14:03:57.000Z</Time>
            <Position>
              <LatitudeDegrees>-33.51993142627179622650146484375</LatitudeDegrees>
              <LongitudeDegrees>-70.2237763814628124237060546875</LongitudeDegrees>
            </Position>
            <AltitudeMeters>1368.4000244140625</AltitudeMeters>
            <DistanceMeters>410.27093920689</DistanceMeters>
          </Trackpoint>
          <Trackpoint>
            <Time>2019-08-04T14:04:03.000Z</Time>
            <Position>
              <LatitudeDegrees>-33.5199819691479206085205078125</LatitudeDegrees>
              <LongitudeDegrees>-70.22375844419002532958984375</LongitudeDegrees>
            </Position>
            <AltitudeMeters>1368.800048828125</AltitudeMeters>
            <DistanceMeters>416.13802122475</DistanceMeters>
          </Trackpoint>
          <Trackpoint>
            <Time>2019-08-04T14:04:10.000Z</Time>
            <Position>
              <LatitudeDegrees>-33.520029745995998382568359375</LatitudeDegrees>
              <LongitudeDegrees>-70.22374930791556835174560546875</LongitudeDegrees>
            </Position>
            <AltitudeMeters>1369</AltitudeMeters>
            <DistanceMeters>421.52361362838</DistanceMeters>
          </Trackpoint>
          <Trackpoint>
            <Time>2019-08-04T14:04:13.000Z</Time>
            <Position>
              <LatitudeDegrees>-33.520051874220371246337890625</LatitudeDegrees>
              <LongitudeDegrees>-70.22374293766915798187255859375</LongitudeDegrees>
            </Position>
            <AltitudeMeters>1369.199951171875</AltitudeMeters>
            <DistanceMeters>424.05567884776</DistanceMeters>
          </Trackpoint>
          <Trackpoint>
            <Time>2019-08-04T14:04:23.000Z</Time>
            <Position>
              <LatitudeDegrees>-33.52012203074991703033447265625</LatitudeDegrees>
              <LongitudeDegrees>-70.22376623935997486114501953125</LongitudeDegrees>
            </Position>
            <AltitudeMeters>1370.199951171875</AltitudeMeters>
            <DistanceMeters>432.15806465366</DistanceMeters>
          </Trackpoint>
          <Trackpoint>
            <Time>2019-08-04T14:04:24.000Z</Time>
            <Position>
              <LatitudeDegrees>-33.5201274789869785308837890625</LatitudeDegrees>
              <LongitudeDegrees>-70.223769508302211761474609375</LongitudeDegrees>
            </Position>
            <AltitudeMeters>1370.5999755859375</AltitudeMeters>
            <DistanceMeters>432.83000499491</DistanceMeters>
          </Trackpoint>
          <Trackpoint>
            <Time>2019-08-04T14:04:29.000Z</Time>
            <Position>
              <LatitudeDegrees>-33.52014734409749507904052734375</LatitudeDegrees>
              <LongitudeDegrees>-70.22377395071089267730712890625</LongitudeDegrees>
            </Position>
            <AltitudeMeters>1371.199951171875</AltitudeMeters>
            <DistanceMeters>435.07874748986</DistanceMeters>
          </Trackpoint>
          <Trackpoint>
            <Time>2019-08-04T14:04:34.000Z</Time>
            <Position>
              <LatitudeDegrees>-33.52015019394457340240478515625</LatitudeDegrees>
              <LongitudeDegrees>-70.22376288659870624542236328125</LongitudeDegrees>
            </Position>
            <AltitudeMeters>1372.4000244140625</AltitudeMeters>
            <DistanceMeters>436.15385203586</DistanceMeters>
          </Trackpoint>
          <Trackpoint>
            <Time>2019-08-04T14:04:35.000Z</Time>
            <Position>
              <LatitudeDegrees>-33.52015002630650997161865234375</LatitudeDegrees>
              <LongitudeDegrees>-70.22375936619937419891357421875</LongitudeDegrees>
            </Position>
            <AltitudeMeters>1372.4000244140625</AltitudeMeters>
            <DistanceMeters>436.48303423059</DistanceMeters>
          </Trackpoint>
          <Trackpoint>
            <Time>2019-08-04T14:04:43.000Z</Time>
            <Position>
              <LatitudeDegrees>-33.52014315314590930938720703125</LatitudeDegrees>
              <LongitudeDegrees>-70.22374846972525119781494140625</LongitudeDegrees>
            </Position>
            <AltitudeMeters>1372.800048828125</AltitudeMeters>
            <DistanceMeters>437.75084873083</DistanceMeters>
          </Trackpoint>
          <Trackpoint>
            <Time>2019-08-04T14:04:50.000Z</Time>
            <Position>
              <LatitudeDegrees>-33.52012571878731250762939453125</LatitudeDegrees>
              <LongitudeDegrees>-70.22374528460204601287841796875</LongitudeDegrees>
            </Position>
            <AltitudeMeters>1373</AltitudeMeters>
            <DistanceMeters>439.71447869637</DistanceMeters>
          </Trackpoint>
          <Trackpoint>
            <Time>2019-08-04T14:04:59.000Z</Time>
            <Position>
              <LatitudeDegrees>-33.52011465467512607574462890625</LatitudeDegrees>
              <LongitudeDegrees>-70.223733969032764434814453125</LongitudeDegrees>
            </Position>
            <AltitudeMeters>1372.800048828125</AltitudeMeters>
            <DistanceMeters>441.32993284066</DistanceMeters>
          </Trackpoint>
          <Trackpoint>
            <Time>2019-08-04T14:05:05.000Z</Time>
            <Position>
              <LatitudeDegrees>-33.52011633105576038360595703125</LatitudeDegrees>
              <LongitudeDegrees>-70.22373606450855731964111328125</LongitudeDegrees>
            </Position>
            <AltitudeMeters>1373</AltitudeMeters>
            <DistanceMeters>441.59870897716</DistanceMeters>
          </Trackpoint>
          <Trackpoint>
            <Time>2019-08-04T14:05:11.000Z</Time>
            <Position>
              <LatitudeDegrees>-33.5201174207031726837158203125</LatitudeDegrees>
              <LongitudeDegrees>-70.223737657070159912109375</LongitudeDegrees>
            </Position>
            <AltitudeMeters>1373</AltitudeMeters>
            <DistanceMeters>441.7887624059</DistanceMeters>
          </Trackpoint>
          <Trackpoint>
            <Time>2019-08-04T14:05:23.000Z</Time>
            <Position>
              <LatitudeDegrees>-33.5201278142631053924560546875</LatitudeDegrees>
              <LongitudeDegrees>-70.22374629043042659759521484375</LongitudeDegrees>
            </Position>
            <AltitudeMeters>1372.800048828125</AltitudeMeters>
            <DistanceMeters>443.19823635659</DistanceMeters>
          </Trackpoint>
          <Trackpoint>
            <Time>2019-08-04T14:05:27.000Z</Time>
            <Position>
              <LatitudeDegrees>-33.520149774849414825439453125</LatitudeDegrees>
              <LongitudeDegrees>-70.22374914027750492095947265625</LongitudeDegrees>
            </Position>
            <AltitudeMeters>1373</AltitudeMeters>
            <DistanceMeters>445.65794187096</DistanceMeters>
          </Trackpoint>
          <Trackpoint>
            <Time>2019-08-04T14:05:28.000Z</Time>
            <Position>
              <LatitudeDegrees>-33.52015572600066661834716796875</LatitudeDegrees>
              <LongitudeDegrees>-70.22375282831490039825439453125</LongitudeDegrees>
            </Position>
            <AltitudeMeters>1373.4000244140625</AltitudeMeters>
            <DistanceMeters>446.40618296816</DistanceMeters>
          </Trackpoint>
          <Trackpoint>
            <Time>2019-08-04T14:05:32.000Z</Time>
            <Position>
              <LatitudeDegrees>-33.52018020115792751312255859375</LatitudeDegrees>
              <LongitudeDegrees>-70.22377344779670238494873046875</LongitudeDegrees>
            </Position>
            <AltitudeMeters>1374.4000244140625</AltitudeMeters>
            <DistanceMeters>449.73618805421</DistanceMeters>
          </Trackpoint>
          <Trackpoint>
            <Time>2019-08-04T14:05:34.000Z</Time>
            <Position>
              <LatitudeDegrees>-33.520195372402667999267578125</LatitudeDegrees>
              <LongitudeDegrees>-70.22378568537533283233642578125</LongitudeDegrees>
            </Position>
            <AltitudeMeters>1374.5999755859375</AltitudeMeters>
            <DistanceMeters>451.76984854981</DistanceMeters>
          </Trackpoint>
          <Trackpoint>
            <Time>2019-08-04T14:05:41.000Z</Time>
            <Position>
              <LatitudeDegrees>-33.52024775929749011993408203125</LatitudeDegrees>
              <LongitudeDegrees>-70.22381770424544811248779296875</LongitudeDegrees>
            </Position>
            <AltitudeMeters>1376.199951171875</AltitudeMeters>
            <DistanceMeters>458.31359537385</DistanceMeters>
          </Trackpoint>
          <Trackpoint>
            <Time>2019-08-04T14:05:45.000Z</Time>
            <Position>
              <LatitudeDegrees>-33.52026619948446750640869140625</LatitudeDegrees>
              <LongitudeDegrees>-70.22383262403309345245361328125</LongitudeDegrees>
            </Position>
            <AltitudeMeters>1375.4000244140625</AltitudeMeters>
            <DistanceMeters>460.78794212179</DistanceMeters>
          </Trackpoint>
          <Trackpoint>
            <Time>2019-08-04T14:05:53.000Z</Time>
            <Position>
              <LatitudeDegrees>-33.52029620669782161712646484375</LatitudeDegrees>
              <LongitudeDegrees>-70.22387235425412654876708984375</LongitudeDegrees>
            </Position>
            <AltitudeMeters>1377.199951171875</AltitudeMeters>
            <DistanceMeters>465.76120859162</DistanceMeters>
          </Trackpoint>
          <Trackpoint>
            <Time>2019-08-04T14:05:57.000Z</Time>
            <Position>
              <LatitudeDegrees>-33.5203051753342151641845703125</LatitudeDegrees>
              <LongitudeDegrees>-70.2238910458981990814208984375</LongitudeDegrees>
            </Position>
            <AltitudeMeters>1378</AltitudeMeters>
            <DistanceMeters>467.76354571137</DistanceMeters>
          </Trackpoint>
          <Trackpoint>
            <Time>2019-08-04T14:05:58.000Z</Time>
            <Position>
              <LatitudeDegrees>-33.5203075222671031951904296875</LatitudeDegrees>
              <LongitudeDegrees>-70.2238960750401020050048828125</LongitudeDegrees>
            </Position>
            <AltitudeMeters>1378.199951171875</AltitudeMeters>
            <DistanceMeters>468.30109798437</DistanceMeters>
          </Trackpoint>
          <Trackpoint>
            <Time>2019-08-04T14:06:06.000Z</Time>
            <Position>
              <LatitudeDegrees>-33.52032981812953948974609375</LatitudeDegrees>
              <LongitudeDegrees>-70.22392549552023410797119140625</LongitudeDegrees>
            </Position>
            <AltitudeMeters>1379.4000244140625</AltitudeMeters>
            <DistanceMeters>471.98882019796</DistanceMeters>
          </Trackpoint>
          <Trackpoint>
            <Time>2019-08-04T14:06:08.000Z</Time>
            <Position>
              <LatitudeDegrees>-33.52033526636660099029541015625</LatitudeDegrees>
              <LongitudeDegrees>-70.22394309751689434051513671875</LongitudeDegrees>
            </Position>
            <AltitudeMeters>1379.4000244140625</AltitudeMeters>
            <DistanceMeters>473.73068864453</DistanceMeters>
          </Trackpoint>
          <Trackpoint>
            <Time>2019-08-04T14:06:14.000Z</Time>
            <Position>
              <LatitudeDegrees>-33.52035404182970523834228515625</LatitudeDegrees>
              <LongitudeDegrees>-70.22399707697331905364990234375</LongitudeDegrees>
            </Position>
            <AltitudeMeters>1380.4000244140625</AltitudeMeters>
            <DistanceMeters>479.15803692524</DistanceMeters>
          </Trackpoint>
          <Trackpoint>
            <Time>2019-08-04T14:06:18.000Z</Time>
            <Position>
              <LatitudeDegrees>-33.5203735716640949249267578125</LatitudeDegrees>
              <LongitudeDegrees>-70.2240305207669734954833984375</LongitudeDegrees>
            </Position>
            <AltitudeMeters>1380.800048828125</AltitudeMeters>
            <DistanceMeters>482.94482466593</DistanceMeters>
          </Trackpoint>
          <Trackpoint>
            <Time>2019-08-04T14:06:22.000Z</Time>
            <Position>
              <LatitudeDegrees>-33.52039746008813381195068359375</LatitudeDegrees>
              <LongitudeDegrees>-70.2240553312003612518310546875</LongitudeDegrees>
            </Position>
            <AltitudeMeters>1381.4000244140625</AltitudeMeters>
            <DistanceMeters>486.46081309762</DistanceMeters>
          </Trackpoint>
          <Trackpoint>
            <Time>2019-08-04T14:06:23.000Z</Time>
            <Position>
              <LatitudeDegrees>-33.52040584199130535125732421875</LatitudeDegrees>
              <LongitudeDegrees>-70.224063210189342498779296875</LongitudeDegrees>
            </Position>
            <AltitudeMeters>1381.5999755859375</AltitudeMeters>
            <DistanceMeters>487.64388615065</DistanceMeters>
          </Trackpoint>
          <Trackpoint>
            <Time>2019-08-04T14:06:27.000Z</Time>
            <Position>
              <LatitudeDegrees>-33.52043517865240573883056640625</LatitudeDegrees>
              <LongitudeDegrees>-70.2240898646414279937744140625</LongitudeDegrees>
            </Position>
            <AltitudeMeters>1382.199951171875</AltitudeMeters>
            <DistanceMeters>491.73996745269</DistanceMeters>
          </Trackpoint>
          <Trackpoint>
            <Time>2019-08-04T14:06:30.000Z</Time>
            <Position>
              <LatitudeDegrees>-33.52045378647744655609130859375</LatitudeDegrees>
              <LongitudeDegrees>-70.2241079695522785186767578125</LongitudeDegrees>
            </Position>
            <AltitudeMeters>1382.5999755859375</AltitudeMeters>
            <DistanceMeters>494.40749444183</DistanceMeters>
          </Trackpoint>
          <Trackpoint>
            <Time>2019-08-04T14:06:37.000Z</Time>
            <Position>
              <LatitudeDegrees>-33.520507179200649261474609375</LatitudeDegrees>
              <LongitudeDegrees>-70.22415046580135822296142578125</LongitudeDegrees>
            </Position>
            <AltitudeMeters>1383.4000244140625</AltitudeMeters>
            <DistanceMeters>501.5389312208</DistanceMeters>
          </Trackpoint>
          <Trackpoint>
            <Time>2019-08-04T14:06:38.000Z</Time>
            <Position>
              <LatitudeDegrees>-33.52051581256091594696044921875</LatitudeDegrees>
              <LongitudeDegrees>-70.22415717132389545440673828125</LongitudeDegrees>
            </Position>
            <AltitudeMeters>1383.5999755859375</AltitudeMeters>
            <DistanceMeters>502.68714337925</DistanceMeters>
          </Trackpoint>
          <Trackpoint>
            <Time>2019-08-04T14:06:46.000Z</Time>
            <Position>
              <LatitudeDegrees>-33.5205640085041522979736328125</LatitudeDegrees>
              <LongitudeDegrees>-70.224207378923892974853515625</LongitudeDegrees>
            </Position>
            <AltitudeMeters>1384.5999755859375</AltitudeMeters>
            <DistanceMeters>509.79193945808</DistanceMeters>
          </Trackpoint>
          <Trackpoint>
            <Time>2019-08-04T14:06:51.000Z</Time>
            <Position>
              <LatitudeDegrees>-33.52058186195790767669677734375</LatitudeDegrees>
              <LongitudeDegrees>-70.224236883223056793212890625</LongitudeDegrees>
            </Position>
            <AltitudeMeters>1385.5999755859375</AltitudeMeters>
            <DistanceMeters>513.17440998337</DistanceMeters>
          </Trackpoint>
          <Trackpoint>
            <Time>2019-08-04T14:06:52.000Z</Time>
            <Position>
              <LatitudeDegrees>-33.52058672346174716949462890625</LatitudeDegrees>
              <LongitudeDegrees>-70.22424333728849887847900390625</LongitudeDegrees>
            </Position>
            <AltitudeMeters>1385.800048828125</AltitudeMeters>
            <DistanceMeters>513.98073839287</DistanceMeters>
          </Trackpoint>
          <Trackpoint>
            <Time>2019-08-04T14:06:54.000Z</Time>
            <Position>
              <LatitudeDegrees>-33.520595021545886993408203125</LatitudeDegrees>
              <LongitudeDegrees>-70.22425607778131961822509765625</LongitudeDegrees>
            </Position>
            <AltitudeMeters>1386</AltitudeMeters>
            <DistanceMeters>515.48023465313</DistanceMeters>
          </Trackpoint>
          <Trackpoint>
            <Time>2019-08-04T14:06:59.000Z</Time>
            <Position>
              <LatitudeDegrees>-33.520625196397304534912109375</LatitudeDegrees>
              <LongitudeDegrees>-70.22427535615861415863037109375</LongitudeDegrees>
            </Position>
            <AltitudeMeters>1386.800048828125</AltitudeMeters>
            <DistanceMeters>519.28367815386</DistanceMeters>
          </Trackpoint>
          <Trackpoint>
            <Time>2019-08-04T14:07:04.000Z</Time>
            <Position>
              <LatitudeDegrees>-33.52064623497426509857177734375</LatitudeDegrees>
              <LongitudeDegrees>-70.2242796309292316436767578125</LongitudeDegrees>
            </Position>
            <AltitudeMeters>1388</AltitudeMeters>
            <DistanceMeters>521.65934601311</DistanceMeters>
          </Trackpoint>
          <Trackpoint>
            <Time>2019-08-04T14:07:07.000Z</Time>
            <Position>
              <LatitudeDegrees>-33.520657718181610107421875</LatitudeDegrees>
              <LongitudeDegrees>-70.2242987416684627532958984375</LongitudeDegrees>
            </Position>
            <AltitudeMeters>1388.800048828125</AltitudeMeters>
            <DistanceMeters>523.84496044362</DistanceMeters>
          </Trackpoint>
          <Trackpoint>
            <Time>2019-08-04T14:07:08.000Z</Time>
            <Position>
              <LatitudeDegrees>-33.52066551335155963897705078125</LatitudeDegrees>
              <LongitudeDegrees>-70.2243044413626194000244140625</LongitudeDegrees>
            </Position>
            <AltitudeMeters>1389</AltitudeMeters>
            <DistanceMeters>524.85956810898</DistanceMeters>
          </Trackpoint>
          <Trackpoint>
            <Time>2019-08-04T14:07:14.000Z</Time>
            <Position>
              <LatitudeDegrees>-33.52070339955389499664306640625</LatitudeDegrees>
              <LongitudeDegrees>-70.22434584796428680419921875</LongitudeDegrees>
            </Position>
            <AltitudeMeters>1389.4000244140625</AltitudeMeters>
            <DistanceMeters>530.56512904376</DistanceMeters>
          </Trackpoint>
          <Trackpoint>
            <Time>2019-08-04T14:07:20.000Z</Time>
            <Position>
              <LatitudeDegrees>-33.5207276232540607452392578125</LatitudeDegrees>
              <LongitudeDegrees>-70.224390439689159393310546875</LongitudeDegrees>
            </Position>
            <AltitudeMeters>1390.199951171875</AltitudeMeters>
            <DistanceMeters>535.50469041614</DistanceMeters>
          </Trackpoint>
          <Trackpoint>
            <Time>2019-08-04T14:07:26.000Z</Time>
            <Position>
              <LatitudeDegrees>-33.5207475721836090087890625</LatitudeDegrees>
              <LongitudeDegrees>-70.22441617213189601898193359375</LongitudeDegrees>
            </Position>
            <AltitudeMeters>1391</AltitudeMeters>
            <DistanceMeters>538.7661977442</DistanceMeters>
          </Trackpoint>
          <Trackpoint>
            <Time>2019-08-04T14:07:27.000Z</Time>
            <Position>
              <LatitudeDegrees>-33.52074556052684783935546875</LatitudeDegrees>
              <LongitudeDegrees>-70.224417932331562042236328125</LongitudeDegrees>
            </Position>
            <AltitudeMeters>1391</AltitudeMeters>
            <DistanceMeters>539.05127788731</DistanceMeters>
          </Trackpoint>
          <Trackpoint>
            <Time>2019-08-04T14:07:28.000Z</Time>
            <Position>
              <LatitudeDegrees>-33.520750589668750762939453125</LatitudeDegrees>
              <LongitudeDegrees>-70.22441801615059375762939453125</LongitudeDegrees>
            </Position>
            <AltitudeMeters>1391.199951171875</AltitudeMeters>
            <DistanceMeters>539.60537408753</DistanceMeters>
          </Trackpoint>
          <Trackpoint>
            <Time>2019-08-04T14:07:29.000Z</Time>
            <Position>
              <LatitudeDegrees>-33.520753271877765655517578125</LatitudeDegrees>
              <LongitudeDegrees>-70.224417932331562042236328125</LongitudeDegrees>
            </Position>
            <AltitudeMeters>1391.199951171875</AltitudeMeters>
            <DistanceMeters>539.9058749435</DistanceMeters>
          </Trackpoint>
          <Trackpoint>
            <Time>2019-08-04T14:07:32.000Z</Time>
            <Position>
              <LatitudeDegrees>-33.520772047340869903564453125</LatitudeDegrees>
              <LongitudeDegrees>-70.2244355343282222747802734375</LongitudeDegrees>
            </Position>
            <AltitudeMeters>1392</AltitudeMeters>
            <DistanceMeters>542.55982664357</DistanceMeters>
          </Trackpoint>
          <Trackpoint>
            <Time>2019-08-04T14:07:33.000Z</Time>
            <Position>
              <LatitudeDegrees>-33.52078042924404144287109375</LatitudeDegrees>
              <LongitudeDegrees>-70.22444249130785465240478515625</LongitudeDegrees>
            </Position>
            <AltitudeMeters>1392.199951171875</AltitudeMeters>
            <DistanceMeters>543.69220063437</DistanceMeters>
          </Trackpoint>
          <Trackpoint>
            <Time>2019-08-04T14:07:36.000Z</Time>
            <Position>
              <LatitudeDegrees>-33.5207983665168285369873046875</LatitudeDegrees>
              <LongitudeDegrees>-70.22445590235292911529541015625</LongitudeDegrees>
            </Position>
            <AltitudeMeters>1392.5999755859375</AltitudeMeters>
            <DistanceMeters>546.0468698121</DistanceMeters>
          </Trackpoint>
          <Trackpoint>
            <Time>2019-08-04T14:07:41.000Z</Time>
            <Position>
              <LatitudeDegrees>-33.520818985998630523681640625</LatitudeDegrees>
              <LongitudeDegrees>-70.2244871668517589569091796875</LongitudeDegrees>
            </Position>
            <AltitudeMeters>1393.4000244140625</AltitudeMeters>
            <DistanceMeters>549.74681520211</DistanceMeters>
          </Trackpoint>
          <Trackpoint>
            <Time>2019-08-04T14:07:49.000Z</Time>
            <Position>
              <LatitudeDegrees>-33.520854525268077850341796875</LatitudeDegrees>
              <LongitudeDegrees>-70.22451507858932018280029296875</LongitudeDegrees>
            </Position>
            <AltitudeMeters>1394.5999755859375</AltitudeMeters>
            <DistanceMeters>554.47528950946</DistanceMeters>
          </Trackpoint>
          <Trackpoint>
            <Time>2019-08-04T14:07:51.000Z</Time>
            <Position>
              <LatitudeDegrees>-33.5208620689809322357177734375</LatitudeDegrees>
              <LongitudeDegrees>-70.2245183475315570831298828125</LongitudeDegrees>
            </Position>
            <AltitudeMeters>1395</AltitudeMeters>
            <DistanceMeters>555.36671910683</DistanceMeters>
          </Trackpoint>
          <Trackpoint>
            <Time>2019-08-04T14:07:57.000Z</Time>
            <Position>
              <LatitudeDegrees>-33.52089769206941127777099609375</LatitudeDegrees>
              <LongitudeDegrees>-70.2245280705392360687255859375</LongitudeDegrees>
            </Position>
            <AltitudeMeters>1395.5999755859375</AltitudeMeters>
            <DistanceMeters>559.43404009801</DistanceMeters>
          </Trackpoint>
          <Trackpoint>
            <Time>2019-08-04T14:08:02.000Z</Time>
            <Position>
              <LatitudeDegrees>-33.52093406952917575836181640625</LatitudeDegrees>
              <LongitudeDegrees>-70.22453737445175647735595703125</LongitudeDegrees>
            </Position>
            <AltitudeMeters>1396.5999755859375</AltitudeMeters>
            <DistanceMeters>563.57397791042</DistanceMeters>
          </Trackpoint>
          <Trackpoint>
            <Time>2019-08-04T14:08:03.000Z</Time>
            <Position>
              <LatitudeDegrees>-33.52094111032783985137939453125</LatitudeDegrees>
              <LongitudeDegrees>-70.22453888319432735443115234375</LongitudeDegrees>
            </Position>
            <AltitudeMeters>1396.5999755859375</AltitudeMeters>
            <DistanceMeters>564.36902844409</DistanceMeters>
          </Trackpoint>
          <Trackpoint>
            <Time>2019-08-04T14:08:11.000Z</Time>
            <Position>
              <LatitudeDegrees>-33.520997352898120880126953125</LatitudeDegrees>
              <LongitudeDegrees>-70.22458322346210479736328125</LongitudeDegrees>
            </Position>
            <AltitudeMeters>1397.800048828125</AltitudeMeters>
            <DistanceMeters>571.85988253576</DistanceMeters>
          </Trackpoint>
          <Trackpoint>
            <Time>2019-08-04T14:08:12.000Z</Time>
            <Position>
              <LatitudeDegrees>-33.52100531570613384246826171875</LatitudeDegrees>
              <LongitudeDegrees>-70.2245877496898174285888671875</LongitudeDegrees>
            </Position>
            <AltitudeMeters>1398</AltitudeMeters>
            <DistanceMeters>572.83824244042</DistanceMeters>
          </Trackpoint>
          <Trackpoint>
            <Time>2019-08-04T14:08:15.000Z</Time>
            <Position>
              <LatitudeDegrees>-33.521024845540523529052734375</LatitudeDegrees>
              <LongitudeDegrees>-70.2246028371155261993408203125</LongitudeDegrees>
            </Position>
            <AltitudeMeters>1398.4000244140625</AltitudeMeters>
            <DistanceMeters>575.42324854652</DistanceMeters>
          </Trackpoint>
          <Trackpoint>
            <Time>2019-08-04T14:08:17.000Z</Time>
            <Position>
              <LatitudeDegrees>-33.52103800512850284576416015625</LatitudeDegrees>
              <LongitudeDegrees>-70.22461566142737865447998046875</LongitudeDegrees>
            </Position>
            <AltitudeMeters>1398.5999755859375</AltitudeMeters>
            <DistanceMeters>577.31186714098</DistanceMeters>
          </Trackpoint>
          <Trackpoint>
            <Time>2019-08-04T14:08:19.000Z</Time>
            <Position>
              <LatitudeDegrees>-33.5210461355745792388916015625</LatitudeDegrees>
              <LongitudeDegrees>-70.22463091649115085601806640625</LongitudeDegrees>
            </Position>
            <AltitudeMeters>1399</AltitudeMeters>
            <DistanceMeters>578.99037357544</DistanceMeters>
          </Trackpoint>
          <Trackpoint>
            <Time>2019-08-04T14:08:22.000Z</Time>
            <Position>
              <LatitudeDegrees>-33.52105761878192424774169921875</LatitudeDegrees>
              <LongitudeDegrees>-70.2246544696390628814697265625</LongitudeDegrees>
            </Position>
            <AltitudeMeters>1399.5999755859375</AltitudeMeters>
            <DistanceMeters>581.52243879482</DistanceMeters>
          </Trackpoint>
          <Trackpoint>
            <Time>2019-08-04T14:08:25.000Z</Time>
            <Position>
              <LatitudeDegrees>-33.52107840590178966522216796875</LatitudeDegrees>
              <LongitudeDegrees>-70.2246712334454059600830078125</LongitudeDegrees>
            </Position>
            <AltitudeMeters>1400.199951171875</AltitudeMeters>
            <DistanceMeters>584.30916909067</DistanceMeters>
          </Trackpoint>
          <Trackpoint>
            <Time>2019-08-04T14:08:30.000Z</Time>
            <Position>
              <LatitudeDegrees>-33.52110874839127063751220703125</LatitudeDegrees>
              <LongitudeDegrees>-70.22468791343271732330322265625</LongitudeDegrees>
            </Position>
            <AltitudeMeters>1401.199951171875</AltitudeMeters>
            <DistanceMeters>588.02615939995</DistanceMeters>
          </Trackpoint>
          <Trackpoint>
            <Time>2019-08-04T14:08:31.000Z</Time>
            <Position>
              <LatitudeDegrees>-33.52111025713384151458740234375</LatitudeDegrees>
              <LongitudeDegrees>-70.224690176546573638916015625</LongitudeDegrees>
            </Position>
            <AltitudeMeters>1401.4000244140625</AltitudeMeters>
            <DistanceMeters>588.29493553645</DistanceMeters>
          </Trackpoint>
          <Trackpoint>
            <Time>2019-08-04T14:08:38.000Z</Time>
            <Position>
              <LatitudeDegrees>-33.521138168871402740478515625</LatitudeDegrees>
              <LongitudeDegrees>-70.22471926175057888031005859375</LongitudeDegrees>
            </Position>
            <AltitudeMeters>1402.4000244140625</AltitudeMeters>
            <DistanceMeters>592.41081009829</DistanceMeters>
          </Trackpoint>
          <Trackpoint>
            <Time>2019-08-04T14:08:42.000Z</Time>
            <Position>
              <LatitudeDegrees>-33.5211581178009510040283203125</LatitudeDegrees>
              <LongitudeDegrees>-70.2247252129018306732177734375</LongitudeDegrees>
            </Position>
            <AltitudeMeters>1402.800048828125</AltitudeMeters>
            <DistanceMeters>594.69935643549</DistanceMeters>
          </Trackpoint>
          <Trackpoint>
            <Time>2019-08-04T14:08:48.000Z</Time>
            <Position>
              <LatitudeDegrees>-33.52116943337023258209228515625</LatitudeDegrees>
              <LongitudeDegrees>-70.22473166696727275848388671875</LongitudeDegrees>
            </Position>
            <AltitudeMeters>1403.5999755859375</AltitudeMeters>
            <DistanceMeters>596.09595820833</DistanceMeters>
          </Trackpoint>
          <Trackpoint>
            <Time>2019-08-04T14:08:53.000Z</Time>
            <Position>
              <LatitudeDegrees>-33.5211859457194805145263671875</LatitudeDegrees>
              <LongitudeDegrees>-70.22473166696727275848388671875</LongitudeDegrees>
            </Position>
            <AltitudeMeters>1404</AltitudeMeters>
            <DistanceMeters>597.93368740221</DistanceMeters>
          </Trackpoint>
          <Trackpoint>
            <Time>2019-08-04T14:08:55.000Z</Time>
            <Position>
              <LatitudeDegrees>-33.52118887938559055328369140625</LatitudeDegrees>
              <LongitudeDegrees>-70.2247396297752857208251953125</LongitudeDegrees>
            </Position>
            <AltitudeMeters>1404.4000244140625</AltitudeMeters>
            <DistanceMeters>598.74001581171</DistanceMeters>
          </Trackpoint>
          <Trackpoint>
            <Time>2019-08-04T14:08:57.000Z</Time>
            <Position>
              <LatitudeDegrees>-33.52119524963200092315673828125</LatitudeDegrees>
              <LongitudeDegrees>-70.22474658675491809844970703125</LongitudeDegrees>
            </Position>
            <AltitudeMeters>1404.5999755859375</AltitudeMeters>
            <DistanceMeters>599.69973858276</DistanceMeters>
          </Trackpoint>
          <Trackpoint>
            <Time>2019-08-04T14:09:02.000Z</Time>
            <Position>
              <LatitudeDegrees>-33.5212115943431854248046875</LatitudeDegrees>
              <LongitudeDegrees>-70.22476871497929096221923828125</LongitudeDegrees>
            </Position>
            <AltitudeMeters>1405.199951171875</AltitudeMeters>
            <DistanceMeters>602.44402059346</DistanceMeters>
          </Trackpoint>
          <Trackpoint>
            <Time>2019-08-04T14:09:06.000Z</Time>
            <Position>
              <LatitudeDegrees>-33.52122039534151554107666015625</LatitudeDegrees>
              <LongitudeDegrees>-70.22478329949080944061279296875</LongitudeDegrees>
            </Position>
            <AltitudeMeters>1405.800048828125</AltitudeMeters>
            <DistanceMeters>604.11713855034</DistanceMeters>
          </Trackpoint>
          <Trackpoint>
            <Time>2019-08-04T14:09:10.000Z</Time>
            <Position>
              <LatitudeDegrees>-33.52124034427106380462646484375</LatitudeDegrees>
              <LongitudeDegrees>-70.22479319013655185699462890625</LongitudeDegrees>
            </Position>
            <AltitudeMeters>1406</AltitudeMeters>
            <DistanceMeters>606.51926653354</DistanceMeters>
          </Trackpoint>
          <Trackpoint>
            <Time>2019-08-04T14:09:17.000Z</Time>
            <Position>
              <LatitudeDegrees>-33.521289713680744171142578125</LatitudeDegrees>
              <LongitudeDegrees>-70.224805176258087158203125</LongitudeDegrees>
            </Position>
            <AltitudeMeters>1407</AltitudeMeters>
            <DistanceMeters>612.12584268137</DistanceMeters>
          </Trackpoint>
          <Trackpoint>
            <Time>2019-08-04T14:09:19.000Z</Time>
            <Position>
              <LatitudeDegrees>-33.52130211889743804931640625</LatitudeDegrees>
              <LongitudeDegrees>-70.22481045685708522796630859375</LongitudeDegrees>
            </Position>
            <AltitudeMeters>1407.199951171875</AltitudeMeters>
            <DistanceMeters>613.59184342955</DistanceMeters>
          </Trackpoint>
          <Trackpoint>
            <Time>2019-08-04T14:09:20.000Z</Time>
            <Position>
              <LatitudeDegrees>-33.5213066451251506805419921875</LatitudeDegrees>
              <LongitudeDegrees>-70.224810540676116943359375</LongitudeDegrees>
            </Position>
            <AltitudeMeters>1407.5999755859375</AltitudeMeters>
            <DistanceMeters>614.09467753781</DistanceMeters>
          </Trackpoint>
          <Trackpoint>
            <Time>2019-08-04T14:09:21.000Z</Time>
            <Position>
              <LatitudeDegrees>-33.5213096626102924346923828125</LatitudeDegrees>
              <LongitudeDegrees>-70.2248118817806243896484375</LongitudeDegrees>
            </Position>
            <AltitudeMeters>1407.5999755859375</AltitudeMeters>
            <DistanceMeters>614.45023494558</DistanceMeters>
          </Trackpoint>
          <Trackpoint>
            <Time>2019-08-04T14:09:23.000Z</Time>
            <Position>
              <LatitudeDegrees>-33.52131879888474941253662109375</LatitudeDegrees>
              <LongitudeDegrees>-70.2248040027916431427001953125</LongitudeDegrees>
            </Position>
            <AltitudeMeters>1407.800048828125</AltitudeMeters>
            <DistanceMeters>615.70372339835</DistanceMeters>
          </Trackpoint>
          <Trackpoint>
            <Time>2019-08-04T14:09:24.000Z</Time>
            <Position>
              <LatitudeDegrees>-33.52132399566471576690673828125</LatitudeDegrees>
              <LongitudeDegrees>-70.2248019911348819732666015625</LongitudeDegrees>
            </Position>
            <AltitudeMeters>1408</AltitudeMeters>
            <DistanceMeters>616.3047251103</DistanceMeters>
          </Trackpoint>
          <Trackpoint>
            <Time>2019-08-04T14:09:25.000Z</Time>
            <Position>
              <LatitudeDegrees>-33.5213304497301578521728515625</LatitudeDegrees>
              <LongitudeDegrees>-70.2247979678213596343994140625</LongitudeDegrees>
            </Position>
            <AltitudeMeters>1408.199951171875</AltitudeMeters>
            <DistanceMeters>617.11105351979</DistanceMeters>
          </Trackpoint>
          <Trackpoint>
            <Time>2019-08-04T14:09:34.000Z</Time>
            <Position>
              <LatitudeDegrees>-33.5213881172239780426025390625</LatitudeDegrees>
              <LongitudeDegrees>-70.2248060144484043121337890625</LongitudeDegrees>
            </Position>
            <AltitudeMeters>1409</AltitudeMeters>
            <DistanceMeters>623.57287009695</DistanceMeters>
          </Trackpoint>
          <Trackpoint>
            <Time>2019-08-04T14:09:38.000Z</Time>
            <Position>
              <LatitudeDegrees>-33.5214068926870822906494140625</LatitudeDegrees>
              <LongitudeDegrees>-70.22480727173388004302978515625</LongitudeDegrees>
            </Position>
            <AltitudeMeters>1409.800048828125</AltitudeMeters>
            <DistanceMeters>625.66345781309</DistanceMeters>
          </Trackpoint>
          <Trackpoint>
            <Time>2019-08-04T14:09:39.000Z</Time>
            <Position>
              <LatitudeDegrees>-33.52141183800995349884033203125</LatitudeDegrees>
              <LongitudeDegrees>-70.22480911575257778167724609375</LongitudeDegrees>
            </Position>
            <AltitudeMeters>1410.199951171875</AltitudeMeters>
            <DistanceMeters>626.23361809931</DistanceMeters>
          </Trackpoint>
          <Trackpoint>
            <Time>2019-08-04T14:09:41.000Z</Time>
            <Position>
              <LatitudeDegrees>-33.52142591960728168487548828125</LatitudeDegrees>
              <LongitudeDegrees>-70.2248086966574192047119140625</LongitudeDegrees>
            </Position>
            <AltitudeMeters>1410.4000244140625</AltitudeMeters>
            <DistanceMeters>627.80083882172</DistanceMeters>
          </Trackpoint>
          <Trackpoint>
            <Time>2019-08-04T14:09:43.000Z</Time>
            <Position>
              <LatitudeDegrees>-33.52144486270844936370849609375</LatitudeDegrees>
              <LongitudeDegrees>-70.22480794228613376617431640625</LongitudeDegrees>
            </Position>
            <AltitudeMeters>1410.5999755859375</AltitudeMeters>
            <DistanceMeters>629.91291310151</DistanceMeters>
          </Trackpoint>
          <Trackpoint>
            <Time>2019-08-04T14:09:45.000Z</Time>
            <Position>
              <LatitudeDegrees>-33.52145969867706298828125</LatitudeDegrees>
              <LongitudeDegrees>-70.22480928339064121246337890625</LongitudeDegrees>
            </Position>
            <AltitudeMeters>1410.800048828125</AltitudeMeters>
            <DistanceMeters>631.56430133147</DistanceMeters>
          </Trackpoint>
          <Trackpoint>
            <Time>2019-08-04T14:09:47.000Z</Time>
            <Position>
              <LatitudeDegrees>-33.52147671394050121307373046875</LatitudeDegrees>
              <LongitudeDegrees>-70.22480961866676807403564453125</LongitudeDegrees>
            </Position>
            <AltitudeMeters>1411</AltitudeMeters>
            <DistanceMeters>633.45769520182</DistanceMeters>
          </Trackpoint>
          <Trackpoint>
            <Time>2019-08-04T14:09:48.000Z</Time>
            <Position>
              <LatitudeDegrees>-33.52147520519793033599853515625</LatitudeDegrees>
              <LongitudeDegrees>-70.22482068277895450592041015625</LongitudeDegrees>
            </Position>
            <AltitudeMeters>1411.199951171875</AltitudeMeters>
            <DistanceMeters>634.49866070234</DistanceMeters>
          </Trackpoint>
          <Trackpoint>
            <Time>2019-08-04T14:09:50.000Z</Time>
            <Position>
              <LatitudeDegrees>-33.521481491625308990478515625</LatitudeDegrees>
              <LongitudeDegrees>-70.22483426146209239959716796875</LongitudeDegrees>
            </Position>
            <AltitudeMeters>1411.5999755859375</AltitudeMeters>
            <DistanceMeters>635.93981218019</DistanceMeters>
          </Trackpoint>
          <Trackpoint>
            <Time>2019-08-04T14:09:53.000Z</Time>
            <Position>
              <LatitudeDegrees>-33.521492891013622283935546875</LatitudeDegrees>
              <LongitudeDegrees>-70.2248502708971500396728515625</LongitudeDegrees>
            </Position>
            <AltitudeMeters>1411.800048828125</AltitudeMeters>
            <DistanceMeters>637.89422317478</DistanceMeters>
          </Trackpoint>
          <Trackpoint>
            <Time>2019-08-04T14:09:56.000Z</Time>
            <Position>
              <LatitudeDegrees>-33.5215120017528533935546875</LatitudeDegrees>
              <LongitudeDegrees>-70.22487021982669830322265625</LongitudeDegrees>
            </Position>
            <AltitudeMeters>1412.4000244140625</AltitudeMeters>
            <DistanceMeters>640.71317107616</DistanceMeters>
          </Trackpoint>
          <Trackpoint>
            <Time>2019-08-04T14:09:59.000Z</Time>
            <Position>
              <LatitudeDegrees>-33.52152197621762752532958984375</LatitudeDegrees>
              <LongitudeDegrees>-70.2248801104724407196044921875</LongitudeDegrees>
            </Position>
            <AltitudeMeters>1412.800048828125</AltitudeMeters>
            <DistanceMeters>642.15432255401</DistanceMeters>
          </Trackpoint>
          <Trackpoint>
            <Time>2019-08-04T14:10:02.000Z</Time>
            <Position>
              <LatitudeDegrees>-33.5215361416339874267578125</LatitudeDegrees>
              <LongitudeDegrees>-70.22488220594823360443115234375</LongitudeDegrees>
            </Position>
            <AltitudeMeters>1413.4000244140625</AltitudeMeters>
            <DistanceMeters>643.74442362133</DistanceMeters>
          </Trackpoint>
          <Trackpoint>
            <Time>2019-08-04T14:10:03.000Z</Time>
            <Position>
              <LatitudeDegrees>-33.52154041640460491180419921875</LatitudeDegrees>
              <LongitudeDegrees>-70.22488304413855075836181640625</LongitudeDegrees>
            </Position>
            <AltitudeMeters>1413.5999755859375</AltitudeMeters>
            <DistanceMeters>644.22896669222</DistanceMeters>
          </Trackpoint>
          <Trackpoint>
            <Time>2019-08-04T14:10:08.000Z</Time>
            <Position>
              <LatitudeDegrees>-33.52156321518123149871826171875</LatitudeDegrees>
              <LongitudeDegrees>-70.22488438524305820465087890625</LongitudeDegrees>
            </Position>
            <AltitudeMeters>1414.4000244140625</AltitudeMeters>
            <DistanceMeters>646.768154472</DistanceMeters>
          </Trackpoint>
          <Trackpoint>
            <Time>2019-08-04T14:10:16.000Z</Time>
            <Position>
              <LatitudeDegrees>-33.521595485508441925048828125</LatitudeDegrees>
              <LongitudeDegrees>-70.22488187067210674285888671875</LongitudeDegrees>
            </Position>
            <AltitudeMeters>1415.4000244140625</AltitudeMeters>
            <DistanceMeters>650.36664438037</DistanceMeters>
          </Trackpoint>
          <Trackpoint>
            <Time>2019-08-04T14:10:17.000Z</Time>
            <Position>
              <LatitudeDegrees>-33.52160361595451831817626953125</LatitudeDegrees>
              <LongitudeDegrees>-70.22488254122436046600341796875</LongitudeDegrees>
            </Position>
            <AltitudeMeters>1415.5999755859375</AltitudeMeters>
            <DistanceMeters>651.27314146056</DistanceMeters>
          </Trackpoint>
          <Trackpoint>
            <Time>2019-08-04T14:10:18.000Z</Time>
            <Position>
              <LatitudeDegrees>-33.5216073878109455108642578125</LatitudeDegrees>
              <LongitudeDegrees>-70.2248864807188510894775390625</LongitudeDegrees>
            </Position>
            <AltitudeMeters>1415.5999755859375</AltitudeMeters>
            <DistanceMeters>651.82723766078</DistanceMeters>
          </Trackpoint>
          <Trackpoint>
            <Time>2019-08-04T14:10:19.000Z</Time>
            <Position>
              <LatitudeDegrees>-33.52160965092480182647705078125</LatitudeDegrees>
              <LongitudeDegrees>-70.22488723509013652801513671875</LongitudeDegrees>
            </Position>
            <AltitudeMeters>1416</AltitudeMeters>
            <DistanceMeters>652.09601379728</DistanceMeters>
          </Trackpoint>
          <Trackpoint>
            <Time>2019-08-04T14:10:22.000Z</Time>
            <Position>
              <LatitudeDegrees>-33.5216184519231319427490234375</LatitudeDegrees>
              <LongitudeDegrees>-70.2248874865472316741943359375</LongitudeDegrees>
            </Position>
            <AltitudeMeters>1416.199951171875</AltitudeMeters>
            <DistanceMeters>653.07437370194</DistanceMeters>
          </Trackpoint>
          <Trackpoint>
            <Time>2019-08-04T14:10:24.000Z</Time>
            <Position>
              <LatitudeDegrees>-33.52162758819758892059326171875</LatitudeDegrees>
              <LongitudeDegrees>-70.2248962037265300750732421875</LongitudeDegrees>
            </Position>
            <AltitudeMeters>1416.5999755859375</AltitudeMeters>
            <DistanceMeters>654.37036529859</DistanceMeters>
          </Trackpoint>
          <Trackpoint>
            <Time>2019-08-04T14:10:25.000Z</Time>
            <Position>
              <LatitudeDegrees>-33.52163395844399929046630859375</LatitudeDegrees>
              <LongitudeDegrees>-70.22490399889647960662841796875</LongitudeDegrees>
            </Position>
            <AltitudeMeters>1416.5999755859375</AltitudeMeters>
            <DistanceMeters>655.38497296395</DistanceMeters>
          </Trackpoint>
          <Trackpoint>
            <Time>2019-08-04T14:10:27.000Z</Time>
            <Position>
              <LatitudeDegrees>-33.52164703421294689178466796875</LatitudeDegrees>
              <LongitudeDegrees>-70.22490148432552814483642578125</LongitudeDegrees>
            </Position>
            <AltitudeMeters>1417</AltitudeMeters>
            <DistanceMeters>656.85712049275</DistanceMeters>
          </Trackpoint>
          <Trackpoint>
            <Time>2019-08-04T14:10:28.000Z</Time>
            <Position>
              <LatitudeDegrees>-33.52165457792580127716064453125</LatitudeDegrees>
              <LongitudeDegrees>-70.2248995564877986907958984375</LongitudeDegrees>
            </Position>
            <AltitudeMeters>1417</AltitudeMeters>
            <DistanceMeters>657.70706526479</DistanceMeters>
          </Trackpoint>
          <Trackpoint>
            <Time>2019-08-04T14:10:31.000Z</Time>
            <Position>
              <LatitudeDegrees>-33.5216754488646984100341796875</LatitudeDegrees>
              <LongitudeDegrees>-70.22489947266876697540283203125</LongitudeDegrees>
            </Position>
            <AltitudeMeters>1417.5999755859375</AltitudeMeters>
            <DistanceMeters>660.03085219854</DistanceMeters>
          </Trackpoint>
          <Trackpoint>
            <Time>2019-08-04T14:10:32.000Z</Time>
            <Position>
              <LatitudeDegrees>-33.5216821543872356414794921875</LatitudeDegrees>
              <LongitudeDegrees>-70.2248962037265300750732421875</LongitudeDegrees>
            </Position>
            <AltitudeMeters>1417.800048828125</AltitudeMeters>
            <DistanceMeters>660.83718060804</DistanceMeters>
          </Trackpoint>
          <Trackpoint>
            <Time>2019-08-04T14:10:37.000Z</Time>
            <Position>
              <LatitudeDegrees>-33.52168835699558258056640625</LatitudeDegrees>
              <LongitudeDegrees>-70.22492118179798126220703125</LongitudeDegrees>
            </Position>
            <AltitudeMeters>1418.800048828125</AltitudeMeters>
            <DistanceMeters>663.25616583654</DistanceMeters>
          </Trackpoint>
          <Trackpoint>
            <Time>2019-08-04T14:10:38.000Z</Time>
            <Position>
              <LatitudeDegrees>-33.5216891951858997344970703125</LatitudeDegrees>
              <LongitudeDegrees>-70.224928557872772216796875</LongitudeDegrees>
            </Position>
            <AltitudeMeters>1419</AltitudeMeters>
            <DistanceMeters>663.94141321894</DistanceMeters>
          </Trackpoint>
          <Trackpoint>
            <Time>2019-08-04T14:10:40.000Z</Time>
            <Position>
              <LatitudeDegrees>-33.5216836631298065185546875</LatitudeDegrees>
              <LongitudeDegrees>-70.2249434776604175567626953125</LongitudeDegrees>
            </Position>
            <AltitudeMeters>1419.199951171875</AltitudeMeters>
            <DistanceMeters>665.45588983373</DistanceMeters>
          </Trackpoint>
          <Trackpoint>
            <Time>2019-08-04T14:10:44.000Z</Time>
            <Position>
              <LatitudeDegrees>-33.52166010998189449310302734375</LatitudeDegrees>
              <LongitudeDegrees>-70.22497138939797878265380859375</LongitudeDegrees>
            </Position>
            <AltitudeMeters>1419.800048828125</AltitudeMeters>
            <DistanceMeters>669.14116254708</DistanceMeters>
          </Trackpoint>
          <Trackpoint>
            <Time>2019-08-04T14:10:47.000Z</Time>
            <Position>
              <LatitudeDegrees>-33.52164284326136112213134765625</LatitudeDegrees>
              <LongitudeDegrees>-70.22498396225273609161376953125</LongitudeDegrees>
            </Position>
            <AltitudeMeters>1420.4000244140625</AltitudeMeters>
            <DistanceMeters>671.38990504203</DistanceMeters>
          </Trackpoint>
          <Trackpoint>
            <Time>2019-08-04T14:10:50.000Z</Time>
            <Position>
              <LatitudeDegrees>-33.52163379080593585968017578125</LatitudeDegrees>
              <LongitudeDegrees>-70.2250021509826183319091796875</LongitudeDegrees>
            </Position>
            <AltitudeMeters>1420.5999755859375</AltitudeMeters>
            <DistanceMeters>673.35583299544</DistanceMeters>
          </Trackpoint>
          <Trackpoint>
            <Time>2019-08-04T14:10:53.000Z</Time>
            <Position>
              <LatitudeDegrees>-33.52162800729274749755859375</LatitudeDegrees>
              <LongitudeDegrees>-70.22502821870148181915283203125</LongitudeDegrees>
            </Position>
            <AltitudeMeters>1421</AltitudeMeters>
            <DistanceMeters>675.85920533133</DistanceMeters>
          </Trackpoint>
          <Trackpoint>
            <Time>2019-08-04T14:11:00.000Z</Time>
            <Position>
              <LatitudeDegrees>-33.52160763926804065704345703125</LatitudeDegrees>
              <LongitudeDegrees>-70.225087814033031463623046875</LongitudeDegrees>
            </Position>
            <AltitudeMeters>1421.800048828125</AltitudeMeters>
            <DistanceMeters>681.83456492381</DistanceMeters>
          </Trackpoint>
          <Trackpoint>
            <Time>2019-08-04T14:11:02.000Z</Time>
            <Position>
              <LatitudeDegrees>-33.52160395123064517974853515625</LatitudeDegrees>
              <LongitudeDegrees>-70.2251077629625797271728515625</LongitudeDegrees>
            </Position>
            <AltitudeMeters>1422</AltitudeMeters>
            <DistanceMeters>683.73034192143</DistanceMeters>
          </Trackpoint>
          <Trackpoint>
            <Time>2019-08-04T14:11:03.000Z</Time>
            <Position>
              <LatitudeDegrees>-33.52160545997321605682373046875</LatitudeDegrees>
              <LongitudeDegrees>-70.22511471994221210479736328125</LongitudeDegrees>
            </Position>
            <AltitudeMeters>1422.4000244140625</AltitudeMeters>
            <DistanceMeters>684.40228226268</DistanceMeters>
          </Trackpoint>
          <Trackpoint>
            <Time>2019-08-04T14:11:04.000Z</Time>
            <Position>
              <LatitudeDegrees>-33.521606884896755218505859375</LatitudeDegrees>
              <LongitudeDegrees>-70.22512209601700305938720703125</LongitudeDegrees>
            </Position>
            <AltitudeMeters>1422.5999755859375</AltitudeMeters>
            <DistanceMeters>685.1005831491</DistanceMeters>
          </Trackpoint>
          <Trackpoint>
            <Time>2019-08-04T14:11:06.000Z</Time>
            <Position>
              <LatitudeDegrees>-33.5216040350496768951416015625</LatitudeDegrees>
              <LongitudeDegrees>-70.22513332776725292205810546875</LongitudeDegrees>
            </Position>
            <AltitudeMeters>1423.199951171875</AltitudeMeters>
            <DistanceMeters>686.18821360755</DistanceMeters>
          </Trackpoint>
          <Trackpoint>
            <Time>2019-08-04T14:11:14.000Z</Time>
            <Position>
              <LatitudeDegrees>-33.52159045636653900146484375</LatitudeDegrees>
              <LongitudeDegrees>-70.22518278099596500396728515625</LongitudeDegrees>
            </Position>
            <AltitudeMeters>1424</AltitudeMeters>
            <DistanceMeters>691.01964689464</DistanceMeters>
          </Trackpoint>
          <Trackpoint>
            <Time>2019-08-04T14:11:15.000Z</Time>
            <Position>
              <LatitudeDegrees>-33.5215953178703784942626953125</LatitudeDegrees>
              <LongitudeDegrees>-70.2251858823001384735107421875</LongitudeDegrees>
            </Position>
            <AltitudeMeters>1424</AltitudeMeters>
            <DistanceMeters>691.6354903899</DistanceMeters>
          </Trackpoint>
          <Trackpoint>
            <Time>2019-08-04T14:11:16.000Z</Time>
            <Position>
              <LatitudeDegrees>-33.5216030292212963104248046875</LatitudeDegrees>
              <LongitudeDegrees>-70.22519434802234172821044921875</LongitudeDegrees>
            </Position>
            <AltitudeMeters>1424.4000244140625</AltitudeMeters>
            <DistanceMeters>692.79932520059</DistanceMeters>
          </Trackpoint>
          <Trackpoint>
            <Time>2019-08-04T14:11:18.000Z</Time>
            <Position>
              <LatitudeDegrees>-33.5216040350496768951416015625</LatitudeDegrees>
              <LongitudeDegrees>-70.225207172334194183349609375</LongitudeDegrees>
            </Position>
            <AltitudeMeters>1424.800048828125</AltitudeMeters>
            <DistanceMeters>693.99379247857</DistanceMeters>
          </Trackpoint>
          <Trackpoint>
            <Time>2019-08-04T14:11:22.000Z</Time>
            <Position>
              <LatitudeDegrees>-33.5216114111244678497314453125</LatitudeDegrees>
              <LongitudeDegrees>-70.225231647491455078125</LongitudeDegrees>
            </Position>
            <AltitudeMeters>1425.4000244140625</AltitudeMeters>
            <DistanceMeters>696.40904182031</DistanceMeters>
          </Trackpoint>
          <Trackpoint>
            <Time>2019-08-04T14:11:27.000Z</Time>
            <Position>
              <LatitudeDegrees>-33.52163194678723812103271484375</LatitudeDegrees>
              <LongitudeDegrees>-70.22525201551616191864013671875</LongitudeDegrees>
            </Position>
            <AltitudeMeters>1426.4000244140625</AltitudeMeters>
            <DistanceMeters>699.37472798989</DistanceMeters>
          </Trackpoint>
          <Trackpoint>
            <Time>2019-08-04T14:11:31.000Z</Time>
            <Position>
              <LatitudeDegrees>-33.5216576792299747467041015625</LatitudeDegrees>
              <LongitudeDegrees>-70.225250087678432464599609375</LongitudeDegrees>
            </Position>
            <AltitudeMeters>1427</AltitudeMeters>
            <DistanceMeters>702.24447183157</DistanceMeters>
          </Trackpoint>
          <Trackpoint>
            <Time>2019-08-04T14:11:35.000Z</Time>
            <Position>
              <LatitudeDegrees>-33.521694727241992950439453125</LatitudeDegrees>
              <LongitudeDegrees>-70.22524916566908359527587890625</LongitudeDegrees>
            </Position>
            <AltitudeMeters>1427.4000244140625</AltitudeMeters>
            <DistanceMeters>706.36911290934</DistanceMeters>
          </Trackpoint>
          <Trackpoint>
            <Time>2019-08-04T14:11:43.000Z</Time>
            <Position>
              <LatitudeDegrees>-33.52173655293881893157958984375</LatitudeDegrees>
              <LongitudeDegrees>-70.2252383530139923095703125</LongitudeDegrees>
            </Position>
            <AltitudeMeters>1428.5999755859375</AltitudeMeters>
            <DistanceMeters>711.13183818246</DistanceMeters>
          </Trackpoint>
          <Trackpoint>
            <Time>2019-08-04T14:11:49.000Z</Time>
            <Position>
              <LatitudeDegrees>-33.5217730142176151275634765625</LatitudeDegrees>
              <LongitudeDegrees>-70.22523743100464344024658203125</LongitudeDegrees>
            </Position>
            <AltitudeMeters>1429.5999755859375</AltitudeMeters>
            <DistanceMeters>715.19249325112</DistanceMeters>
          </Trackpoint>
          <Trackpoint>
            <Time>2019-08-04T14:11:54.000Z</Time>
            <Position>
              <LatitudeDegrees>-33.5217931307852268218994140625</LatitudeDegrees>
              <LongitudeDegrees>-70.2252324856817722320556640625</LongitudeDegrees>
            </Position>
            <AltitudeMeters>1430.4000244140625</AltitudeMeters>
            <DistanceMeters>717.48103958832</DistanceMeters>
          </Trackpoint>
          <Trackpoint>
            <Time>2019-08-04T14:11:55.000Z</Time>
            <Position>
              <LatitudeDegrees>-33.52179807610809803009033203125</LatitudeDegrees>
              <LongitudeDegrees>-70.22522720508277416229248046875</LongitudeDegrees>
            </Position>
            <AltitudeMeters>1430.4000244140625</AltitudeMeters>
            <DistanceMeters>718.20474148395</DistanceMeters>
          </Trackpoint>
          <Trackpoint>
            <Time>2019-08-04T14:11:57.000Z</Time>
            <Position>
              <LatitudeDegrees>-33.521803356707096099853515625</LatitudeDegrees>
              <LongitudeDegrees>-70.22521764971315860748291015625</LongitudeDegrees>
            </Position>
            <AltitudeMeters>1430.800048828125</AltitudeMeters>
            <DistanceMeters>719.26291419153</DistanceMeters>
          </Trackpoint>
          <Trackpoint>
            <Time>2019-08-04T14:11:59.000Z</Time>
            <Position>
              <LatitudeDegrees>-33.521816097199916839599609375</LatitudeDegrees>
              <LongitudeDegrees>-70.22520775906741619110107421875</LongitudeDegrees>
            </Position>
            <AltitudeMeters>1431.199951171875</AltitudeMeters>
            <DistanceMeters>720.95214601584</DistanceMeters>
          </Trackpoint>
          <Trackpoint>
            <Time>2019-08-04T14:12:05.000Z</Time>
            <Position>
              <LatitudeDegrees>-33.5218521393835544586181640625</LatitudeDegrees>
              <LongitudeDegrees>-70.22520289756357669830322265625</LongitudeDegrees>
            </Position>
            <AltitudeMeters>1431.800048828125</AltitudeMeters>
            <DistanceMeters>724.98938368303</DistanceMeters>
          </Trackpoint>
          <Trackpoint>
            <Time>2019-08-04T14:12:06.000Z</Time>
            <Position>
              <LatitudeDegrees>-33.5218544863164424896240234375</LatitudeDegrees>
              <LongitudeDegrees>-70.22520943544805049896240234375</LongitudeDegrees>
            </Position>
            <AltitudeMeters>1431.800048828125</AltitudeMeters>
            <DistanceMeters>725.64774807249</DistanceMeters>
          </Trackpoint>
          <Trackpoint>
            <Time>2019-08-04T14:12:07.000Z</Time>
            <Position>
              <LatitudeDegrees>-33.5218580067157745361328125</LatitudeDegrees>
              <LongitudeDegrees>-70.22521697916090488433837890625</LongitudeDegrees>
            </Position>
            <AltitudeMeters>1432</AltitudeMeters>
            <DistanceMeters>726.44845740022</DistanceMeters>
          </Trackpoint>
          <Trackpoint>
            <Time>2019-08-04T14:12:10.000Z</Time>
            <Position>
              <LatitudeDegrees>-33.52185867726802825927734375</LatitudeDegrees>
              <LongitudeDegrees>-70.22524078376591205596923828125</LongitudeDegrees>
            </Position>
            <AltitudeMeters>1432.5999755859375</AltitudeMeters>
            <DistanceMeters>728.65667869342</DistanceMeters>
          </Trackpoint>
          <Trackpoint>
            <Time>2019-08-04T14:12:13.000Z</Time>
            <Position>
              <LatitudeDegrees>-33.521857000887393951416015625</LatitudeDegrees>
              <LongitudeDegrees>-70.22526492364704608917236328125</LongitudeDegrees>
            </Position>
            <AltitudeMeters>1432.800048828125</AltitudeMeters>
            <DistanceMeters>730.901401985</DistanceMeters>
          </Trackpoint>
          <Trackpoint>
            <Time>2019-08-04T14:12:16.000Z</Time>
            <Position>
              <LatitudeDegrees>-33.52185155265033245086669921875</LatitudeDegrees>
              <LongitudeDegrees>-70.22528487257659435272216796875</LongitudeDegrees>
            </Position>
            <AltitudeMeters>1433.4000244140625</AltitudeMeters>
            <DistanceMeters>732.8488701122</DistanceMeters>
          </Trackpoint>
          <Trackpoint>
            <Time>2019-08-04T14:12:21.000Z</Time>
            <Position>
              <LatitudeDegrees>-33.52184467948973178863525390625</LatitudeDegrees>
              <LongitudeDegrees>-70.22532577626407146453857421875</LongitudeDegrees>
            </Position>
            <AltitudeMeters>1434.199951171875</AltitudeMeters>
            <DistanceMeters>736.720552808</DistanceMeters>
          </Trackpoint>
          <Trackpoint>
            <Time>2019-08-04T14:12:27.000Z</Time>
            <Position>
              <LatitudeDegrees>-33.52184392511844635009765625</LatitudeDegrees>
              <LongitudeDegrees>-70.22537204436957836151123046875</LongitudeDegrees>
            </Position>
            <AltitudeMeters>1435</AltitudeMeters>
            <DistanceMeters>741.01361535379</DistanceMeters>
          </Trackpoint>
          <Trackpoint>
            <Time>2019-08-04T14:12:28.000Z</Time>
            <Position>
              <LatitudeDegrees>-33.5218454338610172271728515625</LatitudeDegrees>
              <LongitudeDegrees>-70.22537690587341785430908203125</LongitudeDegrees>
            </Position>
            <AltitudeMeters>1435.199951171875</AltitudeMeters>
            <DistanceMeters>741.47914927807</DistanceMeters>
          </Trackpoint>
          <Trackpoint>
            <Time>2019-08-04T14:12:29.000Z</Time>
            <Position>
              <LatitudeDegrees>-33.52184652350842952728271484375</LatitudeDegrees>
              <LongitudeDegrees>-70.2253800071775913238525390625</LongitudeDegrees>
            </Position>
            <AltitudeMeters>1435.199951171875</AltitudeMeters>
            <DistanceMeters>741.7943172347</DistanceMeters>
          </Trackpoint>
          <Trackpoint>
            <Time>2019-08-04T14:12:38.000Z</Time>
            <Position>
              <LatitudeDegrees>-33.5218860022723674774169921875</LatitudeDegrees>
              <LongitudeDegrees>-70.2254252694547176361083984375</LongitudeDegrees>
            </Position>
            <AltitudeMeters>1436.199951171875</AltitudeMeters>
            <DistanceMeters>747.8730566442</DistanceMeters>
          </Trackpoint>
          <Trackpoint>
            <Time>2019-08-04T14:12:39.000Z</Time>
            <Position>
              <LatitudeDegrees>-33.52189312689006328582763671875</LatitudeDegrees>
              <LongitudeDegrees>-70.22542887367308139801025390625</LongitudeDegrees>
            </Position>
            <AltitudeMeters>1436.4000244140625</AltitudeMeters>
            <DistanceMeters>748.73356014123</DistanceMeters>
          </Trackpoint>
          <Trackpoint>
            <Time>2019-08-04T14:12:43.000Z</Time>
            <Position>
              <LatitudeDegrees>-33.5219141654670238494873046875</LatitudeDegrees>
              <LongitudeDegrees>-70.225449912250041961669921875</LongitudeDegrees>
            </Position>
            <AltitudeMeters>1437.4000244140625</AltitudeMeters>
            <DistanceMeters>751.7833107437</DistanceMeters>
          </Trackpoint>
          <Trackpoint>
            <Time>2019-08-04T14:12:48.000Z</Time>
            <Position>
              <LatitudeDegrees>-33.52194853127002716064453125</LatitudeDegrees>
              <LongitudeDegrees>-70.2254604734480381011962890625</LongitudeDegrees>
            </Position>
            <AltitudeMeters>1438.4000244140625</AltitudeMeters>
            <DistanceMeters>755.73235392132</DistanceMeters>
          </Trackpoint>
          <Trackpoint>
            <Time>2019-08-04T14:12:53.000Z</Time>
            <Position>
              <LatitudeDegrees>-33.5219688154757022857666015625</LatitudeDegrees>
              <LongitudeDegrees>-70.225459299981594085693359375</LongitudeDegrees>
            </Position>
            <AltitudeMeters>1439.4000244140625</AltitudeMeters>
            <DistanceMeters>757.99311115448</DistanceMeters>
          </Trackpoint>
          <Trackpoint>
            <Time>2019-08-04T14:12:54.000Z</Time>
            <Position>
              <LatitudeDegrees>-33.5219733417034149169921875</LatitudeDegrees>
              <LongitudeDegrees>-70.22546122781932353973388671875</LongitudeDegrees>
            </Position>
            <AltitudeMeters>1439.4000244140625</AltitudeMeters>
            <DistanceMeters>758.52219750827</DistanceMeters>
          </Trackpoint>
          <Trackpoint>
            <Time>2019-08-04T14:12:58.000Z</Time>
            <Position>
              <LatitudeDegrees>-33.52199404500424861907958984375</LatitudeDegrees>
              <LongitudeDegrees>-70.225467346608638763427734375</LongitudeDegrees>
            </Position>
            <AltitudeMeters>1440.5999755859375</AltitudeMeters>
            <DistanceMeters>760.89406125321</DistanceMeters>
          </Trackpoint>
          <Trackpoint>
            <Time>2019-08-04T14:13:01.000Z</Time>
            <Position>
              <LatitudeDegrees>-33.52201231755316257476806640625</LatitudeDegrees>
              <LongitudeDegrees>-70.2254745550453662872314453125</LongitudeDegrees>
            </Position>
            <AltitudeMeters>1441</AltitudeMeters>
            <DistanceMeters>763.03374551896</DistanceMeters>
          </Trackpoint>
          <Trackpoint>
            <Time>2019-08-04T14:13:06.000Z</Time>
            <Position>
              <LatitudeDegrees>-33.5220274887979030609130859375</LatitudeDegrees>
              <LongitudeDegrees>-70.22549140267074108123779296875</LongitudeDegrees>
            </Position>
            <AltitudeMeters>1441.5999755859375</AltitudeMeters>
            <DistanceMeters>765.3340987084</DistanceMeters>
          </Trackpoint>
          <Trackpoint>
            <Time>2019-08-04T14:13:07.000Z</Time>
            <Position>
              <LatitudeDegrees>-33.5220296680927276611328125</LatitudeDegrees>
              <LongitudeDegrees>-70.22549517452716827392578125</LongitudeDegrees>
            </Position>
            <AltitudeMeters>1441.5999755859375</AltitudeMeters>
            <DistanceMeters>765.76956582004</DistanceMeters>
          </Trackpoint>
          <Trackpoint>
            <Time>2019-08-04T14:13:13.000Z</Time>
            <Position>
              <LatitudeDegrees>-33.52205045521259307861328125</LatitudeDegrees>
              <LongitudeDegrees>-70.22553138434886932373046875</LongitudeDegrees>
            </Position>
            <AltitudeMeters>1442.4000244140625</AltitudeMeters>
            <DistanceMeters>769.85018598892</DistanceMeters>
          </Trackpoint>
          <Trackpoint>
            <Time>2019-08-04T14:13:14.000Z</Time>
            <Position>
              <LatitudeDegrees>-33.5220553167164325714111328125</LatitudeDegrees>
              <LongitudeDegrees>-70.22553808987140655517578125</LongitudeDegrees>
            </Position>
            <AltitudeMeters>1442.5999755859375</AltitudeMeters>
            <DistanceMeters>770.66763669499</DistanceMeters>
          </Trackpoint>
          <Trackpoint>
            <Time>2019-08-04T14:13:16.000Z</Time>
            <Position>
              <LatitudeDegrees>-33.5220626927912235260009765625</LatitudeDegrees>
              <LongitudeDegrees>-70.22555259056389331817626953125</LongitudeDegrees>
            </Position>
            <AltitudeMeters>1443</AltitudeMeters>
            <DistanceMeters>772.24060870543</DistanceMeters>
          </Trackpoint>
          <Trackpoint>
            <Time>2019-08-04T14:13:19.000Z</Time>
            <Position>
              <LatitudeDegrees>-33.52207057178020477294921875</LatitudeDegrees>
              <LongitudeDegrees>-70.22558033466339111328125</LongitudeDegrees>
            </Position>
            <AltitudeMeters>1443.4000244140625</AltitudeMeters>
            <DistanceMeters>774.9617596906</DistanceMeters>
          </Trackpoint>
          <Trackpoint>
            <Time>2019-08-04T14:13:20.000Z</Time>
            <Position>
              <LatitudeDegrees>-33.52207593619823455810546875</LatitudeDegrees>
              <LongitudeDegrees>-70.22558611817657947540283203125</LongitudeDegrees>
            </Position>
            <AltitudeMeters>1443.800048828125</AltitudeMeters>
            <DistanceMeters>775.76808810009</DistanceMeters>
          </Trackpoint>
          <Trackpoint>
            <Time>2019-08-04T14:13:22.000Z</Time>
            <Position>
              <LatitudeDegrees>-33.5220791213214397430419921875</LatitudeDegrees>
              <LongitudeDegrees>-70.22560170851647853851318359375</LongitudeDegrees>
            </Position>
            <AltitudeMeters>1444.199951171875</AltitudeMeters>
            <DistanceMeters>777.25549145116</DistanceMeters>
          </Trackpoint>
          <Trackpoint>
            <Time>2019-08-04T14:13:25.000Z</Time>
            <Position>
              <LatitudeDegrees>-33.5220797918736934661865234375</LatitudeDegrees>
              <LongitudeDegrees>-70.22562433965504169464111328125</LongitudeDegrees>
            </Position>
            <AltitudeMeters>1444.800048828125</AltitudeMeters>
            <DistanceMeters>779.35899744296</DistanceMeters>
          </Trackpoint>
          <Trackpoint>
            <Time>2019-08-04T14:13:30.000Z</Time>
            <Position>
              <LatitudeDegrees>-33.522079288959503173828125</LatitudeDegrees>
              <LongitudeDegrees>-70.225628949701786041259765625</LongitudeDegrees>
            </Position>
            <AltitudeMeters>1445.4000244140625</AltitudeMeters>
            <DistanceMeters>779.78396982898</DistanceMeters>
          </Trackpoint>
          <Trackpoint>
            <Time>2019-08-04T14:13:31.000Z</Time>
            <Position>
              <LatitudeDegrees>-33.52207970805466175079345703125</LatitudeDegrees>
              <LongitudeDegrees>-70.22562584839761257171630859375</LongitudeDegrees>
            </Position>
            <AltitudeMeters>1445.4000244140625</AltitudeMeters>
            <DistanceMeters>780.05274596548</DistanceMeters>
          </Trackpoint>
          <Trackpoint>
            <Time>2019-08-04T14:13:32.000Z</Time>
            <Position>
              <LatitudeDegrees>-33.5220774449408054351806640625</LatitudeDegrees>
              <LongitudeDegrees>-70.2256247587502002716064453125</LongitudeDegrees>
            </Position>
            <AltitudeMeters>1445.4000244140625</AltitudeMeters>
            <DistanceMeters>780.30416301961</DistanceMeters>
          </Trackpoint>
          <Trackpoint>
            <Time>2019-08-04T14:13:33.000Z</Time>
            <Position>
              <LatitudeDegrees>-33.522072248160839080810546875</LatitudeDegrees>
              <LongitudeDegrees>-70.22562115453183650970458984375</LongitudeDegrees>
            </Position>
            <AltitudeMeters>1445.5999755859375</AltitudeMeters>
            <DistanceMeters>780.97610336086</DistanceMeters>
          </Trackpoint>
          <Trackpoint>
            <Time>2019-08-04T14:13:35.000Z</Time>
            <Position>
              <LatitudeDegrees>-33.52207124233245849609375</LatitudeDegrees>
              <LongitudeDegrees>-70.22562048397958278656005859375</LongitudeDegrees>
            </Position>
            <AltitudeMeters>1445.5999755859375</AltitudeMeters>
            <DistanceMeters>781.11049142911</DistanceMeters>
          </Trackpoint>
          <Trackpoint>
            <Time>2019-08-04T14:13:39.000Z</Time>
            <Position>
              <LatitudeDegrees>-33.52207593619823455810546875</LatitudeDegrees>
              <LongitudeDegrees>-70.22559550590813159942626953125</LongitudeDegrees>
            </Position>
            <AltitudeMeters>1445.5999755859375</AltitudeMeters>
            <DistanceMeters>783.48615928836</DistanceMeters>
          </Trackpoint>
          <Trackpoint>
            <Time>2019-08-04T14:13:50.000Z</Time>
            <Position>
              <LatitudeDegrees>-33.52210401557385921478271484375</LatitudeDegrees>
              <LongitudeDegrees>-70.22555812261998653411865234375</LongitudeDegrees>
            </Position>
            <AltitudeMeters>1446</AltitudeMeters>
            <DistanceMeters>788.15408971407</DistanceMeters>
          </Trackpoint>
          <Trackpoint>
            <Time>2019-08-04T14:13:52.000Z</Time>
            <Position>
              <LatitudeDegrees>-33.522106446325778961181640625</LatitudeDegrees>
              <LongitudeDegrees>-70.22555678151547908782958984375</LongitudeDegrees>
            </Position>
            <AltitudeMeters>1446</AltitudeMeters>
            <DistanceMeters>788.45459057004</DistanceMeters>
          </Trackpoint>
          <Trackpoint>
            <Time>2019-08-04T14:13:55.000Z</Time>
            <Position>
              <LatitudeDegrees>-33.52211155928671360015869140625</LatitudeDegrees>
              <LongitudeDegrees>-70.22555150091648101806640625</LongitudeDegrees>
            </Position>
            <AltitudeMeters>1446.4000244140625</AltitudeMeters>
            <DistanceMeters>789.20283166723</DistanceMeters>
          </Trackpoint>
          <Trackpoint>
            <Time>2019-08-04T14:13:57.000Z</Time>
            <Position>
              <LatitudeDegrees>-33.52211290039122104644775390625</LatitudeDegrees>
              <LongitudeDegrees>-70.22555074654519557952880859375</LongitudeDegrees>
            </Position>
            <AltitudeMeters>1446.800048828125</AltitudeMeters>
            <DistanceMeters>789.39288509597</DistanceMeters>
          </Trackpoint>
          <Trackpoint>
            <Time>2019-08-04T14:13:58.000Z</Time>
            <Position>
              <LatitudeDegrees>-33.5221128165721893310546875</LatitudeDegrees>
              <LongitudeDegrees>-70.22555108182132244110107421875</LongitudeDegrees>
            </Position>
            <AltitudeMeters>1446.800048828125</AltitudeMeters>
            <DistanceMeters>789.39288509597</DistanceMeters>
          </Trackpoint>
          <Trackpoint>
            <Time>2019-08-04T14:13:59.000Z</Time>
            <Position>
              <LatitudeDegrees>-33.52211373858153820037841796875</LatitudeDegrees>
              <LongitudeDegrees>-70.22555124945938587188720703125</LongitudeDegrees>
            </Position>
            <AltitudeMeters>1446.800048828125</AltitudeMeters>
            <DistanceMeters>789.52727316422</DistanceMeters>
          </Trackpoint>
          <Trackpoint>
            <Time>2019-08-04T14:14:00.000Z</Time>
            <Position>
              <LatitudeDegrees>-33.52211390621960163116455078125</LatitudeDegrees>
              <LongitudeDegrees>-70.2255520038306713104248046875</LongitudeDegrees>
            </Position>
            <AltitudeMeters>1446.800048828125</AltitudeMeters>
            <DistanceMeters>789.66166123247</DistanceMeters>
          </Trackpoint>
          <Trackpoint>
            <Time>2019-08-04T14:14:01.000Z</Time>
            <Position>
              <LatitudeDegrees>-33.5221146605908870697021484375</LatitudeDegrees>
              <LongitudeDegrees>-70.22555208764970302581787109375</LongitudeDegrees>
            </Position>
            <AltitudeMeters>1446.800048828125</AltitudeMeters>
            <DistanceMeters>789.75668794684</DistanceMeters>
          </Trackpoint>
          <Trackpoint>
            <Time>2019-08-04T14:14:04.000Z</Time>
            <Position>
              <LatitudeDegrees>-33.52211809717118740081787109375</LatitudeDegrees>
              <LongitudeDegrees>-70.22555460222065448760986328125</LongitudeDegrees>
            </Position>
            <AltitudeMeters>1446.800048828125</AltitudeMeters>
            <DistanceMeters>790.20240274553</DistanceMeters>
          </Trackpoint>
          <Trackpoint>
            <Time>2019-08-04T14:14:06.000Z</Time>
            <Position>
              <LatitudeDegrees>-33.5221208631992340087890625</LatitudeDegrees>
              <LongitudeDegrees>-70.22555611096322536468505859375</LongitudeDegrees>
            </Position>
            <AltitudeMeters>1446.800048828125</AltitudeMeters>
            <DistanceMeters>790.53158494026</DistanceMeters>
          </Trackpoint>
          <Trackpoint>
            <Time>2019-08-04T14:14:09.000Z</Time>
            <Position>
              <LatitudeDegrees>-33.522125892341136932373046875</LatitudeDegrees>
              <LongitudeDegrees>-70.22555493749678134918212890625</LongitudeDegrees>
            </Position>
            <AltitudeMeters>1446.800048828125</AltitudeMeters>
            <DistanceMeters>791.093770564</DistanceMeters>
          </Trackpoint>
          <Trackpoint>
            <Time>2019-08-04T14:14:15.000Z</Time>
            <Position>
              <LatitudeDegrees>-33.522120527923107147216796875</LatitudeDegrees>
              <LongitudeDegrees>-70.22555150091648101806640625</LongitudeDegrees>
            </Position>
            <AltitudeMeters>1446.800048828125</AltitudeMeters>
            <DistanceMeters>791.76571090524</DistanceMeters>
          </Trackpoint>
          <Trackpoint>
            <Time>2019-08-04T14:14:19.000Z</Time>
            <Position>
              <LatitudeDegrees>-33.52211759425699710845947265625</LatitudeDegrees>
              <LongitudeDegrees>-70.225555188953876495361328125</LongitudeDegrees>
            </Position>
            <AltitudeMeters>1446.800048828125</AltitudeMeters>
            <DistanceMeters>792.23124482952</DistanceMeters>
          </Trackpoint>
          <Trackpoint>
            <Time>2019-08-04T14:14:22.000Z</Time>
            <Position>
              <LatitudeDegrees>-33.522108457982540130615234375</LatitudeDegrees>
              <LongitudeDegrees>-70.22555594332516193389892578125</LongitudeDegrees>
            </Position>
            <AltitudeMeters>1446.800048828125</AltitudeMeters>
            <DistanceMeters>793.25471386545</DistanceMeters>
          </Trackpoint>
          <Trackpoint>
            <Time>2019-08-04T14:14:34.000Z</Time>
            <Position>
              <LatitudeDegrees>-33.522108457982540130615234375</LatitudeDegrees>
              <LongitudeDegrees>-70.22555544041097164154052734375</LongitudeDegrees>
            </Position>
            <AltitudeMeters>1446.4000244140625</AltitudeMeters>
            <DistanceMeters>793.25471386545</DistanceMeters>
          </Trackpoint>
          <Trackpoint>
            <Time>2019-08-04T14:14:36.000Z</Time>
            <Position>
              <LatitudeDegrees>-33.522106111049652099609375</LatitudeDegrees>
              <LongitudeDegrees>-70.22555426694452762603759765625</LongitudeDegrees>
            </Position>
            <AltitudeMeters>1446.4000244140625</AltitudeMeters>
            <DistanceMeters>793.52349000195</DistanceMeters>
          </Trackpoint>
          <Trackpoint>
            <Time>2019-08-04T14:14:39.000Z</Time>
            <Position>
              <LatitudeDegrees>-33.522105105221271514892578125</LatitudeDegrees>
              <LongitudeDegrees>-70.22555560804903507232666015625</LongitudeDegrees>
            </Position>
            <AltitudeMeters>1446.4000244140625</AltitudeMeters>
            <DistanceMeters>793.71354343069</DistanceMeters>
          </Trackpoint>
          <Trackpoint>
            <Time>2019-08-04T14:14:44.000Z</Time>
            <Position>
              <LatitudeDegrees>-33.52211105637252330780029296875</LatitudeDegrees>
              <LongitudeDegrees>-70.2255603857338428497314453125</LongitudeDegrees>
            </Position>
            <AltitudeMeters>1446.4000244140625</AltitudeMeters>
            <DistanceMeters>794.50859396435</DistanceMeters>
          </Trackpoint>
          <Trackpoint>
            <Time>2019-08-04T14:14:50.000Z</Time>
            <Position>
              <LatitudeDegrees>-33.5220958851277828216552734375</LatitudeDegrees>
              <LongitudeDegrees>-70.2255654148757457733154296875</LongitudeDegrees>
            </Position>
            <AltitudeMeters>1446</AltitudeMeters>
            <DistanceMeters>796.26079999988</DistanceMeters>
          </Trackpoint>
          <Trackpoint>
            <Time>2019-08-04T14:14:54.000Z</Time>
            <Position>
              <LatitudeDegrees>-33.5220859944820404052734375</LatitudeDegrees>
              <LongitudeDegrees>-70.22557505406439304351806640625</LongitudeDegrees>
            </Position>
            <AltitudeMeters>1446</AltitudeMeters>
            <DistanceMeters>797.67985146019</DistanceMeters>
          </Trackpoint>
          <Trackpoint>
            <Time>2019-08-04T14:14:55.000Z</Time>
            <Position>
              <LatitudeDegrees>-33.522085659205913543701171875</LatitudeDegrees>
              <LongitudeDegrees>-70.22557522170245647430419921875</LongitudeDegrees>
            </Position>
            <AltitudeMeters>1445.800048828125</AltitudeMeters>
            <DistanceMeters>797.67985146019</DistanceMeters>
          </Trackpoint>
          <Trackpoint>
            <Time>2019-08-04T14:14:56.000Z</Time>
            <Position>
              <LatitudeDegrees>-33.52208574302494525909423828125</LatitudeDegrees>
              <LongitudeDegrees>-70.2255754731595516204833984375</LongitudeDegrees>
            </Position>
            <AltitudeMeters>1445.800048828125</AltitudeMeters>
            <DistanceMeters>797.67985146019</DistanceMeters>
          </Trackpoint>
          <Trackpoint>
            <Time>2019-08-04T14:14:57.000Z</Time>
            <Position>
              <LatitudeDegrees>-33.52208607830107212066650390625</LatitudeDegrees>
              <LongitudeDegrees>-70.22557538934051990509033203125</LongitudeDegrees>
            </Position>
            <AltitudeMeters>1446</AltitudeMeters>
            <DistanceMeters>797.67985146019</DistanceMeters>
          </Trackpoint>
          <Trackpoint>
            <Time>2019-08-04T14:15:05.000Z</Time>
            <Position>
              <LatitudeDegrees>-33.5220724157989025115966796875</LatitudeDegrees>
              <LongitudeDegrees>-70.22558041848242282867431640625</LongitudeDegrees>
            </Position>
            <AltitudeMeters>1445.4000244140625</AltitudeMeters>
            <DistanceMeters>799.26995252751</DistanceMeters>
          </Trackpoint>
          <Trackpoint>
            <Time>2019-08-04T14:15:13.000Z</Time>
            <Position>
              <LatitudeDegrees>-33.52207618765532970428466796875</LatitudeDegrees>
              <LongitudeDegrees>-70.22558175958693027496337890625</LongitudeDegrees>
            </Position>
            <AltitudeMeters>1445.5999755859375</AltitudeMeters>
            <DistanceMeters>799.69492491353</DistanceMeters>
          </Trackpoint>
          <Trackpoint>
            <Time>2019-08-04T14:15:19.000Z</Time>
            <Position>
              <LatitudeDegrees>-33.52207920514047145843505859375</LatitudeDegrees>
              <LongitudeDegrees>-70.22558192722499370574951171875</LongitudeDegrees>
            </Position>
            <AltitudeMeters>1445.800048828125</AltitudeMeters>
            <DistanceMeters>800.02410710826</DistanceMeters>
          </Trackpoint>
          <Trackpoint>
            <Time>2019-08-04T14:15:25.000Z</Time>
            <Position>
              <LatitudeDegrees>-33.52208071388304233551025390625</LatitudeDegrees>
              <LongitudeDegrees>-70.2255831845104694366455078125</LongitudeDegrees>
            </Position>
            <AltitudeMeters>1445.800048828125</AltitudeMeters>
            <DistanceMeters>800.214160537</DistanceMeters>
          </Trackpoint>
          <Trackpoint>
            <Time>2019-08-04T14:15:28.000Z</Time>
            <Position>
              <LatitudeDegrees>-33.52208406664431095123291015625</LatitudeDegrees>
              <LongitudeDegrees>-70.22557237185537815093994140625</LongitudeDegrees>
            </Position>
            <AltitudeMeters>1445.800048828125</AltitudeMeters>
            <DistanceMeters>801.28083276029</DistanceMeters>
          </Trackpoint>
          <Trackpoint>
            <Time>2019-08-04T14:15:29.000Z</Time>
            <Position>
              <LatitudeDegrees>-33.522084318101406097412109375</LatitudeDegrees>
              <LongitudeDegrees>-70.22557203657925128936767578125</LongitudeDegrees>
            </Position>
            <AltitudeMeters>1445.5999755859375</AltitudeMeters>
            <DistanceMeters>801.28083276029</DistanceMeters>
          </Trackpoint>
          <Trackpoint>
            <Time>2019-08-04T14:15:30.000Z</Time>
            <Position>
              <LatitudeDegrees>-33.5220844857394695281982421875</LatitudeDegrees>
              <LongitudeDegrees>-70.2255721203982830047607421875</LongitudeDegrees>
            </Position>
            <AltitudeMeters>1445.5999755859375</AltitudeMeters>
            <DistanceMeters>801.28083276029</DistanceMeters>
          </Trackpoint>
          <Trackpoint>
            <Time>2019-08-04T14:15:31.000Z</Time>
            <Position>
              <LatitudeDegrees>-33.5220833122730255126953125</LatitudeDegrees>
              <LongitudeDegrees>-70.2255711145699024200439453125</LongitudeDegrees>
            </Position>
            <AltitudeMeters>1445.5999755859375</AltitudeMeters>
            <DistanceMeters>801.44542385766</DistanceMeters>
          </Trackpoint>
          <Trackpoint>
            <Time>2019-08-04T14:15:43.000Z</Time>
            <Position>
              <LatitudeDegrees>-33.52209915407001972198486328125</LatitudeDegrees>
              <LongitudeDegrees>-70.2255737967789173126220703125</LongitudeDegrees>
            </Position>
            <AltitudeMeters>1445.5999755859375</AltitudeMeters>
            <DistanceMeters>803.2282830524</DistanceMeters>
          </Trackpoint>
          <Trackpoint>
            <Time>2019-08-04T14:15:45.000Z</Time>
            <Position>
              <LatitudeDegrees>-33.522099070250988006591796875</LatitudeDegrees>
              <LongitudeDegrees>-70.22557237185537815093994140625</LongitudeDegrees>
            </Position>
            <AltitudeMeters>1445.4000244140625</AltitudeMeters>
            <DistanceMeters>803.36267112065</DistanceMeters>
          </Trackpoint>
          <Trackpoint>
            <Time>2019-08-04T14:15:56.000Z</Time>
            <Position>
              <LatitudeDegrees>-33.52209739387035369873046875</LatitudeDegrees>
              <LongitudeDegrees>-70.22558326832950115203857421875</LongitudeDegrees>
            </Position>
            <AltitudeMeters>1445.5999755859375</AltitudeMeters>
            <DistanceMeters>804.39054219425</DistanceMeters>
          </Trackpoint>
          <Trackpoint>
            <Time>2019-08-04T14:15:57.000Z</Time>
            <Position>
              <LatitudeDegrees>-33.522087000310420989990234375</LatitudeDegrees>
              <LongitudeDegrees>-70.2255872078239917755126953125</LongitudeDegrees>
            </Position>
            <AltitudeMeters>1445.199951171875</AltitudeMeters>
            <DistanceMeters>805.60747791022</DistanceMeters>
          </Trackpoint>
          <Trackpoint>
            <Time>2019-08-04T14:15:58.000Z</Time>
            <Position>
              <LatitudeDegrees>-33.5220814682543277740478515625</LatitudeDegrees>
              <LongitudeDegrees>-70.22558377124369144439697265625</LongitudeDegrees>
            </Position>
            <AltitudeMeters>1445.800048828125</AltitudeMeters>
            <DistanceMeters>806.29272529262</DistanceMeters>
          </Trackpoint>
          <Trackpoint>
            <Time>2019-08-04T14:16:01.000Z</Time>
            <Position>
              <LatitudeDegrees>-33.52206998504698276519775390625</LatitudeDegrees>
              <LongitudeDegrees>-70.2255801670253276824951171875</LongitudeDegrees>
            </Position>
            <AltitudeMeters>1445.4000244140625</AltitudeMeters>
            <DistanceMeters>807.61629426707</DistanceMeters>
          </Trackpoint>
          <Trackpoint>
            <Time>2019-08-04T14:16:09.000Z</Time>
            <Position>
              <LatitudeDegrees>-33.52206042967736721038818359375</LatitudeDegrees>
              <LongitudeDegrees>-70.2255801670253276824951171875</LongitudeDegrees>
            </Position>
            <AltitudeMeters>1445</AltitudeMeters>
            <DistanceMeters>808.67446697464</DistanceMeters>
          </Trackpoint>
          <Trackpoint>
            <Time>2019-08-04T14:16:12.000Z</Time>
            <Position>
              <LatitudeDegrees>-33.52206252515316009521484375</LatitudeDegrees>
              <LongitudeDegrees>-70.22558444179594516754150390625</LongitudeDegrees>
            </Position>
            <AltitudeMeters>1445.4000244140625</AltitudeMeters>
            <DistanceMeters>809.12018177333</DistanceMeters>
          </Trackpoint>
          <Trackpoint>
            <Time>2019-08-04T14:16:16.000Z</Time>
            <Position>
              <LatitudeDegrees>-33.52207124233245849609375</LatitudeDegrees>
              <LongitudeDegrees>-70.22558846510946750640869140625</LongitudeDegrees>
            </Position>
            <AltitudeMeters>1445.199951171875</AltitudeMeters>
            <DistanceMeters>810.16114727385</DistanceMeters>
          </Trackpoint>
          <Trackpoint>
            <Time>2019-08-04T14:16:18.000Z</Time>
            <Position>
              <LatitudeDegrees>-33.52206881158053874969482421875</LatitudeDegrees>
              <LongitudeDegrees>-70.22559097968041896820068359375</LongitudeDegrees>
            </Position>
            <AltitudeMeters>1445.199951171875</AltitudeMeters>
            <DistanceMeters>810.51670468161</DistanceMeters>
          </Trackpoint>
          <Trackpoint>
            <Time>2019-08-04T14:16:22.000Z</Time>
            <Position>
              <LatitudeDegrees>-33.5220687277615070343017578125</LatitudeDegrees>
              <LongitudeDegrees>-70.22558930329978466033935546875</LongitudeDegrees>
            </Position>
            <AltitudeMeters>1445.4000244140625</AltitudeMeters>
            <DistanceMeters>810.68129577898</DistanceMeters>
          </Trackpoint>
          <Trackpoint>
            <Time>2019-08-04T14:16:25.000Z</Time>
            <Position>
              <LatitudeDegrees>-33.52207518182694911956787109375</LatitudeDegrees>
              <LongitudeDegrees>-70.22558611817657947540283203125</LongitudeDegrees>
            </Position>
            <AltitudeMeters>1445.4000244140625</AltitudeMeters>
            <DistanceMeters>811.45912295885</DistanceMeters>
          </Trackpoint>
          <Trackpoint>
            <Time>2019-08-04T14:16:42.000Z</Time>
            <Position>
              <LatitudeDegrees>-33.5220807977020740509033203125</LatitudeDegrees>
              <LongitudeDegrees>-70.22558142431080341339111328125</LongitudeDegrees>
            </Position>
            <AltitudeMeters>1445.199951171875</AltitudeMeters>
            <DistanceMeters>812.21933667381</DistanceMeters>
          </Trackpoint>
          <Trackpoint>
            <Time>2019-08-04T14:16:50.000Z</Time>
            <Position>
              <LatitudeDegrees>-33.52207727730274200439453125</LatitudeDegrees>
              <LongitudeDegrees>-70.22558863274753093719482421875</LongitudeDegrees>
            </Position>
            <AltitudeMeters>1445</AltitudeMeters>
            <DistanceMeters>812.99133735081</DistanceMeters>
          </Trackpoint>
          <Trackpoint>
            <Time>2019-08-04T14:16:51.000Z</Time>
            <Position>
              <LatitudeDegrees>-33.52207702584564685821533203125</LatitudeDegrees>
              <LongitudeDegrees>-70.22558695636689662933349609375</LongitudeDegrees>
            </Position>
            <AltitudeMeters>1445</AltitudeMeters>
            <DistanceMeters>813.12572541906</DistanceMeters>
          </Trackpoint>
          <Trackpoint>
            <Time>2019-08-04T14:16:55.000Z</Time>
            <Position>
              <LatitudeDegrees>-33.5220761038362979888916015625</LatitudeDegrees>
              <LongitudeDegrees>-70.225586034357547760009765625</LongitudeDegrees>
            </Position>
            <AltitudeMeters>1445</AltitudeMeters>
            <DistanceMeters>813.26011348731</DistanceMeters>
          </Trackpoint>
          <Trackpoint>
            <Time>2019-08-04T14:17:06.000Z</Time>
            <Position>
              <LatitudeDegrees>-33.5220660455524921417236328125</LatitudeDegrees>
              <LongitudeDegrees>-70.2256138622760772705078125</LongitudeDegrees>
            </Position>
            <AltitudeMeters>1445</AltitudeMeters>
            <DistanceMeters>816.07264739198</DistanceMeters>
          </Trackpoint>
          <Trackpoint>
            <Time>2019-08-04T14:17:08.000Z</Time>
            <Position>
              <LatitudeDegrees>-33.52206227369606494903564453125</LatitudeDegrees>
              <LongitudeDegrees>-70.2256271056830883026123046875</LongitudeDegrees>
            </Position>
            <AltitudeMeters>1445</AltitudeMeters>
            <DistanceMeters>817.37211816696</DistanceMeters>
          </Trackpoint>
          <Trackpoint>
            <Time>2019-08-04T14:17:13.000Z</Time>
            <Position>
              <LatitudeDegrees>-33.52206847630441188812255859375</LatitudeDegrees>
              <LongitudeDegrees>-70.22565753199160099029541015625</LongitudeDegrees>
            </Position>
            <AltitudeMeters>1445</AltitudeMeters>
            <DistanceMeters>820.27937659227</DistanceMeters>
          </Trackpoint>
          <Trackpoint>
            <Time>2019-08-04T14:17:15.000Z</Time>
            <Position>
              <LatitudeDegrees>-33.52207635529339313507080078125</LatitudeDegrees>
              <LongitudeDegrees>-70.22566708736121654510498046875</LongitudeDegrees>
            </Position>
            <AltitudeMeters>1445</AltitudeMeters>
            <DistanceMeters>821.52564026756</DistanceMeters>
          </Trackpoint>
          <Trackpoint>
            <Time>2019-08-04T14:17:18.000Z</Time>
            <Position>
              <LatitudeDegrees>-33.52209580130875110626220703125</LatitudeDegrees>
              <LongitudeDegrees>-70.22568829357624053955078125</LongitudeDegrees>
            </Position>
            <AltitudeMeters>1445</AltitudeMeters>
            <DistanceMeters>824.45147561305</DistanceMeters>
          </Trackpoint>
          <Trackpoint>
            <Time>2019-08-04T14:17:28.000Z</Time>
            <Position>
              <LatitudeDegrees>-33.52214139886200428009033203125</LatitudeDegrees>
              <LongitudeDegrees>-70.2257484756410121917724609375</LongitudeDegrees>
            </Position>
            <AltitudeMeters>1445</AltitudeMeters>
            <DistanceMeters>831.99817635788</DistanceMeters>
          </Trackpoint>
          <Trackpoint>
            <Time>2019-08-04T14:17:30.000Z</Time>
            <Position>
              <LatitudeDegrees>-33.522149026393890380859375</LatitudeDegrees>
              <LongitudeDegrees>-70.22575342096388339996337890625</LongitudeDegrees>
            </Position>
            <AltitudeMeters>1445</AltitudeMeters>
            <DistanceMeters>832.96726249965</DistanceMeters>
          </Trackpoint>
          <Trackpoint>
            <Time>2019-08-04T14:17:41.000Z</Time>
            <Position>
              <LatitudeDegrees>-33.52220979519188404083251953125</LatitudeDegrees>
              <LongitudeDegrees>-70.225710757076740264892578125</LongitudeDegrees>
            </Position>
            <AltitudeMeters>1445</AltitudeMeters>
            <DistanceMeters>840.8033661117</DistanceMeters>
          </Trackpoint>
          <Trackpoint>
            <Time>2019-08-04T14:17:44.000Z</Time>
            <Position>
              <LatitudeDegrees>-33.5222249664366245269775390625</LatitudeDegrees>
              <LongitudeDegrees>-70.2257079072296619415283203125</LongitudeDegrees>
            </Position>
            <AltitudeMeters>1450</AltitudeMeters>
            <DistanceMeters>842.51384697036</DistanceMeters>
          </Trackpoint>
          <Trackpoint>
            <Time>2019-08-04T14:17:45.000Z</Time>
            <Position>
              <LatitudeDegrees>-33.52222622372210025787353515625</LatitudeDegrees>
              <LongitudeDegrees>-70.2257038839161396026611328125</LongitudeDegrees>
            </Position>
            <AltitudeMeters>1450.199951171875</AltitudeMeters>
            <DistanceMeters>842.91701117511</DistanceMeters>
          </Trackpoint>
          <Trackpoint>
            <Time>2019-08-04T14:17:46.000Z</Time>
            <Position>
              <LatitudeDegrees>-33.5222308337688446044921875</LatitudeDegrees>
              <LongitudeDegrees>-70.22570396773517131805419921875</LongitudeDegrees>
            </Position>
            <AltitudeMeters>1450.199951171875</AltitudeMeters>
            <DistanceMeters>843.42874569308</DistanceMeters>
          </Trackpoint>
          <Trackpoint>
            <Time>2019-08-04T14:17:47.000Z</Time>
            <Position>
              <LatitudeDegrees>-33.52223577909171581268310546875</LatitudeDegrees>
              <LongitudeDegrees>-70.22570430301129817962646484375</LongitudeDegrees>
            </Position>
            <AltitudeMeters>1450.5999755859375</AltitudeMeters>
            <DistanceMeters>843.97463260687</DistanceMeters>
          </Trackpoint>
          <Trackpoint>
            <Time>2019-08-04T14:17:49.000Z</Time>
            <Position>
              <LatitudeDegrees>-33.52223879657685756683349609375</LatitudeDegrees>
              <LongitudeDegrees>-70.2257069014012813568115234375</LongitudeDegrees>
            </Position>
            <AltitudeMeters>1451</AltitudeMeters>
            <DistanceMeters>844.37779681162</DistanceMeters>
          </Trackpoint>
          <Trackpoint>
            <Time>2019-08-04T14:17:50.000Z</Time>
            <Position>
              <LatitudeDegrees>-33.52224013768136501312255859375</LatitudeDegrees>
              <LongitudeDegrees>-70.22570782341063022613525390625</LongitudeDegrees>
            </Position>
            <AltitudeMeters>1451</AltitudeMeters>
            <DistanceMeters>844.56785024036</DistanceMeters>
          </Trackpoint>
          <Trackpoint>
            <Time>2019-08-04T14:17:52.000Z</Time>
            <Position>
              <LatitudeDegrees>-33.5222442448139190673828125</LatitudeDegrees>
              <LongitudeDegrees>-70.225714780390262603759765625</LongitudeDegrees>
            </Position>
            <AltitudeMeters>1451</AltitudeMeters>
            <DistanceMeters>845.35146060156</DistanceMeters>
          </Trackpoint>
          <Trackpoint>
            <Time>2019-08-04T14:17:58.000Z</Time>
            <Position>
              <LatitudeDegrees>-33.52224047295749187469482421875</LatitudeDegrees>
              <LongitudeDegrees>-70.225718803703784942626953125</LongitudeDegrees>
            </Position>
            <AltitudeMeters>1451.5999755859375</AltitudeMeters>
            <DistanceMeters>845.90555680178</DistanceMeters>
          </Trackpoint>
          <Trackpoint>
            <Time>2019-08-04T14:18:00.000Z</Time>
            <Position>
              <LatitudeDegrees>-33.5222571529448032379150390625</LatitudeDegrees>
              <LongitudeDegrees>-70.22572852671146392822265625</LongitudeDegrees>
            </Position>
            <AltitudeMeters>1452.199951171875</AltitudeMeters>
            <DistanceMeters>847.96787734066</DistanceMeters>
          </Trackpoint>
          <Trackpoint>
            <Time>2019-08-04T14:18:01.000Z</Time>
            <Position>
              <LatitudeDegrees>-33.52226377464830875396728515625</LatitudeDegrees>
              <LongitudeDegrees>-70.225733220577239990234375</LongitudeDegrees>
            </Position>
            <AltitudeMeters>1452.199951171875</AltitudeMeters>
            <DistanceMeters>848.8178221127</DistanceMeters>
          </Trackpoint>
          <Trackpoint>
            <Time>2019-08-04T14:18:07.000Z</Time>
            <Position>
              <LatitudeDegrees>-33.522294871509075164794921875</LatitudeDegrees>
              <LongitudeDegrees>-70.2257310412824153900146484375</LongitudeDegrees>
            </Position>
            <AltitudeMeters>1451.800048828125</AltitudeMeters>
            <DistanceMeters>852.28466963558</DistanceMeters>
          </Trackpoint>
          <Trackpoint>
            <Time>2019-08-04T14:18:10.000Z</Time>
            <Position>
              <LatitudeDegrees>-33.52230702526867389678955078125</LatitudeDegrees>
              <LongitudeDegrees>-70.22572743706405162811279296875</LongitudeDegrees>
            </Position>
            <AltitudeMeters>1452.4000244140625</AltitudeMeters>
            <DistanceMeters>853.68127140842</DistanceMeters>
          </Trackpoint>
          <Trackpoint>
            <Time>2019-08-04T14:18:12.000Z</Time>
            <Position>
              <LatitudeDegrees>-33.5223175026476383209228515625</LatitudeDegrees>
              <LongitudeDegrees>-70.22572944872081279754638671875</LongitudeDegrees>
            </Position>
            <AltitudeMeters>1452.5999755859375</AltitudeMeters>
            <DistanceMeters>854.86434446146</DistanceMeters>
          </Trackpoint>
          <Trackpoint>
            <Time>2019-08-04T14:18:13.000Z</Time>
            <Position>
              <LatitudeDegrees>-33.52232295088469982147216796875</LatitudeDegrees>
              <LongitudeDegrees>-70.2257303707301616668701171875</LongitudeDegrees>
            </Position>
            <AltitudeMeters>1452.800048828125</AltitudeMeters>
            <DistanceMeters>855.48018795671</DistanceMeters>
          </Trackpoint>
          <Trackpoint>
            <Time>2019-08-04T14:18:16.000Z</Time>
            <Position>
              <LatitudeDegrees>-33.5223369486629962921142578125</LatitudeDegrees>
              <LongitudeDegrees>-70.2257291972637176513671875</LongitudeDegrees>
            </Position>
            <AltitudeMeters>1453.5999755859375</AltitudeMeters>
            <DistanceMeters>857.03874195431</DistanceMeters>
          </Trackpoint>
          <Trackpoint>
            <Time>2019-08-04T14:18:18.000Z</Time>
            <Position>
              <LatitudeDegrees>-33.5223496891558170318603515625</LatitudeDegrees>
              <LongitudeDegrees>-70.2257246710360050201416015625</LongitudeDegrees>
            </Position>
            <AltitudeMeters>1454</AltitudeMeters>
            <DistanceMeters>858.51701070505</DistanceMeters>
          </Trackpoint>
          <Trackpoint>
            <Time>2019-08-04T14:18:20.000Z</Time>
            <Position>
              <LatitudeDegrees>-33.522364608943462371826171875</LatitudeDegrees>
              <LongitudeDegrees>-70.2257179655134677886962890625</LongitudeDegrees>
            </Position>
            <AltitudeMeters>1454.4000244140625</AltitudeMeters>
            <DistanceMeters>860.29225623144</DistanceMeters>
          </Trackpoint>
          <Trackpoint>
            <Time>2019-08-04T14:18:23.000Z</Time>
            <Position>
              <LatitudeDegrees>-33.52239201776683330535888671875</LatitudeDegrees>
              <LongitudeDegrees>-70.22571243345737457275390625</LongitudeDegrees>
            </Position>
            <AltitudeMeters>1454.800048828125</AltitudeMeters>
            <DistanceMeters>863.38610190157</DistanceMeters>
          </Trackpoint>
          <Trackpoint>
            <Time>2019-08-04T14:18:27.000Z</Time>
            <Position>
              <LatitudeDegrees>-33.522433005273342132568359375</LatitudeDegrees>
              <LongitudeDegrees>-70.22569634020328521728515625</LongitudeDegrees>
            </Position>
            <AltitudeMeters>1455.199951171875</AltitudeMeters>
            <DistanceMeters>868.18659719736</DistanceMeters>
          </Trackpoint>
          <Trackpoint>
            <Time>2019-08-04T14:18:31.000Z</Time>
            <Position>
              <LatitudeDegrees>-33.5224576480686664581298828125</LatitudeDegrees>
              <LongitudeDegrees>-70.2256911434233188629150390625</LongitudeDegrees>
            </Position>
            <AltitudeMeters>1456</AltitudeMeters>
            <DistanceMeters>870.97008522301</DistanceMeters>
          </Trackpoint>
          <Trackpoint>
            <Time>2019-08-04T14:18:36.000Z</Time>
            <Position>
              <LatitudeDegrees>-33.52247918955981731414794921875</LatitudeDegrees>
              <LongitudeDegrees>-70.22569097578525543212890625</LongitudeDegrees>
            </Position>
            <AltitudeMeters>1457</AltitudeMeters>
            <DistanceMeters>873.36845106141</DistanceMeters>
          </Trackpoint>
          <Trackpoint>
            <Time>2019-08-04T14:18:38.000Z</Time>
            <Position>
              <LatitudeDegrees>-33.5224864818155765533447265625</LatitudeDegrees>
              <LongitudeDegrees>-70.22569105960428714752197265625</LongitudeDegrees>
            </Position>
            <AltitudeMeters>1457.199951171875</AltitudeMeters>
            <DistanceMeters>874.17477947091</DistanceMeters>
          </Trackpoint>
          <Trackpoint>
            <Time>2019-08-04T14:18:43.000Z</Time>
            <Position>
              <LatitudeDegrees>-33.52252311073243618011474609375</LatitudeDegrees>
              <LongitudeDegrees>-70.2256944961845874786376953125</LongitudeDegrees>
            </Position>
            <AltitudeMeters>1458</AltitudeMeters>
            <DistanceMeters>878.26424173069</DistanceMeters>
          </Trackpoint>
          <Trackpoint>
            <Time>2019-08-04T14:18:46.000Z</Time>
            <Position>
              <LatitudeDegrees>-33.52254238910973072052001953125</LatitudeDegrees>
              <LongitudeDegrees>-70.22568418644368648529052734375</LongitudeDegrees>
            </Position>
            <AltitudeMeters>1458.199951171875</AltitudeMeters>
            <DistanceMeters>880.61122844365</DistanceMeters>
          </Trackpoint>
          <Trackpoint>
            <Time>2019-08-04T14:18:51.000Z</Time>
            <Position>
              <LatitudeDegrees>-33.5225723125040531158447265625</LatitudeDegrees>
              <LongitudeDegrees>-70.22566826082766056060791015625</LongitudeDegrees>
            </Position>
            <AltitudeMeters>1458.5999755859375</AltitudeMeters>
            <DistanceMeters>884.25460769548</DistanceMeters>
          </Trackpoint>
          <Trackpoint>
            <Time>2019-08-04T14:18:54.000Z</Time>
            <Position>
              <LatitudeDegrees>-33.5225884057581424713134765625</LatitudeDegrees>
              <LongitudeDegrees>-70.225656442344188690185546875</LongitudeDegrees>
            </Position>
            <AltitudeMeters>1458.800048828125</AltitudeMeters>
            <DistanceMeters>886.35381642846</DistanceMeters>
          </Trackpoint>
          <Trackpoint>
            <Time>2019-08-04T14:18:56.000Z</Time>
            <Position>
              <LatitudeDegrees>-33.5226031579077243804931640625</LatitudeDegrees>
              <LongitudeDegrees>-70.22565132938325405120849609375</LongitudeDegrees>
            </Position>
            <AltitudeMeters>1459.199951171875</AltitudeMeters>
            <DistanceMeters>888.06429728712</DistanceMeters>
          </Trackpoint>
          <Trackpoint>
            <Time>2019-08-04T14:19:03.000Z</Time>
            <Position>
              <LatitudeDegrees>-33.522644899785518646240234375</LatitudeDegrees>
              <LongitudeDegrees>-70.225660465657711029052734375</LongitudeDegrees>
            </Position>
            <AltitudeMeters>1460.199951171875</AltitudeMeters>
            <DistanceMeters>892.78703895024</DistanceMeters>
          </Trackpoint>
          <Trackpoint>
            <Time>2019-08-04T14:19:04.000Z</Time>
            <Position>
              <LatitudeDegrees>-33.52265185676515102386474609375</LatitudeDegrees>
              <LongitudeDegrees>-70.2256596274673938751220703125</LongitudeDegrees>
            </Position>
            <AltitudeMeters>1460.199951171875</AltitudeMeters>
            <DistanceMeters>893.55903962725</DistanceMeters>
          </Trackpoint>
          <Trackpoint>
            <Time>2019-08-04T14:19:06.000Z</Time>
            <Position>
              <LatitudeDegrees>-33.52266560308635234832763671875</LatitudeDegrees>
              <LongitudeDegrees>-70.22565132938325405120849609375</LongitudeDegrees>
            </Position>
            <AltitudeMeters>1460.4000244140625</AltitudeMeters>
            <DistanceMeters>895.26952048591</DistanceMeters>
          </Trackpoint>
          <Trackpoint>
            <Time>2019-08-04T14:19:13.000Z</Time>
            <Position>
              <LatitudeDegrees>-33.52270969189703464508056640625</LatitudeDegrees>
              <LongitudeDegrees>-70.2256649918854236602783203125</LongitudeDegrees>
            </Position>
            <AltitudeMeters>1461.4000244140625</AltitudeMeters>
            <DistanceMeters>900.33810682562</DistanceMeters>
          </Trackpoint>
          <Trackpoint>
            <Time>2019-08-04T14:19:20.000Z</Time>
            <Position>
              <LatitudeDegrees>-33.52273969911038875579833984375</LatitudeDegrees>
              <LongitudeDegrees>-70.22570514120161533355712890625</LongitudeDegrees>
            </Position>
            <AltitudeMeters>1462.4000244140625</AltitudeMeters>
            <DistanceMeters>905.34304759005</DistanceMeters>
          </Trackpoint>
          <Trackpoint>
            <Time>2019-08-04T14:19:26.000Z</Time>
            <Position>
              <LatitudeDegrees>-33.5227396152913570404052734375</LatitudeDegrees>
              <LongitudeDegrees>-70.22575400769710540771484375</LongitudeDegrees>
            </Position>
            <AltitudeMeters>1463.5999755859375</AltitudeMeters>
            <DistanceMeters>909.87752485462</DistanceMeters>
          </Trackpoint>
          <Trackpoint>
            <Time>2019-08-04T14:19:28.000Z</Time>
            <Position>
              <LatitudeDegrees>-33.52273710072040557861328125</LatitudeDegrees>
              <LongitudeDegrees>-70.225771106779575347900390625</LongitudeDegrees>
            </Position>
            <AltitudeMeters>1464.199951171875</AltitudeMeters>
            <DistanceMeters>911.49018167362</DistanceMeters>
          </Trackpoint>
          <Trackpoint>
            <Time>2019-08-04T14:19:29.000Z</Time>
            <Position>
              <LatitudeDegrees>-33.5227342508733272552490234375</LatitudeDegrees>
              <LongitudeDegrees>-70.22577990777790546417236328125</LongitudeDegrees>
            </Position>
            <AltitudeMeters>1464.4000244140625</AltitudeMeters>
            <DistanceMeters>912.36111589691</DistanceMeters>
          </Trackpoint>
          <Trackpoint>
            <Time>2019-08-04T14:19:30.000Z</Time>
            <Position>
              <LatitudeDegrees>-33.5227329097688198089599609375</LatitudeDegrees>
              <LongitudeDegrees>-70.2257873676717281341552734375</LongitudeDegrees>
            </Position>
            <AltitudeMeters>1464.4000244140625</AltitudeMeters>
            <DistanceMeters>913.06585287225</DistanceMeters>
          </Trackpoint>
          <Trackpoint>
            <Time>2019-08-04T14:19:31.000Z</Time>
            <Position>
              <LatitudeDegrees>-33.52272762916982173919677734375</LatitudeDegrees>
              <LongitudeDegrees>-70.2257962524890899658203125</LongitudeDegrees>
            </Position>
            <AltitudeMeters>1464.5999755859375</AltitudeMeters>
            <DistanceMeters>914.07600070211</DistanceMeters>
          </Trackpoint>
          <Trackpoint>
            <Time>2019-08-04T14:19:36.000Z</Time>
            <Position>
              <LatitudeDegrees>-33.52273349650204181671142578125</LatitudeDegrees>
              <LongitudeDegrees>-70.225840508937835693359375</LongitudeDegrees>
            </Position>
            <AltitudeMeters>1465.5999755859375</AltitudeMeters>
            <DistanceMeters>918.23335157902</DistanceMeters>
          </Trackpoint>
          <Trackpoint>
            <Time>2019-08-04T14:19:41.000Z</Time>
            <Position>
              <LatitudeDegrees>-33.52275830693542957305908203125</LatitudeDegrees>
              <LongitudeDegrees>-70.2258775569498538970947265625</LongitudeDegrees>
            </Position>
            <AltitudeMeters>1466.5999755859375</AltitudeMeters>
            <DistanceMeters>922.64365595176</DistanceMeters>
          </Trackpoint>
          <Trackpoint>
            <Time>2019-08-04T14:19:42.000Z</Time>
            <Position>
              <LatitudeDegrees>-33.5227624140679836273193359375</LatitudeDegrees>
              <LongitudeDegrees>-70.22588233463466167449951171875</LongitudeDegrees>
            </Position>
            <AltitudeMeters>1466.800048828125</AltitudeMeters>
            <DistanceMeters>923.27399186501</DistanceMeters>
          </Trackpoint>
          <Trackpoint>
            <Time>2019-08-04T14:19:46.000Z</Time>
            <Position>
              <LatitudeDegrees>-33.52278244681656360626220703125</LatitudeDegrees>
              <LongitudeDegrees>-70.22590144537389278411865234375</LongitudeDegrees>
            </Position>
            <AltitudeMeters>1467.800048828125</AltitudeMeters>
            <DistanceMeters>926.12162397726</DistanceMeters>
          </Trackpoint>
          <Trackpoint>
            <Time>2019-08-04T14:19:50.000Z</Time>
            <Position>
              <LatitudeDegrees>-33.52280415594577789306640625</LatitudeDegrees>
              <LongitudeDegrees>-70.225911922752857208251953125</LongitudeDegrees>
            </Position>
            <AltitudeMeters>1468.800048828125</AltitudeMeters>
            <DistanceMeters>928.72750530338</DistanceMeters>
          </Trackpoint>
          <Trackpoint>
            <Time>2019-08-04T14:19:51.000Z</Time>
            <Position>
              <LatitudeDegrees>-33.522811196744441986083984375</LatitudeDegrees>
              <LongitudeDegrees>-70.2259134314954280853271484375</LongitudeDegrees>
            </Position>
            <AltitudeMeters>1469</AltitudeMeters>
            <DistanceMeters>929.52255583705</DistanceMeters>
          </Trackpoint>
          <Trackpoint>
            <Time>2019-08-04T14:19:53.000Z</Time>
            <Position>
              <LatitudeDegrees>-33.52282871492207050323486328125</LatitudeDegrees>
              <LongitudeDegrees>-70.22590965963900089263916015625</LongitudeDegrees>
            </Position>
            <AltitudeMeters>1469.4000244140625</AltitudeMeters>
            <DistanceMeters>931.50677188616</DistanceMeters>
          </Trackpoint>
          <Trackpoint>
            <Time>2019-08-04T14:19:55.000Z</Time>
            <Position>
              <LatitudeDegrees>-33.52283022366464138031005859375</LatitudeDegrees>
              <LongitudeDegrees>-70.2259037084877490997314453125</LongitudeDegrees>
            </Position>
            <AltitudeMeters>1469.800048828125</AltitudeMeters>
            <DistanceMeters>932.09255589488</DistanceMeters>
          </Trackpoint>
          <Trackpoint>
            <Time>2019-08-04T14:19:56.000Z</Time>
            <Position>
              <LatitudeDegrees>-33.522834666073322296142578125</LatitudeDegrees>
              <LongitudeDegrees>-70.225907228887081146240234375</LongitudeDegrees>
            </Position>
            <AltitudeMeters>1470</AltitudeMeters>
            <DistanceMeters>932.68599753591</DistanceMeters>
          </Trackpoint>
          <Trackpoint>
            <Time>2019-08-04T14:19:57.000Z</Time>
            <Position>
              <LatitudeDegrees>-33.52283324114978313446044921875</LatitudeDegrees>
              <LongitudeDegrees>-70.225915610790252685546875</LongitudeDegrees>
            </Position>
            <AltitudeMeters>1470.199951171875</AltitudeMeters>
            <DistanceMeters>933.48104806958</DistanceMeters>
          </Trackpoint>
          <Trackpoint>
            <Time>2019-08-04T14:20:00.000Z</Time>
            <Position>
              <LatitudeDegrees>-33.52283575572073459625244140625</LatitudeDegrees>
              <LongitudeDegrees>-70.22593782283365726470947265625</LongitudeDegrees>
            </Position>
            <AltitudeMeters>1470.5999755859375</AltitudeMeters>
            <DistanceMeters>935.56297907062</DistanceMeters>
          </Trackpoint>
          <Trackpoint>
            <Time>2019-08-04T14:20:02.000Z</Time>
            <Position>
              <LatitudeDegrees>-33.52284866385161876678466796875</LatitudeDegrees>
              <LongitudeDegrees>-70.22594586946070194244384765625</LongitudeDegrees>
            </Position>
            <AltitudeMeters>1471.199951171875</AltitudeMeters>
            <DistanceMeters>937.18122570471</DistanceMeters>
          </Trackpoint>
          <Trackpoint>
            <Time>2019-08-04T14:20:03.000Z</Time>
            <Position>
              <LatitudeDegrees>-33.52285218425095081329345703125</LatitudeDegrees>
              <LongitudeDegrees>-70.22594846785068511962890625</LongitudeDegrees>
            </Position>
            <AltitudeMeters>1471.199951171875</AltitudeMeters>
            <DistanceMeters>937.62694050339</DistanceMeters>
          </Trackpoint>
          <Trackpoint>
            <Time>2019-08-04T14:20:08.000Z</Time>
            <Position>
              <LatitudeDegrees>-33.52287732996046543121337890625</LatitudeDegrees>
              <LongitudeDegrees>-70.2259464561939239501953125</LongitudeDegrees>
            </Position>
            <AltitudeMeters>1472</AltitudeMeters>
            <DistanceMeters>940.43143628386</DistanceMeters>
          </Trackpoint>
          <Trackpoint>
            <Time>2019-08-04T14:20:09.000Z</Time>
            <Position>
              <LatitudeDegrees>-33.5228814370930194854736328125</LatitudeDegrees>
              <LongitudeDegrees>-70.22594620473682880401611328125</LongitudeDegrees>
            </Position>
            <AltitudeMeters>1472.199951171875</AltitudeMeters>
            <DistanceMeters>940.8871683962</DistanceMeters>
          </Trackpoint>
          <Trackpoint>
            <Time>2019-08-04T14:20:14.000Z</Time>
            <Position>
              <LatitudeDegrees>-33.52291152812540531158447265625</LatitudeDegrees>
              <LongitudeDegrees>-70.22594771347939968109130859375</LongitudeDegrees>
            </Position>
            <AltitudeMeters>1472.800048828125</AltitudeMeters>
            <DistanceMeters>944.24014396615</DistanceMeters>
          </Trackpoint>
          <Trackpoint>
            <Time>2019-08-04T14:20:16.000Z</Time>
            <Position>
              <LatitudeDegrees>-33.52292351424694061279296875</LatitudeDegrees>
              <LongitudeDegrees>-70.2259518206119537353515625</LongitudeDegrees>
            </Position>
            <AltitudeMeters>1473.4000244140625</AltitudeMeters>
            <DistanceMeters>945.63026495334</DistanceMeters>
          </Trackpoint>
          <Trackpoint>
            <Time>2019-08-04T14:20:20.000Z</Time>
            <Position>
              <LatitudeDegrees>-33.5229508392512798309326171875</LatitudeDegrees>
              <LongitudeDegrees>-70.22595651447772979736328125</LongitudeDegrees>
            </Position>
            <AltitudeMeters>1473.800048828125</AltitudeMeters>
            <DistanceMeters>948.70214221064</DistanceMeters>
          </Trackpoint>
          <Trackpoint>
            <Time>2019-08-04T14:20:24.000Z</Time>
            <Position>
              <LatitudeDegrees>-33.52297372184693813323974609375</LatitudeDegrees>
              <LongitudeDegrees>-70.225972272455692291259765625</LongitudeDegrees>
            </Position>
            <AltitudeMeters>1474.4000244140625</AltitudeMeters>
            <DistanceMeters>951.64029691732</DistanceMeters>
          </Trackpoint>
          <Trackpoint>
            <Time>2019-08-04T14:20:29.000Z</Time>
            <Position>
              <LatitudeDegrees>-33.52299920283257961273193359375</LatitudeDegrees>
              <LongitudeDegrees>-70.2259719371795654296875</LongitudeDegrees>
            </Position>
            <AltitudeMeters>1475.199951171875</AltitudeMeters>
            <DistanceMeters>954.47680852695</DistanceMeters>
          </Trackpoint>
          <Trackpoint>
            <Time>2019-08-04T14:20:30.000Z</Time>
            <Position>
              <LatitudeDegrees>-33.52300666272640228271484375</LatitudeDegrees>
              <LongitudeDegrees>-70.22597126662731170654296875</LongitudeDegrees>
            </Position>
            <AltitudeMeters>1475.4000244140625</AltitudeMeters>
            <DistanceMeters>955.31606174418</DistanceMeters>
          </Trackpoint>
          <Trackpoint>
            <Time>2019-08-04T14:20:32.000Z</Time>
            <Position>
              <LatitudeDegrees>-33.52302275598049163818359375</LatitudeDegrees>
              <LongitudeDegrees>-70.22596917115151882171630859375</LongitudeDegrees>
            </Position>
            <AltitudeMeters>1475.800048828125</AltitudeMeters>
            <DistanceMeters>957.11656096478</DistanceMeters>
          </Trackpoint>
          <Trackpoint>
            <Time>2019-08-04T14:20:39.000Z</Time>
            <Position>
              <LatitudeDegrees>-33.52305619977414608001708984375</LatitudeDegrees>
              <LongitudeDegrees>-70.2259969152510166168212890625</LongitudeDegrees>
            </Position>
            <AltitudeMeters>1476.5999755859375</AltitudeMeters>
            <DistanceMeters>961.64206793913</DistanceMeters>
          </Trackpoint>
          <Trackpoint>
            <Time>2019-08-04T14:20:42.000Z</Time>
            <Position>
              <LatitudeDegrees>-33.52307430468499660491943359375</LatitudeDegrees>
              <LongitudeDegrees>-70.2260054647922515869140625</LongitudeDegrees>
            </Position>
            <AltitudeMeters>1477</AltitudeMeters>
            <DistanceMeters>963.80483921644</DistanceMeters>
          </Trackpoint>
          <Trackpoint>
            <Time>2019-08-04T14:20:46.000Z</Time>
            <Position>
              <LatitudeDegrees>-33.523087799549102783203125</LatitudeDegrees>
              <LongitudeDegrees>-70.2259949035942554473876953125</LongitudeDegrees>
            </Position>
            <AltitudeMeters>1477.4000244140625</AltitudeMeters>
            <DistanceMeters>965.59779967726</DistanceMeters>
          </Trackpoint>
          <Trackpoint>
            <Time>2019-08-04T14:20:48.000Z</Time>
            <Position>
              <LatitudeDegrees>-33.5231013782322406768798828125</LatitudeDegrees>
              <LongitudeDegrees>-70.2259905450046062469482421875</LongitudeDegrees>
            </Position>
            <AltitudeMeters>1477.5999755859375</AltitudeMeters>
            <DistanceMeters>967.16213682644</DistanceMeters>
          </Trackpoint>
          <Trackpoint>
            <Time>2019-08-04T14:20:50.000Z</Time>
            <Position>
              <LatitudeDegrees>-33.5231161303818225860595703125</LatitudeDegrees>
              <LongitudeDegrees>-70.22598543204367160797119140625</LongitudeDegrees>
            </Position>
            <AltitudeMeters>1478</AltitudeMeters>
            <DistanceMeters>968.86997601425</DistanceMeters>
          </Trackpoint>
          <Trackpoint>
            <Time>2019-08-04T14:20:52.000Z</Time>
            <Position>
              <LatitudeDegrees>-33.52313448674976825714111328125</LatitudeDegrees>
              <LongitudeDegrees>-70.22597520612180233001708984375</LongitudeDegrees>
            </Position>
            <AltitudeMeters>1478.4000244140625</AltitudeMeters>
            <DistanceMeters>971.12072541946</DistanceMeters>
          </Trackpoint>
          <Trackpoint>
            <Time>2019-08-04T14:20:54.000Z</Time>
            <Position>
              <LatitudeDegrees>-33.52314655669033527374267578125</LatitudeDegrees>
              <LongitudeDegrees>-70.22597218863666057586669921875</LongitudeDegrees>
            </Position>
            <AltitudeMeters>1478.5999755859375</AltitudeMeters>
            <DistanceMeters>972.49122018426</DistanceMeters>
          </Trackpoint>
          <Trackpoint>
            <Time>2019-08-04T14:20:57.000Z</Time>
            <Position>
              <LatitudeDegrees>-33.5231570340692996978759765625</LatitudeDegrees>
              <LongitudeDegrees>-70.2259754575788974761962890625</LongitudeDegrees>
            </Position>
            <AltitudeMeters>1479</AltitudeMeters>
            <DistanceMeters>973.69697401795</DistanceMeters>
          </Trackpoint>
          <Trackpoint>
            <Time>2019-08-04T14:21:02.000Z</Time>
            <Position>
              <LatitudeDegrees>-33.52316214703023433685302734375</LatitudeDegrees>
              <LongitudeDegrees>-70.225980319082736968994140625</LongitudeDegrees>
            </Position>
            <AltitudeMeters>1479.199951171875</AltitudeMeters>
            <DistanceMeters>974.42067591359</DistanceMeters>
          </Trackpoint>
          <Trackpoint>
            <Time>2019-08-04T14:21:06.000Z</Time>
            <Position>
              <LatitudeDegrees>-33.52317438460886478424072265625</LatitudeDegrees>
              <LongitudeDegrees>-70.2259808219969272613525390625</LongitudeDegrees>
            </Position>
            <AltitudeMeters>1479.800048828125</AltitudeMeters>
            <DistanceMeters>975.78125140617</DistanceMeters>
          </Trackpoint>
          <Trackpoint>
            <Time>2019-08-04T14:21:09.000Z</Time>
            <Position>
              <LatitudeDegrees>-33.52318326942622661590576171875</LatitudeDegrees>
              <LongitudeDegrees>-70.22598425857722759246826171875</LongitudeDegrees>
            </Position>
            <AltitudeMeters>1479.800048828125</AltitudeMeters>
            <DistanceMeters>976.81350574517</DistanceMeters>
          </Trackpoint>
          <Trackpoint>
            <Time>2019-08-04T14:21:15.000Z</Time>
            <Position>
              <LatitudeDegrees>-33.52321176789700984954833984375</LatitudeDegrees>
              <LongitudeDegrees>-70.2259928919374942779541015625</LongitudeDegrees>
            </Position>
            <AltitudeMeters>1480</AltitudeMeters>
            <DistanceMeters>980.08330856945</DistanceMeters>
          </Trackpoint>
          <Trackpoint>
            <Time>2019-08-04T14:21:20.000Z</Time>
            <Position>
              <LatitudeDegrees>-33.5232473909854888916015625</LatitudeDegrees>
              <LongitudeDegrees>-70.22600202821195125579833984375</LongitudeDegrees>
            </Position>
            <AltitudeMeters>1480.199951171875</AltitudeMeters>
            <DistanceMeters>984.13840033221</DistanceMeters>
          </Trackpoint>
          <Trackpoint>
            <Time>2019-08-04T14:21:26.000Z</Time>
            <Position>
              <LatitudeDegrees>-33.5232750512659549713134765625</LatitudeDegrees>
              <LongitudeDegrees>-70.22603421472012996673583984375</LongitudeDegrees>
            </Position>
            <AltitudeMeters>1480.5999755859375</AltitudeMeters>
            <DistanceMeters>988.42830660074</DistanceMeters>
          </Trackpoint>
          <Trackpoint>
            <Time>2019-08-04T14:21:29.000Z</Time>
            <Position>
              <LatitudeDegrees>-33.5232958383858203887939453125</LatitudeDegrees>
              <LongitudeDegrees>-70.226040668785572052001953125</LongitudeDegrees>
            </Position>
            <AltitudeMeters>1481</AltitudeMeters>
            <DistanceMeters>990.81724115669</DistanceMeters>
          </Trackpoint>
          <Trackpoint>
            <Time>2019-08-04T14:21:32.000Z</Time>
            <Position>
              <LatitudeDegrees>-33.5233117640018463134765625</LatitudeDegrees>
              <LongitudeDegrees>-70.2260519005358219146728515625</LongitudeDegrees>
            </Position>
            <AltitudeMeters>1481.4000244140625</AltitudeMeters>
            <DistanceMeters>992.87078582368</DistanceMeters>
          </Trackpoint>
          <Trackpoint>
            <Time>2019-08-04T14:21:35.000Z</Time>
            <Position>
              <LatitudeDegrees>-33.52332576178014278411865234375</LatitudeDegrees>
              <LongitudeDegrees>-70.2260612882673740386962890625</LongitudeDegrees>
            </Position>
            <AltitudeMeters>1481.800048828125</AltitudeMeters>
            <DistanceMeters>994.65617569279</DistanceMeters>
          </Trackpoint>
          <Trackpoint>
            <Time>2019-08-04T14:21:36.000Z</Time>
            <Position>
              <LatitudeDegrees>-33.5233273543417453765869140625</LatitudeDegrees>
              <LongitudeDegrees>-70.2260646410286426544189453125</LongitudeDegrees>
            </Position>
            <AltitudeMeters>1482</AltitudeMeters>
            <DistanceMeters>995.01173310055</DistanceMeters>
          </Trackpoint>
          <Trackpoint>
            <Time>2019-08-04T14:21:38.000Z</Time>
            <Position>
              <LatitudeDegrees>-33.52333866991102695465087890625</LatitudeDegrees>
              <LongitudeDegrees>-70.2260663174092769622802734375</LongitudeDegrees>
            </Position>
            <AltitudeMeters>1482.5999755859375</AltitudeMeters>
            <DistanceMeters>996.27954760079</DistanceMeters>
          </Trackpoint>
          <Trackpoint>
            <Time>2019-08-04T14:21:39.000Z</Time>
            <Position>
              <LatitudeDegrees>-33.52334462106227874755859375</LatitudeDegrees>
              <LongitudeDegrees>-70.22606539539992809295654296875</LongitudeDegrees>
            </Position>
            <AltitudeMeters>1482.800048828125</AltitudeMeters>
            <DistanceMeters>996.94473460138</DistanceMeters>
          </Trackpoint>
          <Trackpoint>
            <Time>2019-08-04T14:21:40.000Z</Time>
            <Position>
              <LatitudeDegrees>-33.52334939874708652496337890625</LatitudeDegrees>
              <LongitudeDegrees>-70.2260659821331501007080078125</LongitudeDegrees>
            </Position>
            <AltitudeMeters>1483</AltitudeMeters>
            <DistanceMeters>997.47382095517</DistanceMeters>
          </Trackpoint>
          <Trackpoint>
            <Time>2019-08-04T14:21:43.000Z</Time>
            <Position>
              <LatitudeDegrees>-33.5233699344098567962646484375</LatitudeDegrees>
              <LongitudeDegrees>-70.22607796825468540191650390625</LongitudeDegrees>
            </Position>
            <AltitudeMeters>1483.5999755859375</AltitudeMeters>
            <DistanceMeters>1000.0165625334</DistanceMeters>
          </Trackpoint>
          <Trackpoint>
            <Time>2019-08-04T14:21:46.000Z</Time>
            <Position>
              <LatitudeDegrees>-33.523389883339405059814453125</LatitudeDegrees>
              <LongitudeDegrees>-70.22608534432947635650634765625</LongitudeDegrees>
            </Position>
            <AltitudeMeters>1484</AltitudeMeters>
            <DistanceMeters>1002.3403494672</DistanceMeters>
          </Trackpoint>
          <Trackpoint>
            <Time>2019-08-04T14:21:49.000Z</Time>
            <Position>
              <LatitudeDegrees>-33.52340765297412872314453125</LatitudeDegrees>
              <LongitudeDegrees>-70.22608735598623752593994140625</LongitudeDegrees>
            </Position>
            <AltitudeMeters>1484.5999755859375</AltitudeMeters>
            <DistanceMeters>1004.3268396902</DistanceMeters>
          </Trackpoint>
          <Trackpoint>
            <Time>2019-08-04T14:21:51.000Z</Time>
            <Position>
              <LatitudeDegrees>-33.5234168730676174163818359375</LatitudeDegrees>
              <LongitudeDegrees>-70.22609272040426731109619140625</LongitudeDegrees>
            </Position>
            <AltitudeMeters>1484.800048828125</AltitudeMeters>
            <DistanceMeters>1005.4671602626</DistanceMeters>
          </Trackpoint>
          <Trackpoint>
            <Time>2019-08-04T14:21:52.000Z</Time>
            <Position>
              <LatitudeDegrees>-33.523422740399837493896484375</LatitudeDegrees>
              <LongitudeDegrees>-70.2260921336710453033447265625</LongitudeDegrees>
            </Position>
            <AltitudeMeters>1485</AltitudeMeters>
            <DistanceMeters>1006.1186305941</DistanceMeters>
          </Trackpoint>
          <Trackpoint>
            <Time>2019-08-04T14:21:53.000Z</Time>
            <Position>
              <LatitudeDegrees>-33.52342911064624786376953125</LatitudeDegrees>
              <LongitudeDegrees>-70.2260921336710453033447265625</LongitudeDegrees>
            </Position>
            <AltitudeMeters>1485.199951171875</AltitudeMeters>
            <DistanceMeters>1006.8297454097</DistanceMeters>
          </Trackpoint>
          <Trackpoint>
            <Time>2019-08-04T14:21:55.000Z</Time>
            <Position>
              <LatitudeDegrees>-33.52344310842454433441162109375</LatitudeDegrees>
              <LongitudeDegrees>-70.22609070874750614166259765625</LongitudeDegrees>
            </Position>
            <AltitudeMeters>1485.5999755859375</AltitudeMeters>
            <DistanceMeters>1008.3940825589</DistanceMeters>
          </Trackpoint>
          <Trackpoint>
            <Time>2019-08-04T14:21:58.000Z</Time>
            <Position>
              <LatitudeDegrees>-33.5234567709267139434814453125</LatitudeDegrees>
              <LongitudeDegrees>-70.22608433850109577178955078125</LongitudeDegrees>
            </Position>
            <AltitudeMeters>1486</AltitudeMeters>
            <DistanceMeters>1010.0262199768</DistanceMeters>
          </Trackpoint>
          <Trackpoint>
            <Time>2019-08-04T14:21:59.000Z</Time>
            <Position>
              <LatitudeDegrees>-33.5234584473073482513427734375</LatitudeDegrees>
              <LongitudeDegrees>-70.22608299739658832550048828125</LongitudeDegrees>
            </Position>
            <AltitudeMeters>1486.199951171875</AltitudeMeters>
            <DistanceMeters>1010.2162734055</DistanceMeters>
          </Trackpoint>
          <Trackpoint>
            <Time>2019-08-04T14:22:03.000Z</Time>
            <Position>
              <LatitudeDegrees>-33.52346590720117092132568359375</LatitudeDegrees>
              <LongitudeDegrees>-70.2260770462453365325927734375</LongitudeDegrees>
            </Position>
            <AltitudeMeters>1486.800048828125</AltitudeMeters>
            <DistanceMeters>1011.212921994</DistanceMeters>
          </Trackpoint>
          <Trackpoint>
            <Time>2019-08-04T14:22:05.000Z</Time>
            <Position>
              <LatitudeDegrees>-33.523476384580135345458984375</LatitudeDegrees>
              <LongitudeDegrees>-70.2260733582079410552978515625</LongitudeDegrees>
            </Position>
            <AltitudeMeters>1487</AltitudeMeters>
            <DistanceMeters>1012.4298577099</DistanceMeters>
          </Trackpoint>
          <Trackpoint>
            <Time>2019-08-04T14:22:06.000Z</Time>
            <Position>
              <LatitudeDegrees>-33.5234834253787994384765625</LatitudeDegrees>
              <LongitudeDegrees>-70.22606992162764072418212890625</LongitudeDegrees>
            </Position>
            <AltitudeMeters>1487.199951171875</AltitudeMeters>
            <DistanceMeters>1013.2691109272</DistanceMeters>
          </Trackpoint>
          <Trackpoint>
            <Time>2019-08-04T14:22:18.000Z</Time>
            <Position>
              <LatitudeDegrees>-33.5235593654215335845947265625</LatitudeDegrees>
              <LongitudeDegrees>-70.22604544647037982940673828125</LongitudeDegrees>
            </Position>
            <AltitudeMeters>1488.199951171875</AltitudeMeters>
            <DistanceMeters>1022.0208598037</DistanceMeters>
          </Trackpoint>
          <Trackpoint>
            <Time>2019-08-04T14:22:19.000Z</Time>
            <Position>
              <LatitudeDegrees>-33.52356699295341968536376953125</LatitudeDegrees>
              <LongitudeDegrees>-70.226044692099094390869140625</LongitudeDegrees>
            </Position>
            <AltitudeMeters>1488.199951171875</AltitudeMeters>
            <DistanceMeters>1022.876100233</DistanceMeters>
          </Trackpoint>
          <Trackpoint>
            <Time>2019-08-04T14:22:27.000Z</Time>
            <Position>
              <LatitudeDegrees>-33.5236213915050029754638671875</LatitudeDegrees>
              <LongitudeDegrees>-70.2260361425578594207763671875</LongitudeDegrees>
            </Position>
            <AltitudeMeters>1489.199951171875</AltitudeMeters>
            <DistanceMeters>1028.9822598802</DistanceMeters>
          </Trackpoint>
          <Trackpoint>
            <Time>2019-08-04T14:22:31.000Z</Time>
            <Position>
              <LatitudeDegrees>-33.5236425139009952545166015625</LatitudeDegrees>
              <LongitudeDegrees>-70.22601476870477199554443359375</LongitudeDegrees>
            </Position>
            <AltitudeMeters>1489.5999755859375</AltitudeMeters>
            <DistanceMeters>1032.0585433706</DistanceMeters>
          </Trackpoint>
          <Trackpoint>
            <Time>2019-08-04T14:22:38.000Z</Time>
            <Position>
              <LatitudeDegrees>-33.52369070984423160552978515625</LatitudeDegrees>
              <LongitudeDegrees>-70.22596992552280426025390625</LongitudeDegrees>
            </Position>
            <AltitudeMeters>1490.4000244140625</AltitudeMeters>
            <DistanceMeters>1038.8468038321</DistanceMeters>
          </Trackpoint>
          <Trackpoint>
            <Time>2019-08-04T14:22:43.000Z</Time>
            <Position>
              <LatitudeDegrees>-33.523711077868938446044921875</LatitudeDegrees>
              <LongitudeDegrees>-70.225946120917797088623046875</LongitudeDegrees>
            </Position>
            <AltitudeMeters>1490.800048828125</AltitudeMeters>
            <DistanceMeters>1042.0099232892</DistanceMeters>
          </Trackpoint>
          <Trackpoint>
            <Time>2019-08-04T14:22:47.000Z</Time>
            <Position>
              <LatitudeDegrees>-33.52372951805591583251953125</LatitudeDegrees>
              <LongitudeDegrees>-70.22592692635953426361083984375</LongitudeDegrees>
            </Position>
            <AltitudeMeters>1491.199951171875</AltitudeMeters>
            <DistanceMeters>1044.7277537716</DistanceMeters>
          </Trackpoint>
          <Trackpoint>
            <Time>2019-08-04T14:22:48.000Z</Time>
            <Position>
              <LatitudeDegrees>-33.5237337090075016021728515625</LatitudeDegrees>
              <LongitudeDegrees>-70.2259248308837413787841796875</LongitudeDegrees>
            </Position>
            <AltitudeMeters>1491.4000244140625</AltitudeMeters>
            <DistanceMeters>1045.2305878799</DistanceMeters>
          </Trackpoint>
          <Trackpoint>
            <Time>2019-08-04T14:22:54.000Z</Time>
            <Position>
              <LatitudeDegrees>-33.5237618722021579742431640625</LatitudeDegrees>
              <LongitudeDegrees>-70.22591292858123779296875</LongitudeDegrees>
            </Position>
            <AltitudeMeters>1492.4000244140625</AltitudeMeters>
            <DistanceMeters>1048.5524478129</DistanceMeters>
          </Trackpoint>
          <Trackpoint>
            <Time>2019-08-04T14:22:55.000Z</Time>
            <Position>
              <LatitudeDegrees>-33.5237705893814563751220703125</LatitudeDegrees>
              <LongitudeDegrees>-70.2259151078760623931884765625</LongitudeDegrees>
            </Position>
            <AltitudeMeters>1492.5999755859375</AltitudeMeters>
            <DistanceMeters>1049.5445558375</DistanceMeters>
          </Trackpoint>
          <Trackpoint>
            <Time>2019-08-04T14:23:00.000Z</Time>
            <Position>
              <LatitudeDegrees>-33.5237796418368816375732421875</LatitudeDegrees>
              <LongitudeDegrees>-70.225917287170886993408203125</LongitudeDegrees>
            </Position>
            <AltitudeMeters>1493.5999755859375</AltitudeMeters>
            <DistanceMeters>1050.5724269111</DistanceMeters>
          </Trackpoint>
          <Trackpoint>
            <Time>2019-08-04T14:23:01.000Z</Time>
            <Position>
              <LatitudeDegrees>-33.52378240786492824554443359375</LatitudeDegrees>
              <LongitudeDegrees>-70.22591770626604557037353515625</LongitudeDegrees>
            </Position>
            <AltitudeMeters>1493.800048828125</AltitudeMeters>
            <DistanceMeters>1050.872927767</DistanceMeters>
          </Trackpoint>
          <Trackpoint>
            <Time>2019-08-04T14:23:06.000Z</Time>
            <Position>
              <LatitudeDegrees>-33.5237866826355457305908203125</LatitudeDegrees>
              <LongitudeDegrees>-70.22590932436287403106689453125</LongitudeDegrees>
            </Position>
            <AltitudeMeters>1494.199951171875</AltitudeMeters>
            <DistanceMeters>1051.7843919917</DistanceMeters>
          </Trackpoint>
          <Trackpoint>
            <Time>2019-08-04T14:23:08.000Z</Time>
            <Position>
              <LatitudeDegrees>-33.52378978393971920013427734375</LatitudeDegrees>
              <LongitudeDegrees>-70.22590798325836658477783203125</LongitudeDegrees>
            </Position>
            <AltitudeMeters>1494.4000244140625</AltitudeMeters>
            <DistanceMeters>1052.1399493995</DistanceMeters>
          </Trackpoint>
          <Trackpoint>
            <Time>2019-08-04T14:23:10.000Z</Time>
            <Position>
              <LatitudeDegrees>-33.52379363961517810821533203125</LatitudeDegrees>
              <LongitudeDegrees>-70.2259087376296520233154296875</LongitudeDegrees>
            </Position>
            <AltitudeMeters>1494.5999755859375</AltitudeMeters>
            <DistanceMeters>1052.5754165111</DistanceMeters>
          </Trackpoint>
          <Trackpoint>
            <Time>2019-08-04T14:23:15.000Z</Time>
            <Position>
              <LatitudeDegrees>-33.52379347197711467742919921875</LatitudeDegrees>
              <LongitudeDegrees>-70.22590949200093746185302734375</LongitudeDegrees>
            </Position>
            <AltitudeMeters>1494.5999755859375</AltitudeMeters>
            <DistanceMeters>1052.6704432255</DistanceMeters>
          </Trackpoint>
          <Trackpoint>
            <Time>2019-08-04T14:23:18.000Z</Time>
            <Position>
              <LatitudeDegrees>-33.5237947292625904083251953125</LatitudeDegrees>
              <LongitudeDegrees>-70.2259089052677154541015625</LongitudeDegrees>
            </Position>
            <AltitudeMeters>1494.800048828125</AltitudeMeters>
            <DistanceMeters>1052.8048312937</DistanceMeters>
          </Trackpoint>
          <Trackpoint>
            <Time>2019-08-04T14:23:22.000Z</Time>
            <Position>
              <LatitudeDegrees>-33.52380034513771533966064453125</LatitudeDegrees>
              <LongitudeDegrees>-70.2259050495922565460205078125</LongitudeDegrees>
            </Position>
            <AltitudeMeters>1494.800048828125</AltitudeMeters>
            <DistanceMeters>1053.5159461093</DistanceMeters>
          </Trackpoint>
          <Trackpoint>
            <Time>2019-08-04T14:23:24.000Z</Time>
            <Position>
              <LatitudeDegrees>-33.52380285970866680145263671875</LatitudeDegrees>
              <LongitudeDegrees>-70.22590513341128826141357421875</LongitudeDegrees>
            </Position>
            <AltitudeMeters>1494.800048828125</AltitudeMeters>
            <DistanceMeters>1053.7847222458</DistanceMeters>
          </Trackpoint>
          <Trackpoint>
            <Time>2019-08-04T14:23:28.000Z</Time>
            <Position>
              <LatitudeDegrees>-33.52380788885056972503662109375</LatitudeDegrees>
              <LongitudeDegrees>-70.225904881954193115234375</LongitudeDegrees>
            </Position>
            <AltitudeMeters>1494.5999755859375</AltitudeMeters>
            <DistanceMeters>1054.338818446</DistanceMeters>
          </Trackpoint>
          <Trackpoint>
            <Time>2019-08-04T14:23:31.000Z</Time>
            <Position>
              <LatitudeDegrees>-33.5238108225166797637939453125</LatitudeDegrees>
              <LongitudeDegrees>-70.22590245120227336883544921875</LongitudeDegrees>
            </Position>
            <AltitudeMeters>1494.5999755859375</AltitudeMeters>
            <DistanceMeters>1054.7419826507</DistanceMeters>
          </Trackpoint>
          <Trackpoint>
            <Time>2019-08-04T14:23:33.000Z</Time>
            <Position>
              <LatitudeDegrees>-33.5238106548786163330078125</LatitudeDegrees>
              <LongitudeDegrees>-70.22590379230678081512451171875</LongitudeDegrees>
            </Position>
            <AltitudeMeters>1494.800048828125</AltitudeMeters>
            <DistanceMeters>1054.7419826507</DistanceMeters>
          </Trackpoint>
          <Trackpoint>
            <Time>2019-08-04T14:23:35.000Z</Time>
            <Position>
              <LatitudeDegrees>-33.52380520664155483245849609375</LatitudeDegrees>
              <LongitudeDegrees>-70.2259090729057788848876953125</LongitudeDegrees>
            </Position>
            <AltitudeMeters>1494.800048828125</AltitudeMeters>
            <DistanceMeters>1055.5139833277</DistanceMeters>
          </Trackpoint>
          <Trackpoint>
            <Time>2019-08-04T14:23:40.000Z</Time>
            <Position>
              <LatitudeDegrees>-33.52380302734673023223876953125</LatitudeDegrees>
              <LongitudeDegrees>-70.2259151078760623931884765625</LongitudeDegrees>
            </Position>
            <AltitudeMeters>1494.5999755859375</AltitudeMeters>
            <DistanceMeters>1056.129826823</DistanceMeters>
          </Trackpoint>
          <Trackpoint>
            <Time>2019-08-04T14:23:46.000Z</Time>
            <Position>
              <LatitudeDegrees>-33.52380403317511081695556640625</LatitudeDegrees>
              <LongitudeDegrees>-70.225918628275394439697265625</LongitudeDegrees>
            </Position>
            <AltitudeMeters>1494.5999755859375</AltitudeMeters>
            <DistanceMeters>1056.4724505142</DistanceMeters>
          </Trackpoint>
          <Trackpoint>
            <Time>2019-08-04T14:23:51.000Z</Time>
            <Position>
              <LatitudeDegrees>-33.52380621246993541717529296875</LatitudeDegrees>
              <LongitudeDegrees>-70.22591770626604557037353515625</LongitudeDegrees>
            </Position>
            <AltitudeMeters>1494.5999755859375</AltitudeMeters>
            <DistanceMeters>1056.7412266507</DistanceMeters>
          </Trackpoint>
          <Trackpoint>
            <Time>2019-08-04T14:24:03.000Z</Time>
            <Position>
              <LatitudeDegrees>-33.52379925549030303955078125</LatitudeDegrees>
              <LongitudeDegrees>-70.22591401822865009307861328125</LongitudeDegrees>
            </Position>
            <AltitudeMeters>1494.5999755859375</AltitudeMeters>
            <DistanceMeters>1057.5911714227</DistanceMeters>
          </Trackpoint>
          <Trackpoint>
            <Time>2019-08-04T14:24:10.000Z</Time>
            <Position>
              <LatitudeDegrees>-33.52379213087260723114013671875</LatitudeDegrees>
              <LongitudeDegrees>-70.2259224839508533477783203125</LongitudeDegrees>
            </Position>
            <AltitudeMeters>1494.800048828125</AltitudeMeters>
            <DistanceMeters>1058.7074825573</DistanceMeters>
          </Trackpoint>
          <Trackpoint>
            <Time>2019-08-04T14:24:11.000Z</Time>
            <Position>
              <LatitudeDegrees>-33.5237918794155120849609375</LatitudeDegrees>
              <LongitudeDegrees>-70.22592374123632907867431640625</LongitudeDegrees>
            </Position>
            <AltitudeMeters>1494.800048828125</AltitudeMeters>
            <DistanceMeters>1058.8025092717</DistanceMeters>
          </Trackpoint>
          <Trackpoint>
            <Time>2019-08-04T14:24:13.000Z</Time>
            <Position>
              <LatitudeDegrees>-33.5237893648445606231689453125</LatitudeDegrees>
              <LongitudeDegrees>-70.22592843510210514068603515625</LongitudeDegrees>
            </Position>
            <AltitudeMeters>1494.800048828125</AltitudeMeters>
            <DistanceMeters>1059.3142437897</DistanceMeters>
          </Trackpoint>
          <Trackpoint>
            <Time>2019-08-04T14:24:20.000Z</Time>
            <Position>
              <LatitudeDegrees>-33.52378718554973602294921875</LatitudeDegrees>
              <LongitudeDegrees>-70.225932709872722625732421875</LongitudeDegrees>
            </Position>
            <AltitudeMeters>1494.800048828125</AltitudeMeters>
            <DistanceMeters>1059.7797777139</DistanceMeters>
          </Trackpoint>
          <Trackpoint>
            <Time>2019-08-04T14:24:29.000Z</Time>
            <Position>
              <LatitudeDegrees>-33.5237863473594188690185546875</LatitudeDegrees>
              <LongitudeDegrees>-70.22593480534851551055908203125</LongitudeDegrees>
            </Position>
            <AltitudeMeters>1494.800048828125</AltitudeMeters>
            <DistanceMeters>1059.9698311427</DistanceMeters>
          </Trackpoint>
          <Trackpoint>
            <Time>2019-08-04T14:24:33.000Z</Time>
            <Position>
              <LatitudeDegrees>-33.52380864322185516357421875</LatitudeDegrees>
              <LongitudeDegrees>-70.225895829498767852783203125</LongitudeDegrees>
            </Position>
            <AltitudeMeters>1494.4000244140625</AltitudeMeters>
            <DistanceMeters>1064.3554967507</DistanceMeters>
          </Trackpoint>
          <Trackpoint>
            <Time>2019-08-04T14:24:35.000Z</Time>
            <Position>
              <LatitudeDegrees>-33.5238165222108364105224609375</LatitudeDegrees>
              <LongitudeDegrees>-70.2258847653865814208984375</LongitudeDegrees>
            </Position>
            <AltitudeMeters>1494.199951171875</AltitudeMeters>
            <DistanceMeters>1065.7060801216</DistanceMeters>
          </Trackpoint>
          <Trackpoint>
            <Time>2019-08-04T14:24:38.000Z</Time>
            <Position>
              <LatitudeDegrees>-33.5238329507410526275634765625</LatitudeDegrees>
              <LongitudeDegrees>-70.2258705161511898040771484375</LongitudeDegrees>
            </Position>
            <AltitudeMeters>1494.199951171875</AltitudeMeters>
            <DistanceMeters>1067.9628395493</DistanceMeters>
          </Trackpoint>
          <Trackpoint>
            <Time>2019-08-04T14:24:41.000Z</Time>
            <Position>
              <LatitudeDegrees>-33.5238497145473957061767578125</LatitudeDegrees>
              <LongitudeDegrees>-70.22584930993616580963134765625</LongitudeDegrees>
            </Position>
            <AltitudeMeters>1494.4000244140625</AltitudeMeters>
            <DistanceMeters>1070.6740168259</DistanceMeters>
          </Trackpoint>
          <Trackpoint>
            <Time>2019-08-04T14:24:44.000Z</Time>
            <Position>
              <LatitudeDegrees>-33.523867316544055938720703125</LatitudeDegrees>
              <LongitudeDegrees>-70.22582801990211009979248046875</LongitudeDegrees>
            </Position>
            <AltitudeMeters>1495.199951171875</AltitudeMeters>
            <DistanceMeters>1073.4575048516</DistanceMeters>
          </Trackpoint>
          <Trackpoint>
            <Time>2019-08-04T14:24:48.000Z</Time>
            <Position>
              <LatitudeDegrees>-33.52388776838779449462890625</LatitudeDegrees>
              <LongitudeDegrees>-70.22580706514418125152587890625</LongitudeDegrees>
            </Position>
            <AltitudeMeters>1495.800048828125</AltitudeMeters>
            <DistanceMeters>1076.4504692403</DistanceMeters>
          </Trackpoint>
          <Trackpoint>
            <Time>2019-08-04T14:24:57.000Z</Time>
            <Position>
              <LatitudeDegrees>-33.5239439271390438079833984375</LatitudeDegrees>
              <LongitudeDegrees>-70.22577286697924137115478515625</LongitudeDegrees>
            </Position>
            <AltitudeMeters>1495.4000244140625</AltitudeMeters>
            <DistanceMeters>1083.4599375462</DistanceMeters>
          </Trackpoint>
          <Trackpoint>
            <Time>2019-08-04T14:25:05.000Z</Time>
            <Position>
              <LatitudeDegrees>-33.52399463765323162078857421875</LatitudeDegrees>
              <LongitudeDegrees>-70.2257555164396762847900390625</LongitudeDegrees>
            </Position>
            <AltitudeMeters>1496.800048828125</AltitudeMeters>
            <DistanceMeters>1089.329327773</DistanceMeters>
          </Trackpoint>
          <Trackpoint>
            <Time>2019-08-04T14:25:09.000Z</Time>
            <Position>
              <LatitudeDegrees>-33.52401651442050933837890625</LatitudeDegrees>
              <LongitudeDegrees>-70.225752331316471099853515625</LongitudeDegrees>
            </Position>
            <AltitudeMeters>1497.199951171875</AltitudeMeters>
            <DistanceMeters>1091.7816798912</DistanceMeters>
          </Trackpoint>
          <Trackpoint>
            <Time>2019-08-04T14:25:10.000Z</Time>
            <Position>
              <LatitudeDegrees>-33.5240203700959682464599609375</LatitudeDegrees>
              <LongitudeDegrees>-70.2257535047829151153564453125</LongitudeDegrees>
            </Position>
            <AltitudeMeters>1497.4000244140625</AltitudeMeters>
            <DistanceMeters>1092.2273946899</DistanceMeters>
          </Trackpoint>
          <Trackpoint>
            <Time>2019-08-04T14:25:12.000Z</Time>
            <Position>
              <LatitudeDegrees>-33.52403084747493267059326171875</LatitudeDegrees>
              <LongitudeDegrees>-70.22575828246772289276123046875</LongitudeDegrees>
            </Position>
            <AltitudeMeters>1497.5999755859375</AltitudeMeters>
            <DistanceMeters>1093.4772759742</DistanceMeters>
          </Trackpoint>
          <Trackpoint>
            <Time>2019-08-04T14:25:13.000Z</Time>
            <Position>
              <LatitudeDegrees>-33.52403822354972362518310546875</LatitudeDegrees>
              <LongitudeDegrees>-70.22575794719159603118896484375</LongitudeDegrees>
            </Position>
            <AltitudeMeters>1497.800048828125</AltitudeMeters>
            <DistanceMeters>1094.2947266802</DistanceMeters>
          </Trackpoint>
          <Trackpoint>
            <Time>2019-08-04T14:25:15.000Z</Time>
            <Position>
              <LatitudeDegrees>-33.52404174394905567169189453125</LatitudeDegrees>
              <LongitudeDegrees>-70.22575442679226398468017578125</LongitudeDegrees>
            </Position>
            <AltitudeMeters>1498</AltitudeMeters>
            <DistanceMeters>1094.8064611982</DistanceMeters>
          </Trackpoint>
          <Trackpoint>
            <Time>2019-08-04T14:25:21.000Z</Time>
            <Position>
              <LatitudeDegrees>-33.5240639559924602508544921875</LatitudeDegrees>
              <LongitudeDegrees>-70.22574604488909244537353515625</LongitudeDegrees>
            </Position>
            <AltitudeMeters>1499.199951171875</AltitudeMeters>
            <DistanceMeters>1097.3967018816</DistanceMeters>
          </Trackpoint>
          <Trackpoint>
            <Time>2019-08-04T14:25:26.000Z</Time>
            <Position>
              <LatitudeDegrees>-33.52407309226691722869873046875</LatitudeDegrees>
              <LongitudeDegrees>-70.22576800547540187835693359375</LongitudeDegrees>
            </Position>
            <AltitudeMeters>1500</AltitudeMeters>
            <DistanceMeters>1099.673380137</DistanceMeters>
          </Trackpoint>
          <Trackpoint>
            <Time>2019-08-04T14:25:27.000Z</Time>
            <Position>
              <LatitudeDegrees>-33.524070493876934051513671875</LatitudeDegrees>
              <LongitudeDegrees>-70.22577739320695400238037109375</LongitudeDegrees>
            </Position>
            <AltitudeMeters>1500.199951171875</AltitudeMeters>
            <DistanceMeters>1100.5848443617</DistanceMeters>
          </Trackpoint>
          <Trackpoint>
            <Time>2019-08-04T14:25:28.000Z</Time>
            <Position>
              <LatitudeDegrees>-33.52407007478177547454833984375</LatitudeDegrees>
              <LongitudeDegrees>-70.22578611038625240325927734375</LongitudeDegrees>
            </Position>
            <AltitudeMeters>1500.199951171875</AltitudeMeters>
            <DistanceMeters>1101.3911727712</DistanceMeters>
          </Trackpoint>
          <Trackpoint>
            <Time>2019-08-04T14:25:30.000Z</Time>
            <Position>
              <LatitudeDegrees>-33.52406554855406284332275390625</LatitudeDegrees>
              <LongitudeDegrees>-70.22580052725970745086669921875</LongitudeDegrees>
            </Position>
            <AltitudeMeters>1500.4000244140625</AltitudeMeters>
            <DistanceMeters>1102.8165734867</DistanceMeters>
          </Trackpoint>
          <Trackpoint>
            <Time>2019-08-04T14:25:37.000Z</Time>
            <Position>
              <LatitudeDegrees>-33.52407158352434635162353515625</LatitudeDegrees>
              <LongitudeDegrees>-70.2258594520390033721923828125</LongitudeDegrees>
            </Position>
            <AltitudeMeters>1501</AltitudeMeters>
            <DistanceMeters>1108.3256647846</DistanceMeters>
          </Trackpoint>
          <Trackpoint>
            <Time>2019-08-04T14:25:39.000Z</Time>
            <Position>
              <LatitudeDegrees>-33.52407577447593212127685546875</LatitudeDegrees>
              <LongitudeDegrees>-70.225872360169887542724609375</LongitudeDegrees>
            </Position>
            <AltitudeMeters>1501.199951171875</AltitudeMeters>
            <DistanceMeters>1109.6146698527</DistanceMeters>
          </Trackpoint>
          <Trackpoint>
            <Time>2019-08-04T14:25:44.000Z</Time>
            <Position>
              <LatitudeDegrees>-33.5240713320672512054443359375</LatitudeDegrees>
              <LongitudeDegrees>-70.22589406929910182952880859375</LongitudeDegrees>
            </Position>
            <AltitudeMeters>1502.4000244140625</AltitudeMeters>
            <DistanceMeters>1111.6900846218</DistanceMeters>
          </Trackpoint>
          <Trackpoint>
            <Time>2019-08-04T14:25:50.000Z</Time>
            <Position>
              <LatitudeDegrees>-33.5240461863577365875244140625</LatitudeDegrees>
              <LongitudeDegrees>-70.225917287170886993408203125</LongitudeDegrees>
            </Position>
            <AltitudeMeters>1502.800048828125</AltitudeMeters>
            <DistanceMeters>1115.2227274916</DistanceMeters>
          </Trackpoint>
          <Trackpoint>
            <Time>2019-08-04T14:25:56.000Z</Time>
            <Position>
              <LatitudeDegrees>-33.524031601846218109130859375</LatitudeDegrees>
              <LongitudeDegrees>-70.22596799768507480621337890625</LongitudeDegrees>
            </Position>
            <AltitudeMeters>1503.4000244140625</AltitudeMeters>
            <DistanceMeters>1120.2014381519</DistanceMeters>
          </Trackpoint>
          <Trackpoint>
            <Time>2019-08-04T14:25:59.000Z</Time>
            <Position>
              <LatitudeDegrees>-33.52404492907226085662841796875</LatitudeDegrees>
              <LongitudeDegrees>-70.22598928771913051605224609375</LongitudeDegrees>
            </Position>
            <AltitudeMeters>1503.800048828125</AltitudeMeters>
            <DistanceMeters>1122.6721327255</DistanceMeters>
          </Trackpoint>
          <Trackpoint>
            <Time>2019-08-04T14:26:00.000Z</Time>
            <Position>
              <LatitudeDegrees>-33.524048365652561187744140625</LatitudeDegrees>
              <LongitudeDegrees>-70.225995071232318878173828125</LongitudeDegrees>
            </Position>
            <AltitudeMeters>1504</AltitudeMeters>
            <DistanceMeters>1123.330497115</DistanceMeters>
          </Trackpoint>
          <Trackpoint>
            <Time>2019-08-04T14:26:01.000Z</Time>
            <Position>
              <LatitudeDegrees>-33.52405549027025699615478515625</LatitudeDegrees>
              <LongitudeDegrees>-70.226002447307109832763671875</LongitudeDegrees>
            </Position>
            <AltitudeMeters>1504</AltitudeMeters>
            <DistanceMeters>1124.3801014815</DistanceMeters>
          </Trackpoint>
          <Trackpoint>
            <Time>2019-08-04T14:26:06.000Z</Time>
            <Position>
              <LatitudeDegrees>-33.524097986519336700439453125</LatitudeDegrees>
              <LongitudeDegrees>-70.22602583281695842742919921875</LongitudeDegrees>
            </Position>
            <AltitudeMeters>1504.5999755859375</AltitudeMeters>
            <DistanceMeters>1129.5840614405</DistanceMeters>
          </Trackpoint>
          <Trackpoint>
            <Time>2019-08-04T14:26:07.000Z</Time>
            <Position>
              <LatitudeDegrees>-33.52410159073770046234130859375</LatitudeDegrees>
              <LongitudeDegrees>-70.22603253833949565887451171875</LongitudeDegrees>
            </Position>
            <AltitudeMeters>1504.800048828125</AltitudeMeters>
            <DistanceMeters>1130.3201352049</DistanceMeters>
          </Trackpoint>
          <Trackpoint>
            <Time>2019-08-04T14:26:11.000Z</Time>
            <Position>
              <LatitudeDegrees>-33.5241137444972991943359375</LatitudeDegrees>
              <LongitudeDegrees>-70.22605466656386852264404296875</LongitudeDegrees>
            </Position>
            <AltitudeMeters>1505.199951171875</AltitudeMeters>
            <DistanceMeters>1132.7798407193</DistanceMeters>
          </Trackpoint>
          <Trackpoint>
            <Time>2019-08-04T14:26:13.000Z</Time>
            <Position>
              <LatitudeDegrees>-33.524117767810821533203125</LatitudeDegrees>
              <LongitudeDegrees>-70.2260659821331501007080078125</LongitudeDegrees>
            </Position>
            <AltitudeMeters>1505.800048828125</AltitudeMeters>
            <DistanceMeters>1133.9161949473</DistanceMeters>
          </Trackpoint>
          <Trackpoint>
            <Time>2019-08-04T14:26:20.000Z</Time>
            <Position>
              <LatitudeDegrees>-33.5240958072245121002197265625</LatitudeDegrees>
              <LongitudeDegrees>-70.2261234819889068603515625</LongitudeDegrees>
            </Position>
            <AltitudeMeters>1506.800048828125</AltitudeMeters>
            <DistanceMeters>1139.7848158719</DistanceMeters>
          </Trackpoint>
          <Trackpoint>
            <Time>2019-08-04T14:26:21.000Z</Time>
            <Position>
              <LatitudeDegrees>-33.52409572340548038482666015625</LatitudeDegrees>
              <LongitudeDegrees>-70.2261327020823955535888671875</LongitudeDegrees>
            </Position>
            <AltitudeMeters>1506.800048828125</AltitudeMeters>
            <DistanceMeters>1140.6400563013</DistanceMeters>
          </Trackpoint>
          <Trackpoint>
            <Time>2019-08-04T14:26:29.000Z</Time>
            <Position>
              <LatitudeDegrees>-33.52405414916574954986572265625</LatitudeDegrees>
              <LongitudeDegrees>-70.2261905372142791748046875</LongitudeDegrees>
            </Position>
            <AltitudeMeters>1508</AltitudeMeters>
            <DistanceMeters>1147.7257619844</DistanceMeters>
          </Trackpoint>
          <Trackpoint>
            <Time>2019-08-04T14:26:33.000Z</Time>
            <Position>
              <LatitudeDegrees>-33.52405683137476444244384765625</LatitudeDegrees>
              <LongitudeDegrees>-70.226223058998584747314453125</LongitudeDegrees>
            </Position>
            <AltitudeMeters>1508.5999755859375</AltitudeMeters>
            <DistanceMeters>1150.7576950015</DistanceMeters>
          </Trackpoint>
          <Trackpoint>
            <Time>2019-08-04T14:26:36.000Z</Time>
            <Position>
              <LatitudeDegrees>-33.52406353689730167388916015625</LatitudeDegrees>
              <LongitudeDegrees>-70.2262423373758792877197265625</LongitudeDegrees>
            </Position>
            <AltitudeMeters>1509</AltitudeMeters>
            <DistanceMeters>1152.695867285</DistanceMeters>
          </Trackpoint>
          <Trackpoint>
            <Time>2019-08-04T14:26:42.000Z</Time>
            <Position>
              <LatitudeDegrees>-33.5240937955677509307861328125</LatitudeDegrees>
              <LongitudeDegrees>-70.226267315447330474853515625</LongitudeDegrees>
            </Position>
            <AltitudeMeters>1509.800048828125</AltitudeMeters>
            <DistanceMeters>1156.7831208154</DistanceMeters>
          </Trackpoint>
          <Trackpoint>
            <Time>2019-08-04T14:26:45.000Z</Time>
            <Position>
              <LatitudeDegrees>-33.52411433123052120208740234375</LatitudeDegrees>
              <LongitudeDegrees>-70.22627058438956737518310546875</LongitudeDegrees>
            </Position>
            <AltitudeMeters>1510</AltitudeMeters>
            <DistanceMeters>1159.0893547639</DistanceMeters>
          </Trackpoint>
          <Trackpoint>
            <Time>2019-08-04T14:26:46.000Z</Time>
            <Position>
              <LatitudeDegrees>-33.52412321604788303375244140625</LatitudeDegrees>
              <LongitudeDegrees>-70.22626899182796478271484375</LongitudeDegrees>
            </Position>
            <AltitudeMeters>1510.199951171875</AltitudeMeters>
            <DistanceMeters>1160.0905233238</DistanceMeters>
          </Trackpoint>
          <Trackpoint>
            <Time>2019-08-04T14:26:50.000Z</Time>
            <Position>
              <LatitudeDegrees>-33.52415640838444232940673828125</LatitudeDegrees>
              <LongitudeDegrees>-70.22626102901995182037353515625</LongitudeDegrees>
            </Position>
            <AltitudeMeters>1511.199951171875</AltitudeMeters>
            <DistanceMeters>1163.8581857516</DistanceMeters>
          </Trackpoint>
          <Trackpoint>
            <Time>2019-08-04T14:26:56.000Z</Time>
            <Position>
              <LatitudeDegrees>-33.524185158312320709228515625</LatitudeDegrees>
              <LongitudeDegrees>-70.22626069374382495880126953125</LongitudeDegrees>
            </Position>
            <AltitudeMeters>1512</AltitudeMeters>
            <DistanceMeters>1167.0582024215</DistanceMeters>
          </Trackpoint>
          <Trackpoint>
            <Time>2019-08-04T14:26:57.000Z</Time>
            <Position>
              <LatitudeDegrees>-33.52418742142617702484130859375</LatitudeDegrees>
              <LongitudeDegrees>-70.22626622579991817474365234375</LongitudeDegrees>
            </Position>
            <AltitudeMeters>1512.199951171875</AltitudeMeters>
            <DistanceMeters>1167.6283627077</DistanceMeters>
          </Trackpoint>
          <Trackpoint>
            <Time>2019-08-04T14:27:05.000Z</Time>
            <Position>
              <LatitudeDegrees>-33.524219356477260589599609375</LatitudeDegrees>
              <LongitudeDegrees>-70.22631056606769561767578125</LongitudeDegrees>
            </Position>
            <AltitudeMeters>1513.199951171875</AltitudeMeters>
            <DistanceMeters>1173.0656846843</DistanceMeters>
          </Trackpoint>
          <Trackpoint>
            <Time>2019-08-04T14:27:08.000Z</Time>
            <Position>
              <LatitudeDegrees>-33.5242235474288463592529296875</LatitudeDegrees>
              <LongitudeDegrees>-70.226332359015941619873046875</LongitudeDegrees>
            </Position>
            <AltitudeMeters>1513.4000244140625</AltitudeMeters>
            <DistanceMeters>1175.1410994534</DistanceMeters>
          </Trackpoint>
          <Trackpoint>
            <Time>2019-08-04T14:27:16.000Z</Time>
            <Position>
              <LatitudeDegrees>-33.5242426581680774688720703125</LatitudeDegrees>
              <LongitudeDegrees>-70.2263787947595119476318359375</LongitudeDegrees>
            </Position>
            <AltitudeMeters>1514.4000244140625</AltitudeMeters>
            <DistanceMeters>1179.9462951276</DistanceMeters>
          </Trackpoint>
          <Trackpoint>
            <Time>2019-08-04T14:27:21.000Z</Time>
            <Position>
              <LatitudeDegrees>-33.524271659553050994873046875</LatitudeDegrees>
              <LongitudeDegrees>-70.226402096450328826904296875</LongitudeDegrees>
            </Position>
            <AltitudeMeters>1515</AltitudeMeters>
            <DistanceMeters>1183.8319466578</DistanceMeters>
          </Trackpoint>
          <Trackpoint>
            <Time>2019-08-04T14:27:25.000Z</Time>
            <Position>
              <LatitudeDegrees>-33.5243013314902782440185546875</LatitudeDegrees>
              <LongitudeDegrees>-70.2264042757451534271240234375</LongitudeDegrees>
            </Position>
            <AltitudeMeters>1515.5999755859375</AltitudeMeters>
            <DistanceMeters>1187.1429152175</DistanceMeters>
          </Trackpoint>
          <Trackpoint>
            <Time>2019-08-04T14:27:33.000Z</Time>
            <Position>
              <LatitudeDegrees>-33.52436142973601818084716796875</LatitudeDegrees>
              <LongitudeDegrees>-70.22640838287770748138427734375</LongitudeDegrees>
            </Position>
            <AltitudeMeters>1516.5999755859375</AltitudeMeters>
            <DistanceMeters>1193.8428040227</DistanceMeters>
          </Trackpoint>
          <Trackpoint>
            <Time>2019-08-04T14:27:34.000Z</Time>
            <Position>
              <LatitudeDegrees>-33.52436788380146026611328125</LatitudeDegrees>
              <LongitudeDegrees>-70.22641022689640522003173828125</LongitudeDegrees>
            </Position>
            <AltitudeMeters>1516.800048828125</AltitudeMeters>
            <DistanceMeters>1194.5849863878</DistanceMeters>
          </Trackpoint>
          <Trackpoint>
            <Time>2019-08-04T14:27:42.000Z</Time>
            <Position>
              <LatitudeDegrees>-33.52443669922649860382080078125</LatitudeDegrees>
              <LongitudeDegrees>-70.22642464376986026763916015625</LongitudeDegrees>
            </Position>
            <AltitudeMeters>1517.5999755859375</AltitudeMeters>
            <DistanceMeters>1202.3609359677</DistanceMeters>
          </Trackpoint>
          <Trackpoint>
            <Time>2019-08-04T14:27:48.000Z</Time>
            <Position>
              <LatitudeDegrees>-33.52447693236172199249267578125</LatitudeDegrees>
              <LongitudeDegrees>-70.226428918540477752685546875</LongitudeDegrees>
            </Position>
            <AltitudeMeters>1518.4000244140625</AltitudeMeters>
            <DistanceMeters>1206.8564127035</DistanceMeters>
          </Trackpoint>
          <Trackpoint>
            <Time>2019-08-04T14:27:50.000Z</Time>
            <Position>
              <LatitudeDegrees>-33.52448799647390842437744140625</LatitudeDegrees>
              <LongitudeDegrees>-70.226430594921112060546875</LongitudeDegrees>
            </Position>
            <AltitudeMeters>1518.800048828125</AltitudeMeters>
            <DistanceMeters>1208.1026763787</DistanceMeters>
          </Trackpoint>
          <Trackpoint>
            <Time>2019-08-04T14:27:56.000Z</Time>
            <Position>
              <LatitudeDegrees>-33.52452320046722888946533203125</LatitudeDegrees>
              <LongitudeDegrees>-70.22642196156084537506103515625</LongitudeDegrees>
            </Position>
            <AltitudeMeters>1519.800048828125</AltitudeMeters>
            <DistanceMeters>1212.1005802427</DistanceMeters>
          </Trackpoint>
          <Trackpoint>
            <Time>2019-08-04T14:28:01.000Z</Time>
            <Position>
              <LatitudeDegrees>-33.52455488406121730804443359375</LatitudeDegrees>
              <LongitudeDegrees>-70.22641642950475215911865234375</LongitudeDegrees>
            </Position>
            <AltitudeMeters>1520.4000244140625</AltitudeMeters>
            <DistanceMeters>1215.6637652618</DistanceMeters>
          </Trackpoint>
          <Trackpoint>
            <Time>2019-08-04T14:28:07.000Z</Time>
            <Position>
              <LatitudeDegrees>-33.524573743343353271484375</LatitudeDegrees>
              <LongitudeDegrees>-70.22641743533313274383544921875</LongitudeDegrees>
            </Position>
            <AltitudeMeters>1521</AltitudeMeters>
            <DistanceMeters>1217.7651237227</DistanceMeters>
          </Trackpoint>
          <Trackpoint>
            <Time>2019-08-04T14:28:11.000Z</Time>
            <Position>
              <LatitudeDegrees>-33.52460064925253391265869140625</LatitudeDegrees>
              <LongitudeDegrees>-70.2264173515141010284423828125</LongitudeDegrees>
            </Position>
            <AltitudeMeters>1521.4000244140625</AltitudeMeters>
            <DistanceMeters>1220.7611036935</DistanceMeters>
          </Trackpoint>
          <Trackpoint>
            <Time>2019-08-04T14:28:20.000Z</Time>
            <Position>
              <LatitudeDegrees>-33.52461825124919414520263671875</LatitudeDegrees>
              <LongitudeDegrees>-70.226398073136806488037109375</LongitudeDegrees>
            </Position>
            <AltitudeMeters>1521.800048828125</AltitudeMeters>
            <DistanceMeters>1223.4133535968</DistanceMeters>
          </Trackpoint>
          <Trackpoint>
            <Time>2019-08-04T14:28:31.000Z</Time>
            <Position>
              <LatitudeDegrees>-33.52461942471563816070556640625</LatitudeDegrees>
              <LongitudeDegrees>-70.22639430128037929534912109375</LongitudeDegrees>
            </Position>
            <AltitudeMeters>1521.4000244140625</AltitudeMeters>
            <DistanceMeters>1223.7934604543</DistanceMeters>
          </Trackpoint>
          <Trackpoint>
            <Time>2019-08-04T14:28:36.000Z</Time>
            <Position>
              <LatitudeDegrees>-33.52461758069694042205810546875</LatitudeDegrees>
              <LongitudeDegrees>-70.226392708718776702880859375</LongitudeDegrees>
            </Position>
            <AltitudeMeters>1521.199951171875</AltitudeMeters>
            <DistanceMeters>1224.0448775084</DistanceMeters>
          </Trackpoint>
          <Trackpoint>
            <Time>2019-08-04T14:28:41.000Z</Time>
            <Position>
              <LatitudeDegrees>-33.5246158204972743988037109375</LatitudeDegrees>
              <LongitudeDegrees>-70.22638474591076374053955078125</LongitudeDegrees>
            </Position>
            <AltitudeMeters>1520.800048828125</AltitudeMeters>
            <DistanceMeters>1224.8050912234</DistanceMeters>
          </Trackpoint>
          <Trackpoint>
            <Time>2019-08-04T14:28:43.000Z</Time>
            <Position>
              <LatitudeDegrees>-33.52461707778275012969970703125</LatitudeDegrees>
              <LongitudeDegrees>-70.2263841591775417327880859375</LongitudeDegrees>
            </Position>
            <AltitudeMeters>1520.800048828125</AltitudeMeters>
            <DistanceMeters>1224.9394792917</DistanceMeters>
          </Trackpoint>
          <Trackpoint>
            <Time>2019-08-04T14:28:45.000Z</Time>
            <Position>
              <LatitudeDegrees>-33.52461456321179866790771484375</LatitudeDegrees>
              <LongitudeDegrees>-70.22638424299657344818115234375</LongitudeDegrees>
            </Position>
            <AltitudeMeters>1520.800048828125</AltitudeMeters>
            <DistanceMeters>1225.2245594348</DistanceMeters>
          </Trackpoint>
          <Trackpoint>
            <Time>2019-08-04T14:28:51.000Z</Time>
            <Position>
              <LatitudeDegrees>-33.52460986934602260589599609375</LatitudeDegrees>
              <LongitudeDegrees>-70.22638340480625629425048828125</LongitudeDegrees>
            </Position>
            <AltitudeMeters>1520.800048828125</AltitudeMeters>
            <DistanceMeters>1225.7621117078</DistanceMeters>
          </Trackpoint>
          <Trackpoint>
            <Time>2019-08-04T14:28:52.000Z</Time>
            <Position>
              <LatitudeDegrees>-33.52461003698408603668212890625</LatitudeDegrees>
              <LongitudeDegrees>-70.226383320987224578857421875</LongitudeDegrees>
            </Position>
            <AltitudeMeters>1520.800048828125</AltitudeMeters>
            <DistanceMeters>1225.7621117078</DistanceMeters>
          </Trackpoint>
          <Trackpoint>
            <Time>2019-08-04T14:28:59.000Z</Time>
            <Position>
              <LatitudeDegrees>-33.52460928261280059814453125</LatitudeDegrees>
              <LongitudeDegrees>-70.22638256661593914031982421875</LongitudeDegrees>
            </Position>
            <AltitudeMeters>1521</AltitudeMeters>
            <DistanceMeters>1225.896499776</DistanceMeters>
          </Trackpoint>
          <Trackpoint>
            <Time>2019-08-04T14:29:04.000Z</Time>
            <Position>
              <LatitudeDegrees>-33.52461003698408603668212890625</LatitudeDegrees>
              <LongitudeDegrees>-70.2263828180730342864990234375</LongitudeDegrees>
            </Position>
            <AltitudeMeters>1521.5999755859375</AltitudeMeters>
            <DistanceMeters>1226.0308878443</DistanceMeters>
          </Trackpoint>
          <Trackpoint>
            <Time>2019-08-04T14:29:07.000Z</Time>
            <Position>
              <LatitudeDegrees>-33.52460970170795917510986328125</LatitudeDegrees>
              <LongitudeDegrees>-70.22638499736785888671875</LongitudeDegrees>
            </Position>
            <AltitudeMeters>1522</AltitudeMeters>
            <DistanceMeters>1226.2433740373</DistanceMeters>
          </Trackpoint>
          <Trackpoint>
            <Time>2019-08-04T14:29:09.000Z</Time>
            <Position>
              <LatitudeDegrees>-33.524608276784420013427734375</LatitudeDegrees>
              <LongitudeDegrees>-70.22638499736785888671875</LongitudeDegrees>
            </Position>
            <AltitudeMeters>1522.4000244140625</AltitudeMeters>
            <DistanceMeters>1226.4079651346</DistanceMeters>
          </Trackpoint>
          <Trackpoint>
            <Time>2019-08-04T14:29:14.000Z</Time>
            <Position>
              <LatitudeDegrees>-33.5246138088405132293701171875</LatitudeDegrees>
              <LongitudeDegrees>-70.22639044560492038726806640625</LongitudeDegrees>
            </Position>
            <AltitudeMeters>1522.4000244140625</AltitudeMeters>
            <DistanceMeters>1227.2030156683</DistanceMeters>
          </Trackpoint>
          <Trackpoint>
            <Time>2019-08-04T14:29:18.000Z</Time>
            <Position>
              <LatitudeDegrees>-33.52461003698408603668212890625</LatitudeDegrees>
              <LongitudeDegrees>-70.22639212198555469512939453125</LongitudeDegrees>
            </Position>
            <AltitudeMeters>1522</AltitudeMeters>
            <DistanceMeters>1227.648730467</DistanceMeters>
          </Trackpoint>
          <Trackpoint>
            <Time>2019-08-04T14:29:26.000Z</Time>
            <Position>
              <LatitudeDegrees>-33.52460014633834362030029296875</LatitudeDegrees>
              <LongitudeDegrees>-70.2263922058045864105224609375</LongitudeDegrees>
            </Position>
            <AltitudeMeters>1521.5999755859375</AltitudeMeters>
            <DistanceMeters>1228.7487442139</DistanceMeters>
          </Trackpoint>
          <Trackpoint>
            <Time>2019-08-04T14:29:28.000Z</Time>
            <Position>
              <LatitudeDegrees>-33.5245983861386775970458984375</LatitudeDegrees>
              <LongitudeDegrees>-70.22638960741460323333740234375</LongitudeDegrees>
            </Position>
            <AltitudeMeters>1521.5999755859375</AltitudeMeters>
            <DistanceMeters>1229.0492450699</DistanceMeters>
          </Trackpoint>
          <Trackpoint>
            <Time>2019-08-04T14:29:29.000Z</Time>
            <Position>
              <LatitudeDegrees>-33.5245990566909313201904296875</LatitudeDegrees>
              <LongitudeDegrees>-70.226389355957508087158203125</LongitudeDegrees>
            </Position>
            <AltitudeMeters>1521.5999755859375</AltitudeMeters>
            <DistanceMeters>1229.1442717843</DistanceMeters>
          </Trackpoint>
          <Trackpoint>
            <Time>2019-08-04T14:29:31.000Z</Time>
            <Position>
              <LatitudeDegrees>-33.5246017388999462127685546875</LatitudeDegrees>
              <LongitudeDegrees>-70.22639027796685695648193359375</LongitudeDegrees>
            </Position>
            <AltitudeMeters>1521.4000244140625</AltitudeMeters>
            <DistanceMeters>1229.473453979</DistanceMeters>
          </Trackpoint>
          <Trackpoint>
            <Time>2019-08-04T14:29:34.000Z</Time>
            <Position>
              <LatitudeDegrees>-33.5246040858328342437744140625</LatitudeDegrees>
              <LongitudeDegrees>-70.22639581002295017242431640625</LongitudeDegrees>
            </Position>
            <AltitudeMeters>1521.4000244140625</AltitudeMeters>
            <DistanceMeters>1230.0514789166</DistanceMeters>
          </Trackpoint>
          <Trackpoint>
            <Time>2019-08-04T14:29:44.000Z</Time>
            <Position>
              <LatitudeDegrees>-33.52460752241313457489013671875</LatitudeDegrees>
              <LongitudeDegrees>-70.22639698348939418792724609375</LongitudeDegrees>
            </Position>
            <AltitudeMeters>1521.199951171875</AltitudeMeters>
            <DistanceMeters>1230.4546431213</DistanceMeters>
          </Trackpoint>
          <Trackpoint>
            <Time>2019-08-04T14:29:49.000Z</Time>
            <Position>
              <LatitudeDegrees>-33.52460316382348537445068359375</LatitudeDegrees>
              <LongitudeDegrees>-70.22639748640358448028564453125</LongitudeDegrees>
            </Position>
            <AltitudeMeters>1521</AltitudeMeters>
            <DistanceMeters>1230.9391861922</DistanceMeters>
          </Trackpoint>
          <Trackpoint>
            <Time>2019-08-04T14:29:55.000Z</Time>
            <Position>
              <LatitudeDegrees>-33.52460182271897792816162109375</LatitudeDegrees>
              <LongitudeDegrees>-70.22639731876552104949951171875</LongitudeDegrees>
            </Position>
            <AltitudeMeters>1521</AltitudeMeters>
            <DistanceMeters>1231.1292396209</DistanceMeters>
          </Trackpoint>
          <Trackpoint>
            <Time>2019-08-04T14:29:57.000Z</Time>
            <Position>
              <LatitudeDegrees>-33.52460131980478763580322265625</LatitudeDegrees>
              <LongitudeDegrees>-70.2263979054987430572509765625</LongitudeDegrees>
            </Position>
            <AltitudeMeters>1521</AltitudeMeters>
            <DistanceMeters>1231.1292396209</DistanceMeters>
          </Trackpoint>
          <Trackpoint>
            <Time>2019-08-04T14:30:04.000Z</Time>
            <Position>
              <LatitudeDegrees>-33.52460500784218311309814453125</LatitudeDegrees>
              <LongitudeDegrees>-70.22640201263129711151123046875</LongitudeDegrees>
            </Position>
            <AltitudeMeters>1521</AltitudeMeters>
            <DistanceMeters>1231.6833358212</DistanceMeters>
          </Trackpoint>
          <Trackpoint>
            <Time>2019-08-04T14:30:09.000Z</Time>
            <Position>
              <LatitudeDegrees>-33.52461271919310092926025390625</LatitudeDegrees>
              <LongitudeDegrees>-70.2264015935361385345458984375</LongitudeDegrees>
            </Position>
            <AltitudeMeters>1521.199951171875</AltitudeMeters>
            <DistanceMeters>1232.5438393182</DistanceMeters>
          </Trackpoint>
          <Trackpoint>
            <Time>2019-08-04T14:30:14.000Z</Time>
            <Position>
              <LatitudeDegrees>-33.5246107913553714752197265625</LatitudeDegrees>
              <LongitudeDegrees>-70.22639773786067962646484375</LongitudeDegrees>
            </Position>
            <AltitudeMeters>1521.4000244140625</AltitudeMeters>
            <DistanceMeters>1232.9580511631</DistanceMeters>
          </Trackpoint>
          <Trackpoint>
            <Time>2019-08-04T14:30:15.000Z</Time>
            <Position>
              <LatitudeDegrees>-33.5246111266314983367919921875</LatitudeDegrees>
              <LongitudeDegrees>-70.2263968996703624725341796875</LongitudeDegrees>
            </Position>
            <AltitudeMeters>1521.4000244140625</AltitudeMeters>
            <DistanceMeters>1233.0530778774</DistanceMeters>
          </Trackpoint>
          <Trackpoint>
            <Time>2019-08-04T14:30:17.000Z</Time>
            <Position>
              <LatitudeDegrees>-33.52461070753633975982666015625</LatitudeDegrees>
              <LongitudeDegrees>-70.22639715112745761871337890625</LongitudeDegrees>
            </Position>
            <AltitudeMeters>1521.4000244140625</AltitudeMeters>
            <DistanceMeters>1233.0530778774</DistanceMeters>
          </Trackpoint>
          <Trackpoint>
            <Time>2019-08-04T14:30:19.000Z</Time>
            <Position>
              <LatitudeDegrees>-33.52460852824151515960693359375</LatitudeDegrees>
              <LongitudeDegrees>-70.226400084793567657470703125</LongitudeDegrees>
            </Position>
            <AltitudeMeters>1521.4000244140625</AltitudeMeters>
            <DistanceMeters>1233.4211147596</DistanceMeters>
          </Trackpoint>
          <Trackpoint>
            <Time>2019-08-04T14:30:27.000Z</Time>
            <Position>
              <LatitudeDegrees>-33.52461188100278377532958984375</LatitudeDegrees>
              <LongitudeDegrees>-70.22640905342996120452880859375</LongitudeDegrees>
            </Position>
            <AltitudeMeters>1521.199951171875</AltitudeMeters>
            <DistanceMeters>1234.3325789843</DistanceMeters>
          </Trackpoint>
          <Trackpoint>
            <Time>2019-08-04T14:30:35.000Z</Time>
            <Position>
              <LatitudeDegrees>-33.5246044211089611053466796875</LatitudeDegrees>
              <LongitudeDegrees>-70.22641710005700588226318359375</LongitudeDegrees>
            </Position>
            <AltitudeMeters>1521</AltitudeMeters>
            <DistanceMeters>1235.4488901189</DistanceMeters>
          </Trackpoint>
          <Trackpoint>
            <Time>2019-08-04T14:30:38.000Z</Time>
            <Position>
              <LatitudeDegrees>-33.52460199035704135894775390625</LatitudeDegrees>
              <LongitudeDegrees>-70.22641005925834178924560546875</LongitudeDegrees>
            </Position>
            <AltitudeMeters>1521</AltitudeMeters>
            <DistanceMeters>1236.1600049344</DistanceMeters>
          </Trackpoint>
          <Trackpoint>
            <Time>2019-08-04T14:30:44.000Z</Time>
            <Position>
              <LatitudeDegrees>-33.5246019065380096435546875</LatitudeDegrees>
              <LongitudeDegrees>-70.22638943977653980255126953125</LongitudeDegrees>
            </Position>
            <AltitudeMeters>1521</AltitudeMeters>
            <DistanceMeters>1238.0723806715</DistanceMeters>
          </Trackpoint>
          <Trackpoint>
            <Time>2019-08-04T14:30:46.000Z</Time>
            <Position>
              <LatitudeDegrees>-33.5246010683476924896240234375</LatitudeDegrees>
              <LongitudeDegrees>-70.22639195434749126434326171875</LongitudeDegrees>
            </Position>
            <AltitudeMeters>1521</AltitudeMeters>
            <DistanceMeters>1238.3237977257</DistanceMeters>
          </Trackpoint>
          <Trackpoint>
            <Time>2019-08-04T14:30:48.000Z</Time>
            <Position>
              <LatitudeDegrees>-33.52459947578608989715576171875</LatitudeDegrees>
              <LongitudeDegrees>-70.22639363072812557220458984375</LongitudeDegrees>
            </Position>
            <AltitudeMeters>1520.800048828125</AltitudeMeters>
            <DistanceMeters>1238.5752147798</DistanceMeters>
          </Trackpoint>
          <Trackpoint>
            <Time>2019-08-04T14:30:49.000Z</Time>
            <Position>
              <LatitudeDegrees>-33.5246003977954387664794921875</LatitudeDegrees>
              <LongitudeDegrees>-70.22639413364231586456298828125</LongitudeDegrees>
            </Position>
            <AltitudeMeters>1520.800048828125</AltitudeMeters>
            <DistanceMeters>1238.6702414942</DistanceMeters>
          </Trackpoint>
          <Trackpoint>
            <Time>2019-08-04T14:30:51.000Z</Time>
            <Position>
              <LatitudeDegrees>-33.52460525929927825927734375</LatitudeDegrees>
              <LongitudeDegrees>-70.22639572620391845703125</LongitudeDegrees>
            </Position>
            <AltitudeMeters>1521</AltitudeMeters>
            <DistanceMeters>1239.2243376944</DistanceMeters>
          </Trackpoint>
          <Trackpoint>
            <Time>2019-08-04T14:30:59.000Z</Time>
            <Position>
              <LatitudeDegrees>-33.52461908943951129913330078125</LatitudeDegrees>
              <LongitudeDegrees>-70.22641559131443500518798828125</LongitudeDegrees>
            </Position>
            <AltitudeMeters>1521</AltitudeMeters>
            <DistanceMeters>1241.6245853423</DistanceMeters>
          </Trackpoint>
          <Trackpoint>
            <Time>2019-08-04T14:31:05.000Z</Time>
            <Position>
              <LatitudeDegrees>-33.52463543415069580078125</LatitudeDegrees>
              <LongitudeDegrees>-70.2264183573424816131591796875</LongitudeDegrees>
            </Position>
            <AltitudeMeters>1520.800048828125</AltitudeMeters>
            <DistanceMeters>1243.457394235</DistanceMeters>
          </Trackpoint>
          <Trackpoint>
            <Time>2019-08-04T14:31:11.000Z</Time>
            <Position>
              <LatitudeDegrees>-33.5246329195797443389892578125</LatitudeDegrees>
              <LongitudeDegrees>-70.22641257382929325103759765625</LongitudeDegrees>
            </Position>
            <AltitudeMeters>1520.800048828125</AltitudeMeters>
            <DistanceMeters>1244.0583959469</DistanceMeters>
          </Trackpoint>
          <Trackpoint>
            <Time>2019-08-04T14:31:16.000Z</Time>
            <Position>
              <LatitudeDegrees>-33.52463350631296634674072265625</LatitudeDegrees>
              <LongitudeDegrees>-70.22641114890575408935546875</LongitudeDegrees>
            </Position>
            <AltitudeMeters>1521.199951171875</AltitudeMeters>
            <DistanceMeters>1244.1927840152</DistanceMeters>
          </Trackpoint>
          <Trackpoint>
            <Time>2019-08-04T14:31:19.000Z</Time>
            <Position>
              <LatitudeDegrees>-33.52463610470294952392578125</LatitudeDegrees>
              <LongitudeDegrees>-70.2264133282005786895751953125</LongitudeDegrees>
            </Position>
            <AltitudeMeters>1521.199951171875</AltitudeMeters>
            <DistanceMeters>1244.5483414229</DistanceMeters>
          </Trackpoint>
          <Trackpoint>
            <Time>2019-08-04T14:31:24.000Z</Time>
            <Position>
              <LatitudeDegrees>-33.5246382839977741241455078125</LatitudeDegrees>
              <LongitudeDegrees>-70.22641626186668872833251953125</LongitudeDegrees>
            </Position>
            <AltitudeMeters>1521.199951171875</AltitudeMeters>
            <DistanceMeters>1244.9038988307</DistanceMeters>
          </Trackpoint>
          <Trackpoint>
            <Time>2019-08-04T14:31:35.000Z</Time>
            <Position>
              <LatitudeDegrees>-33.52464012801647186279296875</LatitudeDegrees>
              <LongitudeDegrees>-70.22642095573246479034423828125</LongitudeDegrees>
            </Position>
            <AltitudeMeters>1521</AltitudeMeters>
            <DistanceMeters>1245.3884419016</DistanceMeters>
          </Trackpoint>
          <Trackpoint>
            <Time>2019-08-04T14:31:36.000Z</Time>
            <Position>
              <LatitudeDegrees>-33.524641133844852447509765625</LatitudeDegrees>
              <LongitudeDegrees>-70.226419866085052490234375</LongitudeDegrees>
            </Position>
            <AltitudeMeters>1521</AltitudeMeters>
            <DistanceMeters>1245.5228299698</DistanceMeters>
          </Trackpoint>
          <Trackpoint>
            <Time>2019-08-04T14:31:43.000Z</Time>
            <Position>
              <LatitudeDegrees>-33.52463132701814174652099609375</LatitudeDegrees>
              <LongitudeDegrees>-70.2264200337231159210205078125</LongitudeDegrees>
            </Position>
            <AltitudeMeters>1520.4000244140625</AltitudeMeters>
            <DistanceMeters>1246.6146037974</DistanceMeters>
          </Trackpoint>
          <Trackpoint>
            <Time>2019-08-04T14:31:48.000Z</Time>
            <Position>
              <LatitudeDegrees>-33.52463074028491973876953125</LatitudeDegrees>
              <LongitudeDegrees>-70.22642321884632110595703125</LongitudeDegrees>
            </Position>
            <AltitudeMeters>1520.4000244140625</AltitudeMeters>
            <DistanceMeters>1246.9151046534</DistanceMeters>
          </Trackpoint>
          <Trackpoint>
            <Time>2019-08-04T14:31:50.000Z</Time>
            <Position>
              <LatitudeDegrees>-33.524631075561046600341796875</LatitudeDegrees>
              <LongitudeDegrees>-70.2264240570366382598876953125</LongitudeDegrees>
            </Position>
            <AltitudeMeters>1520.4000244140625</AltitudeMeters>
            <DistanceMeters>1247.0101313677</DistanceMeters>
          </Trackpoint>
          <Trackpoint>
            <Time>2019-08-04T14:31:52.000Z</Time>
            <Position>
              <LatitudeDegrees>-33.5246278904378414154052734375</LatitudeDegrees>
              <LongitudeDegrees>-70.22642363794147968292236328125</LongitudeDegrees>
            </Position>
            <AltitudeMeters>1520.4000244140625</AltitudeMeters>
            <DistanceMeters>1247.3656887755</DistanceMeters>
          </Trackpoint>
          <Trackpoint>
            <Time>2019-08-04T14:31:59.000Z</Time>
            <Position>
              <LatitudeDegrees>-33.52462613023817539215087890625</LatitudeDegrees>
              <LongitudeDegrees>-70.22642229683697223663330078125</LongitudeDegrees>
            </Position>
            <AltitudeMeters>1520.4000244140625</AltitudeMeters>
            <DistanceMeters>1247.5557422043</DistanceMeters>
          </Trackpoint>
          <Trackpoint>
            <Time>2019-08-04T14:32:08.000Z</Time>
            <Position>
              <LatitudeDegrees>-33.52461540140211582183837890625</LatitudeDegrees>
              <LongitudeDegrees>-70.226430930197238922119140625</LongitudeDegrees>
            </Position>
            <AltitudeMeters>1520.4000244140625</AltitudeMeters>
            <DistanceMeters>1248.9906141251</DistanceMeters>
          </Trackpoint>
          <Trackpoint>
            <Time>2019-08-04T14:32:10.000Z</Time>
            <Position>
              <LatitudeDegrees>-33.5246128030121326446533203125</LatitudeDegrees>
              <LongitudeDegrees>-70.22643084637820720672607421875</LongitudeDegrees>
            </Position>
            <AltitudeMeters>1520.4000244140625</AltitudeMeters>
            <DistanceMeters>1249.2756942682</DistanceMeters>
          </Trackpoint>
          <Trackpoint>
            <Time>2019-08-04T14:32:20.000Z</Time>
            <Position>
              <LatitudeDegrees>-33.52461758069694042205810546875</LatitudeDegrees>
              <LongitudeDegrees>-70.22641324438154697418212890625</LongitudeDegrees>
            </Position>
            <AltitudeMeters>1520.4000244140625</AltitudeMeters>
            <DistanceMeters>1250.9914462668</DistanceMeters>
          </Trackpoint>
          <Trackpoint>
            <Time>2019-08-04T14:32:25.000Z</Time>
            <Position>
              <LatitudeDegrees>-33.52462093345820903778076171875</LatitudeDegrees>
              <LongitudeDegrees>-70.226410143077373504638671875</LongitudeDegrees>
            </Position>
            <AltitudeMeters>1520.4000244140625</AltitudeMeters>
            <DistanceMeters>1251.4569801911</DistanceMeters>
          </Trackpoint>
          <Trackpoint>
            <Time>2019-08-04T14:32:29.000Z</Time>
            <Position>
              <LatitudeDegrees>-33.5246262140572071075439453125</LatitudeDegrees>
              <LongitudeDegrees>-70.22641257382929325103759765625</LongitudeDegrees>
            </Position>
            <AltitudeMeters>1520.4000244140625</AltitudeMeters>
            <DistanceMeters>1252.0873161043</DistanceMeters>
          </Trackpoint>
          <Trackpoint>
            <Time>2019-08-04T14:32:30.000Z</Time>
            <Position>
              <LatitudeDegrees>-33.524626381695270538330078125</LatitudeDegrees>
              <LongitudeDegrees>-70.2264131605625152587890625</LongitudeDegrees>
            </Position>
            <AltitudeMeters>1520.4000244140625</AltitudeMeters>
            <DistanceMeters>1252.1823428187</DistanceMeters>
          </Trackpoint>
          <Trackpoint>
            <Time>2019-08-04T14:32:34.000Z</Time>
            <Position>
              <LatitudeDegrees>-33.524627387523651123046875</LatitudeDegrees>
              <LongitudeDegrees>-70.226413495838642120361328125</LongitudeDegrees>
            </Position>
            <AltitudeMeters>1520.4000244140625</AltitudeMeters>
            <DistanceMeters>1252.316730887</DistanceMeters>
          </Trackpoint>
          <Trackpoint>
            <Time>2019-08-04T14:32:37.000Z</Time>
            <Position>
              <LatitudeDegrees>-33.5246272198855876922607421875</LatitudeDegrees>
              <LongitudeDegrees>-70.226418189704418182373046875</LongitudeDegrees>
            </Position>
            <AltitudeMeters>1520.4000244140625</AltitudeMeters>
            <DistanceMeters>1252.7624456856</DistanceMeters>
          </Trackpoint>
          <Trackpoint>
            <Time>2019-08-04T14:32:39.000Z</Time>
            <Position>
              <LatitudeDegrees>-33.5246260464191436767578125</LatitudeDegrees>
              <LongitudeDegrees>-70.22641927935183048248291015625</LongitudeDegrees>
            </Position>
            <AltitudeMeters>1520.4000244140625</AltitudeMeters>
            <DistanceMeters>1252.8968337539</DistanceMeters>
          </Trackpoint>
          <Trackpoint>
            <Time>2019-08-04T14:32:42.000Z</Time>
            <Position>
              <LatitudeDegrees>-33.524623028934001922607421875</LatitudeDegrees>
              <LongitudeDegrees>-70.2264190278947353363037109375</LongitudeDegrees>
            </Position>
            <AltitudeMeters>1520.4000244140625</AltitudeMeters>
            <DistanceMeters>1253.2394574451</DistanceMeters>
          </Trackpoint>
          <Trackpoint>
            <Time>2019-08-04T14:32:44.000Z</Time>
            <Position>
              <LatitudeDegrees>-33.5246221907436847686767578125</LatitudeDegrees>
              <LongitudeDegrees>-70.2264200337231159210205078125</LongitudeDegrees>
            </Position>
            <AltitudeMeters>1520.4000244140625</AltitudeMeters>
            <DistanceMeters>1253.3738455133</DistanceMeters>
          </Trackpoint>
          <Trackpoint>
            <Time>2019-08-04T14:32:45.000Z</Time>
            <Position>
              <LatitudeDegrees>-33.52462210692465305328369140625</LatitudeDegrees>
              <LongitudeDegrees>-70.2264203689992427825927734375</LongitudeDegrees>
            </Position>
            <AltitudeMeters>1520.4000244140625</AltitudeMeters>
            <DistanceMeters>1253.3738455133</DistanceMeters>
          </Trackpoint>
          <Trackpoint>
            <Time>2019-08-04T14:32:48.000Z</Time>
            <Position>
              <LatitudeDegrees>-33.524623028934001922607421875</LatitudeDegrees>
              <LongitudeDegrees>-70.22641978226602077484130859375</LongitudeDegrees>
            </Position>
            <AltitudeMeters>1520.4000244140625</AltitudeMeters>
            <DistanceMeters>1253.5082335816</DistanceMeters>
          </Trackpoint>
          <Trackpoint>
            <Time>2019-08-04T14:32:57.000Z</Time>
            <Position>
              <LatitudeDegrees>-33.5246208496391773223876953125</LatitudeDegrees>
              <LongitudeDegrees>-70.22639128379523754119873046875</LongitudeDegrees>
            </Position>
            <AltitudeMeters>1520.4000244140625</AltitudeMeters>
            <DistanceMeters>1256.1638859878</DistanceMeters>
          </Trackpoint>
          <Trackpoint>
            <Time>2019-08-04T14:33:08.000Z</Time>
            <Position>
              <LatitudeDegrees>-33.5246255435049533843994140625</LatitudeDegrees>
              <LongitudeDegrees>-70.2263922058045864105224609375</LongitudeDegrees>
            </Position>
            <AltitudeMeters>1520.4000244140625</AltitudeMeters>
            <DistanceMeters>1256.6929723416</DistanceMeters>
          </Trackpoint>
          <Trackpoint>
            <Time>2019-08-04T14:33:12.000Z</Time>
            <Position>
              <LatitudeDegrees>-33.52462529204785823822021484375</LatitudeDegrees>
              <LongitudeDegrees>-70.2263932116329669952392578125</LongitudeDegrees>
            </Position>
            <AltitudeMeters>1520.4000244140625</AltitudeMeters>
            <DistanceMeters>1256.787999056</DistanceMeters>
          </Trackpoint>
          <Trackpoint>
            <Time>2019-08-04T14:33:13.000Z</Time>
            <Position>
              <LatitudeDegrees>-33.5246235318481922149658203125</LatitudeDegrees>
              <LongitudeDegrees>-70.2263938821852207183837890625</LongitudeDegrees>
            </Position>
            <AltitudeMeters>1520.4000244140625</AltitudeMeters>
            <DistanceMeters>1257.000485249</DistanceMeters>
          </Trackpoint>
          <Trackpoint>
            <Time>2019-08-04T14:33:14.000Z</Time>
            <Position>
              <LatitudeDegrees>-33.52462328039109706878662109375</LatitudeDegrees>
              <LongitudeDegrees>-70.2263928763568401336669921875</LongitudeDegrees>
            </Position>
            <AltitudeMeters>1520.4000244140625</AltitudeMeters>
            <DistanceMeters>1257.1348733172</DistanceMeters>
          </Trackpoint>
          <Trackpoint>
            <Time>2019-08-04T14:33:17.000Z</Time>
            <Position>
              <LatitudeDegrees>-33.524622358381748199462890625</LatitudeDegrees>
              <LongitudeDegrees>-70.22639279253780841827392578125</LongitudeDegrees>
            </Position>
            <AltitudeMeters>1520.4000244140625</AltitudeMeters>
            <DistanceMeters>1257.2692613855</DistanceMeters>
          </Trackpoint>
          <Trackpoint>
            <Time>2019-08-04T14:33:19.000Z</Time>
            <Position>
              <LatitudeDegrees>-33.52461892180144786834716796875</LatitudeDegrees>
              <LongitudeDegrees>-70.226392038166522979736328125</LongitudeDegrees>
            </Position>
            <AltitudeMeters>1520.4000244140625</AltitudeMeters>
            <DistanceMeters>1257.6724255902</DistanceMeters>
          </Trackpoint>
          <Trackpoint>
            <Time>2019-08-04T14:33:22.000Z</Time>
            <Position>
              <LatitudeDegrees>-33.52461732923984527587890625</LatitudeDegrees>
              <LongitudeDegrees>-70.22640016861259937286376953125</LongitudeDegrees>
            </Position>
            <AltitudeMeters>1520.4000244140625</AltitudeMeters>
            <DistanceMeters>1258.4444262673</DistanceMeters>
          </Trackpoint>
          <Trackpoint>
            <Time>2019-08-04T14:33:27.000Z</Time>
            <Position>
              <LatitudeDegrees>-33.52461732923984527587890625</LatitudeDegrees>
              <LongitudeDegrees>-70.22640184499323368072509765625</LongitudeDegrees>
            </Position>
            <AltitudeMeters>1520.4000244140625</AltitudeMeters>
            <DistanceMeters>1258.5788143355</DistanceMeters>
          </Trackpoint>
          <Trackpoint>
            <Time>2019-08-04T14:33:29.000Z</Time>
            <Position>
              <LatitudeDegrees>-33.52462110109627246856689453125</LatitudeDegrees>
              <LongitudeDegrees>-70.22640586830675601959228515625</LongitudeDegrees>
            </Position>
            <AltitudeMeters>1520.4000244140625</AltitudeMeters>
            <DistanceMeters>1259.1329105357</DistanceMeters>
          </Trackpoint>
          <Trackpoint>
            <Time>2019-08-04T14:33:32.000Z</Time>
            <Position>
              <LatitudeDegrees>-33.52461858652532100677490234375</LatitudeDegrees>
              <LongitudeDegrees>-70.22640519775450229644775390625</LongitudeDegrees>
            </Position>
            <AltitudeMeters>1520.4000244140625</AltitudeMeters>
            <DistanceMeters>1259.4179906788</DistanceMeters>
          </Trackpoint>
          <Trackpoint>
            <Time>2019-08-04T14:33:42.000Z</Time>
            <Position>
              <LatitudeDegrees>-33.52460869587957859039306640625</LatitudeDegrees>
              <LongitudeDegrees>-70.22640452720224857330322265625</LongitudeDegrees>
            </Position>
            <AltitudeMeters>1520.4000244140625</AltitudeMeters>
            <DistanceMeters>1260.5180044258</DistanceMeters>
          </Trackpoint>
          <Trackpoint>
            <Time>2019-08-04T14:33:56.000Z</Time>
            <Position>
              <LatitudeDegrees>-33.52459629066288471221923828125</LatitudeDegrees>
              <LongitudeDegrees>-70.2264010906219482421875</LongitudeDegrees>
            </Position>
            <AltitudeMeters>1520.4000244140625</AltitudeMeters>
            <DistanceMeters>1261.9338705814</DistanceMeters>
          </Trackpoint>
          <Trackpoint>
            <Time>2019-08-04T14:33:59.000Z</Time>
            <Position>
              <LatitudeDegrees>-33.524589501321315765380859375</LatitudeDegrees>
              <LongitudeDegrees>-70.2264103107154369354248046875</LongitudeDegrees>
            </Position>
            <AltitudeMeters>1520.4000244140625</AltitudeMeters>
            <DistanceMeters>1263.0741911538</DistanceMeters>
          </Trackpoint>
          <Trackpoint>
            <Time>2019-08-04T14:34:05.000Z</Time>
            <Position>
              <LatitudeDegrees>-33.5245938599109649658203125</LatitudeDegrees>
              <LongitudeDegrees>-70.2264186926186084747314453125</LongitudeDegrees>
            </Position>
            <AltitudeMeters>1520.4000244140625</AltitudeMeters>
            <DistanceMeters>1263.9856553785</DistanceMeters>
          </Trackpoint>
          <Trackpoint>
            <Time>2019-08-04T14:34:06.000Z</Time>
            <Position>
              <LatitudeDegrees>-33.524594865739345550537109375</LatitudeDegrees>
              <LongitudeDegrees>-70.2264210395514965057373046875</LongitudeDegrees>
            </Position>
            <AltitudeMeters>1520.4000244140625</AltitudeMeters>
            <DistanceMeters>1264.2184223406</DistanceMeters>
          </Trackpoint>
          <Trackpoint>
            <Time>2019-08-04T14:34:08.000Z</Time>
            <Position>
              <LatitudeDegrees>-33.524601571261882781982421875</LatitudeDegrees>
              <LongitudeDegrees>-70.2264230512082576751708984375</LongitudeDegrees>
            </Position>
            <AltitudeMeters>1520.4000244140625</AltitudeMeters>
            <DistanceMeters>1264.9904230176</DistanceMeters>
          </Trackpoint>
          <Trackpoint>
            <Time>2019-08-04T14:34:13.000Z</Time>
            <Position>
              <LatitudeDegrees>-33.524604924023151397705078125</LatitudeDegrees>
              <LongitudeDegrees>-70.22643336094915866851806640625</LongitudeDegrees>
            </Position>
            <AltitudeMeters>1520.4000244140625</AltitudeMeters>
            <DistanceMeters>1266.0138920536</DistanceMeters>
          </Trackpoint>
          <Trackpoint>
            <Time>2019-08-04T14:34:15.000Z</Time>
            <Position>
              <LatitudeDegrees>-33.52461003698408603668212890625</LatitudeDegrees>
              <LongitudeDegrees>-70.22643554024398326873779296875</LongitudeDegrees>
            </Position>
            <AltitudeMeters>1520.4000244140625</AltitudeMeters>
            <DistanceMeters>1266.6223599115</DistanceMeters>
          </Trackpoint>
          <Trackpoint>
            <Time>2019-08-04T14:34:28.000Z</Time>
            <Position>
              <LatitudeDegrees>-33.524670638144016265869140625</LatitudeDegrees>
              <LongitudeDegrees>-70.22644895128905773162841796875</LongitudeDegrees>
            </Position>
            <AltitudeMeters>1520.4000244140625</AltitudeMeters>
            <DistanceMeters>1273.481419488</DistanceMeters>
          </Trackpoint>
          <Trackpoint>
            <Time>2019-08-04T14:34:32.000Z</Time>
            <Position>
              <LatitudeDegrees>-33.52470056153833866119384765625</LatitudeDegrees>
              <LongitudeDegrees>-70.22645649500191211700439453125</LongitudeDegrees>
            </Position>
            <AltitudeMeters>1520.4000244140625</AltitudeMeters>
            <DistanceMeters>1276.8838536168</DistanceMeters>
          </Trackpoint>
          <Trackpoint>
            <Time>2019-08-04T14:34:42.000Z</Time>
            <Position>
              <LatitudeDegrees>-33.5247784294188022613525390625</LatitudeDegrees>
              <LongitudeDegrees>-70.22644476033747196197509765625</LongitudeDegrees>
            </Position>
            <AltitudeMeters>1520.4000244140625</AltitudeMeters>
            <DistanceMeters>1285.6190780531</DistanceMeters>
          </Trackpoint>
          <Trackpoint>
            <Time>2019-08-04T14:34:47.000Z</Time>
            <Position>
              <LatitudeDegrees>-33.52481287904083728790283203125</LatitudeDegrees>
              <LongitudeDegrees>-70.22644006647169589996337890625</LongitudeDegrees>
            </Position>
            <AltitudeMeters>1520.4000244140625</AltitudeMeters>
            <DistanceMeters>1289.4790814381</DistanceMeters>
          </Trackpoint>
          <Trackpoint>
            <Time>2019-08-04T14:34:48.000Z</Time>
            <Position>
              <LatitudeDegrees>-33.52481991983950138092041015625</LatitudeDegrees>
              <LongitudeDegrees>-70.22643939591944217681884765625</LongitudeDegrees>
            </Position>
            <AltitudeMeters>1520.4000244140625</AltitudeMeters>
            <DistanceMeters>1290.2684326113</DistanceMeters>
          </Trackpoint>
          <Trackpoint>
            <Time>2019-08-04T14:34:54.000Z</Time>
            <Position>
              <LatitudeDegrees>-33.5248486697673797607421875</LatitudeDegrees>
              <LongitudeDegrees>-70.22643000818789005279541015625</LongitudeDegrees>
            </Position>
            <AltitudeMeters>1520.4000244140625</AltitudeMeters>
            <DistanceMeters>1293.5848513286</DistanceMeters>
          </Trackpoint>
          <Trackpoint>
            <Time>2019-08-04T14:35:01.000Z</Time>
            <Position>
              <LatitudeDegrees>-33.52490474469959735870361328125</LatitudeDegrees>
              <LongitudeDegrees>-70.2264086343348026275634765625</LongitudeDegrees>
            </Position>
            <AltitudeMeters>1526.199951171875</AltitudeMeters>
            <DistanceMeters>1300.1334262142</DistanceMeters>
          </Trackpoint>
          <Trackpoint>
            <Time>2019-08-04T14:35:06.000Z</Time>
            <Position>
              <LatitudeDegrees>-33.5249547846615314483642578125</LatitudeDegrees>
              <LongitudeDegrees>-70.226404108107089996337890625</LongitudeDegrees>
            </Position>
            <AltitudeMeters>1527.199951171875</AltitudeMeters>
            <DistanceMeters>1305.7182166344</DistanceMeters>
          </Trackpoint>
          <Trackpoint>
            <Time>2019-08-04T14:35:09.000Z</Time>
            <Position>
              <LatitudeDegrees>-33.52498152293264865875244140625</LatitudeDegrees>
              <LongitudeDegrees>-70.22639882750809192657470703125</LongitudeDegrees>
            </Position>
            <AltitudeMeters>1527.4000244140625</AltitudeMeters>
            <DistanceMeters>1308.735221284</DistanceMeters>
          </Trackpoint>
          <Trackpoint>
            <Time>2019-08-04T14:35:18.000Z</Time>
            <Position>
              <LatitudeDegrees>-33.525021336972713470458984375</LatitudeDegrees>
              <LongitudeDegrees>-70.2263684011995792388916015625</LongitudeDegrees>
            </Position>
            <AltitudeMeters>1528.4000244140625</AltitudeMeters>
            <DistanceMeters>1313.9901212607</DistanceMeters>
          </Trackpoint>
          <Trackpoint>
            <Time>2019-08-04T14:35:21.000Z</Time>
            <Position>
              <LatitudeDegrees>-33.5250285454094409942626953125</LatitudeDegrees>
              <LongitudeDegrees>-70.22636446170508861541748046875</LongitudeDegrees>
            </Position>
            <AltitudeMeters>1527.800048828125</AltitudeMeters>
            <DistanceMeters>1314.8713627567</DistanceMeters>
          </Trackpoint>
          <Trackpoint>
            <Time>2019-08-04T14:35:25.000Z</Time>
            <Position>
              <LatitudeDegrees>-33.5250272043049335479736328125</LatitudeDegrees>
              <LongitudeDegrees>-70.22636194713413715362548828125</LongitudeDegrees>
            </Position>
            <AltitudeMeters>1527.800048828125</AltitudeMeters>
            <DistanceMeters>1315.1401388932</DistanceMeters>
          </Trackpoint>
          <Trackpoint>
            <Time>2019-08-04T14:35:39.000Z</Time>
            <Position>
              <LatitudeDegrees>-33.52506299503147602081298828125</LatitudeDegrees>
              <LongitudeDegrees>-70.2263761125504970550537109375</LongitudeDegrees>
            </Position>
            <AltitudeMeters>1529.5999755859375</AltitudeMeters>
            <DistanceMeters>1319.3342524959</DistanceMeters>
          </Trackpoint>
          <Trackpoint>
            <Time>2019-08-04T14:35:41.000Z</Time>
            <Position>
              <LatitudeDegrees>-33.5250681079924106597900390625</LatitudeDegrees>
              <LongitudeDegrees>-70.22637552581727504730224609375</LongitudeDegrees>
            </Position>
            <AltitudeMeters>1530</AltitudeMeters>
            <DistanceMeters>1319.8964381197</DistanceMeters>
          </Trackpoint>
          <Trackpoint>
            <Time>2019-08-04T14:35:49.000Z</Time>
            <Position>
              <LatitudeDegrees>-33.5250862129032611846923828125</LatitudeDegrees>
              <LongitudeDegrees>-70.2263576723635196685791015625</LongitudeDegrees>
            </Position>
            <AltitudeMeters>1530.4000244140625</AltitudeMeters>
            <DistanceMeters>1322.504051504</DistanceMeters>
          </Trackpoint>
          <Trackpoint>
            <Time>2019-08-04T14:35:55.000Z</Time>
            <Position>
              <LatitudeDegrees>-33.52515150792896747589111328125</LatitudeDegrees>
              <LongitudeDegrees>-70.22633713670074939727783203125</LongitudeDegrees>
            </Position>
            <AltitudeMeters>1530.5999755859375</AltitudeMeters>
            <DistanceMeters>1330.017173881</DistanceMeters>
          </Trackpoint>
          <Trackpoint>
            <Time>2019-08-04T14:35:56.000Z</Time>
            <Position>
              <LatitudeDegrees>-33.5251571238040924072265625</LatitudeDegrees>
              <LongitudeDegrees>-70.226333029568195343017578125</LongitudeDegrees>
            </Position>
            <AltitudeMeters>1530.5999755859375</AltitudeMeters>
            <DistanceMeters>1330.747087924</DistanceMeters>
          </Trackpoint>
          <Trackpoint>
            <Time>2019-08-04T14:35:59.000Z</Time>
            <Position>
              <LatitudeDegrees>-33.525175563991069793701171875</LatitudeDegrees>
              <LongitudeDegrees>-70.2263305149972438812255859375</LongitudeDegrees>
            </Position>
            <AltitudeMeters>1530.5999755859375</AltitudeMeters>
            <DistanceMeters>1332.811596602</DistanceMeters>
          </Trackpoint>
          <Trackpoint>
            <Time>2019-08-04T14:36:00.000Z</Time>
            <Position>
              <LatitudeDegrees>-33.52518486790359020233154296875</LatitudeDegrees>
              <LongitudeDegrees>-70.22633135318756103515625</LongitudeDegrees>
            </Position>
            <AltitudeMeters>1530.5999755859375</AltitudeMeters>
            <DistanceMeters>1333.8525621025</DistanceMeters>
          </Trackpoint>
          <Trackpoint>
            <Time>2019-08-04T14:36:03.000Z</Time>
            <Position>
              <LatitudeDegrees>-33.5252186469733715057373046875</LatitudeDegrees>
              <LongitudeDegrees>-70.22634350694715976715087890625</LongitudeDegrees>
            </Position>
            <AltitudeMeters>1530.5999755859375</AltitudeMeters>
            <DistanceMeters>1337.7775220276</DistanceMeters>
          </Trackpoint>
          <Trackpoint>
            <Time>2019-08-04T14:36:10.000Z</Time>
            <Position>
              <LatitudeDegrees>-33.5252561978995800018310546875</LatitudeDegrees>
              <LongitudeDegrees>-70.226338393986225128173828125</LongitudeDegrees>
            </Position>
            <AltitudeMeters>1531</AltitudeMeters>
            <DistanceMeters>1341.9845340112</DistanceMeters>
          </Trackpoint>
          <Trackpoint>
            <Time>2019-08-04T14:36:13.000Z</Time>
            <Position>
              <LatitudeDegrees>-33.52525477297604084014892578125</LatitudeDegrees>
              <LongitudeDegrees>-70.226341076195240020751953125</LongitudeDegrees>
            </Position>
            <AltitudeMeters>1531.5999755859375</AltitudeMeters>
            <DistanceMeters>1342.2850348672</DistanceMeters>
          </Trackpoint>
          <Trackpoint>
            <Time>2019-08-04T14:36:18.000Z</Time>
            <Position>
              <LatitudeDegrees>-33.52526617236435413360595703125</LatitudeDegrees>
              <LongitudeDegrees>-70.22637167014181613922119140625</LongitudeDegrees>
            </Position>
            <AltitudeMeters>1532.800048828125</AltitudeMeters>
            <DistanceMeters>1345.3934398915</DistanceMeters>
          </Trackpoint>
          <Trackpoint>
            <Time>2019-08-04T14:36:24.000Z</Time>
            <Position>
              <LatitudeDegrees>-33.52527488954365253448486328125</LatitudeDegrees>
              <LongitudeDegrees>-70.22641978226602077484130859375</LongitudeDegrees>
            </Position>
            <AltitudeMeters>1533.800048828125</AltitudeMeters>
            <DistanceMeters>1349.9606574893</DistanceMeters>
          </Trackpoint>
          <Trackpoint>
            <Time>2019-08-04T14:36:29.000Z</Time>
            <Position>
              <LatitudeDegrees>-33.5252810083329677581787109375</LatitudeDegrees>
              <LongitudeDegrees>-70.2264560759067535400390625</LongitudeDegrees>
            </Position>
            <AltitudeMeters>1534.800048828125</AltitudeMeters>
            <DistanceMeters>1353.396106501</DistanceMeters>
          </Trackpoint>
          <Trackpoint>
            <Time>2019-08-04T14:36:33.000Z</Time>
            <Position>
              <LatitudeDegrees>-33.52529483847320079803466796875</LatitudeDegrees>
              <LongitudeDegrees>-70.22649555467069149017333984375</LongitudeDegrees>
            </Position>
            <AltitudeMeters>1535.4000244140625</AltitudeMeters>
            <DistanceMeters>1357.369086947</DistanceMeters>
          </Trackpoint>
          <Trackpoint>
            <Time>2019-08-04T14:36:39.000Z</Time>
            <Position>
              <LatitudeDegrees>-33.52529056370258331298828125</LatitudeDegrees>
              <LongitudeDegrees>-70.226528830826282501220703125</LongitudeDegrees>
            </Position>
            <AltitudeMeters>1536</AltitudeMeters>
            <DistanceMeters>1360.4919834485</DistanceMeters>
          </Trackpoint>
          <Trackpoint>
            <Time>2019-08-04T14:36:45.000Z</Time>
            <Position>
              <LatitudeDegrees>-33.52524538524448871612548828125</LatitudeDegrees>
              <LongitudeDegrees>-70.226549617946147918701171875</LongitudeDegrees>
            </Position>
            <AltitudeMeters>1537.199951171875</AltitudeMeters>
            <DistanceMeters>1365.8775758522</DistanceMeters>
          </Trackpoint>
          <Trackpoint>
            <Time>2019-08-04T14:36:51.000Z</Time>
            <Position>
              <LatitudeDegrees>-33.52520096115767955780029296875</LatitudeDegrees>
              <LongitudeDegrees>-70.22658943198621273040771484375</LongitudeDegrees>
            </Position>
            <AltitudeMeters>1538.199951171875</AltitudeMeters>
            <DistanceMeters>1372.0506563306</DistanceMeters>
          </Trackpoint>
          <Trackpoint>
            <Time>2019-08-04T14:36:58.000Z</Time>
            <Position>
              <LatitudeDegrees>-33.52516575716435909271240234375</LatitudeDegrees>
              <LongitudeDegrees>-70.22661902010440826416015625</LongitudeDegrees>
            </Position>
            <AltitudeMeters>1539</AltitudeMeters>
            <DistanceMeters>1376.8351357992</DistanceMeters>
          </Trackpoint>
          <Trackpoint>
            <Time>2019-08-04T14:36:59.000Z</Time>
            <Position>
              <LatitudeDegrees>-33.52516089566051959991455078125</LatitudeDegrees>
              <LongitudeDegrees>-70.226623378694057464599609375</LongitudeDegrees>
            </Position>
            <AltitudeMeters>1539.199951171875</AltitudeMeters>
            <DistanceMeters>1377.5070761405</DistanceMeters>
          </Trackpoint>
          <Trackpoint>
            <Time>2019-08-04T14:37:03.000Z</Time>
            <Position>
              <LatitudeDegrees>-33.52514061145484447479248046875</LatitudeDegrees>
              <LongitudeDegrees>-70.226630084216594696044921875</LongitudeDegrees>
            </Position>
            <AltitudeMeters>1539.5999755859375</AltitudeMeters>
            <DistanceMeters>1379.8502121753</DistanceMeters>
          </Trackpoint>
          <Trackpoint>
            <Time>2019-08-04T14:37:08.000Z</Time>
            <Position>
              <LatitudeDegrees>-33.52513876743614673614501953125</LatitudeDegrees>
              <LongitudeDegrees>-70.22663377225399017333984375</LongitudeDegrees>
            </Position>
            <AltitudeMeters>1540.199951171875</AltitudeMeters>
            <DistanceMeters>1380.2533763801</DistanceMeters>
          </Trackpoint>
          <Trackpoint>
            <Time>2019-08-04T14:37:11.000Z</Time>
            <Position>
              <LatitudeDegrees>-33.52513239718973636627197265625</LatitudeDegrees>
              <LongitudeDegrees>-70.226631425321102142333984375</LongitudeDegrees>
            </Position>
            <AltitudeMeters>1540.5999755859375</AltitudeMeters>
            <DistanceMeters>1381.0016174773</DistanceMeters>
          </Trackpoint>
          <Trackpoint>
            <Time>2019-08-04T14:37:22.000Z</Time>
            <Position>
              <LatitudeDegrees>-33.52513843216001987457275390625</LatitudeDegrees>
              <LongitudeDegrees>-70.226656906306743621826171875</LongitudeDegrees>
            </Position>
            <AltitudeMeters>1540.800048828125</AltitudeMeters>
            <DistanceMeters>1383.4576490456</DistanceMeters>
          </Trackpoint>
          <Trackpoint>
            <Time>2019-08-04T14:37:26.000Z</Time>
            <Position>
              <LatitudeDegrees>-33.525146059691905975341796875</LatitudeDegrees>
              <LongitudeDegrees>-70.2266738377511501312255859375</LongitudeDegrees>
            </Position>
            <AltitudeMeters>1540.800048828125</AltitudeMeters>
            <DistanceMeters>1385.2405082403</DistanceMeters>
          </Trackpoint>
          <Trackpoint>
            <Time>2019-08-04T14:37:35.000Z</Time>
            <Position>
              <LatitudeDegrees>-33.52518168278038501739501953125</LatitudeDegrees>
              <LongitudeDegrees>-70.226676352322101593017578125</LongitudeDegrees>
            </Position>
            <AltitudeMeters>1541.199951171875</AltitudeMeters>
            <DistanceMeters>1389.2112151637</DistanceMeters>
          </Trackpoint>
          <Trackpoint>
            <Time>2019-08-04T14:37:37.000Z</Time>
            <Position>
              <LatitudeDegrees>-33.525187969207763671875</LatitudeDegrees>
              <LongitudeDegrees>-70.22667844779789447784423828125</LongitudeDegrees>
            </Position>
            <AltitudeMeters>1541.199951171875</AltitudeMeters>
            <DistanceMeters>1389.9349170593</DistanceMeters>
          </Trackpoint>
          <Trackpoint>
            <Time>2019-08-04T14:37:38.000Z</Time>
            <Position>
              <LatitudeDegrees>-33.52519023232161998748779296875</LatitudeDegrees>
              <LongitudeDegrees>-70.2266786992549896240234375</LongitudeDegrees>
            </Position>
            <AltitudeMeters>1541.4000244140625</AltitudeMeters>
            <DistanceMeters>1390.2036931958</DistanceMeters>
          </Trackpoint>
          <Trackpoint>
            <Time>2019-08-04T14:37:46.000Z</Time>
            <Position>
              <LatitudeDegrees>-33.52520146407186985015869140625</LatitudeDegrees>
              <LongitudeDegrees>-70.22666864097118377685546875</LongitudeDegrees>
            </Position>
            <AltitudeMeters>1542.4000244140625</AltitudeMeters>
            <DistanceMeters>1391.7651414466</DistanceMeters>
          </Trackpoint>
          <Trackpoint>
            <Time>2019-08-04T14:37:51.000Z</Time>
            <Position>
              <LatitudeDegrees>-33.525227867066860198974609375</LatitudeDegrees>
              <LongitudeDegrees>-70.226683728396892547607421875</LongitudeDegrees>
            </Position>
            <AltitudeMeters>1542.800048828125</AltitudeMeters>
            <DistanceMeters>1395.0211067021</DistanceMeters>
          </Trackpoint>
          <Trackpoint>
            <Time>2019-08-04T14:37:53.000Z</Time>
            <Position>
              <LatitudeDegrees>-33.5252354107797145843505859375</LatitudeDegrees>
              <LongitudeDegrees>-70.22669118829071521759033203125</LongitudeDegrees>
            </Position>
            <AltitudeMeters>1543</AltitudeMeters>
            <DistanceMeters>1396.1128805297</DistanceMeters>
          </Trackpoint>
          <Trackpoint>
            <Time>2019-08-04T14:37:57.000Z</Time>
            <Position>
              <LatitudeDegrees>-33.52527203969657421112060546875</LatitudeDegrees>
              <LongitudeDegrees>-70.22671021521091461181640625</LongitudeDegrees>
            </Position>
            <AltitudeMeters>1543.4000244140625</AltitudeMeters>
            <DistanceMeters>1400.555824048</DistanceMeters>
          </Trackpoint>
          <Trackpoint>
            <Time>2019-08-04T14:38:01.000Z</Time>
            <Position>
              <LatitudeDegrees>-33.5253024660050868988037109375</LatitudeDegrees>
              <LongitudeDegrees>-70.22673896513879299163818359375</LongitudeDegrees>
            </Position>
            <AltitudeMeters>1543.800048828125</AltitudeMeters>
            <DistanceMeters>1404.8667285147</DistanceMeters>
          </Trackpoint>
          <Trackpoint>
            <Time>2019-08-04T14:38:05.000Z</Time>
            <Position>
              <LatitudeDegrees>-33.5253135301172733306884765625</LatitudeDegrees>
              <LongitudeDegrees>-70.22676025517284870147705078125</LongitudeDegrees>
            </Position>
            <AltitudeMeters>1544.4000244140625</AltitudeMeters>
            <DistanceMeters>1407.1943981361</DistanceMeters>
          </Trackpoint>
          <Trackpoint>
            <Time>2019-08-04T14:38:08.000Z</Time>
            <Position>
              <LatitudeDegrees>-33.525303639471530914306640625</LatitudeDegrees>
              <LongitudeDegrees>-70.22677592933177947998046875</LongitudeDegrees>
            </Position>
            <AltitudeMeters>1544.5999755859375</AltitudeMeters>
            <DistanceMeters>1409.0173265855</DistanceMeters>
          </Trackpoint>
          <Trackpoint>
            <Time>2019-08-04T14:38:15.000Z</Time>
            <Position>
              <LatitudeDegrees>-33.52529735304415225982666015625</LatitudeDegrees>
              <LongitudeDegrees>-70.22679428569972515106201171875</LongitudeDegrees>
            </Position>
            <AltitudeMeters>1545.5999755859375</AltitudeMeters>
            <DistanceMeters>1410.8575109965</DistanceMeters>
          </Trackpoint>
          <Trackpoint>
            <Time>2019-08-04T14:38:18.000Z</Time>
            <Position>
              <LatitudeDegrees>-33.52530062198638916015625</LatitudeDegrees>
              <LongitudeDegrees>-70.2268052659928798675537109375</LongitudeDegrees>
            </Position>
            <AltitudeMeters>1546</AltitudeMeters>
            <DistanceMeters>1411.9368069991</DistanceMeters>
          </Trackpoint>
          <Trackpoint>
            <Time>2019-08-04T14:38:20.000Z</Time>
            <Position>
              <LatitudeDegrees>-33.5253038071095943450927734375</LatitudeDegrees>
              <LongitudeDegrees>-70.2268116362392902374267578125</LongitudeDegrees>
            </Position>
            <AltitudeMeters>1546.4000244140625</AltitudeMeters>
            <DistanceMeters>1412.6220543815</DistanceMeters>
          </Trackpoint>
          <Trackpoint>
            <Time>2019-08-04T14:38:26.000Z</Time>
            <Position>
              <LatitudeDegrees>-33.52531763724982738494873046875</LatitudeDegrees>
              <LongitudeDegrees>-70.22682127542793750762939453125</LongitudeDegrees>
            </Position>
            <AltitudeMeters>1546.5999755859375</AltitudeMeters>
            <DistanceMeters>1414.3998414203</DistanceMeters>
          </Trackpoint>
          <Trackpoint>
            <Time>2019-08-04T14:38:28.000Z</Time>
            <Position>
              <LatitudeDegrees>-33.525311015546321868896484375</LatitudeDegrees>
              <LongitudeDegrees>-70.22682328708469867706298828125</LongitudeDegrees>
            </Position>
            <AltitudeMeters>1546.5999755859375</AltitudeMeters>
            <DistanceMeters>1415.1600551353</DistanceMeters>
          </Trackpoint>
          <Trackpoint>
            <Time>2019-08-04T14:38:40.000Z</Time>
            <Position>
              <LatitudeDegrees>-33.5253219120204448699951171875</LatitudeDegrees>
              <LongitudeDegrees>-70.2268059365451335906982421875</LongitudeDegrees>
            </Position>
            <AltitudeMeters>1546.4000244140625</AltitudeMeters>
            <DistanceMeters>1417.175876159</DistanceMeters>
          </Trackpoint>
          <Trackpoint>
            <Time>2019-08-04T14:38:52.000Z</Time>
            <Position>
              <LatitudeDegrees>-33.52537077851593494415283203125</LatitudeDegrees>
              <LongitudeDegrees>-70.22676461376249790191650390625</LongitudeDegrees>
            </Position>
            <AltitudeMeters>1546.4000244140625</AltitudeMeters>
            <DistanceMeters>1423.83046066</DistanceMeters>
          </Trackpoint>
          <Trackpoint>
            <Time>2019-08-04T14:38:54.000Z</Time>
            <Position>
              <LatitudeDegrees>-33.525376729667186737060546875</LatitudeDegrees>
              <LongitudeDegrees>-70.22674852050840854644775390625</LongitudeDegrees>
            </Position>
            <AltitudeMeters>1546.4000244140625</AltitudeMeters>
            <DistanceMeters>1425.4653620722</DistanceMeters>
          </Trackpoint>
          <Trackpoint>
            <Time>2019-08-04T14:38:57.000Z</Time>
            <Position>
              <LatitudeDegrees>-33.5253842733800411224365234375</LatitudeDegrees>
              <LongitudeDegrees>-70.22673879750072956085205078125</LongitudeDegrees>
            </Position>
            <AltitudeMeters>1546.800048828125</AltitudeMeters>
            <DistanceMeters>1426.700709359</DistanceMeters>
          </Trackpoint>
          <Trackpoint>
            <Time>2019-08-04T14:39:00.000Z</Time>
            <Position>
              <LatitudeDegrees>-33.52539089508354663848876953125</LatitudeDegrees>
              <LongitudeDegrees>-70.226720273494720458984375</LongitudeDegrees>
            </Position>
            <AltitudeMeters>1547</AltitudeMeters>
            <DistanceMeters>1428.5725185534</DistanceMeters>
          </Trackpoint>
          <Trackpoint>
            <Time>2019-08-04T14:39:06.000Z</Time>
            <Position>
              <LatitudeDegrees>-33.52541218511760234832763671875</LatitudeDegrees>
              <LongitudeDegrees>-70.22671968676149845123291015625</LongitudeDegrees>
            </Position>
            <AltitudeMeters>1547.5999755859375</AltitudeMeters>
            <DistanceMeters>1430.9424779514</DistanceMeters>
          </Trackpoint>
          <Trackpoint>
            <Time>2019-08-04T14:39:08.000Z</Time>
            <Position>
              <LatitudeDegrees>-33.52541587315499782562255859375</LatitudeDegrees>
              <LongitudeDegrees>-70.2267137356102466583251953125</LongitudeDegrees>
            </Position>
            <AltitudeMeters>1547.800048828125</AltitudeMeters>
            <DistanceMeters>1431.6277253338</DistanceMeters>
          </Trackpoint>
          <Trackpoint>
            <Time>2019-08-04T14:39:09.000Z</Time>
            <Position>
              <LatitudeDegrees>-33.5254181362688541412353515625</LatitudeDegrees>
              <LongitudeDegrees>-70.22671465761959552764892578125</LongitudeDegrees>
            </Position>
            <AltitudeMeters>1547.800048828125</AltitudeMeters>
            <DistanceMeters>1431.8965014703</DistanceMeters>
          </Trackpoint>
          <Trackpoint>
            <Time>2019-08-04T14:39:11.000Z</Time>
            <Position>
              <LatitudeDegrees>-33.5254258476197719573974609375</LatitudeDegrees>
              <LongitudeDegrees>-70.22671398706734180450439453125</LongitudeDegrees>
            </Position>
            <AltitudeMeters>1548</AltitudeMeters>
            <DistanceMeters>1432.7570049673</DistanceMeters>
          </Trackpoint>
          <Trackpoint>
            <Time>2019-08-04T14:39:15.000Z</Time>
            <Position>
              <LatitudeDegrees>-33.52543196640908718109130859375</LatitudeDegrees>
              <LongitudeDegrees>-70.22668783552944660186767578125</LongitudeDegrees>
            </Position>
            <AltitudeMeters>1548.199951171875</AltitudeMeters>
            <DistanceMeters>1435.2783486203</DistanceMeters>
          </Trackpoint>
          <Trackpoint>
            <Time>2019-08-04T14:39:18.000Z</Time>
            <Position>
              <LatitudeDegrees>-33.52543900720775127410888671875</LatitudeDegrees>
              <LongitudeDegrees>-70.22668180055916309356689453125</LongitudeDegrees>
            </Position>
            <AltitudeMeters>1548.800048828125</AltitudeMeters>
            <DistanceMeters>1436.2474347621</DistanceMeters>
          </Trackpoint>
          <Trackpoint>
            <Time>2019-08-04T14:39:22.000Z</Time>
            <Position>
              <LatitudeDegrees>-33.5254627279937267303466796875</LatitudeDegrees>
              <LongitudeDegrees>-70.22667626850306987762451171875</LongitudeDegrees>
            </Position>
            <AltitudeMeters>1549.4000244140625</AltitudeMeters>
            <DistanceMeters>1438.9385537316</DistanceMeters>
          </Trackpoint>
          <Trackpoint>
            <Time>2019-08-04T14:39:27.000Z</Time>
            <Position>
              <LatitudeDegrees>-33.5254882089793682098388671875</LatitudeDegrees>
              <LongitudeDegrees>-70.22666755132377147674560546875</LongitudeDegrees>
            </Position>
            <AltitudeMeters>1549.800048828125</AltitudeMeters>
            <DistanceMeters>1441.8859141675</DistanceMeters>
          </Trackpoint>
          <Trackpoint>
            <Time>2019-08-04T14:39:28.000Z</Time>
            <Position>
              <LatitudeDegrees>-33.52549097500741481781005859375</LatitudeDegrees>
              <LongitudeDegrees>-70.2266634441912174224853515625</LongitudeDegrees>
            </Position>
            <AltitudeMeters>1550</AltitudeMeters>
            <DistanceMeters>1442.3704572384</DistanceMeters>
          </Trackpoint>
          <Trackpoint>
            <Time>2019-08-04T14:39:34.000Z</Time>
            <Position>
              <LatitudeDegrees>-33.52549466304481029510498046875</LatitudeDegrees>
              <LongitudeDegrees>-70.22664961405098438262939453125</LongitudeDegrees>
            </Position>
            <AltitudeMeters>1551</AltitudeMeters>
            <DistanceMeters>1443.7210406092</DistanceMeters>
          </Trackpoint>
          <Trackpoint>
            <Time>2019-08-04T14:39:44.000Z</Time>
            <Position>
              <LatitudeDegrees>-33.52550958283245563507080078125</LatitudeDegrees>
              <LongitudeDegrees>-70.226677022874355316162109375</LongitudeDegrees>
            </Position>
            <AltitudeMeters>1551.4000244140625</AltitudeMeters>
            <DistanceMeters>1446.7574378246</DistanceMeters>
          </Trackpoint>
          <Trackpoint>
            <Time>2019-08-04T14:39:45.000Z</Time>
            <Position>
              <LatitudeDegrees>-33.52550916373729705810546875</LatitudeDegrees>
              <LongitudeDegrees>-70.22667911835014820098876953125</LongitudeDegrees>
            </Position>
            <AltitudeMeters>1551.4000244140625</AltitudeMeters>
            <DistanceMeters>1446.9474912533</DistanceMeters>
          </Trackpoint>
          <Trackpoint>
            <Time>2019-08-04T14:39:48.000Z</Time>
            <Position>
              <LatitudeDegrees>-33.525518216192722320556640625</LatitudeDegrees>
              <LongitudeDegrees>-70.22668800316751003265380859375</LongitudeDegrees>
            </Position>
            <AltitudeMeters>1551.4000244140625</AltitudeMeters>
            <DistanceMeters>1448.2469620283</DistanceMeters>
          </Trackpoint>
          <Trackpoint>
            <Time>2019-08-04T14:40:02.000Z</Time>
            <Position>
              <LatitudeDegrees>-33.525500781834125518798828125</LatitudeDegrees>
              <LongitudeDegrees>-70.22670996375381946563720703125</LongitudeDegrees>
            </Position>
            <AltitudeMeters>1551.199951171875</AltitudeMeters>
            <DistanceMeters>1451.0611008027</DistanceMeters>
          </Trackpoint>
          <Trackpoint>
            <Time>2019-08-04T14:40:12.000Z</Time>
            <Position>
              <LatitudeDegrees>-33.52553154341876506805419921875</LatitudeDegrees>
              <LongitudeDegrees>-70.22672806866466999053955078125</LongitudeDegrees>
            </Position>
            <AltitudeMeters>1551.199951171875</AltitudeMeters>
            <DistanceMeters>1454.8763967581</DistanceMeters>
          </Trackpoint>
          <Trackpoint>
            <Time>2019-08-04T14:40:16.000Z</Time>
            <Position>
              <LatitudeDegrees>-33.52554344572126865386962890625</LatitudeDegrees>
              <LongitudeDegrees>-70.22672672756016254425048828125</LongitudeDegrees>
            </Position>
            <AltitudeMeters>1551.199951171875</AltitudeMeters>
            <DistanceMeters>1456.2033726081</DistanceMeters>
          </Trackpoint>
          <Trackpoint>
            <Time>2019-08-04T14:40:18.000Z</Time>
            <Position>
              <LatitudeDegrees>-33.52554646320641040802001953125</LatitudeDegrees>
              <LongitudeDegrees>-70.22672362625598907470703125</LongitudeDegrees>
            </Position>
            <AltitudeMeters>1551.199951171875</AltitudeMeters>
            <DistanceMeters>1456.6283449942</DistanceMeters>
          </Trackpoint>
          <Trackpoint>
            <Time>2019-08-04T14:40:20.000Z</Time>
            <Position>
              <LatitudeDegrees>-33.525544703006744384765625</LatitudeDegrees>
              <LongitudeDegrees>-70.22671482525765895843505859375</LongitudeDegrees>
            </Position>
            <AltitudeMeters>1551.199951171875</AltitudeMeters>
            <DistanceMeters>1457.4675982114</DistanceMeters>
          </Trackpoint>
          <Trackpoint>
            <Time>2019-08-04T14:40:22.000Z</Time>
            <Position>
              <LatitudeDegrees>-33.52554093115031719207763671875</LatitudeDegrees>
              <LongitudeDegrees>-70.22670811973512172698974609375</LongitudeDegrees>
            </Position>
            <AltitudeMeters>1551</AltitudeMeters>
            <DistanceMeters>1458.2158393086</DistanceMeters>
          </Trackpoint>
          <Trackpoint>
            <Time>2019-08-04T14:40:32.000Z</Time>
            <Position>
              <LatitudeDegrees>-33.525545708835124969482421875</LatitudeDegrees>
              <LongitudeDegrees>-70.22668146528303623199462890625</LongitudeDegrees>
            </Position>
            <AltitudeMeters>1551</AltitudeMeters>
            <DistanceMeters>1460.747904528</DistanceMeters>
          </Trackpoint>
          <Trackpoint>
            <Time>2019-08-04T14:40:35.000Z</Time>
            <Position>
              <LatitudeDegrees>-33.52554461918771266937255859375</LatitudeDegrees>
              <LongitudeDegrees>-70.2266808785498142242431640625</LongitudeDegrees>
            </Position>
            <AltitudeMeters>1551</AltitudeMeters>
            <DistanceMeters>1460.8822925962</DistanceMeters>
          </Trackpoint>
          <Trackpoint>
            <Time>2019-08-04T14:40:38.000Z</Time>
            <Position>
              <LatitudeDegrees>-33.525544703006744384765625</LatitudeDegrees>
              <LongitudeDegrees>-70.2266815491020679473876953125</LongitudeDegrees>
            </Position>
            <AltitudeMeters>1551</AltitudeMeters>
            <DistanceMeters>1461.0166806645</DistanceMeters>
          </Trackpoint>
          <Trackpoint>
            <Time>2019-08-04T14:40:44.000Z</Time>
            <Position>
              <LatitudeDegrees>-33.5255433619022369384765625</LatitudeDegrees>
              <LongitudeDegrees>-70.22668205201625823974609375</LongitudeDegrees>
            </Position>
            <AltitudeMeters>1551</AltitudeMeters>
            <DistanceMeters>1461.1812717618</DistanceMeters>
          </Trackpoint>
          <Trackpoint>
            <Time>2019-08-04T14:40:51.000Z</Time>
            <Position>
              <LatitudeDegrees>-33.52553908713161945343017578125</LatitudeDegrees>
              <LongitudeDegrees>-70.2266855724155902862548828125</LongitudeDegrees>
            </Position>
            <AltitudeMeters>1551</AltitudeMeters>
            <DistanceMeters>1461.7592966994</DistanceMeters>
          </Trackpoint>
          <Trackpoint>
            <Time>2019-08-04T14:40:59.000Z</Time>
            <Position>
              <LatitudeDegrees>-33.5255227424204349517822265625</LatitudeDegrees>
              <LongitudeDegrees>-70.22667936980724334716796875</LongitudeDegrees>
            </Position>
            <AltitudeMeters>1551</AltitudeMeters>
            <DistanceMeters>1463.6669446771</DistanceMeters>
          </Trackpoint>
          <Trackpoint>
            <Time>2019-08-04T14:41:04.000Z</Time>
            <Position>
              <LatitudeDegrees>-33.52552131749689579010009765625</LatitudeDegrees>
              <LongitudeDegrees>-70.22667543031275272369384765625</LongitudeDegrees>
            </Position>
            <AltitudeMeters>1551</AltitudeMeters>
            <DistanceMeters>1464.0587498577</DistanceMeters>
          </Trackpoint>
          <Trackpoint>
            <Time>2019-08-04T14:41:10.000Z</Time>
            <Position>
              <LatitudeDegrees>-33.52551561780273914337158203125</LatitudeDegrees>
              <LongitudeDegrees>-70.2266786992549896240234375</LongitudeDegrees>
            </Position>
            <AltitudeMeters>1551</AltitudeMeters>
            <DistanceMeters>1464.7570507441</DistanceMeters>
          </Trackpoint>
          <Trackpoint>
            <Time>2019-08-04T14:41:13.000Z</Time>
            <Position>
              <LatitudeDegrees>-33.52552601136267185211181640625</LatitudeDegrees>
              <LongitudeDegrees>-70.22669403813779354095458984375</LongitudeDegrees>
            </Position>
            <AltitudeMeters>1551</AltitudeMeters>
            <DistanceMeters>1466.5898596368</DistanceMeters>
          </Trackpoint>
          <Trackpoint>
            <Time>2019-08-04T14:41:18.000Z</Time>
            <Position>
              <LatitudeDegrees>-33.52552282623946666717529296875</LatitudeDegrees>
              <LongitudeDegrees>-70.22669202648103237152099609375</LongitudeDegrees>
            </Position>
            <AltitudeMeters>1551</AltitudeMeters>
            <DistanceMeters>1466.9699664943</DistanceMeters>
          </Trackpoint>
          <Trackpoint>
            <Time>2019-08-04T14:41:22.000Z</Time>
            <Position>
              <LatitudeDegrees>-33.5255254246294498443603515625</LatitudeDegrees>
              <LongitudeDegrees>-70.2266939543187618255615234375</LongitudeDegrees>
            </Position>
            <AltitudeMeters>1551</AltitudeMeters>
            <DistanceMeters>1467.299148689</DistanceMeters>
          </Trackpoint>
          <Trackpoint>
            <Time>2019-08-04T14:41:26.000Z</Time>
            <Position>
              <LatitudeDegrees>-33.52554596029222011566162109375</LatitudeDegrees>
              <LongitudeDegrees>-70.22670191712677478790283203125</LongitudeDegrees>
            </Position>
            <AltitudeMeters>1550.800048828125</AltitudeMeters>
            <DistanceMeters>1469.7012766722</DistanceMeters>
          </Trackpoint>
          <Trackpoint>
            <Time>2019-08-04T14:41:28.000Z</Time>
            <Position>
              <LatitudeDegrees>-33.5255562700331211090087890625</LatitudeDegrees>
              <LongitudeDegrees>-70.22671147249639034271240234375</LongitudeDegrees>
            </Position>
            <AltitudeMeters>1550.800048828125</AltitudeMeters>
            <DistanceMeters>1471.151796514</DistanceMeters>
          </Trackpoint>
          <Trackpoint>
            <Time>2019-08-04T14:41:32.000Z</Time>
            <Position>
              <LatitudeDegrees>-33.525551743805408477783203125</LatitudeDegrees>
              <LongitudeDegrees>-70.2267170883715152740478515625</LongitudeDegrees>
            </Position>
            <AltitudeMeters>1551</AltitudeMeters>
            <DistanceMeters>1471.8754984097</DistanceMeters>
          </Trackpoint>
          <Trackpoint>
            <Time>2019-08-04T14:41:34.000Z</Time>
            <Position>
              <LatitudeDegrees>-33.525551073253154754638671875</LatitudeDegrees>
              <LongitudeDegrees>-70.22671683691442012786865234375</LongitudeDegrees>
            </Position>
            <AltitudeMeters>1551</AltitudeMeters>
            <DistanceMeters>1471.8754984097</DistanceMeters>
          </Trackpoint>
          <Trackpoint>
            <Time>2019-08-04T14:41:46.000Z</Time>
            <Position>
              <LatitudeDegrees>-33.52557194419205188751220703125</LatitudeDegrees>
              <LongitudeDegrees>-70.22675170563161373138427734375</LongitudeDegrees>
            </Position>
            <AltitudeMeters>1550.5999755859375</AltitudeMeters>
            <DistanceMeters>1475.8575599656</DistanceMeters>
          </Trackpoint>
          <Trackpoint>
            <Time>2019-08-04T14:41:50.000Z</Time>
            <Position>
              <LatitudeDegrees>-33.52557529695332050323486328125</LatitudeDegrees>
              <LongitudeDegrees>-70.22675891406834125518798828125</LongitudeDegrees>
            </Position>
            <AltitudeMeters>1550.5999755859375</AltitudeMeters>
            <DistanceMeters>1476.6177736806</DistanceMeters>
          </Trackpoint>
          <Trackpoint>
            <Time>2019-08-04T14:41:51.000Z</Time>
            <Position>
              <LatitudeDegrees>-33.5255693458020687103271484375</LatitudeDegrees>
              <LongitudeDegrees>-70.22675908170640468597412109375</LongitudeDegrees>
            </Position>
            <AltitudeMeters>1550.5999755859375</AltitudeMeters>
            <DistanceMeters>1477.27613807</DistanceMeters>
          </Trackpoint>
          <Trackpoint>
            <Time>2019-08-04T14:42:02.000Z</Time>
            <Position>
              <LatitudeDegrees>-33.5255250893533229827880859375</LatitudeDegrees>
              <LongitudeDegrees>-70.22674500010907649993896484375</LongitudeDegrees>
            </Position>
            <AltitudeMeters>1550.800048828125</AltitudeMeters>
            <DistanceMeters>1482.3722640352</DistanceMeters>
          </Trackpoint>
          <Trackpoint>
            <Time>2019-08-04T14:42:05.000Z</Time>
            <Position>
              <LatitudeDegrees>-33.52552081458270549774169921875</LatitudeDegrees>
              <LongitudeDegrees>-70.22673762403428554534912109375</LongitudeDegrees>
            </Position>
            <AltitudeMeters>1550.800048828125</AltitudeMeters>
            <DistanceMeters>1483.2061200697</DistanceMeters>
          </Trackpoint>
          <Trackpoint>
            <Time>2019-08-04T14:42:25.000Z</Time>
            <Position>
              <LatitudeDegrees>-33.5255200602114200592041015625</LatitudeDegrees>
              <LongitudeDegrees>-70.226711891591548919677734375</LongitudeDegrees>
            </Position>
            <AltitudeMeters>1550.199951171875</AltitudeMeters>
            <DistanceMeters>1485.5950546256</DistanceMeters>
          </Trackpoint>
          <Trackpoint>
            <Time>2019-08-04T14:42:36.000Z</Time>
            <Position>
              <LatitudeDegrees>-33.525524251163005828857421875</LatitudeDegrees>
              <LongitudeDegrees>-70.22673209197819232940673828125</LongitudeDegrees>
            </Position>
            <AltitudeMeters>1550.199951171875</AltitudeMeters>
            <DistanceMeters>1487.5285622278</DistanceMeters>
          </Trackpoint>
          <Trackpoint>
            <Time>2019-08-04T14:42:42.000Z</Time>
            <Position>
              <LatitudeDegrees>-33.5255056433379650115966796875</LatitudeDegrees>
              <LongitudeDegrees>-70.22671549580991268157958984375</LongitudeDegrees>
            </Position>
            <AltitudeMeters>1550.199951171875</AltitudeMeters>
            <DistanceMeters>1490.1100727189</DistanceMeters>
          </Trackpoint>
          <Trackpoint>
            <Time>2019-08-04T14:42:59.000Z</Time>
            <Position>
              <LatitudeDegrees>-33.52552047930657863616943359375</LatitudeDegrees>
              <LongitudeDegrees>-70.22673192434012889862060546875</LongitudeDegrees>
            </Position>
            <AltitudeMeters>1550.199951171875</AltitudeMeters>
            <DistanceMeters>1492.3588152139</DistanceMeters>
          </Trackpoint>
          <Trackpoint>
            <Time>2019-08-04T14:43:03.000Z</Time>
            <Position>
              <LatitudeDegrees>-33.525517545640468597412109375</LatitudeDegrees>
              <LongitudeDegrees>-70.2267348580062389373779296875</LongitudeDegrees>
            </Position>
            <AltitudeMeters>1550.199951171875</AltitudeMeters>
            <DistanceMeters>1492.7837875999</DistanceMeters>
          </Trackpoint>
          <Trackpoint>
            <Time>2019-08-04T14:43:15.000Z</Time>
            <Position>
              <LatitudeDegrees>-33.5255428589880466461181640625</LatitudeDegrees>
              <LongitudeDegrees>-70.22675623185932636260986328125</LongitudeDegrees>
            </Position>
            <AltitudeMeters>1550.199951171875</AltitudeMeters>
            <DistanceMeters>1496.2284240752</DistanceMeters>
          </Trackpoint>
          <Trackpoint>
            <Time>2019-08-04T14:43:20.000Z</Time>
            <Position>
              <LatitudeDegrees>-33.52550187148153781890869140625</LatitudeDegrees>
              <LongitudeDegrees>-70.2267247997224330902099609375</LongitudeDegrees>
            </Position>
            <AltitudeMeters>1550.199951171875</AltitudeMeters>
            <DistanceMeters>1501.6424455138</DistanceMeters>
          </Trackpoint>
          <Trackpoint>
            <Time>2019-08-04T14:43:22.000Z</Time>
            <Position>
              <LatitudeDegrees>-33.525523245334625244140625</LatitudeDegrees>
              <LongitudeDegrees>-70.22673695348203182220458984375</LongitudeDegrees>
            </Position>
            <AltitudeMeters>1550.199951171875</AltitudeMeters>
            <DistanceMeters>1504.2759030716</DistanceMeters>
          </Trackpoint>
          <Trackpoint>
            <Time>2019-08-04T14:43:23.000Z</Time>
            <Position>
              <LatitudeDegrees>-33.52552852593362331390380859375</LatitudeDegrees>
              <LongitudeDegrees>-70.226734690368175506591796875</LongitudeDegrees>
            </Position>
            <AltitudeMeters>1550.199951171875</AltitudeMeters>
            <DistanceMeters>1504.9062389849</DistanceMeters>
          </Trackpoint>
          <Trackpoint>
            <Time>2019-08-04T14:43:24.000Z</Time>
            <Position>
              <LatitudeDegrees>-33.525532297790050506591796875</LatitudeDegrees>
              <LongitudeDegrees>-70.2267311699688434600830078125</LongitudeDegrees>
            </Position>
            <AltitudeMeters>1550.199951171875</AltitudeMeters>
            <DistanceMeters>1505.4353253387</DistanceMeters>
          </Trackpoint>
          <Trackpoint>
            <Time>2019-08-04T14:43:25.000Z</Time>
            <Position>
              <LatitudeDegrees>-33.52553674019873142242431640625</LatitudeDegrees>
              <LongitudeDegrees>-70.22672572173178195953369140625</LongitudeDegrees>
            </Position>
            <AltitudeMeters>1550.199951171875</AltitudeMeters>
            <DistanceMeters>1506.1464401542</DistanceMeters>
          </Trackpoint>
          <Trackpoint>
            <Time>2019-08-04T14:43:26.000Z</Time>
            <Position>
              <LatitudeDegrees>-33.52553774602711200714111328125</LatitudeDegrees>
              <LongitudeDegrees>-70.226717256009578704833984375</LongitudeDegrees>
            </Position>
            <AltitudeMeters>1550.199951171875</AltitudeMeters>
            <DistanceMeters>1506.9414906879</DistanceMeters>
          </Trackpoint>
          <Trackpoint>
            <Time>2019-08-04T14:43:27.000Z</Time>
            <Position>
              <LatitudeDegrees>-33.525543697178363800048828125</LatitudeDegrees>
              <LongitudeDegrees>-70.22671247832477092742919921875</LongitudeDegrees>
            </Position>
            <AltitudeMeters>1550.199951171875</AltitudeMeters>
            <DistanceMeters>1507.7422000156</DistanceMeters>
          </Trackpoint>
          <Trackpoint>
            <Time>2019-08-04T14:43:28.000Z</Time>
            <Position>
              <LatitudeDegrees>-33.52556305937469005584716796875</LatitudeDegrees>
              <LongitudeDegrees>-70.22671381942927837371826171875</LongitudeDegrees>
            </Position>
            <AltitudeMeters>1550.199951171875</AltitudeMeters>
            <DistanceMeters>1509.9007920208</DistanceMeters>
          </Trackpoint>
          <Trackpoint>
            <Time>2019-08-04T14:43:29.000Z</Time>
            <Position>
              <LatitudeDegrees>-33.5255790688097476959228515625</LatitudeDegrees>
              <LongitudeDegrees>-70.22671197541058063507080078125</LongitudeDegrees>
            </Position>
            <AltitudeMeters>1550.199951171875</AltitudeMeters>
            <DistanceMeters>1511.6887089823</DistanceMeters>
          </Trackpoint>
          <Trackpoint>
            <Time>2019-08-04T14:43:30.000Z</Time>
            <Position>
              <LatitudeDegrees>-33.5255864448845386505126953125</LatitudeDegrees>
              <LongitudeDegrees>-70.22670979611575603485107421875</LongitudeDegrees>
            </Position>
            <AltitudeMeters>1550.199951171875</AltitudeMeters>
            <DistanceMeters>1512.5386537544</DistanceMeters>
          </Trackpoint>
          <Trackpoint>
            <Time>2019-08-04T14:43:32.000Z</Time>
            <Position>
              <LatitudeDegrees>-33.5255978442728519439697265625</LatitudeDegrees>
              <LongitudeDegrees>-70.22669504396617412567138671875</LongitudeDegrees>
            </Position>
            <AltitudeMeters>1550.199951171875</AltitudeMeters>
            <DistanceMeters>1514.4056324654</DistanceMeters>
          </Trackpoint>
          <Trackpoint>
            <Time>2019-08-04T14:43:33.000Z</Time>
            <Position>
              <LatitudeDegrees>-33.5256050527095794677734375</LatitudeDegrees>
              <LongitudeDegrees>-70.22668666206300258636474609375</LongitudeDegrees>
            </Position>
            <AltitudeMeters>1550.199951171875</AltitudeMeters>
            <DistanceMeters>1515.5219436</DistanceMeters>
          </Trackpoint>
          <Trackpoint>
            <Time>2019-08-04T14:43:47.000Z</Time>
            <Position>
              <LatitudeDegrees>-33.5256813280284404754638671875</LatitudeDegrees>
              <LongitudeDegrees>-70.22661809809505939483642578125</LongitudeDegrees>
            </Position>
            <AltitudeMeters>1550.199951171875</AltitudeMeters>
            <DistanceMeters>1526.1309432134</DistanceMeters>
          </Trackpoint>
          <Trackpoint>
            <Time>2019-08-04T14:43:55.000Z</Time>
            <Position>
              <LatitudeDegrees>-33.5257654823362827301025390625</LatitudeDegrees>
              <LongitudeDegrees>-70.2266062796115875244140625</LongitudeDegrees>
            </Position>
            <AltitudeMeters>1550.199951171875</AltitudeMeters>
            <DistanceMeters>1535.5611178046</DistanceMeters>
          </Trackpoint>
          <Trackpoint>
            <Time>2019-08-04T14:44:01.000Z</Time>
            <Position>
              <LatitudeDegrees>-33.52584787644445896148681640625</LatitudeDegrees>
              <LongitudeDegrees>-70.22661893628537654876708984375</LongitudeDegrees>
            </Position>
            <AltitudeMeters>1550.199951171875</AltitudeMeters>
            <DistanceMeters>1544.8065871609</DistanceMeters>
          </Trackpoint>
          <Trackpoint>
            <Time>2019-08-04T14:44:02.000Z</Time>
            <Position>
              <LatitudeDegrees>-33.5258607007563114166259765625</LatitudeDegrees>
              <LongitudeDegrees>-70.2266208641231060028076171875</LongitudeDegrees>
            </Position>
            <AltitudeMeters>1550.199951171875</AltitudeMeters>
            <DistanceMeters>1546.2414590817</DistanceMeters>
          </Trackpoint>
          <Trackpoint>
            <Time>2019-08-04T14:44:10.000Z</Time>
            <Position>
              <LatitudeDegrees>-33.525913842022418975830078125</LatitudeDegrees>
              <LongitudeDegrees>-70.22657702676951885223388671875</LongitudeDegrees>
            </Position>
            <AltitudeMeters>1558.4000244140625</AltitudeMeters>
            <DistanceMeters>1553.4195936715</DistanceMeters>
          </Trackpoint>
          <Trackpoint>
            <Time>2019-08-04T14:44:15.000Z</Time>
            <Position>
              <LatitudeDegrees>-33.52591979317367076873779296875</LatitudeDegrees>
              <LongitudeDegrees>-70.22654257714748382568359375</LongitudeDegrees>
            </Position>
            <AltitudeMeters>1558.5999755859375</AltitudeMeters>
            <DistanceMeters>1556.6824850469</DistanceMeters>
          </Trackpoint>
          <Trackpoint>
            <Time>2019-08-04T14:44:17.000Z</Time>
            <Position>
              <LatitudeDegrees>-33.52592582814395427703857421875</LatitudeDegrees>
              <LongitudeDegrees>-70.22653914056718349456787109375</LongitudeDegrees>
            </Position>
            <AltitudeMeters>1558.800048828125</AltitudeMeters>
            <DistanceMeters>1557.4307261441</DistanceMeters>
          </Trackpoint>
          <Trackpoint>
            <Time>2019-08-04T14:44:24.000Z</Time>
            <Position>
              <LatitudeDegrees>-33.52597662247717380523681640625</LatitudeDegrees>
              <LongitudeDegrees>-70.22651365958154201507568359375</LongitudeDegrees>
            </Position>
            <AltitudeMeters>1559.5999755859375</AltitudeMeters>
            <DistanceMeters>1563.5597650579</DistanceMeters>
          </Trackpoint>
          <Trackpoint>
            <Time>2019-08-04T14:44:29.000Z</Time>
            <Position>
              <LatitudeDegrees>-33.52601568214595317840576171875</LatitudeDegrees>
              <LongitudeDegrees>-70.22652623243629932403564453125</LongitudeDegrees>
            </Position>
            <AltitudeMeters>1559.199951171875</AltitudeMeters>
            <DistanceMeters>1568.0612638683</DistanceMeters>
          </Trackpoint>
          <Trackpoint>
            <Time>2019-08-04T14:44:31.000Z</Time>
            <Position>
              <LatitudeDegrees>-33.52603244595229625701904296875</LatitudeDegrees>
              <LongitudeDegrees>-70.22652623243629932403564453125</LongitudeDegrees>
            </Position>
            <AltitudeMeters>1559.199951171875</AltitudeMeters>
            <DistanceMeters>1569.9258226448</DistanceMeters>
          </Trackpoint>
          <Trackpoint>
            <Time>2019-08-04T14:44:34.000Z</Time>
            <Position>
              <LatitudeDegrees>-33.526055328547954559326171875</LatitudeDegrees>
              <LongitudeDegrees>-70.22652958519756793975830078125</LongitudeDegrees>
            </Position>
            <AltitudeMeters>1559.5999755859375</AltitudeMeters>
            <DistanceMeters>1572.4897835749</DistanceMeters>
          </Trackpoint>
          <Trackpoint>
            <Time>2019-08-04T14:44:44.000Z</Time>
            <Position>
              <LatitudeDegrees>-33.5260759480297565460205078125</LatitudeDegrees>
              <LongitudeDegrees>-70.2265058644115924835205078125</LongitudeDegrees>
            </Position>
            <AltitudeMeters>1560</AltitudeMeters>
            <DistanceMeters>1575.6685656594</DistanceMeters>
          </Trackpoint>
          <Trackpoint>
            <Time>2019-08-04T14:44:46.000Z</Time>
            <Position>
              <LatitudeDegrees>-33.5260444320738315582275390625</LatitudeDegrees>
              <LongitudeDegrees>-70.22648583166301250457763671875</LongitudeDegrees>
            </Position>
            <AltitudeMeters>1560</AltitudeMeters>
            <DistanceMeters>1579.6381353331</DistanceMeters>
          </Trackpoint>
          <Trackpoint>
            <Time>2019-08-04T14:44:52.000Z</Time>
            <Position>
              <LatitudeDegrees>-33.52602071128785610198974609375</LatitudeDegrees>
              <LongitudeDegrees>-70.2264750190079212188720703125</LongitudeDegrees>
            </Position>
            <AltitudeMeters>1560</AltitudeMeters>
            <DistanceMeters>1582.4602847664</DistanceMeters>
          </Trackpoint>
          <Trackpoint>
            <Time>2019-08-04T14:45:01.000Z</Time>
            <Position>
              <LatitudeDegrees>-33.5260585136711597442626953125</LatitudeDegrees>
              <LongitudeDegrees>-70.22638457827270030975341796875</LongitudeDegrees>
            </Position>
            <AltitudeMeters>1560</AltitudeMeters>
            <DistanceMeters>1591.8472696891</DistanceMeters>
          </Trackpoint>
          <Trackpoint>
            <Time>2019-08-04T14:45:09.000Z</Time>
            <Position>
              <LatitudeDegrees>-33.52609849534928798675537109375</LatitudeDegrees>
              <LongitudeDegrees>-70.2263147570192813873291015625</LongitudeDegrees>
            </Position>
            <AltitudeMeters>1560</AltitudeMeters>
            <DistanceMeters>1599.7063868709</DistanceMeters>
          </Trackpoint>
          <Trackpoint>
            <Time>2019-08-04T14:45:12.000Z</Time>
            <Position>
              <LatitudeDegrees>-33.5261121578514575958251953125</LatitudeDegrees>
              <LongitudeDegrees>-70.226280391216278076171875</LongitudeDegrees>
            </Position>
            <AltitudeMeters>1560.199951171875</AltitudeMeters>
            <DistanceMeters>1603.2390297407</DistanceMeters>
          </Trackpoint>
          <Trackpoint>
            <Time>2019-08-04T14:45:13.000Z</Time>
            <Position>
              <LatitudeDegrees>-33.52611861191689968109130859375</LatitudeDegrees>
              <LongitudeDegrees>-70.2262683212757110595703125</LongitudeDegrees>
            </Position>
            <AltitudeMeters>1560.4000244140625</AltitudeMeters>
            <DistanceMeters>1604.5761741368</DistanceMeters>
          </Trackpoint>
          <Trackpoint>
            <Time>2019-08-04T14:45:15.000Z</Time>
            <Position>
              <LatitudeDegrees>-33.52612498216331005096435546875</LatitudeDegrees>
              <LongitudeDegrees>-70.22624594159424304962158203125</LongitudeDegrees>
            </Position>
            <AltitudeMeters>1560.5999755859375</AltitudeMeters>
            <DistanceMeters>1606.7720932658</DistanceMeters>
          </Trackpoint>
          <Trackpoint>
            <Time>2019-08-04T14:45:16.000Z</Time>
            <Position>
              <LatitudeDegrees>-33.52613143622875213623046875</LatitudeDegrees>
              <LongitudeDegrees>-70.22623605094850063323974609375</LongitudeDegrees>
            </Position>
            <AltitudeMeters>1560.5999755859375</AltitudeMeters>
            <DistanceMeters>1607.9398010815</DistanceMeters>
          </Trackpoint>
          <Trackpoint>
            <Time>2019-08-04T14:45:17.000Z</Time>
            <Position>
              <LatitudeDegrees>-33.52613688446581363677978515625</LatitudeDegrees>
              <LongitudeDegrees>-70.22623068653047084808349609375</LongitudeDegrees>
            </Position>
            <AltitudeMeters>1560.800048828125</AltitudeMeters>
            <DistanceMeters>1608.7234114427</DistanceMeters>
          </Trackpoint>
          <Trackpoint>
            <Time>2019-08-04T14:45:19.000Z</Time>
            <Position>
              <LatitudeDegrees>-33.52614660747349262237548828125</LatitudeDegrees>
              <LongitudeDegrees>-70.226224400103092193603515625</LongitudeDegrees>
            </Position>
            <AltitudeMeters>1561</AltitudeMeters>
            <DistanceMeters>1609.9550984332</DistanceMeters>
          </Trackpoint>
          <Trackpoint>
            <Time>2019-08-04T14:45:23.000Z</Time>
            <Position>
              <LatitudeDegrees>-33.52617192082107067108154296875</LatitudeDegrees>
              <LongitudeDegrees>-70.22621392272412776947021484375</LongitudeDegrees>
            </Position>
            <AltitudeMeters>1561.4000244140625</AltitudeMeters>
            <DistanceMeters>1612.9344549316</DistanceMeters>
          </Trackpoint>
          <Trackpoint>
            <Time>2019-08-04T14:45:25.000Z</Time>
            <Position>
              <LatitudeDegrees>-33.5261808894574642181396484375</LatitudeDegrees>
              <LongitudeDegrees>-70.22620604373514652252197265625</LongitudeDegrees>
            </Position>
            <AltitudeMeters>1561.800048828125</AltitudeMeters>
            <DistanceMeters>1614.1661419221</DistanceMeters>
          </Trackpoint>
          <Trackpoint>
            <Time>2019-08-04T14:45:29.000Z</Time>
            <Position>
              <LatitudeDegrees>-33.52619103156030178070068359375</LatitudeDegrees>
              <LongitudeDegrees>-70.22618114948272705078125</LongitudeDegrees>
            </Position>
            <AltitudeMeters>1562.4000244140625</AltitudeMeters>
            <DistanceMeters>1616.7371370518</DistanceMeters>
          </Trackpoint>
          <Trackpoint>
            <Time>2019-08-04T14:45:30.000Z</Time>
            <Position>
              <LatitudeDegrees>-33.52618818171322345733642578125</LatitudeDegrees>
              <LongitudeDegrees>-70.22617553360760211944580078125</LongitudeDegrees>
            </Position>
            <AltitudeMeters>1562.4000244140625</AltitudeMeters>
            <DistanceMeters>1617.3529805471</DistanceMeters>
          </Trackpoint>
          <Trackpoint>
            <Time>2019-08-04T14:45:32.000Z</Time>
            <Position>
              <LatitudeDegrees>-33.5261989943683147430419921875</LatitudeDegrees>
              <LongitudeDegrees>-70.226168744266033172607421875</LongitudeDegrees>
            </Position>
            <AltitudeMeters>1562.800048828125</AltitudeMeters>
            <DistanceMeters>1618.710233506</DistanceMeters>
          </Trackpoint>
          <Trackpoint>
            <Time>2019-08-04T14:45:40.000Z</Time>
            <Position>
              <LatitudeDegrees>-33.52624249644577503204345703125</LatitudeDegrees>
              <LongitudeDegrees>-70.22616279311478137969970703125</LongitudeDegrees>
            </Position>
            <AltitudeMeters>1564.199951171875</AltitudeMeters>
            <DistanceMeters>1623.5826118751</DistanceMeters>
          </Trackpoint>
          <Trackpoint>
            <Time>2019-08-04T14:45:46.000Z</Time>
            <Position>
              <LatitudeDegrees>-33.52627283893525600433349609375</LatitudeDegrees>
              <LongitudeDegrees>-70.22614971734583377838134765625</LongitudeDegrees>
            </Position>
            <AltitudeMeters>1565.199951171875</AltitudeMeters>
            <DistanceMeters>1627.171050116</DistanceMeters>
          </Trackpoint>
          <Trackpoint>
            <Time>2019-08-04T14:45:47.000Z</Time>
            <Position>
              <LatitudeDegrees>-33.52627694606781005859375</LatitudeDegrees>
              <LongitudeDegrees>-70.226145945489406585693359375</LongitudeDegrees>
            </Position>
            <AltitudeMeters>1565.199951171875</AltitudeMeters>
            <DistanceMeters>1627.7568341247</DistanceMeters>
          </Trackpoint>
          <Trackpoint>
            <Time>2019-08-04T14:45:52.000Z</Time>
            <Position>
              <LatitudeDegrees>-33.52630837820470333099365234375</LatitudeDegrees>
              <LongitudeDegrees>-70.2261337079107761383056640625</LongitudeDegrees>
            </Position>
            <AltitudeMeters>1566.4000244140625</AltitudeMeters>
            <DistanceMeters>1631.4322925125</DistanceMeters>
          </Trackpoint>
          <Trackpoint>
            <Time>2019-08-04T14:45:57.000Z</Time>
            <Position>
              <LatitudeDegrees>-33.52634944953024387359619140625</LatitudeDegrees>
              <LongitudeDegrees>-70.226114429533481597900390625</LongitudeDegrees>
            </Position>
            <AltitudeMeters>1567.4000244140625</AltitudeMeters>
            <DistanceMeters>1636.3406775781</DistanceMeters>
          </Trackpoint>
          <Trackpoint>
            <Time>2019-08-04T14:46:00.000Z</Time>
            <Position>
              <LatitudeDegrees>-33.52637928910553455352783203125</LatitudeDegrees>
              <LongitudeDegrees>-70.2261105738580226898193359375</LongitudeDegrees>
            </Position>
            <AltitudeMeters>1568</AltitudeMeters>
            <DistanceMeters>1639.6815119776</DistanceMeters>
          </Trackpoint>
          <Trackpoint>
            <Time>2019-08-04T14:46:07.000Z</Time>
            <Position>
              <LatitudeDegrees>-33.52644701488316059112548828125</LatitudeDegrees>
              <LongitudeDegrees>-70.2261149324476718902587890625</LongitudeDegrees>
            </Position>
            <AltitudeMeters>1568.5999755859375</AltitudeMeters>
            <DistanceMeters>1647.2300073483</DistanceMeters>
          </Trackpoint>
          <Trackpoint>
            <Time>2019-08-04T14:46:09.000Z</Time>
            <Position>
              <LatitudeDegrees>-33.52646134793758392333984375</LatitudeDegrees>
              <LongitudeDegrees>-70.22611820138990879058837890625</LongitudeDegrees>
            </Position>
            <AltitudeMeters>1568.800048828125</AltitudeMeters>
            <DistanceMeters>1648.8510416617</DistanceMeters>
          </Trackpoint>
          <Trackpoint>
            <Time>2019-08-04T14:46:12.000Z</Time>
            <Position>
              <LatitudeDegrees>-33.52647551335394382476806640625</LatitudeDegrees>
              <LongitudeDegrees>-70.22612105123698711395263671875</LongitudeDegrees>
            </Position>
            <AltitudeMeters>1569</AltitudeMeters>
            <DistanceMeters>1650.4468115565</DistanceMeters>
          </Trackpoint>
          <Trackpoint>
            <Time>2019-08-04T14:46:18.000Z</Time>
            <Position>
              <LatitudeDegrees>-33.5265275649726390838623046875</LatitudeDegrees>
              <LongitudeDegrees>-70.22611015476286411285400390625</LongitudeDegrees>
            </Position>
            <AltitudeMeters>1569.4000244140625</AltitudeMeters>
            <DistanceMeters>1656.3277292383</DistanceMeters>
          </Trackpoint>
          <Trackpoint>
            <Time>2019-08-04T14:46:20.000Z</Time>
            <Position>
              <LatitudeDegrees>-33.5265470109879970550537109375</LatitudeDegrees>
              <LongitudeDegrees>-70.22610479034483432769775390625</LongitudeDegrees>
            </Position>
            <AltitudeMeters>1569.5999755859375</AltitudeMeters>
            <DistanceMeters>1658.5461502223</DistanceMeters>
          </Trackpoint>
          <Trackpoint>
            <Time>2019-08-04T14:46:22.000Z</Time>
            <Position>
              <LatitudeDegrees>-33.5265617631375789642333984375</LatitudeDegrees>
              <LongitudeDegrees>-70.22609439678490161895751953125</LongitudeDegrees>
            </Position>
            <AltitudeMeters>1569.800048828125</AltitudeMeters>
            <DistanceMeters>1660.451429921</DistanceMeters>
          </Trackpoint>
          <Trackpoint>
            <Time>2019-08-04T14:46:26.000Z</Time>
            <Position>
              <LatitudeDegrees>-33.5265976376831531524658203125</LatitudeDegrees>
              <LongitudeDegrees>-70.2260725200176239013671875</LongitudeDegrees>
            </Position>
            <AltitudeMeters>1570</AltitudeMeters>
            <DistanceMeters>1664.9308082103</DistanceMeters>
          </Trackpoint>
          <Trackpoint>
            <Time>2019-08-04T14:46:27.000Z</Time>
            <Position>
              <LatitudeDegrees>-33.526605851948261260986328125</LatitudeDegrees>
              <LongitudeDegrees>-70.2260671555995941162109375</LongitudeDegrees>
            </Position>
            <AltitudeMeters>1570</AltitudeMeters>
            <DistanceMeters>1665.9674272806</DistanceMeters>
          </Trackpoint>
          <Trackpoint>
            <Time>2019-08-04T14:46:31.000Z</Time>
            <Position>
              <LatitudeDegrees>-33.52663460187613964080810546875</LatitudeDegrees>
              <LongitudeDegrees>-70.22606053389608860015869140625</LongitudeDegrees>
            </Position>
            <AltitudeMeters>1570.199951171875</AltitudeMeters>
            <DistanceMeters>1669.2247789382</DistanceMeters>
          </Trackpoint>
          <Trackpoint>
            <Time>2019-08-04T14:46:38.000Z</Time>
            <Position>
              <LatitudeDegrees>-33.5266967117786407470703125</LatitudeDegrees>
              <LongitudeDegrees>-70.22604360245168209075927734375</LongitudeDegrees>
            </Position>
            <AltitudeMeters>1570.5999755859375</AltitudeMeters>
            <DistanceMeters>1676.3136699242</DistanceMeters>
          </Trackpoint>
          <Trackpoint>
            <Time>2019-08-04T14:46:40.000Z</Time>
            <Position>
              <LatitudeDegrees>-33.52670903317630290985107421875</LatitudeDegrees>
              <LongitudeDegrees>-70.22604661993682384490966796875</LongitudeDegrees>
            </Position>
            <AltitudeMeters>1570.800048828125</AltitudeMeters>
            <DistanceMeters>1677.710271697</DistanceMeters>
          </Trackpoint>
          <Trackpoint>
            <Time>2019-08-04T14:46:50.000Z</Time>
            <Position>
              <LatitudeDegrees>-33.5267763398587703704833984375</LatitudeDegrees>
              <LongitudeDegrees>-70.22603790275752544403076171875</LongitudeDegrees>
            </Position>
            <AltitudeMeters>1571.4000244140625</AltitudeMeters>
            <DistanceMeters>1685.2443980914</DistanceMeters>
          </Trackpoint>
          <Trackpoint>
            <Time>2019-08-04T14:46:54.000Z</Time>
            <Position>
              <LatitudeDegrees>-33.52680341340601444244384765625</LatitudeDegrees>
              <LongitudeDegrees>-70.22604460828006267547607421875</LongitudeDegrees>
            </Position>
            <AltitudeMeters>1571.5999755859375</AltitudeMeters>
            <DistanceMeters>1688.3236155677</DistanceMeters>
          </Trackpoint>
          <Trackpoint>
            <Time>2019-08-04T14:46:55.000Z</Time>
            <Position>
              <LatitudeDegrees>-33.5268098674714565277099609375</LatitudeDegrees>
              <LongitudeDegrees>-70.22604678757488727569580078125</LongitudeDegrees>
            </Position>
            <AltitudeMeters>1571.800048828125</AltitudeMeters>
            <DistanceMeters>1689.0718566648</DistanceMeters>
          </Trackpoint>
          <Trackpoint>
            <Time>2019-08-04T14:46:59.000Z</Time>
            <Position>
              <LatitudeDegrees>-33.52683476172387599945068359375</LatitudeDegrees>
              <LongitudeDegrees>-70.22605030797421932220458984375</LongitudeDegrees>
            </Position>
            <AltitudeMeters>1572.4000244140625</AltitudeMeters>
            <DistanceMeters>1691.861825463</DistanceMeters>
          </Trackpoint>
          <Trackpoint>
            <Time>2019-08-04T14:47:02.000Z</Time>
            <Position>
              <LatitudeDegrees>-33.5268494300544261932373046875</LatitudeDegrees>
              <LongitudeDegrees>-70.2260482124984264373779296875</LongitudeDegrees>
            </Position>
            <AltitudeMeters>1572.5999755859375</AltitudeMeters>
            <DistanceMeters>1693.5049909619</DistanceMeters>
          </Trackpoint>
          <Trackpoint>
            <Time>2019-08-04T14:47:09.000Z</Time>
            <Position>
              <LatitudeDegrees>-33.526858985424041748046875</LatitudeDegrees>
              <LongitudeDegrees>-70.22605785168707370758056640625</LongitudeDegrees>
            </Position>
            <AltitudeMeters>1573.800048828125</AltitudeMeters>
            <DistanceMeters>1694.8918601996</DistanceMeters>
          </Trackpoint>
          <Trackpoint>
            <Time>2019-08-04T14:47:10.000Z</Time>
            <Position>
              <LatitudeDegrees>-33.52685839869081974029541015625</LatitudeDegrees>
              <LongitudeDegrees>-70.22605584003031253814697265625</LongitudeDegrees>
            </Position>
            <AltitudeMeters>1573.800048828125</AltitudeMeters>
            <DistanceMeters>1695.0819136284</DistanceMeters>
          </Trackpoint>
          <Trackpoint>
            <Time>2019-08-04T14:47:13.000Z</Time>
            <Position>
              <LatitudeDegrees>-33.52687172591686248779296875</LatitudeDegrees>
              <LongitudeDegrees>-70.22605466656386852264404296875</LongitudeDegrees>
            </Position>
            <AltitudeMeters>1574.199951171875</AltitudeMeters>
            <DistanceMeters>1696.5693169794</DistanceMeters>
          </Trackpoint>
          <Trackpoint>
            <Time>2019-08-04T14:47:16.000Z</Time>
            <Position>
              <LatitudeDegrees>-33.5268956981599330902099609375</LatitudeDegrees>
              <LongitudeDegrees>-70.22604946978390216827392578125</LongitudeDegrees>
            </Position>
            <AltitudeMeters>1574.4000244140625</AltitudeMeters>
            <DistanceMeters>1699.2804942561</DistanceMeters>
          </Trackpoint>
          <Trackpoint>
            <Time>2019-08-04T14:47:19.000Z</Time>
            <Position>
              <LatitudeDegrees>-33.5269198380410671234130859375</LatitudeDegrees>
              <LongitudeDegrees>-70.22606640122830867767333984375</LongitudeDegrees>
            </Position>
            <AltitudeMeters>1574.800048828125</AltitudeMeters>
            <DistanceMeters>1702.3947039633</DistanceMeters>
          </Trackpoint>
          <Trackpoint>
            <Time>2019-08-04T14:47:21.000Z</Time>
            <Position>
              <LatitudeDegrees>-33.52693484164774417877197265625</LatitudeDegrees>
              <LongitudeDegrees>-70.22607863880693912506103515625</LongitudeDegrees>
            </Position>
            <AltitudeMeters>1574.800048828125</AltitudeMeters>
            <DistanceMeters>1704.4127635453</DistanceMeters>
          </Trackpoint>
          <Trackpoint>
            <Time>2019-08-04T14:47:24.000Z</Time>
            <Position>
              <LatitudeDegrees>-33.5269381105899810791015625</LatitudeDegrees>
              <LongitudeDegrees>-70.2260894514620304107666015625</LongitudeDegrees>
            </Position>
            <AltitudeMeters>1575.800048828125</AltitudeMeters>
            <DistanceMeters>1705.4709362528</DistanceMeters>
          </Trackpoint>
          <Trackpoint>
            <Time>2019-08-04T14:47:30.000Z</Time>
            <Position>
              <LatitudeDegrees>-33.52695462293922901153564453125</LatitudeDegrees>
              <LongitudeDegrees>-70.22612222470343112945556640625</LongitudeDegrees>
            </Position>
            <AltitudeMeters>1576.800048828125</AltitudeMeters>
            <DistanceMeters>1709.0226987438</DistanceMeters>
          </Trackpoint>
          <Trackpoint>
            <Time>2019-08-04T14:47:31.000Z</Time>
            <Position>
              <LatitudeDegrees>-33.526959903538227081298828125</LatitudeDegrees>
              <LongitudeDegrees>-70.22613379172980785369873046875</LongitudeDegrees>
            </Position>
            <AltitudeMeters>1577</AltitudeMeters>
            <DistanceMeters>1710.2470323134</DistanceMeters>
          </Trackpoint>
          <Trackpoint>
            <Time>2019-08-04T14:47:42.000Z</Time>
            <Position>
              <LatitudeDegrees>-33.52695914916694164276123046875</LatitudeDegrees>
              <LongitudeDegrees>-70.22613798268139362335205078125</LongitudeDegrees>
            </Position>
            <AltitudeMeters>1577.800048828125</AltitudeMeters>
            <DistanceMeters>1710.638837494</DistanceMeters>
          </Trackpoint>
          <Trackpoint>
            <Time>2019-08-04T14:47:46.000Z</Time>
            <Position>
              <LatitudeDegrees>-33.52695462293922901153564453125</LatitudeDegrees>
              <LongitudeDegrees>-70.226146280765533447265625</LongitudeDegrees>
            </Position>
            <AltitudeMeters>1578</AltitudeMeters>
            <DistanceMeters>1711.5503017187</DistanceMeters>
          </Trackpoint>
          <Trackpoint>
            <Time>2019-08-04T14:47:47.000Z</Time>
            <Position>
              <LatitudeDegrees>-33.52695412002503871917724609375</LatitudeDegrees>
              <LongitudeDegrees>-70.22614896297454833984375</LongitudeDegrees>
            </Position>
            <AltitudeMeters>1578</AltitudeMeters>
            <DistanceMeters>1711.7830686808</DistanceMeters>
          </Trackpoint>
          <Trackpoint>
            <Time>2019-08-04T14:47:51.000Z</Time>
            <Position>
              <LatitudeDegrees>-33.5269423015415668487548828125</LatitudeDegrees>
              <LongitudeDegrees>-70.2261595241725444793701171875</LongitudeDegrees>
            </Position>
            <AltitudeMeters>1578.199951171875</AltitudeMeters>
            <DistanceMeters>1713.42348411</DistanceMeters>
          </Trackpoint>
          <Trackpoint>
            <Time>2019-08-04T14:47:59.000Z</Time>
            <Position>
              <LatitudeDegrees>-33.5269327461719512939453125</LatitudeDegrees>
              <LongitudeDegrees>-70.2261529862880706787109375</LongitudeDegrees>
            </Position>
            <AltitudeMeters>1578.199951171875</AltitudeMeters>
            <DistanceMeters>1714.6478176796</DistanceMeters>
          </Trackpoint>
          <Trackpoint>
            <Time>2019-08-04T14:48:00.000Z</Time>
            <Position>
              <LatitudeDegrees>-33.5269315727055072784423828125</LatitudeDegrees>
              <LongitudeDegrees>-70.22615307010710239410400390625</LongitudeDegrees>
            </Position>
            <AltitudeMeters>1578.4000244140625</AltitudeMeters>
            <DistanceMeters>1714.742844394</DistanceMeters>
          </Trackpoint>
          <Trackpoint>
            <Time>2019-08-04T14:48:02.000Z</Time>
            <Position>
              <LatitudeDegrees>-33.526929728686809539794921875</LatitudeDegrees>
              <LongitudeDegrees>-70.22614753805100917816162109375</LongitudeDegrees>
            </Position>
            <AltitudeMeters>1578.4000244140625</AltitudeMeters>
            <DistanceMeters>1715.2887313078</DistanceMeters>
          </Trackpoint>
          <Trackpoint>
            <Time>2019-08-04T14:48:04.000Z</Time>
            <Position>
              <LatitudeDegrees>-33.526923023164272308349609375</LatitudeDegrees>
              <LongitudeDegrees>-70.2261498011648654937744140625</LongitudeDegrees>
            </Position>
            <AltitudeMeters>1578.4000244140625</AltitudeMeters>
            <DistanceMeters>1716.0665584877</DistanceMeters>
          </Trackpoint>
          <Trackpoint>
            <Time>2019-08-04T14:48:06.000Z</Time>
            <Position>
              <LatitudeDegrees>-33.526919670403003692626953125</LatitudeDegrees>
              <LongitudeDegrees>-70.22615768015384674072265625</LongitudeDegrees>
            </Position>
            <AltitudeMeters>1578.4000244140625</AltitudeMeters>
            <DistanceMeters>1716.8840091937</DistanceMeters>
          </Trackpoint>
          <Trackpoint>
            <Time>2019-08-04T14:48:10.000Z</Time>
            <Position>
              <LatitudeDegrees>-33.526923358440399169921875</LatitudeDegrees>
              <LongitudeDegrees>-70.2261675707995891571044921875</LongitudeDegrees>
            </Position>
            <AltitudeMeters>1578.4000244140625</AltitudeMeters>
            <DistanceMeters>1717.8896774103</DistanceMeters>
          </Trackpoint>
          <Trackpoint>
            <Time>2019-08-04T14:48:14.000Z</Time>
            <Position>
              <LatitudeDegrees>-33.5269332490861415863037109375</LatitudeDegrees>
              <LongitudeDegrees>-70.2261689119040966033935546875</LongitudeDegrees>
            </Position>
            <AltitudeMeters>1578.4000244140625</AltitudeMeters>
            <DistanceMeters>1718.9937880569</DistanceMeters>
          </Trackpoint>
          <Trackpoint>
            <Time>2019-08-04T14:48:16.000Z</Time>
            <Position>
              <LatitudeDegrees>-33.5269355960190296173095703125</LatitudeDegrees>
              <LongitudeDegrees>-70.22616664879024028778076171875</LongitudeDegrees>
            </Position>
            <AltitudeMeters>1578.4000244140625</AltitudeMeters>
            <DistanceMeters>1719.3364117481</DistanceMeters>
          </Trackpoint>
          <Trackpoint>
            <Time>2019-08-04T14:48:17.000Z</Time>
            <Position>
              <LatitudeDegrees>-33.52693819440901279449462890625</LatitudeDegrees>
              <LongitudeDegrees>-70.226162374019622802734375</LongitudeDegrees>
            </Position>
            <AltitudeMeters>1578.4000244140625</AltitudeMeters>
            <DistanceMeters>1719.8209548189</DistanceMeters>
          </Trackpoint>
          <Trackpoint>
            <Time>2019-08-04T14:48:19.000Z</Time>
            <Position>
              <LatitudeDegrees>-33.52694121189415454864501953125</LatitudeDegrees>
              <LongitudeDegrees>-70.2261189557611942291259765625</LongitudeDegrees>
            </Position>
            <AltitudeMeters>1578.199951171875</AltitudeMeters>
            <DistanceMeters>1723.863780361</DistanceMeters>
          </Trackpoint>
          <Trackpoint>
            <Time>2019-08-04T14:48:28.000Z</Time>
            <Position>
              <LatitudeDegrees>-33.52692176587879657745361328125</LatitudeDegrees>
              <LongitudeDegrees>-70.226047374308109283447265625</LongitudeDegrees>
            </Position>
            <AltitudeMeters>1578</AltitudeMeters>
            <DistanceMeters>1730.849375046</DistanceMeters>
          </Trackpoint>
          <Trackpoint>
            <Time>2019-08-04T14:48:29.000Z</Time>
            <Position>
              <LatitudeDegrees>-33.5269188322126865386962890625</LatitudeDegrees>
              <LongitudeDegrees>-70.22604427300393581390380859375</LongitudeDegrees>
            </Position>
            <AltitudeMeters>1578</AltitudeMeters>
            <DistanceMeters>1731.274347432</DistanceMeters>
          </Trackpoint>
          <Trackpoint>
            <Time>2019-08-04T14:48:37.000Z</Time>
            <Position>
              <LatitudeDegrees>-33.5269081033766269683837890625</LatitudeDegrees>
              <LongitudeDegrees>-70.226045362651348114013671875</LongitudeDegrees>
            </Position>
            <AltitudeMeters>1577.800048828125</AltitudeMeters>
            <DistanceMeters>1732.46881471</DistanceMeters>
          </Trackpoint>
          <Trackpoint>
            <Time>2019-08-04T14:48:39.000Z</Time>
            <Position>
              <LatitudeDegrees>-33.52690793573856353759765625</LatitudeDegrees>
              <LongitudeDegrees>-70.226046033203601837158203125</LongitudeDegrees>
            </Position>
            <AltitudeMeters>1577.800048828125</AltitudeMeters>
            <DistanceMeters>1732.5638414244</DistanceMeters>
          </Trackpoint>
          <Trackpoint>
            <Time>2019-08-04T14:48:41.000Z</Time>
            <Position>
              <LatitudeDegrees>-33.52690785191953182220458984375</LatitudeDegrees>
              <LongitudeDegrees>-70.2260472066700458526611328125</LongitudeDegrees>
            </Position>
            <AltitudeMeters>1577.800048828125</AltitudeMeters>
            <DistanceMeters>1732.6982294926</DistanceMeters>
          </Trackpoint>
          <Trackpoint>
            <Time>2019-08-04T14:48:43.000Z</Time>
            <Position>
              <LatitudeDegrees>-33.52690751664340496063232421875</LatitudeDegrees>
              <LongitudeDegrees>-70.22604913450777530670166015625</LongitudeDegrees>
            </Position>
            <AltitudeMeters>1577.800048828125</AltitudeMeters>
            <DistanceMeters>1732.8882829214</DistanceMeters>
          </Trackpoint>
          <Trackpoint>
            <Time>2019-08-04T14:48:45.000Z</Time>
            <Position>
              <LatitudeDegrees>-33.526904247701168060302734375</LatitudeDegrees>
              <LongitudeDegrees>-70.22605282254517078399658203125</LongitudeDegrees>
            </Position>
            <AltitudeMeters>1578</AltitudeMeters>
            <DistanceMeters>1733.3820562134</DistanceMeters>
          </Trackpoint>
          <Trackpoint>
            <Time>2019-08-04T14:49:01.000Z</Time>
            <Position>
              <LatitudeDegrees>-33.5269171558320522308349609375</LatitudeDegrees>
              <LongitudeDegrees>-70.226074196398258209228515625</LongitudeDegrees>
            </Position>
            <AltitudeMeters>1577.800048828125</AltitudeMeters>
            <DistanceMeters>1735.8307233527</DistanceMeters>
          </Trackpoint>
          <Trackpoint>
            <Time>2019-08-04T14:49:04.000Z</Time>
            <Position>
              <LatitudeDegrees>-33.52692696265876293182373046875</LatitudeDegrees>
              <LongitudeDegrees>-70.22606790997087955474853515625</LongitudeDegrees>
            </Position>
            <AltitudeMeters>1577.5999755859375</AltitudeMeters>
            <DistanceMeters>1737.0697201224</DistanceMeters>
          </Trackpoint>
          <Trackpoint>
            <Time>2019-08-04T14:49:05.000Z</Time>
            <Position>
              <LatitudeDegrees>-33.5269329138100147247314453125</LatitudeDegrees>
              <LongitudeDegrees>-70.22606288082897663116455078125</LongitudeDegrees>
            </Position>
            <AltitudeMeters>1577.5999755859375</AltitudeMeters>
            <DistanceMeters>1737.8760485319</DistanceMeters>
          </Trackpoint>
          <Trackpoint>
            <Time>2019-08-04T14:49:06.000Z</Time>
            <Position>
              <LatitudeDegrees>-33.52693920023739337921142578125</LatitudeDegrees>
              <LongitudeDegrees>-70.2260577678680419921875</LongitudeDegrees>
            </Position>
            <AltitudeMeters>1577.5999755859375</AltitudeMeters>
            <DistanceMeters>1738.725993304</DistanceMeters>
          </Trackpoint>
          <Trackpoint>
            <Time>2019-08-04T14:49:07.000Z</Time>
            <Position>
              <LatitudeDegrees>-33.526947163045406341552734375</LatitudeDegrees>
              <LongitudeDegrees>-70.22605441510677337646484375</LongitudeDegrees>
            </Position>
            <AltitudeMeters>1577.800048828125</AltitudeMeters>
            <DistanceMeters>1739.6667097817</DistanceMeters>
          </Trackpoint>
          <Trackpoint>
            <Time>2019-08-04T14:49:11.000Z</Time>
            <Position>
              <LatitudeDegrees>-33.52698647417128086090087890625</LatitudeDegrees>
              <LongitudeDegrees>-70.22602817974984645843505859375</LongitudeDegrees>
            </Position>
            <AltitudeMeters>1577.800048828125</AltitudeMeters>
            <DistanceMeters>1744.6734544535</DistanceMeters>
          </Trackpoint>
          <Trackpoint>
            <Time>2019-08-04T14:49:12.000Z</Time>
            <Position>
              <LatitudeDegrees>-33.52699703536927700042724609375</LatitudeDegrees>
              <LongitudeDegrees>-70.22602013312280178070068359375</LongitudeDegrees>
            </Position>
            <AltitudeMeters>1577.800048828125</AltitudeMeters>
            <DistanceMeters>1746.0635754407</DistanceMeters>
          </Trackpoint>
          <Trackpoint>
            <Time>2019-08-04T14:49:18.000Z</Time>
            <Position>
              <LatitudeDegrees>-33.5270438902080059051513671875</LatitudeDegrees>
              <LongitudeDegrees>-70.22598811425268650054931640625</LongitudeDegrees>
            </Position>
            <AltitudeMeters>1578</AltitudeMeters>
            <DistanceMeters>1752.0653230974</DistanceMeters>
          </Trackpoint>
          <Trackpoint>
            <Time>2019-08-04T14:49:24.000Z</Time>
            <Position>
              <LatitudeDegrees>-33.52707917802035808563232421875</LatitudeDegrees>
              <LongitudeDegrees>-70.225972272455692291259765625</LongitudeDegrees>
            </Position>
            <AltitudeMeters>1578.5999755859375</AltitudeMeters>
            <DistanceMeters>1756.2594367002</DistanceMeters>
          </Trackpoint>
          <Trackpoint>
            <Time>2019-08-04T14:49:26.000Z</Time>
            <Position>
              <LatitudeDegrees>-33.52708755992352962493896484375</LatitudeDegrees>
              <LongitudeDegrees>-70.225966908037662506103515625</LongitudeDegrees>
            </Position>
            <AltitudeMeters>1579</AltitudeMeters>
            <DistanceMeters>1757.313333945</DistanceMeters>
          </Trackpoint>
          <Trackpoint>
            <Time>2019-08-04T14:49:27.000Z</Time>
            <Position>
              <LatitudeDegrees>-33.5270909965038299560546875</LatitudeDegrees>
              <LongitudeDegrees>-70.225968919694423675537109375</LongitudeDegrees>
            </Position>
            <AltitudeMeters>1579.199951171875</AltitudeMeters>
            <DistanceMeters>1757.738306331</DistanceMeters>
          </Trackpoint>
          <Trackpoint>
            <Time>2019-08-04T14:49:29.000Z</Time>
            <Position>
              <LatitudeDegrees>-33.5271015577018260955810546875</LatitudeDegrees>
              <LongitudeDegrees>-70.22597730159759521484375</LongitudeDegrees>
            </Position>
            <AltitudeMeters>1579.199951171875</AltitudeMeters>
            <DistanceMeters>1759.1445732833</DistanceMeters>
          </Trackpoint>
          <Trackpoint>
            <Time>2019-08-04T14:49:31.000Z</Time>
            <Position>
              <LatitudeDegrees>-33.5271112807095050811767578125</LatitudeDegrees>
              <LongitudeDegrees>-70.22598995827138423919677734375</LongitudeDegrees>
            </Position>
            <AltitudeMeters>1579.5999755859375</AltitudeMeters>
            <DistanceMeters>1760.7403431781</DistanceMeters>
          </Trackpoint>
          <Trackpoint>
            <Time>2019-08-04T14:49:32.000Z</Time>
            <Position>
              <LatitudeDegrees>-33.527118153870105743408203125</LatitudeDegrees>
              <LongitudeDegrees>-70.22599381394684314727783203125</LongitudeDegrees>
            </Position>
            <AltitudeMeters>1579.5999755859375</AltitudeMeters>
            <DistanceMeters>1761.5849590903</DistanceMeters>
          </Trackpoint>
          <Trackpoint>
            <Time>2019-08-04T14:49:34.000Z</Time>
            <Position>
              <LatitudeDegrees>-33.5271277092397212982177734375</LatitudeDegrees>
              <LongitudeDegrees>-70.22599180229008197784423828125</LongitudeDegrees>
            </Position>
            <AltitudeMeters>1580</AltitudeMeters>
            <DistanceMeters>1762.6642550929</DistanceMeters>
          </Trackpoint>
          <Trackpoint>
            <Time>2019-08-04T14:49:35.000Z</Time>
            <Position>
              <LatitudeDegrees>-33.5271337442100048065185546875</LatitudeDegrees>
              <LongitudeDegrees>-70.22598861716687679290771484375</LongitudeDegrees>
            </Position>
            <AltitudeMeters>1580.4000244140625</AltitudeMeters>
            <DistanceMeters>1763.4003288573</DistanceMeters>
          </Trackpoint>
          <Trackpoint>
            <Time>2019-08-04T14:49:37.000Z</Time>
            <Position>
              <LatitudeDegrees>-33.5271434672176837921142578125</LatitudeDegrees>
              <LongitudeDegrees>-70.225983001291751861572265625</LongitudeDegrees>
            </Position>
            <AltitudeMeters>1580.5999755859375</AltitudeMeters>
            <DistanceMeters>1764.6023322812</DistanceMeters>
          </Trackpoint>
          <Trackpoint>
            <Time>2019-08-04T14:49:43.000Z</Time>
            <Position>
              <LatitudeDegrees>-33.52718076668679714202880859375</LatitudeDegrees>
              <LongitudeDegrees>-70.225963555276393890380859375</LongitudeDegrees>
            </Position>
            <AltitudeMeters>1581.199951171875</AltitudeMeters>
            <DistanceMeters>1769.1298341893</DistanceMeters>
          </Trackpoint>
          <Trackpoint>
            <Time>2019-08-04T14:49:44.000Z</Time>
            <Position>
              <LatitudeDegrees>-33.5271870531141757965087890625</LatitudeDegrees>
              <LongitudeDegrees>-70.22596053779125213623046875</LongitudeDegrees>
            </Position>
            <AltitudeMeters>1581.4000244140625</AltitudeMeters>
            <DistanceMeters>1769.8840853517</DistanceMeters>
          </Trackpoint>
          <Trackpoint>
            <Time>2019-08-04T14:49:47.000Z</Time>
            <Position>
              <LatitudeDegrees>-33.52720658294856548309326171875</LatitudeDegrees>
              <LongitudeDegrees>-70.225953161716461181640625</LongitudeDegrees>
            </Position>
            <AltitudeMeters>1581.800048828125</AltitudeMeters>
            <DistanceMeters>1772.1647264966</DistanceMeters>
          </Trackpoint>
          <Trackpoint>
            <Time>2019-08-04T14:49:49.000Z</Time>
            <Position>
              <LatitudeDegrees>-33.52722183801233768463134765625</LatitudeDegrees>
              <LongitudeDegrees>-70.22594637237489223480224609375</LongitudeDegrees>
            </Position>
            <AltitudeMeters>1582.199951171875</AltitudeMeters>
            <DistanceMeters>1773.9727330432</DistanceMeters>
          </Trackpoint>
          <Trackpoint>
            <Time>2019-08-04T14:49:50.000Z</Time>
            <Position>
              <LatitudeDegrees>-33.52722887881100177764892578125</LatitudeDegrees>
              <LongitudeDegrees>-70.2259539999067783355712890625</LongitudeDegrees>
            </Position>
            <AltitudeMeters>1582.4000244140625</AltitudeMeters>
            <DistanceMeters>1775.0309057508</DistanceMeters>
          </Trackpoint>
          <Trackpoint>
            <Time>2019-08-04T14:49:56.000Z</Time>
            <Position>
              <LatitudeDegrees>-33.527273721992969512939453125</LatitudeDegrees>
              <LongitudeDegrees>-70.22594972513616085052490234375</LongitudeDegrees>
            </Position>
            <AltitudeMeters>1583.199951171875</AltitudeMeters>
            <DistanceMeters>1780.0376504226</DistanceMeters>
          </Trackpoint>
          <Trackpoint>
            <Time>2019-08-04T14:49:57.000Z</Time>
            <Position>
              <LatitudeDegrees>-33.52728419937193393707275390625</LatitudeDegrees>
              <LongitudeDegrees>-70.22595383226871490478515625</LongitudeDegrees>
            </Position>
            <AltitudeMeters>1583.5999755859375</AltitudeMeters>
            <DistanceMeters>1781.2619839922</DistanceMeters>
          </Trackpoint>
          <Trackpoint>
            <Time>2019-08-04T14:50:02.000Z</Time>
            <Position>
              <LatitudeDegrees>-33.527325689792633056640625</LatitudeDegrees>
              <LongitudeDegrees>-70.22594511508941650390625</LongitudeDegrees>
            </Position>
            <AltitudeMeters>1584</AltitudeMeters>
            <DistanceMeters>1785.950182587</DistanceMeters>
          </Trackpoint>
          <Trackpoint>
            <Time>2019-08-04T14:50:03.000Z</Time>
            <Position>
              <LatitudeDegrees>-33.52733465842902660369873046875</LatitudeDegrees>
              <LongitudeDegrees>-70.22594335488975048065185546875</LongitudeDegrees>
            </Position>
            <AltitudeMeters>1584</AltitudeMeters>
            <DistanceMeters>1786.9647902524</DistanceMeters>
          </Trackpoint>
          <Trackpoint>
            <Time>2019-08-04T14:50:09.000Z</Time>
            <Position>
              <LatitudeDegrees>-33.52738545276224613189697265625</LatitudeDegrees>
              <LongitudeDegrees>-70.2259369008243083953857421875</LongitudeDegrees>
            </Position>
            <AltitudeMeters>1584.5999755859375</AltitudeMeters>
            <DistanceMeters>1792.6489448524</DistanceMeters>
          </Trackpoint>
          <Trackpoint>
            <Time>2019-08-04T14:50:15.000Z</Time>
            <Position>
              <LatitudeDegrees>-33.52742216549813747406005859375</LatitudeDegrees>
              <LongitudeDegrees>-70.22594620473682880401611328125</LongitudeDegrees>
            </Position>
            <AltitudeMeters>1585.800048828125</AltitudeMeters>
            <DistanceMeters>1796.8257986551</DistanceMeters>
          </Trackpoint>
          <Trackpoint>
            <Time>2019-08-04T14:50:17.000Z</Time>
            <Position>
              <LatitudeDegrees>-33.5274338163435459136962890625</LatitudeDegrees>
              <LongitudeDegrees>-70.22594042122364044189453125</LongitudeDegrees>
            </Position>
            <AltitudeMeters>1586</AltitudeMeters>
            <DistanceMeters>1798.2288512788</DistanceMeters>
          </Trackpoint>
          <Trackpoint>
            <Time>2019-08-04T14:50:27.000Z</Time>
            <Position>
              <LatitudeDegrees>-33.52748653851449489593505859375</LatitudeDegrees>
              <LongitudeDegrees>-70.2259456180036067962646484375</LongitudeDegrees>
            </Position>
            <AltitudeMeters>1586.800048828125</AltitudeMeters>
            <DistanceMeters>1804.1166746006</DistanceMeters>
          </Trackpoint>
          <Trackpoint>
            <Time>2019-08-04T14:50:31.000Z</Time>
            <Position>
              <LatitudeDegrees>-33.52750665508210659027099609375</LatitudeDegrees>
              <LongitudeDegrees>-70.22595383226871490478515625</LongitudeDegrees>
            </Position>
            <AltitudeMeters>1588</AltitudeMeters>
            <DistanceMeters>1806.4828207066</DistanceMeters>
          </Trackpoint>
          <Trackpoint>
            <Time>2019-08-04T14:50:32.000Z</Time>
            <Position>
              <LatitudeDegrees>-33.5275147855281829833984375</LatitudeDegrees>
              <LongitudeDegrees>-70.22595827467739582061767578125</LongitudeDegrees>
            </Position>
            <AltitudeMeters>1588.199951171875</AltitudeMeters>
            <DistanceMeters>1807.4794692951</DistanceMeters>
          </Trackpoint>
          <Trackpoint>
            <Time>2019-08-04T14:50:40.000Z</Time>
            <Position>
              <LatitudeDegrees>-33.52757790125906467437744140625</LatitudeDegrees>
              <LongitudeDegrees>-70.225948803126811981201171875</LongitudeDegrees>
            </Position>
            <AltitudeMeters>1589.199951171875</AltitudeMeters>
            <DistanceMeters>1814.558800073</DistanceMeters>
          </Trackpoint>
          <Trackpoint>
            <Time>2019-08-04T14:50:46.000Z</Time>
            <Position>
              <LatitudeDegrees>-33.5276162065565586090087890625</LatitudeDegrees>
              <LongitudeDegrees>-70.225948803126811981201171875</LongitudeDegrees>
            </Position>
            <AltitudeMeters>1590</AltitudeMeters>
            <DistanceMeters>1818.8212540382</DistanceMeters>
          </Trackpoint>
          <Trackpoint>
            <Time>2019-08-04T14:50:47.000Z</Time>
            <Position>
              <LatitudeDegrees>-33.52762542665004730224609375</LatitudeDegrees>
              <LongitudeDegrees>-70.2259456180036067962646484375</LongitudeDegrees>
            </Position>
            <AltitudeMeters>1590</AltitudeMeters>
            <DistanceMeters>1819.8879262615</DistanceMeters>
          </Trackpoint>
          <Trackpoint>
            <Time>2019-08-04T14:50:48.000Z</Time>
            <Position>
              <LatitudeDegrees>-33.5276276059448719024658203125</LatitudeDegrees>
              <LongitudeDegrees>-70.2259392477571964263916015625</LongitudeDegrees>
            </Position>
            <AltitudeMeters>1590.4000244140625</AltitudeMeters>
            <DistanceMeters>1820.5182621748</DistanceMeters>
          </Trackpoint>
          <Trackpoint>
            <Time>2019-08-04T14:50:53.000Z</Time>
            <Position>
              <LatitudeDegrees>-33.5276571102440357208251953125</LatitudeDegrees>
              <LongitudeDegrees>-70.22592474706470966339111328125</LongitudeDegrees>
            </Position>
            <AltitudeMeters>1591.4000244140625</AltitudeMeters>
            <DistanceMeters>1824.0662089842</DistanceMeters>
          </Trackpoint>
          <Trackpoint>
            <Time>2019-08-04T14:50:58.000Z</Time>
            <Position>
              <LatitudeDegrees>-33.52768770419061183929443359375</LatitudeDegrees>
              <LongitudeDegrees>-70.225923322141170501708984375</LongitudeDegrees>
            </Position>
            <AltitudeMeters>1592.4000244140625</AltitudeMeters>
            <DistanceMeters>1827.4739469887</DistanceMeters>
          </Trackpoint>
          <Trackpoint>
            <Time>2019-08-04T14:50:59.000Z</Time>
            <Position>
              <LatitudeDegrees>-33.527695834636688232421875</LatitudeDegrees>
              <LongitudeDegrees>-70.22592030465602874755859375</LongitudeDegrees>
            </Position>
            <AltitudeMeters>1592.4000244140625</AltitudeMeters>
            <DistanceMeters>1828.4194508586</DistanceMeters>
          </Trackpoint>
          <Trackpoint>
            <Time>2019-08-04T14:51:01.000Z</Time>
            <Position>
              <LatitudeDegrees>-33.52770932950079441070556640625</LatitudeDegrees>
              <LongitudeDegrees>-70.22590999491512775421142578125</LongitudeDegrees>
            </Position>
            <AltitudeMeters>1592.800048828125</AltitudeMeters>
            <DistanceMeters>1830.1997757817</DistanceMeters>
          </Trackpoint>
          <Trackpoint>
            <Time>2019-08-04T14:51:04.000Z</Time>
            <Position>
              <LatitudeDegrees>-33.527731038630008697509765625</LatitudeDegrees>
              <LongitudeDegrees>-70.22589348256587982177734375</LongitudeDegrees>
            </Position>
            <AltitudeMeters>1593.5999755859375</AltitudeMeters>
            <DistanceMeters>1833.060064099</DistanceMeters>
          </Trackpoint>
          <Trackpoint>
            <Time>2019-08-04T14:51:09.000Z</Time>
            <Position>
              <LatitudeDegrees>-33.5277643986046314239501953125</LatitudeDegrees>
              <LongitudeDegrees>-70.22586272098124027252197265625</LongitudeDegrees>
            </Position>
            <AltitudeMeters>1594.4000244140625</AltitudeMeters>
            <DistanceMeters>1837.7424807406</DistanceMeters>
          </Trackpoint>
          <Trackpoint>
            <Time>2019-08-04T14:51:10.000Z</Time>
            <Position>
              <LatitudeDegrees>-33.5277704335749149322509765625</LatitudeDegrees>
              <LongitudeDegrees>-70.2258567698299884796142578125</LongitudeDegrees>
            </Position>
            <AltitudeMeters>1594.800048828125</AltitudeMeters>
            <DistanceMeters>1838.6134149639</DistanceMeters>
          </Trackpoint>
          <Trackpoint>
            <Time>2019-08-04T14:51:14.000Z</Time>
            <Position>
              <LatitudeDegrees>-33.5277883708477020263671875</LatitudeDegrees>
              <LongitudeDegrees>-70.22583439014852046966552734375</LongitudeDegrees>
            </Position>
            <AltitudeMeters>1595.800048828125</AltitudeMeters>
            <DistanceMeters>1841.4925832771</DistanceMeters>
          </Trackpoint>
          <Trackpoint>
            <Time>2019-08-04T14:51:16.000Z</Time>
            <Position>
              <LatitudeDegrees>-33.52780044078826904296875</LatitudeDegrees>
              <LongitudeDegrees>-70.22582181729376316070556640625</LongitudeDegrees>
            </Position>
            <AltitudeMeters>1596.199951171875</AltitudeMeters>
            <DistanceMeters>1843.2754424718</DistanceMeters>
          </Trackpoint>
          <Trackpoint>
            <Time>2019-08-04T14:51:18.000Z</Time>
            <Position>
              <LatitudeDegrees>-33.5278110019862651824951171875</LatitudeDegrees>
              <LongitudeDegrees>-70.2258098311722278594970703125</LongitudeDegrees>
            </Position>
            <AltitudeMeters>1596.4000244140625</AltitudeMeters>
            <DistanceMeters>1844.8936891059</DistanceMeters>
          </Trackpoint>
          <Trackpoint>
            <Time>2019-08-04T14:51:21.000Z</Time>
            <Position>
              <LatitudeDegrees>-33.52781645022332668304443359375</LatitudeDegrees>
              <LongitudeDegrees>-70.22579583339393138885498046875</LongitudeDegrees>
            </Position>
            <AltitudeMeters>1597</AltitudeMeters>
            <DistanceMeters>1846.3285610268</DistanceMeters>
          </Trackpoint>
          <Trackpoint>
            <Time>2019-08-04T14:51:28.000Z</Time>
            <Position>
              <LatitudeDegrees>-33.52782256901264190673828125</LatitudeDegrees>
              <LongitudeDegrees>-70.2257826738059520721435546875</LongitudeDegrees>
            </Position>
            <AltitudeMeters>1597.800048828125</AltitudeMeters>
            <DistanceMeters>1847.7251627996</DistanceMeters>
          </Trackpoint>
          <Trackpoint>
            <Time>2019-08-04T14:51:29.000Z</Time>
            <Position>
              <LatitudeDegrees>-33.52782198227941989898681640625</LatitudeDegrees>
              <LongitudeDegrees>-70.22579097189009189605712890625</LongitudeDegrees>
            </Position>
            <AltitudeMeters>1598</AltitudeMeters>
            <DistanceMeters>1848.4971634766</DistanceMeters>
          </Trackpoint>
          <Trackpoint>
            <Time>2019-08-04T14:51:37.000Z</Time>
            <Position>
              <LatitudeDegrees>-33.52784377522766590118408203125</LatitudeDegrees>
              <LongitudeDegrees>-70.225842185318470001220703125</LongitudeDegrees>
            </Position>
            <AltitudeMeters>1598.4000244140625</AltitudeMeters>
            <DistanceMeters>1853.8322174549</DistanceMeters>
          </Trackpoint>
          <Trackpoint>
            <Time>2019-08-04T14:51:41.000Z</Time>
            <Position>
              <LatitudeDegrees>-33.52785500697791576385498046875</LatitudeDegrees>
              <LongitudeDegrees>-70.2258400060236454010009765625</LongitudeDegrees>
            </Position>
            <AltitudeMeters>1598.5999755859375</AltitudeMeters>
            <DistanceMeters>1855.1000319551</DistanceMeters>
          </Trackpoint>
          <Trackpoint>
            <Time>2019-08-04T14:51:44.000Z</Time>
            <Position>
              <LatitudeDegrees>-33.5278693400323390960693359375</LatitudeDegrees>
              <LongitudeDegrees>-70.2258269302546977996826171875</LongitudeDegrees>
            </Position>
            <AltitudeMeters>1598.5999755859375</AltitudeMeters>
            <DistanceMeters>1857.1046226908</DistanceMeters>
          </Trackpoint>
          <Trackpoint>
            <Time>2019-08-04T14:51:47.000Z</Time>
            <Position>
              <LatitudeDegrees>-33.5278864391148090362548828125</LatitudeDegrees>
              <LongitudeDegrees>-70.22582131437957286834716796875</LongitudeDegrees>
            </Position>
            <AltitudeMeters>1598.800048828125</AltitudeMeters>
            <DistanceMeters>1859.0797158592</DistanceMeters>
          </Trackpoint>
          <Trackpoint>
            <Time>2019-08-04T14:51:50.000Z</Time>
            <Position>
              <LatitudeDegrees>-33.52790060453116893768310546875</LatitudeDegrees>
              <LongitudeDegrees>-70.22581058554351329803466796875</LongitudeDegrees>
            </Position>
            <AltitudeMeters>1598.800048828125</AltitudeMeters>
            <DistanceMeters>1860.9466945702</DistanceMeters>
          </Trackpoint>
          <Trackpoint>
            <Time>2019-08-04T14:51:56.000Z</Time>
            <Position>
              <LatitudeDegrees>-33.52794217877089977264404296875</LatitudeDegrees>
              <LongitudeDegrees>-70.22578678093850612640380859375</LongitudeDegrees>
            </Position>
            <AltitudeMeters>1598.5999755859375</AltitudeMeters>
            <DistanceMeters>1866.0746164305</DistanceMeters>
          </Trackpoint>
          <Trackpoint>
            <Time>2019-08-04T14:51:59.000Z</Time>
            <Position>
              <LatitudeDegrees>-33.52796682156622409820556640625</LatitudeDegrees>
              <LongitudeDegrees>-70.2257508225739002227783203125</LongitudeDegrees>
            </Position>
            <AltitudeMeters>1598.5999755859375</AltitudeMeters>
            <DistanceMeters>1870.3938915934</DistanceMeters>
          </Trackpoint>
          <Trackpoint>
            <Time>2019-08-04T14:52:01.000Z</Time>
            <Position>
              <LatitudeDegrees>-33.52798123843967914581298828125</LatitudeDegrees>
              <LongitudeDegrees>-70.22573146037757396697998046875</LongitudeDegrees>
            </Position>
            <AltitudeMeters>1598.5999755859375</AltitudeMeters>
            <DistanceMeters>1872.8016517719</DistanceMeters>
          </Trackpoint>
          <Trackpoint>
            <Time>2019-08-04T14:52:07.000Z</Time>
            <Position>
              <LatitudeDegrees>-33.528004623949527740478515625</LatitudeDegrees>
              <LongitudeDegrees>-70.22570078261196613311767578125</LongitudeDegrees>
            </Position>
            <AltitudeMeters>1598</AltitudeMeters>
            <DistanceMeters>1876.6581444664</DistanceMeters>
          </Trackpoint>
          <Trackpoint>
            <Time>2019-08-04T14:52:18.000Z</Time>
            <Position>
              <LatitudeDegrees>-33.52802381850779056549072265625</LatitudeDegrees>
              <LongitudeDegrees>-70.22565032355487346649169921875</LongitudeDegrees>
            </Position>
            <AltitudeMeters>1597.199951171875</AltitudeMeters>
            <DistanceMeters>1881.8036458155</DistanceMeters>
          </Trackpoint>
          <Trackpoint>
            <Time>2019-08-04T14:52:29.000Z</Time>
            <Position>
              <LatitudeDegrees>-33.52806924842298030853271484375</LatitudeDegrees>
              <LongitudeDegrees>-70.22564730606973171234130859375</LongitudeDegrees>
            </Position>
            <AltitudeMeters>1597.199951171875</AltitudeMeters>
            <DistanceMeters>1886.8668846035</DistanceMeters>
          </Trackpoint>
          <Trackpoint>
            <Time>2019-08-04T14:52:34.000Z</Time>
            <Position>
              <LatitudeDegrees>-33.52809791453182697296142578125</LatitudeDegrees>
              <LongitudeDegrees>-70.2256599627435207366943359375</LongitudeDegrees>
            </Position>
            <AltitudeMeters>1597.199951171875</AltitudeMeters>
            <DistanceMeters>1890.2693187324</DistanceMeters>
          </Trackpoint>
          <Trackpoint>
            <Time>2019-08-04T14:52:35.000Z</Time>
            <Position>
              <LatitudeDegrees>-33.528105877339839935302734375</LatitudeDegrees>
              <LongitudeDegrees>-70.22565736435353755950927734375</LongitudeDegrees>
            </Position>
            <AltitudeMeters>1597</AltitudeMeters>
            <DistanceMeters>1891.1857231787</DistanceMeters>
          </Trackpoint>
          <Trackpoint>
            <Time>2019-08-04T14:52:37.000Z</Time>
            <Position>
              <LatitudeDegrees>-33.52812121622264385223388671875</LatitudeDegrees>
              <LongitudeDegrees>-70.2256492339074611663818359375</LongitudeDegrees>
            </Position>
            <AltitudeMeters>1597</AltitudeMeters>
            <DistanceMeters>1893.0527018898</DistanceMeters>
          </Trackpoint>
          <Trackpoint>
            <Time>2019-08-04T14:52:39.000Z</Time>
            <Position>
              <LatitudeDegrees>-33.528138734400272369384765625</LatitudeDegrees>
              <LongitudeDegrees>-70.225647054612636566162109375</LongitudeDegrees>
            </Position>
            <AltitudeMeters>1597</AltitudeMeters>
            <DistanceMeters>1895.014031175</DistanceMeters>
          </Trackpoint>
          <Trackpoint>
            <Time>2019-08-04T14:52:43.000Z</Time>
            <Position>
              <LatitudeDegrees>-33.52816329337656497955322265625</LatitudeDegrees>
              <LongitudeDegrees>-70.2256445400416851043701171875</LongitudeDegrees>
            </Position>
            <AltitudeMeters>1597</AltitudeMeters>
            <DistanceMeters>1897.7550207046</DistanceMeters>
          </Trackpoint>
          <Trackpoint>
            <Time>2019-08-04T14:52:51.000Z</Time>
            <Position>
              <LatitudeDegrees>-33.5282448492944240570068359375</LatitudeDegrees>
              <LongitudeDegrees>-70.22562718950212001800537109375</LongitudeDegrees>
            </Position>
            <AltitudeMeters>1596.5999755859375</AltitudeMeters>
            <DistanceMeters>1906.9740813666</DistanceMeters>
          </Trackpoint>
          <Trackpoint>
            <Time>2019-08-04T14:52:57.000Z</Time>
            <Position>
              <LatitudeDegrees>-33.5283005051314830780029296875</LatitudeDegrees>
              <LongitudeDegrees>-70.22561428137123584747314453125</LongitudeDegrees>
            </Position>
            <AltitudeMeters>1596.4000244140625</AltitudeMeters>
            <DistanceMeters>1913.2838838232</DistanceMeters>
          </Trackpoint>
          <Trackpoint>
            <Time>2019-08-04T14:53:10.000Z</Time>
            <Position>
              <LatitudeDegrees>-33.5284017585217952728271484375</LatitudeDegrees>
              <LongitudeDegrees>-70.225566588342189788818359375</LongitudeDegrees>
            </Position>
            <AltitudeMeters>1596.5999755859375</AltitudeMeters>
            <DistanceMeters>1925.3914955197</DistanceMeters>
          </Trackpoint>
          <Trackpoint>
            <Time>2019-08-04T14:53:18.000Z</Time>
            <Position>
              <LatitudeDegrees>-33.5284508764743804931640625</LatitudeDegrees>
              <LongitudeDegrees>-70.22554638795554637908935546875</LongitudeDegrees>
            </Position>
            <AltitudeMeters>1596.800048828125</AltitudeMeters>
            <DistanceMeters>1931.1701824544</DistanceMeters>
          </Trackpoint>
          <Trackpoint>
            <Time>2019-08-04T14:53:25.000Z</Time>
            <Position>
              <LatitudeDegrees>-33.52849622257053852081298828125</LatitudeDegrees>
              <LongitudeDegrees>-70.22553130052983760833740234375</LongitudeDegrees>
            </Position>
            <AltitudeMeters>1597</AltitudeMeters>
            <DistanceMeters>1936.4078701347</DistanceMeters>
          </Trackpoint>
          <Trackpoint>
            <Time>2019-08-04T14:53:28.000Z</Time>
            <Position>
              <LatitudeDegrees>-33.5285251401364803314208984375</LatitudeDegrees>
              <LongitudeDegrees>-70.22551084868609905242919921875</LongitudeDegrees>
            </Position>
            <AltitudeMeters>1597.199951171875</AltitudeMeters>
            <DistanceMeters>1940.1442451403</DistanceMeters>
          </Trackpoint>
          <Trackpoint>
            <Time>2019-08-04T14:53:32.000Z</Time>
            <Position>
              <LatitudeDegrees>-33.52855908684432506561279296875</LatitudeDegrees>
              <LongitudeDegrees>-70.22550028748810291290283203125</LongitudeDegrees>
            </Position>
            <AltitudeMeters>1597.4000244140625</AltitudeMeters>
            <DistanceMeters>1944.0472874103</DistanceMeters>
          </Trackpoint>
          <Trackpoint>
            <Time>2019-08-04T14:53:36.000Z</Time>
            <Position>
              <LatitudeDegrees>-33.52859437465667724609375</LatitudeDegrees>
              <LongitudeDegrees>-70.2254792489111423492431640625</LongitudeDegrees>
            </Position>
            <AltitudeMeters>1597.5999755859375</AltitudeMeters>
            <DistanceMeters>1948.4329530183</DistanceMeters>
          </Trackpoint>
          <Trackpoint>
            <Time>2019-08-04T14:53:40.000Z</Time>
            <Position>
              <LatitudeDegrees>-33.52863117121160030364990234375</LatitudeDegrees>
              <LongitudeDegrees>-70.2254604734480381011962890625</LongitudeDegrees>
            </Position>
            <AltitudeMeters>1598</AltitudeMeters>
            <DistanceMeters>1952.8830044384</DistanceMeters>
          </Trackpoint>
          <Trackpoint>
            <Time>2019-08-04T14:53:41.000Z</Time>
            <Position>
              <LatitudeDegrees>-33.52863804437220096588134765625</LatitudeDegrees>
              <LongitudeDegrees>-70.22545762360095977783203125</LongitudeDegrees>
            </Position>
            <AltitudeMeters>1598</AltitudeMeters>
            <DistanceMeters>1953.6893328479</DistanceMeters>
          </Trackpoint>
          <Trackpoint>
            <Time>2019-08-04T14:53:43.000Z</Time>
            <Position>
              <LatitudeDegrees>-33.52864424698054790496826171875</LatitudeDegrees>
              <LongitudeDegrees>-70.22545837797224521636962890625</LongitudeDegrees>
            </Position>
            <AltitudeMeters>1598.199951171875</AltitudeMeters>
            <DistanceMeters>1954.3811377709</DistanceMeters>
          </Trackpoint>
          <Trackpoint>
            <Time>2019-08-04T14:53:50.000Z</Time>
            <Position>
              <LatitudeDegrees>-33.528650365769863128662109375</LatitudeDegrees>
              <LongitudeDegrees>-70.22546357475221157073974609375</LongitudeDegrees>
            </Position>
            <AltitudeMeters>1598.5999755859375</AltitudeMeters>
            <DistanceMeters>1955.2203909882</DistanceMeters>
          </Trackpoint>
          <Trackpoint>
            <Time>2019-08-04T14:53:56.000Z</Time>
            <Position>
              <LatitudeDegrees>-33.52867559529840946197509765625</LatitudeDegrees>
              <LongitudeDegrees>-70.22546675987541675567626953125</LongitudeDegrees>
            </Position>
            <AltitudeMeters>1599</AltitudeMeters>
            <DistanceMeters>1958.0457383255</DistanceMeters>
          </Trackpoint>
          <Trackpoint>
            <Time>2019-08-04T14:54:01.000Z</Time>
            <Position>
              <LatitudeDegrees>-33.5287159122526645660400390625</LatitudeDegrees>
              <LongitudeDegrees>-70.2254608087241649627685546875</LongitudeDegrees>
            </Position>
            <AltitudeMeters>1599.4000244140625</AltitudeMeters>
            <DistanceMeters>1962.5672527918</DistanceMeters>
          </Trackpoint>
          <Trackpoint>
            <Time>2019-08-04T14:54:06.000Z</Time>
            <Position>
              <LatitudeDegrees>-33.5287574864923954010009765625</LatitudeDegrees>
              <LongitudeDegrees>-70.22544278763234615325927734375</LongitudeDegrees>
            </Position>
            <AltitudeMeters>1599.5999755859375</AltitudeMeters>
            <DistanceMeters>1967.4875815355</DistanceMeters>
          </Trackpoint>
          <Trackpoint>
            <Time>2019-08-04T14:54:09.000Z</Time>
            <Position>
              <LatitudeDegrees>-33.52877718396484851837158203125</LatitudeDegrees>
              <LongitudeDegrees>-70.22544261999428272247314453125</LongitudeDegrees>
            </Position>
            <AltitudeMeters>1599.800048828125</AltitudeMeters>
            <DistanceMeters>1969.6793845988</DistanceMeters>
          </Trackpoint>
          <Trackpoint>
            <Time>2019-08-04T14:54:14.000Z</Time>
            <Position>
              <LatitudeDegrees>-33.5288121365010738372802734375</LatitudeDegrees>
              <LongitudeDegrees>-70.22541604936122894287109375</LongitudeDegrees>
            </Position>
            <AltitudeMeters>1600.199951171875</AltitudeMeters>
            <DistanceMeters>1974.2840148218</DistanceMeters>
          </Trackpoint>
          <Trackpoint>
            <Time>2019-08-04T14:54:18.000Z</Time>
            <Position>
              <LatitudeDegrees>-33.52882479317486286163330078125</LatitudeDegrees>
              <LongitudeDegrees>-70.22538461722433567047119140625</LongitudeDegrees>
            </Position>
            <AltitudeMeters>1600.5999755859375</AltitudeMeters>
            <DistanceMeters>1977.5232969688</DistanceMeters>
          </Trackpoint>
          <Trackpoint>
            <Time>2019-08-04T14:54:19.000Z</Time>
            <Position>
              <LatitudeDegrees>-33.52882361970841884613037109375</LatitudeDegrees>
              <LongitudeDegrees>-70.22537724114954471588134765625</LongitudeDegrees>
            </Position>
            <AltitudeMeters>1600.800048828125</AltitudeMeters>
            <DistanceMeters>1978.2215978552</DistanceMeters>
          </Trackpoint>
          <Trackpoint>
            <Time>2019-08-04T14:54:20.000Z</Time>
            <Position>
              <LatitudeDegrees>-33.528823368251323699951171875</LatitudeDegrees>
              <LongitudeDegrees>-70.2253702841699123382568359375</LongitudeDegrees>
            </Position>
            <AltitudeMeters>1600.800048828125</AltitudeMeters>
            <DistanceMeters>1978.8661003893</DistanceMeters>
          </Trackpoint>
          <Trackpoint>
            <Time>2019-08-04T14:54:23.000Z</Time>
            <Position>
              <LatitudeDegrees>-33.52881875820457935333251953125</LatitudeDegrees>
              <LongitudeDegrees>-70.22535259835422039031982421875</LongitudeDegrees>
            </Position>
            <AltitudeMeters>1601.4000244140625</AltitudeMeters>
            <DistanceMeters>1980.5871073833</DistanceMeters>
          </Trackpoint>
          <Trackpoint>
            <Time>2019-08-04T14:54:31.000Z</Time>
            <Position>
              <LatitudeDegrees>-33.528811298310756683349609375</LatitudeDegrees>
              <LongitudeDegrees>-70.225291661918163299560546875</LongitudeDegrees>
            </Position>
            <AltitudeMeters>1602.5999755859375</AltitudeMeters>
            <DistanceMeters>1986.3013664273</DistanceMeters>
          </Trackpoint>
          <Trackpoint>
            <Time>2019-08-04T14:54:37.000Z</Time>
            <Position>
              <LatitudeDegrees>-33.52879260666668415069580078125</LatitudeDegrees>
              <LongitudeDegrees>-70.22524883039295673370361328125</LongitudeDegrees>
            </Position>
            <AltitudeMeters>1603.199951171875</AltitudeMeters>
            <DistanceMeters>1990.7867884049</DistanceMeters>
          </Trackpoint>
          <Trackpoint>
            <Time>2019-08-04T14:54:39.000Z</Time>
            <Position>
              <LatitudeDegrees>-33.5287970490753650665283203125</LatitudeDegrees>
              <LongitudeDegrees>-70.22523575462400913238525390625</LongitudeDegrees>
            </Position>
            <AltitudeMeters>1603.5999755859375</AltitudeMeters>
            <DistanceMeters>1992.0966412685</DistanceMeters>
          </Trackpoint>
          <Trackpoint>
            <Time>2019-08-04T14:54:43.000Z</Time>
            <Position>
              <LatitudeDegrees>-33.52879847399890422821044921875</LatitudeDegrees>
              <LongitudeDegrees>-70.22521412931382656097412109375</LongitudeDegrees>
            </Position>
            <AltitudeMeters>1604.4000244140625</AltitudeMeters>
            <DistanceMeters>1994.1102212454</DistanceMeters>
          </Trackpoint>
          <Trackpoint>
            <Time>2019-08-04T14:54:45.000Z</Time>
            <Position>
              <LatitudeDegrees>-33.52879914455115795135498046875</LatitudeDegrees>
              <LongitudeDegrees>-70.225203819572925567626953125</LongitudeDegrees>
            </Position>
            <AltitudeMeters>1605</AltitudeMeters>
            <DistanceMeters>1995.0699440164</DistanceMeters>
          </Trackpoint>
          <Trackpoint>
            <Time>2019-08-04T14:54:48.000Z</Time>
            <Position>
              <LatitudeDegrees>-33.52880886755883693695068359375</LatitudeDegrees>
              <LongitudeDegrees>-70.2251825295388698577880859375</LongitudeDegrees>
            </Position>
            <AltitudeMeters>1605.5999755859375</AltitudeMeters>
            <DistanceMeters>1997.3206934217</DistanceMeters>
          </Trackpoint>
          <Trackpoint>
            <Time>2019-08-04T14:54:51.000Z</Time>
            <Position>
              <LatitudeDegrees>-33.5288158245384693145751953125</LatitudeDegrees>
              <LongitudeDegrees>-70.2251610718667507171630859375</LongitudeDegrees>
            </Position>
            <AltitudeMeters>1606</AltitudeMeters>
            <DistanceMeters>1999.4540378682</DistanceMeters>
          </Trackpoint>
          <Trackpoint>
            <Time>2019-08-04T14:54:56.000Z</Time>
            <Position>
              <LatitudeDegrees>-33.52882160805165767669677734375</LatitudeDegrees>
              <LongitudeDegrees>-70.22513165138661861419677734375</LongitudeDegrees>
            </Position>
            <AltitudeMeters>1607</AltitudeMeters>
            <DistanceMeters>2002.2569232577</DistanceMeters>
          </Trackpoint>
          <Trackpoint>
            <Time>2019-08-04T14:55:01.000Z</Time>
            <Position>
              <LatitudeDegrees>-33.52883166633546352386474609375</LatitudeDegrees>
              <LongitudeDegrees>-70.22509963251650333404541015625</LongitudeDegrees>
            </Position>
            <AltitudeMeters>1607.800048828125</AltitudeMeters>
            <DistanceMeters>2005.4314413804</DistanceMeters>
          </Trackpoint>
          <Trackpoint>
            <Time>2019-08-04T14:55:02.000Z</Time>
            <Position>
              <LatitudeDegrees>-33.528832755982875823974609375</LatitudeDegrees>
              <LongitudeDegrees>-70.2250908315181732177734375</LongitudeDegrees>
            </Position>
            <AltitudeMeters>1608</AltitudeMeters>
            <DistanceMeters>2006.2598650701</DistanceMeters>
          </Trackpoint>
          <Trackpoint>
            <Time>2019-08-04T14:55:03.000Z</Time>
            <Position>
              <LatitudeDegrees>-33.5288329236209392547607421875</LatitudeDegrees>
              <LongitudeDegrees>-70.22508404217660427093505859375</LongitudeDegrees>
            </Position>
            <AltitudeMeters>1608.199951171875</AltitudeMeters>
            <DistanceMeters>2006.8902009834</DistanceMeters>
          </Trackpoint>
          <Trackpoint>
            <Time>2019-08-04T14:55:12.000Z</Time>
            <Position>
              <LatitudeDegrees>-33.528850860893726348876953125</LatitudeDegrees>
              <LongitudeDegrees>-70.22501237690448760986328125</LongitudeDegrees>
            </Position>
            <AltitudeMeters>1609.199951171875</AltitudeMeters>
            <DistanceMeters>2013.8323561229</DistanceMeters>
          </Trackpoint>
          <Trackpoint>
            <Time>2019-08-04T14:55:16.000Z</Time>
            <Position>
              <LatitudeDegrees>-33.52885412983596324920654296875</LatitudeDegrees>
              <LongitudeDegrees>-70.22497926838696002960205078125</LongitudeDegrees>
            </Position>
            <AltitudeMeters>1609.5999755859375</AltitudeMeters>
            <DistanceMeters>2016.926201793</DistanceMeters>
          </Trackpoint>
          <Trackpoint>
            <Time>2019-08-04T14:55:21.000Z</Time>
            <Position>
              <LatitudeDegrees>-33.528857566416263580322265625</LatitudeDegrees>
              <LongitudeDegrees>-70.22493802942335605621337890625</LongitudeDegrees>
            </Position>
            <AltitudeMeters>1610.199951171875</AltitudeMeters>
            <DistanceMeters>2020.7721431882</DistanceMeters>
          </Trackpoint>
          <Trackpoint>
            <Time>2019-08-04T14:55:26.000Z</Time>
            <Position>
              <LatitudeDegrees>-33.5288533754646778106689453125</LatitudeDegrees>
              <LongitudeDegrees>-70.22488656453788280487060546875</LongitudeDegrees>
            </Position>
            <AltitudeMeters>1610.800048828125</AltitudeMeters>
            <DistanceMeters>2025.5707570435</DistanceMeters>
          </Trackpoint>
          <Trackpoint>
            <Time>2019-08-04T14:55:29.000Z</Time>
            <Position>
              <LatitudeDegrees>-33.52885714732110500335693359375</LatitudeDegrees>
              <LongitudeDegrees>-70.22487550042569637298583984375</LongitudeDegrees>
            </Position>
            <AltitudeMeters>1611.199951171875</AltitudeMeters>
            <DistanceMeters>2026.6789494439</DistanceMeters>
          </Trackpoint>
          <Trackpoint>
            <Time>2019-08-04T14:55:30.000Z</Time>
            <Position>
              <LatitudeDegrees>-33.52885781787335872650146484375</LatitudeDegrees>
              <LongitudeDegrees>-70.2248680405318737030029296875</LongitudeDegrees>
            </Position>
            <AltitudeMeters>1611.4000244140625</AltitudeMeters>
            <DistanceMeters>2027.370754367</DistanceMeters>
          </Trackpoint>
          <Trackpoint>
            <Time>2019-08-04T14:55:38.000Z</Time>
            <Position>
              <LatitudeDegrees>-33.52886259555816650390625</LatitudeDegrees>
              <LongitudeDegrees>-70.22479620762169361114501953125</LongitudeDegrees>
            </Position>
            <AltitudeMeters>1612.4000244140625</AltitudeMeters>
            <DistanceMeters>2034.0564763473</DistanceMeters>
          </Trackpoint>
          <Trackpoint>
            <Time>2019-08-04T14:55:43.000Z</Time>
            <Position>
              <LatitudeDegrees>-33.52886460721492767333984375</LatitudeDegrees>
              <LongitudeDegrees>-70.22475262172520160675048828125</LongitudeDegrees>
            </Position>
            <AltitudeMeters>1612.800048828125</AltitudeMeters>
            <DistanceMeters>2038.1059971612</DistanceMeters>
          </Trackpoint>
          <Trackpoint>
            <Time>2019-08-04T14:55:49.000Z</Time>
            <Position>
              <LatitudeDegrees>-33.52886997163295745849609375</LatitudeDegrees>
              <LongitudeDegrees>-70.22470098920166492462158203125</LongitudeDegrees>
            </Position>
            <AltitudeMeters>1613.4000244140625</AltitudeMeters>
            <DistanceMeters>2042.9327556206</DistanceMeters>
          </Trackpoint>
          <Trackpoint>
            <Time>2019-08-04T14:55:57.000Z</Time>
            <Position>
              <LatitudeDegrees>-33.5288845561444759368896484375</LatitudeDegrees>
              <LongitudeDegrees>-70.2246423996984958648681640625</LongitudeDegrees>
            </Position>
            <AltitudeMeters>1614.4000244140625</AltitudeMeters>
            <DistanceMeters>2048.6049829053</DistanceMeters>
          </Trackpoint>
          <Trackpoint>
            <Time>2019-08-04T14:55:58.000Z</Time>
            <Position>
              <LatitudeDegrees>-33.52888732217252254486083984375</LatitudeDegrees>
              <LongitudeDegrees>-70.22463862784206867218017578125</LongitudeDegrees>
            </Position>
            <AltitudeMeters>1614.5999755859375</AltitudeMeters>
            <DistanceMeters>2049.0705168296</DistanceMeters>
          </Trackpoint>
          <Trackpoint>
            <Time>2019-08-04T14:56:02.000Z</Time>
            <Position>
              <LatitudeDegrees>-33.52889386005699634552001953125</LatitudeDegrees>
              <LongitudeDegrees>-70.2246135659515857696533203125</LongitudeDegrees>
            </Position>
            <AltitudeMeters>1615</AltitudeMeters>
            <DistanceMeters>2051.5080956078</DistanceMeters>
          </Trackpoint>
          <Trackpoint>
            <Time>2019-08-04T14:56:06.000Z</Time>
            <Position>
              <LatitudeDegrees>-33.52889386005699634552001953125</LatitudeDegrees>
              <LongitudeDegrees>-70.22457794286310672760009765625</LongitudeDegrees>
            </Position>
            <AltitudeMeters>1615.5999755859375</AltitudeMeters>
            <DistanceMeters>2054.8136050235</DistanceMeters>
          </Trackpoint>
          <Trackpoint>
            <Time>2019-08-04T14:56:12.000Z</Time>
            <Position>
              <LatitudeDegrees>-33.52886804379522800445556640625</LatitudeDegrees>
              <LongitudeDegrees>-70.22451817989349365234375</LongitudeDegrees>
            </Position>
            <AltitudeMeters>1616.4000244140625</AltitudeMeters>
            <DistanceMeters>2061.0593980266</DistanceMeters>
          </Trackpoint>
          <Trackpoint>
            <Time>2019-08-04T14:56:15.000Z</Time>
            <Position>
              <LatitudeDegrees>-33.528858236968517303466796875</LatitudeDegrees>
              <LongitudeDegrees>-70.22449395619332790374755859375</LongitudeDegrees>
            </Position>
            <AltitudeMeters>1616.5999755859375</AltitudeMeters>
            <DistanceMeters>2063.5591605952</DistanceMeters>
          </Trackpoint>
          <Trackpoint>
            <Time>2019-08-04T14:56:20.000Z</Time>
            <Position>
              <LatitudeDegrees>-33.52884046733379364013671875</LatitudeDegrees>
              <LongitudeDegrees>-70.22444584406912326812744140625</LongitudeDegrees>
            </Position>
            <AltitudeMeters>1617.199951171875</AltitudeMeters>
            <DistanceMeters>2068.4417215843</DistanceMeters>
          </Trackpoint>
          <Trackpoint>
            <Time>2019-08-04T14:56:23.000Z</Time>
            <Position>
              <LatitudeDegrees>-33.52883753366768360137939453125</LatitudeDegrees>
              <LongitudeDegrees>-70.2244077064096927642822265625</LongitudeDegrees>
            </Position>
            <AltitudeMeters>1617.4000244140625</AltitudeMeters>
            <DistanceMeters>2071.9947550585</DistanceMeters>
          </Trackpoint>
          <Trackpoint>
            <Time>2019-08-04T14:56:26.000Z</Time>
            <Position>
              <LatitudeDegrees>-33.5288359411060810089111328125</LatitudeDegrees>
              <LongitudeDegrees>-70.2243818901479244232177734375</LongitudeDegrees>
            </Position>
            <AltitudeMeters>1617.5999755859375</AltitudeMeters>
            <DistanceMeters>2074.3950027064</DistanceMeters>
          </Trackpoint>
          <Trackpoint>
            <Time>2019-08-04T14:56:27.000Z</Time>
            <Position>
              <LatitudeDegrees>-33.5288359411060810089111328125</LatitudeDegrees>
              <LongitudeDegrees>-70.22437267005443572998046875</LongitudeDegrees>
            </Position>
            <AltitudeMeters>1617.5999755859375</AltitudeMeters>
            <DistanceMeters>2075.2449474784</DistanceMeters>
          </Trackpoint>
          <Trackpoint>
            <Time>2019-08-04T14:56:31.000Z</Time>
            <Position>
              <LatitudeDegrees>-33.52883116342127323150634765625</LatitudeDegrees>
              <LongitudeDegrees>-70.2243443392217159271240234375</LongitudeDegrees>
            </Position>
            <AltitudeMeters>1618</AltitudeMeters>
            <DistanceMeters>2077.9259810197</DistanceMeters>
          </Trackpoint>
          <Trackpoint>
            <Time>2019-08-04T14:56:36.000Z</Time>
            <Position>
              <LatitudeDegrees>-33.52883803658187389373779296875</LatitudeDegrees>
              <LongitudeDegrees>-70.22429983131587505340576171875</LongitudeDegrees>
            </Position>
            <AltitudeMeters>1618.4000244140625</AltitudeMeters>
            <DistanceMeters>2082.1254737622</DistanceMeters>
          </Trackpoint>
          <Trackpoint>
            <Time>2019-08-04T14:56:39.000Z</Time>
            <Position>
              <LatitudeDegrees>-33.528828732669353485107421875</LatitudeDegrees>
              <LongitudeDegrees>-70.22427351213991641998291015625</LongitudeDegrees>
            </Position>
            <AltitudeMeters>1619</AltitudeMeters>
            <DistanceMeters>2084.7760207762</DistanceMeters>
          </Trackpoint>
          <Trackpoint>
            <Time>2019-08-04T14:56:41.000Z</Time>
            <Position>
              <LatitudeDegrees>-33.5288221947848796844482421875</LatitudeDegrees>
              <LongitudeDegrees>-70.22425758652389049530029296875</LongitudeDegrees>
            </Position>
            <AltitudeMeters>1619.4000244140625</AltitudeMeters>
            <DistanceMeters>2086.4219317499</DistanceMeters>
          </Trackpoint>
          <Trackpoint>
            <Time>2019-08-04T14:56:47.000Z</Time>
            <Position>
              <LatitudeDegrees>-33.528813309967517852783203125</LatitudeDegrees>
              <LongitudeDegrees>-70.22421802394092082977294921875</LongitudeDegrees>
            </Position>
            <AltitudeMeters>1620</AltitudeMeters>
            <DistanceMeters>2090.2230003247</DistanceMeters>
          </Trackpoint>
          <Trackpoint>
            <Time>2019-08-04T14:56:57.000Z</Time>
            <Position>
              <LatitudeDegrees>-33.52880635298788547515869140625</LatitudeDegrees>
              <LongitudeDegrees>-70.224167816340923309326171875</LongitudeDegrees>
            </Position>
            <AltitudeMeters>1621</AltitudeMeters>
            <DistanceMeters>2094.9457419878</DistanceMeters>
          </Trackpoint>
          <Trackpoint>
            <Time>2019-08-04T14:56:58.000Z</Time>
            <Position>
              <LatitudeDegrees>-33.52880534715950489044189453125</LatitudeDegrees>
              <LongitudeDegrees>-70.22416052408516407012939453125</LongitudeDegrees>
            </Position>
            <AltitudeMeters>1621</AltitudeMeters>
            <DistanceMeters>2095.6309893702</DistanceMeters>
          </Trackpoint>
          <Trackpoint>
            <Time>2019-08-04T14:56:59.000Z</Time>
            <Position>
              <LatitudeDegrees>-33.5288074426352977752685546875</LatitudeDegrees>
              <LongitudeDegrees>-70.22414895705878734588623046875</LongitudeDegrees>
            </Position>
            <AltitudeMeters>1621.199951171875</AltitudeMeters>
            <DistanceMeters>2096.7310031172</DistanceMeters>
          </Trackpoint>
          <Trackpoint>
            <Time>2019-08-04T14:57:07.000Z</Time>
            <Position>
              <LatitudeDegrees>-33.52881037630140781402587890625</LatitudeDegrees>
              <LongitudeDegrees>-70.224083997309207916259765625</LongitudeDegrees>
            </Position>
            <AltitudeMeters>1622.199951171875</AltitudeMeters>
            <DistanceMeters>2102.7665087609</DistanceMeters>
          </Trackpoint>
          <Trackpoint>
            <Time>2019-08-04T14:57:10.000Z</Time>
            <Position>
              <LatitudeDegrees>-33.528811298310756683349609375</LatitudeDegrees>
              <LongitudeDegrees>-70.2240781299769878387451171875</LongitudeDegrees>
            </Position>
            <AltitudeMeters>1622.4000244140625</AltitudeMeters>
            <DistanceMeters>2103.3206049611</DistanceMeters>
          </Trackpoint>
          <Trackpoint>
            <Time>2019-08-04T14:57:20.000Z</Time>
            <Position>
              <LatitudeDegrees>-33.5288272239267826080322265625</LatitudeDegrees>
              <LongitudeDegrees>-70.224059186875820159912109375</LongitudeDegrees>
            </Position>
            <AltitudeMeters>1623.199951171875</AltitudeMeters>
            <DistanceMeters>2105.8167525421</DistanceMeters>
          </Trackpoint>
          <Trackpoint>
            <Time>2019-08-04T14:57:24.000Z</Time>
            <Position>
              <LatitudeDegrees>-33.528838120400905609130859375</LatitudeDegrees>
              <LongitudeDegrees>-70.2240301854908466339111328125</LongitudeDegrees>
            </Position>
            <AltitudeMeters>1624</AltitudeMeters>
            <DistanceMeters>2108.768705077</DistanceMeters>
          </Trackpoint>
          <Trackpoint>
            <Time>2019-08-04T14:57:29.000Z</Time>
            <Position>
              <LatitudeDegrees>-33.52885186672210693359375</LatitudeDegrees>
              <LongitudeDegrees>-70.2239949814975261688232421875</LongitudeDegrees>
            </Position>
            <AltitudeMeters>1624.4000244140625</AltitudeMeters>
            <DistanceMeters>2112.3747153487</DistanceMeters>
          </Trackpoint>
          <Trackpoint>
            <Time>2019-08-04T14:57:36.000Z</Time>
            <Position>
              <LatitudeDegrees>-33.5288687981665134429931640625</LatitudeDegrees>
              <LongitudeDegrees>-70.223982073366641998291015625</LongitudeDegrees>
            </Position>
            <AltitudeMeters>1625.199951171875</AltitudeMeters>
            <DistanceMeters>2114.6073376179</DistanceMeters>
          </Trackpoint>
          <Trackpoint>
            <Time>2019-08-04T14:57:38.000Z</Time>
            <Position>
              <LatitudeDegrees>-33.528876341879367828369140625</LatitudeDegrees>
              <LongitudeDegrees>-70.223987437784671783447265625</LongitudeDegrees>
            </Position>
            <AltitudeMeters>1625.4000244140625</AltitudeMeters>
            <DistanceMeters>2115.5856975226</DistanceMeters>
          </Trackpoint>
          <Trackpoint>
            <Time>2019-08-04T14:57:39.000Z</Time>
            <Position>
              <LatitudeDegrees>-33.528878688812255859375</LatitudeDegrees>
              <LongitudeDegrees>-70.22398768924176692962646484375</LongitudeDegrees>
            </Position>
            <AltitudeMeters>1625.4000244140625</AltitudeMeters>
            <DistanceMeters>2115.8544736591</DistanceMeters>
          </Trackpoint>
          <Trackpoint>
            <Time>2019-08-04T14:57:41.000Z</Time>
            <Position>
              <LatitudeDegrees>-33.528886400163173675537109375</LatitudeDegrees>
              <LongitudeDegrees>-70.22398316301405429840087890625</LongitudeDegrees>
            </Position>
            <AltitudeMeters>1625.800048828125</AltitudeMeters>
            <DistanceMeters>2116.8047408028</DistanceMeters>
          </Trackpoint>
          <Trackpoint>
            <Time>2019-08-04T14:57:43.000Z</Time>
            <Position>
              <LatitudeDegrees>-33.52889687754213809967041015625</LatitudeDegrees>
              <LongitudeDegrees>-70.22398651577532291412353515625</LongitudeDegrees>
            </Position>
            <AltitudeMeters>1626</AltitudeMeters>
            <DistanceMeters>2118.0067442267</DistanceMeters>
          </Trackpoint>
          <Trackpoint>
            <Time>2019-08-04T14:57:47.000Z</Time>
            <Position>
              <LatitudeDegrees>-33.5289097018539905548095703125</LatitudeDegrees>
              <LongitudeDegrees>-70.22400814108550548553466796875</LongitudeDegrees>
            </Position>
            <AltitudeMeters>1626.5999755859375</AltitudeMeters>
            <DistanceMeters>2120.4701182077</DistanceMeters>
          </Trackpoint>
          <Trackpoint>
            <Time>2019-08-04T14:57:50.000Z</Time>
            <Position>
              <LatitudeDegrees>-33.52891598828136920928955078125</LatitudeDegrees>
              <LongitudeDegrees>-70.224027000367641448974609375</LongitudeDegrees>
            </Position>
            <AltitudeMeters>1626.800048828125</AltitudeMeters>
            <DistanceMeters>2122.3539494216</DistanceMeters>
          </Trackpoint>
          <Trackpoint>
            <Time>2019-08-04T14:57:51.000Z</Time>
            <Position>
              <LatitudeDegrees>-33.52891900576651096343994140625</LatitudeDegrees>
              <LongitudeDegrees>-70.22403077222406864166259765625</LongitudeDegrees>
            </Position>
            <AltitudeMeters>1627</AltitudeMeters>
            <DistanceMeters>2122.8384924925</DistanceMeters>
          </Trackpoint>
          <Trackpoint>
            <Time>2019-08-04T14:57:56.000Z</Time>
            <Position>
              <LatitudeDegrees>-33.52893107570707798004150390625</LatitudeDegrees>
              <LongitudeDegrees>-70.2240375615656375885009765625</LongitudeDegrees>
            </Position>
            <AltitudeMeters>1627.5999755859375</AltitudeMeters>
            <DistanceMeters>2124.3228572227</DistanceMeters>
          </Trackpoint>
          <Trackpoint>
            <Time>2019-08-04T14:58:03.000Z</Time>
            <Position>
              <LatitudeDegrees>-33.528969548642635345458984375</LatitudeDegrees>
              <LongitudeDegrees>-70.22402004338800907135009765625</LongitudeDegrees>
            </Position>
            <AltitudeMeters>1628.4000244140625</AltitudeMeters>
            <DistanceMeters>2128.9038939673</DistanceMeters>
          </Trackpoint>
          <Trackpoint>
            <Time>2019-08-04T14:58:06.000Z</Time>
            <Position>
              <LatitudeDegrees>-33.5289784334599971771240234375</LatitudeDegrees>
              <LongitudeDegrees>-70.224000178277492523193359375</LongitudeDegrees>
            </Position>
            <AltitudeMeters>1628.5999755859375</AltitudeMeters>
            <DistanceMeters>2130.9944816835</DistanceMeters>
          </Trackpoint>
          <Trackpoint>
            <Time>2019-08-04T14:58:14.000Z</Time>
            <Position>
              <LatitudeDegrees>-33.52899192832410335540771484375</LatitudeDegrees>
              <LongitudeDegrees>-70.223944522440433502197265625</LongitudeDegrees>
            </Position>
            <AltitudeMeters>1630</AltitudeMeters>
            <DistanceMeters>2136.3733630659</DistanceMeters>
          </Trackpoint>
          <Trackpoint>
            <Time>2019-08-04T14:58:15.000Z</Time>
            <Position>
              <LatitudeDegrees>-33.528992347419261932373046875</LatitudeDegrees>
              <LongitudeDegrees>-70.2239379845559597015380859375</LongitudeDegrees>
            </Position>
            <AltitudeMeters>1630.199951171875</AltitudeMeters>
            <DistanceMeters>2136.9892065612</DistanceMeters>
          </Trackpoint>
          <Trackpoint>
            <Time>2019-08-04T14:58:20.000Z</Time>
            <Position>
              <LatitudeDegrees>-33.528999388217926025390625</LatitudeDegrees>
              <LongitudeDegrees>-70.2239111624658107757568359375</LongitudeDegrees>
            </Position>
            <AltitudeMeters>1630.5999755859375</AltitudeMeters>
            <DistanceMeters>2139.598550854</DistanceMeters>
          </Trackpoint>
          <Trackpoint>
            <Time>2019-08-04T14:58:23.000Z</Time>
            <Position>
              <LatitudeDegrees>-33.52900466881692409515380859375</LatitudeDegrees>
              <LongitudeDegrees>-70.22389062680304050445556640625</LongitudeDegrees>
            </Position>
            <AltitudeMeters>1631</AltitudeMeters>
            <DistanceMeters>2141.5918480309</DistanceMeters>
          </Trackpoint>
          <Trackpoint>
            <Time>2019-08-04T14:58:30.000Z</Time>
            <Position>
              <LatitudeDegrees>-33.52900483645498752593994140625</LatitudeDegrees>
              <LongitudeDegrees>-70.22383731789886951446533203125</LongitudeDegrees>
            </Position>
            <AltitudeMeters>1632</AltitudeMeters>
            <DistanceMeters>2146.5387164507</DistanceMeters>
          </Trackpoint>
          <Trackpoint>
            <Time>2019-08-04T14:58:31.000Z</Time>
            <Position>
              <LatitudeDegrees>-33.529004752635955810546875</LatitudeDegrees>
              <LongitudeDegrees>-70.22383027710020542144775390625</LongitudeDegrees>
            </Position>
            <AltitudeMeters>1632.199951171875</AltitudeMeters>
            <DistanceMeters>2147.1970808402</DistanceMeters>
          </Trackpoint>
          <Trackpoint>
            <Time>2019-08-04T14:58:39.000Z</Time>
            <Position>
              <LatitudeDegrees>-33.52902285754680633544921875</LatitudeDegrees>
              <LongitudeDegrees>-70.22377185523509979248046875</LongitudeDegrees>
            </Position>
            <AltitudeMeters>1633</AltitudeMeters>
            <DistanceMeters>2152.9804538308</DistanceMeters>
          </Trackpoint>
          <Trackpoint>
            <Time>2019-08-04T14:58:45.000Z</Time>
            <Position>
              <LatitudeDegrees>-33.52903735823929309844970703125</LatitudeDegrees>
              <LongitudeDegrees>-70.22372634150087833404541015625</LongitudeDegrees>
            </Position>
            <AltitudeMeters>1633.800048828125</AltitudeMeters>
            <DistanceMeters>2157.5019682971</DistanceMeters>
          </Trackpoint>
          <Trackpoint>
            <Time>2019-08-04T14:58:49.000Z</Time>
            <Position>
              <LatitudeDegrees>-33.52904699742794036865234375</LatitudeDegrees>
              <LongitudeDegrees>-70.22370588965713977813720703125</LongitudeDegrees>
            </Position>
            <AltitudeMeters>1634.199951171875</AltitudeMeters>
            <DistanceMeters>2159.6813765217</DistanceMeters>
          </Trackpoint>
          <Trackpoint>
            <Time>2019-08-04T14:58:56.000Z</Time>
            <Position>
              <LatitudeDegrees>-33.52906518615782260894775390625</LatitudeDegrees>
              <LongitudeDegrees>-70.22369683720171451568603515625</LongitudeDegrees>
            </Position>
            <AltitudeMeters>1635.199951171875</AltitudeMeters>
            <DistanceMeters>2161.8711186508</DistanceMeters>
          </Trackpoint>
          <Trackpoint>
            <Time>2019-08-04T14:58:57.000Z</Time>
            <Position>
              <LatitudeDegrees>-33.52907021529972553253173828125</LatitudeDegrees>
              <LongitudeDegrees>-70.22369541227817535400390625</LongitudeDegrees>
            </Position>
            <AltitudeMeters>1635.199951171875</AltitudeMeters>
            <DistanceMeters>2162.441278937</DistanceMeters>
          </Trackpoint>
          <Trackpoint>
            <Time>2019-08-04T14:59:01.000Z</Time>
            <Position>
              <LatitudeDegrees>-33.5290941037237644195556640625</LatitudeDegrees>
              <LongitudeDegrees>-70.223677642643451690673828125</LongitudeDegrees>
            </Position>
            <AltitudeMeters>1635.800048828125</AltitudeMeters>
            <DistanceMeters>2165.5699532354</DistanceMeters>
          </Trackpoint>
          <Trackpoint>
            <Time>2019-08-04T14:59:03.000Z</Time>
            <Position>
              <LatitudeDegrees>-33.5291061736643314361572265625</LatitudeDegrees>
              <LongitudeDegrees>-70.22367236204445362091064453125</LongitudeDegrees>
            </Position>
            <AltitudeMeters>1636.199951171875</AltitudeMeters>
            <DistanceMeters>2166.9985179964</DistanceMeters>
          </Trackpoint>
          <Trackpoint>
            <Time>2019-08-04T14:59:08.000Z</Time>
            <Position>
              <LatitudeDegrees>-33.52912838570773601531982421875</LatitudeDegrees>
              <LongitudeDegrees>-70.22370236925780773162841796875</LongitudeDegrees>
            </Position>
            <AltitudeMeters>1636.800048828125</AltitudeMeters>
            <DistanceMeters>2170.7215768653</DistanceMeters>
          </Trackpoint>
          <Trackpoint>
            <Time>2019-08-04T14:59:11.000Z</Time>
            <Position>
              <LatitudeDegrees>-33.52914079092442989349365234375</LatitudeDegrees>
              <LongitudeDegrees>-70.22372986190021038055419921875</LongitudeDegrees>
            </Position>
            <AltitudeMeters>1637.4000244140625</AltitudeMeters>
            <DistanceMeters>2173.6226165489</DistanceMeters>
          </Trackpoint>
          <Trackpoint>
            <Time>2019-08-04T14:59:17.000Z</Time>
            <Position>
              <LatitudeDegrees>-33.52917037904262542724609375</LatitudeDegrees>
              <LongitudeDegrees>-70.22376590408384799957275390625</LongitudeDegrees>
            </Position>
            <AltitudeMeters>1638.4000244140625</AltitudeMeters>
            <DistanceMeters>2178.3146658208</DistanceMeters>
          </Trackpoint>
          <Trackpoint>
            <Time>2019-08-04T14:59:23.000Z</Time>
            <Position>
              <LatitudeDegrees>-33.52921019308269023895263671875</LatitudeDegrees>
              <LongitudeDegrees>-70.2237683348357677459716796875</LongitudeDegrees>
            </Position>
            <AltitudeMeters>1639.199951171875</AltitudeMeters>
            <DistanceMeters>2182.7515077887</DistanceMeters>
          </Trackpoint>
          <Trackpoint>
            <Time>2019-08-04T14:59:25.000Z</Time>
            <Position>
              <LatitudeDegrees>-33.529221005737781524658203125</LatitudeDegrees>
              <LongitudeDegrees>-70.2237653173506259918212890625</LongitudeDegrees>
            </Position>
            <AltitudeMeters>1639.4000244140625</AltitudeMeters>
            <DistanceMeters>2183.9831947792</DistanceMeters>
          </Trackpoint>
          <Trackpoint>
            <Time>2019-08-04T14:59:32.000Z</Time>
            <Position>
              <LatitudeDegrees>-33.529255874454975128173828125</LatitudeDegrees>
              <LongitudeDegrees>-70.2237497270107269287109375</LongitudeDegrees>
            </Position>
            <AltitudeMeters>1640.4000244140625</AltitudeMeters>
            <DistanceMeters>2188.1231325916</DistanceMeters>
          </Trackpoint>
          <Trackpoint>
            <Time>2019-08-04T14:59:39.000Z</Time>
            <Position>
              <LatitudeDegrees>-33.5292932577431201934814453125</LatitudeDegrees>
              <LongitudeDegrees>-70.2237167023122310638427734375</LongitudeDegrees>
            </Position>
            <AltitudeMeters>1641.4000244140625</AltitudeMeters>
            <DistanceMeters>2193.2913978829</DistanceMeters>
          </Trackpoint>
          <Trackpoint>
            <Time>2019-08-04T14:59:40.000Z</Time>
            <Position>
              <LatitudeDegrees>-33.52929635904729366302490234375</LatitudeDegrees>
              <LongitudeDegrees>-70.22371284663677215576171875</LongitudeDegrees>
            </Position>
            <AltitudeMeters>1641.5999755859375</AltitudeMeters>
            <DistanceMeters>2193.7942319912</DistanceMeters>
          </Trackpoint>
          <Trackpoint>
            <Time>2019-08-04T14:59:48.000Z</Time>
            <Position>
              <LatitudeDegrees>-33.52932770736515522003173828125</LatitudeDegrees>
              <LongitudeDegrees>-70.22366917692124843597412109375</LongitudeDegrees>
            </Position>
            <AltitudeMeters>1642.5999755859375</AltitudeMeters>
            <DistanceMeters>2199.1411209952</DistanceMeters>
          </Trackpoint>
          <Trackpoint>
            <Time>2019-08-04T14:59:53.000Z</Time>
            <Position>
              <LatitudeDegrees>-33.52932938374578952789306640625</LatitudeDegrees>
              <LongitudeDegrees>-70.22366079501807689666748046875</LongitudeDegrees>
            </Position>
            <AltitudeMeters>1643.5999755859375</AltitudeMeters>
            <DistanceMeters>2199.9361715289</DistanceMeters>
          </Trackpoint>
          <Trackpoint>
            <Time>2019-08-04T14:59:55.000Z</Time>
            <Position>
              <LatitudeDegrees>-33.5293247736990451812744140625</LatitudeDegrees>
              <LongitudeDegrees>-70.22366188466548919677734375</LongitudeDegrees>
            </Position>
            <AltitudeMeters>1643.800048828125</AltitudeMeters>
            <DistanceMeters>2200.4566542791</DistanceMeters>
          </Trackpoint>
          <Trackpoint>
            <Time>2019-08-04T15:00:00.000Z</Time>
            <Position>
              <LatitudeDegrees>-33.529330305755138397216796875</LatitudeDegrees>
              <LongitudeDegrees>-70.223666243255138397216796875</LongitudeDegrees>
            </Position>
            <AltitudeMeters>1644.199951171875</AltitudeMeters>
            <DistanceMeters>2201.1927280435</DistanceMeters>
          </Trackpoint>
          <Trackpoint>
            <Time>2019-08-04T15:00:05.000Z</Time>
            <Position>
              <LatitudeDegrees>-33.52932536043226718902587890625</LatitudeDegrees>
              <LongitudeDegrees>-70.22367185913026332855224609375</LongitudeDegrees>
            </Position>
            <AltitudeMeters>1644.5999755859375</AltitudeMeters>
            <DistanceMeters>2201.9529417585</DistanceMeters>
          </Trackpoint>
          <Trackpoint>
            <Time>2019-08-04T15:00:10.000Z</Time>
            <Position>
              <LatitudeDegrees>-33.52932536043226718902587890625</LatitudeDegrees>
              <LongitudeDegrees>-70.22367353551089763641357421875</LongitudeDegrees>
            </Position>
            <AltitudeMeters>1644.5999755859375</AltitudeMeters>
            <DistanceMeters>2202.1429951872</DistanceMeters>
          </Trackpoint>
          <Trackpoint>
            <Time>2019-08-04T15:00:16.000Z</Time>
            <Position>
              <LatitudeDegrees>-33.52932401932775974273681640625</LatitudeDegrees>
              <LongitudeDegrees>-70.2236791513860225677490234375</LongitudeDegrees>
            </Position>
            <AltitudeMeters>1644.5999755859375</AltitudeMeters>
            <DistanceMeters>2202.6805474602</DistanceMeters>
          </Trackpoint>
          <Trackpoint>
            <Time>2019-08-04T15:00:18.000Z</Time>
            <Position>
              <LatitudeDegrees>-33.52932326495647430419921875</LatitudeDegrees>
              <LongitudeDegrees>-70.22367957048118114471435546875</LongitudeDegrees>
            </Position>
            <AltitudeMeters>1644.5999755859375</AltitudeMeters>
            <DistanceMeters>2202.6805474602</DistanceMeters>
          </Trackpoint>
          <Trackpoint>
            <Time>2019-08-04T15:00:19.000Z</Time>
            <Position>
              <LatitudeDegrees>-33.529322929680347442626953125</LatitudeDegrees>
              <LongitudeDegrees>-70.2236798219382762908935546875</LongitudeDegrees>
            </Position>
            <AltitudeMeters>1644.5999755859375</AltitudeMeters>
            <DistanceMeters>2202.6805474602</DistanceMeters>
          </Trackpoint>
          <Trackpoint>
            <Time>2019-08-04T15:00:22.000Z</Time>
            <Position>
              <LatitudeDegrees>-33.52932435460388660430908203125</LatitudeDegrees>
              <LongitudeDegrees>-70.22368124686181545257568359375</LongitudeDegrees>
            </Position>
            <AltitudeMeters>1644.5999755859375</AltitudeMeters>
            <DistanceMeters>2202.870600889</DistanceMeters>
          </Trackpoint>
          <Trackpoint>
            <Time>2019-08-04T15:00:24.000Z</Time>
            <Position>
              <LatitudeDegrees>-33.5293237678706645965576171875</LatitudeDegrees>
              <LongitudeDegrees>-70.223680995404720306396484375</LongitudeDegrees>
            </Position>
            <AltitudeMeters>1644.5999755859375</AltitudeMeters>
            <DistanceMeters>2202.870600889</DistanceMeters>
          </Trackpoint>
          <Trackpoint>
            <Time>2019-08-04T15:00:25.000Z</Time>
            <Position>
              <LatitudeDegrees>-33.52932326495647430419921875</LatitudeDegrees>
              <LongitudeDegrees>-70.22368066012859344482421875</LongitudeDegrees>
            </Position>
            <AltitudeMeters>1644.5999755859375</AltitudeMeters>
            <DistanceMeters>2202.870600889</DistanceMeters>
          </Trackpoint>
          <Trackpoint>
            <Time>2019-08-04T15:00:27.000Z</Time>
            <Position>
              <LatitudeDegrees>-33.52931966073811054229736328125</LatitudeDegrees>
              <LongitudeDegrees>-70.223682336509227752685546875</LongitudeDegrees>
            </Position>
            <AltitudeMeters>1644.5999755859375</AltitudeMeters>
            <DistanceMeters>2203.3060680006</DistanceMeters>
          </Trackpoint>
          <Trackpoint>
            <Time>2019-08-04T15:00:29.000Z</Time>
            <Position>
              <LatitudeDegrees>-33.5293187387287616729736328125</LatitudeDegrees>
              <LongitudeDegrees>-70.22368426434695720672607421875</LongitudeDegrees>
            </Position>
            <AltitudeMeters>1644.5999755859375</AltitudeMeters>
            <DistanceMeters>2203.470659098</DistanceMeters>
          </Trackpoint>
          <Trackpoint>
            <Time>2019-08-04T15:00:30.000Z</Time>
            <Position>
              <LatitudeDegrees>-33.529318906366825103759765625</LatitudeDegrees>
              <LongitudeDegrees>-70.223684348165988922119140625</LongitudeDegrees>
            </Position>
            <AltitudeMeters>1644.800048828125</AltitudeMeters>
            <DistanceMeters>2203.470659098</DistanceMeters>
          </Trackpoint>
          <Trackpoint>
            <Time>2019-08-04T15:00:37.000Z</Time>
            <Position>
              <LatitudeDegrees>-33.52932368405163288116455078125</LatitudeDegrees>
              <LongitudeDegrees>-70.22368107922375202178955078125</LongitudeDegrees>
            </Position>
            <AltitudeMeters>1644.800048828125</AltitudeMeters>
            <DistanceMeters>2204.0865025932</DistanceMeters>
          </Trackpoint>
          <Trackpoint>
            <Time>2019-08-04T15:00:40.000Z</Time>
            <Position>
              <LatitudeDegrees>-33.529324270784854888916015625</LatitudeDegrees>
              <LongitudeDegrees>-70.22367931902408599853515625</LongitudeDegrees>
            </Position>
            <AltitudeMeters>1644.800048828125</AltitudeMeters>
            <DistanceMeters>2204.276556022</DistanceMeters>
          </Trackpoint>
          <Trackpoint>
            <Time>2019-08-04T15:00:56.000Z</Time>
            <Position>
              <LatitudeDegrees>-33.5293348319828510284423828125</LatitudeDegrees>
              <LongitudeDegrees>-70.2236586995422840118408203125</LongitudeDegrees>
            </Position>
            <AltitudeMeters>1644.800048828125</AltitudeMeters>
            <DistanceMeters>2206.5212793135</DistanceMeters>
          </Trackpoint>
          <Trackpoint>
            <Time>2019-08-04T15:01:02.000Z</Time>
            <Position>
              <LatitudeDegrees>-33.52933692745864391326904296875</LatitudeDegrees>
              <LongitudeDegrees>-70.22365811280906200408935546875</LongitudeDegrees>
            </Position>
            <AltitudeMeters>1644.5999755859375</AltitudeMeters>
            <DistanceMeters>2206.7540462757</DistanceMeters>
          </Trackpoint>
          <Trackpoint>
            <Time>2019-08-04T15:01:09.000Z</Time>
            <Position>
              <LatitudeDegrees>-33.5293458960950374603271484375</LatitudeDegrees>
              <LongitudeDegrees>-70.22366062738001346588134765625</LongitudeDegrees>
            </Position>
            <AltitudeMeters>1644.4000244140625</AltitudeMeters>
            <DistanceMeters>2207.7775153116</DistanceMeters>
          </Trackpoint>
          <Trackpoint>
            <Time>2019-08-04T15:01:14.000Z</Time>
            <Position>
              <LatitudeDegrees>-33.5293440520763397216796875</LatitudeDegrees>
              <LongitudeDegrees>-70.22365459240972995758056640625</LongitudeDegrees>
            </Position>
            <AltitudeMeters>1644.199951171875</AltitudeMeters>
            <DistanceMeters>2208.3785170235</DistanceMeters>
          </Trackpoint>
          <Trackpoint>
            <Time>2019-08-04T15:01:19.000Z</Time>
            <Position>
              <LatitudeDegrees>-33.52934279479086399078369140625</LatitudeDegrees>
              <LongitudeDegrees>-70.2236526645720005035400390625</LongitudeDegrees>
            </Position>
            <AltitudeMeters>1644</AltitudeMeters>
            <DistanceMeters>2208.5910032166</DistanceMeters>
          </Trackpoint>
          <Trackpoint>
            <Time>2019-08-04T15:01:28.000Z</Time>
            <Position>
              <LatitudeDegrees>-33.52934069931507110595703125</LatitudeDegrees>
              <LongitudeDegrees>-70.2236392535269260406494140625</LongitudeDegrees>
            </Position>
            <AltitudeMeters>1644</AltitudeMeters>
            <DistanceMeters>2209.8588177168</DistanceMeters>
          </Trackpoint>
          <Trackpoint>
            <Time>2019-08-04T15:01:30.000Z</Time>
            <Position>
              <LatitudeDegrees>-33.5293388552963733673095703125</LatitudeDegrees>
              <LongitudeDegrees>-70.2236328832805156707763671875</LongitudeDegrees>
            </Position>
            <AltitudeMeters>1644</AltitudeMeters>
            <DistanceMeters>2210.4891536301</DistanceMeters>
          </Trackpoint>
          <Trackpoint>
            <Time>2019-08-04T15:01:33.000Z</Time>
            <Position>
              <LatitudeDegrees>-33.5293371789157390594482421875</LatitudeDegrees>
              <LongitudeDegrees>-70.22362978197634220123291015625</LongitudeDegrees>
            </Position>
            <AltitudeMeters>1644</AltitudeMeters>
            <DistanceMeters>2210.8183358248</DistanceMeters>
          </Trackpoint>
          <Trackpoint>
            <Time>2019-08-04T15:01:39.000Z</Time>
            <Position>
              <LatitudeDegrees>-33.529331646859645843505859375</LatitudeDegrees>
              <LongitudeDegrees>-70.22362927906215190887451171875</LongitudeDegrees>
            </Position>
            <AltitudeMeters>1644</AltitudeMeters>
            <DistanceMeters>2211.43417932</DistanceMeters>
          </Trackpoint>
          <Trackpoint>
            <Time>2019-08-04T15:01:45.000Z</Time>
            <Position>
              <LatitudeDegrees>-33.5293408669531345367431640625</LatitudeDegrees>
              <LongitudeDegrees>-70.22362232208251953125</LongitudeDegrees>
            </Position>
            <AltitudeMeters>1644</AltitudeMeters>
            <DistanceMeters>2212.6473991931</DistanceMeters>
          </Trackpoint>
          <Trackpoint>
            <Time>2019-08-04T15:01:46.000Z</Time>
            <Position>
              <LatitudeDegrees>-33.52934011258184909820556640625</LatitudeDegrees>
              <LongitudeDegrees>-70.22362156771123409271240234375</LongitudeDegrees>
            </Position>
            <AltitudeMeters>1644</AltitudeMeters>
            <DistanceMeters>2212.7817872613</DistanceMeters>
          </Trackpoint>
          <Trackpoint>
            <Time>2019-08-04T15:01:47.000Z</Time>
            <Position>
              <LatitudeDegrees>-33.5293398611247539520263671875</LatitudeDegrees>
              <LongitudeDegrees>-70.2236236631870269775390625</LongitudeDegrees>
            </Position>
            <AltitudeMeters>1644</AltitudeMeters>
            <DistanceMeters>2212.9718406901</DistanceMeters>
          </Trackpoint>
          <Trackpoint>
            <Time>2019-08-04T15:01:49.000Z</Time>
            <Position>
              <LatitudeDegrees>-33.52933893911540508270263671875</LatitudeDegrees>
              <LongitudeDegrees>-70.223621316254138946533203125</LongitudeDegrees>
            </Position>
            <AltitudeMeters>1644</AltitudeMeters>
            <DistanceMeters>2213.2406168266</DistanceMeters>
          </Trackpoint>
          <Trackpoint>
            <Time>2019-08-04T15:01:55.000Z</Time>
            <Position>
              <LatitudeDegrees>-33.52933441288769245147705078125</LatitudeDegrees>
              <LongitudeDegrees>-70.2236171253025531768798828125</LongitudeDegrees>
            </Position>
            <AltitudeMeters>1644</AltitudeMeters>
            <DistanceMeters>2213.8851193606</DistanceMeters>
          </Trackpoint>
          <Trackpoint>
            <Time>2019-08-04T15:02:01.000Z</Time>
            <Position>
              <LatitudeDegrees>-33.52933508343994617462158203125</LatitudeDegrees>
              <LongitudeDegrees>-70.2236151136457920074462890625</LongitudeDegrees>
            </Position>
            <AltitudeMeters>1644</AltitudeMeters>
            <DistanceMeters>2214.0751727894</DistanceMeters>
          </Trackpoint>
          <Trackpoint>
            <Time>2019-08-04T15:02:04.000Z</Time>
            <Position>
              <LatitudeDegrees>-33.52933533489704132080078125</LatitudeDegrees>
              <LongitudeDegrees>-70.2236117608845233917236328125</LongitudeDegrees>
            </Position>
            <AltitudeMeters>1644</AltitudeMeters>
            <DistanceMeters>2214.3756736454</DistanceMeters>
          </Trackpoint>
          <Trackpoint>
            <Time>2019-08-04T15:02:16.000Z</Time>
            <Position>
              <LatitudeDegrees>-33.5293405316770076751708984375</LatitudeDegrees>
              <LongitudeDegrees>-70.223619304597377777099609375</LongitudeDegrees>
            </Position>
            <AltitudeMeters>1644.4000244140625</AltitudeMeters>
            <DistanceMeters>2215.2771762133</DistanceMeters>
          </Trackpoint>
          <Trackpoint>
            <Time>2019-08-04T15:02:19.000Z</Time>
            <Position>
              <LatitudeDegrees>-33.52933726273477077484130859375</LatitudeDegrees>
              <LongitudeDegrees>-70.22362056188285350799560546875</LongitudeDegrees>
            </Position>
            <AltitudeMeters>1644.4000244140625</AltitudeMeters>
            <DistanceMeters>2215.6572830708</DistanceMeters>
          </Trackpoint>
          <Trackpoint>
            <Time>2019-08-04T15:02:20.000Z</Time>
            <Position>
              <LatitudeDegrees>-33.5293398611247539520263671875</LatitudeDegrees>
              <LongitudeDegrees>-70.22362039424479007720947265625</LongitudeDegrees>
            </Position>
            <AltitudeMeters>1644.4000244140625</AltitudeMeters>
            <DistanceMeters>2215.9577839267</DistanceMeters>
          </Trackpoint>
          <Trackpoint>
            <Time>2019-08-04T15:02:25.000Z</Time>
            <Position>
              <LatitudeDegrees>-33.52934732101857662200927734375</LatitudeDegrees>
              <LongitudeDegrees>-70.2236275188624858856201171875</LongitudeDegrees>
            </Position>
            <AltitudeMeters>1644.4000244140625</AltitudeMeters>
            <DistanceMeters>2217.0202148918</DistanceMeters>
          </Trackpoint>
          <Trackpoint>
            <Time>2019-08-04T15:02:26.000Z</Time>
            <Position>
              <LatitudeDegrees>-33.52935687638819217681884765625</LatitudeDegrees>
              <LongitudeDegrees>-70.22363598458468914031982421875</LongitudeDegrees>
            </Position>
            <AltitudeMeters>1644.4000244140625</AltitudeMeters>
            <DistanceMeters>2218.3403681987</DistanceMeters>
          </Trackpoint>
          <Trackpoint>
            <Time>2019-08-04T15:02:29.000Z</Time>
            <Position>
              <LatitudeDegrees>-33.52935603819787502288818359375</LatitudeDegrees>
              <LongitudeDegrees>-70.22363598458468914031982421875</LongitudeDegrees>
            </Position>
            <AltitudeMeters>1644.4000244140625</AltitudeMeters>
            <DistanceMeters>2218.435394913</DistanceMeters>
          </Trackpoint>
          <Trackpoint>
            <Time>2019-08-04T15:02:32.000Z</Time>
            <Position>
              <LatitudeDegrees>-33.52935821749269962310791015625</LatitudeDegrees>
              <LongitudeDegrees>-70.22363598458468914031982421875</LongitudeDegrees>
            </Position>
            <AltitudeMeters>1644.4000244140625</AltitudeMeters>
            <DistanceMeters>2218.6681618752</DistanceMeters>
          </Trackpoint>
          <Trackpoint>
            <Time>2019-08-04T15:02:46.000Z</Time>
            <Position>
              <LatitudeDegrees>-33.5293589718639850616455078125</LatitudeDegrees>
              <LongitudeDegrees>-70.22362877614796161651611328125</LongitudeDegrees>
            </Position>
            <AltitudeMeters>1644</AltitudeMeters>
            <DistanceMeters>2219.3401022164</DistanceMeters>
          </Trackpoint>
          <Trackpoint>
            <Time>2019-08-04T15:02:49.000Z</Time>
            <Position>
              <LatitudeDegrees>-33.52935184724628925323486328125</LatitudeDegrees>
              <LongitudeDegrees>-70.223630703985691070556640625</LongitudeDegrees>
            </Position>
            <AltitudeMeters>1644</AltitudeMeters>
            <DistanceMeters>2220.1520108199</DistanceMeters>
          </Trackpoint>
          <Trackpoint>
            <Time>2019-08-04T15:02:53.000Z</Time>
            <Position>
              <LatitudeDegrees>-33.52934748865664005279541015625</LatitudeDegrees>
              <LongitudeDegrees>-70.22363363765180110931396484375</LongitudeDegrees>
            </Position>
            <AltitudeMeters>1644.4000244140625</AltitudeMeters>
            <DistanceMeters>2220.7061070201</DistanceMeters>
          </Trackpoint>
          <Trackpoint>
            <Time>2019-08-04T15:03:04.000Z</Time>
            <Position>
              <LatitudeDegrees>-33.52934815920889377593994140625</LatitudeDegrees>
              <LongitudeDegrees>-70.2236184664070606231689453125</LongitudeDegrees>
            </Position>
            <AltitudeMeters>1644.5999755859375</AltitudeMeters>
            <DistanceMeters>2222.1187806888</DistanceMeters>
          </Trackpoint>
          <Trackpoint>
            <Time>2019-08-04T15:03:05.000Z</Time>
            <Position>
              <LatitudeDegrees>-33.52934849448502063751220703125</LatitudeDegrees>
              <LongitudeDegrees>-70.22361637093126773834228515625</LongitudeDegrees>
            </Position>
            <AltitudeMeters>1644.5999755859375</AltitudeMeters>
            <DistanceMeters>2222.3088341175</DistanceMeters>
          </Trackpoint>
          <Trackpoint>
            <Time>2019-08-04T15:03:12.000Z</Time>
            <Position>
              <LatitudeDegrees>-33.52935855276882648468017578125</LatitudeDegrees>
              <LongitudeDegrees>-70.22361385636031627655029296875</LongitudeDegrees>
            </Position>
            <AltitudeMeters>1644.4000244140625</AltitudeMeters>
            <DistanceMeters>2223.4531072861</DistanceMeters>
          </Trackpoint>
          <Trackpoint>
            <Time>2019-08-04T15:03:16.000Z</Time>
            <Position>
              <LatitudeDegrees>-33.52936006151139736175537109375</LatitudeDegrees>
              <LongitudeDegrees>-70.22362290881574153900146484375</LongitudeDegrees>
            </Position>
            <AltitudeMeters>1644.4000244140625</AltitudeMeters>
            <DistanceMeters>2224.3136107831</DistanceMeters>
          </Trackpoint>
          <Trackpoint>
            <Time>2019-08-04T15:03:19.000Z</Time>
            <Position>
              <LatitudeDegrees>-33.52935218252241611480712890625</LatitudeDegrees>
              <LongitudeDegrees>-70.2236305363476276397705078125</LongitudeDegrees>
            </Position>
            <AltitudeMeters>1644.4000244140625</AltitudeMeters>
            <DistanceMeters>2225.4459847739</DistanceMeters>
          </Trackpoint>
          <Trackpoint>
            <Time>2019-08-04T15:03:24.000Z</Time>
            <Position>
              <LatitudeDegrees>-33.5293576307594776153564453125</LatitudeDegrees>
              <LongitudeDegrees>-70.22363715805113315582275390625</LongitudeDegrees>
            </Position>
            <AltitudeMeters>1644.4000244140625</AltitudeMeters>
            <DistanceMeters>2226.306488271</DistanceMeters>
          </Trackpoint>
          <Trackpoint>
            <Time>2019-08-04T15:03:32.000Z</Time>
            <Position>
              <LatitudeDegrees>-33.529361821711063385009765625</LatitudeDegrees>
              <LongitudeDegrees>-70.22365811280906200408935546875</LongitudeDegrees>
            </Position>
            <AltitudeMeters>1644.800048828125</AltitudeMeters>
            <DistanceMeters>2228.3043105324</DistanceMeters>
          </Trackpoint>
          <Trackpoint>
            <Time>2019-08-04T15:03:33.000Z</Time>
            <Position>
              <LatitudeDegrees>-33.5293616540729999542236328125</LatitudeDegrees>
              <LongitudeDegrees>-70.22366079501807689666748046875</LongitudeDegrees>
            </Position>
            <AltitudeMeters>1644.800048828125</AltitudeMeters>
            <DistanceMeters>2228.5730866689</DistanceMeters>
          </Trackpoint>
          <Trackpoint>
            <Time>2019-08-04T15:03:38.000Z</Time>
            <Position>
              <LatitudeDegrees>-33.52936291135847568511962890625</LatitudeDegrees>
              <LongitudeDegrees>-70.22366456687450408935546875</LongitudeDegrees>
            </Position>
            <AltitudeMeters>1644.4000244140625</AltitudeMeters>
            <DistanceMeters>2228.9648918495</DistanceMeters>
          </Trackpoint>
          <Trackpoint>
            <Time>2019-08-04T15:03:43.000Z</Time>
            <Position>
              <LatitudeDegrees>-33.52936743758618831634521484375</LatitudeDegrees>
              <LongitudeDegrees>-70.22366917692124843597412109375</LongitudeDegrees>
            </Position>
            <AltitudeMeters>1644.4000244140625</AltitudeMeters>
            <DistanceMeters>2229.623256239</DistanceMeters>
          </Trackpoint>
          <Trackpoint>
            <Time>2019-08-04T15:03:47.000Z</Time>
            <Position>
              <LatitudeDegrees>-33.529358468949794769287109375</LatitudeDegrees>
              <LongitudeDegrees>-70.22367638535797595977783203125</LongitudeDegrees>
            </Position>
            <AltitudeMeters>1644.4000244140625</AltitudeMeters>
            <DistanceMeters>2230.8252596628</DistanceMeters>
          </Trackpoint>
          <Trackpoint>
            <Time>2019-08-04T15:04:02.000Z</Time>
            <Position>
              <LatitudeDegrees>-33.5293586365878582000732421875</LatitudeDegrees>
              <LongitudeDegrees>-70.223681665956974029541015625</LongitudeDegrees>
            </Position>
            <AltitudeMeters>1644.4000244140625</AltitudeMeters>
            <DistanceMeters>2231.3098027337</DistanceMeters>
          </Trackpoint>
          <Trackpoint>
            <Time>2019-08-04T15:04:17.000Z</Time>
            <Position>
              <LatitudeDegrees>-33.52935385890305042266845703125</LatitudeDegrees>
              <LongitudeDegrees>-70.22368627600371837615966796875</LongitudeDegrees>
            </Position>
            <AltitudeMeters>1644.5999755859375</AltitudeMeters>
            <DistanceMeters>2231.9884292132</DistanceMeters>
          </Trackpoint>
          <Trackpoint>
            <Time>2019-08-04T15:04:27.000Z</Time>
            <Position>
              <LatitudeDegrees>-33.52935268543660640716552734375</LatitudeDegrees>
              <LongitudeDegrees>-70.22366565652191638946533203125</LongitudeDegrees>
            </Position>
            <AltitudeMeters>1644.800048828125</AltitudeMeters>
            <DistanceMeters>2233.9055210505</DistanceMeters>
          </Trackpoint>
          <Trackpoint>
            <Time>2019-08-04T15:04:34.000Z</Time>
            <Position>
              <LatitudeDegrees>-33.5293338261544704437255859375</LatitudeDegrees>
              <LongitudeDegrees>-70.2236236631870269775390625</LongitudeDegrees>
            </Position>
            <AltitudeMeters>1644.199951171875</AltitudeMeters>
            <DistanceMeters>2238.3321750785</DistanceMeters>
          </Trackpoint>
          <Trackpoint>
            <Time>2019-08-04T15:04:35.000Z</Time>
            <Position>
              <LatitudeDegrees>-33.52933240123093128204345703125</LatitudeDegrees>
              <LongitudeDegrees>-70.22362567484378814697265625</LongitudeDegrees>
            </Position>
            <AltitudeMeters>1644</AltitudeMeters>
            <DistanceMeters>2238.600951215</DistanceMeters>
          </Trackpoint>
          <Trackpoint>
            <Time>2019-08-04T15:04:46.000Z</Time>
            <Position>
              <LatitudeDegrees>-33.52933575399219989776611328125</LatitudeDegrees>
              <LongitudeDegrees>-70.2236228249967098236083984375</LongitudeDegrees>
            </Position>
            <AltitudeMeters>1644.4000244140625</AltitudeMeters>
            <DistanceMeters>2239.0664851393</DistanceMeters>
          </Trackpoint>
          <Trackpoint>
            <Time>2019-08-04T15:04:50.000Z</Time>
            <Position>
              <LatitudeDegrees>-33.52934061549603939056396484375</LatitudeDegrees>
              <LongitudeDegrees>-70.22362508811056613922119140625</LongitudeDegrees>
            </Position>
            <AltitudeMeters>1644.5999755859375</AltitudeMeters>
            <DistanceMeters>2239.652269148</DistanceMeters>
          </Trackpoint>
          <Trackpoint>
            <Time>2019-08-04T15:04:57.000Z</Time>
            <Position>
              <LatitudeDegrees>-33.52935536764562129974365234375</LatitudeDegrees>
              <LongitudeDegrees>-70.22365777753293514251708984375</LongitudeDegrees>
            </Position>
            <AltitudeMeters>1644.800048828125</AltitudeMeters>
            <DistanceMeters>2243.1008356149</DistanceMeters>
          </Trackpoint>
          <Trackpoint>
            <Time>2019-08-04T15:04:58.000Z</Time>
            <Position>
              <LatitudeDegrees>-33.52935587055981159210205078125</LatitudeDegrees>
              <LongitudeDegrees>-70.223662890493869781494140625</LongitudeDegrees>
            </Position>
            <AltitudeMeters>1644.800048828125</AltitudeMeters>
            <DistanceMeters>2243.5759691867</DistanceMeters>
          </Trackpoint>
          <Trackpoint>
            <Time>2019-08-04T15:05:05.000Z</Time>
            <Position>
              <LatitudeDegrees>-33.52936089970171451568603515625</LatitudeDegrees>
              <LongitudeDegrees>-70.22367269732058048248291015625</LongitudeDegrees>
            </Position>
            <AltitudeMeters>1645</AltitudeMeters>
            <DistanceMeters>2244.6510737327</DistanceMeters>
          </Trackpoint>
          <Trackpoint>
            <Time>2019-08-04T15:05:07.000Z</Time>
            <Position>
              <LatitudeDegrees>-33.5293599776923656463623046875</LatitudeDegrees>
              <LongitudeDegrees>-70.22368133068084716796875</LongitudeDegrees>
            </Position>
            <AltitudeMeters>1644.5999755859375</AltitudeMeters>
            <DistanceMeters>2245.4629823362</DistanceMeters>
          </Trackpoint>
          <Trackpoint>
            <Time>2019-08-04T15:05:10.000Z</Time>
            <Position>
              <LatitudeDegrees>-33.52935637347400188446044921875</LatitudeDegrees>
              <LongitudeDegrees>-70.22368091158568859100341796875</LongitudeDegrees>
            </Position>
            <AltitudeMeters>1645</AltitudeMeters>
            <DistanceMeters>2245.866146541</DistanceMeters>
          </Trackpoint>
          <Trackpoint>
            <Time>2019-08-04T15:05:14.000Z</Time>
            <Position>
              <LatitudeDegrees>-33.52935142815113067626953125</LatitudeDegrees>
              <LongitudeDegrees>-70.2236734516918659210205078125</LongitudeDegrees>
            </Position>
            <AltitudeMeters>1644.800048828125</AltitudeMeters>
            <DistanceMeters>2246.7473880369</DistanceMeters>
          </Trackpoint>
          <Trackpoint>
            <Time>2019-08-04T15:05:24.000Z</Time>
            <Position>
              <LatitudeDegrees>-33.52935654111206531524658203125</LatitudeDegrees>
              <LongitudeDegrees>-70.2236694283783435821533203125</LongitudeDegrees>
            </Position>
            <AltitudeMeters>1644.800048828125</AltitudeMeters>
            <DistanceMeters>2247.4260145164</DistanceMeters>
          </Trackpoint>
          <Trackpoint>
            <Time>2019-08-04T15:05:35.000Z</Time>
            <Position>
              <LatitudeDegrees>-33.52935503236949443817138671875</LatitudeDegrees>
              <LongitudeDegrees>-70.2236647345125675201416015625</LongitudeDegrees>
            </Position>
            <AltitudeMeters>1644.800048828125</AltitudeMeters>
            <DistanceMeters>2247.8915484407</DistanceMeters>
          </Trackpoint>
          <Trackpoint>
            <Time>2019-08-04T15:05:48.000Z</Time>
            <Position>
              <LatitudeDegrees>-33.5293629951775074005126953125</LatitudeDegrees>
              <LongitudeDegrees>-70.223664902150630950927734375</LongitudeDegrees>
            </Position>
            <AltitudeMeters>1645</AltitudeMeters>
            <DistanceMeters>2248.7727899366</DistanceMeters>
          </Trackpoint>
          <Trackpoint>
            <Time>2019-08-04T15:05:53.000Z</Time>
            <Position>
              <LatitudeDegrees>-33.5293526016175746917724609375</LatitudeDegrees>
              <LongitudeDegrees>-70.22366884164512157440185546875</LongitudeDegrees>
            </Position>
            <AltitudeMeters>1644.800048828125</AltitudeMeters>
            <DistanceMeters>2249.9822825509</DistanceMeters>
          </Trackpoint>
          <Trackpoint>
            <Time>2019-08-04T15:06:07.000Z</Time>
            <Position>
              <LatitudeDegrees>-33.52935411036014556884765625</LatitudeDegrees>
              <LongitudeDegrees>-70.22367018274962902069091796875</LongitudeDegrees>
            </Position>
            <AltitudeMeters>1644.800048828125</AltitudeMeters>
            <DistanceMeters>2250.1723359796</DistanceMeters>
          </Trackpoint>
          <Trackpoint>
            <Time>2019-08-04T15:06:09.000Z</Time>
            <Position>
              <LatitudeDegrees>-33.52935545146465301513671875</LatitudeDegrees>
              <LongitudeDegrees>-70.22366716526448726654052734375</LongitudeDegrees>
            </Position>
            <AltitudeMeters>1644.800048828125</AltitudeMeters>
            <DistanceMeters>2250.4728368356</DistanceMeters>
          </Trackpoint>
          <Trackpoint>
            <Time>2019-08-04T15:06:19.000Z</Time>
            <Position>
              <LatitudeDegrees>-33.52936877869069576263427734375</LatitudeDegrees>
              <LongitudeDegrees>-70.22367655299603939056396484375</LongitudeDegrees>
            </Position>
            <AltitudeMeters>1645</AltitudeMeters>
            <DistanceMeters>2252.1912183407</DistanceMeters>
          </Trackpoint>
          <Trackpoint>
            <Time>2019-08-04T15:06:24.000Z</Time>
            <Position>
              <LatitudeDegrees>-33.52936827577650547027587890625</LatitudeDegrees>
              <LongitudeDegrees>-70.22367387078702449798583984375</LongitudeDegrees>
            </Position>
            <AltitudeMeters>1645</AltitudeMeters>
            <DistanceMeters>2252.4426353948</DistanceMeters>
          </Trackpoint>
          <Trackpoint>
            <Time>2019-08-04T15:06:25.000Z</Time>
            <Position>
              <LatitudeDegrees>-33.52936861105263233184814453125</LatitudeDegrees>
              <LongitudeDegrees>-70.22367236204445362091064453125</LongitudeDegrees>
            </Position>
            <AltitudeMeters>1645</AltitudeMeters>
            <DistanceMeters>2252.5770234631</DistanceMeters>
          </Trackpoint>
          <Trackpoint>
            <Time>2019-08-04T15:06:30.000Z</Time>
            <Position>
              <LatitudeDegrees>-33.529373221099376678466796875</LatitudeDegrees>
              <LongitudeDegrees>-70.22367320023477077484130859375</LongitudeDegrees>
            </Position>
            <AltitudeMeters>1645</AltitudeMeters>
            <DistanceMeters>2253.0975062134</DistanceMeters>
          </Trackpoint>
          <Trackpoint>
            <Time>2019-08-04T15:06:40.000Z</Time>
            <Position>
              <LatitudeDegrees>-33.52937984280288219451904296875</LatitudeDegrees>
              <LongitudeDegrees>-70.2236640639603137969970703125</LongitudeDegrees>
            </Position>
            <AltitudeMeters>1645.199951171875</AltitudeMeters>
            <DistanceMeters>2254.2218774608</DistanceMeters>
          </Trackpoint>
          <Trackpoint>
            <Time>2019-08-04T15:06:53.000Z</Time>
            <Position>
              <LatitudeDegrees>-33.52939526550471782684326171875</LatitudeDegrees>
              <LongitudeDegrees>-70.22366917692124843597412109375</LongitudeDegrees>
            </Position>
            <AltitudeMeters>1645.199951171875</AltitudeMeters>
            <DistanceMeters>2256.0047366556</DistanceMeters>
          </Trackpoint>
          <Trackpoint>
            <Time>2019-08-04T15:06:57.000Z</Time>
            <Position>
              <LatitudeDegrees>-33.52939610369503498077392578125</LatitudeDegrees>
              <LongitudeDegrees>-70.22367102093994617462158203125</LongitudeDegrees>
            </Position>
            <AltitudeMeters>1645</AltitudeMeters>
            <DistanceMeters>2256.1947900843</DistanceMeters>
          </Trackpoint>
          <Trackpoint>
            <Time>2019-08-04T15:07:07.000Z</Time>
            <Position>
              <LatitudeDegrees>-33.52941454388201236724853515625</LatitudeDegrees>
              <LongitudeDegrees>-70.2236952446401119232177734375</LongitudeDegrees>
            </Position>
            <AltitudeMeters>1645</AltitudeMeters>
            <DistanceMeters>2259.2386130804</DistanceMeters>
          </Trackpoint>
          <Trackpoint>
            <Time>2019-08-04T15:07:09.000Z</Time>
            <Position>
              <LatitudeDegrees>-33.5294149629771709442138671875</LatitudeDegrees>
              <LongitudeDegrees>-70.22369683720171451568603515625</LongitudeDegrees>
            </Position>
            <AltitudeMeters>1645</AltitudeMeters>
            <DistanceMeters>2259.4032041778</DistanceMeters>
          </Trackpoint>
          <Trackpoint>
            <Time>2019-08-04T15:07:21.000Z</Time>
            <Position>
              <LatitudeDegrees>-33.5294089280068874359130859375</LatitudeDegrees>
              <LongitudeDegrees>-70.2236969210207462310791015625</LongitudeDegrees>
            </Position>
            <AltitudeMeters>1645</AltitudeMeters>
            <DistanceMeters>2260.075144519</DistanceMeters>
          </Trackpoint>
          <Trackpoint>
            <Time>2019-08-04T15:07:28.000Z</Time>
            <Position>
              <LatitudeDegrees>-33.5294334031641483306884765625</LatitudeDegrees>
              <LongitudeDegrees>-70.22373824380338191986083984375</LongitudeDegrees>
            </Position>
            <AltitudeMeters>1645</AltitudeMeters>
            <DistanceMeters>2264.7787269078</DistanceMeters>
          </Trackpoint>
          <Trackpoint>
            <Time>2019-08-04T15:07:31.000Z</Time>
            <Position>
              <LatitudeDegrees>-33.52943549863994121551513671875</LatitudeDegrees>
              <LongitudeDegrees>-70.2237566001713275909423828125</LongitudeDegrees>
            </Position>
            <AltitudeMeters>1645</AltitudeMeters>
            <DistanceMeters>2266.4971084129</DistanceMeters>
          </Trackpoint>
          <Trackpoint>
            <Time>2019-08-04T15:07:34.000Z</Time>
            <Position>
              <LatitudeDegrees>-33.52945058606564998626708984375</LatitudeDegrees>
              <LongitudeDegrees>-70.2237738668918609619140625</LongitudeDegrees>
            </Position>
            <AltitudeMeters>1645</AltitudeMeters>
            <DistanceMeters>2268.818951568</DistanceMeters>
          </Trackpoint>
          <Trackpoint>
            <Time>2019-08-04T15:07:43.000Z</Time>
            <Position>
              <LatitudeDegrees>-33.5295078344643115997314453125</LatitudeDegrees>
              <LongitudeDegrees>-70.22380831651389598846435546875</LongitudeDegrees>
            </Position>
            <AltitudeMeters>1645</AltitudeMeters>
            <DistanceMeters>2275.947222056</DistanceMeters>
          </Trackpoint>
          <Trackpoint>
            <Time>2019-08-04T15:07:48.000Z</Time>
            <Position>
              <LatitudeDegrees>-33.52953859604895114898681640625</LatitudeDegrees>
              <LongitudeDegrees>-70.2238248288631439208984375</LongitudeDegrees>
            </Position>
            <AltitudeMeters>1645</AltitudeMeters>
            <DistanceMeters>2279.6980698401</DistanceMeters>
          </Trackpoint>
          <Trackpoint>
            <Time>2019-08-04T15:07:53.000Z</Time>
            <Position>
              <LatitudeDegrees>-33.529561646282672882080078125</LatitudeDegrees>
              <LongitudeDegrees>-70.22385726682841777801513671875</LongitudeDegrees>
            </Position>
            <AltitudeMeters>1645</AltitudeMeters>
            <DistanceMeters>2283.6528255091</DistanceMeters>
          </Trackpoint>
          <Trackpoint>
            <Time>2019-08-04T15:07:57.000Z</Time>
            <Position>
              <LatitudeDegrees>-33.529576398432254791259765625</LatitudeDegrees>
              <LongitudeDegrees>-70.22387780249118804931640625</LongitudeDegrees>
            </Position>
            <AltitudeMeters>1645</AltitudeMeters>
            <DistanceMeters>2286.1669960504</DistanceMeters>
          </Trackpoint>
          <Trackpoint>
            <Time>2019-08-04T15:07:58.000Z</Time>
            <Position>
              <LatitudeDegrees>-33.52957966737449169158935546875</LatitudeDegrees>
              <LongitudeDegrees>-70.22388559766113758087158203125</LongitudeDegrees>
            </Position>
            <AltitudeMeters>1652.199951171875</AltitudeMeters>
            <DistanceMeters>2286.9733244599</DistanceMeters>
          </Trackpoint>
          <Trackpoint>
            <Time>2019-08-04T15:08:00.000Z</Time>
            <Position>
              <LatitudeDegrees>-33.52958704344928264617919921875</LatitudeDegrees>
              <LongitudeDegrees>-70.22389800287783145904541015625</LongitudeDegrees>
            </Position>
            <AltitudeMeters>1652.5999755859375</AltitudeMeters>
            <DistanceMeters>2288.3891906155</DistanceMeters>
          </Trackpoint>
          <Trackpoint>
            <Time>2019-08-04T15:08:04.000Z</Time>
            <Position>
              <LatitudeDegrees>-33.5296020470559597015380859375</LatitudeDegrees>
              <LongitudeDegrees>-70.22392013110220432281494140625</LongitudeDegrees>
            </Position>
            <AltitudeMeters>1653.4000244140625</AltitudeMeters>
            <DistanceMeters>2291.0363285644</DistanceMeters>
          </Trackpoint>
          <Trackpoint>
            <Time>2019-08-04T15:08:10.000Z</Time>
            <Position>
              <LatitudeDegrees>-33.5296181403100490570068359375</LatitudeDegrees>
              <LongitudeDegrees>-70.223955251276493072509765625</LongitudeDegrees>
            </Position>
            <AltitudeMeters>1654.5999755859375</AltitudeMeters>
            <DistanceMeters>2294.7545333779</DistanceMeters>
          </Trackpoint>
          <Trackpoint>
            <Time>2019-08-04T15:08:14.000Z</Time>
            <Position>
              <LatitudeDegrees>-33.52963448502123355865478515625</LatitudeDegrees>
              <LongitudeDegrees>-70.22397796623408794403076171875</LongitudeDegrees>
            </Position>
            <AltitudeMeters>1655.199951171875</AltitudeMeters>
            <DistanceMeters>2297.5380214036</DistanceMeters>
          </Trackpoint>
          <Trackpoint>
            <Time>2019-08-04T15:08:20.000Z</Time>
            <Position>
              <LatitudeDegrees>-33.52966197766363620758056640625</LatitudeDegrees>
              <LongitudeDegrees>-70.2239983342587947845458984375</LongitudeDegrees>
            </Position>
            <AltitudeMeters>1654.800048828125</AltitudeMeters>
            <DistanceMeters>2301.1340010292</DistanceMeters>
          </Trackpoint>
          <Trackpoint>
            <Time>2019-08-04T15:08:21.000Z</Time>
            <Position>
              <LatitudeDegrees>-33.52966633625328540802001953125</LatitudeDegrees>
              <LongitudeDegrees>-70.22400227375328540802001953125</LongitudeDegrees>
            </Position>
            <AltitudeMeters>1655</AltitudeMeters>
            <DistanceMeters>2301.7424688872</DistanceMeters>
          </Trackpoint>
          <Trackpoint>
            <Time>2019-08-04T15:08:24.000Z</Time>
            <Position>
              <LatitudeDegrees>-33.52968259714543819427490234375</LatitudeDegrees>
              <LongitudeDegrees>-70.22401736117899417877197265625</LongitudeDegrees>
            </Position>
            <AltitudeMeters>1655.4000244140625</AltitudeMeters>
            <DistanceMeters>2304.0310152244</DistanceMeters>
          </Trackpoint>
          <Trackpoint>
            <Time>2019-08-04T15:08:25.000Z</Time>
            <Position>
              <LatitudeDegrees>-33.5296872071921825408935546875</LatitudeDegrees>
              <LongitudeDegrees>-70.22402339614927768707275390625</LongitudeDegrees>
            </Position>
            <AltitudeMeters>1655.5999755859375</AltitudeMeters>
            <DistanceMeters>2304.7912289393</DistanceMeters>
          </Trackpoint>
          <Trackpoint>
            <Time>2019-08-04T15:08:28.000Z</Time>
            <Position>
              <LatitudeDegrees>-33.52970304898917675018310546875</LatitudeDegrees>
              <LongitudeDegrees>-70.22404267452657222747802734375</LongitudeDegrees>
            </Position>
            <AltitudeMeters>1656.199951171875</AltitudeMeters>
            <DistanceMeters>2307.3018052393</DistanceMeters>
          </Trackpoint>
          <Trackpoint>
            <Time>2019-08-04T15:08:31.000Z</Time>
            <Position>
              <LatitudeDegrees>-33.52971729822456836700439453125</LatitudeDegrees>
              <LongitudeDegrees>-70.22406245581805706024169921875</LongitudeDegrees>
            </Position>
            <AltitudeMeters>1656.800048828125</AltitudeMeters>
            <DistanceMeters>2309.7282449854</DistanceMeters>
          </Trackpoint>
          <Trackpoint>
            <Time>2019-08-04T15:08:32.000Z</Time>
            <Position>
              <LatitudeDegrees>-33.52972299791872501373291015625</LatitudeDegrees>
              <LongitudeDegrees>-70.224067904055118560791015625</LongitudeDegrees>
            </Position>
            <AltitudeMeters>1657</AltitudeMeters>
            <DistanceMeters>2310.5345733949</DistanceMeters>
          </Trackpoint>
          <Trackpoint>
            <Time>2019-08-04T15:08:36.000Z</Time>
            <Position>
              <LatitudeDegrees>-33.5297442041337490081787109375</LatitudeDegrees>
              <LongitudeDegrees>-70.2240905351936817169189453125</LongitudeDegrees>
            </Position>
            <AltitudeMeters>1657.800048828125</AltitudeMeters>
            <DistanceMeters>2313.6948367616</DistanceMeters>
          </Trackpoint>
          <Trackpoint>
            <Time>2019-08-04T15:08:41.000Z</Time>
            <Position>
              <LatitudeDegrees>-33.52976021356880664825439453125</LatitudeDegrees>
              <LongitudeDegrees>-70.22412464953958988189697265625</LongitudeDegrees>
            </Position>
            <AltitudeMeters>1658.800048828125</AltitudeMeters>
            <DistanceMeters>2317.3282885311</DistanceMeters>
          </Trackpoint>
          <Trackpoint>
            <Time>2019-08-04T15:08:42.000Z</Time>
            <Position>
              <LatitudeDegrees>-33.529762141406536102294921875</LatitudeDegrees>
              <LongitudeDegrees>-70.2241306006908416748046875</LongitudeDegrees>
            </Position>
            <AltitudeMeters>1658.800048828125</AltitudeMeters>
            <DistanceMeters>2317.929290243</DistanceMeters>
          </Trackpoint>
          <Trackpoint>
            <Time>2019-08-04T15:08:43.000Z</Time>
            <Position>
              <LatitudeDegrees>-33.5297643207013607025146484375</LatitudeDegrees>
              <LongitudeDegrees>-70.2241357974708080291748046875</LongitudeDegrees>
            </Position>
            <AltitudeMeters>1659</AltitudeMeters>
            <DistanceMeters>2318.466842516</DistanceMeters>
          </Trackpoint>
          <Trackpoint>
            <Time>2019-08-04T15:08:49.000Z</Time>
            <Position>
              <LatitudeDegrees>-33.52977178059518337249755859375</LatitudeDegrees>
              <LongitudeDegrees>-70.2241666428744792938232421875</LongitudeDegrees>
            </Position>
            <AltitudeMeters>1660</AltitudeMeters>
            <DistanceMeters>2321.4461990144</DistanceMeters>
          </Trackpoint>
          <Trackpoint>
            <Time>2019-08-04T15:08:52.000Z</Time>
            <Position>
              <LatitudeDegrees>-33.52978083305060863494873046875</LatitudeDegrees>
              <LongitudeDegrees>-70.22418248467147350311279296875</LongitudeDegrees>
            </Position>
            <AltitudeMeters>1660.4000244140625</AltitudeMeters>
            <DistanceMeters>2323.2290582091</DistanceMeters>
          </Trackpoint>
          <Trackpoint>
            <Time>2019-08-04T15:08:57.000Z</Time>
            <Position>
              <LatitudeDegrees>-33.529805727303028106689453125</LatitudeDegrees>
              <LongitudeDegrees>-70.22418893873691558837890625</LongitudeDegrees>
            </Position>
            <AltitudeMeters>1661</AltitudeMeters>
            <DistanceMeters>2326.0639776145</DistanceMeters>
          </Trackpoint>
          <Trackpoint>
            <Time>2019-08-04T15:08:58.000Z</Time>
            <Position>
              <LatitudeDegrees>-33.52981167845427989959716796875</LatitudeDegrees>
              <LongitudeDegrees>-70.22419572807848453521728515625</LongitudeDegrees>
            </Position>
            <AltitudeMeters>1661.4000244140625</AltitudeMeters>
            <DistanceMeters>2326.9852957929</DistanceMeters>
          </Trackpoint>
          <Trackpoint>
            <Time>2019-08-04T15:09:04.000Z</Time>
            <Position>
              <LatitudeDegrees>-33.52983129210770130157470703125</LatitudeDegrees>
              <LongitudeDegrees>-70.22423042915761470794677734375</LongitudeDegrees>
            </Position>
            <AltitudeMeters>1662.4000244140625</AltitudeMeters>
            <DistanceMeters>2330.8755924551</DistanceMeters>
          </Trackpoint>
          <Trackpoint>
            <Time>2019-08-04T15:09:07.000Z</Time>
            <Position>
              <LatitudeDegrees>-33.52984604425728321075439453125</LatitudeDegrees>
              <LongitudeDegrees>-70.2242373861372470855712890625</LongitudeDegrees>
            </Position>
            <AltitudeMeters>1663.199951171875</AltitudeMeters>
            <DistanceMeters>2332.638075447</DistanceMeters>
          </Trackpoint>
          <Trackpoint>
            <Time>2019-08-04T15:09:08.000Z</Time>
            <Position>
              <LatitudeDegrees>-33.5298514924943447113037109375</LatitudeDegrees>
              <LongitudeDegrees>-70.22424283437430858612060546875</LongitudeDegrees>
            </Position>
            <AltitudeMeters>1663.5999755859375</AltitudeMeters>
            <DistanceMeters>2333.4274266202</DistanceMeters>
          </Trackpoint>
          <Trackpoint>
            <Time>2019-08-04T15:09:09.000Z</Time>
            <Position>
              <LatitudeDegrees>-33.52985442616045475006103515625</LatitudeDegrees>
              <LongitudeDegrees>-70.22425121627748012542724609375</LongitudeDegrees>
            </Position>
            <AltitudeMeters>1664</AltitudeMeters>
            <DistanceMeters>2334.2720425323</DistanceMeters>
          </Trackpoint>
          <Trackpoint>
            <Time>2019-08-04T15:09:11.000Z</Time>
            <Position>
              <LatitudeDegrees>-33.52986096404492855072021484375</LatitudeDegrees>
              <LongitudeDegrees>-70.22427116520702838897705078125</LongitudeDegrees>
            </Position>
            <AltitudeMeters>1664.4000244140625</AltitudeMeters>
            <DistanceMeters>2336.2608043286</DistanceMeters>
          </Trackpoint>
          <Trackpoint>
            <Time>2019-08-04T15:09:12.000Z</Time>
            <Position>
              <LatitudeDegrees>-33.52986314333975315093994140625</LatitudeDegrees>
              <LongitudeDegrees>-70.22427921183407306671142578125</LongitudeDegrees>
            </Position>
            <AltitudeMeters>1664.5999755859375</AltitudeMeters>
            <DistanceMeters>2337.0444146899</DistanceMeters>
          </Trackpoint>
          <Trackpoint>
            <Time>2019-08-04T15:09:17.000Z</Time>
            <Position>
              <LatitudeDegrees>-33.52987051941454410552978515625</LatitudeDegrees>
              <LongitudeDegrees>-70.2243077941238880157470703125</LongitudeDegrees>
            </Position>
            <AltitudeMeters>1665.5999755859375</AltitudeMeters>
            <DistanceMeters>2339.8214068186</DistanceMeters>
          </Trackpoint>
          <Trackpoint>
            <Time>2019-08-04T15:09:18.000Z</Time>
            <Position>
              <LatitudeDegrees>-33.529872111976146697998046875</LatitudeDegrees>
              <LongitudeDegrees>-70.22431491874158382415771484375</LongitudeDegrees>
            </Position>
            <AltitudeMeters>1665.800048828125</AltitudeMeters>
            <DistanceMeters>2340.5132117416</DistanceMeters>
          </Trackpoint>
          <Trackpoint>
            <Time>2019-08-04T15:09:22.000Z</Time>
            <Position>
              <LatitudeDegrees>-33.52989382110536098480224609375</LatitudeDegrees>
              <LongitudeDegrees>-70.22433268837630748748779296875</LongitudeDegrees>
            </Position>
            <AltitudeMeters>1666.199951171875</AltitudeMeters>
            <DistanceMeters>2343.4390470871</DistanceMeters>
          </Trackpoint>
          <Trackpoint>
            <Time>2019-08-04T15:09:26.000Z</Time>
            <Position>
              <LatitudeDegrees>-33.52990320883691310882568359375</LatitudeDegrees>
              <LongitudeDegrees>-70.2243627794086933135986328125</LongitudeDegrees>
            </Position>
            <AltitudeMeters>1667</AltitudeMeters>
            <DistanceMeters>2346.419918641</DistanceMeters>
          </Trackpoint>
          <Trackpoint>
            <Time>2019-08-04T15:09:28.000Z</Time>
            <Position>
              <LatitudeDegrees>-33.529910333454608917236328125</LatitudeDegrees>
              <LongitudeDegrees>-70.22438046522438526153564453125</LongitudeDegrees>
            </Position>
            <AltitudeMeters>1667.199951171875</AltitudeMeters>
            <DistanceMeters>2348.2403686005</DistanceMeters>
          </Trackpoint>
          <Trackpoint>
            <Time>2019-08-04T15:09:31.000Z</Time>
            <Position>
              <LatitudeDegrees>-33.52990622632205486297607421875</LatitudeDegrees>
              <LongitudeDegrees>-70.22440393455326557159423828125</LongitudeDegrees>
            </Position>
            <AltitudeMeters>1667.5999755859375</AltitudeMeters>
            <DistanceMeters>2350.4648869509</DistanceMeters>
          </Trackpoint>
          <Trackpoint>
            <Time>2019-08-04T15:09:35.000Z</Time>
            <Position>
              <LatitudeDegrees>-33.52991024963557720184326171875</LatitudeDegrees>
              <LongitudeDegrees>-70.2244392223656177520751953125</LongitudeDegrees>
            </Position>
            <AltitudeMeters>1668</AltitudeMeters>
            <DistanceMeters>2353.7676634108</DistanceMeters>
          </Trackpoint>
          <Trackpoint>
            <Time>2019-08-04T15:09:37.000Z</Time>
            <Position>
              <LatitudeDegrees>-33.529915027320384979248046875</LatitudeDegrees>
              <LongitudeDegrees>-70.22445657290518283843994140625</LongitudeDegrees>
            </Position>
            <AltitudeMeters>1668.199951171875</AltitudeMeters>
            <DistanceMeters>2355.4622324738</DistanceMeters>
          </Trackpoint>
          <Trackpoint>
            <Time>2019-08-04T15:09:47.000Z</Time>
            <Position>
              <LatitudeDegrees>-33.529941849410533905029296875</LatitudeDegrees>
              <LongitudeDegrees>-70.22452614270150661468505859375</LongitudeDegrees>
            </Position>
            <AltitudeMeters>1669</AltitudeMeters>
            <DistanceMeters>2362.5740155247</DistanceMeters>
          </Trackpoint>
          <Trackpoint>
            <Time>2019-08-04T15:09:50.000Z</Time>
            <Position>
              <LatitudeDegrees>-33.5299560986459255218505859375</LatitudeDegrees>
              <LongitudeDegrees>-70.2245481871068477630615234375</LongitudeDegrees>
            </Position>
            <AltitudeMeters>1669.5999755859375</AltitudeMeters>
            <DistanceMeters>2365.1625125251</DistanceMeters>
          </Trackpoint>
          <Trackpoint>
            <Time>2019-08-04T15:09:53.000Z</Time>
            <Position>
              <LatitudeDegrees>-33.5299725271761417388916015625</LatitudeDegrees>
              <LongitudeDegrees>-70.22456352598965167999267578125</LongitudeDegrees>
            </Position>
            <AltitudeMeters>1670.199951171875</AltitudeMeters>
            <DistanceMeters>2367.480463233</DistanceMeters>
          </Trackpoint>
          <Trackpoint>
            <Time>2019-08-04T15:10:00.000Z</Time>
            <Position>
              <LatitudeDegrees>-33.52999323047697544097900390625</LatitudeDegrees>
              <LongitudeDegrees>-70.22460308857262134552001953125</LongitudeDegrees>
            </Position>
            <AltitudeMeters>1671.199951171875</AltitudeMeters>
            <DistanceMeters>2371.8143482111</DistanceMeters>
          </Trackpoint>
          <Trackpoint>
            <Time>2019-08-04T15:10:04.000Z</Time>
            <Position>
              <LatitudeDegrees>-33.53000513277947902679443359375</LatitudeDegrees>
              <LongitudeDegrees>-70.224628485739231109619140625</LongitudeDegrees>
            </Position>
            <AltitudeMeters>1671.800048828125</AltitudeMeters>
            <DistanceMeters>2374.5188559148</DistanceMeters>
          </Trackpoint>
          <Trackpoint>
            <Time>2019-08-04T15:10:06.000Z</Time>
            <Position>
              <LatitudeDegrees>-33.5300070606172084808349609375</LatitudeDegrees>
              <LongitudeDegrees>-70.22464013658463954925537109375</LongitudeDegrees>
            </Position>
            <AltitudeMeters>1671.800048828125</AltitudeMeters>
            <DistanceMeters>2375.6188696618</DistanceMeters>
          </Trackpoint>
          <Trackpoint>
            <Time>2019-08-04T15:10:08.000Z</Time>
            <Position>
              <LatitudeDegrees>-33.5300080664455890655517578125</LatitudeDegrees>
              <LongitudeDegrees>-70.224649272859096527099609375</LongitudeDegrees>
            </Position>
            <AltitudeMeters>1672</AltitudeMeters>
            <DistanceMeters>2376.4793731588</DistanceMeters>
          </Trackpoint>
          <Trackpoint>
            <Time>2019-08-04T15:10:12.000Z</Time>
            <Position>
              <LatitudeDegrees>-33.53002441115677356719970703125</LatitudeDegrees>
              <LongitudeDegrees>-70.224673412740230560302734375</LongitudeDegrees>
            </Position>
            <AltitudeMeters>1672.4000244140625</AltitudeMeters>
            <DistanceMeters>2379.3648073517</DistanceMeters>
          </Trackpoint>
          <Trackpoint>
            <Time>2019-08-04T15:10:14.000Z</Time>
            <Position>
              <LatitudeDegrees>-33.53002960793673992156982421875</LatitudeDegrees>
              <LongitudeDegrees>-70.2246839739382266998291015625</LongitudeDegrees>
            </Position>
            <AltitudeMeters>1672.4000244140625</AltitudeMeters>
            <DistanceMeters>2380.5051279241</DistanceMeters>
          </Trackpoint>
          <Trackpoint>
            <Time>2019-08-04T15:10:16.000Z</Time>
            <Position>
              <LatitudeDegrees>-33.530043773353099822998046875</LatitudeDegrees>
              <LongitudeDegrees>-70.22469596005976200103759765625</LongitudeDegrees>
            </Position>
            <AltitudeMeters>1672.5999755859375</AltitudeMeters>
            <DistanceMeters>2382.433959564</DistanceMeters>
          </Trackpoint>
          <Trackpoint>
            <Time>2019-08-04T15:10:18.000Z</Time>
            <Position>
              <LatitudeDegrees>-33.53005743585526943206787109375</LatitudeDegrees>
              <LongitudeDegrees>-70.22470937110483646392822265625</LongitudeDegrees>
            </Position>
            <AltitudeMeters>1672.800048828125</AltitudeMeters>
            <DistanceMeters>2384.3998875174</DistanceMeters>
          </Trackpoint>
          <Trackpoint>
            <Time>2019-08-04T15:10:20.000Z</Time>
            <Position>
              <LatitudeDegrees>-33.530069254338741302490234375</LatitudeDegrees>
              <LongitudeDegrees>-70.224723704159259796142578125</LongitudeDegrees>
            </Position>
            <AltitudeMeters>1673</AltitudeMeters>
            <DistanceMeters>2386.2716967118</DistanceMeters>
          </Trackpoint>
          <Trackpoint>
            <Time>2019-08-04T15:10:21.000Z</Time>
            <Position>
              <LatitudeDegrees>-33.53007520548999309539794921875</LatitudeDegrees>
              <LongitudeDegrees>-70.224730074405670166015625</LongitudeDegrees>
            </Position>
            <AltitudeMeters>1673.199951171875</AltitudeMeters>
            <DistanceMeters>2387.1631263092</DistanceMeters>
          </Trackpoint>
          <Trackpoint>
            <Time>2019-08-04T15:10:23.000Z</Time>
            <Position>
              <LatitudeDegrees>-33.53008274920284748077392578125</LatitudeDegrees>
              <LongitudeDegrees>-70.22474558092653751373291015625</LongitudeDegrees>
            </Position>
            <AltitudeMeters>1673.4000244140625</AltitudeMeters>
            <DistanceMeters>2388.8281288522</DistanceMeters>
          </Trackpoint>
          <Trackpoint>
            <Time>2019-08-04T15:10:30.000Z</Time>
            <Position>
              <LatitudeDegrees>-33.53011862374842166900634765625</LatitudeDegrees>
              <LongitudeDegrees>-70.2247781865298748016357421875</LongitudeDegrees>
            </Position>
            <AltitudeMeters>1674.4000244140625</AltitudeMeters>
            <DistanceMeters>2393.837578167</DistanceMeters>
          </Trackpoint>
          <Trackpoint>
            <Time>2019-08-04T15:10:32.000Z</Time>
            <Position>
              <LatitudeDegrees>-33.53013253770768642425537109375</LatitudeDegrees>
              <LongitudeDegrees>-70.2247869037091732025146484375</LongitudeDegrees>
            </Position>
            <AltitudeMeters>1674.4000244140625</AltitudeMeters>
            <DistanceMeters>2395.5846230543</DistanceMeters>
          </Trackpoint>
          <Trackpoint>
            <Time>2019-08-04T15:10:33.000Z</Time>
            <Position>
              <LatitudeDegrees>-33.5301394946873188018798828125</LatitudeDegrees>
              <LongitudeDegrees>-70.2247869037091732025146484375</LongitudeDegrees>
            </Position>
            <AltitudeMeters>1674.5999755859375</AltitudeMeters>
            <DistanceMeters>2396.3624502341</DistanceMeters>
          </Trackpoint>
          <Trackpoint>
            <Time>2019-08-04T15:10:35.000Z</Time>
            <Position>
              <LatitudeDegrees>-33.5301515646278858184814453125</LatitudeDegrees>
              <LongitudeDegrees>-70.22478028200566768646240234375</LongitudeDegrees>
            </Position>
            <AltitudeMeters>1675</AltitudeMeters>
            <DistanceMeters>2397.8407189849</DistanceMeters>
          </Trackpoint>
          <Trackpoint>
            <Time>2019-08-04T15:10:36.000Z</Time>
            <Position>
              <LatitudeDegrees>-33.53016003035008907318115234375</LatitudeDegrees>
              <LongitudeDegrees>-70.2247781865298748016357421875</LongitudeDegrees>
            </Position>
            <AltitudeMeters>1675.4000244140625</AltitudeMeters>
            <DistanceMeters>2398.8004417559</DistanceMeters>
          </Trackpoint>
          <Trackpoint>
            <Time>2019-08-04T15:10:37.000Z</Time>
            <Position>
              <LatitudeDegrees>-33.53016824461519718170166015625</LatitudeDegrees>
              <LongitudeDegrees>-70.22477961145341396331787109375</LongitudeDegrees>
            </Position>
            <AltitudeMeters>1675.5999755859375</AltitudeMeters>
            <DistanceMeters>2399.7217599343</DistanceMeters>
          </Trackpoint>
          <Trackpoint>
            <Time>2019-08-04T15:10:39.000Z</Time>
            <Position>
              <LatitudeDegrees>-33.53018182329833507537841796875</LatitudeDegrees>
              <LongitudeDegrees>-70.22478681989014148712158203125</LongitudeDegrees>
            </Position>
            <AltitudeMeters>1675.800048828125</AltitudeMeters>
            <DistanceMeters>2401.3731481643</DistanceMeters>
          </Trackpoint>
          <Trackpoint>
            <Time>2019-08-04T15:10:40.000Z</Time>
            <Position>
              <LatitudeDegrees>-33.53018651716411113739013671875</LatitudeDegrees>
              <LongitudeDegrees>-70.22479821927845478057861328125</LongitudeDegrees>
            </Position>
            <AltitudeMeters>1676</AltitudeMeters>
            <DistanceMeters>2402.5523986772</DistanceMeters>
          </Trackpoint>
          <Trackpoint>
            <Time>2019-08-04T15:10:42.000Z</Time>
            <Position>
              <LatitudeDegrees>-33.530191965401172637939453125</LatitudeDegrees>
              <LongitudeDegrees>-70.2248167432844638824462890625</LongitudeDegrees>
            </Position>
            <AltitudeMeters>1676.4000244140625</AltitudeMeters>
            <DistanceMeters>2404.3753271266</DistanceMeters>
          </Trackpoint>
          <Trackpoint>
            <Time>2019-08-04T15:10:43.000Z</Time>
            <Position>
              <LatitudeDegrees>-33.53019003756344318389892578125</LatitudeDegrees>
              <LongitudeDegrees>-70.224823616445064544677734375</LongitudeDegrees>
            </Position>
            <AltitudeMeters>1676.800048828125</AltitudeMeters>
            <DistanceMeters>2405.053953606</DistanceMeters>
          </Trackpoint>
          <Trackpoint>
            <Time>2019-08-04T15:10:47.000Z</Time>
            <Position>
              <LatitudeDegrees>-33.53021484799683094024658203125</LatitudeDegrees>
              <LongitudeDegrees>-70.22485144436359405517578125</LongitudeDegrees>
            </Position>
            <AltitudeMeters>1677.5999755859375</AltitudeMeters>
            <DistanceMeters>2408.8335806954</DistanceMeters>
          </Trackpoint>
          <Trackpoint>
            <Time>2019-08-04T15:10:48.000Z</Time>
            <Position>
              <LatitudeDegrees>-33.530222140252590179443359375</LatitudeDegrees>
              <LongitudeDegrees>-70.2248576469719409942626953125</LongitudeDegrees>
            </Position>
            <AltitudeMeters>1677.800048828125</AltitudeMeters>
            <DistanceMeters>2409.8302292838</DistanceMeters>
          </Trackpoint>
          <Trackpoint>
            <Time>2019-08-04T15:10:51.000Z</Time>
            <Position>
              <LatitudeDegrees>-33.53022926487028598785400390625</LatitudeDegrees>
              <LongitudeDegrees>-70.2248730696737766265869140625</LongitudeDegrees>
            </Position>
            <AltitudeMeters>1678.4000244140625</AltitudeMeters>
            <DistanceMeters>2411.4651306959</DistanceMeters>
          </Trackpoint>
          <Trackpoint>
            <Time>2019-08-04T15:10:52.000Z</Time>
            <Position>
              <LatitudeDegrees>-33.530235551297664642333984375</LatitudeDegrees>
              <LongitudeDegrees>-70.224879272282123565673828125</LongitudeDegrees>
            </Position>
            <AltitudeMeters>1678.4000244140625</AltitudeMeters>
            <DistanceMeters>2412.3765949206</DistanceMeters>
          </Trackpoint>
          <Trackpoint>
            <Time>2019-08-04T15:10:55.000Z</Time>
            <Position>
              <LatitudeDegrees>-33.53025357238948345184326171875</LatitudeDegrees>
              <LongitudeDegrees>-70.2249032445251941680908203125</LongitudeDegrees>
            </Position>
            <AltitudeMeters>1678.800048828125</AltitudeMeters>
            <DistanceMeters>2415.3725748914</DistanceMeters>
          </Trackpoint>
          <Trackpoint>
            <Time>2019-08-04T15:11:00.000Z</Time>
            <Position>
              <LatitudeDegrees>-33.53027117438614368438720703125</LatitudeDegrees>
              <LongitudeDegrees>-70.224949009716510772705078125</LongitudeDegrees>
            </Position>
            <AltitudeMeters>1679.800048828125</AltitudeMeters>
            <DistanceMeters>2420.0482368842</DistanceMeters>
          </Trackpoint>
          <Trackpoint>
            <Time>2019-08-04T15:11:04.000Z</Time>
            <Position>
              <LatitudeDegrees>-33.53028592653572559356689453125</LatitudeDegrees>
              <LongitudeDegrees>-70.22497943602502346038818359375</LongitudeDegrees>
            </Position>
            <AltitudeMeters>1680.5999755859375</AltitudeMeters>
            <DistanceMeters>2423.3138945944</DistanceMeters>
          </Trackpoint>
          <Trackpoint>
            <Time>2019-08-04T15:11:06.000Z</Time>
            <Position>
              <LatitudeDegrees>-33.530291877686977386474609375</LatitudeDegrees>
              <LongitudeDegrees>-70.22498848848044872283935546875</LongitudeDegrees>
            </Position>
            <AltitudeMeters>1681</AltitudeMeters>
            <DistanceMeters>2424.3847912787</DistanceMeters>
          </Trackpoint>
          <Trackpoint>
            <Time>2019-08-04T15:11:12.000Z</Time>
            <Position>
              <LatitudeDegrees>-33.53031526319682598114013671875</LatitudeDegrees>
              <LongitudeDegrees>-70.22502251900732517242431640625</LongitudeDegrees>
            </Position>
            <AltitudeMeters>1682.199951171875</AltitudeMeters>
            <DistanceMeters>2428.4775643976</DistanceMeters>
          </Trackpoint>
          <Trackpoint>
            <Time>2019-08-04T15:11:18.000Z</Time>
            <Position>
              <LatitudeDegrees>-33.53033873252570629119873046875</LatitudeDegrees>
              <LongitudeDegrees>-70.225063674151897430419921875</LongitudeDegrees>
            </Position>
            <AltitudeMeters>1683.199951171875</AltitudeMeters>
            <DistanceMeters>2433.105667824</DistanceMeters>
          </Trackpoint>
          <Trackpoint>
            <Time>2019-08-04T15:11:28.000Z</Time>
            <Position>
              <LatitudeDegrees>-33.53037477470934391021728515625</LatitudeDegrees>
              <LongitudeDegrees>-70.225131399929523468017578125</LongitudeDegrees>
            </Position>
            <AltitudeMeters>1684.4000244140625</AltitudeMeters>
            <DistanceMeters>2440.5608754343</DistanceMeters>
          </Trackpoint>
          <Trackpoint>
            <Time>2019-08-04T15:11:30.000Z</Time>
            <Position>
              <LatitudeDegrees>-33.53038483299314975738525390625</LatitudeDegrees>
              <LongitudeDegrees>-70.22514405660331249237060546875</LongitudeDegrees>
            </Position>
            <AltitudeMeters>1684.5999755859375</AltitudeMeters>
            <DistanceMeters>2442.1846926413</DistanceMeters>
          </Trackpoint>
          <Trackpoint>
            <Time>2019-08-04T15:11:36.000Z</Time>
            <Position>
              <LatitudeDegrees>-33.530407212674617767333984375</LatitudeDegrees>
              <LongitudeDegrees>-70.22517196834087371826171875</LongitudeDegrees>
            </Position>
            <AltitudeMeters>1685.4000244140625</AltitudeMeters>
            <DistanceMeters>2445.7781602305</DistanceMeters>
          </Trackpoint>
          <Trackpoint>
            <Time>2019-08-04T15:11:41.000Z</Time>
            <Position>
              <LatitudeDegrees>-33.53042204864323139190673828125</LatitudeDegrees>
              <LongitudeDegrees>-70.22520591504871845245361328125</LongitudeDegrees>
            </Position>
            <AltitudeMeters>1685.800048828125</AltitudeMeters>
            <DistanceMeters>2449.3337343081</DistanceMeters>
          </Trackpoint>
          <Trackpoint>
            <Time>2019-08-04T15:11:45.000Z</Time>
            <Position>
              <LatitudeDegrees>-33.53043680079281330108642578125</LatitudeDegrees>
              <LongitudeDegrees>-70.2252328209578990936279296875</LongitudeDegrees>
            </Position>
            <AltitudeMeters>1686</AltitudeMeters>
            <DistanceMeters>2452.3206583993</DistanceMeters>
          </Trackpoint>
          <Trackpoint>
            <Time>2019-08-04T15:11:50.000Z</Time>
            <Position>
              <LatitudeDegrees>-33.53046119213104248046875</LatitudeDegrees>
              <LongitudeDegrees>-70.22526894696056842803955078125</LongitudeDegrees>
            </Position>
            <AltitudeMeters>1686.4000244140625</AltitudeMeters>
            <DistanceMeters>2456.6336570632</DistanceMeters>
          </Trackpoint>
          <Trackpoint>
            <Time>2019-08-04T15:11:56.000Z</Time>
            <Position>
              <LatitudeDegrees>-33.53049916215240955352783203125</LatitudeDegrees>
              <LongitudeDegrees>-70.22529400885105133056640625</LongitudeDegrees>
            </Position>
            <AltitudeMeters>1687</AltitudeMeters>
            <DistanceMeters>2461.4576084514</DistanceMeters>
          </Trackpoint>
          <Trackpoint>
            <Time>2019-08-04T15:11:58.000Z</Time>
            <Position>
              <LatitudeDegrees>-33.53051005862653255462646484375</LatitudeDegrees>
              <LongitudeDegrees>-70.225299037992954254150390625</LongitudeDegrees>
            </Position>
            <AltitudeMeters>1687.5999755859375</AltitudeMeters>
            <DistanceMeters>2462.7570792264</DistanceMeters>
          </Trackpoint>
          <Trackpoint>
            <Time>2019-08-04T15:12:08.000Z</Time>
            <Position>
              <LatitudeDegrees>-33.5305683128535747528076171875</LatitudeDegrees>
              <LongitudeDegrees>-70.225343964993953704833984375</LongitudeDegrees>
            </Position>
            <AltitudeMeters>1688.800048828125</AltitudeMeters>
            <DistanceMeters>2470.4653801417</DistanceMeters>
          </Trackpoint>
          <Trackpoint>
            <Time>2019-08-04T15:12:14.000Z</Time>
            <Position>
              <LatitudeDegrees>-33.5305964760482311248779296875</LatitudeDegrees>
              <LongitudeDegrees>-70.2253992855548858642578125</LongitudeDegrees>
            </Position>
            <AltitudeMeters>1689.5999755859375</AltitudeMeters>
            <DistanceMeters>2476.479903085</DistanceMeters>
          </Trackpoint>
          <Trackpoint>
            <Time>2019-08-04T15:12:15.000Z</Time>
            <Position>
              <LatitudeDegrees>-33.5305994935333728790283203125</LatitudeDegrees>
              <LongitudeDegrees>-70.22540590725839138031005859375</LongitudeDegrees>
            </Position>
            <AltitudeMeters>1689.800048828125</AltitudeMeters>
            <DistanceMeters>2477.1846400603</DistanceMeters>
          </Trackpoint>
          <Trackpoint>
            <Time>2019-08-04T15:12:21.000Z</Time>
            <Position>
              <LatitudeDegrees>-33.53063930757343769073486328125</LatitudeDegrees>
              <LongitudeDegrees>-70.22544697858393192291259765625</LongitudeDegrees>
            </Position>
            <AltitudeMeters>1690.800048828125</AltitudeMeters>
            <DistanceMeters>2483.0285898471</DistanceMeters>
          </Trackpoint>
          <Trackpoint>
            <Time>2019-08-04T15:12:22.000Z</Time>
            <Position>
              <LatitudeDegrees>-33.53064651601016521453857421875</LatitudeDegrees>
              <LongitudeDegrees>-70.225455276668071746826171875</LongitudeDegrees>
            </Position>
            <AltitudeMeters>1691</AltitudeMeters>
            <DistanceMeters>2484.1367822476</DistanceMeters>
          </Trackpoint>
          <Trackpoint>
            <Time>2019-08-04T15:12:30.000Z</Time>
            <Position>
              <LatitudeDegrees>-33.53070116601884365081787109375</LatitudeDegrees>
              <LongitudeDegrees>-70.225518643856048583984375</LongitudeDegrees>
            </Position>
            <AltitudeMeters>1692.199951171875</AltitudeMeters>
            <DistanceMeters>2492.5968286951</DistanceMeters>
          </Trackpoint>
          <Trackpoint>
            <Time>2019-08-04T15:12:34.000Z</Time>
            <Position>
              <LatitudeDegrees>-33.53073410689830780029296875</LatitudeDegrees>
              <LongitudeDegrees>-70.22554487921297550201416015625</LongitudeDegrees>
            </Position>
            <AltitudeMeters>1693.199951171875</AltitudeMeters>
            <DistanceMeters>2496.9979096955</DistanceMeters>
          </Trackpoint>
          <Trackpoint>
            <Time>2019-08-04T15:12:35.000Z</Time>
            <Position>
              <LatitudeDegrees>-33.53074072860181331634521484375</LatitudeDegrees>
              <LongitudeDegrees>-70.225553847849369049072265625</LongitudeDegrees>
            </Position>
            <AltitudeMeters>1693.199951171875</AltitudeMeters>
            <DistanceMeters>2498.106102096</DistanceMeters>
          </Trackpoint>
          <Trackpoint>
            <Time>2019-08-04T15:12:43.000Z</Time>
            <Position>
              <LatitudeDegrees>-33.53079982101917266845703125</LatitudeDegrees>
              <LongitudeDegrees>-70.22561243735253810882568359375</LongitudeDegrees>
            </Position>
            <AltitudeMeters>1694.4000244140625</AltitudeMeters>
            <DistanceMeters>2506.6384216101</DistanceMeters>
          </Trackpoint>
          <Trackpoint>
            <Time>2019-08-04T15:12:49.000Z</Time>
            <Position>
              <LatitudeDegrees>-33.5308412276208400726318359375</LatitudeDegrees>
              <LongitudeDegrees>-70.225651077926158905029296875</LongitudeDegrees>
            </Position>
            <AltitudeMeters>1695.5999755859375</AltitudeMeters>
            <DistanceMeters>2512.4777339542</DistanceMeters>
          </Trackpoint>
          <Trackpoint>
            <Time>2019-08-04T15:12:50.000Z</Time>
            <Position>
              <LatitudeDegrees>-33.53084986098110675811767578125</LatitudeDegrees>
              <LongitudeDegrees>-70.22565652616322040557861328125</LongitudeDegrees>
            </Position>
            <AltitudeMeters>1695.800048828125</AltitudeMeters>
            <DistanceMeters>2513.5653644127</DistanceMeters>
          </Trackpoint>
          <Trackpoint>
            <Time>2019-08-04T15:12:56.000Z</Time>
            <Position>
              <LatitudeDegrees>-33.5308828018605709075927734375</LatitudeDegrees>
              <LongitudeDegrees>-70.225706733763217926025390625</LongitudeDegrees>
            </Position>
            <AltitudeMeters>1696.5999755859375</AltitudeMeters>
            <DistanceMeters>2519.4929294645</DistanceMeters>
          </Trackpoint>
          <Trackpoint>
            <Time>2019-08-04T15:13:03.000Z</Time>
            <Position>
              <LatitudeDegrees>-33.53092462755739688873291015625</LatitudeDegrees>
              <LongitudeDegrees>-70.22577085532248020172119140625</LongitudeDegrees>
            </Position>
            <AltitudeMeters>1697.5999755859375</AltitudeMeters>
            <DistanceMeters>2527.0474038424</DistanceMeters>
          </Trackpoint>
          <Trackpoint>
            <Time>2019-08-04T15:13:04.000Z</Time>
            <Position>
              <LatitudeDegrees>-33.530929572880268096923828125</LatitudeDegrees>
              <LongitudeDegrees>-70.2257783152163028717041015625</LongitudeDegrees>
            </Position>
            <AltitudeMeters>1697.800048828125</AltitudeMeters>
            <DistanceMeters>2527.9337540275</DistanceMeters>
          </Trackpoint>
          <Trackpoint>
            <Time>2019-08-04T15:13:05.000Z</Time>
            <Position>
              <LatitudeDegrees>-33.5309344343841075897216796875</LatitudeDegrees>
              <LongitudeDegrees>-70.22578745149075984954833984375</LongitudeDegrees>
            </Position>
            <AltitudeMeters>1697.800048828125</AltitudeMeters>
            <DistanceMeters>2528.9439018573</DistanceMeters>
          </Trackpoint>
          <Trackpoint>
            <Time>2019-08-04T15:13:07.000Z</Time>
            <Position>
              <LatitudeDegrees>-33.5309481807053089141845703125</LatitudeDegrees>
              <LongitudeDegrees>-70.22580136545002460479736328125</LongitudeDegrees>
            </Position>
            <AltitudeMeters>1698</AltitudeMeters>
            <DistanceMeters>2530.9462389771</DistanceMeters>
          </Trackpoint>
          <Trackpoint>
            <Time>2019-08-04T15:13:16.000Z</Time>
            <Position>
              <LatitudeDegrees>-33.53099319152534008026123046875</LatitudeDegrees>
              <LongitudeDegrees>-70.2258986793458461761474609375</LongitudeDegrees>
            </Position>
            <AltitudeMeters>1698.4000244140625</AltitudeMeters>
            <DistanceMeters>2541.2722809415</DistanceMeters>
          </Trackpoint>
          <Trackpoint>
            <Time>2019-08-04T15:13:17.000Z</Time>
            <Position>
              <LatitudeDegrees>-33.5310001485049724578857421875</LatitudeDegrees>
              <LongitudeDegrees>-70.2259067259728908538818359375</LongitudeDegrees>
            </Position>
            <AltitudeMeters>1698.4000244140625</AltitudeMeters>
            <DistanceMeters>2542.3473854875</DistanceMeters>
          </Trackpoint>
          <Trackpoint>
            <Time>2019-08-04T15:13:21.000Z</Time>
            <Position>
              <LatitudeDegrees>-33.53101917542517185211181640625</LatitudeDegrees>
              <LongitudeDegrees>-70.2259504795074462890625</LongitudeDegrees>
            </Position>
            <AltitudeMeters>1698.800048828125</AltitudeMeters>
            <DistanceMeters>2546.9264506216</DistanceMeters>
          </Trackpoint>
          <Trackpoint>
            <Time>2019-08-04T15:13:26.000Z</Time>
            <Position>
              <LatitudeDegrees>-33.5310418903827667236328125</LatitudeDegrees>
              <LongitudeDegrees>-70.22599901072680950164794921875</LongitudeDegrees>
            </Position>
            <AltitudeMeters>1699.199951171875</AltitudeMeters>
            <DistanceMeters>2552.0894716038</DistanceMeters>
          </Trackpoint>
          <Trackpoint>
            <Time>2019-08-04T15:13:31.000Z</Time>
            <Position>
              <LatitudeDegrees>-33.53107583709061145782470703125</LatitudeDegrees>
              <LongitudeDegrees>-70.22603522054851055145263671875</LongitudeDegrees>
            </Position>
            <AltitudeMeters>1699.800048828125</AltitudeMeters>
            <DistanceMeters>2557.1446784578</DistanceMeters>
          </Trackpoint>
          <Trackpoint>
            <Time>2019-08-04T15:13:32.000Z</Time>
            <Position>
              <LatitudeDegrees>-33.53108069859445095062255859375</LatitudeDegrees>
              <LongitudeDegrees>-70.22604460828006267547607421875</LongitudeDegrees>
            </Position>
            <AltitudeMeters>1699.800048828125</AltitudeMeters>
            <DistanceMeters>2558.1725495314</DistanceMeters>
          </Trackpoint>
          <Trackpoint>
            <Time>2019-08-04T15:13:40.000Z</Time>
            <Position>
              <LatitudeDegrees>-33.53111305274069309234619140625</LatitudeDegrees>
              <LongitudeDegrees>-70.2261065505445003509521484375</LongitudeDegrees>
            </Position>
            <AltitudeMeters>1700.800048828125</AltitudeMeters>
            <DistanceMeters>2564.9548212308</DistanceMeters>
          </Trackpoint>
          <Trackpoint>
            <Time>2019-08-04T15:13:43.000Z</Time>
            <Position>
              <LatitudeDegrees>-33.5311195068061351776123046875</LatitudeDegrees>
              <LongitudeDegrees>-70.22613764740526676177978515625</LongitudeDegrees>
            </Position>
            <AltitudeMeters>1701</AltitudeMeters>
            <DistanceMeters>2567.9281097871</DistanceMeters>
          </Trackpoint>
          <Trackpoint>
            <Time>2019-08-04T15:13:45.000Z</Time>
            <Position>
              <LatitudeDegrees>-33.5311208479106426239013671875</LatitudeDegrees>
              <LongitudeDegrees>-70.2261650562286376953125</LongitudeDegrees>
            </Position>
            <AltitudeMeters>1701</AltitudeMeters>
            <DistanceMeters>2570.4761727697</DistanceMeters>
          </Trackpoint>
          <Trackpoint>
            <Time>2019-08-04T15:13:49.000Z</Time>
            <Position>
              <LatitudeDegrees>-33.53114180266857147216796875</LatitudeDegrees>
              <LongitudeDegrees>-70.2262202091515064239501953125</LongitudeDegrees>
            </Position>
            <AltitudeMeters>1701.199951171875</AltitudeMeters>
            <DistanceMeters>2576.0996350223</DistanceMeters>
          </Trackpoint>
          <Trackpoint>
            <Time>2019-08-04T15:13:54.000Z</Time>
            <Position>
              <LatitudeDegrees>-33.5311634279787540435791015625</LatitudeDegrees>
              <LongitudeDegrees>-70.22627276368439197540283203125</LongitudeDegrees>
            </Position>
            <AltitudeMeters>1701.4000244140625</AltitudeMeters>
            <DistanceMeters>2581.5369569989</DistanceMeters>
          </Trackpoint>
          <Trackpoint>
            <Time>2019-08-04T15:13:55.000Z</Time>
            <Position>
              <LatitudeDegrees>-33.531167618930339813232421875</LatitudeDegrees>
              <LongitudeDegrees>-70.22628366015851497650146484375</LongitudeDegrees>
            </Position>
            <AltitudeMeters>1701.4000244140625</AltitudeMeters>
            <DistanceMeters>2582.6532681335</DistanceMeters>
          </Trackpoint>
          <Trackpoint>
            <Time>2019-08-04T15:14:00.000Z</Time>
            <Position>
              <LatitudeDegrees>-33.53118714876472949981689453125</LatitudeDegrees>
              <LongitudeDegrees>-70.226326994597911834716796875</LongitudeDegrees>
            </Position>
            <AltitudeMeters>1701.5999755859375</AltitudeMeters>
            <DistanceMeters>2587.2244383219</DistanceMeters>
          </Trackpoint>
          <Trackpoint>
            <Time>2019-08-04T15:14:05.000Z</Time>
            <Position>
              <LatitudeDegrees>-33.53121078573167324066162109375</LatitudeDegrees>
              <LongitudeDegrees>-70.2263586781919002532958984375</LongitudeDegrees>
            </Position>
            <AltitudeMeters>1701.800048828125</AltitudeMeters>
            <DistanceMeters>2591.1700500349</DistanceMeters>
          </Trackpoint>
          <Trackpoint>
            <Time>2019-08-04T15:14:08.000Z</Time>
            <Position>
              <LatitudeDegrees>-33.53123526088893413543701171875</LatitudeDegrees>
              <LongitudeDegrees>-70.22637619636952877044677734375</LongitudeDegrees>
            </Position>
            <AltitudeMeters>1702</AltitudeMeters>
            <DistanceMeters>2594.3417223317</DistanceMeters>
          </Trackpoint>
          <Trackpoint>
            <Time>2019-08-04T15:14:13.000Z</Time>
            <Position>
              <LatitudeDegrees>-33.5312546230852603912353515625</LatitudeDegrees>
              <LongitudeDegrees>-70.22643503732979297637939453125</LongitudeDegrees>
            </Position>
            <AltitudeMeters>1703</AltitudeMeters>
            <DistanceMeters>2600.2111125585</DistanceMeters>
          </Trackpoint>
          <Trackpoint>
            <Time>2019-08-04T15:14:15.000Z</Time>
            <Position>
              <LatitudeDegrees>-33.5312636755406856536865234375</LatitudeDegrees>
              <LongitudeDegrees>-70.2264622785151004791259765625</LongitudeDegrees>
            </Position>
            <AltitudeMeters>1703.4000244140625</AltitudeMeters>
            <DistanceMeters>2602.9322635436</DistanceMeters>
          </Trackpoint>
          <Trackpoint>
            <Time>2019-08-04T15:14:18.000Z</Time>
            <Position>
              <LatitudeDegrees>-33.53128052316606044769287109375</LatitudeDegrees>
              <LongitudeDegrees>-70.2264974825084209442138671875</LongitudeDegrees>
            </Position>
            <AltitudeMeters>1703.800048828125</AltitudeMeters>
            <DistanceMeters>2606.6975284768</DistanceMeters>
          </Trackpoint>
          <Trackpoint>
            <Time>2019-08-04T15:14:20.000Z</Time>
            <Position>
              <LatitudeDegrees>-33.53128932416439056396484375</LatitudeDegrees>
              <LongitudeDegrees>-70.2265212871134281158447265625</LongitudeDegrees>
            </Position>
            <AltitudeMeters>1704.199951171875</AltitudeMeters>
            <DistanceMeters>2609.1127778185</DistanceMeters>
          </Trackpoint>
          <Trackpoint>
            <Time>2019-08-04T15:14:31.000Z</Time>
            <Position>
              <LatitudeDegrees>-33.53133215568959712982177734375</LatitudeDegrees>
              <LongitudeDegrees>-70.22663301788270473480224609375</LongitudeDegrees>
            </Position>
            <AltitudeMeters>1704.800048828125</AltitudeMeters>
            <DistanceMeters>2620.5223168985</DistanceMeters>
          </Trackpoint>
          <Trackpoint>
            <Time>2019-08-04T15:14:36.000Z</Time>
            <Position>
              <LatitudeDegrees>-33.5313709639012813568115234375</LatitudeDegrees>
              <LongitudeDegrees>-70.22668900899589061737060546875</LongitudeDegrees>
            </Position>
            <AltitudeMeters>1705.199951171875</AltitudeMeters>
            <DistanceMeters>2627.2785759539</DistanceMeters>
          </Trackpoint>
          <Trackpoint>
            <Time>2019-08-04T15:14:40.000Z</Time>
            <Position>
              <LatitudeDegrees>-33.531410358846187591552734375</LatitudeDegrees>
              <LongitudeDegrees>-70.22672739811241626739501953125</LongitudeDegrees>
            </Position>
            <AltitudeMeters>1705.4000244140625</AltitudeMeters>
            <DistanceMeters>2632.9276723554</DistanceMeters>
          </Trackpoint>
          <Trackpoint>
            <Time>2019-08-04T15:14:44.000Z</Time>
            <Position>
              <LatitudeDegrees>-33.53143282234668731689453125</LatitudeDegrees>
              <LongitudeDegrees>-70.22675958462059497833251953125</LongitudeDegrees>
            </Position>
            <AltitudeMeters>1705.5999755859375</AltitudeMeters>
            <DistanceMeters>2636.82144923</DistanceMeters>
          </Trackpoint>
          <Trackpoint>
            <Time>2019-08-04T15:14:51.000Z</Time>
            <Position>
              <LatitudeDegrees>-33.5314624942839145660400390625</LatitudeDegrees>
              <LongitudeDegrees>-70.2268297411501407623291015625</LongitudeDegrees>
            </Position>
            <AltitudeMeters>1706.199951171875</AltitudeMeters>
            <DistanceMeters>2644.1205896602</DistanceMeters>
          </Trackpoint>
          <Trackpoint>
            <Time>2019-08-04T15:14:52.000Z</Time>
            <Position>
              <LatitudeDegrees>-33.53146727196872234344482421875</LatitudeDegrees>
              <LongitudeDegrees>-70.226843990385532379150390625</LongitudeDegrees>
            </Position>
            <AltitudeMeters>1706.4000244140625</AltitudeMeters>
            <DistanceMeters>2645.5491544211</DistanceMeters>
          </Trackpoint>
          <Trackpoint>
            <Time>2019-08-04T15:14:55.000Z</Time>
            <Position>
              <LatitudeDegrees>-33.5314718820154666900634765625</LatitudeDegrees>
              <LongitudeDegrees>-70.2268825471401214599609375</LongitudeDegrees>
            </Position>
            <AltitudeMeters>1706.5999755859375</AltitudeMeters>
            <DistanceMeters>2649.1626694049</DistanceMeters>
          </Trackpoint>
          <Trackpoint>
            <Time>2019-08-04T15:14:58.000Z</Time>
            <Position>
              <LatitudeDegrees>-33.5314789228141307830810546875</LatitudeDegrees>
              <LongitudeDegrees>-70.2269112132489681243896484375</LongitudeDegrees>
            </Position>
            <AltitudeMeters>1706.800048828125</AltitudeMeters>
            <DistanceMeters>2651.933150406</DistanceMeters>
          </Trackpoint>
          <Trackpoint>
            <Time>2019-08-04T15:15:09.000Z</Time>
            <Position>
              <LatitudeDegrees>-33.5315389372408390045166015625</LatitudeDegrees>
              <LongitudeDegrees>-70.2269655279815196990966796875</LongitudeDegrees>
            </Position>
            <AltitudeMeters>1707.4000244140625</AltitudeMeters>
            <DistanceMeters>2660.3003591801</DistanceMeters>
          </Trackpoint>
          <Trackpoint>
            <Time>2019-08-04T15:15:10.000Z</Time>
            <Position>
              <LatitudeDegrees>-33.53154757060110569000244140625</LatitudeDegrees>
              <LongitudeDegrees>-70.2269708923995494842529296875</LongitudeDegrees>
            </Position>
            <AltitudeMeters>1707.4000244140625</AltitudeMeters>
            <DistanceMeters>2661.3838304247</DistanceMeters>
          </Trackpoint>
          <Trackpoint>
            <Time>2019-08-04T15:15:11.000Z</Time>
            <Position>
              <LatitudeDegrees>-33.53155477903783321380615234375</LatitudeDegrees>
              <LongitudeDegrees>-70.2269769273698329925537109375</LongitudeDegrees>
            </Position>
            <AltitudeMeters>1707.5999755859375</AltitudeMeters>
            <DistanceMeters>2662.3621903293</DistanceMeters>
          </Trackpoint>
          <Trackpoint>
            <Time>2019-08-04T15:15:21.000Z</Time>
            <Position>
              <LatitudeDegrees>-33.531625606119632720947265625</LatitudeDegrees>
              <LongitudeDegrees>-70.22707164287567138671875</LongitudeDegrees>
            </Position>
            <AltitudeMeters>1708.4000244140625</AltitudeMeters>
            <DistanceMeters>2674.1677059824</DistanceMeters>
          </Trackpoint>
          <Trackpoint>
            <Time>2019-08-04T15:15:23.000Z</Time>
            <Position>
              <LatitudeDegrees>-33.53164211846888065338134765625</LatitudeDegrees>
              <LongitudeDegrees>-70.227085053920745849609375</LongitudeDegrees>
            </Position>
            <AltitudeMeters>1708.5999755859375</AltitudeMeters>
            <DistanceMeters>2676.3881612822</DistanceMeters>
          </Trackpoint>
          <Trackpoint>
            <Time>2019-08-04T15:15:31.000Z</Time>
            <Position>
              <LatitudeDegrees>-33.531697690486907958984375</LatitudeDegrees>
              <LongitudeDegrees>-70.22713677026331424713134765625</LongitudeDegrees>
            </Position>
            <AltitudeMeters>1709</AltitudeMeters>
            <DistanceMeters>2684.2161941609</DistanceMeters>
          </Trackpoint>
          <Trackpoint>
            <Time>2019-08-04T15:15:33.000Z</Time>
            <Position>
              <LatitudeDegrees>-33.53170665912330150604248046875</LatitudeDegrees>
              <LongitudeDegrees>-70.22714783437550067901611328125</LongitudeDegrees>
            </Position>
            <AltitudeMeters>1709.4000244140625</AltitudeMeters>
            <DistanceMeters>2685.6479159749</DistanceMeters>
          </Trackpoint>
          <Trackpoint>
            <Time>2019-08-04T15:15:37.000Z</Time>
            <Position>
              <LatitudeDegrees>-33.53172878734767436981201171875</LatitudeDegrees>
              <LongitudeDegrees>-70.22717800922691822052001953125</LongitudeDegrees>
            </Position>
            <AltitudeMeters>1710</AltitudeMeters>
            <DistanceMeters>2689.3770335278</DistanceMeters>
          </Trackpoint>
          <Trackpoint>
            <Time>2019-08-04T15:15:40.000Z</Time>
            <Position>
              <LatitudeDegrees>-33.53174990974366664886474609375</LatitudeDegrees>
              <LongitudeDegrees>-70.22720918990671634674072265625</LongitudeDegrees>
            </Position>
            <AltitudeMeters>1710.4000244140625</AltitudeMeters>
            <DistanceMeters>2693.1049401317</DistanceMeters>
          </Trackpoint>
          <Trackpoint>
            <Time>2019-08-04T15:15:52.000Z</Time>
            <Position>
              <LatitudeDegrees>-33.53181696496903896331787109375</LatitudeDegrees>
              <LongitudeDegrees>-70.227294266223907470703125</LongitudeDegrees>
            </Position>
            <AltitudeMeters>1711.4000244140625</AltitudeMeters>
            <DistanceMeters>2703.9679525578</DistanceMeters>
          </Trackpoint>
          <Trackpoint>
            <Time>2019-08-04T15:15:53.000Z</Time>
            <Position>
              <LatitudeDegrees>-33.5318197309970855712890625</LatitudeDegrees>
              <LongitudeDegrees>-70.22729803808033466339111328125</LongitudeDegrees>
            </Position>
            <AltitudeMeters>1711.5999755859375</AltitudeMeters>
            <DistanceMeters>2704.4334864821</DistanceMeters>
          </Trackpoint>
          <Trackpoint>
            <Time>2019-08-04T15:16:05.000Z</Time>
            <Position>
              <LatitudeDegrees>-33.531839847564697265625</LatitudeDegrees>
              <LongitudeDegrees>-70.2273688651621341705322265625</LongitudeDegrees>
            </Position>
            <AltitudeMeters>1712.5999755859375</AltitudeMeters>
            <DistanceMeters>2711.3762919711</DistanceMeters>
          </Trackpoint>
          <Trackpoint>
            <Time>2019-08-04T15:16:14.000Z</Time>
            <Position>
              <LatitudeDegrees>-33.531886450946331024169921875</LatitudeDegrees>
              <LongitudeDegrees>-70.22741018794476985931396484375</LongitudeDegrees>
            </Position>
            <AltitudeMeters>1713.5999755859375</AltitudeMeters>
            <DistanceMeters>2717.8262192712</DistanceMeters>
          </Trackpoint>
          <Trackpoint>
            <Time>2019-08-04T15:16:18.000Z</Time>
            <Position>
              <LatitudeDegrees>-33.53191620670258998870849609375</LatitudeDegrees>
              <LongitudeDegrees>-70.22743281908333301544189453125</LongitudeDegrees>
            </Position>
            <AltitudeMeters>1714.199951171875</AltitudeMeters>
            <DistanceMeters>2721.7465751362</DistanceMeters>
          </Trackpoint>
          <Trackpoint>
            <Time>2019-08-04T15:16:22.000Z</Time>
            <Position>
              <LatitudeDegrees>-33.53193984366953372955322265625</LatitudeDegrees>
              <LongitudeDegrees>-70.22745578549802303314208984375</LongitudeDegrees>
            </Position>
            <AltitudeMeters>1714.800048828125</AltitudeMeters>
            <DistanceMeters>2725.1330477972</DistanceMeters>
          </Trackpoint>
          <Trackpoint>
            <Time>2019-08-04T15:16:26.000Z</Time>
            <Position>
              <LatitudeDegrees>-33.5319523327052593231201171875</LatitudeDegrees>
              <LongitudeDegrees>-70.22747464478015899658203125</LongitudeDegrees>
            </Position>
            <AltitudeMeters>1716</AltitudeMeters>
            <DistanceMeters>2727.3656700664</DistanceMeters>
          </Trackpoint>
          <Trackpoint>
            <Time>2019-08-04T15:16:28.000Z</Time>
            <Position>
              <LatitudeDegrees>-33.5319563560187816619873046875</LatitudeDegrees>
              <LongitudeDegrees>-70.2274925820529460906982421875</LongitudeDegrees>
            </Position>
            <AltitudeMeters>1716.4000244140625</AltitudeMeters>
            <DistanceMeters>2729.0866770605</DistanceMeters>
          </Trackpoint>
          <Trackpoint>
            <Time>2019-08-04T15:16:32.000Z</Time>
            <Position>
              <LatitudeDegrees>-33.5319633968174457550048828125</LatitudeDegrees>
              <LongitudeDegrees>-70.22753759287297725677490234375</LongitudeDegrees>
            </Position>
            <AltitudeMeters>1717.199951171875</AltitudeMeters>
            <DistanceMeters>2733.3364009207</DistanceMeters>
          </Trackpoint>
          <Trackpoint>
            <Time>2019-08-04T15:16:34.000Z</Time>
            <Position>
              <LatitudeDegrees>-33.53196582756936550140380859375</LatitudeDegrees>
              <LongitudeDegrees>-70.2275646664202213287353515625</LongitudeDegrees>
            </Position>
            <AltitudeMeters>1717.4000244140625</AltitudeMeters>
            <DistanceMeters>2735.864897336</DistanceMeters>
          </Trackpoint>
          <Trackpoint>
            <Time>2019-08-04T15:16:36.000Z</Time>
            <Position>
              <LatitudeDegrees>-33.53197605349123477935791015625</LatitudeDegrees>
              <LongitudeDegrees>-70.22759123705327510833740234375</LongitudeDegrees>
            </Position>
            <AltitudeMeters>1717.5999755859375</AltitudeMeters>
            <DistanceMeters>2738.5794032539</DistanceMeters>
          </Trackpoint>
          <Trackpoint>
            <Time>2019-08-04T15:16:38.000Z</Time>
            <Position>
              <LatitudeDegrees>-33.531978987157344818115234375</LatitudeDegrees>
              <LongitudeDegrees>-70.227609761059284210205078125</LongitudeDegrees>
            </Position>
            <AltitudeMeters>1717.5999755859375</AltitudeMeters>
            <DistanceMeters>2740.3264481411</DistanceMeters>
          </Trackpoint>
          <Trackpoint>
            <Time>2019-08-04T15:16:39.000Z</Time>
            <Position>
              <LatitudeDegrees>-33.5319815017282962799072265625</LatitudeDegrees>
              <LongitudeDegrees>-70.22762007080018520355224609375</LongitudeDegrees>
            </Position>
            <AltitudeMeters>1717.5999755859375</AltitudeMeters>
            <DistanceMeters>2741.3230967296</DistanceMeters>
          </Trackpoint>
          <Trackpoint>
            <Time>2019-08-04T15:16:50.000Z</Time>
            <Position>
              <LatitudeDegrees>-33.53202081285417079925537109375</LatitudeDegrees>
              <LongitudeDegrees>-70.227721743285655975341796875</LongitudeDegrees>
            </Position>
            <AltitudeMeters>1718</AltitudeMeters>
            <DistanceMeters>2751.7219026906</DistanceMeters>
          </Trackpoint>
          <Trackpoint>
            <Time>2019-08-04T15:16:53.000Z</Time>
            <Position>
              <LatitudeDegrees>-33.532035984098911285400390625</LatitudeDegrees>
              <LongitudeDegrees>-70.22773859091103076934814453125</LongitudeDegrees>
            </Position>
            <AltitudeMeters>1718</AltitudeMeters>
            <DistanceMeters>2754.0222558801</DistanceMeters>
          </Trackpoint>
          <Trackpoint>
            <Time>2019-08-04T15:16:56.000Z</Time>
            <Position>
              <LatitudeDegrees>-33.53206641040742397308349609375</LatitudeDegrees>
              <LongitudeDegrees>-70.2277641557157039642333984375</LongitudeDegrees>
            </Position>
            <AltitudeMeters>1718.199951171875</AltitudeMeters>
            <DistanceMeters>2758.1556448809</DistanceMeters>
          </Trackpoint>
          <Trackpoint>
            <Time>2019-08-04T15:17:03.000Z</Time>
            <Position>
              <LatitudeDegrees>-33.53212608955800533294677734375</LatitudeDegrees>
              <LongitudeDegrees>-70.2278266847133636474609375</LongitudeDegrees>
            </Position>
            <AltitudeMeters>1719.199951171875</AltitudeMeters>
            <DistanceMeters>2766.9747178714</DistanceMeters>
          </Trackpoint>
          <Trackpoint>
            <Time>2019-08-04T15:17:04.000Z</Time>
            <Position>
              <LatitudeDegrees>-33.532133884727954864501953125</LatitudeDegrees>
              <LongitudeDegrees>-70.2278332225978374481201171875</LongitudeDegrees>
            </Position>
            <AltitudeMeters>1719.4000244140625</AltitudeMeters>
            <DistanceMeters>2768.032890579</DistanceMeters>
          </Trackpoint>
          <Trackpoint>
            <Time>2019-08-04T15:17:15.000Z</Time>
            <Position>
              <LatitudeDegrees>-33.5322247445583343505859375</LatitudeDegrees>
              <LongitudeDegrees>-70.227955095469951629638671875</LongitudeDegrees>
            </Position>
            <AltitudeMeters>1720</AltitudeMeters>
            <DistanceMeters>2783.2023809469</DistanceMeters>
          </Trackpoint>
          <Trackpoint>
            <Time>2019-08-04T15:17:17.000Z</Time>
            <Position>
              <LatitudeDegrees>-33.53223740123212337493896484375</LatitudeDegrees>
              <LongitudeDegrees>-70.22798049263656139373779296875</LongitudeDegrees>
            </Position>
            <AltitudeMeters>1720.5999755859375</AltitudeMeters>
            <DistanceMeters>2785.9483077177</DistanceMeters>
          </Trackpoint>
          <Trackpoint>
            <Time>2019-08-04T15:17:22.000Z</Time>
            <Position>
              <LatitudeDegrees>-33.53225567378103733062744140625</LatitudeDegrees>
              <LongitudeDegrees>-70.22804151289165019989013671875</LongitudeDegrees>
            </Position>
            <AltitudeMeters>1721.5999755859375</AltitudeMeters>
            <DistanceMeters>2791.9628306609</DistanceMeters>
          </Trackpoint>
          <Trackpoint>
            <Time>2019-08-04T15:17:27.000Z</Time>
            <Position>
              <LatitudeDegrees>-33.53227579034864902496337890625</LatitudeDegrees>
              <LongitudeDegrees>-70.228103287518024444580078125</LongitudeDegrees>
            </Position>
            <AltitudeMeters>1722.199951171875</AltitudeMeters>
            <DistanceMeters>2798.1161314442</DistanceMeters>
          </Trackpoint>
          <Trackpoint>
            <Time>2019-08-04T15:17:33.000Z</Time>
            <Position>
              <LatitudeDegrees>-33.53227914310991764068603515625</LatitudeDegrees>
              <LongitudeDegrees>-70.2281644754111766815185546875</LongitudeDegrees>
            </Position>
            <AltitudeMeters>1722.800048828125</AltitudeMeters>
            <DistanceMeters>2803.8050499684</DistanceMeters>
          </Trackpoint>
          <Trackpoint>
            <Time>2019-08-04T15:17:39.000Z</Time>
            <Position>
              <LatitudeDegrees>-33.53229540400207042694091796875</LatitudeDegrees>
              <LongitudeDegrees>-70.22820797748863697052001953125</LongitudeDegrees>
            </Position>
            <AltitudeMeters>1723.800048828125</AltitudeMeters>
            <DistanceMeters>2808.227622249</DistanceMeters>
          </Trackpoint>
          <Trackpoint>
            <Time>2019-08-04T15:17:40.000Z</Time>
            <Position>
              <LatitudeDegrees>-33.53229993022978305816650390625</LatitudeDegrees>
              <LongitudeDegrees>-70.2282129228115081787109375</LongitudeDegrees>
            </Position>
            <AltitudeMeters>1723.800048828125</AltitudeMeters>
            <DistanceMeters>2808.9128696314</DistanceMeters>
          </Trackpoint>
          <Trackpoint>
            <Time>2019-08-04T15:17:48.000Z</Time>
            <Position>
              <LatitudeDegrees>-33.53236648254096508026123046875</LatitudeDegrees>
              <LongitudeDegrees>-70.22821367718279361724853515625</LongitudeDegrees>
            </Position>
            <AltitudeMeters>1725</AltitudeMeters>
            <DistanceMeters>2816.3212975771</DistanceMeters>
          </Trackpoint>
          <Trackpoint>
            <Time>2019-08-04T15:17:50.000Z</Time>
            <Position>
              <LatitudeDegrees>-33.53238291107118129730224609375</LatitudeDegrees>
              <LongitudeDegrees>-70.22820730693638324737548828125</LongitudeDegrees>
            </Position>
            <AltitudeMeters>1725.199951171875</AltitudeMeters>
            <DistanceMeters>2818.2454418914</DistanceMeters>
          </Trackpoint>
          <Trackpoint>
            <Time>2019-08-04T15:17:55.000Z</Time>
            <Position>
              <LatitudeDegrees>-33.53242121636867523193359375</LatitudeDegrees>
              <LongitudeDegrees>-70.22820822894573211669921875</LongitudeDegrees>
            </Position>
            <AltitudeMeters>1726</AltitudeMeters>
            <DistanceMeters>2822.5100138462</DistanceMeters>
          </Trackpoint>
          <Trackpoint>
            <Time>2019-08-04T15:18:00.000Z</Time>
            <Position>
              <LatitudeDegrees>-33.53244669735431671142578125</LatitudeDegrees>
              <LongitudeDegrees>-70.2282392419874668121337890625</LongitudeDegrees>
            </Position>
            <AltitudeMeters>1726.800048828125</AltitudeMeters>
            <DistanceMeters>2826.5483697069</DistanceMeters>
          </Trackpoint>
          <Trackpoint>
            <Time>2019-08-04T15:18:02.000Z</Time>
            <Position>
              <LatitudeDegrees>-33.5324539057910442352294921875</LatitudeDegrees>
              <LongitudeDegrees>-70.2282516472041606903076171875</LongitudeDegrees>
            </Position>
            <AltitudeMeters>1727.199951171875</AltitudeMeters>
            <DistanceMeters>2827.9514223306</DistanceMeters>
          </Trackpoint>
          <Trackpoint>
            <Time>2019-08-04T15:18:10.000Z</Time>
            <Position>
              <LatitudeDegrees>-33.53247125633060932159423828125</LatitudeDegrees>
              <LongitudeDegrees>-70.22830973379313945770263671875</LongitudeDegrees>
            </Position>
            <AltitudeMeters>1728.199951171875</AltitudeMeters>
            <DistanceMeters>2833.6751551457</DistanceMeters>
          </Trackpoint>
          <Trackpoint>
            <Time>2019-08-04T15:18:12.000Z</Time>
            <Position>
              <LatitudeDegrees>-33.53246555663645267486572265625</LatitudeDegrees>
              <LongitudeDegrees>-70.22830889560282230377197265625</LongitudeDegrees>
            </Position>
            <AltitudeMeters>1728.800048828125</AltitudeMeters>
            <DistanceMeters>2834.3196576798</DistanceMeters>
          </Trackpoint>
          <Trackpoint>
            <Time>2019-08-04T15:18:17.000Z</Time>
            <Position>
              <LatitudeDegrees>-33.5324599407613277435302734375</LatitudeDegrees>
              <LongitudeDegrees>-70.22830621339380741119384765625</LongitudeDegrees>
            </Position>
            <AltitudeMeters>1729.4000244140625</AltitudeMeters>
            <DistanceMeters>2834.991598021</DistanceMeters>
          </Trackpoint>
          <Trackpoint>
            <Time>2019-08-04T15:18:23.000Z</Time>
            <Position>
              <LatitudeDegrees>-33.53246371261775493621826171875</LatitudeDegrees>
              <LongitudeDegrees>-70.2283012680709362030029296875</LongitudeDegrees>
            </Position>
            <AltitudeMeters>1729.5999755859375</AltitudeMeters>
            <DistanceMeters>2835.6219339343</DistanceMeters>
          </Trackpoint>
          <Trackpoint>
            <Time>2019-08-04T15:18:26.000Z</Time>
            <Position>
              <LatitudeDegrees>-33.5324646346271038055419921875</LatitudeDegrees>
              <LongitudeDegrees>-70.22830034606158733367919921875</LongitudeDegrees>
            </Position>
            <AltitudeMeters>1729.800048828125</AltitudeMeters>
            <DistanceMeters>2835.811987363</DistanceMeters>
          </Trackpoint>
          <Trackpoint>
            <Time>2019-08-04T15:18:27.000Z</Time>
            <Position>
              <LatitudeDegrees>-33.5324646346271038055419921875</LatitudeDegrees>
              <LongitudeDegrees>-70.228300429880619049072265625</LongitudeDegrees>
            </Position>
            <AltitudeMeters>1729.800048828125</AltitudeMeters>
            <DistanceMeters>2835.811987363</DistanceMeters>
          </Trackpoint>
          <Trackpoint>
            <Time>2019-08-04T15:18:30.000Z</Time>
            <Position>
              <LatitudeDegrees>-33.5324673168361186981201171875</LatitudeDegrees>
              <LongitudeDegrees>-70.22830302827060222625732421875</LongitudeDegrees>
            </Position>
            <AltitudeMeters>1729.800048828125</AltitudeMeters>
            <DistanceMeters>2836.1920942205</DistanceMeters>
          </Trackpoint>
          <Trackpoint>
            <Time>2019-08-04T15:18:34.000Z</Time>
            <Position>
              <LatitudeDegrees>-33.53247041814029216766357421875</LatitudeDegrees>
              <LongitudeDegrees>-70.22830369882285594940185546875</LongitudeDegrees>
            </Position>
            <AltitudeMeters>1729.800048828125</AltitudeMeters>
            <DistanceMeters>2836.5476516282</DistanceMeters>
          </Trackpoint>
          <Trackpoint>
            <Time>2019-08-04T15:18:37.000Z</Time>
            <Position>
              <LatitudeDegrees>-33.5324703343212604522705078125</LatitudeDegrees>
              <LongitudeDegrees>-70.22830286063253879547119140625</LongitudeDegrees>
            </Position>
            <AltitudeMeters>1730</AltitudeMeters>
            <DistanceMeters>2836.6426783426</DistanceMeters>
          </Trackpoint>
          <Trackpoint>
            <Time>2019-08-04T15:18:43.000Z</Time>
            <Position>
              <LatitudeDegrees>-33.5324696637690067291259765625</LatitudeDegrees>
              <LongitudeDegrees>-70.22830881178379058837890625</LongitudeDegrees>
            </Position>
            <AltitudeMeters>1730</AltitudeMeters>
            <DistanceMeters>2837.1967745428</DistanceMeters>
          </Trackpoint>
          <Trackpoint>
            <Time>2019-08-04T15:18:46.000Z</Time>
            <Position>
              <LatitudeDegrees>-33.5324676521122455596923828125</LatitudeDegrees>
              <LongitudeDegrees>-70.2283113263547420501708984375</LongitudeDegrees>
            </Position>
            <AltitudeMeters>1730</AltitudeMeters>
            <DistanceMeters>2837.5259567376</DistanceMeters>
          </Trackpoint>
          <Trackpoint>
            <Time>2019-08-04T15:18:47.000Z</Time>
            <Position>
              <LatitudeDegrees>-33.53246807120740413665771484375</LatitudeDegrees>
              <LongitudeDegrees>-70.22831325419247150421142578125</LongitudeDegrees>
            </Position>
            <AltitudeMeters>1730.199951171875</AltitudeMeters>
            <DistanceMeters>2837.7160101663</DistanceMeters>
          </Trackpoint>
          <Trackpoint>
            <Time>2019-08-04T15:18:49.000Z</Time>
            <Position>
              <LatitudeDegrees>-33.5324699990451335906982421875</LatitudeDegrees>
              <LongitudeDegrees>-70.2283163554966449737548828125</LongitudeDegrees>
            </Position>
            <AltitudeMeters>1730.199951171875</AltitudeMeters>
            <DistanceMeters>2838.0715675741</DistanceMeters>
          </Trackpoint>
          <Trackpoint>
            <Time>2019-08-04T15:18:56.000Z</Time>
            <Position>
              <LatitudeDegrees>-33.5324746929109096527099609375</LatitudeDegrees>
              <LongitudeDegrees>-70.22832130081951618194580078125</LongitudeDegrees>
            </Position>
            <AltitudeMeters>1729.800048828125</AltitudeMeters>
            <DistanceMeters>2838.7763045494</DistanceMeters>
          </Trackpoint>
          <Trackpoint>
            <Time>2019-08-04T15:18:59.000Z</Time>
            <Position>
              <LatitudeDegrees>-33.53247913531959056854248046875</LatitudeDegrees>
              <LongitudeDegrees>-70.22832046262919902801513671875</LongitudeDegrees>
            </Position>
            <AltitudeMeters>1729.800048828125</AltitudeMeters>
            <DistanceMeters>2839.2791386577</DistanceMeters>
          </Trackpoint>
          <Trackpoint>
            <Time>2019-08-04T15:19:08.000Z</Time>
            <Position>
              <LatitudeDegrees>-33.53248248808085918426513671875</LatitudeDegrees>
              <LongitudeDegrees>-70.22831878624856472015380859375</LongitudeDegrees>
            </Position>
            <AltitudeMeters>1729.5999755859375</AltitudeMeters>
            <DistanceMeters>2839.6933505025</DistanceMeters>
          </Trackpoint>
          <Trackpoint>
            <Time>2019-08-04T15:19:10.000Z</Time>
            <Position>
              <LatitudeDegrees>-33.53248148225247859954833984375</LatitudeDegrees>
              <LongitudeDegrees>-70.22831811569631099700927734375</LongitudeDegrees>
            </Position>
            <AltitudeMeters>1729.5999755859375</AltitudeMeters>
            <DistanceMeters>2839.8579415999</DistanceMeters>
          </Trackpoint>
          <Trackpoint>
            <Time>2019-08-04T15:19:11.000Z</Time>
            <Position>
              <LatitudeDegrees>-33.53248047642409801483154296875</LatitudeDegrees>
              <LongitudeDegrees>-70.22831878624856472015380859375</LongitudeDegrees>
            </Position>
            <AltitudeMeters>1729.5999755859375</AltitudeMeters>
            <DistanceMeters>2839.9923296682</DistanceMeters>
          </Trackpoint>
          <Trackpoint>
            <Time>2019-08-04T15:19:17.000Z</Time>
            <Position>
              <LatitudeDegrees>-33.53247846476733684539794921875</LatitudeDegrees>
              <LongitudeDegrees>-70.22831819951534271240234375</LongitudeDegrees>
            </Position>
            <AltitudeMeters>1729.800048828125</AltitudeMeters>
            <DistanceMeters>2840.2250966303</DistanceMeters>
          </Trackpoint>
          <Trackpoint>
            <Time>2019-08-04T15:19:21.000Z</Time>
            <Position>
              <LatitudeDegrees>-33.53247754275798797607421875</LatitudeDegrees>
              <LongitudeDegrees>-70.2283202111721038818359375</LongitudeDegrees>
            </Position>
            <AltitudeMeters>1729.800048828125</AltitudeMeters>
            <DistanceMeters>2840.4578635924</DistanceMeters>
          </Trackpoint>
          <Trackpoint>
            <Time>2019-08-04T15:19:22.000Z</Time>
            <Position>
              <LatitudeDegrees>-33.53247444145381450653076171875</LatitudeDegrees>
              <LongitudeDegrees>-70.22832029499113559722900390625</LongitudeDegrees>
            </Position>
            <AltitudeMeters>1729.800048828125</AltitudeMeters>
            <DistanceMeters>2840.8134210002</DistanceMeters>
          </Trackpoint>
          <Trackpoint>
            <Time>2019-08-04T15:19:24.000Z</Time>
            <Position>
              <LatitudeDegrees>-33.53247217833995819091796875</LatitudeDegrees>
              <LongitudeDegrees>-70.22832130081951618194580078125</LongitudeDegrees>
            </Position>
            <AltitudeMeters>1729.800048828125</AltitudeMeters>
            <DistanceMeters>2841.0821971367</DistanceMeters>
          </Trackpoint>
          <Trackpoint>
            <Time>2019-08-04T15:19:31.000Z</Time>
            <Position>
              <LatitudeDegrees>-33.53246103040874004364013671875</LatitudeDegrees>
              <LongitudeDegrees>-70.22832850925624370574951171875</LongitudeDegrees>
            </Position>
            <AltitudeMeters>1730</AltitudeMeters>
            <DistanceMeters>2842.4916710874</DistanceMeters>
          </Trackpoint>
          <Trackpoint>
            <Time>2019-08-04T15:19:33.000Z</Time>
            <Position>
              <LatitudeDegrees>-33.53246413171291351318359375</LatitudeDegrees>
              <LongitudeDegrees>-70.228329934179782867431640625</LongitudeDegrees>
            </Position>
            <AltitudeMeters>1730.199951171875</AltitudeMeters>
            <DistanceMeters>2842.8597079696</DistanceMeters>
          </Trackpoint>
          <Trackpoint>
            <Time>2019-08-04T15:19:45.000Z</Time>
            <Position>
              <LatitudeDegrees>-33.53248424828052520751953125</LatitudeDegrees>
              <LongitudeDegrees>-70.22832348011434078216552734375</LongitudeDegrees>
            </Position>
            <AltitudeMeters>1730</AltitudeMeters>
            <DistanceMeters>2845.1796057175</DistanceMeters>
          </Trackpoint>
          <Trackpoint>
            <Time>2019-08-04T15:19:50.000Z</Time>
            <Position>
              <LatitudeDegrees>-33.5324874334037303924560546875</LatitudeDegrees>
              <LongitudeDegrees>-70.2283193729817867279052734375</LongitudeDegrees>
            </Position>
            <AltitudeMeters>1730</AltitudeMeters>
            <DistanceMeters>2845.7000884677</DistanceMeters>
          </Trackpoint>
          <Trackpoint>
            <Time>2019-08-04T15:20:08.000Z</Time>
            <Position>
              <LatitudeDegrees>-33.53249355219304561614990234375</LatitudeDegrees>
              <LongitudeDegrees>-70.22831962443888187408447265625</LongitudeDegrees>
            </Position>
            <AltitudeMeters>1730</AltitudeMeters>
            <DistanceMeters>2846.3787149472</DistanceMeters>
          </Trackpoint>
          <Trackpoint>
            <Time>2019-08-04T15:20:24.000Z</Time>
            <Position>
              <LatitudeDegrees>-33.53248693048954010009765625</LatitudeDegrees>
              <LongitudeDegrees>-70.22832901217043399810791015625</LongitudeDegrees>
            </Position>
            <AltitudeMeters>1730</AltitudeMeters>
            <DistanceMeters>2847.5229881158</DistanceMeters>
          </Trackpoint>
          <Trackpoint>
            <Time>2019-08-04T15:20:41.000Z</Time>
            <Position>
              <LatitudeDegrees>-33.5324876010417938232421875</LatitudeDegrees>
              <LongitudeDegrees>-70.2283254079520702362060546875</LongitudeDegrees>
            </Position>
            <AltitudeMeters>1730</AltitudeMeters>
            <DistanceMeters>2847.8785455236</DistanceMeters>
          </Trackpoint>
          <Trackpoint>
            <Time>2019-08-04T15:20:47.000Z</Time>
            <Position>
              <LatitudeDegrees>-33.532486259937286376953125</LatitudeDegrees>
              <LongitudeDegrees>-70.228325240314006805419921875</LongitudeDegrees>
            </Position>
            <AltitudeMeters>1730</AltitudeMeters>
            <DistanceMeters>2848.0431366209</DistanceMeters>
          </Trackpoint>
          <Trackpoint>
            <Time>2019-08-04T15:20:49.000Z</Time>
            <Position>
              <LatitudeDegrees>-33.53248827159404754638671875</LatitudeDegrees>
              <LongitudeDegrees>-70.22832498885691165924072265625</LongitudeDegrees>
            </Position>
            <AltitudeMeters>1730</AltitudeMeters>
            <DistanceMeters>2848.2759035831</DistanceMeters>
          </Trackpoint>
          <Trackpoint>
            <Time>2019-08-04T15:20:52.000Z</Time>
            <Position>
              <LatitudeDegrees>-33.5324901156127452850341796875</LatitudeDegrees>
              <LongitudeDegrees>-70.22832498885691165924072265625</LongitudeDegrees>
            </Position>
            <AltitudeMeters>1730</AltitudeMeters>
            <DistanceMeters>2848.4883897761</DistanceMeters>
          </Trackpoint>
          <Trackpoint>
            <Time>2019-08-04T15:20:55.000Z</Time>
            <Position>
              <LatitudeDegrees>-33.53249187581241130828857421875</LatitudeDegrees>
              <LongitudeDegrees>-70.2283233962953090667724609375</LongitudeDegrees>
            </Position>
            <AltitudeMeters>1730</AltitudeMeters>
            <DistanceMeters>2848.7398068302</DistanceMeters>
          </Trackpoint>
          <Trackpoint>
            <Time>2019-08-04T15:20:58.000Z</Time>
            <Position>
              <LatitudeDegrees>-33.5324948094785213470458984375</LatitudeDegrees>
              <LongitudeDegrees>-70.2283228933811187744140625</LongitudeDegrees>
            </Position>
            <AltitudeMeters>1730</AltitudeMeters>
            <DistanceMeters>2849.0689890249</DistanceMeters>
          </Trackpoint>
          <Trackpoint>
            <Time>2019-08-04T15:21:02.000Z</Time>
            <Position>
              <LatitudeDegrees>-33.53249522857367992401123046875</LatitudeDegrees>
              <LongitudeDegrees>-70.2283202111721038818359375</LongitudeDegrees>
            </Position>
            <AltitudeMeters>1730</AltitudeMeters>
            <DistanceMeters>2849.3377651614</DistanceMeters>
          </Trackpoint>
          <Trackpoint>
            <Time>2019-08-04T15:21:13.000Z</Time>
            <Position>
              <LatitudeDegrees>-33.53250126354396343231201171875</LatitudeDegrees>
              <LongitudeDegrees>-70.22830545902252197265625</LongitudeDegrees>
            </Position>
            <AltitudeMeters>1730</AltitudeMeters>
            <DistanceMeters>2850.8641202062</DistanceMeters>
          </Trackpoint>
          <Trackpoint>
            <Time>2019-08-04T15:21:15.000Z</Time>
            <Position>
              <LatitudeDegrees>-33.53250344283878803253173828125</LatitudeDegrees>
              <LongitudeDegrees>-70.2283073030412197113037109375</LongitudeDegrees>
            </Position>
            <AltitudeMeters>1730</AltitudeMeters>
            <DistanceMeters>2851.1646210621</DistanceMeters>
          </Trackpoint>
          <Trackpoint>
            <Time>2019-08-04T15:21:32.000Z</Time>
            <Position>
              <LatitudeDegrees>-33.53250293992459774017333984375</LatitudeDegrees>
              <LongitudeDegrees>-70.2283103205263614654541015625</LongitudeDegrees>
            </Position>
            <AltitudeMeters>1730</AltitudeMeters>
            <DistanceMeters>2851.4333971986</DistanceMeters>
          </Trackpoint>
          <Trackpoint>
            <Time>2019-08-04T15:21:35.000Z</Time>
            <Position>
              <LatitudeDegrees>-33.53250277228653430938720703125</LatitudeDegrees>
              <LongitudeDegrees>-70.22830788977444171905517578125</LongitudeDegrees>
            </Position>
            <AltitudeMeters>1730</AltitudeMeters>
            <DistanceMeters>2851.6661641608</DistanceMeters>
          </Trackpoint>
          <Trackpoint>
            <Time>2019-08-04T15:21:36.000Z</Time>
            <Position>
              <LatitudeDegrees>-33.5325018502771854400634765625</LatitudeDegrees>
              <LongitudeDegrees>-70.22830671630799770355224609375</LongitudeDegrees>
            </Position>
            <AltitudeMeters>1730</AltitudeMeters>
            <DistanceMeters>2851.800552229</DistanceMeters>
          </Trackpoint>
          <Trackpoint>
            <Time>2019-08-04T15:21:38.000Z</Time>
            <Position>
              <LatitudeDegrees>-33.53250059299170970916748046875</LatitudeDegrees>
              <LongitudeDegrees>-70.22830604575574398040771484375</LongitudeDegrees>
            </Position>
            <AltitudeMeters>1730</AltitudeMeters>
            <DistanceMeters>2851.9349402973</DistanceMeters>
          </Trackpoint>
          <Trackpoint>
            <Time>2019-08-04T15:21:39.000Z</Time>
            <Position>
              <LatitudeDegrees>-33.53249765932559967041015625</LatitudeDegrees>
              <LongitudeDegrees>-70.22830872796475887298583984375</LongitudeDegrees>
            </Position>
            <AltitudeMeters>1730</AltitudeMeters>
            <DistanceMeters>2852.3491521421</DistanceMeters>
          </Trackpoint>
          <Trackpoint>
            <Time>2019-08-04T15:21:40.000Z</Time>
            <Position>
              <LatitudeDegrees>-33.532495982944965362548828125</LatitudeDegrees>
              <LongitudeDegrees>-70.22831040434539318084716796875</LongitudeDegrees>
            </Position>
            <AltitudeMeters>1730</AltitudeMeters>
            <DistanceMeters>2852.6179282786</DistanceMeters>
          </Trackpoint>
          <Trackpoint>
            <Time>2019-08-04T15:21:42.000Z</Time>
            <Position>
              <LatitudeDegrees>-33.5324911214411258697509765625</LatitudeDegrees>
              <LongitudeDegrees>-70.22831291891634464263916015625</LongitudeDegrees>
            </Position>
            <AltitudeMeters>1730</AltitudeMeters>
            <DistanceMeters>2853.2037122874</DistanceMeters>
          </Trackpoint>
          <Trackpoint>
            <Time>2019-08-04T15:21:45.000Z</Time>
            <Position>
              <LatitudeDegrees>-33.53249070234596729278564453125</LatitudeDegrees>
              <LongitudeDegrees>-70.22831677459180355072021484375</LongitudeDegrees>
            </Position>
            <AltitudeMeters>1730</AltitudeMeters>
            <DistanceMeters>2853.5592696951</DistanceMeters>
          </Trackpoint>
          <Trackpoint>
            <Time>2019-08-04T15:21:48.000Z</Time>
            <Position>
              <LatitudeDegrees>-33.5324907861649990081787109375</LatitudeDegrees>
              <LongitudeDegrees>-70.22831677459180355072021484375</LongitudeDegrees>
            </Position>
            <AltitudeMeters>1730</AltitudeMeters>
            <DistanceMeters>2853.5592696951</DistanceMeters>
          </Trackpoint>
          <Trackpoint>
            <Time>2019-08-04T15:21:49.000Z</Time>
            <Position>
              <LatitudeDegrees>-33.53249120526015758514404296875</LatitudeDegrees>
              <LongitudeDegrees>-70.2283163554966449737548828125</LongitudeDegrees>
            </Position>
            <AltitudeMeters>1730</AltitudeMeters>
            <DistanceMeters>2853.6542964095</DistanceMeters>
          </Trackpoint>
          <Trackpoint>
            <Time>2019-08-04T15:21:59.000Z</Time>
            <Position>
              <LatitudeDegrees>-33.53248902596533298492431640625</LatitudeDegrees>
              <LongitudeDegrees>-70.22831954061985015869140625</LongitudeDegrees>
            </Position>
            <AltitudeMeters>1730</AltitudeMeters>
            <DistanceMeters>2854.0461015901</DistanceMeters>
          </Trackpoint>
          <Trackpoint>
            <Time>2019-08-04T15:22:03.000Z</Time>
            <Position>
              <LatitudeDegrees>-33.53248424828052520751953125</LatitudeDegrees>
              <LongitudeDegrees>-70.22833052091300487518310546875</LongitudeDegrees>
            </Position>
            <AltitudeMeters>1730</AltitudeMeters>
            <DistanceMeters>2855.1943137485</DistanceMeters>
          </Trackpoint>
          <Trackpoint>
            <Time>2019-08-04T15:22:06.000Z</Time>
            <Position>
              <LatitudeDegrees>-33.53248416446149349212646484375</LatitudeDegrees>
              <LongitudeDegrees>-70.22833655588328838348388671875</LongitudeDegrees>
            </Position>
            <AltitudeMeters>1730</AltitudeMeters>
            <DistanceMeters>2855.7564993723</DistanceMeters>
          </Trackpoint>
          <Trackpoint>
            <Time>2019-08-04T15:22:17.000Z</Time>
            <Position>
              <LatitudeDegrees>-33.5324830748140811920166015625</LatitudeDegrees>
              <LongitudeDegrees>-70.22833135910332202911376953125</LongitudeDegrees>
            </Position>
            <AltitudeMeters>1730</AltitudeMeters>
            <DistanceMeters>2856.2593334805</DistanceMeters>
          </Trackpoint>
          <Trackpoint>
            <Time>2019-08-04T15:22:20.000Z</Time>
            <Position>
              <LatitudeDegrees>-33.5324822366237640380859375</LatitudeDegrees>
              <LongitudeDegrees>-70.22832917980849742889404296875</LongitudeDegrees>
            </Position>
            <AltitudeMeters>1730</AltitudeMeters>
            <DistanceMeters>2856.4921004427</DistanceMeters>
          </Trackpoint>
          <Trackpoint>
            <Time>2019-08-04T15:22:22.000Z</Time>
            <Position>
              <LatitudeDegrees>-33.5324763692915439605712890625</LatitudeDegrees>
              <LongitudeDegrees>-70.228327251970767974853515625</LongitudeDegrees>
            </Position>
            <AltitudeMeters>1730</AltitudeMeters>
            <DistanceMeters>2857.1640407839</DistanceMeters>
          </Trackpoint>
          <Trackpoint>
            <Time>2019-08-04T15:22:26.000Z</Time>
            <Position>
              <LatitudeDegrees>-33.532473854720592498779296875</LatitudeDegrees>
              <LongitudeDegrees>-70.2283274196088314056396484375</LongitudeDegrees>
            </Position>
            <AltitudeMeters>1730</AltitudeMeters>
            <DistanceMeters>2857.449120927</DistanceMeters>
          </Trackpoint>
          <Trackpoint>
            <Time>2019-08-04T15:22:32.000Z</Time>
            <Position>
              <LatitudeDegrees>-33.53247058577835559844970703125</LatitudeDegrees>
              <LongitudeDegrees>-70.22833756171166896820068359375</LongitudeDegrees>
            </Position>
            <AltitudeMeters>1730</AltitudeMeters>
            <DistanceMeters>2858.4547891436</DistanceMeters>
          </Trackpoint>
          <Trackpoint>
            <Time>2019-08-04T15:22:37.000Z</Time>
            <Position>
              <LatitudeDegrees>-33.5324666462838649749755859375</LatitudeDegrees>
              <LongitudeDegrees>-70.22833555005490779876708984375</LongitudeDegrees>
            </Position>
            <AltitudeMeters>1730</AltitudeMeters>
            <DistanceMeters>2858.9203230678</DistanceMeters>
          </Trackpoint>
          <Trackpoint>
            <Time>2019-08-04T15:22:38.000Z</Time>
            <Position>
              <LatitudeDegrees>-33.5324649699032306671142578125</LatitudeDegrees>
              <LongitudeDegrees>-70.2283317781984806060791015625</LongitudeDegrees>
            </Position>
            <AltitudeMeters>1730</AltitudeMeters>
            <DistanceMeters>2859.3234872726</DistanceMeters>
          </Trackpoint>
          <Trackpoint>
            <Time>2019-08-04T15:22:46.000Z</Time>
            <Position>
              <LatitudeDegrees>-33.53246455080807209014892578125</LatitudeDegrees>
              <LongitudeDegrees>-70.2283297665417194366455078125</LongitudeDegrees>
            </Position>
            <AltitudeMeters>1730</AltitudeMeters>
            <DistanceMeters>2859.5135407013</DistanceMeters>
          </Trackpoint>
          <Trackpoint>
            <Time>2019-08-04T15:22:54.000Z</Time>
            <Position>
              <LatitudeDegrees>-33.5324606113135814666748046875</LatitudeDegrees>
              <LongitudeDegrees>-70.2283307723701000213623046875</LongitudeDegrees>
            </Position>
            <AltitudeMeters>1730</AltitudeMeters>
            <DistanceMeters>2859.9592555</DistanceMeters>
          </Trackpoint>
          <Trackpoint>
            <Time>2019-08-04T15:22:58.000Z</Time>
            <Position>
              <LatitudeDegrees>-33.5324629582464694976806640625</LatitudeDegrees>
              <LongitudeDegrees>-70.228316523134708404541015625</LongitudeDegrees>
            </Position>
            <AltitudeMeters>1730</AltitudeMeters>
            <DistanceMeters>2861.3098388709</DistanceMeters>
          </Trackpoint>
          <Trackpoint>
            <Time>2019-08-04T15:23:03.000Z</Time>
            <Position>
              <LatitudeDegrees>-33.53245516307651996612548828125</LatitudeDegrees>
              <LongitudeDegrees>-70.2283187024295330047607421875</LongitudeDegrees>
            </Position>
            <AltitudeMeters>1730</AltitudeMeters>
            <DistanceMeters>2862.2063191013</DistanceMeters>
          </Trackpoint>
          <Trackpoint>
            <Time>2019-08-04T15:23:06.000Z</Time>
            <Position>
              <LatitudeDegrees>-33.53245214559137821197509765625</LatitudeDegrees>
              <LongitudeDegrees>-70.22832046262919902801513671875</LongitudeDegrees>
            </Position>
            <AltitudeMeters>1730</AltitudeMeters>
            <DistanceMeters>2862.5864259588</DistanceMeters>
          </Trackpoint>
          <Trackpoint>
            <Time>2019-08-04T15:23:17.000Z</Time>
            <Position>
              <LatitudeDegrees>-33.53245885111391544342041015625</LatitudeDegrees>
              <LongitudeDegrees>-70.22832331247627735137939453125</LongitudeDegrees>
            </Position>
            <AltitudeMeters>1730</AltitudeMeters>
            <DistanceMeters>2863.375777132</DistanceMeters>
          </Trackpoint>
          <Trackpoint>
            <Time>2019-08-04T15:23:21.000Z</Time>
            <Position>
              <LatitudeDegrees>-33.5324683226644992828369140625</LatitudeDegrees>
              <LongitudeDegrees>-70.2283136732876300811767578125</LongitudeDegrees>
            </Position>
            <AltitudeMeters>1730</AltitudeMeters>
            <DistanceMeters>2864.7528450509</DistanceMeters>
          </Trackpoint>
          <Trackpoint>
            <Time>2019-08-04T15:23:23.000Z</Time>
            <Position>
              <LatitudeDegrees>-33.53247108869254589080810546875</LatitudeDegrees>
              <LongitudeDegrees>-70.228309147059917449951171875</LongitudeDegrees>
            </Position>
            <AltitudeMeters>1730</AltitudeMeters>
            <DistanceMeters>2865.2733278011</DistanceMeters>
          </Trackpoint>
          <Trackpoint>
            <Time>2019-08-04T15:23:37.000Z</Time>
            <Position>
              <LatitudeDegrees>-33.53246807120740413665771484375</LatitudeDegrees>
              <LongitudeDegrees>-70.22832985036075115203857421875</LongitudeDegrees>
            </Position>
            <AltitudeMeters>1730</AltitudeMeters>
            <DistanceMeters>2867.2254272503</DistanceMeters>
          </Trackpoint>
          <Trackpoint>
            <Time>2019-08-04T15:23:43.000Z</Time>
            <Position>
              <LatitudeDegrees>-33.53246237151324748992919921875</LatitudeDegrees>
              <LongitudeDegrees>-70.2283294312655925750732421875</LongitudeDegrees>
            </Position>
            <AltitudeMeters>1730</AltitudeMeters>
            <DistanceMeters>2867.8628858293</DistanceMeters>
          </Trackpoint>
          <Trackpoint>
            <Time>2019-08-04T15:23:47.000Z</Time>
            <Position>
              <LatitudeDegrees>-33.53246639482676982879638671875</LatitudeDegrees>
              <LongitudeDegrees>-70.22831861861050128936767578125</LongitudeDegrees>
            </Position>
            <AltitudeMeters>1730</AltitudeMeters>
            <DistanceMeters>2868.9628995763</DistanceMeters>
          </Trackpoint>
          <Trackpoint>
            <Time>2019-08-04T15:23:49.000Z</Time>
            <Position>
              <LatitudeDegrees>-33.5324632935225963592529296875</LatitudeDegrees>
              <LongitudeDegrees>-70.2283133380115032196044921875</LongitudeDegrees>
            </Position>
            <AltitudeMeters>1730</AltitudeMeters>
            <DistanceMeters>2869.5639012882</DistanceMeters>
          </Trackpoint>
          <Trackpoint>
            <Time>2019-08-04T15:23:51.000Z</Time>
            <Position>
              <LatitudeDegrees>-33.5324646346271038055419921875</LatitudeDegrees>
              <LongitudeDegrees>-70.2283106558024883270263671875</LongitudeDegrees>
            </Position>
            <AltitudeMeters>1730</AltitudeMeters>
            <DistanceMeters>2869.8644021442</DistanceMeters>
          </Trackpoint>
          <Trackpoint>
            <Time>2019-08-04T15:24:02.000Z</Time>
            <Position>
              <LatitudeDegrees>-33.53246119804680347442626953125</LatitudeDegrees>
              <LongitudeDegrees>-70.22832222282886505126953125</LongitudeDegrees>
            </Position>
            <AltitudeMeters>1730</AltitudeMeters>
            <DistanceMeters>2871.0047227166</DistanceMeters>
          </Trackpoint>
          <Trackpoint>
            <Time>2019-08-04T15:24:05.000Z</Time>
            <Position>
              <LatitudeDegrees>-33.5324606113135814666748046875</LatitudeDegrees>
              <LongitudeDegrees>-70.2283233962953090667724609375</LongitudeDegrees>
            </Position>
            <AltitudeMeters>1730</AltitudeMeters>
            <DistanceMeters>2871.099749431</DistanceMeters>
          </Trackpoint>
          <Trackpoint>
            <Time>2019-08-04T15:24:13.000Z</Time>
            <Position>
              <LatitudeDegrees>-33.53246773593127727508544921875</LatitudeDegrees>
              <LongitudeDegrees>-70.22831895388662815093994140625</LongitudeDegrees>
            </Position>
            <AltitudeMeters>1730</AltitudeMeters>
            <DistanceMeters>2871.9911790284</DistanceMeters>
          </Trackpoint>
          <Trackpoint>
            <Time>2019-08-04T15:24:18.000Z</Time>
            <Position>
              <LatitudeDegrees>-33.5324741899967193603515625</LatitudeDegrees>
              <LongitudeDegrees>-70.22831845097243785858154296875</LongitudeDegrees>
            </Position>
            <AltitudeMeters>1730</AltitudeMeters>
            <DistanceMeters>2872.7086149888</DistanceMeters>
          </Trackpoint>
          <Trackpoint>
            <Time>2019-08-04T15:24:29.000Z</Time>
            <Position>
              <LatitudeDegrees>-33.53248064406216144561767578125</LatitudeDegrees>
              <LongitudeDegrees>-70.22831761278212070465087890625</LongitudeDegrees>
            </Position>
            <AltitudeMeters>1730</AltitudeMeters>
            <DistanceMeters>2873.4323168844</DistanceMeters>
          </Trackpoint>
          <Trackpoint>
            <Time>2019-08-04T15:24:37.000Z</Time>
            <Position>
              <LatitudeDegrees>-33.5324807278811931610107421875</LatitudeDegrees>
              <LongitudeDegrees>-70.22831685841083526611328125</LongitudeDegrees>
            </Position>
            <AltitudeMeters>1730</AltitudeMeters>
            <DistanceMeters>2873.5273435988</DistanceMeters>
          </Trackpoint>
          <Trackpoint>
            <Time>2019-08-04T15:24:47.000Z</Time>
            <Position>
              <LatitudeDegrees>-33.5324813984334468841552734375</LatitudeDegrees>
              <LongitudeDegrees>-70.2283254079520702362060546875</LongitudeDegrees>
            </Position>
            <AltitudeMeters>1730</AltitudeMeters>
            <DistanceMeters>2874.3223941324</DistanceMeters>
          </Trackpoint>
          <Trackpoint>
            <Time>2019-08-04T15:24:51.000Z</Time>
            <Position>
              <LatitudeDegrees>-33.532491289079189300537109375</LatitudeDegrees>
              <LongitudeDegrees>-70.22832515649497509002685546875</LongitudeDegrees>
            </Position>
            <AltitudeMeters>1730</AltitudeMeters>
            <DistanceMeters>2875.4224078794</DistanceMeters>
          </Trackpoint>
          <Trackpoint>
            <Time>2019-08-04T15:24:54.000Z</Time>
            <Position>
              <LatitudeDegrees>-33.53249472565948963165283203125</LatitudeDegrees>
              <LongitudeDegrees>-70.22832297720015048980712890625</LongitudeDegrees>
            </Position>
            <AltitudeMeters>1730</AltitudeMeters>
            <DistanceMeters>2875.857874991</DistanceMeters>
          </Trackpoint>
          <Trackpoint>
            <Time>2019-08-04T15:24:56.000Z</Time>
            <Position>
              <LatitudeDegrees>-33.5324948094785213470458984375</LatitudeDegrees>
              <LongitudeDegrees>-70.22832113318145275115966796875</LongitudeDegrees>
            </Position>
            <AltitudeMeters>1730</AltitudeMeters>
            <DistanceMeters>2876.0224660884</DistanceMeters>
          </Trackpoint>
          <Trackpoint>
            <Time>2019-08-04T15:24:59.000Z</Time>
            <Position>
              <LatitudeDegrees>-33.53249539621174335479736328125</LatitudeDegrees>
              <LongitudeDegrees>-70.228320546448230743408203125</LongitudeDegrees>
            </Position>
            <AltitudeMeters>1730</AltitudeMeters>
            <DistanceMeters>2876.0224660884</DistanceMeters>
          </Trackpoint>
          <Trackpoint>
            <Time>2019-08-04T15:25:00.000Z</Time>
            <Position>
              <LatitudeDegrees>-33.5324958153069019317626953125</LatitudeDegrees>
              <LongitudeDegrees>-70.2283200435340404510498046875</LongitudeDegrees>
            </Position>
            <AltitudeMeters>1730</AltitudeMeters>
            <DistanceMeters>2876.1174928028</DistanceMeters>
          </Trackpoint>
          <Trackpoint>
            <Time>2019-08-04T15:25:01.000Z</Time>
            <Position>
              <LatitudeDegrees>-33.53249522857367992401123046875</LatitudeDegrees>
              <LongitudeDegrees>-70.22831928916275501251220703125</LongitudeDegrees>
            </Position>
            <AltitudeMeters>1730</AltitudeMeters>
            <DistanceMeters>2876.251880871</DistanceMeters>
          </Trackpoint>
          <Trackpoint>
            <Time>2019-08-04T15:25:02.000Z</Time>
            <Position>
              <LatitudeDegrees>-33.53249506093561649322509765625</LatitudeDegrees>
              <LongitudeDegrees>-70.2283190377056598663330078125</LongitudeDegrees>
            </Position>
            <AltitudeMeters>1730</AltitudeMeters>
            <DistanceMeters>2876.3469075854</DistanceMeters>
          </Trackpoint>
          <Trackpoint>
            <Time>2019-08-04T15:25:03.000Z</Time>
            <Position>
              <LatitudeDegrees>-33.5324951447546482086181640625</LatitudeDegrees>
              <LongitudeDegrees>-70.2283187024295330047607421875</LongitudeDegrees>
            </Position>
            <AltitudeMeters>1730</AltitudeMeters>
            <DistanceMeters>2876.4419342998</DistanceMeters>
          </Trackpoint>
          <Trackpoint>
            <Time>2019-08-04T15:25:04.000Z</Time>
            <Position>
              <LatitudeDegrees>-33.53249539621174335479736328125</LatitudeDegrees>
              <LongitudeDegrees>-70.22831819951534271240234375</LongitudeDegrees>
            </Position>
            <AltitudeMeters>1730</AltitudeMeters>
            <DistanceMeters>2876.4419342998</DistanceMeters>
          </Trackpoint>
          <Trackpoint>
            <Time>2019-08-04T15:25:09.000Z</Time>
            <Position>
              <LatitudeDegrees>-33.53248600848019123077392578125</LatitudeDegrees>
              <LongitudeDegrees>-70.22831275127828121185302734375</LongitudeDegrees>
            </Position>
            <AltitudeMeters>1730</AltitudeMeters>
            <DistanceMeters>2877.6018831737</DistanceMeters>
          </Trackpoint>
          <Trackpoint>
            <Time>2019-08-04T15:25:18.000Z</Time>
            <Position>
              <LatitudeDegrees>-33.53247486054897308349609375</LatitudeDegrees>
              <LongitudeDegrees>-70.22831141017377376556396484375</LongitudeDegrees>
            </Position>
            <AltitudeMeters>1730</AltitudeMeters>
            <DistanceMeters>2878.848146849</DistanceMeters>
          </Trackpoint>
          <Trackpoint>
            <Time>2019-08-04T15:25:24.000Z</Time>
            <Position>
              <LatitudeDegrees>-33.5324743576347827911376953125</LatitudeDegrees>
              <LongitudeDegrees>-70.228313170373439788818359375</LongitudeDegrees>
            </Position>
            <AltitudeMeters>1730</AltitudeMeters>
            <DistanceMeters>2879.0382002777</DistanceMeters>
          </Trackpoint>
          <Trackpoint>
            <Time>2019-08-04T15:25:35.000Z</Time>
            <Position>
              <LatitudeDegrees>-33.5324773751199245452880859375</LatitudeDegrees>
              <LongitudeDegrees>-70.22831761278212070465087890625</LongitudeDegrees>
            </Position>
            <AltitudeMeters>1730</AltitudeMeters>
            <DistanceMeters>2879.5757525507</DistanceMeters>
          </Trackpoint>
          <Trackpoint>
            <Time>2019-08-04T15:25:37.000Z</Time>
            <Position>
              <LatitudeDegrees>-33.53247754275798797607421875</LatitudeDegrees>
              <LongitudeDegrees>-70.228317864239215850830078125</LongitudeDegrees>
            </Position>
            <AltitudeMeters>1730</AltitudeMeters>
            <DistanceMeters>2879.5757525507</DistanceMeters>
          </Trackpoint>
          <Trackpoint>
            <Time>2019-08-04T15:25:42.000Z</Time>
            <Position>
              <LatitudeDegrees>-33.5324790515005588531494140625</LatitudeDegrees>
              <LongitudeDegrees>-70.22832063026726245880126953125</LongitudeDegrees>
            </Position>
            <AltitudeMeters>1730</AltitudeMeters>
            <DistanceMeters>2879.8909205074</DistanceMeters>
          </Trackpoint>
          <Trackpoint>
            <Time>2019-08-04T15:25:49.000Z</Time>
            <Position>
              <LatitudeDegrees>-33.532479889690876007080078125</LatitudeDegrees>
              <LongitudeDegrees>-70.228321552276611328125</LongitudeDegrees>
            </Position>
            <AltitudeMeters>1730</AltitudeMeters>
            <DistanceMeters>2880.0253085756</DistanceMeters>
          </Trackpoint>
          <Trackpoint>
            <Time>2019-08-04T15:25:52.000Z</Time>
            <Position>
              <LatitudeDegrees>-33.5324810631573200225830078125</LatitudeDegrees>
              <LongitudeDegrees>-70.2283197082579135894775390625</LongitudeDegrees>
            </Position>
            <AltitudeMeters>1730</AltitudeMeters>
            <DistanceMeters>2880.2377947686</DistanceMeters>
          </Trackpoint>
          <Trackpoint>
            <Time>2019-08-04T15:26:07.000Z</Time>
            <Position>
              <LatitudeDegrees>-33.53247930295765399932861328125</LatitudeDegrees>
              <LongitudeDegrees>-70.22831610403954982757568359375</LongitudeDegrees>
            </Position>
            <AltitudeMeters>1730</AltitudeMeters>
            <DistanceMeters>2880.6409589734</DistanceMeters>
          </Trackpoint>
          <Trackpoint>
            <Time>2019-08-04T15:26:11.000Z</Time>
            <Position>
              <LatitudeDegrees>-33.53247913531959056854248046875</LatitudeDegrees>
              <LongitudeDegrees>-70.22831828333437442779541015625</LongitudeDegrees>
            </Position>
            <AltitudeMeters>1730</AltitudeMeters>
            <DistanceMeters>2880.8737259355</DistanceMeters>
          </Trackpoint>
          <Trackpoint>
            <Time>2019-08-04T15:26:23.000Z</Time>
            <Position>
              <LatitudeDegrees>-33.5324676521122455596923828125</LatitudeDegrees>
              <LongitudeDegrees>-70.2283284254372119903564453125</LongitudeDegrees>
            </Position>
            <AltitudeMeters>1730</AltitudeMeters>
            <DistanceMeters>2882.4581378931</DistanceMeters>
          </Trackpoint>
          <Trackpoint>
            <Time>2019-08-04T15:26:39.000Z</Time>
            <Position>
              <LatitudeDegrees>-33.5324736870825290679931640625</LatitudeDegrees>
              <LongitudeDegrees>-70.2283290959894657135009765625</LongitudeDegrees>
            </Position>
            <AltitudeMeters>1730</AltitudeMeters>
            <DistanceMeters>2883.1300782344</DistanceMeters>
          </Trackpoint>
          <Trackpoint>
            <Time>2019-08-04T15:26:42.000Z</Time>
            <Position>
              <LatitudeDegrees>-33.53247377090156078338623046875</LatitudeDegrees>
              <LongitudeDegrees>-70.22832733578979969024658203125</LongitudeDegrees>
            </Position>
            <AltitudeMeters>1730</AltitudeMeters>
            <DistanceMeters>2883.2644663026</DistanceMeters>
          </Trackpoint>
          <Trackpoint>
            <Time>2019-08-04T15:26:55.000Z</Time>
            <Position>
              <LatitudeDegrees>-33.53247058577835559844970703125</LatitudeDegrees>
              <LongitudeDegrees>-70.22834024392068386077880859375</LongitudeDegrees>
            </Position>
            <AltitudeMeters>1730</AltitudeMeters>
            <DistanceMeters>2884.5107299779</DistanceMeters>
          </Trackpoint>
          <Trackpoint>
            <Time>2019-08-04T15:27:08.000Z</Time>
            <Position>
              <LatitudeDegrees>-33.53246740065515041351318359375</LatitudeDegrees>
              <LongitudeDegrees>-70.228345356881618499755859375</LongitudeDegrees>
            </Position>
            <AltitudeMeters>1730</AltitudeMeters>
            <DistanceMeters>2885.104171619</DistanceMeters>
          </Trackpoint>
          <Trackpoint>
            <Time>2019-08-04T15:27:13.000Z</Time>
            <Position>
              <LatitudeDegrees>-33.5324720107018947601318359375</LatitudeDegrees>
              <LongitudeDegrees>-70.2283428423106670379638671875</LongitudeDegrees>
            </Position>
            <AltitudeMeters>1730</AltitudeMeters>
            <DistanceMeters>2885.6582678192</DistanceMeters>
          </Trackpoint>
          <Trackpoint>
            <Time>2019-08-04T15:27:28.000Z</Time>
            <Position>
              <LatitudeDegrees>-33.53245818056166172027587890625</LatitudeDegrees>
              <LongitudeDegrees>-70.228330604732036590576171875</LongitudeDegrees>
            </Position>
            <AltitudeMeters>1730</AltitudeMeters>
            <DistanceMeters>2887.5682811394</DistanceMeters>
          </Trackpoint>
          <Trackpoint>
            <Time>2019-08-04T15:27:43.000Z</Time>
            <Position>
              <LatitudeDegrees>-33.53246052749454975128173828125</LatitudeDegrees>
              <LongitudeDegrees>-70.228321552276611328125</LongitudeDegrees>
            </Position>
            <AltitudeMeters>1730</AltitudeMeters>
            <DistanceMeters>2888.4443841571</DistanceMeters>
          </Trackpoint>
          <Trackpoint>
            <Time>2019-08-04T15:27:57.000Z</Time>
            <Position>
              <LatitudeDegrees>-33.5324728488922119140625</LatitudeDegrees>
              <LongitudeDegrees>-70.22831778042018413543701171875</LongitudeDegrees>
            </Position>
            <AltitudeMeters>1730</AltitudeMeters>
            <DistanceMeters>2889.8602503127</DistanceMeters>
          </Trackpoint>
          <Trackpoint>
            <Time>2019-08-04T15:28:01.000Z</Time>
            <Position>
              <LatitudeDegrees>-33.532513082027435302734375</LatitudeDegrees>
              <LongitudeDegrees>-70.2283280901610851287841796875</LongitudeDegrees>
            </Position>
            <AltitudeMeters>1730</AltitudeMeters>
            <DistanceMeters>2894.4393154469</DistanceMeters>
          </Trackpoint>
          <Trackpoint>
            <Time>2019-08-04T15:28:02.000Z</Time>
            <Position>
              <LatitudeDegrees>-33.5325209610164165496826171875</LatitudeDegrees>
              <LongitudeDegrees>-70.2283321134746074676513671875</LongitudeDegrees>
            </Position>
            <AltitudeMeters>1730</AltitudeMeters>
            <DistanceMeters>2895.3895825906</DistanceMeters>
          </Trackpoint>
          <Trackpoint>
            <Time>2019-08-04T15:28:03.000Z</Time>
            <Position>
              <LatitudeDegrees>-33.53252741508185863494873046875</LatitudeDegrees>
              <LongitudeDegrees>-70.2283371426165103912353515625</LongitudeDegrees>
            </Position>
            <AltitudeMeters>1730</AltitudeMeters>
            <DistanceMeters>2896.2395273626</DistanceMeters>
          </Trackpoint>
          <Trackpoint>
            <Time>2019-08-04T15:28:04.000Z</Time>
            <Position>
              <LatitudeDegrees>-33.5325357131659984588623046875</LatitudeDegrees>
              <LongitudeDegrees>-70.22834024392068386077880859375</LongitudeDegrees>
            </Position>
            <AltitudeMeters>1730</AltitudeMeters>
            <DistanceMeters>2897.1992501337</DistanceMeters>
          </Trackpoint>
          <Trackpoint>
            <Time>2019-08-04T15:28:05.000Z</Time>
            <Position>
              <LatitudeDegrees>-33.5325444303452968597412109375</LatitudeDegrees>
              <LongitudeDegrees>-70.2283438481390476226806640625</LongitudeDegrees>
            </Position>
            <AltitudeMeters>1730</AltitudeMeters>
            <DistanceMeters>2898.2315044727</DistanceMeters>
          </Trackpoint>
          <Trackpoint>
            <Time>2019-08-04T15:28:06.000Z</Time>
            <Position>
              <LatitudeDegrees>-33.532553650438785552978515625</LatitudeDegrees>
              <LongitudeDegrees>-70.2283468656241893768310546875</LongitudeDegrees>
            </Position>
            <AltitudeMeters>1730</AltitudeMeters>
            <DistanceMeters>2899.298176696</DistanceMeters>
          </Trackpoint>
          <Trackpoint>
            <Time>2019-08-04T15:28:08.000Z</Time>
            <Position>
              <LatitudeDegrees>-33.53257150389254093170166015625</LatitudeDegrees>
              <LongitudeDegrees>-70.2283545769751071929931640625</LongitudeDegrees>
            </Position>
            <AltitudeMeters>1730</AltitudeMeters>
            <DistanceMeters>2901.412387622</DistanceMeters>
          </Trackpoint>
          <Trackpoint>
            <Time>2019-08-04T15:28:10.000Z</Time>
            <Position>
              <LatitudeDegrees>-33.532589860260486602783203125</LatitudeDegrees>
              <LongitudeDegrees>-70.22835968993604183197021484375</LongitudeDegrees>
            </Position>
            <AltitudeMeters>1730</AltitudeMeters>
            <DistanceMeters>2903.511596355</DistanceMeters>
          </Trackpoint>
          <Trackpoint>
            <Time>2019-08-04T15:28:20.000Z</Time>
            <Position>
              <LatitudeDegrees>-33.53266269899904727935791015625</LatitudeDegrees>
              <LongitudeDegrees>-70.22834342904388904571533203125</LongitudeDegrees>
            </Position>
            <AltitudeMeters>1730</AltitudeMeters>
            <DistanceMeters>2911.7575939067</DistanceMeters>
          </Trackpoint>
          <Trackpoint>
            <Time>2019-08-04T15:28:22.000Z</Time>
            <Position>
              <LatitudeDegrees>-33.5326874256134033203125</LatitudeDegrees>
              <LongitudeDegrees>-70.22833303548395633697509765625</LongitudeDegrees>
            </Position>
            <AltitudeMeters>1730</AltitudeMeters>
            <DistanceMeters>2914.6741555828</DistanceMeters>
          </Trackpoint>
          <Trackpoint>
            <Time>2019-08-04T15:28:25.000Z</Time>
            <Position>
              <LatitudeDegrees>-33.53271625936031341552734375</LatitudeDegrees>
              <LongitudeDegrees>-70.22832683287560939788818359375</LongitudeDegrees>
            </Position>
            <AltitudeMeters>1730</AltitudeMeters>
            <DistanceMeters>2917.9342782759</DistanceMeters>
          </Trackpoint>
          <Trackpoint>
            <Time>2019-08-04T15:28:28.000Z</Time>
            <Position>
              <LatitudeDegrees>-33.532743416726589202880859375</LatitudeDegrees>
              <LongitudeDegrees>-70.22834300994873046875</LongitudeDegrees>
            </Position>
            <AltitudeMeters>1730</AltitudeMeters>
            <DistanceMeters>2921.3087302901</DistanceMeters>
          </Trackpoint>
          <Trackpoint>
            <Time>2019-08-04T15:28:30.000Z</Time>
            <Position>
              <LatitudeDegrees>-33.53276730515062808990478515625</LatitudeDegrees>
              <LongitudeDegrees>-70.22835684008896350860595703125</LongitudeDegrees>
            </Position>
            <AltitudeMeters>1730</AltitudeMeters>
            <DistanceMeters>2924.2591529195</DistanceMeters>
          </Trackpoint>
          <Trackpoint>
            <Time>2019-08-04T15:28:35.000Z</Time>
            <Position>
              <LatitudeDegrees>-33.5328076221048831939697265625</LatitudeDegrees>
              <LongitudeDegrees>-70.22838969714939594268798828125</LongitudeDegrees>
            </Position>
            <AltitudeMeters>1730</AltitudeMeters>
            <DistanceMeters>2929.6840049111</DistanceMeters>
          </Trackpoint>
          <Trackpoint>
            <Time>2019-08-04T15:28:36.000Z</Time>
            <Position>
              <LatitudeDegrees>-33.532813824713230133056640625</LatitudeDegrees>
              <LongitudeDegrees>-70.2284006774425506591796875</LongitudeDegrees>
            </Position>
            <AltitudeMeters>1730</AltitudeMeters>
            <DistanceMeters>2930.9156919016</DistanceMeters>
          </Trackpoint>
          <Trackpoint>
            <Time>2019-08-04T15:28:41.000Z</Time>
            <Position>
              <LatitudeDegrees>-33.5328362882137298583984375</LatitudeDegrees>
              <LongitudeDegrees>-70.22845993749797344207763671875</LongitudeDegrees>
            </Position>
            <AltitudeMeters>1730</AltitudeMeters>
            <DistanceMeters>2936.9556843547</DistanceMeters>
          </Trackpoint>
          <Trackpoint>
            <Time>2019-08-04T15:28:47.000Z</Time>
            <Position>
              <LatitudeDegrees>-33.53286135010421276092529296875</LatitudeDegrees>
              <LongitudeDegrees>-70.228525064885616302490234375</LongitudeDegrees>
            </Position>
            <AltitudeMeters>1730</AltitudeMeters>
            <DistanceMeters>2943.6109473065</DistanceMeters>
          </Trackpoint>
          <Trackpoint>
            <Time>2019-08-04T15:28:51.000Z</Time>
            <Position>
              <LatitudeDegrees>-33.53287794627249240875244140625</LatitudeDegrees>
              <LongitudeDegrees>-70.22856202907860279083251953125</LongitudeDegrees>
            </Position>
            <AltitudeMeters>1730</AltitudeMeters>
            <DistanceMeters>2947.5058835609</DistanceMeters>
          </Trackpoint>
          <Trackpoint>
            <Time>2019-08-04T15:28:52.000Z</Time>
            <Position>
              <LatitudeDegrees>-33.5328807123005390167236328125</LatitudeDegrees>
              <LongitudeDegrees>-70.2285711653530597686767578125</LongitudeDegrees>
            </Position>
            <AltitudeMeters>1736.4000244140625</AltitudeMeters>
            <DistanceMeters>2948.4073861288</DistanceMeters>
          </Trackpoint>
          <Trackpoint>
            <Time>2019-08-04T15:28:54.000Z</Time>
            <Position>
              <LatitudeDegrees>-33.53288850747048854827880859375</LatitudeDegrees>
              <LongitudeDegrees>-70.2285875938832759857177734375</LongitudeDegrees>
            </Position>
            <AltitudeMeters>1736.800048828125</AltitudeMeters>
            <DistanceMeters>2950.162167046</DistanceMeters>
          </Trackpoint>
          <Trackpoint>
            <Time>2019-08-04T15:28:59.000Z</Time>
            <Position>
              <LatitudeDegrees>-33.532906360924243927001953125</LatitudeDegrees>
              <LongitudeDegrees>-70.22863595746457576751708984375</LongitudeDegrees>
            </Position>
            <AltitudeMeters>1737.4000244140625</AltitudeMeters>
            <DistanceMeters>2955.0705521116</DistanceMeters>
          </Trackpoint>
          <Trackpoint>
            <Time>2019-08-04T15:29:00.000Z</Time>
            <Position>
              <LatitudeDegrees>-33.532909713685512542724609375</LatitudeDegrees>
              <LongitudeDegrees>-70.2286469377577304840087890625</LongitudeDegrees>
            </Position>
            <AltitudeMeters>1737.5999755859375</AltitudeMeters>
            <DistanceMeters>2956.1581825701</DistanceMeters>
          </Trackpoint>
          <Trackpoint>
            <Time>2019-08-04T15:29:09.000Z</Time>
            <Position>
              <LatitudeDegrees>-33.5329273156821727752685546875</LatitudeDegrees>
              <LongitudeDegrees>-70.22875246591866016387939453125</LongitudeDegrees>
            </Position>
            <AltitudeMeters>1738.5999755859375</AltitudeMeters>
            <DistanceMeters>2966.1427728943</DistanceMeters>
          </Trackpoint>
          <Trackpoint>
            <Time>2019-08-04T15:29:18.000Z</Time>
            <Position>
              <LatitudeDegrees>-33.5329172573983669281005859375</LatitudeDegrees>
              <LongitudeDegrees>-70.228837542235851287841796875</LongitudeDegrees>
            </Position>
            <AltitudeMeters>1738.5999755859375</AltitudeMeters>
            <DistanceMeters>2974.1148289661</DistanceMeters>
          </Trackpoint>
          <Trackpoint>
            <Time>2019-08-04T15:29:21.000Z</Time>
            <Position>
              <LatitudeDegrees>-33.5329172573983669281005859375</LatitudeDegrees>
              <LongitudeDegrees>-70.22886402904987335205078125</LongitudeDegrees>
            </Position>
            <AltitudeMeters>1739</AltitudeMeters>
            <DistanceMeters>2976.5690214989</DistanceMeters>
          </Trackpoint>
          <Trackpoint>
            <Time>2019-08-04T15:29:22.000Z</Time>
            <Position>
              <LatitudeDegrees>-33.5329175926744937896728515625</LatitudeDegrees>
              <LongitudeDegrees>-70.22887341678142547607421875</LongitudeDegrees>
            </Position>
            <AltitudeMeters>1739.199951171875</AltitudeMeters>
            <DistanceMeters>2977.4399557222</DistanceMeters>
          </Trackpoint>
          <Trackpoint>
            <Time>2019-08-04T15:29:24.000Z</Time>
            <Position>
              <LatitudeDegrees>-33.53292052634060382843017578125</LatitudeDegrees>
              <LongitudeDegrees>-70.22889294661581516265869140625</LongitudeDegrees>
            </Position>
            <AltitudeMeters>1739.199951171875</AltitudeMeters>
            <DistanceMeters>2979.2801401332</DistanceMeters>
          </Trackpoint>
          <Trackpoint>
            <Time>2019-08-04T15:29:26.000Z</Time>
            <Position>
              <LatitudeDegrees>-33.5329236276447772979736328125</LatitudeDegrees>
              <LongitudeDegrees>-70.2289161644876003265380859375</LongitudeDegrees>
            </Position>
            <AltitudeMeters>1739.199951171875</AltitudeMeters>
            <DistanceMeters>2981.4616190549</DistanceMeters>
          </Trackpoint>
          <Trackpoint>
            <Time>2019-08-04T15:29:33.000Z</Time>
            <Position>
              <LatitudeDegrees>-33.53292949497699737548828125</LatitudeDegrees>
              <LongitudeDegrees>-70.2289798669517040252685546875</LongitudeDegrees>
            </Position>
            <AltitudeMeters>1739.4000244140625</AltitudeMeters>
            <DistanceMeters>2987.4074368522</DistanceMeters>
          </Trackpoint>
          <Trackpoint>
            <Time>2019-08-04T15:29:35.000Z</Time>
            <Position>
              <LatitudeDegrees>-33.53292689658701419830322265625</LatitudeDegrees>
              <LongitudeDegrees>-70.22900207899510860443115234375</LongitudeDegrees>
            </Position>
            <AltitudeMeters>1739.5999755859375</AltitudeMeters>
            <DistanceMeters>2989.4893678532</DistanceMeters>
          </Trackpoint>
          <Trackpoint>
            <Time>2019-08-04T15:29:36.000Z</Time>
            <Position>
              <LatitudeDegrees>-33.53292555548250675201416015625</LatitudeDegrees>
              <LongitudeDegrees>-70.22901079617440700531005859375</LongitudeDegrees>
            </Position>
            <AltitudeMeters>1739.5999755859375</AltitudeMeters>
            <DistanceMeters>2990.3068185593</DistanceMeters>
          </Trackpoint>
          <Trackpoint>
            <Time>2019-08-04T15:29:45.000Z</Time>
            <Position>
              <LatitudeDegrees>-33.53292974643409252166748046875</LatitudeDegrees>
              <LongitudeDegrees>-70.22909880615770816802978515625</LongitudeDegrees>
            </Position>
            <AltitudeMeters>1740</AltitudeMeters>
            <DistanceMeters>2998.4846389378</DistanceMeters>
          </Trackpoint>
          <Trackpoint>
            <Time>2019-08-04T15:29:48.000Z</Time>
            <Position>
              <LatitudeDegrees>-33.532931171357631683349609375</LatitudeDegrees>
              <LongitudeDegrees>-70.22912110202014446258544921875</LongitudeDegrees>
            </Position>
            <AltitudeMeters>1740.199951171875</AltitudeMeters>
            <DistanceMeters>3000.5600537069</DistanceMeters>
          </Trackpoint>
          <Trackpoint>
            <Time>2019-08-04T15:29:52.000Z</Time>
            <Position>
              <LatitudeDegrees>-33.532945923507213592529296875</LatitudeDegrees>
              <LongitudeDegrees>-70.22915446199476718902587890625</LongitudeDegrees>
            </Position>
            <AltitudeMeters>1740.800048828125</AltitudeMeters>
            <DistanceMeters>3004.064465778</DistanceMeters>
          </Trackpoint>
          <Trackpoint>
            <Time>2019-08-04T15:29:59.000Z</Time>
            <Position>
              <LatitudeDegrees>-33.5329849831759929656982421875</LatitudeDegrees>
              <LongitudeDegrees>-70.22920475341379642486572265625</LongitudeDegrees>
            </Position>
            <AltitudeMeters>1741.800048828125</AltitudeMeters>
            <DistanceMeters>3010.4418840882</DistanceMeters>
          </Trackpoint>
          <Trackpoint>
            <Time>2019-08-04T15:30:02.000Z</Time>
            <Position>
              <LatitudeDegrees>-33.5329957120120525360107421875</LatitudeDegrees>
              <LongitudeDegrees>-70.2292262949049472808837890625</LongitudeDegrees>
            </Position>
            <AltitudeMeters>1742.4000244140625</AltitudeMeters>
            <DistanceMeters>3012.7734299315</DistanceMeters>
          </Trackpoint>
          <Trackpoint>
            <Time>2019-08-04T15:30:05.000Z</Time>
            <Position>
              <LatitudeDegrees>-33.5330091230571269989013671875</LatitudeDegrees>
              <LongitudeDegrees>-70.22924297489225864410400390625</LongitudeDegrees>
            </Position>
            <AltitudeMeters>1743</AltitudeMeters>
            <DistanceMeters>3014.9236390235</DistanceMeters>
          </Trackpoint>
          <Trackpoint>
            <Time>2019-08-04T15:30:10.000Z</Time>
            <Position>
              <LatitudeDegrees>-33.53302446193993091583251953125</LatitudeDegrees>
              <LongitudeDegrees>-70.22926040925085544586181640625</LongitudeDegrees>
            </Position>
            <AltitudeMeters>1743.4000244140625</AltitudeMeters>
            <DistanceMeters>3017.2744701071</DistanceMeters>
          </Trackpoint>
          <Trackpoint>
            <Time>2019-08-04T15:30:14.000Z</Time>
            <Position>
              <LatitudeDegrees>-33.53304893709719181060791015625</LatitudeDegrees>
              <LongitudeDegrees>-70.22927574813365936279296875</LongitudeDegrees>
            </Position>
            <AltitudeMeters>1744.199951171875</AltitudeMeters>
            <DistanceMeters>3020.3463473644</DistanceMeters>
          </Trackpoint>
          <Trackpoint>
            <Time>2019-08-04T15:30:16.000Z</Time>
            <Position>
              <LatitudeDegrees>-33.53305731900036334991455078125</LatitudeDegrees>
              <LongitudeDegrees>-70.22928806953132152557373046875</LongitudeDegrees>
            </Position>
            <AltitudeMeters>1744.5999755859375</AltitudeMeters>
            <DistanceMeters>3021.8184948932</DistanceMeters>
          </Trackpoint>
          <Trackpoint>
            <Time>2019-08-04T15:30:18.000Z</Time>
            <Position>
              <LatitudeDegrees>-33.53306419216096401214599609375</LatitudeDegrees>
              <LongitudeDegrees>-70.22930122911930084228515625</LongitudeDegrees>
            </Position>
            <AltitudeMeters>1745.199951171875</AltitudeMeters>
            <DistanceMeters>3023.259646371</DistanceMeters>
          </Trackpoint>
          <Trackpoint>
            <Time>2019-08-04T15:30:21.000Z</Time>
            <Position>
              <LatitudeDegrees>-33.53307743556797504425048828125</LatitudeDegrees>
              <LongitudeDegrees>-70.22930500097572803497314453125</LongitudeDegrees>
            </Position>
            <AltitudeMeters>1745.800048828125</AltitudeMeters>
            <DistanceMeters>3024.780073801</DistanceMeters>
          </Trackpoint>
          <Trackpoint>
            <Time>2019-08-04T15:30:24.000Z</Time>
            <Position>
              <LatitudeDegrees>-33.533094786107540130615234375</LatitudeDegrees>
              <LongitudeDegrees>-70.2293027378618717193603515625</LongitudeDegrees>
            </Position>
            <AltitudeMeters>1746.4000244140625</AltitudeMeters>
            <DistanceMeters>3026.7228995661</DistanceMeters>
          </Trackpoint>
          <Trackpoint>
            <Time>2019-08-04T15:30:27.000Z</Time>
            <Position>
              <LatitudeDegrees>-33.5331150703132152557373046875</LatitudeDegrees>
              <LongitudeDegrees>-70.22930399514734745025634765625</LongitudeDegrees>
            </Position>
            <AltitudeMeters>1747.5999755859375</AltitudeMeters>
            <DistanceMeters>3028.9836567992</DistanceMeters>
          </Trackpoint>
          <Trackpoint>
            <Time>2019-08-04T15:30:29.000Z</Time>
            <Position>
              <LatitudeDegrees>-33.5331308282911777496337890625</LatitudeDegrees>
              <LongitudeDegrees>-70.229315645992755889892578125</LongitudeDegrees>
            </Position>
            <AltitudeMeters>1748.199951171875</AltitudeMeters>
            <DistanceMeters>3031.0437868749</DistanceMeters>
          </Trackpoint>
          <Trackpoint>
            <Time>2019-08-04T15:30:31.000Z</Time>
            <Position>
              <LatitudeDegrees>-33.5331405512988567352294921875</LatitudeDegrees>
              <LongitudeDegrees>-70.2293252013623714447021484375</LongitudeDegrees>
            </Position>
            <AltitudeMeters>1748.5999755859375</AltitudeMeters>
            <DistanceMeters>3032.4403886477</DistanceMeters>
          </Trackpoint>
          <Trackpoint>
            <Time>2019-08-04T15:30:32.000Z</Time>
            <Position>
              <LatitudeDegrees>-33.5331418924033641815185546875</LatitudeDegrees>
              <LongitudeDegrees>-70.22932679392397403717041015625</LongitudeDegrees>
            </Position>
            <AltitudeMeters>1748.800048828125</AltitudeMeters>
            <DistanceMeters>3032.6304420765</DistanceMeters>
          </Trackpoint>
          <Trackpoint>
            <Time>2019-08-04T15:30:35.000Z</Time>
            <Position>
              <LatitudeDegrees>-33.53314407169818878173828125</LatitudeDegrees>
              <LongitudeDegrees>-70.22933064959943294525146484375</LongitudeDegrees>
            </Position>
            <AltitudeMeters>1749.4000244140625</AltitudeMeters>
            <DistanceMeters>3033.0554144625</DistanceMeters>
          </Trackpoint>
          <Trackpoint>
            <Time>2019-08-04T15:30:40.000Z</Time>
            <Position>
              <LatitudeDegrees>-33.53315412998199462890625</LatitudeDegrees>
              <LongitudeDegrees>-70.229365266859531402587890625</LongitudeDegrees>
            </Position>
            <AltitudeMeters>1750</AltitudeMeters>
            <DistanceMeters>3036.4578485913</DistanceMeters>
          </Trackpoint>
          <Trackpoint>
            <Time>2019-08-04T15:30:43.000Z</Time>
            <Position>
              <LatitudeDegrees>-33.5331623442471027374267578125</LatitudeDegrees>
              <LongitudeDegrees>-70.22939242422580718994140625</LongitudeDegrees>
            </Position>
            <AltitudeMeters>1750.4000244140625</AltitudeMeters>
            <DistanceMeters>3039.1371975371</DistanceMeters>
          </Trackpoint>
          <Trackpoint>
            <Time>2019-08-04T15:30:52.000Z</Time>
            <Position>
              <LatitudeDegrees>-33.5331640206277370452880859375</LatitudeDegrees>
              <LongitudeDegrees>-70.22945838980376720428466796875</LongitudeDegrees>
            </Position>
            <AltitudeMeters>1750.800048828125</AltitudeMeters>
            <DistanceMeters>3045.2603403082</DistanceMeters>
          </Trackpoint>
          <Trackpoint>
            <Time>2019-08-04T15:30:59.000Z</Time>
            <Position>
              <LatitudeDegrees>-33.5331529565155506134033203125</LatitudeDegrees>
              <LongitudeDegrees>-70.22952712140977382659912109375</LongitudeDegrees>
            </Position>
            <AltitudeMeters>1750.800048828125</AltitudeMeters>
            <DistanceMeters>3051.755609136</DistanceMeters>
          </Trackpoint>
          <Trackpoint>
            <Time>2019-08-04T15:31:03.000Z</Time>
            <Position>
              <LatitudeDegrees>-33.5331489332020282745361328125</LatitudeDegrees>
              <LongitudeDegrees>-70.2295702882111072540283203125</LongitudeDegrees>
            </Position>
            <AltitudeMeters>1750.800048828125</AltitudeMeters>
            <DistanceMeters>3055.7850107599</DistanceMeters>
          </Trackpoint>
          <Trackpoint>
            <Time>2019-08-04T15:31:09.000Z</Time>
            <Position>
              <LatitudeDegrees>-33.53316276334226131439208984375</LatitudeDegrees>
              <LongitudeDegrees>-70.22962116636335849761962890625</LongitudeDegrees>
            </Position>
            <AltitudeMeters>1750</AltitudeMeters>
            <DistanceMeters>3060.749190311</DistanceMeters>
          </Trackpoint>
          <Trackpoint>
            <Time>2019-08-04T15:31:13.000Z</Time>
            <Position>
              <LatitudeDegrees>-33.5331583209335803985595703125</LatitudeDegrees>
              <LongitudeDegrees>-70.22965217940509319305419921875</LongitudeDegrees>
            </Position>
            <AltitudeMeters>1749.800048828125</AltitudeMeters>
            <DistanceMeters>3063.665751987</DistanceMeters>
          </Trackpoint>
          <Trackpoint>
            <Time>2019-08-04T15:31:27.000Z</Time>
            <Position>
              <LatitudeDegrees>-33.53317030705511569976806640625</LatitudeDegrees>
              <LongitudeDegrees>-70.22973281331360340118408203125</LongitudeDegrees>
            </Position>
            <AltitudeMeters>1749.4000244140625</AltitudeMeters>
            <DistanceMeters>3071.2643247992</DistanceMeters>
          </Trackpoint>
          <Trackpoint>
            <Time>2019-08-04T15:31:29.000Z</Time>
            <Position>
              <LatitudeDegrees>-33.5331663675606250762939453125</LatitudeDegrees>
              <LongitudeDegrees>-70.22973574697971343994140625</LongitudeDegrees>
            </Position>
            <AltitudeMeters>1749</AltitudeMeters>
            <DistanceMeters>3071.7848075495</DistanceMeters>
          </Trackpoint>
          <Trackpoint>
            <Time>2019-08-04T15:31:30.000Z</Time>
            <Position>
              <LatitudeDegrees>-33.53316427208483219146728515625</LatitudeDegrees>
              <LongitudeDegrees>-70.22973884828388690948486328125</LongitudeDegrees>
            </Position>
            <AltitudeMeters>1748.800048828125</AltitudeMeters>
            <DistanceMeters>3072.1528444317</DistanceMeters>
          </Trackpoint>
          <Trackpoint>
            <Time>2019-08-04T15:31:32.000Z</Time>
            <Position>
              <LatitudeDegrees>-33.5331616736948490142822265625</LatitudeDegrees>
              <LongitudeDegrees>-70.229742117226123809814453125</LongitudeDegrees>
            </Position>
            <AltitudeMeters>1748.4000244140625</AltitudeMeters>
            <DistanceMeters>3072.5670562766</DistanceMeters>
          </Trackpoint>
          <Trackpoint>
            <Time>2019-08-04T15:31:36.000Z</Time>
            <Position>
              <LatitudeDegrees>-33.53316628374159336090087890625</LatitudeDegrees>
              <LongitudeDegrees>-70.22978377528488636016845703125</LongitudeDegrees>
            </Position>
            <AltitudeMeters>1748</AltitudeMeters>
            <DistanceMeters>3076.4643102558</DistanceMeters>
          </Trackpoint>
          <Trackpoint>
            <Time>2019-08-04T15:31:39.000Z</Time>
            <Position>
              <LatitudeDegrees>-33.53316946886479854583740234375</LatitudeDegrees>
              <LongitudeDegrees>-70.22980607114732265472412109375</LongitudeDegrees>
            </Position>
            <AltitudeMeters>1747.5999755859375</AltitudeMeters>
            <DistanceMeters>3078.5635189888</DistanceMeters>
          </Trackpoint>
          <Trackpoint>
            <Time>2019-08-04T15:31:43.000Z</Time>
            <Position>
              <LatitudeDegrees>-33.53317617438733577728271484375</LatitudeDegrees>
              <LongitudeDegrees>-70.22982635535299777984619140625</LongitudeDegrees>
            </Position>
            <AltitudeMeters>1746.800048828125</AltitudeMeters>
            <DistanceMeters>3080.5860482541</DistanceMeters>
          </Trackpoint>
          <Trackpoint>
            <Time>2019-08-04T15:31:44.000Z</Time>
            <Position>
              <LatitudeDegrees>-33.5331797786056995391845703125</LatitudeDegrees>
              <LongitudeDegrees>-70.229826606810092926025390625</LongitudeDegrees>
            </Position>
            <AltitudeMeters>1746.5999755859375</AltitudeMeters>
            <DistanceMeters>3080.9892124589</DistanceMeters>
          </Trackpoint>
          <Trackpoint>
            <Time>2019-08-04T15:31:50.000Z</Time>
            <Position>
              <LatitudeDegrees>-33.5331905074417591094970703125</LatitudeDegrees>
              <LongitudeDegrees>-70.22982023656368255615234375</LongitudeDegrees>
            </Position>
            <AltitudeMeters>1746.4000244140625</AltitudeMeters>
            <DistanceMeters>3082.3229759535</DistanceMeters>
          </Trackpoint>
          <Trackpoint>
            <Time>2019-08-04T15:32:03.000Z</Time>
            <Position>
              <LatitudeDegrees>-33.5332250408828258514404296875</LatitudeDegrees>
              <LongitudeDegrees>-70.2298120222985744476318359375</LongitudeDegrees>
            </Position>
            <AltitudeMeters>1746.5999755859375</AltitudeMeters>
            <DistanceMeters>3086.2433318184</DistanceMeters>
          </Trackpoint>
          <Trackpoint>
            <Time>2019-08-04T15:32:11.000Z</Time>
            <Position>
              <LatitudeDegrees>-33.53325429372489452362060546875</LatitudeDegrees>
              <LongitudeDegrees>-70.22981143556535243988037109375</LongitudeDegrees>
            </Position>
            <AltitudeMeters>1747</AltitudeMeters>
            <DistanceMeters>3089.500683476</DistanceMeters>
          </Trackpoint>
          <Trackpoint>
            <Time>2019-08-04T15:32:14.000Z</Time>
            <Position>
              <LatitudeDegrees>-33.5332699678838253021240234375</LatitudeDegrees>
              <LongitudeDegrees>-70.229827947914600372314453125</LongitudeDegrees>
            </Position>
            <AltitudeMeters>1747</AltitudeMeters>
            <DistanceMeters>3091.8225266312</DistanceMeters>
          </Trackpoint>
          <Trackpoint>
            <Time>2019-08-04T15:32:17.000Z</Time>
            <Position>
              <LatitudeDegrees>-33.53329067118465900421142578125</LatitudeDegrees>
              <LongitudeDegrees>-70.229838676750659942626953125</LongitudeDegrees>
            </Position>
            <AltitudeMeters>1747.199951171875</AltitudeMeters>
            <DistanceMeters>3094.3331029311</DistanceMeters>
          </Trackpoint>
          <Trackpoint>
            <Time>2019-08-04T15:32:22.000Z</Time>
            <Position>
              <LatitudeDegrees>-33.53331313468515872955322265625</LatitudeDegrees>
              <LongitudeDegrees>-70.2298732101917266845703125</LongitudeDegrees>
            </Position>
            <AltitudeMeters>1747.5999755859375</AltitudeMeters>
            <DistanceMeters>3098.3982031627</DistanceMeters>
          </Trackpoint>
          <Trackpoint>
            <Time>2019-08-04T15:32:24.000Z</Time>
            <Position>
              <LatitudeDegrees>-33.5333165712654590606689453125</LatitudeDegrees>
              <LongitudeDegrees>-70.229881592094898223876953125</LongitudeDegrees>
            </Position>
            <AltitudeMeters>1747.800048828125</AltitudeMeters>
            <DistanceMeters>3099.269137386</DistanceMeters>
          </Trackpoint>
          <Trackpoint>
            <Time>2019-08-04T15:32:26.000Z</Time>
            <Position>
              <LatitudeDegrees>-33.53332201950252056121826171875</LatitudeDegrees>
              <LongitudeDegrees>-70.22988854907453060150146484375</LongitudeDegrees>
            </Position>
            <AltitudeMeters>1748</AltitudeMeters>
            <DistanceMeters>3100.1503788819</DistanceMeters>
          </Trackpoint>
          <Trackpoint>
            <Time>2019-08-04T15:32:30.000Z</Time>
            <Position>
              <LatitudeDegrees>-33.5333397053182125091552734375</LatitudeDegrees>
              <LongitudeDegrees>-70.229914449155330657958984375</LongitudeDegrees>
            </Position>
            <AltitudeMeters>1748.800048828125</AltitudeMeters>
            <DistanceMeters>3103.255877496</DistanceMeters>
          </Trackpoint>
          <Trackpoint>
            <Time>2019-08-04T15:32:31.000Z</Time>
            <Position>
              <LatitudeDegrees>-33.53334465064108371734619140625</LatitudeDegrees>
              <LongitudeDegrees>-70.2299219928681850433349609375</LongitudeDegrees>
            </Position>
            <AltitudeMeters>1749</AltitudeMeters>
            <DistanceMeters>3104.1473070934</DistanceMeters>
          </Trackpoint>
          <Trackpoint>
            <Time>2019-08-04T15:32:34.000Z</Time>
            <Position>
              <LatitudeDegrees>-33.53335940279066562652587890625</LatitudeDegrees>
              <LongitudeDegrees>-70.22994705475866794586181640625</LongitudeDegrees>
            </Position>
            <AltitudeMeters>1749.5999755859375</AltitudeMeters>
            <DistanceMeters>3106.9917663555</DistanceMeters>
          </Trackpoint>
          <Trackpoint>
            <Time>2019-08-04T15:32:36.000Z</Time>
            <Position>
              <LatitudeDegrees>-33.5333675332367420196533203125</LatitudeDegrees>
              <LongitudeDegrees>-70.2299639023840427398681640625</LongitudeDegrees>
            </Position>
            <AltitudeMeters>1750.199951171875</AltitudeMeters>
            <DistanceMeters>3108.7947714913</DistanceMeters>
          </Trackpoint>
          <Trackpoint>
            <Time>2019-08-04T15:32:40.000Z</Time>
            <Position>
              <LatitudeDegrees>-33.53336292318999767303466796875</LatitudeDegrees>
              <LongitudeDegrees>-70.2300061471760272979736328125</LongitudeDegrees>
            </Position>
            <AltitudeMeters>1751.199951171875</AltitudeMeters>
            <DistanceMeters>3112.7472431545</DistanceMeters>
          </Trackpoint>
          <Trackpoint>
            <Time>2019-08-04T15:32:44.000Z</Time>
            <Position>
              <LatitudeDegrees>-33.53336694650352001190185546875</LatitudeDegrees>
              <LongitudeDegrees>-70.23003942333161830902099609375</LongitudeDegrees>
            </Position>
            <AltitudeMeters>1752.199951171875</AltitudeMeters>
            <DistanceMeters>3115.8657992835</DistanceMeters>
          </Trackpoint>
          <Trackpoint>
            <Time>2019-08-04T15:32:51.000Z</Time>
            <Position>
              <LatitudeDegrees>-33.53337516076862812042236328125</LatitudeDegrees>
              <LongitudeDegrees>-70.23010798729956150054931640625</LongitudeDegrees>
            </Position>
            <AltitudeMeters>1753.4000244140625</AltitudeMeters>
            <DistanceMeters>3122.2925846117</DistanceMeters>
          </Trackpoint>
          <Trackpoint>
            <Time>2019-08-04T15:32:56.000Z</Time>
            <Position>
              <LatitudeDegrees>-33.53340986184775829315185546875</LatitudeDegrees>
              <LongitudeDegrees>-70.2301322109997272491455078125</LongitudeDegrees>
            </Position>
            <AltitudeMeters>1753.800048828125</AltitudeMeters>
            <DistanceMeters>3126.7608615747</DistanceMeters>
          </Trackpoint>
          <Trackpoint>
            <Time>2019-08-04T15:32:58.000Z</Time>
            <Position>
              <LatitudeDegrees>-33.53342662565410137176513671875</LatitudeDegrees>
              <LongitudeDegrees>-70.23014335893094539642333984375</LongitudeDegrees>
            </Position>
            <AltitudeMeters>1754</AltitudeMeters>
            <DistanceMeters>3128.8920885572</DistanceMeters>
          </Trackpoint>
          <Trackpoint>
            <Time>2019-08-04T15:32:59.000Z</Time>
            <Position>
              <LatitudeDegrees>-33.53343416936695575714111328125</LatitudeDegrees>
              <LongitudeDegrees>-70.23014889098703861236572265625</LongitudeDegrees>
            </Position>
            <AltitudeMeters>1754</AltitudeMeters>
            <DistanceMeters>3129.875052534</DistanceMeters>
          </Trackpoint>
          <Trackpoint>
            <Time>2019-08-04T15:33:00.000Z</Time>
            <Position>
              <LatitudeDegrees>-33.53344121016561985015869140625</LatitudeDegrees>
              <LongitudeDegrees>-70.2301586978137493133544921875</LongitudeDegrees>
            </Position>
            <AltitudeMeters>1754.199951171875</AltitudeMeters>
            <DistanceMeters>3131.0770559578</DistanceMeters>
          </Trackpoint>
          <Trackpoint>
            <Time>2019-08-04T15:33:02.000Z</Time>
            <Position>
              <LatitudeDegrees>-33.53344925679266452789306640625</LatitudeDegrees>
              <LongitudeDegrees>-70.23018711246550083160400390625</LongitudeDegrees>
            </Position>
            <AltitudeMeters>1754.4000244140625</AltitudeMeters>
            <DistanceMeters>3133.8621655904</DistanceMeters>
          </Trackpoint>
          <Trackpoint>
            <Time>2019-08-04T15:33:05.000Z</Time>
            <Position>
              <LatitudeDegrees>-33.533458895981311798095703125</LatitudeDegrees>
              <LongitudeDegrees>-70.2302218973636627197265625</LongitudeDegrees>
            </Position>
            <AltitudeMeters>1755</AltitudeMeters>
            <DistanceMeters>3137.263272458</DistanceMeters>
          </Trackpoint>
          <Trackpoint>
            <Time>2019-08-04T15:33:07.000Z</Time>
            <Position>
              <LatitudeDegrees>-33.533462584018707275390625</LatitudeDegrees>
              <LongitudeDegrees>-70.23023405112326145172119140625</LongitudeDegrees>
            </Position>
            <AltitudeMeters>1755.4000244140625</AltitudeMeters>
            <DistanceMeters>3138.4652758819</DistanceMeters>
          </Trackpoint>
          <Trackpoint>
            <Time>2019-08-04T15:33:08.000Z</Time>
            <Position>
              <LatitudeDegrees>-33.53346585296094417572021484375</LatitudeDegrees>
              <LongitudeDegrees>-70.2302431873977184295654296875</LongitudeDegrees>
            </Position>
            <AltitudeMeters>1755.5999755859375</AltitudeMeters>
            <DistanceMeters>3139.3914817241</DistanceMeters>
          </Trackpoint>
          <Trackpoint>
            <Time>2019-08-04T15:33:16.000Z</Time>
            <Position>
              <LatitudeDegrees>-33.53347339667379856109619140625</LatitudeDegrees>
              <LongitudeDegrees>-70.2303082309663295745849609375</LongitudeDegrees>
            </Position>
            <AltitudeMeters>1756.800048828125</AltitudeMeters>
            <DistanceMeters>3145.4843172102</DistanceMeters>
          </Trackpoint>
          <Trackpoint>
            <Time>2019-08-04T15:33:21.000Z</Time>
            <Position>
              <LatitudeDegrees>-33.533462584018707275390625</LatitudeDegrees>
              <LongitudeDegrees>-70.23033714853227138519287109375</LongitudeDegrees>
            </Position>
            <AltitudeMeters>1757.4000244140625</AltitudeMeters>
            <DistanceMeters>3148.4255436948</DistanceMeters>
          </Trackpoint>
          <Trackpoint>
            <Time>2019-08-04T15:33:23.000Z</Time>
            <Position>
              <LatitudeDegrees>-33.53346065618097782135009765625</LatitudeDegrees>
              <LongitudeDegrees>-70.23035424761474132537841796875</LongitudeDegrees>
            </Position>
            <AltitudeMeters>1758</AltitudeMeters>
            <DistanceMeters>3150.0269623502</DistanceMeters>
          </Trackpoint>
          <Trackpoint>
            <Time>2019-08-04T15:33:29.000Z</Time>
            <Position>
              <LatitudeDegrees>-33.5334719717502593994140625</LatitudeDegrees>
              <LongitudeDegrees>-70.23041593842208385467529296875</LongitudeDegrees>
            </Position>
            <AltitudeMeters>1759</AltitudeMeters>
            <DistanceMeters>3155.8871142865</DistanceMeters>
          </Trackpoint>
          <Trackpoint>
            <Time>2019-08-04T15:33:35.000Z</Time>
            <Position>
              <LatitudeDegrees>-33.533500470221042633056640625</LatitudeDegrees>
              <LongitudeDegrees>-70.23046723566949367523193359375</LongitudeDegrees>
            </Position>
            <AltitudeMeters>1759.800048828125</AltitudeMeters>
            <DistanceMeters>3161.6061121777</DistanceMeters>
          </Trackpoint>
          <Trackpoint>
            <Time>2019-08-04T15:33:37.000Z</Time>
            <Position>
              <LatitudeDegrees>-33.5335100255906581878662109375</LatitudeDegrees>
              <LongitudeDegrees>-70.230481065809726715087890625</LongitudeDegrees>
            </Position>
            <AltitudeMeters>1760</AltitudeMeters>
            <DistanceMeters>3163.2738242466</DistanceMeters>
          </Trackpoint>
          <Trackpoint>
            <Time>2019-08-04T15:33:43.000Z</Time>
            <Position>
              <LatitudeDegrees>-33.53354531340301036834716796875</LatitudeDegrees>
              <LongitudeDegrees>-70.23050730116665363311767578125</LongitudeDegrees>
            </Position>
            <AltitudeMeters>1761</AltitudeMeters>
            <DistanceMeters>3167.8950936383</DistanceMeters>
          </Trackpoint>
          <Trackpoint>
            <Time>2019-08-04T15:33:47.000Z</Time>
            <Position>
              <LatitudeDegrees>-33.533569537103176116943359375</LatitudeDegrees>
              <LongitudeDegrees>-70.23051165975630283355712890625</LongitudeDegrees>
            </Position>
            <AltitudeMeters>1762.199951171875</AltitudeMeters>
            <DistanceMeters>3170.6228735029</DistanceMeters>
          </Trackpoint>
          <Trackpoint>
            <Time>2019-08-04T15:33:48.000Z</Time>
            <Position>
              <LatitudeDegrees>-33.53357012383639812469482421875</LatitudeDegrees>
              <LongitudeDegrees>-70.230513922870159149169921875</LongitudeDegrees>
            </Position>
            <AltitudeMeters>1762.199951171875</AltitudeMeters>
            <DistanceMeters>3170.855640465</DistanceMeters>
          </Trackpoint>
          <Trackpoint>
            <Time>2019-08-04T15:33:52.000Z</Time>
            <Position>
              <LatitudeDegrees>-33.5335819423198699951171875</LatitudeDegrees>
              <LongitudeDegrees>-70.23054066114127635955810546875</LongitudeDegrees>
            </Position>
            <AltitudeMeters>1763</AltitudeMeters>
            <DistanceMeters>3173.6649618799</DistanceMeters>
          </Trackpoint>
          <Trackpoint>
            <Time>2019-08-04T15:33:53.000Z</Time>
            <Position>
              <LatitudeDegrees>-33.53358722291886806488037109375</LatitudeDegrees>
              <LongitudeDegrees>-70.23054636083543300628662109375</LongitudeDegrees>
            </Position>
            <AltitudeMeters>1763.199951171875</AltitudeMeters>
            <DistanceMeters>3174.4485722411</DistanceMeters>
          </Trackpoint>
          <Trackpoint>
            <Time>2019-08-04T15:34:01.000Z</Time>
            <Position>
              <LatitudeDegrees>-33.53362829424440860748291015625</LatitudeDegrees>
              <LongitudeDegrees>-70.230577290058135986328125</LongitudeDegrees>
            </Position>
            <AltitudeMeters>1763.800048828125</AltitudeMeters>
            <DistanceMeters>3179.8458888529</DistanceMeters>
          </Trackpoint>
          <Trackpoint>
            <Time>2019-08-04T15:34:07.000Z</Time>
            <Position>
              <LatitudeDegrees>-33.5336421243846416473388671875</LatitudeDegrees>
              <LongitudeDegrees>-70.23059665225446224212646484375</LongitudeDegrees>
            </Position>
            <AltitudeMeters>1764.199951171875</AltitudeMeters>
            <DistanceMeters>3182.212034959</DistanceMeters>
          </Trackpoint>
          <Trackpoint>
            <Time>2019-08-04T15:34:12.000Z</Time>
            <Position>
              <LatitudeDegrees>-33.53366366587579250335693359375</LatitudeDegrees>
              <LongitudeDegrees>-70.2306029386818408966064453125</LongitudeDegrees>
            </Position>
            <AltitudeMeters>1764.199951171875</AltitudeMeters>
            <DistanceMeters>3184.6809014195</DistanceMeters>
          </Trackpoint>
          <Trackpoint>
            <Time>2019-08-04T15:34:15.000Z</Time>
            <Position>
              <LatitudeDegrees>-33.53367372415959835052490234375</LatitudeDegrees>
              <LongitudeDegrees>-70.2306042797863483428955078125</LongitudeDegrees>
            </Position>
            <AltitudeMeters>1764.5999755859375</AltitudeMeters>
            <DistanceMeters>3185.8052726669</DistanceMeters>
          </Trackpoint>
          <Trackpoint>
            <Time>2019-08-04T15:34:17.000Z</Time>
            <Position>
              <LatitudeDegrees>-33.53368453681468963623046875</LatitudeDegrees>
              <LongitudeDegrees>-70.23061308078467845916748046875</LongitudeDegrees>
            </Position>
            <AltitudeMeters>1764.5999755859375</AltitudeMeters>
            <DistanceMeters>3187.2589018796</DistanceMeters>
          </Trackpoint>
          <Trackpoint>
            <Time>2019-08-04T15:34:26.000Z</Time>
            <Position>
              <LatitudeDegrees>-33.53373960591852664947509765625</LatitudeDegrees>
              <LongitudeDegrees>-70.23064392618834972381591796875</LongitudeDegrees>
            </Position>
            <AltitudeMeters>1765</AltitudeMeters>
            <DistanceMeters>3194.0238429302</DistanceMeters>
          </Trackpoint>
          <Trackpoint>
            <Time>2019-08-04T15:34:27.000Z</Time>
            <Position>
              <LatitudeDegrees>-33.53374346159398555755615234375</LatitudeDegrees>
              <LongitudeDegrees>-70.23064769804477691650390625</LongitudeDegrees>
            </Position>
            <AltitudeMeters>1765</AltitudeMeters>
            <DistanceMeters>3194.5779391304</DistanceMeters>
          </Trackpoint>
          <Trackpoint>
            <Time>2019-08-04T15:34:29.000Z</Time>
            <Position>
              <LatitudeDegrees>-33.53375083766877651214599609375</LatitudeDegrees>
              <LongitudeDegrees>-70.23065767250955104827880859375</LongitudeDegrees>
            </Position>
            <AltitudeMeters>1765.199951171875</AltitudeMeters>
            <DistanceMeters>3195.8096261209</DistanceMeters>
          </Trackpoint>
          <Trackpoint>
            <Time>2019-08-04T15:34:36.000Z</Time>
            <Position>
              <LatitudeDegrees>-33.5337603092193603515625</LatitudeDegrees>
              <LongitudeDegrees>-70.23071517236530780792236328125</LongitudeDegrees>
            </Position>
            <AltitudeMeters>1766</AltitudeMeters>
            <DistanceMeters>3201.2469480975</DistanceMeters>
          </Trackpoint>
          <Trackpoint>
            <Time>2019-08-04T15:34:38.000Z</Time>
            <Position>
              <LatitudeDegrees>-33.53376005776226520538330078125</LatitudeDegrees>
              <LongitudeDegrees>-70.2307310141623020172119140625</LongitudeDegrees>
            </Position>
            <AltitudeMeters>1766.199951171875</AltitudeMeters>
            <DistanceMeters>3202.7160254509</DistanceMeters>
          </Trackpoint>
          <Trackpoint>
            <Time>2019-08-04T15:34:40.000Z</Time>
            <Position>
              <LatitudeDegrees>-33.53376567363739013671875</LatitudeDegrees>
              <LongitudeDegrees>-70.23075037635862827301025390625</LongitudeDegrees>
            </Position>
            <AltitudeMeters>1766.5999755859375</AltitudeMeters>
            <DistanceMeters>3204.6165597383</DistanceMeters>
          </Trackpoint>
          <Trackpoint>
            <Time>2019-08-04T15:34:45.000Z</Time>
            <Position>
              <LatitudeDegrees>-33.5337718762457370758056640625</LatitudeDegrees>
              <LongitudeDegrees>-70.23079195059835910797119140625</LongitudeDegrees>
            </Position>
            <AltitudeMeters>1767.4000244140625</AltitudeMeters>
            <DistanceMeters>3208.5346115443</DistanceMeters>
          </Trackpoint>
          <Trackpoint>
            <Time>2019-08-04T15:34:54.000Z</Time>
            <Position>
              <LatitudeDegrees>-33.5338045656681060791015625</LatitudeDegrees>
              <LongitudeDegrees>-70.23087426088750362396240234375</LongitudeDegrees>
            </Position>
            <AltitudeMeters>1768.199951171875</AltitudeMeters>
            <DistanceMeters>3216.9935905454</DistanceMeters>
          </Trackpoint>
          <Trackpoint>
            <Time>2019-08-04T15:34:57.000Z</Time>
            <Position>
              <LatitudeDegrees>-33.5338178090751171112060546875</LatitudeDegrees>
              <LongitudeDegrees>-70.23090544156730175018310546875</LongitudeDegrees>
            </Position>
            <AltitudeMeters>1768.4000244140625</AltitudeMeters>
            <DistanceMeters>3220.2412249594</DistanceMeters>
          </Trackpoint>
          <Trackpoint>
            <Time>2019-08-04T15:35:07.000Z</Time>
            <Position>
              <LatitudeDegrees>-33.53385561145842075347900390625</LatitudeDegrees>
              <LongitudeDegrees>-70.23098766803741455078125</LongitudeDegrees>
            </Position>
            <AltitudeMeters>1769.5999755859375</AltitudeMeters>
            <DistanceMeters>3228.9526405984</DistanceMeters>
          </Trackpoint>
          <Trackpoint>
            <Time>2019-08-04T15:35:09.000Z</Time>
            <Position>
              <LatitudeDegrees>-33.533855192363262176513671875</LatitudeDegrees>
              <LongitudeDegrees>-70.2309962175786495208740234375</LongitudeDegrees>
            </Position>
            <AltitudeMeters>1769.800048828125</AltitudeMeters>
            <DistanceMeters>3229.747691132</DistanceMeters>
          </Trackpoint>
          <Trackpoint>
            <Time>2019-08-04T15:35:16.000Z</Time>
            <Position>
              <LatitudeDegrees>-33.5338637419044971466064453125</LatitudeDegrees>
              <LongitudeDegrees>-70.23103653453290462493896484375</LongitudeDegrees>
            </Position>
            <AltitudeMeters>1770.5999755859375</AltitudeMeters>
            <DistanceMeters>3233.6076945171</DistanceMeters>
          </Trackpoint>
          <Trackpoint>
            <Time>2019-08-04T15:35:22.000Z</Time>
            <Position>
              <LatitudeDegrees>-33.5338848643004894256591796875</LatitudeDegrees>
              <LongitudeDegrees>-70.2310587465763092041015625</LongitudeDegrees>
            </Position>
            <AltitudeMeters>1771.5999755859375</AltitudeMeters>
            <DistanceMeters>3236.733481252</DistanceMeters>
          </Trackpoint>
          <Trackpoint>
            <Time>2019-08-04T15:35:23.000Z</Time>
            <Position>
              <LatitudeDegrees>-33.53388729505240917205810546875</LatitudeDegrees>
              <LongitudeDegrees>-70.2310622669756412506103515625</LongitudeDegrees>
            </Position>
            <AltitudeMeters>1771.5999755859375</AltitudeMeters>
            <DistanceMeters>3237.158453638</DistanceMeters>
          </Trackpoint>
          <Trackpoint>
            <Time>2019-08-04T15:35:32.000Z</Time>
            <Position>
              <LatitudeDegrees>-33.53391109965741634368896484375</LatitudeDegrees>
              <LongitudeDegrees>-70.2310941182076930999755859375</LongitudeDegrees>
            </Position>
            <AltitudeMeters>1772.800048828125</AltitudeMeters>
            <DistanceMeters>3241.1268857362</DistanceMeters>
          </Trackpoint>
          <Trackpoint>
            <Time>2019-08-04T15:35:34.000Z</Time>
            <Position>
              <LatitudeDegrees>-33.53391646407544612884521484375</LatitudeDegrees>
              <LongitudeDegrees>-70.2311112172901630401611328125</LongitudeDegrees>
            </Position>
            <AltitudeMeters>1773.199951171875</AltitudeMeters>
            <DistanceMeters>3242.8214547992</DistanceMeters>
          </Trackpoint>
          <Trackpoint>
            <Time>2019-08-04T15:35:40.000Z</Time>
            <Position>
              <LatitudeDegrees>-33.53393741883337497711181640625</LatitudeDegrees>
              <LongitudeDegrees>-70.2311524562537670135498046875</LongitudeDegrees>
            </Position>
            <AltitudeMeters>1773.800048828125</AltitudeMeters>
            <DistanceMeters>3247.3028485569</DistanceMeters>
          </Trackpoint>
          <Trackpoint>
            <Time>2019-08-04T15:35:45.000Z</Time>
            <Position>
              <LatitudeDegrees>-33.53395418263971805572509765625</LatitudeDegrees>
              <LongitudeDegrees>-70.231181792914867401123046875</LongitudeDegrees>
            </Position>
            <AltitudeMeters>1774.4000244140625</AltitudeMeters>
            <DistanceMeters>3250.6028897978</DistanceMeters>
          </Trackpoint>
          <Trackpoint>
            <Time>2019-08-04T15:35:48.000Z</Time>
            <Position>
              <LatitudeDegrees>-33.5339743830263614654541015625</LatitudeDegrees>
              <LongitudeDegrees>-70.23119109682738780975341796875</LongitudeDegrees>
            </Position>
            <AltitudeMeters>1774.800048828125</AltitudeMeters>
            <DistanceMeters>3253.0106499762</DistanceMeters>
          </Trackpoint>
          <Trackpoint>
            <Time>2019-08-04T15:35:54.000Z</Time>
            <Position>
              <LatitudeDegrees>-33.5340069048106670379638671875</LatitudeDegrees>
              <LongitudeDegrees>-70.2311806194484233856201171875</LongitudeDegrees>
            </Position>
            <AltitudeMeters>1775.4000244140625</AltitudeMeters>
            <DistanceMeters>3256.7590895111</DistanceMeters>
          </Trackpoint>
          <Trackpoint>
            <Time>2019-08-04T15:36:00.000Z</Time>
            <Position>
              <LatitudeDegrees>-33.5340203158557415008544921875</LatitudeDegrees>
              <LongitudeDegrees>-70.23117952980101108551025390625</LongitudeDegrees>
            </Position>
            <AltitudeMeters>1775.800048828125</AltitudeMeters>
            <DistanceMeters>3258.2525515567</DistanceMeters>
          </Trackpoint>
          <Trackpoint>
            <Time>2019-08-04T15:36:01.000Z</Time>
            <Position>
              <LatitudeDegrees>-33.53401503525674343109130859375</LatitudeDegrees>
              <LongitudeDegrees>-70.231167711317539215087890625</LongitudeDegrees>
            </Position>
            <AltitudeMeters>1775.800048828125</AltitudeMeters>
            <DistanceMeters>3259.4915483265</DistanceMeters>
          </Trackpoint>
          <Trackpoint>
            <Time>2019-08-04T15:36:06.000Z</Time>
            <Position>
              <LatitudeDegrees>-33.53402651846408843994140625</LatitudeDegrees>
              <LongitudeDegrees>-70.23116477765142917633056640625</LongitudeDegrees>
            </Position>
            <AltitudeMeters>1775.800048828125</AltitudeMeters>
            <DistanceMeters>3260.7979496614</DistanceMeters>
          </Trackpoint>
          <Trackpoint>
            <Time>2019-08-04T15:36:10.000Z</Time>
            <Position>
              <LatitudeDegrees>-33.53402358479797840118408203125</LatitudeDegrees>
              <LongitudeDegrees>-70.23117030970752239227294921875</LongitudeDegrees>
            </Position>
            <AltitudeMeters>1775.5999755859375</AltitudeMeters>
            <DistanceMeters>3261.4064175194</DistanceMeters>
          </Trackpoint>
          <Trackpoint>
            <Time>2019-08-04T15:36:14.000Z</Time>
            <Position>
              <LatitudeDegrees>-33.53401704691350460052490234375</LatitudeDegrees>
              <LongitudeDegrees>-70.23116938769817352294921875</LongitudeDegrees>
            </Position>
            <AltitudeMeters>1775.5999755859375</AltitudeMeters>
            <DistanceMeters>3262.1424912838</DistanceMeters>
          </Trackpoint>
          <Trackpoint>
            <Time>2019-08-04T15:36:19.000Z</Time>
            <Position>
              <LatitudeDegrees>-33.53400832973420619964599609375</LatitudeDegrees>
              <LongitudeDegrees>-70.23117550648748874664306640625</LongitudeDegrees>
            </Position>
            <AltitudeMeters>1775.4000244140625</AltitudeMeters>
            <DistanceMeters>3263.2628397232</DistanceMeters>
          </Trackpoint>
          <Trackpoint>
            <Time>2019-08-04T15:36:23.000Z</Time>
            <Position>
              <LatitudeDegrees>-33.5340109281241893768310546875</LatitudeDegrees>
              <LongitudeDegrees>-70.23118187673389911651611328125</LongitudeDegrees>
            </Position>
            <AltitudeMeters>1775.5999755859375</AltitudeMeters>
            <DistanceMeters>3263.9212041127</DistanceMeters>
          </Trackpoint>
          <Trackpoint>
            <Time>2019-08-04T15:36:24.000Z</Time>
            <Position>
              <LatitudeDegrees>-33.534010089933872222900390625</LatitudeDegrees>
              <LongitudeDegrees>-70.23118254728615283966064453125</LongitudeDegrees>
            </Position>
            <AltitudeMeters>1775.5999755859375</AltitudeMeters>
            <DistanceMeters>3264.0555921809</DistanceMeters>
          </Trackpoint>
          <Trackpoint>
            <Time>2019-08-04T15:36:26.000Z</Time>
            <Position>
              <LatitudeDegrees>-33.5340084135532379150390625</LatitudeDegrees>
              <LongitudeDegrees>-70.2311859838664531707763671875</LongitudeDegrees>
            </Position>
            <AltitudeMeters>1775.5999755859375</AltitudeMeters>
            <DistanceMeters>3264.4111495887</DistanceMeters>
          </Trackpoint>
          <Trackpoint>
            <Time>2019-08-04T15:36:32.000Z</Time>
            <Position>
              <LatitudeDegrees>-33.53400380350649356842041015625</LatitudeDegrees>
              <LongitudeDegrees>-70.2311886660754680633544921875</LongitudeDegrees>
            </Position>
            <AltitudeMeters>1776.199951171875</AltitudeMeters>
            <DistanceMeters>3264.9813098749</DistanceMeters>
          </Trackpoint>
          <Trackpoint>
            <Time>2019-08-04T15:36:36.000Z</Time>
            <Position>
              <LatitudeDegrees>-33.53400640189647674560546875</LatitudeDegrees>
              <LongitudeDegrees>-70.23118623532354831695556640625</LongitudeDegrees>
            </Position>
            <AltitudeMeters>1776.199951171875</AltitudeMeters>
            <DistanceMeters>3265.3614167324</DistanceMeters>
          </Trackpoint>
          <Trackpoint>
            <Time>2019-08-04T15:36:38.000Z</Time>
            <Position>
              <LatitudeDegrees>-33.53401218540966510772705078125</LatitudeDegrees>
              <LongitudeDegrees>-70.23118372075259685516357421875</LongitudeDegrees>
            </Position>
            <AltitudeMeters>1776.4000244140625</AltitudeMeters>
            <DistanceMeters>3266.0466641148</DistanceMeters>
          </Trackpoint>
          <Trackpoint>
            <Time>2019-08-04T15:36:41.000Z</Time>
            <Position>
              <LatitudeDegrees>-33.53401117958128452301025390625</LatitudeDegrees>
              <LongitudeDegrees>-70.23118271492421627044677734375</LongitudeDegrees>
            </Position>
            <AltitudeMeters>1776.4000244140625</AltitudeMeters>
            <DistanceMeters>3266.181052183</DistanceMeters>
          </Trackpoint>
          <Trackpoint>
            <Time>2019-08-04T15:36:44.000Z</Time>
            <Position>
              <LatitudeDegrees>-33.53401352651417255401611328125</LatitudeDegrees>
              <LongitudeDegrees>-70.23118422366678714752197265625</LongitudeDegrees>
            </Position>
            <AltitudeMeters>1776.4000244140625</AltitudeMeters>
            <DistanceMeters>3266.481553039</DistanceMeters>
          </Trackpoint>
          <Trackpoint>
            <Time>2019-08-04T15:36:52.000Z</Time>
            <Position>
              <LatitudeDegrees>-33.5340139456093311309814453125</LatitudeDegrees>
              <LongitudeDegrees>-70.23118372075259685516357421875</LongitudeDegrees>
            </Position>
            <AltitudeMeters>1776.4000244140625</AltitudeMeters>
            <DistanceMeters>3266.481553039</DistanceMeters>
          </Trackpoint>
          <Trackpoint>
            <Time>2019-08-04T15:36:53.000Z</Time>
            <Position>
              <LatitudeDegrees>-33.5340139456093311309814453125</LatitudeDegrees>
              <LongitudeDegrees>-70.23118355311453342437744140625</LongitudeDegrees>
            </Position>
            <AltitudeMeters>1776.4000244140625</AltitudeMeters>
            <DistanceMeters>3266.481553039</DistanceMeters>
          </Trackpoint>
          <Trackpoint>
            <Time>2019-08-04T15:37:08.000Z</Time>
            <Position>
              <LatitudeDegrees>-33.5340229980647563934326171875</LatitudeDegrees>
              <LongitudeDegrees>-70.23119143210351467132568359375</LongitudeDegrees>
            </Position>
            <AltitudeMeters>1776</AltitudeMeters>
            <DistanceMeters>3267.7205498088</DistanceMeters>
          </Trackpoint>
          <Trackpoint>
            <Time>2019-08-04T15:37:10.000Z</Time>
            <Position>
              <LatitudeDegrees>-33.53402626700699329376220703125</LatitudeDegrees>
              <LongitudeDegrees>-70.23119227029383182525634765625</LongitudeDegrees>
            </Position>
            <AltitudeMeters>1776</AltitudeMeters>
            <DistanceMeters>3268.088586691</DistanceMeters>
          </Trackpoint>
          <Trackpoint>
            <Time>2019-08-04T15:37:23.000Z</Time>
            <Position>
              <LatitudeDegrees>-33.53403716348111629486083984375</LatitudeDegrees>
              <LongitudeDegrees>-70.231167711317539215087890625</LongitudeDegrees>
            </Position>
            <AltitudeMeters>1775.800048828125</AltitudeMeters>
            <DistanceMeters>3270.6700971821</DistanceMeters>
          </Trackpoint>
          <Trackpoint>
            <Time>2019-08-04T15:37:27.000Z</Time>
            <Position>
              <LatitudeDegrees>-33.53404236026108264923095703125</LatitudeDegrees>
              <LongitudeDegrees>-70.2311688847839832305908203125</LongitudeDegrees>
            </Position>
            <AltitudeMeters>1775.800048828125</AltitudeMeters>
            <DistanceMeters>3271.2481221196</DistanceMeters>
          </Trackpoint>
          <Trackpoint>
            <Time>2019-08-04T15:37:40.000Z</Time>
            <Position>
              <LatitudeDegrees>-33.53403456509113311767578125</LatitudeDegrees>
              <LongitudeDegrees>-70.23116796277463436126708984375</LongitudeDegrees>
            </Position>
            <AltitudeMeters>1775.800048828125</AltitudeMeters>
            <DistanceMeters>3272.1190563429</DistanceMeters>
          </Trackpoint>
          <Trackpoint>
            <Time>2019-08-04T15:37:43.000Z</Time>
            <Position>
              <LatitudeDegrees>-33.534032888710498809814453125</LatitudeDegrees>
              <LongitudeDegrees>-70.2311672084033489227294921875</LongitudeDegrees>
            </Position>
            <AltitudeMeters>1775.800048828125</AltitudeMeters>
            <DistanceMeters>3272.3091097716</DistanceMeters>
          </Trackpoint>
          <Trackpoint>
            <Time>2019-08-04T15:37:48.000Z</Time>
            <Position>
              <LatitudeDegrees>-33.53403984569013118743896484375</LatitudeDegrees>
              <LongitudeDegrees>-70.231178104877471923828125</LongitudeDegrees>
            </Position>
            <AltitudeMeters>1775.800048828125</AltitudeMeters>
            <DistanceMeters>3273.5840269297</DistanceMeters>
          </Trackpoint>
          <Trackpoint>
            <Time>2019-08-04T15:37:55.000Z</Time>
            <Position>
              <LatitudeDegrees>-33.5340551845729351043701171875</LatitudeDegrees>
              <LongitudeDegrees>-70.23118355311453342437744140625</LongitudeDegrees>
            </Position>
            <AltitudeMeters>1775.800048828125</AltitudeMeters>
            <DistanceMeters>3275.3668861244</DistanceMeters>
          </Trackpoint>
          <Trackpoint>
            <Time>2019-08-04T15:38:00.000Z</Time>
            <Position>
              <LatitudeDegrees>-33.534056358039379119873046875</LatitudeDegrees>
              <LongitudeDegrees>-70.23118539713323116302490234375</LongitudeDegrees>
            </Position>
            <AltitudeMeters>1775.800048828125</AltitudeMeters>
            <DistanceMeters>3275.5793723175</DistanceMeters>
          </Trackpoint>
          <Trackpoint>
            <Time>2019-08-04T15:38:13.000Z</Time>
            <Position>
              <LatitudeDegrees>-33.53403448127210140228271484375</LatitudeDegrees>
              <LongitudeDegrees>-70.23120031692087650299072265625</LongitudeDegrees>
            </Position>
            <AltitudeMeters>1775.5999755859375</AltitudeMeters>
            <DistanceMeters>3278.3822577069</DistanceMeters>
          </Trackpoint>
          <Trackpoint>
            <Time>2019-08-04T15:38:31.000Z</Time>
            <Position>
              <LatitudeDegrees>-33.534022830426692962646484375</LatitudeDegrees>
              <LongitudeDegrees>-70.23119729943573474884033203125</LongitudeDegrees>
            </Position>
            <AltitudeMeters>1776</AltitudeMeters>
            <DistanceMeters>3279.7058266813</DistanceMeters>
          </Trackpoint>
          <Trackpoint>
            <Time>2019-08-04T15:38:45.000Z</Time>
            <Position>
              <LatitudeDegrees>-33.53400296531617641448974609375</LatitudeDegrees>
              <LongitudeDegrees>-70.23116075433790683746337890625</LongitudeDegrees>
            </Position>
            <AltitudeMeters>1776</AltitudeMeters>
            <DistanceMeters>3283.7542323855</DistanceMeters>
          </Trackpoint>
          <Trackpoint>
            <Time>2019-08-04T15:38:49.000Z</Time>
            <Position>
              <LatitudeDegrees>-33.53400237858295440673828125</LatitudeDegrees>
              <LongitudeDegrees>-70.2311594970524311065673828125</LongitudeDegrees>
            </Position>
            <AltitudeMeters>1776</AltitudeMeters>
            <DistanceMeters>3283.8886204538</DistanceMeters>
          </Trackpoint>
          <Trackpoint>
            <Time>2019-08-04T15:38:51.000Z</Time>
            <Position>
              <LatitudeDegrees>-33.53400229476392269134521484375</LatitudeDegrees>
              <LongitudeDegrees>-70.2311554737389087677001953125</LongitudeDegrees>
            </Position>
            <AltitudeMeters>1776</AltitudeMeters>
            <DistanceMeters>3284.2687273113</DistanceMeters>
          </Trackpoint>
          <Trackpoint>
            <Time>2019-08-04T15:38:55.000Z</Time>
            <Position>
              <LatitudeDegrees>-33.53401101194322109222412109375</LatitudeDegrees>
              <LongitudeDegrees>-70.231148265302181243896484375</LongitudeDegrees>
            </Position>
            <AltitudeMeters>1776</AltitudeMeters>
            <DistanceMeters>3285.4479778242</DistanceMeters>
          </Trackpoint>
          <Trackpoint>
            <Time>2019-08-04T15:39:02.000Z</Time>
            <Position>
              <LatitudeDegrees>-33.5340169630944728851318359375</LatitudeDegrees>
              <LongitudeDegrees>-70.231159664690494537353515625</LongitudeDegrees>
            </Position>
            <AltitudeMeters>1776</AltitudeMeters>
            <DistanceMeters>3286.6942414995</DistanceMeters>
          </Trackpoint>
          <Trackpoint>
            <Time>2019-08-04T15:39:05.000Z</Time>
            <Position>
              <LatitudeDegrees>-33.53401687927544116973876953125</LatitudeDegrees>
              <LongitudeDegrees>-70.23116670548915863037109375</LongitudeDegrees>
            </Position>
            <AltitudeMeters>1776</AltitudeMeters>
            <DistanceMeters>3287.3387440336</DistanceMeters>
          </Trackpoint>
          <Trackpoint>
            <Time>2019-08-04T15:39:09.000Z</Time>
            <Position>
              <LatitudeDegrees>-33.53402224369347095489501953125</LatitudeDegrees>
              <LongitudeDegrees>-70.23118455894291400909423828125</LongitudeDegrees>
            </Position>
            <AltitudeMeters>1776</AltitudeMeters>
            <DistanceMeters>3289.1012270255</DistanceMeters>
          </Trackpoint>
          <Trackpoint>
            <Time>2019-08-04T15:39:18.000Z</Time>
            <Position>
              <LatitudeDegrees>-33.534008078277111053466796875</LatitudeDegrees>
              <LongitudeDegrees>-70.23116025142371654510498046875</LongitudeDegrees>
            </Position>
            <AltitudeMeters>1776</AltitudeMeters>
            <DistanceMeters>3291.8537230085</DistanceMeters>
          </Trackpoint>
          <Trackpoint>
            <Time>2019-08-04T15:39:25.000Z</Time>
            <Position>
              <LatitudeDegrees>-33.5340119339525699615478515625</LatitudeDegrees>
              <LongitudeDegrees>-70.23115857504308223724365234375</LongitudeDegrees>
            </Position>
            <AltitudeMeters>1776</AltitudeMeters>
            <DistanceMeters>3292.3192569328</DistanceMeters>
          </Trackpoint>
          <Trackpoint>
            <Time>2019-08-04T15:39:26.000Z</Time>
            <Position>
              <LatitudeDegrees>-33.53401218540966510772705078125</LatitudeDegrees>
              <LongitudeDegrees>-70.231158323585987091064453125</LongitudeDegrees>
            </Position>
            <AltitudeMeters>1776</AltitudeMeters>
            <DistanceMeters>3292.3192569328</DistanceMeters>
          </Trackpoint>
          <Trackpoint>
            <Time>2019-08-04T15:39:27.000Z</Time>
            <Position>
              <LatitudeDegrees>-33.5340129397809505462646484375</LatitudeDegrees>
              <LongitudeDegrees>-70.23115555755794048309326171875</LongitudeDegrees>
            </Position>
            <AltitudeMeters>1776</AltitudeMeters>
            <DistanceMeters>3292.5880330693</DistanceMeters>
          </Trackpoint>
          <Trackpoint>
            <Time>2019-08-04T15:39:29.000Z</Time>
            <Position>
              <LatitudeDegrees>-33.53401855565607547760009765625</LatitudeDegrees>
              <LongitudeDegrees>-70.23115522228181362152099609375</LongitudeDegrees>
            </Position>
            <AltitudeMeters>1776.199951171875</AltitudeMeters>
            <DistanceMeters>3293.2038765645</DistanceMeters>
          </Trackpoint>
          <Trackpoint>
            <Time>2019-08-04T15:39:31.000Z</Time>
            <Position>
              <LatitudeDegrees>-33.5340223275125026702880859375</LatitudeDegrees>
              <LongitudeDegrees>-70.2311564795672893524169921875</LongitudeDegrees>
            </Position>
            <AltitudeMeters>1776.199951171875</AltitudeMeters>
            <DistanceMeters>3293.6288489506</DistanceMeters>
          </Trackpoint>
          <Trackpoint>
            <Time>2019-08-04T15:39:33.000Z</Time>
            <Position>
              <LatitudeDegrees>-33.534026183187961578369140625</LatitudeDegrees>
              <LongitudeDegrees>-70.23115991614758968353271484375</LongitudeDegrees>
            </Position>
            <AltitudeMeters>1776.199951171875</AltitudeMeters>
            <DistanceMeters>3294.1579353043</DistanceMeters>
          </Trackpoint>
          <Trackpoint>
            <Time>2019-08-04T15:39:34.000Z</Time>
            <Position>
              <LatitudeDegrees>-33.5340240038931369781494140625</LatitudeDegrees>
              <LongitudeDegrees>-70.23116804659366607666015625</LongitudeDegrees>
            </Position>
            <AltitudeMeters>1776.199951171875</AltitudeMeters>
            <DistanceMeters>3294.952985838</DistanceMeters>
          </Trackpoint>
          <Trackpoint>
            <Time>2019-08-04T15:39:36.000Z</Time>
            <Position>
              <LatitudeDegrees>-33.53402961976826190948486328125</LatitudeDegrees>
              <LongitudeDegrees>-70.23117349483072757720947265625</LongitudeDegrees>
            </Position>
            <AltitudeMeters>1776.199951171875</AltitudeMeters>
            <DistanceMeters>3295.7593142475</DistanceMeters>
          </Trackpoint>
          <Trackpoint>
            <Time>2019-08-04T15:39:40.000Z</Time>
            <Position>
              <LatitudeDegrees>-33.53403599001467227935791015625</LatitudeDegrees>
              <LongitudeDegrees>-70.23117877542972564697265625</LongitudeDegrees>
            </Position>
            <AltitudeMeters>1776.199951171875</AltitudeMeters>
            <DistanceMeters>3296.6198177445</DistanceMeters>
          </Trackpoint>
          <Trackpoint>
            <Time>2019-08-04T15:39:48.000Z</Time>
            <Position>
              <LatitudeDegrees>-33.53404127061367034912109375</LatitudeDegrees>
              <LongitudeDegrees>-70.2311873249709606170654296875</LongitudeDegrees>
            </Position>
            <AltitudeMeters>1776</AltitudeMeters>
            <DistanceMeters>3297.6073643287</DistanceMeters>
          </Trackpoint>
          <Trackpoint>
            <Time>2019-08-04T15:39:49.000Z</Time>
            <Position>
              <LatitudeDegrees>-33.53404068388044834136962890625</LatitudeDegrees>
              <LongitudeDegrees>-70.23118942044675350189208984375</LongitudeDegrees>
            </Position>
            <AltitudeMeters>1776</AltitudeMeters>
            <DistanceMeters>3297.7974177575</DistanceMeters>
          </Trackpoint>
          <Trackpoint>
            <Time>2019-08-04T15:39:59.000Z</Time>
            <Position>
              <LatitudeDegrees>-33.53402542881667613983154296875</LatitudeDegrees>
              <LongitudeDegrees>-70.23121942766010761260986328125</LongitudeDegrees>
            </Position>
            <AltitudeMeters>1776</AltitudeMeters>
            <DistanceMeters>3301.0561552274</DistanceMeters>
          </Trackpoint>
          <Trackpoint>
            <Time>2019-08-04T15:40:01.000Z</Time>
            <Position>
              <LatitudeDegrees>-33.53402383625507354736328125</LatitudeDegrees>
              <LongitudeDegrees>-70.231220684945583343505859375</LongitudeDegrees>
            </Position>
            <AltitudeMeters>1776</AltitudeMeters>
            <DistanceMeters>3301.2462086562</DistanceMeters>
          </Trackpoint>
          <Trackpoint>
            <Time>2019-08-04T15:40:06.000Z</Time>
            <Position>
              <LatitudeDegrees>-33.53401981294155120849609375</LatitudeDegrees>
              <LongitudeDegrees>-70.23120970465242862701416015625</LongitudeDegrees>
            </Position>
            <AltitudeMeters>1776</AltitudeMeters>
            <DistanceMeters>3302.3625197908</DistanceMeters>
          </Trackpoint>
          <Trackpoint>
            <Time>2019-08-04T15:40:13.000Z</Time>
            <Position>
              <LatitudeDegrees>-33.53401847183704376220703125</LatitudeDegrees>
              <LongitudeDegrees>-70.23120584897696971893310546875</LongitudeDegrees>
            </Position>
            <AltitudeMeters>1776</AltitudeMeters>
            <DistanceMeters>3302.7426266483</DistanceMeters>
          </Trackpoint>
          <Trackpoint>
            <Time>2019-08-04T15:40:19.000Z</Time>
            <Position>
              <LatitudeDegrees>-33.53401587344706058502197265625</LatitudeDegrees>
              <LongitudeDegrees>-70.23119998164474964141845703125</LongitudeDegrees>
            </Position>
            <AltitudeMeters>1776</AltitudeMeters>
            <DistanceMeters>3303.3584701435</DistanceMeters>
          </Trackpoint>
          <Trackpoint>
            <Time>2019-08-04T15:40:24.000Z</Time>
            <Position>
              <LatitudeDegrees>-33.53401788510382175445556640625</LatitudeDegrees>
              <LongitudeDegrees>-70.23119830526411533355712890625</LongitudeDegrees>
            </Position>
            <AltitudeMeters>1776</AltitudeMeters>
            <DistanceMeters>3303.62724628</DistanceMeters>
          </Trackpoint>
          <Trackpoint>
            <Time>2019-08-04T15:40:35.000Z</Time>
            <Position>
              <LatitudeDegrees>-33.53401671163737773895263671875</LatitudeDegrees>
              <LongitudeDegrees>-70.2311890013515949249267578125</LongitudeDegrees>
            </Position>
            <AltitudeMeters>1776</AltitudeMeters>
            <DistanceMeters>3304.508487776</DistanceMeters>
          </Trackpoint>
          <Trackpoint>
            <Time>2019-08-04T15:40:36.000Z</Time>
            <Position>
              <LatitudeDegrees>-33.53401620872318744659423828125</LatitudeDegrees>
              <LongitudeDegrees>-70.23118841461837291717529296875</LongitudeDegrees>
            </Position>
            <AltitudeMeters>1776</AltitudeMeters>
            <DistanceMeters>3304.508487776</DistanceMeters>
          </Trackpoint>
          <Trackpoint>
            <Time>2019-08-04T15:40:37.000Z</Time>
            <Position>
              <LatitudeDegrees>-33.534016124904155731201171875</LatitudeDegrees>
              <LongitudeDegrees>-70.23118640296161174774169921875</LongitudeDegrees>
            </Position>
            <AltitudeMeters>1776</AltitudeMeters>
            <DistanceMeters>3304.6985412047</DistanceMeters>
          </Trackpoint>
          <Trackpoint>
            <Time>2019-08-04T15:40:48.000Z</Time>
            <Position>
              <LatitudeDegrees>-33.5340169630944728851318359375</LatitudeDegrees>
              <LongitudeDegrees>-70.23118145763874053955078125</LongitudeDegrees>
            </Position>
            <AltitudeMeters>1776</AltitudeMeters>
            <DistanceMeters>3305.164075129</DistanceMeters>
          </Trackpoint>
          <Trackpoint>
            <Time>2019-08-04T15:40:56.000Z</Time>
            <Position>
              <LatitudeDegrees>-33.5340176336467266082763671875</LatitudeDegrees>
              <LongitudeDegrees>-70.23118682205677032470703125</LongitudeDegrees>
            </Position>
            <AltitudeMeters>1776</AltitudeMeters>
            <DistanceMeters>3305.6669092372</DistanceMeters>
          </Trackpoint>
          <Trackpoint>
            <Time>2019-08-04T15:41:09.000Z</Time>
            <Position>
              <LatitudeDegrees>-33.5340075753629207611083984375</LatitudeDegrees>
              <LongitudeDegrees>-70.231188498437404632568359375</LongitudeDegrees>
            </Position>
            <AltitudeMeters>1776</AltitudeMeters>
            <DistanceMeters>3306.799283228</DistanceMeters>
          </Trackpoint>
          <Trackpoint>
            <Time>2019-08-04T15:41:14.000Z</Time>
            <Position>
              <LatitudeDegrees>-33.534003384411334991455078125</LatitudeDegrees>
              <LongitudeDegrees>-70.2311874926090240478515625</LongitudeDegrees>
            </Position>
            <AltitudeMeters>1776</AltitudeMeters>
            <DistanceMeters>3307.2744167999</DistanceMeters>
          </Trackpoint>
          <Trackpoint>
            <Time>2019-08-04T15:41:32.000Z</Time>
            <Position>
              <LatitudeDegrees>-33.534013442695140838623046875</LatitudeDegrees>
              <LongitudeDegrees>-70.23118590004742145538330078125</LongitudeDegrees>
            </Position>
            <AltitudeMeters>1776</AltitudeMeters>
            <DistanceMeters>3308.4027965137</DistanceMeters>
          </Trackpoint>
          <Trackpoint>
            <Time>2019-08-04T15:41:43.000Z</Time>
            <Position>
              <LatitudeDegrees>-33.5340105928480625152587890625</LatitudeDegrees>
              <LongitudeDegrees>-70.23119084537029266357421875</LongitudeDegrees>
            </Position>
            <AltitudeMeters>1776</AltitudeMeters>
            <DistanceMeters>3308.9649821375</DistanceMeters>
          </Trackpoint>
          <Trackpoint>
            <Time>2019-08-04T15:41:44.000Z</Time>
            <Position>
              <LatitudeDegrees>-33.534009419381618499755859375</LatitudeDegrees>
              <LongitudeDegrees>-70.23118858225643634796142578125</LongitudeDegrees>
            </Position>
            <AltitudeMeters>1776</AltitudeMeters>
            <DistanceMeters>3309.1977490996</DistanceMeters>
          </Trackpoint>
          <Trackpoint>
            <Time>2019-08-04T15:41:45.000Z</Time>
            <Position>
              <LatitudeDegrees>-33.534007407724857330322265625</LatitudeDegrees>
              <LongitudeDegrees>-70.231185816228389739990234375</LongitudeDegrees>
            </Position>
            <AltitudeMeters>1776</AltitudeMeters>
            <DistanceMeters>3309.5533065074</DistanceMeters>
          </Trackpoint>
          <Trackpoint>
            <Time>2019-08-04T15:41:46.000Z</Time>
            <Position>
              <LatitudeDegrees>-33.534006066620349884033203125</LatitudeDegrees>
              <LongitudeDegrees>-70.23118321783840656280517578125</LongitudeDegrees>
            </Position>
            <AltitudeMeters>1776</AltitudeMeters>
            <DistanceMeters>3309.8383866505</DistanceMeters>
          </Trackpoint>
          <Trackpoint>
            <Time>2019-08-04T15:41:48.000Z</Time>
            <Position>
              <LatitudeDegrees>-33.53400631807744503021240234375</LatitudeDegrees>
              <LongitudeDegrees>-70.231183469295501708984375</LongitudeDegrees>
            </Position>
            <AltitudeMeters>1776</AltitudeMeters>
            <DistanceMeters>3309.8383866505</DistanceMeters>
          </Trackpoint>
          <Trackpoint>
            <Time>2019-08-04T15:41:51.000Z</Time>
            <Position>
              <LatitudeDegrees>-33.53400631807744503021240234375</LatitudeDegrees>
              <LongitudeDegrees>-70.23118405602872371673583984375</LongitudeDegrees>
            </Position>
            <AltitudeMeters>1776</AltitudeMeters>
            <DistanceMeters>3309.8383866505</DistanceMeters>
          </Trackpoint>
          <Trackpoint>
            <Time>2019-08-04T15:41:55.000Z</Time>
            <Position>
              <LatitudeDegrees>-33.5340062342584133148193359375</LatitudeDegrees>
              <LongitudeDegrees>-70.231181792914867401123046875</LongitudeDegrees>
            </Position>
            <AltitudeMeters>1776</AltitudeMeters>
            <DistanceMeters>3310.0508728435</DistanceMeters>
          </Trackpoint>
          <Trackpoint>
            <Time>2019-08-04T15:41:58.000Z</Time>
            <Position>
              <LatitudeDegrees>-33.5340058989822864532470703125</LatitudeDegrees>
              <LongitudeDegrees>-70.231181122362613677978515625</LongitudeDegrees>
            </Position>
            <AltitudeMeters>1776</AltitudeMeters>
            <DistanceMeters>3310.1458995579</DistanceMeters>
          </Trackpoint>
          <Trackpoint>
            <Time>2019-08-04T15:42:03.000Z</Time>
            <Position>
              <LatitudeDegrees>-33.53400732390582561492919921875</LatitudeDegrees>
              <LongitudeDegrees>-70.23118137381970882415771484375</LongitudeDegrees>
            </Position>
            <AltitudeMeters>1776</AltitudeMeters>
            <DistanceMeters>3310.2802876261</DistanceMeters>
          </Trackpoint>
          <Trackpoint>
            <Time>2019-08-04T15:42:05.000Z</Time>
            <Position>
              <LatitudeDegrees>-33.534006737172603607177734375</LatitudeDegrees>
              <LongitudeDegrees>-70.23118078708648681640625</LongitudeDegrees>
            </Position>
            <AltitudeMeters>1776</AltitudeMeters>
            <DistanceMeters>3310.2802876261</DistanceMeters>
          </Trackpoint>
          <Trackpoint>
            <Time>2019-08-04T15:42:09.000Z</Time>
            <Position>
              <LatitudeDegrees>-33.53400715626776218414306640625</LatitudeDegrees>
              <LongitudeDegrees>-70.231178104877471923828125</LongitudeDegrees>
            </Position>
            <AltitudeMeters>1776</AltitudeMeters>
            <DistanceMeters>3310.5130545882</DistanceMeters>
          </Trackpoint>
          <Trackpoint>
            <Time>2019-08-04T15:42:16.000Z</Time>
            <Position>
              <LatitudeDegrees>-33.5340022109448909759521484375</LatitudeDegrees>
              <LongitudeDegrees>-70.23117366246879100799560546875</LongitudeDegrees>
            </Position>
            <AltitudeMeters>1776</AltitudeMeters>
            <DistanceMeters>3311.1983019706</DistanceMeters>
          </Trackpoint>
          <Trackpoint>
            <Time>2019-08-04T15:42:20.000Z</Time>
            <Position>
              <LatitudeDegrees>-33.5339988581836223602294921875</LatitudeDegrees>
              <LongitudeDegrees>-70.2311722375452518463134765625</LongitudeDegrees>
            </Position>
            <AltitudeMeters>1776</AltitudeMeters>
            <DistanceMeters>3311.6014661754</DistanceMeters>
          </Trackpoint>
          <Trackpoint>
            <Time>2019-08-04T15:42:29.000Z</Time>
            <Position>
              <LatitudeDegrees>-33.53400464169681072235107421875</LatitudeDegrees>
              <LongitudeDegrees>-70.23117701523005962371826171875</LongitudeDegrees>
            </Position>
            <AltitudeMeters>1776</AltitudeMeters>
            <DistanceMeters>3312.3850765366</DistanceMeters>
          </Trackpoint>
          <Trackpoint>
            <Time>2019-08-04T15:42:34.000Z</Time>
            <Position>
              <LatitudeDegrees>-33.53400615043938159942626953125</LatitudeDegrees>
              <LongitudeDegrees>-70.2311762608587741851806640625</LongitudeDegrees>
            </Position>
            <AltitudeMeters>1776</AltitudeMeters>
            <DistanceMeters>3312.5751299653</DistanceMeters>
          </Trackpoint>
          <Trackpoint>
            <Time>2019-08-04T15:42:38.000Z</Time>
            <Position>
              <LatitudeDegrees>-33.53400547988712787628173828125</LatitudeDegrees>
              <LongitudeDegrees>-70.23117047734558582305908203125</LongitudeDegrees>
            </Position>
            <AltitudeMeters>1776</AltitudeMeters>
            <DistanceMeters>3313.1126822383</DistanceMeters>
          </Trackpoint>
          <Trackpoint>
            <Time>2019-08-04T15:42:39.000Z</Time>
            <Position>
              <LatitudeDegrees>-33.53400170803070068359375</LatitudeDegrees>
              <LongitudeDegrees>-70.23117517121136188507080078125</LongitudeDegrees>
            </Position>
            <AltitudeMeters>1776</AltitudeMeters>
            <DistanceMeters>3313.7136839503</DistanceMeters>
          </Trackpoint>
          <Trackpoint>
            <Time>2019-08-04T15:42:46.000Z</Time>
            <Position>
              <LatitudeDegrees>-33.53398687206208705902099609375</LatitudeDegrees>
              <LongitudeDegrees>-70.231183134019374847412109375</LongitudeDegrees>
            </Position>
            <AltitudeMeters>1776</AltitudeMeters>
            <DistanceMeters>3315.5216904969</DistanceMeters>
          </Trackpoint>
          <Trackpoint>
            <Time>2019-08-04T15:42:50.000Z</Time>
            <Position>
              <LatitudeDegrees>-33.53398167528212070465087890625</LatitudeDegrees>
              <LongitudeDegrees>-70.2311856485903263092041015625</LongitudeDegrees>
            </Position>
            <AltitudeMeters>1776</AltitudeMeters>
            <DistanceMeters>3316.1520264102</DistanceMeters>
          </Trackpoint>
          <Trackpoint>
            <Time>2019-08-04T15:42:55.000Z</Time>
            <Position>
              <LatitudeDegrees>-33.533983267843723297119140625</LatitudeDegrees>
              <LongitudeDegrees>-70.2311879955232143402099609375</LongitudeDegrees>
            </Position>
            <AltitudeMeters>1776</AltitudeMeters>
            <DistanceMeters>3316.4525272662</DistanceMeters>
          </Trackpoint>
          <Trackpoint>
            <Time>2019-08-04T15:42:57.000Z</Time>
            <Position>
              <LatitudeDegrees>-33.5339841060340404510498046875</LatitudeDegrees>
              <LongitudeDegrees>-70.23119092918932437896728515625</LongitudeDegrees>
            </Position>
            <AltitudeMeters>1776</AltitudeMeters>
            <DistanceMeters>3316.7530281221</DistanceMeters>
          </Trackpoint>
          <Trackpoint>
            <Time>2019-08-04T15:43:12.000Z</Time>
            <Position>
              <LatitudeDegrees>-33.5339824296534061431884765625</LatitudeDegrees>
              <LongitudeDegrees>-70.23120568133890628814697265625</LongitudeDegrees>
            </Position>
            <AltitudeMeters>1776</AltitudeMeters>
            <DistanceMeters>3318.1366379682</DistanceMeters>
          </Trackpoint>
          <Trackpoint>
            <Time>2019-08-04T15:43:13.000Z</Time>
            <Position>
              <LatitudeDegrees>-33.53398318402469158172607421875</LatitudeDegrees>
              <LongitudeDegrees>-70.2312061004340648651123046875</LongitudeDegrees>
            </Position>
            <AltitudeMeters>1776</AltitudeMeters>
            <DistanceMeters>3318.2316646826</DistanceMeters>
          </Trackpoint>
          <Trackpoint>
            <Time>2019-08-04T15:43:24.000Z</Time>
            <Position>
              <LatitudeDegrees>-33.5339901410043239593505859375</LatitudeDegrees>
              <LongitudeDegrees>-70.23121238686144351959228515625</LongitudeDegrees>
            </Position>
            <AltitudeMeters>1776</AltitudeMeters>
            <DistanceMeters>3319.2007508243</DistanceMeters>
          </Trackpoint>
          <Trackpoint>
            <Time>2019-08-04T15:43:29.000Z</Time>
            <Position>
              <LatitudeDegrees>-33.5339887998998165130615234375</LatitudeDegrees>
              <LongitudeDegrees>-70.23121498525142669677734375</LongitudeDegrees>
            </Position>
            <AltitudeMeters>1776</AltitudeMeters>
            <DistanceMeters>3319.4695269608</DistanceMeters>
          </Trackpoint>
          <Trackpoint>
            <Time>2019-08-04T15:43:35.000Z</Time>
            <Position>
              <LatitudeDegrees>-33.53400279767811298370361328125</LatitudeDegrees>
              <LongitudeDegrees>-70.2312201820313930511474609375</LongitudeDegrees>
            </Position>
            <AltitudeMeters>1776</AltitudeMeters>
            <DistanceMeters>3321.0988956958</DistanceMeters>
          </Trackpoint>
          <Trackpoint>
            <Time>2019-08-04T15:43:36.000Z</Time>
            <Position>
              <LatitudeDegrees>-33.5340062342584133148193359375</LatitudeDegrees>
              <LongitudeDegrees>-70.23122009821236133575439453125</LongitudeDegrees>
            </Position>
            <AltitudeMeters>1776</AltitudeMeters>
            <DistanceMeters>3321.4790025533</DistanceMeters>
          </Trackpoint>
          <Trackpoint>
            <Time>2019-08-04T15:43:40.000Z</Time>
            <Position>
              <LatitudeDegrees>-33.53400832973420619964599609375</LatitudeDegrees>
              <LongitudeDegrees>-70.231217332184314727783203125</LongitudeDegrees>
            </Position>
            <AltitudeMeters>1776</AltitudeMeters>
            <DistanceMeters>3321.8216262445</DistanceMeters>
          </Trackpoint>
          <Trackpoint>
            <Time>2019-08-04T15:43:48.000Z</Time>
            <Position>
              <LatitudeDegrees>-33.5340030491352081298828125</LatitudeDegrees>
              <LongitudeDegrees>-70.2312433160841464996337890625</LongitudeDegrees>
            </Position>
            <AltitudeMeters>1776</AltitudeMeters>
            <DistanceMeters>3324.3014411687</DistanceMeters>
          </Trackpoint>
          <Trackpoint>
            <Time>2019-08-04T15:43:49.000Z</Time>
            <Position>
              <LatitudeDegrees>-33.53400103747844696044921875</LatitudeDegrees>
              <LongitudeDegrees>-70.2312476746737957000732421875</LongitudeDegrees>
            </Position>
            <AltitudeMeters>1776</AltitudeMeters>
            <DistanceMeters>3324.766975093</DistanceMeters>
          </Trackpoint>
          <Trackpoint>
            <Time>2019-08-04T15:43:50.000Z</Time>
            <Position>
              <LatitudeDegrees>-33.533996678888797760009765625</LatitudeDegrees>
              <LongitudeDegrees>-70.2312503568828105926513671875</LongitudeDegrees>
            </Position>
            <AltitudeMeters>1776</AltitudeMeters>
            <DistanceMeters>3325.3128620068</DistanceMeters>
          </Trackpoint>
          <Trackpoint>
            <Time>2019-08-04T15:43:51.000Z</Time>
            <Position>
              <LatitudeDegrees>-33.53399257175624370574951171875</LatitudeDegrees>
              <LongitudeDegrees>-70.23125429637730121612548828125</LongitudeDegrees>
            </Position>
            <AltitudeMeters>1776</AltitudeMeters>
            <DistanceMeters>3325.9063036478</DistanceMeters>
          </Trackpoint>
          <Trackpoint>
            <Time>2019-08-04T15:43:53.000Z</Time>
            <Position>
              <LatitudeDegrees>-33.533986620604991912841796875</LatitudeDegrees>
              <LongitudeDegrees>-70.23125932551920413970947265625</LongitudeDegrees>
            </Position>
            <AltitudeMeters>1776</AltitudeMeters>
            <DistanceMeters>3326.7182122513</DistanceMeters>
          </Trackpoint>
          <Trackpoint>
            <Time>2019-08-04T15:43:56.000Z</Time>
            <Position>
              <LatitudeDegrees>-33.53398896753787994384765625</LatitudeDegrees>
              <LongitudeDegrees>-70.23127189837396144866943359375</LongitudeDegrees>
            </Position>
            <AltitudeMeters>1776</AltitudeMeters>
            <DistanceMeters>3327.9126795293</DistanceMeters>
          </Trackpoint>
          <Trackpoint>
            <Time>2019-08-04T15:44:00.000Z</Time>
            <Position>
              <LatitudeDegrees>-33.533996008336544036865234375</LatitudeDegrees>
              <LongitudeDegrees>-70.2312993071973323822021484375</LongitudeDegrees>
            </Position>
            <AltitudeMeters>1776</AltitudeMeters>
            <DistanceMeters>3330.5734275316</DistanceMeters>
          </Trackpoint>
          <Trackpoint>
            <Time>2019-08-04T15:44:02.000Z</Time>
            <Position>
              <LatitudeDegrees>-33.5340005345642566680908203125</LatitudeDegrees>
              <LongitudeDegrees>-70.23130794055759906768798828125</LongitudeDegrees>
            </Position>
            <AltitudeMeters>1776</AltitudeMeters>
            <DistanceMeters>3331.5236946753</DistanceMeters>
          </Trackpoint>
          <Trackpoint>
            <Time>2019-08-04T15:44:04.000Z</Time>
            <Position>
              <LatitudeDegrees>-33.5340099222958087921142578125</LatitudeDegrees>
              <LongitudeDegrees>-70.23131422698497772216796875</LongitudeDegrees>
            </Position>
            <AltitudeMeters>1776</AltitudeMeters>
            <DistanceMeters>3332.7219359509</DistanceMeters>
          </Trackpoint>
          <Trackpoint>
            <Time>2019-08-04T15:44:05.000Z</Time>
            <Position>
              <LatitudeDegrees>-33.534015119075775146484375</LatitudeDegrees>
              <LongitudeDegrees>-70.23131632246077060699462890625</LongitudeDegrees>
            </Position>
            <AltitudeMeters>1776</AltitudeMeters>
            <DistanceMeters>3333.3304038089</DistanceMeters>
          </Trackpoint>
          <Trackpoint>
            <Time>2019-08-04T15:44:07.000Z</Time>
            <Position>
              <LatitudeDegrees>-33.5340271890163421630859375</LatitudeDegrees>
              <LongitudeDegrees>-70.23131766356527805328369140625</LongitudeDegrees>
            </Position>
            <AltitudeMeters>1776</AltitudeMeters>
            <DistanceMeters>3334.6809871798</DistanceMeters>
          </Trackpoint>
          <Trackpoint>
            <Time>2019-08-04T15:44:09.000Z</Time>
            <Position>
              <LatitudeDegrees>-33.53404269553720951080322265625</LatitudeDegrees>
              <LongitudeDegrees>-70.231320597231388092041015625</LongitudeDegrees>
            </Position>
            <AltitudeMeters>1776</AltitudeMeters>
            <DistanceMeters>3336.428032067</DistanceMeters>
          </Trackpoint>
          <Trackpoint>
            <Time>2019-08-04T15:44:12.000Z</Time>
            <Position>
              <LatitudeDegrees>-33.5340659134089946746826171875</LatitudeDegrees>
              <LongitudeDegrees>-70.231321938335895538330078125</LongitudeDegrees>
            </Position>
            <AltitudeMeters>1776</AltitudeMeters>
            <DistanceMeters>3339.0147842092</DistanceMeters>
          </Trackpoint>
          <Trackpoint>
            <Time>2019-08-04T15:44:13.000Z</Time>
            <Position>
              <LatitudeDegrees>-33.5340759716928005218505859375</LatitudeDegrees>
              <LongitudeDegrees>-70.2313224412500858306884765625</LongitudeDegrees>
            </Position>
            <AltitudeMeters>1776</AltitudeMeters>
            <DistanceMeters>3340.1310953438</DistanceMeters>
          </Trackpoint>
          <Trackpoint>
            <Time>2019-08-04T15:44:16.000Z</Time>
            <Position>
              <LatitudeDegrees>-33.53409902192652225494384765625</LatitudeDegrees>
              <LongitudeDegrees>-70.23133375681936740875244140625</LongitudeDegrees>
            </Position>
            <AltitudeMeters>1776</AltitudeMeters>
            <DistanceMeters>3342.9015763449</DistanceMeters>
          </Trackpoint>
          <Trackpoint>
            <Time>2019-08-04T15:44:17.000Z</Time>
            <Position>
              <LatitudeDegrees>-33.53410991840064525604248046875</LatitudeDegrees>
              <LongitudeDegrees>-70.23133593611419200897216796875</LongitudeDegrees>
            </Position>
            <AltitudeMeters>1776</AltitudeMeters>
            <DistanceMeters>3344.1332633354</DistanceMeters>
          </Trackpoint>
          <Trackpoint>
            <Time>2019-08-04T15:44:22.000Z</Time>
            <Position>
              <LatitudeDegrees>-33.534147553145885467529296875</LatitudeDegrees>
              <LongitudeDegrees>-70.2313698828220367431640625</LongitudeDegrees>
            </Position>
            <AltitudeMeters>1776</AltitudeMeters>
            <DistanceMeters>3349.3752593883</DistanceMeters>
          </Trackpoint>
          <Trackpoint>
            <Time>2019-08-04T15:44:26.000Z</Time>
            <Position>
              <LatitudeDegrees>-33.53417697362601757049560546875</LatitudeDegrees>
              <LongitudeDegrees>-70.23139460943639278411865234375</LongitudeDegrees>
            </Position>
            <AltitudeMeters>1776</AltitudeMeters>
            <DistanceMeters>3353.3731632523</DistanceMeters>
          </Trackpoint>
          <Trackpoint>
            <Time>2019-08-04T15:44:42.000Z</Time>
            <Position>
              <LatitudeDegrees>-33.53427889756858348846435546875</LatitudeDegrees>
              <LongitudeDegrees>-70.2314635924994945526123046875</LongitudeDegrees>
            </Position>
            <AltitudeMeters>1776</AltitudeMeters>
            <DistanceMeters>3366.3984108979</DistanceMeters>
          </Trackpoint>
          <Trackpoint>
            <Time>2019-08-04T15:44:48.000Z</Time>
            <Position>
              <LatitudeDegrees>-33.53431980125606060028076171875</LatitudeDegrees>
              <LongitudeDegrees>-70.231485553085803985595703125</LongitudeDegrees>
            </Position>
            <AltitudeMeters>1782.199951171875</AltitudeMeters>
            <DistanceMeters>3371.3870871431</DistanceMeters>
          </Trackpoint>
          <Trackpoint>
            <Time>2019-08-04T15:44:56.000Z</Time>
            <Position>
              <LatitudeDegrees>-33.53436154313385486602783203125</LatitudeDegrees>
              <LongitudeDegrees>-70.2315360121428966522216796875</LongitudeDegrees>
            </Position>
            <AltitudeMeters>1782.800048828125</AltitudeMeters>
            <DistanceMeters>3377.9823792694</DistanceMeters>
          </Trackpoint>
          <Trackpoint>
            <Time>2019-08-04T15:45:00.000Z</Time>
            <Position>
              <LatitudeDegrees>-33.5343897901475429534912109375</LatitudeDegrees>
              <LongitudeDegrees>-70.23155118338763713836669921875</LongitudeDegrees>
            </Position>
            <AltitudeMeters>1783.4000244140625</AltitudeMeters>
            <DistanceMeters>3381.4270157447</DistanceMeters>
          </Trackpoint>
          <Trackpoint>
            <Time>2019-08-04T15:45:07.000Z</Time>
            <Position>
              <LatitudeDegrees>-33.5344283469021320343017578125</LatitudeDegrees>
              <LongitudeDegrees>-70.23159326054155826568603515625</LongitudeDegrees>
            </Position>
            <AltitudeMeters>1783.5999755859375</AltitudeMeters>
            <DistanceMeters>3387.2275385514</DistanceMeters>
          </Trackpoint>
          <Trackpoint>
            <Time>2019-08-04T15:45:15.000Z</Time>
            <Position>
              <LatitudeDegrees>-33.53448517620563507080078125</LatitudeDegrees>
              <LongitudeDegrees>-70.23165461607277393341064453125</LongitudeDegrees>
            </Position>
            <AltitudeMeters>1784.199951171875</AltitudeMeters>
            <DistanceMeters>3395.7365427779</DistanceMeters>
          </Trackpoint>
          <Trackpoint>
            <Time>2019-08-04T15:45:17.000Z</Time>
            <Position>
              <LatitudeDegrees>-33.53450738824903964996337890625</LatitudeDegrees>
              <LongitudeDegrees>-70.231671296060085296630859375</LongitudeDegrees>
            </Position>
            <AltitudeMeters>1784.4000244140625</AltitudeMeters>
            <DistanceMeters>3398.653104454</DistanceMeters>
          </Trackpoint>
          <Trackpoint>
            <Time>2019-08-04T15:45:18.000Z</Time>
            <Position>
              <LatitudeDegrees>-33.53451627306640148162841796875</LatitudeDegrees>
              <LongitudeDegrees>-70.23167640902101993560791015625</LongitudeDegrees>
            </Position>
            <AltitudeMeters>1784.5999755859375</AltitudeMeters>
            <DistanceMeters>3399.7531182009</DistanceMeters>
          </Trackpoint>
          <Trackpoint>
            <Time>2019-08-04T15:45:21.000Z</Time>
            <Position>
              <LatitudeDegrees>-33.534535802900791168212890625</LatitudeDegrees>
              <LongitudeDegrees>-70.2316982857882976531982421875</LongitudeDegrees>
            </Position>
            <AltitudeMeters>1784.800048828125</AltitudeMeters>
            <DistanceMeters>3402.7279249031</DistanceMeters>
          </Trackpoint>
          <Trackpoint>
            <Time>2019-08-04T15:45:27.000Z</Time>
            <Position>
              <LatitudeDegrees>-33.5345850884914398193359375</LatitudeDegrees>
              <LongitudeDegrees>-70.231732316315174102783203125</LongitudeDegrees>
            </Position>
            <AltitudeMeters>1785.5999755859375</AltitudeMeters>
            <DistanceMeters>3409.0570179744</DistanceMeters>
          </Trackpoint>
          <Trackpoint>
            <Time>2019-08-04T15:45:30.000Z</Time>
            <Position>
              <LatitudeDegrees>-33.53460679762065410614013671875</LatitudeDegrees>
              <LongitudeDegrees>-70.23173726163804531097412109375</LongitudeDegrees>
            </Position>
            <AltitudeMeters>1786</AltitudeMeters>
            <DistanceMeters>3411.5185584055</DistanceMeters>
          </Trackpoint>
          <Trackpoint>
            <Time>2019-08-04T15:45:34.000Z</Time>
            <Position>
              <LatitudeDegrees>-33.5346378944814205169677734375</LatitudeDegrees>
              <LongitudeDegrees>-70.23174782283604145050048828125</LongitudeDegrees>
            </Position>
            <AltitudeMeters>1786.4000244140625</AltitudeMeters>
            <DistanceMeters>3415.1145380311</DistanceMeters>
          </Trackpoint>
          <Trackpoint>
            <Time>2019-08-04T15:45:37.000Z</Time>
            <Position>
              <LatitudeDegrees>-33.53466597385704517364501953125</LatitudeDegrees>
              <LongitudeDegrees>-70.2317660115659236907958984375</LongitudeDegrees>
            </Position>
            <AltitudeMeters>1786.5999755859375</AltitudeMeters>
            <DistanceMeters>3418.6650290838</DistanceMeters>
          </Trackpoint>
          <Trackpoint>
            <Time>2019-08-04T15:45:45.000Z</Time>
            <Position>
              <LatitudeDegrees>-33.53472732938826084136962890625</LatitudeDegrees>
              <LongitudeDegrees>-70.231811106204986572265625</LongitudeDegrees>
            </Position>
            <AltitudeMeters>1787.4000244140625</AltitudeMeters>
            <DistanceMeters>3426.6743775628</DistanceMeters>
          </Trackpoint>
          <Trackpoint>
            <Time>2019-08-04T15:45:48.000Z</Time>
            <Position>
              <LatitudeDegrees>-33.5347518883645534515380859375</LatitudeDegrees>
              <LongitudeDegrees>-70.23182761855423450469970703125</LongitudeDegrees>
            </Position>
            <AltitudeMeters>1787.5999755859375</AltitudeMeters>
            <DistanceMeters>3429.8088190077</DistanceMeters>
          </Trackpoint>
          <Trackpoint>
            <Time>2019-08-04T15:45:58.000Z</Time>
            <Position>
              <LatitudeDegrees>-33.534828834235668182373046875</LatitudeDegrees>
              <LongitudeDegrees>-70.23185200989246368408203125</LongitudeDegrees>
            </Position>
            <AltitudeMeters>1788.800048828125</AltitudeMeters>
            <DistanceMeters>3438.6672254274</DistanceMeters>
          </Trackpoint>
          <Trackpoint>
            <Time>2019-08-04T15:46:05.000Z</Time>
            <Position>
              <LatitudeDegrees>-33.53489630855619907379150390625</LatitudeDegrees>
              <LongitudeDegrees>-70.231884531676769256591796875</LongitudeDegrees>
            </Position>
            <AltitudeMeters>1789.199951171875</AltitudeMeters>
            <DistanceMeters>3446.7606903544</DistanceMeters>
          </Trackpoint>
          <Trackpoint>
            <Time>2019-08-04T15:46:09.000Z</Time>
            <Position>
              <LatitudeDegrees>-33.53493620641529560089111328125</LatitudeDegrees>
              <LongitudeDegrees>-70.23191227577626705169677734375</LongitudeDegrees>
            </Position>
            <AltitudeMeters>1789.800048828125</AltitudeMeters>
            <DistanceMeters>3451.8938923827</DistanceMeters>
          </Trackpoint>
          <Trackpoint>
            <Time>2019-08-04T15:46:11.000Z</Time>
            <Position>
              <LatitudeDegrees>-33.5349476896226406097412109375</LatitudeDegrees>
              <LongitudeDegrees>-70.2319256030023097991943359375</LongitudeDegrees>
            </Position>
            <AltitudeMeters>1790</AltitudeMeters>
            <DistanceMeters>3453.6767515775</DistanceMeters>
          </Trackpoint>
          <Trackpoint>
            <Time>2019-08-04T15:46:20.000Z</Time>
            <Position>
              <LatitudeDegrees>-33.5350167565047740936279296875</LatitudeDegrees>
              <LongitudeDegrees>-70.23196072317659854888916015625</LongitudeDegrees>
            </Position>
            <AltitudeMeters>1790.800048828125</AltitudeMeters>
            <DistanceMeters>3462.0266749438</DistanceMeters>
          </Trackpoint>
          <Trackpoint>
            <Time>2019-08-04T15:46:23.000Z</Time>
            <Position>
              <LatitudeDegrees>-33.53504098020493984222412109375</LatitudeDegrees>
              <LongitudeDegrees>-70.23197044618427753448486328125</LongitudeDegrees>
            </Position>
            <AltitudeMeters>1791</AltitudeMeters>
            <DistanceMeters>3464.8695464529</DistanceMeters>
          </Trackpoint>
          <Trackpoint>
            <Time>2019-08-04T15:46:33.000Z</Time>
            <Position>
              <LatitudeDegrees>-33.5351188480854034423828125</LatitudeDegrees>
              <LongitudeDegrees>-70.23202098906040191650390625</LongitudeDegrees>
            </Position>
            <AltitudeMeters>1791.5999755859375</AltitudeMeters>
            <DistanceMeters>3474.7239587682</DistanceMeters>
          </Trackpoint>
          <Trackpoint>
            <Time>2019-08-04T15:46:35.000Z</Time>
            <Position>
              <LatitudeDegrees>-33.53513284586369991302490234375</LatitudeDegrees>
              <LongitudeDegrees>-70.23203297518193721771240234375</LongitudeDegrees>
            </Position>
            <AltitudeMeters>1791.800048828125</AltitudeMeters>
            <DistanceMeters>3476.6386940074</DistanceMeters>
          </Trackpoint>
          <Trackpoint>
            <Time>2019-08-04T15:46:38.000Z</Time>
            <Position>
              <LatitudeDegrees>-33.5351515375077724456787109375</LatitudeDegrees>
              <LongitudeDegrees>-70.23204647004604339599609375</LongitudeDegrees>
            </Position>
            <AltitudeMeters>1791.800048828125</AltitudeMeters>
            <DistanceMeters>3479.0688524372</DistanceMeters>
          </Trackpoint>
          <Trackpoint>
            <Time>2019-08-04T15:46:43.000Z</Time>
            <Position>
              <LatitudeDegrees>-33.5351934470236301422119140625</LatitudeDegrees>
              <LongitudeDegrees>-70.2320737950503826141357421875</LongitudeDegrees>
            </Position>
            <AltitudeMeters>1792</AltitudeMeters>
            <DistanceMeters>3484.3767558374</DistanceMeters>
          </Trackpoint>
          <Trackpoint>
            <Time>2019-08-04T15:46:46.000Z</Time>
            <Position>
              <LatitudeDegrees>-33.53521867655217647552490234375</LatitudeDegrees>
              <LongitudeDegrees>-70.2320949174463748931884765625</LongitudeDegrees>
            </Position>
            <AltitudeMeters>1792</AltitudeMeters>
            <DistanceMeters>3487.8016747124</DistanceMeters>
          </Trackpoint>
          <Trackpoint>
            <Time>2019-08-04T15:46:50.000Z</Time>
            <Position>
              <LatitudeDegrees>-33.53526033461093902587890625</LatitudeDegrees>
              <LongitudeDegrees>-70.2321197278797626495361328125</LongitudeDegrees>
            </Position>
            <AltitudeMeters>1791.800048828125</AltitudeMeters>
            <DistanceMeters>3492.9777965048</DistanceMeters>
          </Trackpoint>
          <Trackpoint>
            <Time>2019-08-04T15:46:59.000Z</Time>
            <Position>
              <LatitudeDegrees>-33.5353267192840576171875</LatitudeDegrees>
              <LongitudeDegrees>-70.23220798932015895843505859375</LongitudeDegrees>
            </Position>
            <AltitudeMeters>1791.5999755859375</AltitudeMeters>
            <DistanceMeters>3504.0066282516</DistanceMeters>
          </Trackpoint>
          <Trackpoint>
            <Time>2019-08-04T15:47:03.000Z</Time>
            <Position>
              <LatitudeDegrees>-33.5353309102356433868408203125</LatitudeDegrees>
              <LongitudeDegrees>-70.2322469651699066162109375</LongitudeDegrees>
            </Position>
            <AltitudeMeters>1791.800048828125</AltitudeMeters>
            <DistanceMeters>3507.6524851503</DistanceMeters>
          </Trackpoint>
          <Trackpoint>
            <Time>2019-08-04T15:47:05.000Z</Time>
            <Position>
              <LatitudeDegrees>-33.5353319160640239715576171875</LatitudeDegrees>
              <LongitudeDegrees>-70.23226632736623287200927734375</LongitudeDegrees>
            </Position>
            <AltitudeMeters>1792</AltitudeMeters>
            <DistanceMeters>3509.4504749631</DistanceMeters>
          </Trackpoint>
          <Trackpoint>
            <Time>2019-08-04T15:47:09.000Z</Time>
            <Position>
              <LatitudeDegrees>-33.53532512672245502471923828125</LatitudeDegrees>
              <LongitudeDegrees>-70.23230421356856822967529296875</LongitudeDegrees>
            </Position>
            <AltitudeMeters>1792.199951171875</AltitudeMeters>
            <DistanceMeters>3513.0464545887</DistanceMeters>
          </Trackpoint>
          <Trackpoint>
            <Time>2019-08-04T15:47:15.000Z</Time>
            <Position>
              <LatitudeDegrees>-33.5353439860045909881591796875</LatitudeDegrees>
              <LongitudeDegrees>-70.23236255161464214324951171875</LongitudeDegrees>
            </Position>
            <AltitudeMeters>1792.4000244140625</AltitudeMeters>
            <DistanceMeters>3518.8516458249</DistanceMeters>
          </Trackpoint>
          <Trackpoint>
            <Time>2019-08-04T15:47:16.000Z</Time>
            <Position>
              <LatitudeDegrees>-33.53535278700292110443115234375</LatitudeDegrees>
              <LongitudeDegrees>-70.23236338980495929718017578125</LongitudeDegrees>
            </Position>
            <AltitudeMeters>1792.5999755859375</AltitudeMeters>
            <DistanceMeters>3519.8346098016</DistanceMeters>
          </Trackpoint>
          <Trackpoint>
            <Time>2019-08-04T15:47:19.000Z</Time>
            <Position>
              <LatitudeDegrees>-33.53537575341761112213134765625</LatitudeDegrees>
              <LongitudeDegrees>-70.23236691020429134368896484375</LongitudeDegrees>
            </Position>
            <AltitudeMeters>1792.800048828125</AltitudeMeters>
            <DistanceMeters>3522.410867977</DistanceMeters>
          </Trackpoint>
          <Trackpoint>
            <Time>2019-08-04T15:47:20.000Z</Time>
            <Position>
              <LatitudeDegrees>-33.53538396768271923065185546875</LatitudeDegrees>
              <LongitudeDegrees>-70.23236657492816448211669921875</LongitudeDegrees>
            </Position>
            <AltitudeMeters>1792.800048828125</AltitudeMeters>
            <DistanceMeters>3523.3272724233</DistanceMeters>
          </Trackpoint>
          <Trackpoint>
            <Time>2019-08-04T15:47:21.000Z</Time>
            <Position>
              <LatitudeDegrees>-33.53538748808205127716064453125</LatitudeDegrees>
              <LongitudeDegrees>-70.23236288689076900482177734375</LongitudeDegrees>
            </Position>
            <AltitudeMeters>1793</AltitudeMeters>
            <DistanceMeters>3523.8477551736</DistanceMeters>
          </Trackpoint>
          <Trackpoint>
            <Time>2019-08-04T15:47:26.000Z</Time>
            <Position>
              <LatitudeDegrees>-33.5354100354015827178955078125</LatitudeDegrees>
              <LongitudeDegrees>-70.232340507209300994873046875</LongitudeDegrees>
            </Position>
            <AltitudeMeters>1793.5999755859375</AltitudeMeters>
            <DistanceMeters>3527.1023334364</DistanceMeters>
          </Trackpoint>
          <Trackpoint>
            <Time>2019-08-04T15:47:29.000Z</Time>
            <Position>
              <LatitudeDegrees>-33.53542051278054714202880859375</LatitudeDegrees>
              <LongitudeDegrees>-70.23232567124068737030029296875</LongitudeDegrees>
            </Position>
            <AltitudeMeters>1794</AltitudeMeters>
            <DistanceMeters>3528.9078410094</DistanceMeters>
          </Trackpoint>
          <Trackpoint>
            <Time>2019-08-04T15:47:32.000Z</Time>
            <Position>
              <LatitudeDegrees>-33.53543207980692386627197265625</LatitudeDegrees>
              <LongitudeDegrees>-70.2323074825108051300048828125</LongitudeDegrees>
            </Position>
            <AltitudeMeters>1794.5999755859375</AltitudeMeters>
            <DistanceMeters>3531.0284489574</DistanceMeters>
          </Trackpoint>
          <Trackpoint>
            <Time>2019-08-04T15:47:35.000Z</Time>
            <Position>
              <LatitudeDegrees>-33.53544406592845916748046875</LatitudeDegrees>
              <LongitudeDegrees>-70.23227118887007236480712890625</LongitudeDegrees>
            </Position>
            <AltitudeMeters>1795</AltitudeMeters>
            <DistanceMeters>3534.6494530995</DistanceMeters>
          </Trackpoint>
          <Trackpoint>
            <Time>2019-08-04T15:47:38.000Z</Time>
            <Position>
              <LatitudeDegrees>-33.535452447831630706787109375</LatitudeDegrees>
              <LongitudeDegrees>-70.232239924371242523193359375</LongitudeDegrees>
            </Position>
            <AltitudeMeters>1795</AltitudeMeters>
            <DistanceMeters>3537.697722881</DistanceMeters>
          </Trackpoint>
          <Trackpoint>
            <Time>2019-08-04T15:47:43.000Z</Time>
            <Position>
              <LatitudeDegrees>-33.5354760847985744476318359375</LatitudeDegrees>
              <LongitudeDegrees>-70.23219223134219646453857421875</LongitudeDegrees>
            </Position>
            <AltitudeMeters>1795.199951171875</AltitudeMeters>
            <DistanceMeters>3542.8458559759</DistanceMeters>
          </Trackpoint>
          <Trackpoint>
            <Time>2019-08-04T15:47:45.000Z</Time>
            <Position>
              <LatitudeDegrees>-33.535483963787555694580078125</LatitudeDegrees>
              <LongitudeDegrees>-70.23217647336423397064208984375</LongitudeDegrees>
            </Position>
            <AltitudeMeters>1795.4000244140625</AltitudeMeters>
            <DistanceMeters>3544.5510494004</DistanceMeters>
          </Trackpoint>
          <Trackpoint>
            <Time>2019-08-04T15:47:47.000Z</Time>
            <Position>
              <LatitudeDegrees>-33.5354928486049175262451171875</LatitudeDegrees>
              <LongitudeDegrees>-70.23216222412884235382080078125</LongitudeDegrees>
            </Position>
            <AltitudeMeters>1795.5999755859375</AltitudeMeters>
            <DistanceMeters>3546.2051694572</DistanceMeters>
          </Trackpoint>
          <Trackpoint>
            <Time>2019-08-04T15:47:52.000Z</Time>
            <Position>
              <LatitudeDegrees>-33.5355283878743648529052734375</LatitudeDegrees>
              <LongitudeDegrees>-70.23212467320263385772705078125</LongitudeDegrees>
            </Position>
            <AltitudeMeters>1795.800048828125</AltitudeMeters>
            <DistanceMeters>3551.4763690568</DistanceMeters>
          </Trackpoint>
          <Trackpoint>
            <Time>2019-08-04T15:47:56.000Z</Time>
            <Position>
              <LatitudeDegrees>-33.5355615802109241485595703125</LatitudeDegrees>
              <LongitudeDegrees>-70.23209877312183380126953125</LongitudeDegrees>
            </Position>
            <AltitudeMeters>1796</AltitudeMeters>
            <DistanceMeters>3555.8825765365</DistanceMeters>
          </Trackpoint>
          <Trackpoint>
            <Time>2019-08-04T15:48:03.000Z</Time>
            <Position>
              <LatitudeDegrees>-33.5356112010776996612548828125</LatitudeDegrees>
              <LongitudeDegrees>-70.2320779860019683837890625</LongitudeDegrees>
            </Position>
            <AltitudeMeters>1796.4000244140625</AltitudeMeters>
            <DistanceMeters>3561.7327038618</DistanceMeters>
          </Trackpoint>
          <Trackpoint>
            <Time>2019-08-04T15:48:05.000Z</Time>
            <Position>
              <LatitudeDegrees>-33.53562218137085437774658203125</LatitudeDegrees>
              <LongitudeDegrees>-70.2320727892220020294189453125</LongitudeDegrees>
            </Position>
            <AltitudeMeters>1796.4000244140625</AltitudeMeters>
            <DistanceMeters>3563.0494326408</DistanceMeters>
          </Trackpoint>
          <Trackpoint>
            <Time>2019-08-04T15:48:11.000Z</Time>
            <Position>
              <LatitudeDegrees>-33.5356608219444751739501953125</LatitudeDegrees>
              <LongitudeDegrees>-70.232050828635692596435546875</LongitudeDegrees>
            </Position>
            <AltitudeMeters>1797</AltitudeMeters>
            <DistanceMeters>3567.8083644244</DistanceMeters>
          </Trackpoint>
          <Trackpoint>
            <Time>2019-08-04T15:48:17.000Z</Time>
            <Position>
              <LatitudeDegrees>-33.53569510392844676971435546875</LatitudeDegrees>
              <LongitudeDegrees>-70.2320577017962932586669921875</LongitudeDegrees>
            </Position>
            <AltitudeMeters>1797.5999755859375</AltitudeMeters>
            <DistanceMeters>3571.6753796288</DistanceMeters>
          </Trackpoint>
          <Trackpoint>
            <Time>2019-08-04T15:48:21.000Z</Time>
            <Position>
              <LatitudeDegrees>-33.53571119718253612518310546875</LatitudeDegrees>
              <LongitudeDegrees>-70.232068262994289398193359375</LongitudeDegrees>
            </Position>
            <AltitudeMeters>1798</AltitudeMeters>
            <DistanceMeters>3573.7156897133</DistanceMeters>
          </Trackpoint>
          <Trackpoint>
            <Time>2019-08-04T15:48:28.000Z</Time>
            <Position>
              <LatitudeDegrees>-33.53574589826166629791259765625</LatitudeDegrees>
              <LongitudeDegrees>-70.23207823745906352996826171875</LongitudeDegrees>
            </Position>
            <AltitudeMeters>1799</AltitudeMeters>
            <DistanceMeters>3577.685259387</DistanceMeters>
          </Trackpoint>
          <Trackpoint>
            <Time>2019-08-04T15:48:31.000Z</Time>
            <Position>
              <LatitudeDegrees>-33.53576802648603916168212890625</LatitudeDegrees>
              <LongitudeDegrees>-70.23208762519061565399169921875</LongitudeDegrees>
            </Position>
            <AltitudeMeters>1799.4000244140625</AltitudeMeters>
            <DistanceMeters>3580.2980620569</DistanceMeters>
          </Trackpoint>
          <Trackpoint>
            <Time>2019-08-04T15:48:37.000Z</Time>
            <Position>
              <LatitudeDegrees>-33.5357999615371227264404296875</LatitudeDegrees>
              <LongitudeDegrees>-70.2320940792560577392578125</LongitudeDegrees>
            </Position>
            <AltitudeMeters>1800.199951171875</AltitudeMeters>
            <DistanceMeters>3583.9015672846</DistanceMeters>
          </Trackpoint>
          <Trackpoint>
            <Time>2019-08-04T15:48:39.000Z</Time>
            <Position>
              <LatitudeDegrees>-33.535807840526103973388671875</LatitudeDegrees>
              <LongitudeDegrees>-70.2320949174463748931884765625</LongitudeDegrees>
            </Position>
            <AltitudeMeters>1800.5999755859375</AltitudeMeters>
            <DistanceMeters>3584.7828087806</DistanceMeters>
          </Trackpoint>
          <Trackpoint>
            <Time>2019-08-04T15:48:40.000Z</Time>
            <Position>
              <LatitudeDegrees>-33.53581462986767292022705078125</LatitudeDegrees>
              <LongitudeDegrees>-70.23209667764604091644287109375</LongitudeDegrees>
            </Position>
            <AltitudeMeters>1800.800048828125</AltitudeMeters>
            <DistanceMeters>3585.5548094576</DistanceMeters>
          </Trackpoint>
          <Trackpoint>
            <Time>2019-08-04T15:48:42.000Z</Time>
            <Position>
              <LatitudeDegrees>-33.53582401759922504425048828125</LatitudeDegrees>
              <LongitudeDegrees>-70.23210120387375354766845703125</LongitudeDegrees>
            </Position>
            <AltitudeMeters>1801</AltitudeMeters>
            <DistanceMeters>3586.679180705</DistanceMeters>
          </Trackpoint>
          <Trackpoint>
            <Time>2019-08-04T15:48:44.000Z</Time>
            <Position>
              <LatitudeDegrees>-33.53583474643528461456298828125</LatitudeDegrees>
              <LongitudeDegrees>-70.23210941813886165618896484375</LongitudeDegrees>
            </Position>
            <AltitudeMeters>1801.199951171875</AltitudeMeters>
            <DistanceMeters>3588.0982321654</DistanceMeters>
          </Trackpoint>
          <Trackpoint>
            <Time>2019-08-04T15:48:45.000Z</Time>
            <Position>
              <LatitudeDegrees>-33.53583776392042636871337890625</LatitudeDegrees>
              <LongitudeDegrees>-70.23211562074720859527587890625</LongitudeDegrees>
            </Position>
            <AltitudeMeters>1801.4000244140625</AltitudeMeters>
            <DistanceMeters>3588.7701725066</DistanceMeters>
          </Trackpoint>
          <Trackpoint>
            <Time>2019-08-04T15:48:54.000Z</Time>
            <Position>
              <LatitudeDegrees>-33.5358639992773532867431640625</LatitudeDegrees>
              <LongitudeDegrees>-70.2321499027311801910400390625</LongitudeDegrees>
            </Position>
            <AltitudeMeters>1802.4000244140625</AltitudeMeters>
            <DistanceMeters>3593.0873565171</DistanceMeters>
          </Trackpoint>
          <Trackpoint>
            <Time>2019-08-04T15:48:55.000Z</Time>
            <Position>
              <LatitudeDegrees>-33.53587053716182708740234375</LatitudeDegrees>
              <LongitudeDegrees>-70.2321566082537174224853515625</LongitudeDegrees>
            </Position>
            <AltitudeMeters>1802.5999755859375</AltitudeMeters>
            <DistanceMeters>3594.0470792881</DistanceMeters>
          </Trackpoint>
          <Trackpoint>
            <Time>2019-08-04T15:49:00.000Z</Time>
            <Position>
              <LatitudeDegrees>-33.535891659557819366455078125</LatitudeDegrees>
              <LongitudeDegrees>-70.23219541646540164947509765625</LongitudeDegrees>
            </Position>
            <AltitudeMeters>1803</AltitudeMeters>
            <DistanceMeters>3598.3464474372</DistanceMeters>
          </Trackpoint>
          <Trackpoint>
            <Time>2019-08-04T15:49:04.000Z</Time>
            <Position>
              <LatitudeDegrees>-33.5359136201441287994384765625</LatitudeDegrees>
              <LongitudeDegrees>-70.2322146110236644744873046875</LongitudeDegrees>
            </Position>
            <AltitudeMeters>1803.4000244140625</AltitudeMeters>
            <DistanceMeters>3601.3694322802</DistanceMeters>
          </Trackpoint>
          <Trackpoint>
            <Time>2019-08-04T15:49:09.000Z</Time>
            <Position>
              <LatitudeDegrees>-33.53592778556048870086669921875</LatitudeDegrees>
              <LongitudeDegrees>-70.2322370745241641998291015625</LongitudeDegrees>
            </Position>
            <AltitudeMeters>1803.800048828125</AltitudeMeters>
            <DistanceMeters>3603.9822349501</DistanceMeters>
          </Trackpoint>
          <Trackpoint>
            <Time>2019-08-04T15:49:13.000Z</Time>
            <Position>
              <LatitudeDegrees>-33.53595309890806674957275390625</LatitudeDegrees>
              <LongitudeDegrees>-70.23224227130413055419921875</LongitudeDegrees>
            </Position>
            <AltitudeMeters>1804.4000244140625</AltitudeMeters>
            <DistanceMeters>3606.8425232674</DistanceMeters>
          </Trackpoint>
          <Trackpoint>
            <Time>2019-08-04T15:49:14.000Z</Time>
            <Position>
              <LatitudeDegrees>-33.5359541885554790496826171875</LatitudeDegrees>
              <LongitudeDegrees>-70.232241936028003692626953125</LongitudeDegrees>
            </Position>
            <AltitudeMeters>1804.5999755859375</AltitudeMeters>
            <DistanceMeters>3606.9769113356</DistanceMeters>
          </Trackpoint>
          <Trackpoint>
            <Time>2019-08-04T15:49:15.000Z</Time>
            <Position>
              <LatitudeDegrees>-33.5359556972980499267578125</LatitudeDegrees>
              <LongitudeDegrees>-70.232245624065399169921875</LongitudeDegrees>
            </Position>
            <AltitudeMeters>1804.5999755859375</AltitudeMeters>
            <DistanceMeters>3607.3449482178</DistanceMeters>
          </Trackpoint>
          <Trackpoint>
            <Time>2019-08-04T15:49:20.000Z</Time>
            <Position>
              <LatitudeDegrees>-33.53596835397183895111083984375</LatitudeDegrees>
              <LongitudeDegrees>-70.23225107230246067047119140625</LongitudeDegrees>
            </Position>
            <AltitudeMeters>1805.199951171875</AltitudeMeters>
            <DistanceMeters>3608.8414304122</DistanceMeters>
          </Trackpoint>
          <Trackpoint>
            <Time>2019-08-04T15:49:25.000Z</Time>
            <Position>
              <LatitudeDegrees>-33.53597489185631275177001953125</LatitudeDegrees>
              <LongitudeDegrees>-70.23226649500429630279541015625</LongitudeDegrees>
            </Position>
            <AltitudeMeters>1805.5999755859375</AltitudeMeters>
            <DistanceMeters>3610.4484779731</DistanceMeters>
          </Trackpoint>
          <Trackpoint>
            <Time>2019-08-04T15:49:33.000Z</Time>
            <Position>
              <LatitudeDegrees>-33.5360145382583141326904296875</LatitudeDegrees>
              <LongitudeDegrees>-70.23227051831781864166259765625</LongitudeDegrees>
            </Position>
            <AltitudeMeters>1806.199951171875</AltitudeMeters>
            <DistanceMeters>3614.87615185</DistanceMeters>
          </Trackpoint>
          <Trackpoint>
            <Time>2019-08-04T15:49:37.000Z</Time>
            <Position>
              <LatitudeDegrees>-33.53602149523794651031494140625</LatitudeDegrees>
              <LongitudeDegrees>-70.23226951248943805694580078125</LongitudeDegrees>
            </Position>
            <AltitudeMeters>1806.5999755859375</AltitudeMeters>
            <DistanceMeters>3615.648152527</DistanceMeters>
          </Trackpoint>
          <Trackpoint>
            <Time>2019-08-04T15:49:45.000Z</Time>
            <Position>
              <LatitudeDegrees>-33.536028452217578887939453125</LatitudeDegrees>
              <LongitudeDegrees>-70.232311002910137176513671875</LongitudeDegrees>
            </Position>
            <AltitudeMeters>1807.5999755859375</AltitudeMeters>
            <DistanceMeters>3619.5742626235</DistanceMeters>
          </Trackpoint>
          <Trackpoint>
            <Time>2019-08-04T15:49:46.000Z</Time>
            <Position>
              <LatitudeDegrees>-33.53603021241724491119384765625</LatitudeDegrees>
              <LongitudeDegrees>-70.23231460712850093841552734375</LongitudeDegrees>
            </Position>
            <AltitudeMeters>1807.5999755859375</AltitudeMeters>
            <DistanceMeters>3619.9774268282</DistanceMeters>
          </Trackpoint>
          <Trackpoint>
            <Time>2019-08-04T15:49:55.000Z</Time>
            <Position>
              <LatitudeDegrees>-33.536041192710399627685546875</LatitudeDegrees>
              <LongitudeDegrees>-70.23235249333083629608154296875</LongitudeDegrees>
            </Position>
            <AltitudeMeters>1808.5999755859375</AltitudeMeters>
            <DistanceMeters>3623.6992727768</DistanceMeters>
          </Trackpoint>
          <Trackpoint>
            <Time>2019-08-04T15:49:56.000Z</Time>
            <Position>
              <LatitudeDegrees>-33.53603943251073360443115234375</LatitudeDegrees>
              <LongitudeDegrees>-70.23235467262566089630126953125</LongitudeDegrees>
            </Position>
            <AltitudeMeters>1808.800048828125</AltitudeMeters>
            <DistanceMeters>3623.9997736328</DistanceMeters>
          </Trackpoint>
          <Trackpoint>
            <Time>2019-08-04T15:49:57.000Z</Time>
            <Position>
              <LatitudeDegrees>-33.53604094125330448150634765625</LatitudeDegrees>
              <LongitudeDegrees>-70.2323569357395172119140625</LongitudeDegrees>
            </Position>
            <AltitudeMeters>1808.800048828125</AltitudeMeters>
            <DistanceMeters>3624.2848537759</DistanceMeters>
          </Trackpoint>
          <Trackpoint>
            <Time>2019-08-04T15:49:59.000Z</Time>
            <Position>
              <LatitudeDegrees>-33.53604018688201904296875</LatitudeDegrees>
              <LongitudeDegrees>-70.23236188106238842010498046875</LongitudeDegrees>
            </Position>
            <AltitudeMeters>1809.199951171875</AltitudeMeters>
            <DistanceMeters>3624.7503877002</DistanceMeters>
          </Trackpoint>
          <Trackpoint>
            <Time>2019-08-04T15:50:02.000Z</Time>
            <Position>
              <LatitudeDegrees>-33.53604228235781192779541015625</LatitudeDegrees>
              <LongitudeDegrees>-70.23236565291881561279296875</LongitudeDegrees>
            </Position>
            <AltitudeMeters>1809.800048828125</AltitudeMeters>
            <DistanceMeters>3625.1753600862</DistanceMeters>
          </Trackpoint>
          <Trackpoint>
            <Time>2019-08-04T15:50:04.000Z</Time>
            <Position>
              <LatitudeDegrees>-33.536050580441951751708984375</LatitudeDegrees>
              <LongitudeDegrees>-70.23235718719661235809326171875</LongitudeDegrees>
            </Position>
            <AltitudeMeters>1809.800048828125</AltitudeMeters>
            <DistanceMeters>3626.3885799592</DistanceMeters>
          </Trackpoint>
          <Trackpoint>
            <Time>2019-08-04T15:50:09.000Z</Time>
            <Position>
              <LatitudeDegrees>-33.53605636395514011383056640625</LatitudeDegrees>
              <LongitudeDegrees>-70.23235400207340717315673828125</LongitudeDegrees>
            </Position>
            <AltitudeMeters>1810.199951171875</AltitudeMeters>
            <DistanceMeters>3627.0996947748</DistanceMeters>
          </Trackpoint>
          <Trackpoint>
            <Time>2019-08-04T15:50:14.000Z</Time>
            <Position>
              <LatitudeDegrees>-33.5360725410282611846923828125</LatitudeDegrees>
              <LongitudeDegrees>-70.23236456327140331268310546875</LongitudeDegrees>
            </Position>
            <AltitudeMeters>1810.4000244140625</AltitudeMeters>
            <DistanceMeters>3629.1510396075</DistanceMeters>
          </Trackpoint>
          <Trackpoint>
            <Time>2019-08-04T15:50:19.000Z</Time>
            <Position>
              <LatitudeDegrees>-33.5360963456332683563232421875</LatitudeDegrees>
              <LongitudeDegrees>-70.23238467983901500701904296875</LongitudeDegrees>
            </Position>
            <AltitudeMeters>1810.800048828125</AltitudeMeters>
            <DistanceMeters>3632.3931082343</DistanceMeters>
          </Trackpoint>
          <Trackpoint>
            <Time>2019-08-04T15:50:23.000Z</Time>
            <Position>
              <LatitudeDegrees>-33.5361174680292606353759765625</LatitudeDegrees>
              <LongitudeDegrees>-70.2324117533862590789794921875</LongitudeDegrees>
            </Position>
            <AltitudeMeters>1811.199951171875</AltitudeMeters>
            <DistanceMeters>3635.8338102293</DistanceMeters>
          </Trackpoint>
          <Trackpoint>
            <Time>2019-08-04T15:50:30.000Z</Time>
            <Position>
              <LatitudeDegrees>-33.536141775548458099365234375</LatitudeDegrees>
              <LongitudeDegrees>-70.23245726712048053741455078125</LongitudeDegrees>
            </Position>
            <AltitudeMeters>1811.800048828125</AltitudeMeters>
            <DistanceMeters>3640.8495647062</DistanceMeters>
          </Trackpoint>
          <Trackpoint>
            <Time>2019-08-04T15:50:37.000Z</Time>
            <Position>
              <LatitudeDegrees>-33.53615610860288143157958984375</LatitudeDegrees>
              <LongitudeDegrees>-70.23250856436789035797119140625</LongitudeDegrees>
            </Position>
            <AltitudeMeters>1812.800048828125</AltitudeMeters>
            <DistanceMeters>3645.8689185768</DistanceMeters>
          </Trackpoint>
          <Trackpoint>
            <Time>2019-08-04T15:50:42.000Z</Time>
            <Position>
              <LatitudeDegrees>-33.53616130538284778594970703125</LatitudeDegrees>
              <LongitudeDegrees>-70.232543684542179107666015625</LongitudeDegrees>
            </Position>
            <AltitudeMeters>1814</AltitudeMeters>
            <DistanceMeters>3649.1798871365</DistanceMeters>
          </Trackpoint>
          <Trackpoint>
            <Time>2019-08-04T15:50:44.000Z</Time>
            <Position>
              <LatitudeDegrees>-33.53616381995379924774169921875</LatitudeDegrees>
              <LongitudeDegrees>-70.23255868814885616302490234375</LongitudeDegrees>
            </Position>
            <AltitudeMeters>1814.199951171875</AltitudeMeters>
            <DistanceMeters>3650.6021167675</DistanceMeters>
          </Trackpoint>
          <Trackpoint>
            <Time>2019-08-04T15:50:46.000Z</Time>
            <Position>
              <LatitudeDegrees>-33.53616532869637012481689453125</LatitudeDegrees>
              <LongitudeDegrees>-70.23257444612681865692138671875</LongitudeDegrees>
            </Position>
            <AltitudeMeters>1814.5999755859375</AltitudeMeters>
            <DistanceMeters>3652.0742642963</DistanceMeters>
          </Trackpoint>
          <Trackpoint>
            <Time>2019-08-04T15:50:47.000Z</Time>
            <Position>
              <LatitudeDegrees>-33.53616499342024326324462890625</LatitudeDegrees>
              <LongitudeDegrees>-70.23258148692548274993896484375</LongitudeDegrees>
            </Position>
            <AltitudeMeters>1814.800048828125</AltitudeMeters>
            <DistanceMeters>3652.7257346278</DistanceMeters>
          </Trackpoint>
          <Trackpoint>
            <Time>2019-08-04T15:50:48.000Z</Time>
            <Position>
              <LatitudeDegrees>-33.53616465814411640167236328125</LatitudeDegrees>
              <LongitudeDegrees>-70.232589952647686004638671875</LongitudeDegrees>
            </Position>
            <AltitudeMeters>1815</AltitudeMeters>
            <DistanceMeters>3653.5093449891</DistanceMeters>
          </Trackpoint>
          <Trackpoint>
            <Time>2019-08-04T15:50:54.000Z</Time>
            <Position>
              <LatitudeDegrees>-33.536174297332763671875</LatitudeDegrees>
              <LongitudeDegrees>-70.23261912167072296142578125</LongitudeDegrees>
            </Position>
            <AltitudeMeters>1816.199951171875</AltitudeMeters>
            <DistanceMeters>3656.4197078022</DistanceMeters>
          </Trackpoint>
          <Trackpoint>
            <Time>2019-08-04T15:51:00.000Z</Time>
            <Position>
              <LatitudeDegrees>-33.5361970961093902587890625</LatitudeDegrees>
              <LongitudeDegrees>-70.2326337061822414398193359375</LongitudeDegrees>
            </Position>
            <AltitudeMeters>1817.199951171875</AltitudeMeters>
            <DistanceMeters>3659.2957380564</DistanceMeters>
          </Trackpoint>
          <Trackpoint>
            <Time>2019-08-04T15:51:05.000Z</Time>
            <Position>
              <LatitudeDegrees>-33.5362220741808414459228515625</LatitudeDegrees>
              <LongitudeDegrees>-70.2326471172273159027099609375</LongitudeDegrees>
            </Position>
            <AltitudeMeters>1818</AltitudeMeters>
            <DistanceMeters>3662.3425262972</DistanceMeters>
          </Trackpoint>
          <Trackpoint>
            <Time>2019-08-04T15:51:07.000Z</Time>
            <Position>
              <LatitudeDegrees>-33.5362292826175689697265625</LatitudeDegrees>
              <LongitudeDegrees>-70.2326680719852447509765625</LongitudeDegrees>
            </Position>
            <AltitudeMeters>1818.4000244140625</AltitudeMeters>
            <DistanceMeters>3664.4417350302</DistanceMeters>
          </Trackpoint>
          <Trackpoint>
            <Time>2019-08-04T15:51:09.000Z</Time>
            <Position>
              <LatitudeDegrees>-33.53623456321656703948974609375</LatitudeDegrees>
              <LongitudeDegrees>-70.2326803095638751983642578125</LongitudeDegrees>
            </Position>
            <AltitudeMeters>1818.800048828125</AltitudeMeters>
            <DistanceMeters>3665.7166521882</DistanceMeters>
          </Trackpoint>
          <Trackpoint>
            <Time>2019-08-04T15:51:14.000Z</Time>
            <Position>
              <LatitudeDegrees>-33.53623808361589908599853515625</LatitudeDegrees>
              <LongitudeDegrees>-70.23271257989108562469482421875</LongitudeDegrees>
            </Position>
            <AltitudeMeters>1819.5999755859375</AltitudeMeters>
            <DistanceMeters>3668.7366484148</DistanceMeters>
          </Trackpoint>
          <Trackpoint>
            <Time>2019-08-04T15:51:21.000Z</Time>
            <Position>
              <LatitudeDegrees>-33.5362364910542964935302734375</LatitudeDegrees>
              <LongitudeDegrees>-70.2327671460807323455810546875</LongitudeDegrees>
            </Position>
            <AltitudeMeters>1820.5999755859375</AltitudeMeters>
            <DistanceMeters>3673.8025616843</DistanceMeters>
          </Trackpoint>
          <Trackpoint>
            <Time>2019-08-04T15:51:28.000Z</Time>
            <Position>
              <LatitudeDegrees>-33.53624076582491397857666015625</LatitudeDegrees>
              <LongitudeDegrees>-70.232810564339160919189453125</LongitudeDegrees>
            </Position>
            <AltitudeMeters>1821.800048828125</AltitudeMeters>
            <DistanceMeters>3677.8587667186</DistanceMeters>
          </Trackpoint>
          <Trackpoint>
            <Time>2019-08-04T15:51:35.000Z</Time>
            <Position>
              <LatitudeDegrees>-33.5362294502556324005126953125</LatitudeDegrees>
              <LongitudeDegrees>-70.23284601978957653045654296875</LongitudeDegrees>
            </Position>
            <AltitudeMeters>1822.800048828125</AltitudeMeters>
            <DistanceMeters>3681.3824515954</DistanceMeters>
          </Trackpoint>
          <Trackpoint>
            <Time>2019-08-04T15:51:36.000Z</Time>
            <Position>
              <LatitudeDegrees>-33.5362311266362667083740234375</LatitudeDegrees>
              <LongitudeDegrees>-70.23285071365535259246826171875</LongitudeDegrees>
            </Position>
            <AltitudeMeters>1823</AltitudeMeters>
            <DistanceMeters>3681.8669946662</DistanceMeters>
          </Trackpoint>
          <Trackpoint>
            <Time>2019-08-04T15:51:37.000Z</Time>
            <Position>
              <LatitudeDegrees>-33.53622903116047382354736328125</LatitudeDegrees>
              <LongitudeDegrees>-70.232851803302764892578125</LongitudeDegrees>
            </Position>
            <AltitudeMeters>1823.199951171875</AltitudeMeters>
            <DistanceMeters>3682.1357708027</DistanceMeters>
          </Trackpoint>
          <Trackpoint>
            <Time>2019-08-04T15:51:43.000Z</Time>
            <Position>
              <LatitudeDegrees>-33.53623607195913791656494140625</LatitudeDegrees>
              <LongitudeDegrees>-70.232882313430309295654296875</LongitudeDegrees>
            </Position>
            <AltitudeMeters>1823.800048828125</AltitudeMeters>
            <DistanceMeters>3685.0723884156</DistanceMeters>
          </Trackpoint>
          <Trackpoint>
            <Time>2019-08-04T15:51:49.000Z</Time>
            <Position>
              <LatitudeDegrees>-33.53624336421489715576171875</LatitudeDegrees>
              <LongitudeDegrees>-70.2329233847558498382568359375</LongitudeDegrees>
            </Position>
            <AltitudeMeters>1824.4000244140625</AltitudeMeters>
            <DistanceMeters>3688.96732467</DistanceMeters>
          </Trackpoint>
          <Trackpoint>
            <Time>2019-08-04T15:51:54.000Z</Time>
            <Position>
              <LatitudeDegrees>-33.5362659953534603118896484375</LatitudeDegrees>
              <LongitudeDegrees>-70.2329616062343120574951171875</LongitudeDegrees>
            </Position>
            <AltitudeMeters>1825</AltitudeMeters>
            <DistanceMeters>3693.3157703778</DistanceMeters>
          </Trackpoint>
          <Trackpoint>
            <Time>2019-08-04T15:52:03.000Z</Time>
            <Position>
              <LatitudeDegrees>-33.53627764619886875152587890625</LatitudeDegrees>
              <LongitudeDegrees>-70.23300812579691410064697265625</LongitudeDegrees>
            </Position>
            <AltitudeMeters>1825.800048828125</AltitudeMeters>
            <DistanceMeters>3697.8232832173</DistanceMeters>
          </Trackpoint>
          <Trackpoint>
            <Time>2019-08-04T15:52:04.000Z</Time>
            <Position>
              <LatitudeDegrees>-33.53628066368401050567626953125</LatitudeDegrees>
              <LongitudeDegrees>-70.23301382549107074737548828125</LongitudeDegrees>
            </Position>
            <AltitudeMeters>1826</AltitudeMeters>
            <DistanceMeters>3698.446415055</DistanceMeters>
          </Trackpoint>
          <Trackpoint>
            <Time>2019-08-04T15:52:11.000Z</Time>
            <Position>
              <LatitudeDegrees>-33.53626624681055545806884765625</LatitudeDegrees>
              <LongitudeDegrees>-70.233056657016277313232421875</LongitudeDegrees>
            </Position>
            <AltitudeMeters>1827.199951171875</AltitudeMeters>
            <DistanceMeters>3702.7310556946</DistanceMeters>
          </Trackpoint>
          <Trackpoint>
            <Time>2019-08-04T15:52:15.000Z</Time>
            <Position>
              <LatitudeDegrees>-33.53627286851406097412109375</LatitudeDegrees>
              <LongitudeDegrees>-70.2330628596246242523193359375</LongitudeDegrees>
            </Position>
            <AltitudeMeters>1828</AltitudeMeters>
            <DistanceMeters>3703.6669602918</DistanceMeters>
          </Trackpoint>
          <Trackpoint>
            <Time>2019-08-04T15:52:17.000Z</Time>
            <Position>
              <LatitudeDegrees>-33.53627915494143962860107421875</LatitudeDegrees>
              <LongitudeDegrees>-70.23305975832045078277587890625</LongitudeDegrees>
            </Position>
            <AltitudeMeters>1828.199951171875</AltitudeMeters>
            <DistanceMeters>3704.4212114542</DistanceMeters>
          </Trackpoint>
          <Trackpoint>
            <Time>2019-08-04T15:52:18.000Z</Time>
            <Position>
              <LatitudeDegrees>-33.53628518991172313690185546875</LatitudeDegrees>
              <LongitudeDegrees>-70.2330571599304676055908203125</LongitudeDegrees>
            </Position>
            <AltitudeMeters>1828.4000244140625</AltitudeMeters>
            <DistanceMeters>3705.1323262697</DistanceMeters>
          </Trackpoint>
          <Trackpoint>
            <Time>2019-08-04T15:52:19.000Z</Time>
            <Position>
              <LatitudeDegrees>-33.53629122488200664520263671875</LatitudeDegrees>
              <LongitudeDegrees>-70.23305229842662811279296875</LongitudeDegrees>
            </Position>
            <AltitudeMeters>1828.5999755859375</AltitudeMeters>
            <DistanceMeters>3705.9386546792</DistanceMeters>
          </Trackpoint>
          <Trackpoint>
            <Time>2019-08-04T15:52:22.000Z</Time>
            <Position>
              <LatitudeDegrees>-33.53630010969936847686767578125</LatitudeDegrees>
              <LongitudeDegrees>-70.2330430783331394195556640625</LongitudeDegrees>
            </Position>
            <AltitudeMeters>1828.800048828125</AltitudeMeters>
            <DistanceMeters>3707.2485075428</DistanceMeters>
          </Trackpoint>
          <Trackpoint>
            <Time>2019-08-04T15:52:27.000Z</Time>
            <Position>
              <LatitudeDegrees>-33.53631821461021900177001953125</LatitudeDegrees>
              <LongitudeDegrees>-70.233028493821620941162109375</LongitudeDegrees>
            </Position>
            <AltitudeMeters>1829.4000244140625</AltitudeMeters>
            <DistanceMeters>3709.6749472889</DistanceMeters>
          </Trackpoint>
          <Trackpoint>
            <Time>2019-08-04T15:52:28.000Z</Time>
            <Position>
              <LatitudeDegrees>-33.53632290847599506378173828125</LatitudeDegrees>
              <LongitudeDegrees>-70.23302857764065265655517578125</LongitudeDegrees>
            </Position>
            <AltitudeMeters>1829.5999755859375</AltitudeMeters>
            <DistanceMeters>3710.1954300392</DistanceMeters>
          </Trackpoint>
          <Trackpoint>
            <Time>2019-08-04T15:52:39.000Z</Time>
            <Position>
              <LatitudeDegrees>-33.53637068532407283782958984375</LatitudeDegrees>
              <LongitudeDegrees>-70.23306847549974918365478515625</LongitudeDegrees>
            </Position>
            <AltitudeMeters>1830.4000244140625</AltitudeMeters>
            <DistanceMeters>3716.6746912153</DistanceMeters>
          </Trackpoint>
          <Trackpoint>
            <Time>2019-08-04T15:52:41.000Z</Time>
            <Position>
              <LatitudeDegrees>-33.53638744913041591644287109375</LatitudeDegrees>
              <LongitudeDegrees>-70.233080126345157623291015625</LongitudeDegrees>
            </Position>
            <AltitudeMeters>1830.800048828125</AltitudeMeters>
            <DistanceMeters>3718.8290958412</DistanceMeters>
          </Trackpoint>
          <Trackpoint>
            <Time>2019-08-04T15:52:45.000Z</Time>
            <Position>
              <LatitudeDegrees>-33.53640739805996417999267578125</LatitudeDegrees>
              <LongitudeDegrees>-70.2330957166850566864013671875</LongitudeDegrees>
            </Position>
            <AltitudeMeters>1831.5999755859375</AltitudeMeters>
            <DistanceMeters>3721.4779388711</DistanceMeters>
          </Trackpoint>
          <Trackpoint>
            <Time>2019-08-04T15:52:51.000Z</Time>
            <Position>
              <LatitudeDegrees>-33.5364487208425998687744140625</LatitudeDegrees>
              <LongitudeDegrees>-70.2331087924540042877197265625</LongitudeDegrees>
            </Position>
            <AltitudeMeters>1832.5999755859375</AltitudeMeters>
            <DistanceMeters>3726.2349727756</DistanceMeters>
          </Trackpoint>
          <Trackpoint>
            <Time>2019-08-04T15:52:55.000Z</Time>
            <Position>
              <LatitudeDegrees>-33.53645928204059600830078125</LatitudeDegrees>
              <LongitudeDegrees>-70.2331342734396457672119140625</LongitudeDegrees>
            </Position>
            <AltitudeMeters>1833.199951171875</AltitudeMeters>
            <DistanceMeters>3728.8752793894</DistanceMeters>
          </Trackpoint>
          <Trackpoint>
            <Time>2019-08-04T15:52:59.000Z</Time>
            <Position>
              <LatitudeDegrees>-33.53647671639919281005859375</LatitudeDegrees>
              <LongitudeDegrees>-70.23315564729273319244384765625</LongitudeDegrees>
            </Position>
            <AltitudeMeters>1833.5999755859375</AltitudeMeters>
            <DistanceMeters>3731.6506451683</DistanceMeters>
          </Trackpoint>
          <Trackpoint>
            <Time>2019-08-04T15:53:01.000Z</Time>
            <Position>
              <LatitudeDegrees>-33.536484427750110626220703125</LatitudeDegrees>
              <LongitudeDegrees>-70.23316168226301670074462890625</LongitudeDegrees>
            </Position>
            <AltitudeMeters>1834.199951171875</AltitudeMeters>
            <DistanceMeters>3732.6741142042</DistanceMeters>
          </Trackpoint>
          <Trackpoint>
            <Time>2019-08-04T15:53:05.000Z</Time>
            <Position>
              <LatitudeDegrees>-33.53649775497615337371826171875</LatitudeDegrees>
              <LongitudeDegrees>-70.23315212689340114593505859375</LongitudeDegrees>
            </Position>
            <AltitudeMeters>1834.800048828125</AltitudeMeters>
            <DistanceMeters>3734.4003601966</DistanceMeters>
          </Trackpoint>
          <Trackpoint>
            <Time>2019-08-04T15:53:07.000Z</Time>
            <Position>
              <LatitudeDegrees>-33.53650487959384918212890625</LatitudeDegrees>
              <LongitudeDegrees>-70.23314860649406909942626953125</LongitudeDegrees>
            </Position>
            <AltitudeMeters>1835.199951171875</AltitudeMeters>
            <DistanceMeters>3735.255600626</DistanceMeters>
          </Trackpoint>
          <Trackpoint>
            <Time>2019-08-04T15:53:11.000Z</Time>
            <Position>
              <LatitudeDegrees>-33.53653061203658580780029296875</LatitudeDegrees>
              <LongitudeDegrees>-70.23314843885600566864013671875</LongitudeDegrees>
            </Position>
            <AltitudeMeters>1836</AltitudeMeters>
            <DistanceMeters>3738.119044254</DistanceMeters>
          </Trackpoint>
          <Trackpoint>
            <Time>2019-08-04T15:53:16.000Z</Time>
            <Position>
              <LatitudeDegrees>-33.53656598366796970367431640625</LatitudeDegrees>
              <LongitudeDegrees>-70.23315112106502056121826171875</LongitudeDegrees>
            </Position>
            <AltitudeMeters>1836.5999755859375</AltitudeMeters>
            <DistanceMeters>3742.064655967</DistanceMeters>
          </Trackpoint>
          <Trackpoint>
            <Time>2019-08-04T15:53:21.000Z</Time>
            <Position>
              <LatitudeDegrees>-33.53659448213875293731689453125</LatitudeDegrees>
              <LongitudeDegrees>-70.23315179161727428436279296875</LongitudeDegrees>
            </Position>
            <AltitudeMeters>1837</AltitudeMeters>
            <DistanceMeters>3745.2377514958</DistanceMeters>
          </Trackpoint>
          <Trackpoint>
            <Time>2019-08-04T15:53:22.000Z</Time>
            <Position>
              <LatitudeDegrees>-33.53659951128065586090087890625</LatitudeDegrees>
              <LongitudeDegrees>-70.233154557645320892333984375</LongitudeDegrees>
            </Position>
            <AltitudeMeters>1837.4000244140625</AltitudeMeters>
            <DistanceMeters>3745.8535949911</DistanceMeters>
          </Trackpoint>
          <Trackpoint>
            <Time>2019-08-04T15:53:28.000Z</Time>
            <Position>
              <LatitudeDegrees>-33.53662826120853424072265625</LatitudeDegrees>
              <LongitudeDegrees>-70.23314022459089756011962890625</LongitudeDegrees>
            </Position>
            <AltitudeMeters>1838.4000244140625</AltitudeMeters>
            <DistanceMeters>3749.3191399223</DistanceMeters>
          </Trackpoint>
          <Trackpoint>
            <Time>2019-08-04T15:53:37.000Z</Time>
            <Position>
              <LatitudeDegrees>-33.536660112440586090087890625</LatitudeDegrees>
              <LongitudeDegrees>-70.233121030032634735107421875</LongitudeDegrees>
            </Position>
            <AltitudeMeters>1839.4000244140625</AltitudeMeters>
            <DistanceMeters>3753.2864341188</DistanceMeters>
          </Trackpoint>
          <Trackpoint>
            <Time>2019-08-04T15:53:38.000Z</Time>
            <Position>
              <LatitudeDegrees>-33.5366653092205524444580078125</LatitudeDegrees>
              <LongitudeDegrees>-70.23311742581427097320556640625</LongitudeDegrees>
            </Position>
            <AltitudeMeters>1839.4000244140625</AltitudeMeters>
            <DistanceMeters>3753.9583744601</DistanceMeters>
          </Trackpoint>
          <Trackpoint>
            <Time>2019-08-04T15:53:49.000Z</Time>
            <Position>
              <LatitudeDegrees>-33.536712415516376495361328125</LatitudeDegrees>
              <LongitudeDegrees>-70.23314223624765872955322265625</LongitudeDegrees>
            </Position>
            <AltitudeMeters>1840.5999755859375</AltitudeMeters>
            <DistanceMeters>3759.683684713</DistanceMeters>
          </Trackpoint>
          <Trackpoint>
            <Time>2019-08-04T15:53:56.000Z</Time>
            <Position>
              <LatitudeDegrees>-33.53673756122589111328125</LatitudeDegrees>
              <LongitudeDegrees>-70.233173333108425140380859375</LongitudeDegrees>
            </Position>
            <AltitudeMeters>1841.4000244140625</AltitudeMeters>
            <DistanceMeters>3763.7029889759</DistanceMeters>
          </Trackpoint>
          <Trackpoint>
            <Time>2019-08-04T15:53:58.000Z</Time>
            <Position>
              <LatitudeDegrees>-33.53674602694809436798095703125</LatitudeDegrees>
              <LongitudeDegrees>-70.23317593149840831756591796875</LongitudeDegrees>
            </Position>
            <AltitudeMeters>1842</AltitudeMeters>
            <DistanceMeters>3764.6720751177</DistanceMeters>
          </Trackpoint>
          <Trackpoint>
            <Time>2019-08-04T15:54:02.000Z</Time>
            <Position>
              <LatitudeDegrees>-33.53674854151904582977294921875</LatitudeDegrees>
              <LongitudeDegrees>-70.23319403640925884246826171875</LongitudeDegrees>
            </Position>
            <AltitudeMeters>1842.5999755859375</AltitudeMeters>
            <DistanceMeters>3766.3772685422</DistanceMeters>
          </Trackpoint>
          <Trackpoint>
            <Time>2019-08-04T15:54:04.000Z</Time>
            <Position>
              <LatitudeDegrees>-33.53674971498548984527587890625</LatitudeDegrees>
              <LongitudeDegrees>-70.2332045137882232666015625</LongitudeDegrees>
            </Position>
            <AltitudeMeters>1843</AltitudeMeters>
            <DistanceMeters>3767.3556284468</DistanceMeters>
          </Trackpoint>
          <Trackpoint>
            <Time>2019-08-04T15:54:08.000Z</Time>
            <Position>
              <LatitudeDegrees>-33.53675591759383678436279296875</LatitudeDegrees>
              <LongitudeDegrees>-70.233216583728790283203125</LongitudeDegrees>
            </Position>
            <AltitudeMeters>1843.800048828125</AltitudeMeters>
            <DistanceMeters>3768.6723572258</DistanceMeters>
          </Trackpoint>
          <Trackpoint>
            <Time>2019-08-04T15:54:10.000Z</Time>
            <Position>
              <LatitudeDegrees>-33.536761701107025146484375</LatitudeDegrees>
              <LongitudeDegrees>-70.233219601213932037353515625</LongitudeDegrees>
            </Position>
            <AltitudeMeters>1844</AltitudeMeters>
            <DistanceMeters>3769.3706581122</DistanceMeters>
          </Trackpoint>
          <Trackpoint>
            <Time>2019-08-04T15:54:11.000Z</Time>
            <Position>
              <LatitudeDegrees>-33.536761701107025146484375</LatitudeDegrees>
              <LongitudeDegrees>-70.23322789929807186126708984375</LongitudeDegrees>
            </Position>
            <AltitudeMeters>1844.199951171875</AltitudeMeters>
            <DistanceMeters>3770.1308718271</DistanceMeters>
          </Trackpoint>
          <Trackpoint>
            <Time>2019-08-04T15:54:16.000Z</Time>
            <Position>
              <LatitudeDegrees>-33.53676916100084781646728515625</LatitudeDegrees>
              <LongitudeDegrees>-70.23326310329139232635498046875</LongitudeDegrees>
            </Position>
            <AltitudeMeters>1844.800048828125</AltitudeMeters>
            <DistanceMeters>3773.4986271647</DistanceMeters>
          </Trackpoint>
          <Trackpoint>
            <Time>2019-08-04T15:54:18.000Z</Time>
            <Position>
              <LatitudeDegrees>-33.5367762856185436248779296875</LatitudeDegrees>
              <LongitudeDegrees>-70.2332811243832111358642578125</LongitudeDegrees>
            </Position>
            <AltitudeMeters>1845.199951171875</AltitudeMeters>
            <DistanceMeters>3775.3510388492</DistanceMeters>
          </Trackpoint>
          <Trackpoint>
            <Time>2019-08-04T15:54:23.000Z</Time>
            <Position>
              <LatitudeDegrees>-33.53679313324391841888427734375</LatitudeDegrees>
              <LongitudeDegrees>-70.23332965560257434844970703125</LongitudeDegrees>
            </Position>
            <AltitudeMeters>1846.199951171875</AltitudeMeters>
            <DistanceMeters>3780.2280483174</DistanceMeters>
          </Trackpoint>
          <Trackpoint>
            <Time>2019-08-04T15:54:24.000Z</Time>
            <Position>
              <LatitudeDegrees>-33.53679497726261615753173828125</LatitudeDegrees>
              <LongitudeDegrees>-70.2333367802202701568603515625</LongitudeDegrees>
            </Position>
            <AltitudeMeters>1846.4000244140625</AltitudeMeters>
            <DistanceMeters>3780.9132956998</DistanceMeters>
          </Trackpoint>
          <Trackpoint>
            <Time>2019-08-04T15:54:31.000Z</Time>
            <Position>
              <LatitudeDegrees>-33.536829091608524322509765625</LatitudeDegrees>
              <LongitudeDegrees>-70.23335681296885013580322265625</LongitudeDegrees>
            </Position>
            <AltitudeMeters>1847.199951171875</AltitudeMeters>
            <DistanceMeters>3785.1395814457</DistanceMeters>
          </Trackpoint>
          <Trackpoint>
            <Time>2019-08-04T15:54:32.000Z</Time>
            <Position>
              <LatitudeDegrees>-33.53683269582688808441162109375</LatitudeDegrees>
              <LongitudeDegrees>-70.2333562262356281280517578125</LongitudeDegrees>
            </Position>
            <AltitudeMeters>1847.5999755859375</AltitudeMeters>
            <DistanceMeters>3785.5427456505</DistanceMeters>
          </Trackpoint>
          <Trackpoint>
            <Time>2019-08-04T15:54:38.000Z</Time>
            <Position>
              <LatitudeDegrees>-33.53686270304024219512939453125</LatitudeDegrees>
              <LongitudeDegrees>-70.23335915990173816680908203125</LongitudeDegrees>
            </Position>
            <AltitudeMeters>1848.5999755859375</AltitudeMeters>
            <DistanceMeters>3788.8930269849</DistanceMeters>
          </Trackpoint>
          <Trackpoint>
            <Time>2019-08-04T15:54:42.000Z</Time>
            <Position>
              <LatitudeDegrees>-33.53688164614140987396240234375</LatitudeDegrees>
              <LongitudeDegrees>-70.233357734978199005126953125</LongitudeDegrees>
            </Position>
            <AltitudeMeters>1849.5999755859375</AltitudeMeters>
            <DistanceMeters>3791.0051012647</DistanceMeters>
          </Trackpoint>
          <Trackpoint>
            <Time>2019-08-04T15:54:45.000Z</Time>
            <Position>
              <LatitudeDegrees>-33.536900840699672698974609375</LatitudeDegrees>
              <LongitudeDegrees>-70.233363099396228790283203125</LongitudeDegrees>
            </Position>
            <AltitudeMeters>1849.800048828125</AltitudeMeters>
            <DistanceMeters>3793.1989633261</DistanceMeters>
          </Trackpoint>
          <Trackpoint>
            <Time>2019-08-04T15:54:50.000Z</Time>
            <Position>
              <LatitudeDegrees>-33.53694518096745014190673828125</LatitudeDegrees>
              <LongitudeDegrees>-70.2333726547658443450927734375</LongitudeDegrees>
            </Position>
            <AltitudeMeters>1850.5999755859375</AltitudeMeters>
            <DistanceMeters>3798.2120165618</DistanceMeters>
          </Trackpoint>
          <Trackpoint>
            <Time>2019-08-04T15:54:57.000Z</Time>
            <Position>
              <LatitudeDegrees>-33.53697015903890132904052734375</LatitudeDegrees>
              <LongitudeDegrees>-70.23338782601058483123779296875</LongitudeDegrees>
            </Position>
            <AltitudeMeters>1851.5999755859375</AltitudeMeters>
            <DistanceMeters>3801.329124557</DistanceMeters>
          </Trackpoint>
          <Trackpoint>
            <Time>2019-08-04T15:54:58.000Z</Time>
            <Position>
              <LatitudeDegrees>-33.53697418235242366790771484375</LatitudeDegrees>
              <LongitudeDegrees>-70.2333843894302845001220703125</LongitudeDegrees>
            </Position>
            <AltitudeMeters>1851.800048828125</AltitudeMeters>
            <DistanceMeters>3801.8750114708</DistanceMeters>
          </Trackpoint>
          <Trackpoint>
            <Time>2019-08-04T15:55:06.000Z</Time>
            <Position>
              <LatitudeDegrees>-33.5369781218469142913818359375</LatitudeDegrees>
              <LongitudeDegrees>-70.2334330044686794281005859375</LongitudeDegrees>
            </Position>
            <AltitudeMeters>1852.800048828125</AltitudeMeters>
            <DistanceMeters>3806.4055041324</DistanceMeters>
          </Trackpoint>
          <Trackpoint>
            <Time>2019-08-04T15:55:07.000Z</Time>
            <Position>
              <LatitudeDegrees>-33.5369797982275485992431640625</LatitudeDegrees>
              <LongitudeDegrees>-70.2334393747150897979736328125</LongitudeDegrees>
            </Position>
            <AltitudeMeters>1853</AltitudeMeters>
            <DistanceMeters>3807.0358400456</DistanceMeters>
          </Trackpoint>
          <Trackpoint>
            <Time>2019-08-04T15:55:16.000Z</Time>
            <Position>
              <LatitudeDegrees>-33.53696345351636409759521484375</LatitudeDegrees>
              <LongitudeDegrees>-70.23345907218754291534423828125</LongitudeDegrees>
            </Position>
            <AltitudeMeters>1853.800048828125</AltitudeMeters>
            <DistanceMeters>3809.6138501819</DistanceMeters>
          </Trackpoint>
          <Trackpoint>
            <Time>2019-08-04T15:55:18.000Z</Time>
            <Position>
              <LatitudeDegrees>-33.536961860954761505126953125</LatitudeDegrees>
              <LongitudeDegrees>-70.2334606647491455078125</LongitudeDegrees>
            </Position>
            <AltitudeMeters>1854.4000244140625</AltitudeMeters>
            <DistanceMeters>3809.8466171441</DistanceMeters>
          </Trackpoint>
          <Trackpoint>
            <Time>2019-08-04T15:55:22.000Z</Time>
            <Position>
              <LatitudeDegrees>-33.5369653813540935516357421875</LatitudeDegrees>
              <LongitudeDegrees>-70.2334547974169254302978515625</LongitudeDegrees>
            </Position>
            <AltitudeMeters>1854.800048828125</AltitudeMeters>
            <DistanceMeters>3810.5252436235</DistanceMeters>
          </Trackpoint>
          <Trackpoint>
            <Time>2019-08-04T15:55:31.000Z</Time>
            <Position>
              <LatitudeDegrees>-33.53700854815542697906494140625</LatitudeDegrees>
              <LongitudeDegrees>-70.23347751237452030181884765625</LongitudeDegrees>
            </Position>
            <AltitudeMeters>1855.199951171875</AltitudeMeters>
            <DistanceMeters>3815.772405054</DistanceMeters>
          </Trackpoint>
          <Trackpoint>
            <Time>2019-08-04T15:55:38.000Z</Time>
            <Position>
              <LatitudeDegrees>-33.53701441548764705657958984375</LatitudeDegrees>
              <LongitudeDegrees>-70.23348237387835979461669921875</LongitudeDegrees>
            </Position>
            <AltitudeMeters>1855.5999755859375</AltitudeMeters>
            <DistanceMeters>3816.5674555877</DistanceMeters>
          </Trackpoint>
          <Trackpoint>
            <Time>2019-08-04T15:55:41.000Z</Time>
            <Position>
              <LatitudeDegrees>-33.53701424784958362579345703125</LatitudeDegrees>
              <LongitudeDegrees>-70.23348170332610607147216796875</LongitudeDegrees>
            </Position>
            <AltitudeMeters>1855.4000244140625</AltitudeMeters>
            <DistanceMeters>3816.7018436559</DistanceMeters>
          </Trackpoint>
          <Trackpoint>
            <Time>2019-08-04T15:55:43.000Z</Time>
            <Position>
              <LatitudeDegrees>-33.53701693005859851837158203125</LatitudeDegrees>
              <LongitudeDegrees>-70.2334836311638355255126953125</LongitudeDegrees>
            </Position>
            <AltitudeMeters>1855.199951171875</AltitudeMeters>
            <DistanceMeters>3817.0310258507</DistanceMeters>
          </Trackpoint>
          <Trackpoint>
            <Time>2019-08-04T15:55:53.000Z</Time>
            <Position>
              <LatitudeDegrees>-33.53701651096343994140625</LatitudeDegrees>
              <LongitudeDegrees>-70.23347650654613971710205078125</LongitudeDegrees>
            </Position>
            <AltitudeMeters>1854.800048828125</AltitudeMeters>
            <DistanceMeters>3817.7029661919</DistanceMeters>
          </Trackpoint>
          <Trackpoint>
            <Time>2019-08-04T15:55:56.000Z</Time>
            <Position>
              <LatitudeDegrees>-33.53700955398380756378173828125</LatitudeDegrees>
              <LongitudeDegrees>-70.23347147740423679351806640625</LongitudeDegrees>
            </Position>
            <AltitudeMeters>1854.800048828125</AltitudeMeters>
            <DistanceMeters>3818.6044687598</DistanceMeters>
          </Trackpoint>
          <Trackpoint>
            <Time>2019-08-04T15:55:57.000Z</Time>
            <Position>
              <LatitudeDegrees>-33.5370098054409027099609375</LatitudeDegrees>
              <LongitudeDegrees>-70.233471393585205078125</LongitudeDegrees>
            </Position>
            <AltitudeMeters>1854.800048828125</AltitudeMeters>
            <DistanceMeters>3818.6044687598</DistanceMeters>
          </Trackpoint>
          <Trackpoint>
            <Time>2019-08-04T15:55:58.000Z</Time>
            <Position>
              <LatitudeDegrees>-33.53700821287930011749267578125</LatitudeDegrees>
              <LongitudeDegrees>-70.23347206413745880126953125</LongitudeDegrees>
            </Position>
            <AltitudeMeters>1854.800048828125</AltitudeMeters>
            <DistanceMeters>3818.7945221886</DistanceMeters>
          </Trackpoint>
          <Trackpoint>
            <Time>2019-08-04T15:55:59.000Z</Time>
            <Position>
              <LatitudeDegrees>-33.5370049439370632171630859375</LatitudeDegrees>
              <LongitudeDegrees>-70.2334729023277759552001953125</LongitudeDegrees>
            </Position>
            <AltitudeMeters>1854.800048828125</AltitudeMeters>
            <DistanceMeters>3819.1746290461</DistanceMeters>
          </Trackpoint>
          <Trackpoint>
            <Time>2019-08-04T15:56:00.000Z</Time>
            <Position>
              <LatitudeDegrees>-33.53700452484190464019775390625</LatitudeDegrees>
              <LongitudeDegrees>-70.23347315378487110137939453125</LongitudeDegrees>
            </Position>
            <AltitudeMeters>1854.800048828125</AltitudeMeters>
            <DistanceMeters>3819.2696557604</DistanceMeters>
          </Trackpoint>
          <Trackpoint>
            <Time>2019-08-04T15:56:02.000Z</Time>
            <Position>
              <LatitudeDegrees>-33.537006117403507232666015625</LatitudeDegrees>
              <LongitudeDegrees>-70.23347214795649051666259765625</LongitudeDegrees>
            </Position>
            <AltitudeMeters>1855</AltitudeMeters>
            <DistanceMeters>3819.5024227226</DistanceMeters>
          </Trackpoint>
          <Trackpoint>
            <Time>2019-08-04T15:56:10.000Z</Time>
            <Position>
              <LatitudeDegrees>-33.53701055981218814849853515625</LatitudeDegrees>
              <LongitudeDegrees>-70.23346778936684131622314453125</LongitudeDegrees>
            </Position>
            <AltitudeMeters>1855.4000244140625</AltitudeMeters>
            <DistanceMeters>3820.1469252566</DistanceMeters>
          </Trackpoint>
          <Trackpoint>
            <Time>2019-08-04T15:56:11.000Z</Time>
            <Position>
              <LatitudeDegrees>-33.53700871579349040985107421875</LatitudeDegrees>
              <LongitudeDegrees>-70.23346602916717529296875</LongitudeDegrees>
            </Position>
            <AltitudeMeters>1855.4000244140625</AltitudeMeters>
            <DistanceMeters>3820.4157013931</DistanceMeters>
          </Trackpoint>
          <Trackpoint>
            <Time>2019-08-04T15:56:13.000Z</Time>
            <Position>
              <LatitudeDegrees>-33.5370044410228729248046875</LatitudeDegrees>
              <LongitudeDegrees>-70.233461670577526092529296875</LongitudeDegrees>
            </Position>
            <AltitudeMeters>1855.5999755859375</AltitudeMeters>
            <DistanceMeters>3821.0460373064</DistanceMeters>
          </Trackpoint>
          <Trackpoint>
            <Time>2019-08-04T15:56:15.000Z</Time>
            <Position>
              <LatitudeDegrees>-33.5370004177093505859375</LatitudeDegrees>
              <LongitudeDegrees>-70.2334581501781940460205078125</LongitudeDegrees>
            </Position>
            <AltitudeMeters>1855.5999755859375</AltitudeMeters>
            <DistanceMeters>3821.6001335066</DistanceMeters>
          </Trackpoint>
          <Trackpoint>
            <Time>2019-08-04T15:56:21.000Z</Time>
            <Position>
              <LatitudeDegrees>-33.536992035806179046630859375</LatitudeDegrees>
              <LongitudeDegrees>-70.23346259258687496185302734375</LongitudeDegrees>
            </Position>
            <AltitudeMeters>1855.4000244140625</AltitudeMeters>
            <DistanceMeters>3822.6236025425</DistanceMeters>
          </Trackpoint>
          <Trackpoint>
            <Time>2019-08-04T15:56:27.000Z</Time>
            <Position>
              <LatitudeDegrees>-33.537003099918365478515625</LatitudeDegrees>
              <LongitudeDegrees>-70.23346527479588985443115234375</LongitudeDegrees>
            </Position>
            <AltitudeMeters>1854.800048828125</AltitudeMeters>
            <DistanceMeters>3823.8806878132</DistanceMeters>
          </Trackpoint>
          <Trackpoint>
            <Time>2019-08-04T15:56:37.000Z</Time>
            <Position>
              <LatitudeDegrees>-33.5370129905641078948974609375</LatitudeDegrees>
              <LongitudeDegrees>-70.23348405025899410247802734375</LongitudeDegrees>
            </Position>
            <AltitudeMeters>1854.5999755859375</AltitudeMeters>
            <DistanceMeters>3825.9408178888</DistanceMeters>
          </Trackpoint>
          <Trackpoint>
            <Time>2019-08-04T15:56:39.000Z</Time>
            <Position>
              <LatitudeDegrees>-33.53701307438313961029052734375</LatitudeDegrees>
              <LongitudeDegrees>-70.2334869839251041412353515625</LongitudeDegrees>
            </Position>
            <AltitudeMeters>1854.5999755859375</AltitudeMeters>
            <DistanceMeters>3826.2095940253</DistanceMeters>
          </Trackpoint>
          <Trackpoint>
            <Time>2019-08-04T15:56:43.000Z</Time>
            <Position>
              <LatitudeDegrees>-33.53701441548764705657958984375</LatitudeDegrees>
              <LongitudeDegrees>-70.23350098170340061187744140625</LongitudeDegrees>
            </Position>
            <AltitudeMeters>1854.5999755859375</AltitudeMeters>
            <DistanceMeters>3827.519446889</DistanceMeters>
          </Trackpoint>
          <Trackpoint>
            <Time>2019-08-04T15:56:51.000Z</Time>
            <Position>
              <LatitudeDegrees>-33.536990024149417877197265625</LatitudeDegrees>
              <LongitudeDegrees>-70.23351372219622135162353515625</LongitudeDegrees>
            </Position>
            <AltitudeMeters>1855</AltitudeMeters>
            <DistanceMeters>3830.4820866415</DistanceMeters>
          </Trackpoint>
          <Trackpoint>
            <Time>2019-08-04T15:56:56.000Z</Time>
            <Position>
              <LatitudeDegrees>-33.5369861684739589691162109375</LatitudeDegrees>
              <LongitudeDegrees>-70.23350232280790805816650390625</LongitudeDegrees>
            </Position>
            <AltitudeMeters>1855.5999755859375</AltitudeMeters>
            <DistanceMeters>3831.622407214</DistanceMeters>
          </Trackpoint>
          <Trackpoint>
            <Time>2019-08-04T15:56:58.000Z</Time>
            <Position>
              <LatitudeDegrees>-33.53698625229299068450927734375</LatitudeDegrees>
              <LongitudeDegrees>-70.2335060946643352508544921875</LongitudeDegrees>
            </Position>
            <AltitudeMeters>1855.800048828125</AltitudeMeters>
            <DistanceMeters>3831.9779646217</DistanceMeters>
          </Trackpoint>
          <Trackpoint>
            <Time>2019-08-04T15:57:00.000Z</Time>
            <Position>
              <LatitudeDegrees>-33.53698574937880039215087890625</LatitudeDegrees>
              <LongitudeDegrees>-70.23350450210273265838623046875</LongitudeDegrees>
            </Position>
            <AltitudeMeters>1856</AltitudeMeters>
            <DistanceMeters>3832.11235269</DistanceMeters>
          </Trackpoint>
          <Trackpoint>
            <Time>2019-08-04T15:57:04.000Z</Time>
            <Position>
              <LatitudeDegrees>-33.53698088787496089935302734375</LatitudeDegrees>
              <LongitudeDegrees>-70.23350316099822521209716796875</LongitudeDegrees>
            </Position>
            <AltitudeMeters>1856.199951171875</AltitudeMeters>
            <DistanceMeters>3832.6664488902</DistanceMeters>
          </Trackpoint>
          <Trackpoint>
            <Time>2019-08-04T15:57:06.000Z</Time>
            <Position>
              <LatitudeDegrees>-33.53697803802788257598876953125</LatitudeDegrees>
              <LongitudeDegrees>-70.2335040830075740814208984375</LongitudeDegrees>
            </Position>
            <AltitudeMeters>1856.199951171875</AltitudeMeters>
            <DistanceMeters>3832.9956310849</DistanceMeters>
          </Trackpoint>
          <Trackpoint>
            <Time>2019-08-04T15:57:19.000Z</Time>
            <Position>
              <LatitudeDegrees>-33.5369808040559291839599609375</LatitudeDegrees>
              <LongitudeDegrees>-70.233496539294719696044921875</LongitudeDegrees>
            </Position>
            <AltitudeMeters>1855.800048828125</AltitudeMeters>
            <DistanceMeters>3833.7558447999</DistanceMeters>
          </Trackpoint>
          <Trackpoint>
            <Time>2019-08-04T15:57:21.000Z</Time>
            <Position>
              <LatitudeDegrees>-33.5369818098843097686767578125</LatitudeDegrees>
              <LongitudeDegrees>-70.23349612019956111907958984375</LongitudeDegrees>
            </Position>
            <AltitudeMeters>1855.800048828125</AltitudeMeters>
            <DistanceMeters>3833.8508715143</DistanceMeters>
          </Trackpoint>
          <Trackpoint>
            <Time>2019-08-04T15:57:34.000Z</Time>
            <Position>
              <LatitudeDegrees>-33.53698038496077060699462890625</LatitudeDegrees>
              <LongitudeDegrees>-70.23349083960056304931640625</LongitudeDegrees>
            </Position>
            <AltitudeMeters>1855.800048828125</AltitudeMeters>
            <DistanceMeters>3834.3713542645</DistanceMeters>
          </Trackpoint>
          <Trackpoint>
            <Time>2019-08-04T15:57:35.000Z</Time>
            <Position>
              <LatitudeDegrees>-33.53698004968464374542236328125</LatitudeDegrees>
              <LongitudeDegrees>-70.23348949849605560302734375</LongitudeDegrees>
            </Position>
            <AltitudeMeters>1855.800048828125</AltitudeMeters>
            <DistanceMeters>3834.5057423328</DistanceMeters>
          </Trackpoint>
          <Trackpoint>
            <Time>2019-08-04T15:57:43.000Z</Time>
            <Position>
              <LatitudeDegrees>-33.53698759339749813079833984375</LatitudeDegrees>
              <LongitudeDegrees>-70.23350282572209835052490234375</LongitudeDegrees>
            </Position>
            <AltitudeMeters>1856</AltitudeMeters>
            <DistanceMeters>3836.0022245272</DistanceMeters>
          </Trackpoint>
          <Trackpoint>
            <Time>2019-08-04T15:57:47.000Z</Time>
            <Position>
              <LatitudeDegrees>-33.53698625229299068450927734375</LatitudeDegrees>
              <LongitudeDegrees>-70.23351741023361682891845703125</LongitudeDegrees>
            </Position>
            <AltitudeMeters>1856.199951171875</AltitudeMeters>
            <DistanceMeters>3837.3661144595</DistanceMeters>
          </Trackpoint>
          <Trackpoint>
            <Time>2019-08-04T15:57:48.000Z</Time>
            <Position>
              <LatitudeDegrees>-33.53698608465492725372314453125</LatitudeDegrees>
              <LongitudeDegrees>-70.233520679175853729248046875</LongitudeDegrees>
            </Position>
            <AltitudeMeters>1856.4000244140625</AltitudeMeters>
            <DistanceMeters>3837.6812824161</DistanceMeters>
          </Trackpoint>
          <Trackpoint>
            <Time>2019-08-04T15:57:50.000Z</Time>
            <Position>
              <LatitudeDegrees>-33.53697963058948516845703125</LatitudeDegrees>
              <LongitudeDegrees>-70.23353132419288158416748046875</LongitudeDegrees>
            </Position>
            <AltitudeMeters>1856.5999755859375</AltitudeMeters>
            <DistanceMeters>3838.9019226634</DistanceMeters>
          </Trackpoint>
          <Trackpoint>
            <Time>2019-08-04T15:57:52.000Z</Time>
            <Position>
              <LatitudeDegrees>-33.5369803011417388916015625</LatitudeDegrees>
              <LongitudeDegrees>-70.23353870026767253875732421875</LongitudeDegrees>
            </Position>
            <AltitudeMeters>1856.800048828125</AltitudeMeters>
            <DistanceMeters>3839.6002235498</DistanceMeters>
          </Trackpoint>
          <Trackpoint>
            <Time>2019-08-04T15:57:53.000Z</Time>
            <Position>
              <LatitudeDegrees>-33.53698021732270717620849609375</LatitudeDegrees>
              <LongitudeDegrees>-70.233542136847972869873046875</LongitudeDegrees>
            </Position>
            <AltitudeMeters>1857</AltitudeMeters>
            <DistanceMeters>3839.9294057445</DistanceMeters>
          </Trackpoint>
          <Trackpoint>
            <Time>2019-08-04T15:58:01.000Z</Time>
            <Position>
              <LatitudeDegrees>-33.53699161671102046966552734375</LatitudeDegrees>
              <LongitudeDegrees>-70.233544148504734039306640625</LongitudeDegrees>
            </Position>
            <AltitudeMeters>1858</AltitudeMeters>
            <DistanceMeters>3841.2113862096</DistanceMeters>
          </Trackpoint>
          <Trackpoint>
            <Time>2019-08-04T15:58:05.000Z</Time>
            <Position>
              <LatitudeDegrees>-33.53699010796844959259033203125</LatitudeDegrees>
              <LongitudeDegrees>-70.23354104720056056976318359375</LongitudeDegrees>
            </Position>
            <AltitudeMeters>1858</AltitudeMeters>
            <DistanceMeters>3841.5405684043</DistanceMeters>
          </Trackpoint>
          <Trackpoint>
            <Time>2019-08-04T15:58:13.000Z</Time>
            <Position>
              <LatitudeDegrees>-33.5369868390262126922607421875</LatitudeDegrees>
              <LongitudeDegrees>-70.2335466630756855010986328125</LongitudeDegrees>
            </Position>
            <AltitudeMeters>1857.800048828125</AltitudeMeters>
            <DistanceMeters>3842.1709043176</DistanceMeters>
          </Trackpoint>
          <Trackpoint>
            <Time>2019-08-04T15:58:18.000Z</Time>
            <Position>
              <LatitudeDegrees>-33.53697870858013629913330078125</LatitudeDegrees>
              <LongitudeDegrees>-70.233531408011913299560546875</LongitudeDegrees>
            </Position>
            <AltitudeMeters>1857.4000244140625</AltitudeMeters>
            <DistanceMeters>3843.849410752</DistanceMeters>
          </Trackpoint>
          <Trackpoint>
            <Time>2019-08-04T15:58:24.000Z</Time>
            <Position>
              <LatitudeDegrees>-33.53696663863956928253173828125</LatitudeDegrees>
              <LongitudeDegrees>-70.233519338071346282958984375</LongitudeDegrees>
            </Position>
            <AltitudeMeters>1857</AltitudeMeters>
            <DistanceMeters>3845.5964556393</DistanceMeters>
          </Trackpoint>
          <Trackpoint>
            <Time>2019-08-04T15:58:27.000Z</Time>
            <Position>
              <LatitudeDegrees>-33.5369653813540935516357421875</LatitudeDegrees>
              <LongitudeDegrees>-70.23352294228971004486083984375</LongitudeDegrees>
            </Position>
            <AltitudeMeters>1857</AltitudeMeters>
            <DistanceMeters>3845.952013047</DistanceMeters>
          </Trackpoint>
          <Trackpoint>
            <Time>2019-08-04T15:58:38.000Z</Time>
            <Position>
              <LatitudeDegrees>-33.53696764446794986724853515625</LatitudeDegrees>
              <LongitudeDegrees>-70.2335436455905437469482421875</LongitudeDegrees>
            </Position>
            <AltitudeMeters>1856.800048828125</AltitudeMeters>
            <DistanceMeters>3847.8901853306</DistanceMeters>
          </Trackpoint>
          <Trackpoint>
            <Time>2019-08-04T15:58:43.000Z</Time>
            <Position>
              <LatitudeDegrees>-33.53697183541953563690185546875</LatitudeDegrees>
              <LongitudeDegrees>-70.233552195131778717041015625</LongitudeDegrees>
            </Position>
            <AltitudeMeters>1856.5999755859375</AltitudeMeters>
            <DistanceMeters>3848.8115035089</DistanceMeters>
          </Trackpoint>
          <Trackpoint>
            <Time>2019-08-04T15:58:44.000Z</Time>
            <Position>
              <LatitudeDegrees>-33.536978624761104583740234375</LatitudeDegrees>
              <LongitudeDegrees>-70.233561582863330841064453125</LongitudeDegrees>
            </Position>
            <AltitudeMeters>1856.5999755859375</AltitudeMeters>
            <DistanceMeters>3849.967553384</DistanceMeters>
          </Trackpoint>
          <Trackpoint>
            <Time>2019-08-04T15:58:47.000Z</Time>
            <Position>
              <LatitudeDegrees>-33.53698172606527805328369140625</LatitudeDegrees>
              <LongitudeDegrees>-70.23358161561191082000732421875</LongitudeDegrees>
            </Position>
            <AltitudeMeters>1856.5999755859375</AltitudeMeters>
            <DistanceMeters>3851.8585611237</DistanceMeters>
          </Trackpoint>
          <Trackpoint>
            <Time>2019-08-04T15:58:51.000Z</Time>
            <Position>
              <LatitudeDegrees>-33.5369747690856456756591796875</LatitudeDegrees>
              <LongitudeDegrees>-70.23358404636383056640625</LongitudeDegrees>
            </Position>
            <AltitudeMeters>1856.800048828125</AltitudeMeters>
            <DistanceMeters>3852.6648895332</DistanceMeters>
          </Trackpoint>
          <Trackpoint>
            <Time>2019-08-04T15:58:54.000Z</Time>
            <Position>
              <LatitudeDegrees>-33.53697233833372592926025390625</LatitudeDegrees>
              <LongitudeDegrees>-70.2335879020392894744873046875</LongitudeDegrees>
            </Position>
            <AltitudeMeters>1857.4000244140625</AltitudeMeters>
            <DistanceMeters>3853.1106043319</DistanceMeters>
          </Trackpoint>
          <Trackpoint>
            <Time>2019-08-04T15:58:56.000Z</Time>
            <Position>
              <LatitudeDegrees>-33.536971919238567352294921875</LatitudeDegrees>
              <LongitudeDegrees>-70.23358765058219432830810546875</LongitudeDegrees>
            </Position>
            <AltitudeMeters>1858</AltitudeMeters>
            <DistanceMeters>3853.1106043319</DistanceMeters>
          </Trackpoint>
          <Trackpoint>
            <Time>2019-08-04T15:59:10.000Z</Time>
            <Position>
              <LatitudeDegrees>-33.5369776189327239990234375</LatitudeDegrees>
              <LongitudeDegrees>-70.233585052192211151123046875</LongitudeDegrees>
            </Position>
            <AltitudeMeters>1858.800048828125</AltitudeMeters>
            <DistanceMeters>3853.7825446732</DistanceMeters>
          </Trackpoint>
          <Trackpoint>
            <Time>2019-08-04T15:59:16.000Z</Time>
            <Position>
              <LatitudeDegrees>-33.53698038496077060699462890625</LatitudeDegrees>
              <LongitudeDegrees>-70.23357801139354705810546875</LongitudeDegrees>
            </Position>
            <AltitudeMeters>1859</AltitudeMeters>
            <DistanceMeters>3854.5062465688</DistanceMeters>
          </Trackpoint>
          <Trackpoint>
            <Time>2019-08-04T15:59:17.000Z</Time>
            <Position>
              <LatitudeDegrees>-33.536981977522373199462890625</LatitudeDegrees>
              <LongitudeDegrees>-70.2335775084793567657470703125</LongitudeDegrees>
            </Position>
            <AltitudeMeters>1859</AltitudeMeters>
            <DistanceMeters>3854.6962999976</DistanceMeters>
          </Trackpoint>
          <Trackpoint>
            <Time>2019-08-04T15:59:19.000Z</Time>
            <Position>
              <LatitudeDegrees>-33.536980636417865753173828125</LatitudeDegrees>
              <LongitudeDegrees>-70.2335751615464687347412109375</LongitudeDegrees>
            </Position>
            <AltitudeMeters>1859</AltitudeMeters>
            <DistanceMeters>3854.9813801407</DistanceMeters>
          </Trackpoint>
          <Trackpoint>
            <Time>2019-08-04T15:59:24.000Z</Time>
            <Position>
              <LatitudeDegrees>-33.5369935445487499237060546875</LatitudeDegrees>
              <LongitudeDegrees>-70.23357826285064220428466796875</LongitudeDegrees>
            </Position>
            <AltitudeMeters>1859</AltitudeMeters>
            <DistanceMeters>3856.4473808888</DistanceMeters>
          </Trackpoint>
          <Trackpoint>
            <Time>2019-08-04T15:59:35.000Z</Time>
            <Position>
              <LatitudeDegrees>-33.53701718151569366455078125</LatitudeDegrees>
              <LongitudeDegrees>-70.23361715488135814666748046875</LongitudeDegrees>
            </Position>
            <AltitudeMeters>1859.199951171875</AltitudeMeters>
            <DistanceMeters>3860.9126254273</DistanceMeters>
          </Trackpoint>
          <Trackpoint>
            <Time>2019-08-04T15:59:42.000Z</Time>
            <Position>
              <LatitudeDegrees>-33.53704408742487430572509765625</LatitudeDegrees>
              <LongitudeDegrees>-70.2336579747498035430908203125</LongitudeDegrees>
            </Position>
            <AltitudeMeters>1859.5999755859375</AltitudeMeters>
            <DistanceMeters>3865.7412543609</DistanceMeters>
          </Trackpoint>
          <Trackpoint>
            <Time>2019-08-04T15:59:44.000Z</Time>
            <Position>
              <LatitudeDegrees>-33.53705070912837982177734375</LatitudeDegrees>
              <LongitudeDegrees>-70.2336680330336093902587890625</LongitudeDegrees>
            </Position>
            <AltitudeMeters>1859.5999755859375</AltitudeMeters>
            <DistanceMeters>3866.9319356792</DistanceMeters>
          </Trackpoint>
          <Trackpoint>
            <Time>2019-08-04T15:59:46.000Z</Time>
            <Position>
              <LatitudeDegrees>-33.53705951012670993804931640625</LatitudeDegrees>
              <LongitudeDegrees>-70.23367549292743206024169921875</LongitudeDegrees>
            </Position>
            <AltitudeMeters>1859.800048828125</AltitudeMeters>
            <DistanceMeters>3868.1339391031</DistanceMeters>
          </Trackpoint>
          <Trackpoint>
            <Time>2019-08-04T15:59:47.000Z</Time>
            <Position>
              <LatitudeDegrees>-33.53705967776477336883544921875</LatitudeDegrees>
              <LongitudeDegrees>-70.2336767502129077911376953125</LongitudeDegrees>
            </Position>
            <AltitudeMeters>1860</AltitudeMeters>
            <DistanceMeters>3868.1339391031</DistanceMeters>
          </Trackpoint>
          <Trackpoint>
            <Time>2019-08-04T15:59:51.000Z</Time>
            <Position>
              <LatitudeDegrees>-33.5370492003858089447021484375</LatitudeDegrees>
              <LongitudeDegrees>-70.2336854673922061920166015625</LongitudeDegrees>
            </Position>
            <AltitudeMeters>1860.800048828125</AltitudeMeters>
            <DistanceMeters>3869.5498052587</DistanceMeters>
          </Trackpoint>
          <Trackpoint>
            <Time>2019-08-04T15:59:52.000Z</Time>
            <Position>
              <LatitudeDegrees>-33.537050373852252960205078125</LatitudeDegrees>
              <LongitudeDegrees>-70.23368773050606250762939453125</LongitudeDegrees>
            </Position>
            <AltitudeMeters>1861</AltitudeMeters>
            <DistanceMeters>3869.8185813952</DistanceMeters>
          </Trackpoint>
          <Trackpoint>
            <Time>2019-08-04T15:59:56.000Z</Time>
            <Position>
              <LatitudeDegrees>-33.53704358451068401336669921875</LatitudeDegrees>
              <LongitudeDegrees>-70.23370432667434215545654296875</LongitudeDegrees>
            </Position>
            <AltitudeMeters>1861.5999755859375</AltitudeMeters>
            <DistanceMeters>3871.5343333938</DistanceMeters>
          </Trackpoint>
          <Trackpoint>
            <Time>2019-08-04T16:00:00.000Z</Time>
            <Position>
              <LatitudeDegrees>-33.53704442270100116729736328125</LatitudeDegrees>
              <LongitudeDegrees>-70.23371472023427486419677734375</LongitudeDegrees>
            </Position>
            <AltitudeMeters>1862.199951171875</AltitudeMeters>
            <DistanceMeters>3872.5034195355</DistanceMeters>
          </Trackpoint>
          <Trackpoint>
            <Time>2019-08-04T16:00:08.000Z</Time>
            <Position>
              <LatitudeDegrees>-33.53702631779015064239501953125</LatitudeDegrees>
              <LongitudeDegrees>-70.2337558753788471221923828125</LongitudeDegrees>
            </Position>
            <AltitudeMeters>1863.199951171875</AltitudeMeters>
            <DistanceMeters>3876.820603546</DistanceMeters>
          </Trackpoint>
          <Trackpoint>
            <Time>2019-08-04T16:00:16.000Z</Time>
            <Position>
              <LatitudeDegrees>-33.53701290674507617950439453125</LatitudeDegrees>
              <LongitudeDegrees>-70.23378990590572357177734375</LongitudeDegrees>
            </Position>
            <AltitudeMeters>1864.199951171875</AltitudeMeters>
            <DistanceMeters>3880.3121079781</DistanceMeters>
          </Trackpoint>
          <Trackpoint>
            <Time>2019-08-04T16:00:18.000Z</Time>
            <Position>
              <LatitudeDegrees>-33.5370076261460781097412109375</LatitudeDegrees>
              <LongitudeDegrees>-70.2337919175624847412109375</LongitudeDegrees>
            </Position>
            <AltitudeMeters>1864.5999755859375</AltitudeMeters>
            <DistanceMeters>3880.9279514734</DistanceMeters>
          </Trackpoint>
          <Trackpoint>
            <Time>2019-08-04T16:00:23.000Z</Time>
            <Position>
              <LatitudeDegrees>-33.53700242936611175537109375</LatitudeDegrees>
              <LongitudeDegrees>-70.2338095195591449737548828125</LongitudeDegrees>
            </Position>
            <AltitudeMeters>1865.4000244140625</AltitudeMeters>
            <DistanceMeters>3882.6594206124</DistanceMeters>
          </Trackpoint>
          <Trackpoint>
            <Time>2019-08-04T16:00:33.000Z</Time>
            <Position>
              <LatitudeDegrees>-33.53696915321052074432373046875</LatitudeDegrees>
              <LongitudeDegrees>-70.23385427892208099365234375</LongitudeDegrees>
            </Position>
            <AltitudeMeters>1866.5999755859375</AltitudeMeters>
            <DistanceMeters>3888.2231515593</DistanceMeters>
          </Trackpoint>
          <Trackpoint>
            <Time>2019-08-04T16:00:36.000Z</Time>
            <Position>
              <LatitudeDegrees>-33.53696378879249095916748046875</LatitudeDegrees>
              <LongitudeDegrees>-70.233867354691028594970703125</LongitudeDegrees>
            </Position>
            <AltitudeMeters>1866.800048828125</AltitudeMeters>
            <DistanceMeters>3889.5737349302</DistanceMeters>
          </Trackpoint>
          <Trackpoint>
            <Time>2019-08-04T16:00:45.000Z</Time>
            <Position>
              <LatitudeDegrees>-33.5369620285928249359130859375</LatitudeDegrees>
              <LongitudeDegrees>-70.23391387425363063812255859375</LongitudeDegrees>
            </Position>
            <AltitudeMeters>1867.5999755859375</AltitudeMeters>
            <DistanceMeters>3893.8940552898</DistanceMeters>
          </Trackpoint>
          <Trackpoint>
            <Time>2019-08-04T16:00:48.000Z</Time>
            <Position>
              <LatitudeDegrees>-33.53696093894541263580322265625</LatitudeDegrees>
              <LongitudeDegrees>-70.23392669856548309326171875</LongitudeDegrees>
            </Position>
            <AltitudeMeters>1867.800048828125</AltitudeMeters>
            <DistanceMeters>3895.0885225678</DistanceMeters>
          </Trackpoint>
          <Trackpoint>
            <Time>2019-08-04T16:00:52.000Z</Time>
            <Position>
              <LatitudeDegrees>-33.5369606874883174896240234375</LatitudeDegrees>
              <LongitudeDegrees>-70.23393801413476467132568359375</LongitudeDegrees>
            </Position>
            <AltitudeMeters>1868</AltitudeMeters>
            <DistanceMeters>3896.1338164258</DistanceMeters>
          </Trackpoint>
          <Trackpoint>
            <Time>2019-08-04T16:01:00.000Z</Time>
            <Position>
              <LatitudeDegrees>-33.53694115765392780303955078125</LatitudeDegrees>
              <LongitudeDegrees>-70.2339582145214080810546875</LongitudeDegrees>
            </Position>
            <AltitudeMeters>1868</AltitudeMeters>
            <DistanceMeters>3899.005133161</DistanceMeters>
          </Trackpoint>
          <Trackpoint>
            <Time>2019-08-04T16:01:06.000Z</Time>
            <Position>
              <LatitudeDegrees>-33.53692422620952129364013671875</LatitudeDegrees>
              <LongitudeDegrees>-70.2339738048613071441650390625</LongitudeDegrees>
            </Position>
            <AltitudeMeters>1868.199951171875</AltitudeMeters>
            <DistanceMeters>3901.3788997251</DistanceMeters>
          </Trackpoint>
          <Trackpoint>
            <Time>2019-08-04T16:01:09.000Z</Time>
            <Position>
              <LatitudeDegrees>-33.53692003525793552398681640625</LatitudeDegrees>
              <LongitudeDegrees>-70.2339825220406055450439453125</LongitudeDegrees>
            </Position>
            <AltitudeMeters>1868.199951171875</AltitudeMeters>
            <DistanceMeters>3902.3099675737</DistanceMeters>
          </Trackpoint>
          <Trackpoint>
            <Time>2019-08-04T16:01:13.000Z</Time>
            <Position>
              <LatitudeDegrees>-33.53692271746695041656494140625</LatitudeDegrees>
              <LongitudeDegrees>-70.2340023033320903778076171875</LongitudeDegrees>
            </Position>
            <AltitudeMeters>1868.4000244140625</AltitudeMeters>
            <DistanceMeters>3904.1696770343</DistanceMeters>
          </Trackpoint>
          <Trackpoint>
            <Time>2019-08-04T16:01:19.000Z</Time>
            <Position>
              <LatitudeDegrees>-33.53693294338881969451904296875</LatitudeDegrees>
              <LongitudeDegrees>-70.234012864530086517333984375</LongitudeDegrees>
            </Position>
            <AltitudeMeters>1868.5999755859375</AltitudeMeters>
            <DistanceMeters>3905.6721813142</DistanceMeters>
          </Trackpoint>
          <Trackpoint>
            <Time>2019-08-04T16:01:30.000Z</Time>
            <Position>
              <LatitudeDegrees>-33.5369177721440792083740234375</LatitudeDegrees>
              <LongitudeDegrees>-70.23401244543492794036865234375</LongitudeDegrees>
            </Position>
            <AltitudeMeters>1869.4000244140625</AltitudeMeters>
            <DistanceMeters>3907.3614131385</DistanceMeters>
          </Trackpoint>
          <Trackpoint>
            <Time>2019-08-04T16:01:33.000Z</Time>
            <Position>
              <LatitudeDegrees>-33.53692037053406238555908203125</LatitudeDegrees>
              <LongitudeDegrees>-70.23400741629302501678466796875</LongitudeDegrees>
            </Position>
            <AltitudeMeters>1869.5999755859375</AltitudeMeters>
            <DistanceMeters>3907.9073000523</DistanceMeters>
          </Trackpoint>
          <Trackpoint>
            <Time>2019-08-04T16:01:39.000Z</Time>
            <Position>
              <LatitudeDegrees>-33.5369214601814746856689453125</LatitudeDegrees>
              <LongitudeDegrees>-70.234004147350788116455078125</LongitudeDegrees>
            </Position>
            <AltitudeMeters>1869.800048828125</AltitudeMeters>
            <DistanceMeters>3908.236482247</DistanceMeters>
          </Trackpoint>
          <Trackpoint>
            <Time>2019-08-04T16:01:41.000Z</Time>
            <Position>
              <LatitudeDegrees>-33.5369214601814746856689453125</LatitudeDegrees>
              <LongitudeDegrees>-70.23400674574077129364013671875</LongitudeDegrees>
            </Position>
            <AltitudeMeters>1869.800048828125</AltitudeMeters>
            <DistanceMeters>3908.4692492091</DistanceMeters>
          </Trackpoint>
          <Trackpoint>
            <Time>2019-08-04T16:01:45.000Z</Time>
            <Position>
              <LatitudeDegrees>-33.53692732751369476318359375</LatitudeDegrees>
              <LongitudeDegrees>-70.23400791920721530914306640625</LongitudeDegrees>
            </Position>
            <AltitudeMeters>1869.5999755859375</AltitudeMeters>
            <DistanceMeters>3909.1276135986</DistanceMeters>
          </Trackpoint>
          <Trackpoint>
            <Time>2019-08-04T16:01:57.000Z</Time>
            <Position>
              <LatitudeDegrees>-33.536935709416866302490234375</LatitudeDegrees>
              <LongitudeDegrees>-70.23401864804327487945556640625</LongitudeDegrees>
            </Position>
            <AltitudeMeters>1869.199951171875</AltitudeMeters>
            <DistanceMeters>3910.4915035309</DistanceMeters>
          </Trackpoint>
          <Trackpoint>
            <Time>2019-08-04T16:01:58.000Z</Time>
            <Position>
              <LatitudeDegrees>-33.53693311102688312530517578125</LatitudeDegrees>
              <LongitudeDegrees>-70.2340180613100528717041015625</LongitudeDegrees>
            </Position>
            <AltitudeMeters>1869.199951171875</AltitudeMeters>
            <DistanceMeters>3910.776583674</DistanceMeters>
          </Trackpoint>
          <Trackpoint>
            <Time>2019-08-04T16:02:03.000Z</Time>
            <Position>
              <LatitudeDegrees>-33.53692204691469669342041015625</LatitudeDegrees>
              <LongitudeDegrees>-70.234017558395862579345703125</LongitudeDegrees>
            </Position>
            <AltitudeMeters>1869</AltitudeMeters>
            <DistanceMeters>3912.0082706645</DistanceMeters>
          </Trackpoint>
          <Trackpoint>
            <Time>2019-08-04T16:02:13.000Z</Time>
            <Position>
              <LatitudeDegrees>-33.5369231365621089935302734375</LatitudeDegrees>
              <LongitudeDegrees>-70.2340308018028736114501953125</LongitudeDegrees>
            </Position>
            <AltitudeMeters>1868.800048828125</AltitudeMeters>
            <DistanceMeters>3913.239957655</DistanceMeters>
          </Trackpoint>
          <Trackpoint>
            <Time>2019-08-04T16:02:18.000Z</Time>
            <Position>
              <LatitudeDegrees>-33.53693378157913684844970703125</LatitudeDegrees>
              <LongitudeDegrees>-70.2340314723551273345947265625</LongitudeDegrees>
            </Position>
            <AltitudeMeters>1868.5999755859375</AltitudeMeters>
            <DistanceMeters>3914.4268409371</DistanceMeters>
          </Trackpoint>
          <Trackpoint>
            <Time>2019-08-04T16:02:21.000Z</Time>
            <Position>
              <LatitudeDegrees>-33.53693797253072261810302734375</LatitudeDegrees>
              <LongitudeDegrees>-70.2340274490416049957275390625</LongitudeDegrees>
            </Position>
            <AltitudeMeters>1868.5999755859375</AltitudeMeters>
            <DistanceMeters>3915.027842649</DistanceMeters>
          </Trackpoint>
          <Trackpoint>
            <Time>2019-08-04T16:02:26.000Z</Time>
            <Position>
              <LatitudeDegrees>-33.53693193756043910980224609375</LatitudeDegrees>
              <LongitudeDegrees>-70.2340240962803363800048828125</LongitudeDegrees>
            </Position>
            <AltitudeMeters>1868.5999755859375</AltitudeMeters>
            <DistanceMeters>3915.7639164134</DistanceMeters>
          </Trackpoint>
          <Trackpoint>
            <Time>2019-08-04T16:02:29.000Z</Time>
            <Position>
              <LatitudeDegrees>-33.53692908771336078643798828125</LatitudeDegrees>
              <LongitudeDegrees>-70.23402049206197261810302734375</LongitudeDegrees>
            </Position>
            <AltitudeMeters>1868.5999755859375</AltitudeMeters>
            <DistanceMeters>3916.2294503377</DistanceMeters>
          </Trackpoint>
          <Trackpoint>
            <Time>2019-08-04T16:02:34.000Z</Time>
            <Position>
              <LatitudeDegrees>-33.53693244047462940216064453125</LatitudeDegrees>
              <LongitudeDegrees>-70.2340126968920230865478515625</LongitudeDegrees>
            </Position>
            <AltitudeMeters>1869.4000244140625</AltitudeMeters>
            <DistanceMeters>3917.0469010438</DistanceMeters>
          </Trackpoint>
          <Trackpoint>
            <Time>2019-08-04T16:02:41.000Z</Time>
            <Position>
              <LatitudeDegrees>-33.53697401471436023712158203125</LatitudeDegrees>
              <LongitudeDegrees>-70.23399232886731624603271484375</LongitudeDegrees>
            </Position>
            <AltitudeMeters>1869.4000244140625</AltitudeMeters>
            <DistanceMeters>3922.0446196677</DistanceMeters>
          </Trackpoint>
          <Trackpoint>
            <Time>2019-08-04T16:02:46.000Z</Time>
            <Position>
              <LatitudeDegrees>-33.53698901832103729248046875</LatitudeDegrees>
              <LongitudeDegrees>-70.23398545570671558380126953125</LongitudeDegrees>
            </Position>
            <AltitudeMeters>1869.5999755859375</AltitudeMeters>
            <DistanceMeters>3923.8325366292</DistanceMeters>
          </Trackpoint>
          <Trackpoint>
            <Time>2019-08-04T16:02:51.000Z</Time>
            <Position>
              <LatitudeDegrees>-33.53697820566594600677490234375</LatitudeDegrees>
              <LongitudeDegrees>-70.23398897610604763031005859375</LongitudeDegrees>
            </Position>
            <AltitudeMeters>1869.5999755859375</AltitudeMeters>
            <DistanceMeters>3925.0788003045</DistanceMeters>
          </Trackpoint>
          <Trackpoint>
            <Time>2019-08-04T16:02:55.000Z</Time>
            <Position>
              <LatitudeDegrees>-33.5369781218469142913818359375</LatitudeDegrees>
              <LongitudeDegrees>-70.23398947902023792266845703125</LongitudeDegrees>
            </Position>
            <AltitudeMeters>1869.5999755859375</AltitudeMeters>
            <DistanceMeters>3925.0788003045</DistanceMeters>
          </Trackpoint>
          <Trackpoint>
            <Time>2019-08-04T16:03:01.000Z</Time>
            <Position>
              <LatitudeDegrees>-33.53697937913239002227783203125</LatitudeDegrees>
              <LongitudeDegrees>-70.23399065248668193817138671875</LongitudeDegrees>
            </Position>
            <AltitudeMeters>1869.800048828125</AltitudeMeters>
            <DistanceMeters>3925.2688537332</DistanceMeters>
          </Trackpoint>
          <Trackpoint>
            <Time>2019-08-04T16:03:03.000Z</Time>
            <Position>
              <LatitudeDegrees>-33.53698004968464374542236328125</LatitudeDegrees>
              <LongitudeDegrees>-70.233990736305713653564453125</LongitudeDegrees>
            </Position>
            <AltitudeMeters>1869.800048828125</AltitudeMeters>
            <DistanceMeters>3925.3638804476</DistanceMeters>
          </Trackpoint>
          <Trackpoint>
            <Time>2019-08-04T16:03:05.000Z</Time>
            <Position>
              <LatitudeDegrees>-33.5369804687798023223876953125</LatitudeDegrees>
              <LongitudeDegrees>-70.233994759619235992431640625</LongitudeDegrees>
            </Position>
            <AltitudeMeters>1869.800048828125</AltitudeMeters>
            <DistanceMeters>3925.7319173298</DistanceMeters>
          </Trackpoint>
          <Trackpoint>
            <Time>2019-08-04T16:03:07.000Z</Time>
            <Position>
              <LatitudeDegrees>-33.53697451762855052947998046875</LatitudeDegrees>
              <LongitudeDegrees>-70.23399920202791690826416015625</LongitudeDegrees>
            </Position>
            <AltitudeMeters>1869.800048828125</AltitudeMeters>
            <DistanceMeters>3926.5039180068</DistanceMeters>
          </Trackpoint>
          <Trackpoint>
            <Time>2019-08-04T16:03:12.000Z</Time>
            <Position>
              <LatitudeDegrees>-33.53697099722921848297119140625</LatitudeDegrees>
              <LongitudeDegrees>-70.23399719037115573883056640625</LongitudeDegrees>
            </Position>
            <AltitudeMeters>1869.800048828125</AltitudeMeters>
            <DistanceMeters>3926.9393851185</DistanceMeters>
          </Trackpoint>
          <Trackpoint>
            <Time>2019-08-04T16:03:27.000Z</Time>
            <Position>
              <LatitudeDegrees>-33.536989353597164154052734375</LatitudeDegrees>
              <LongitudeDegrees>-70.2340103499591350555419921875</LongitudeDegrees>
            </Position>
            <AltitudeMeters>1869.800048828125</AltitudeMeters>
            <DistanceMeters>3929.320747755</DistanceMeters>
          </Trackpoint>
          <Trackpoint>
            <Time>2019-08-04T16:03:31.000Z</Time>
            <Position>
              <LatitudeDegrees>-33.53698499500751495361328125</LatitudeDegrees>
              <LongitudeDegrees>-70.23403038270771503448486328125</LongitudeDegrees>
            </Position>
            <AltitudeMeters>1870</AltitudeMeters>
            <DistanceMeters>3931.2448920693</DistanceMeters>
          </Trackpoint>
          <Trackpoint>
            <Time>2019-08-04T16:03:32.000Z</Time>
            <Position>
              <LatitudeDegrees>-33.53698625229299068450927734375</LatitudeDegrees>
              <LongitudeDegrees>-70.2340391837060451507568359375</LongitudeDegrees>
            </Position>
            <AltitudeMeters>1870</AltitudeMeters>
            <DistanceMeters>3932.0787481037</DistanceMeters>
          </Trackpoint>
          <Trackpoint>
            <Time>2019-08-04T16:03:33.000Z</Time>
            <Position>
              <LatitudeDegrees>-33.53698357008397579193115234375</LatitudeDegrees>
              <LongitudeDegrees>-70.23404681123793125152587890625</LongitudeDegrees>
            </Position>
            <AltitudeMeters>1870</AltitudeMeters>
            <DistanceMeters>3932.8507487807</DistanceMeters>
          </Trackpoint>
          <Trackpoint>
            <Time>2019-08-04T16:03:34.000Z</Time>
            <Position>
              <LatitudeDegrees>-33.536981642246246337890625</LatitudeDegrees>
              <LongitudeDegrees>-70.2340549416840076446533203125</LongitudeDegrees>
            </Position>
            <AltitudeMeters>1870</AltitudeMeters>
            <DistanceMeters>3933.6343591419</DistanceMeters>
          </Trackpoint>
          <Trackpoint>
            <Time>2019-08-04T16:03:35.000Z</Time>
            <Position>
              <LatitudeDegrees>-33.53698323480784893035888671875</LatitudeDegrees>
              <LongitudeDegrees>-70.23406424559652805328369140625</LongitudeDegrees>
            </Position>
            <AltitudeMeters>1870</AltitudeMeters>
            <DistanceMeters>3934.5156006379</DistanceMeters>
          </Trackpoint>
          <Trackpoint>
            <Time>2019-08-04T16:03:37.000Z</Time>
            <Position>
              <LatitudeDegrees>-33.53699010796844959259033203125</LatitudeDegrees>
              <LongitudeDegrees>-70.2340844459831714630126953125</LongitudeDegrees>
            </Position>
            <AltitudeMeters>1870.199951171875</AltitudeMeters>
            <DistanceMeters>3936.5381299032</DistanceMeters>
          </Trackpoint>
          <Trackpoint>
            <Time>2019-08-04T16:03:39.000Z</Time>
            <Position>
              <LatitudeDegrees>-33.53699564002454280853271484375</LatitudeDegrees>
              <LongitudeDegrees>-70.23410146124660968780517578125</LongitudeDegrees>
            </Position>
            <AltitudeMeters>1870.5999755859375</AltitudeMeters>
            <DistanceMeters>3938.2326989662</DistanceMeters>
          </Trackpoint>
          <Trackpoint>
            <Time>2019-08-04T16:03:40.000Z</Time>
            <Position>
              <LatitudeDegrees>-33.5369989089667797088623046875</LatitudeDegrees>
              <LongitudeDegrees>-70.2341082505881786346435546875</LongitudeDegrees>
            </Position>
            <AltitudeMeters>1870.5999755859375</AltitudeMeters>
            <DistanceMeters>3938.9687727306</DistanceMeters>
          </Trackpoint>
          <Trackpoint>
            <Time>2019-08-04T16:03:46.000Z</Time>
            <Position>
              <LatitudeDegrees>-33.53701927699148654937744140625</LatitudeDegrees>
              <LongitudeDegrees>-70.234135575592517852783203125</LongitudeDegrees>
            </Position>
            <AltitudeMeters>1871.199951171875</AltitudeMeters>
            <DistanceMeters>3942.3685518187</DistanceMeters>
          </Trackpoint>
          <Trackpoint>
            <Time>2019-08-04T16:03:48.000Z</Time>
            <Position>
              <LatitudeDegrees>-33.5370280779898166656494140625</LatitudeDegrees>
              <LongitudeDegrees>-70.23413750343024730682373046875</LongitudeDegrees>
            </Position>
            <AltitudeMeters>1871.4000244140625</AltitudeMeters>
            <DistanceMeters>3943.3652004072</DistanceMeters>
          </Trackpoint>
          <Trackpoint>
            <Time>2019-08-04T16:03:50.000Z</Time>
            <Position>
              <LatitudeDegrees>-33.53703687898814678192138671875</LatitudeDegrees>
              <LongitudeDegrees>-70.23414018563926219940185546875</LongitudeDegrees>
            </Position>
            <AltitudeMeters>1871.5999755859375</AltitudeMeters>
            <DistanceMeters>3944.375348237</DistanceMeters>
          </Trackpoint>
          <Trackpoint>
            <Time>2019-08-04T16:03:51.000Z</Time>
            <Position>
              <LatitudeDegrees>-33.537038974463939666748046875</LatitudeDegrees>
              <LongitudeDegrees>-70.23414001800119876861572265625</LongitudeDegrees>
            </Position>
            <AltitudeMeters>1871.800048828125</AltitudeMeters>
            <DistanceMeters>3944.6081151992</DistanceMeters>
          </Trackpoint>
          <Trackpoint>
            <Time>2019-08-04T16:03:53.000Z</Time>
            <Position>
              <LatitudeDegrees>-33.5370446741580963134765625</LatitudeDegrees>
              <LongitudeDegrees>-70.2341424487531185150146484375</LongitudeDegrees>
            </Position>
            <AltitudeMeters>1872.5999755859375</AltitudeMeters>
            <DistanceMeters>3945.2800555404</DistanceMeters>
          </Trackpoint>
          <Trackpoint>
            <Time>2019-08-04T16:03:54.000Z</Time>
            <Position>
              <LatitudeDegrees>-33.53705179877579212188720703125</LatitudeDegrees>
              <LongitudeDegrees>-70.23414286784827709197998046875</LongitudeDegrees>
            </Position>
            <AltitudeMeters>1872.800048828125</AltitudeMeters>
            <DistanceMeters>3946.0751060741</DistanceMeters>
          </Trackpoint>
          <Trackpoint>
            <Time>2019-08-04T16:03:58.000Z</Time>
            <Position>
              <LatitudeDegrees>-33.5370880924165248870849609375</LatitudeDegrees>
              <LongitudeDegrees>-70.23415208794176578521728515625</LongitudeDegrees>
            </Position>
            <AltitudeMeters>1873.5999755859375</AltitudeMeters>
            <DistanceMeters>3950.2041234301</DistanceMeters>
          </Trackpoint>
          <Trackpoint>
            <Time>2019-08-04T16:03:59.000Z</Time>
            <Position>
              <LatitudeDegrees>-33.53709773160517215728759765625</LatitudeDegrees>
              <LongitudeDegrees>-70.2341541834175586700439453125</LongitudeDegrees>
            </Position>
            <AltitudeMeters>1873.5999755859375</AltitudeMeters>
            <DistanceMeters>3951.2958972577</DistanceMeters>
          </Trackpoint>
          <Trackpoint>
            <Time>2019-08-04T16:04:02.000Z</Time>
            <Position>
              <LatitudeDegrees>-33.5371175967156887054443359375</LatitudeDegrees>
              <LongitudeDegrees>-70.23417019285261631011962890625</LongitudeDegrees>
            </Position>
            <AltitudeMeters>1874</AltitudeMeters>
            <DistanceMeters>3953.9600369096</DistanceMeters>
          </Trackpoint>
          <Trackpoint>
            <Time>2019-08-04T16:04:06.000Z</Time>
            <Position>
              <LatitudeDegrees>-33.53714316152036190032958984375</LatitudeDegrees>
              <LongitudeDegrees>-70.23419030942022800445556640625</LongitudeDegrees>
            </Position>
            <AltitudeMeters>1874.800048828125</AltitudeMeters>
            <DistanceMeters>3957.3624710384</DistanceMeters>
          </Trackpoint>
          <Trackpoint>
            <Time>2019-08-04T16:04:07.000Z</Time>
            <Position>
              <LatitudeDegrees>-33.53714517317712306976318359375</LatitudeDegrees>
              <LongitudeDegrees>-70.23419768549501895904541015625</LongitudeDegrees>
            </Position>
            <AltitudeMeters>1875.199951171875</AltitudeMeters>
            <DistanceMeters>3958.0861729341</DistanceMeters>
          </Trackpoint>
          <Trackpoint>
            <Time>2019-08-04T16:04:14.000Z</Time>
            <Position>
              <LatitudeDegrees>-33.5371383838355541229248046875</LatitudeDegrees>
              <LongitudeDegrees>-70.2342527545988559722900390625</LongitudeDegrees>
            </Position>
            <AltitudeMeters>1876.199951171875</AltitudeMeters>
            <DistanceMeters>3963.2491939163</DistanceMeters>
          </Trackpoint>
          <Trackpoint>
            <Time>2019-08-04T16:04:15.000Z</Time>
            <Position>
              <LatitudeDegrees>-33.537137545645236968994140625</LatitudeDegrees>
              <LongitudeDegrees>-70.234256945550441741943359375</LongitudeDegrees>
            </Position>
            <AltitudeMeters>1876.4000244140625</AltitudeMeters>
            <DistanceMeters>3963.652358121</DistanceMeters>
          </Trackpoint>
          <Trackpoint>
            <Time>2019-08-04T16:04:18.000Z</Time>
            <Position>
              <LatitudeDegrees>-33.53713519871234893798828125</LatitudeDegrees>
              <LongitudeDegrees>-70.23426976986229419708251953125</LongitudeDegrees>
            </Position>
            <AltitudeMeters>1877.4000244140625</AltitudeMeters>
            <DistanceMeters>3964.869293837</DistanceMeters>
          </Trackpoint>
          <Trackpoint>
            <Time>2019-08-04T16:04:22.000Z</Time>
            <Position>
              <LatitudeDegrees>-33.53713695891201496124267578125</LatitudeDegrees>
              <LongitudeDegrees>-70.23427949286997318267822265625</LongitudeDegrees>
            </Position>
            <AltitudeMeters>1878.4000244140625</AltitudeMeters>
            <DistanceMeters>3965.7906120153</DistanceMeters>
          </Trackpoint>
          <Trackpoint>
            <Time>2019-08-04T16:04:28.000Z</Time>
            <Position>
              <LatitudeDegrees>-33.537152968347072601318359375</LatitudeDegrees>
              <LongitudeDegrees>-70.23430832661688327789306640625</LongitudeDegrees>
            </Position>
            <AltitudeMeters>1878.800048828125</AltitudeMeters>
            <DistanceMeters>3969.0061115921</DistanceMeters>
          </Trackpoint>
          <Trackpoint>
            <Time>2019-08-04T16:04:34.000Z</Time>
            <Position>
              <LatitudeDegrees>-33.53716612793505191802978515625</LatitudeDegrees>
              <LongitudeDegrees>-70.23431469686329364776611328125</LongitudeDegrees>
            </Position>
            <AltitudeMeters>1879.5999755859375</AltitudeMeters>
            <DistanceMeters>3970.5848139385</DistanceMeters>
          </Trackpoint>
          <Trackpoint>
            <Time>2019-08-04T16:04:41.000Z</Time>
            <Position>
              <LatitudeDegrees>-33.53718942962586879730224609375</LatitudeDegrees>
              <LongitudeDegrees>-70.234342776238918304443359375</LongitudeDegrees>
            </Position>
            <AltitudeMeters>1880.5999755859375</AltitudeMeters>
            <DistanceMeters>3974.2615005497</DistanceMeters>
          </Trackpoint>
          <Trackpoint>
            <Time>2019-08-04T16:04:49.000Z</Time>
            <Position>
              <LatitudeDegrees>-33.5371910221874713897705078125</LatitudeDegrees>
              <LongitudeDegrees>-70.23438711650669574737548828125</LongitudeDegrees>
            </Position>
            <AltitudeMeters>1881.800048828125</AltitudeMeters>
            <DistanceMeters>3978.3795684901</DistanceMeters>
          </Trackpoint>
          <Trackpoint>
            <Time>2019-08-04T16:04:52.000Z</Time>
            <Position>
              <LatitudeDegrees>-33.53718859143555164337158203125</LatitudeDegrees>
              <LongitudeDegrees>-70.23439474403858184814453125</LongitudeDegrees>
            </Position>
            <AltitudeMeters>1882.199951171875</AltitudeMeters>
            <DistanceMeters>3979.1456983543</DistanceMeters>
          </Trackpoint>
          <Trackpoint>
            <Time>2019-08-04T16:04:58.000Z</Time>
            <Position>
              <LatitudeDegrees>-33.5371903516352176666259765625</LatitudeDegrees>
              <LongitudeDegrees>-70.23439466021955013275146484375</LongitudeDegrees>
            </Position>
            <AltitudeMeters>1883</AltitudeMeters>
            <DistanceMeters>3979.3581845473</DistanceMeters>
          </Trackpoint>
          <Trackpoint>
            <Time>2019-08-04T16:05:04.000Z</Time>
            <Position>
              <LatitudeDegrees>-33.5372181795537471771240234375</LatitudeDegrees>
              <LongitudeDegrees>-70.23441008292138576507568359375</LongitudeDegrees>
            </Position>
            <AltitudeMeters>1883.199951171875</AltitudeMeters>
            <DistanceMeters>3982.7698950474</DistanceMeters>
          </Trackpoint>
          <Trackpoint>
            <Time>2019-08-04T16:05:10.000Z</Time>
            <Position>
              <LatitudeDegrees>-33.53724475018680095672607421875</LatitudeDegrees>
              <LongitudeDegrees>-70.2344475500285625457763671875</LongitudeDegrees>
            </Position>
            <AltitudeMeters>1884</AltitudeMeters>
            <DistanceMeters>3987.3351350665</DistanceMeters>
          </Trackpoint>
          <Trackpoint>
            <Time>2019-08-04T16:05:15.000Z</Time>
            <Position>
              <LatitudeDegrees>-33.5372579097747802734375</LatitudeDegrees>
              <LongitudeDegrees>-70.234484262764453887939453125</LongitudeDegrees>
            </Position>
            <AltitudeMeters>1884.5999755859375</AltitudeMeters>
            <DistanceMeters>3991.0436127089</DistanceMeters>
          </Trackpoint>
          <Trackpoint>
            <Time>2019-08-04T16:05:16.000Z</Time>
            <Position>
              <LatitudeDegrees>-33.53725665248930454254150390625</LatitudeDegrees>
              <LongitudeDegrees>-70.23448619060218334197998046875</LongitudeDegrees>
            </Position>
            <AltitudeMeters>1884.5999755859375</AltitudeMeters>
            <DistanceMeters>3991.2763796711</DistanceMeters>
          </Trackpoint>
          <Trackpoint>
            <Time>2019-08-04T16:05:20.000Z</Time>
            <Position>
              <LatitudeDegrees>-33.537270314991474151611328125</LatitudeDegrees>
              <LongitudeDegrees>-70.2345045469701290130615234375</LongitudeDegrees>
            </Position>
            <AltitudeMeters>1885</AltitudeMeters>
            <DistanceMeters>3993.5609768313</DistanceMeters>
          </Trackpoint>
          <Trackpoint>
            <Time>2019-08-04T16:05:22.000Z</Time>
            <Position>
              <LatitudeDegrees>-33.53728380985558032989501953125</LatitudeDegrees>
              <LongitudeDegrees>-70.23451569490134716033935546875</LongitudeDegrees>
            </Position>
            <AltitudeMeters>1885.4000244140625</AltitudeMeters>
            <DistanceMeters>3995.3814267908</DistanceMeters>
          </Trackpoint>
          <Trackpoint>
            <Time>2019-08-04T16:05:23.000Z</Time>
            <Position>
              <LatitudeDegrees>-33.5372885875403881072998046875</LatitudeDegrees>
              <LongitudeDegrees>-70.2345226518809795379638671875</LongitudeDegrees>
            </Position>
            <AltitudeMeters>1885.5999755859375</AltitudeMeters>
            <DistanceMeters>3996.2098504805</DistanceMeters>
          </Trackpoint>
          <Trackpoint>
            <Time>2019-08-04T16:05:25.000Z</Time>
            <Position>
              <LatitudeDegrees>-33.537293784320354461669921875</LatitudeDegrees>
              <LongitudeDegrees>-70.23453891277313232421875</LongitudeDegrees>
            </Position>
            <AltitudeMeters>1886</AltitudeMeters>
            <DistanceMeters>3997.8253046248</DistanceMeters>
          </Trackpoint>
          <Trackpoint>
            <Time>2019-08-04T16:05:26.000Z</Time>
            <Position>
              <LatitudeDegrees>-33.5372949577867984771728515625</LatitudeDegrees>
              <LongitudeDegrees>-70.23454788140952587127685546875</LongitudeDegrees>
            </Position>
            <AltitudeMeters>1886.199951171875</AltitudeMeters>
            <DistanceMeters>3998.6645578421</DistanceMeters>
          </Trackpoint>
          <Trackpoint>
            <Time>2019-08-04T16:05:36.000Z</Time>
            <Position>
              <LatitudeDegrees>-33.5373043455183506011962890625</LatitudeDegrees>
              <LongitudeDegrees>-70.2346255816519260406494140625</LongitudeDegrees>
            </Position>
            <AltitudeMeters>1887.199951171875</AltitudeMeters>
            <DistanceMeters>4005.9475976629</DistanceMeters>
          </Trackpoint>
          <Trackpoint>
            <Time>2019-08-04T16:05:38.000Z</Time>
            <Position>
              <LatitudeDegrees>-33.53730845265090465545654296875</LatitudeDegrees>
              <LongitudeDegrees>-70.2346332930028438568115234375</LongitudeDegrees>
            </Position>
            <AltitudeMeters>1887.800048828125</AltitudeMeters>
            <DistanceMeters>4006.7975424349</DistanceMeters>
          </Trackpoint>
          <Trackpoint>
            <Time>2019-08-04T16:05:42.000Z</Time>
            <Position>
              <LatitudeDegrees>-33.53731348179280757904052734375</LatitudeDegrees>
              <LongitudeDegrees>-70.2346540801227092742919921875</LongitudeDegrees>
            </Position>
            <AltitudeMeters>1888.4000244140625</AltitudeMeters>
            <DistanceMeters>4008.8043842558</DistanceMeters>
          </Trackpoint>
          <Trackpoint>
            <Time>2019-08-04T16:05:43.000Z</Time>
            <Position>
              <LatitudeDegrees>-33.5373123921453952789306640625</LatitudeDegrees>
              <LongitudeDegrees>-70.23465718142688274383544921875</LongitudeDegrees>
            </Position>
            <AltitudeMeters>1888.4000244140625</AltitudeMeters>
            <DistanceMeters>4009.1048851118</DistanceMeters>
          </Trackpoint>
          <Trackpoint>
            <Time>2019-08-04T16:05:44.000Z</Time>
            <Position>
              <LatitudeDegrees>-33.537313230335712432861328125</LatitudeDegrees>
              <LongitudeDegrees>-70.2346631325781345367431640625</LongitudeDegrees>
            </Position>
            <AltitudeMeters>1888.4000244140625</AltitudeMeters>
            <DistanceMeters>4009.6670707355</DistanceMeters>
          </Trackpoint>
          <Trackpoint>
            <Time>2019-08-04T16:05:46.000Z</Time>
            <Position>
              <LatitudeDegrees>-33.53732136078178882598876953125</LatitudeDegrees>
              <LongitudeDegrees>-70.234670341014862060546875</LongitudeDegrees>
            </Position>
            <AltitudeMeters>1888.5999755859375</AltitudeMeters>
            <DistanceMeters>4010.791441983</DistanceMeters>
          </Trackpoint>
          <Trackpoint>
            <Time>2019-08-04T16:05:48.000Z</Time>
            <Position>
              <LatitudeDegrees>-33.5373281501233577728271484375</LatitudeDegrees>
              <LongitudeDegrees>-70.23467511869966983795166015625</LongitudeDegrees>
            </Position>
            <AltitudeMeters>1888.800048828125</AltitudeMeters>
            <DistanceMeters>4011.6675450007</DistanceMeters>
          </Trackpoint>
          <Trackpoint>
            <Time>2019-08-04T16:05:49.000Z</Time>
            <Position>
              <LatitudeDegrees>-33.5373316705226898193359375</LatitudeDegrees>
              <LongitudeDegrees>-70.2346795611083507537841796875</LongitudeDegrees>
            </Position>
            <AltitudeMeters>1888.800048828125</AltitudeMeters>
            <DistanceMeters>4012.237705287</DistanceMeters>
          </Trackpoint>
          <Trackpoint>
            <Time>2019-08-04T16:05:54.000Z</Time>
            <Position>
              <LatitudeDegrees>-33.5373509488999843597412109375</LatitudeDegrees>
              <LongitudeDegrees>-70.23471124470233917236328125</LongitudeDegrees>
            </Position>
            <AltitudeMeters>1889.4000244140625</AltitudeMeters>
            <DistanceMeters>4015.8761241835</DistanceMeters>
          </Trackpoint>
          <Trackpoint>
            <Time>2019-08-04T16:06:00.000Z</Time>
            <Position>
              <LatitudeDegrees>-33.53736930526793003082275390625</LatitudeDegrees>
              <LongitudeDegrees>-70.23473806679248809814453125</LongitudeDegrees>
            </Position>
            <AltitudeMeters>1890.4000244140625</AltitudeMeters>
            <DistanceMeters>4019.0958334495</DistanceMeters>
          </Trackpoint>
          <Trackpoint>
            <Time>2019-08-04T16:06:02.000Z</Time>
            <Position>
              <LatitudeDegrees>-33.53737936355173587799072265625</LatitudeDegrees>
              <LongitudeDegrees>-70.2347459457814693450927734375</LongitudeDegrees>
            </Position>
            <AltitudeMeters>1891</AltitudeMeters>
            <DistanceMeters>4020.4329778456</DistanceMeters>
          </Trackpoint>
          <Trackpoint>
            <Time>2019-08-04T16:06:06.000Z</Time>
            <Position>
              <LatitudeDegrees>-33.53738741017878055572509765625</LatitudeDegrees>
              <LongitudeDegrees>-70.23475927300751209259033203125</LongitudeDegrees>
            </Position>
            <AltitudeMeters>1891.4000244140625</AltitudeMeters>
            <DistanceMeters>4021.9593328903</DistanceMeters>
          </Trackpoint>
          <Trackpoint>
            <Time>2019-08-04T16:06:15.000Z</Time>
            <Position>
              <LatitudeDegrees>-33.5373975522816181182861328125</LatitudeDegrees>
              <LongitudeDegrees>-70.2347950637340545654296875</LongitudeDegrees>
            </Position>
            <AltitudeMeters>1892.4000244140625</AltitudeMeters>
            <DistanceMeters>4025.4663207883</DistanceMeters>
          </Trackpoint>
          <Trackpoint>
            <Time>2019-08-04T16:06:16.000Z</Time>
            <Position>
              <LatitudeDegrees>-33.53739805519580841064453125</LatitudeDegrees>
              <LongitudeDegrees>-70.23479883559048175811767578125</LongitudeDegrees>
            </Position>
            <AltitudeMeters>1892.5999755859375</AltitudeMeters>
            <DistanceMeters>4025.8343576705</DistanceMeters>
          </Trackpoint>
          <Trackpoint>
            <Time>2019-08-04T16:06:20.000Z</Time>
            <Position>
              <LatitudeDegrees>-33.5374193452298641204833984375</LatitudeDegrees>
              <LongitudeDegrees>-70.23482649587094783782958984375</LongitudeDegrees>
            </Position>
            <AltitudeMeters>1893</AltitudeMeters>
            <DistanceMeters>4029.328447445</DistanceMeters>
          </Trackpoint>
          <Trackpoint>
            <Time>2019-08-04T16:06:26.000Z</Time>
            <Position>
              <LatitudeDegrees>-33.53744943626224994659423828125</LatitudeDegrees>
              <LongitudeDegrees>-70.23487360216677188873291015625</LongitudeDegrees>
            </Position>
            <AltitudeMeters>1893.5999755859375</AltitudeMeters>
            <DistanceMeters>4034.8342595216</DistanceMeters>
          </Trackpoint>
          <Trackpoint>
            <Time>2019-08-04T16:06:27.000Z</Time>
            <Position>
              <LatitudeDegrees>-33.53745664469897747039794921875</LatitudeDegrees>
              <LongitudeDegrees>-70.23488114587962627410888671875</LongitudeDegrees>
            </Position>
            <AltitudeMeters>1893.800048828125</AltitudeMeters>
            <DistanceMeters>4035.9009317448</DistanceMeters>
          </Trackpoint>
          <Trackpoint>
            <Time>2019-08-04T16:06:37.000Z</Time>
            <Position>
              <LatitudeDegrees>-33.5374961234629154205322265625</LatitudeDegrees>
              <LongitudeDegrees>-70.23497267626225948333740234375</LongitudeDegrees>
            </Position>
            <AltitudeMeters>1894.800048828125</AltitudeMeters>
            <DistanceMeters>4045.4618660006</DistanceMeters>
          </Trackpoint>
          <Trackpoint>
            <Time>2019-08-04T16:06:43.000Z</Time>
            <Position>
              <LatitudeDegrees>-33.5375078581273555755615234375</LatitudeDegrees>
              <LongitudeDegrees>-70.2350203692913055419921875</LongitudeDegrees>
            </Position>
            <AltitudeMeters>1895.5999755859375</AltitudeMeters>
            <DistanceMeters>4050.0753126707</DistanceMeters>
          </Trackpoint>
          <Trackpoint>
            <Time>2019-08-04T16:06:45.000Z</Time>
            <Position>
              <LatitudeDegrees>-33.537519760429859161376953125</LatitudeDegrees>
              <LongitudeDegrees>-70.23502497933804988861083984375</LongitudeDegrees>
            </Position>
            <AltitudeMeters>1895.800048828125</AltitudeMeters>
            <DistanceMeters>4051.4719144436</DistanceMeters>
          </Trackpoint>
          <Trackpoint>
            <Time>2019-08-04T16:06:47.000Z</Time>
            <Position>
              <LatitudeDegrees>-33.53752939961850643157958984375</LatitudeDegrees>
              <LongitudeDegrees>-70.23503042757511138916015625</LongitudeDegrees>
            </Position>
            <AltitudeMeters>1896.199951171875</AltitudeMeters>
            <DistanceMeters>4052.6587977256</DistanceMeters>
          </Trackpoint>
          <Trackpoint>
            <Time>2019-08-04T16:06:53.000Z</Time>
            <Position>
              <LatitudeDegrees>-33.5375554673373699188232421875</LatitudeDegrees>
              <LongitudeDegrees>-70.23505381308495998382568359375</LongitudeDegrees>
            </Position>
            <AltitudeMeters>1896.800048828125</AltitudeMeters>
            <DistanceMeters>4056.2798018677</DistanceMeters>
          </Trackpoint>
          <Trackpoint>
            <Time>2019-08-04T16:06:54.000Z</Time>
            <Position>
              <LatitudeDegrees>-33.537557981908321380615234375</LatitudeDegrees>
              <LongitudeDegrees>-70.2350567467510700225830078125</LongitudeDegrees>
            </Position>
            <AltitudeMeters>1896.800048828125</AltitudeMeters>
            <DistanceMeters>4056.6599087251</DistanceMeters>
          </Trackpoint>
          <Trackpoint>
            <Time>2019-08-04T16:06:59.000Z</Time>
            <Position>
              <LatitudeDegrees>-33.5375920124351978302001953125</LatitudeDegrees>
              <LongitudeDegrees>-70.2350818924605846405029296875</LongitudeDegrees>
            </Position>
            <AltitudeMeters>1898</AltitudeMeters>
            <DistanceMeters>4061.1069152927</DistanceMeters>
          </Trackpoint>
          <Trackpoint>
            <Time>2019-08-04T16:07:05.000Z</Time>
            <Position>
              <LatitudeDegrees>-33.53760986588895320892333984375</LatitudeDegrees>
              <LongitudeDegrees>-70.23513025604188442230224609375</LongitudeDegrees>
            </Position>
            <AltitudeMeters>1898.800048828125</AltitudeMeters>
            <DistanceMeters>4066.0134602889</DistanceMeters>
          </Trackpoint>
          <Trackpoint>
            <Time>2019-08-04T16:07:07.000Z</Time>
            <Position>
              <LatitudeDegrees>-33.5376186668872833251953125</LatitudeDegrees>
              <LongitudeDegrees>-70.23514551110565662384033203125</LongitudeDegrees>
            </Position>
            <AltitudeMeters>1899.199951171875</AltitudeMeters>
            <DistanceMeters>4067.734467283</DistanceMeters>
          </Trackpoint>
          <Trackpoint>
            <Time>2019-08-04T16:07:13.000Z</Time>
            <Position>
              <LatitudeDegrees>-33.53764255531132221221923828125</LatitudeDegrees>
              <LongitudeDegrees>-70.23518423549830913543701171875</LongitudeDegrees>
            </Position>
            <AltitudeMeters>1900.199951171875</AltitudeMeters>
            <DistanceMeters>4072.2037545969</DistanceMeters>
          </Trackpoint>
          <Trackpoint>
            <Time>2019-08-04T16:07:20.000Z</Time>
            <Position>
              <LatitudeDegrees>-33.537683375179767608642578125</LatitudeDegrees>
              <LongitudeDegrees>-70.23521952331066131591796875</LongitudeDegrees>
            </Position>
            <AltitudeMeters>1901.199951171875</AltitudeMeters>
            <DistanceMeters>4077.8030782537</DistanceMeters>
          </Trackpoint>
          <Trackpoint>
            <Time>2019-08-04T16:07:21.000Z</Time>
            <Position>
              <LatitudeDegrees>-33.53769083507359027862548828125</LatitudeDegrees>
              <LongitudeDegrees>-70.235223881900310516357421875</LongitudeDegrees>
            </Position>
            <AltitudeMeters>1901.199951171875</AltitudeMeters>
            <DistanceMeters>4078.724396432</DistanceMeters>
          </Trackpoint>
          <Trackpoint>
            <Time>2019-08-04T16:07:26.000Z</Time>
            <Position>
              <LatitudeDegrees>-33.53769569657742977142333984375</LatitudeDegrees>
              <LongitudeDegrees>-70.2352652885019779205322265625</LongitudeDegrees>
            </Position>
            <AltitudeMeters>1902.199951171875</AltitudeMeters>
            <DistanceMeters>4082.6030698335</DistanceMeters>
          </Trackpoint>
          <Trackpoint>
            <Time>2019-08-04T16:07:31.000Z</Time>
            <Position>
              <LatitudeDegrees>-33.53772318921983242034912109375</LatitudeDegrees>
              <LongitudeDegrees>-70.2352924458682537078857421875</LongitudeDegrees>
            </Position>
            <AltitudeMeters>1903.199951171875</AltitudeMeters>
            <DistanceMeters>4086.566948365</DistanceMeters>
          </Trackpoint>
          <Trackpoint>
            <Time>2019-08-04T16:07:32.000Z</Time>
            <Position>
              <LatitudeDegrees>-33.53772738017141819000244140625</LatitudeDegrees>
              <LongitudeDegrees>-70.23529672063887119293212890625</LongitudeDegrees>
            </Position>
            <AltitudeMeters>1903.199951171875</AltitudeMeters>
            <DistanceMeters>4087.1827918603</DistanceMeters>
          </Trackpoint>
          <Trackpoint>
            <Time>2019-08-04T16:07:36.000Z</Time>
            <Position>
              <LatitudeDegrees>-33.53774632327258586883544921875</LatitudeDegrees>
              <LongitudeDegrees>-70.23530828766524791717529296875</LongitudeDegrees>
            </Position>
            <AltitudeMeters>1904.199951171875</AltitudeMeters>
            <DistanceMeters>4089.5508453799</DistanceMeters>
          </Trackpoint>
          <Trackpoint>
            <Time>2019-08-04T16:07:38.000Z</Time>
            <Position>
              <LatitudeDegrees>-33.53776015341281890869140625</LatitudeDegrees>
              <LongitudeDegrees>-70.23531130515038967132568359375</LongitudeDegrees>
            </Position>
            <AltitudeMeters>1904.5999755859375</AltitudeMeters>
            <DistanceMeters>4091.1122936306</DistanceMeters>
          </Trackpoint>
          <Trackpoint>
            <Time>2019-08-04T16:07:43.000Z</Time>
            <Position>
              <LatitudeDegrees>-33.53779661469161510467529296875</LatitudeDegrees>
              <LongitudeDegrees>-70.2353165857493877410888671875</LongitudeDegrees>
            </Position>
            <AltitudeMeters>1905.199951171875</AltitudeMeters>
            <DistanceMeters>4095.199547161</DistanceMeters>
          </Trackpoint>
          <Trackpoint>
            <Time>2019-08-04T16:07:46.000Z</Time>
            <Position>
              <LatitudeDegrees>-33.5378203354775905609130859375</LatitudeDegrees>
              <LongitudeDegrees>-70.2353259734809398651123046875</LongitudeDegrees>
            </Position>
            <AltitudeMeters>1906</AltitudeMeters>
            <DistanceMeters>4097.9797891354</DistanceMeters>
          </Trackpoint>
          <Trackpoint>
            <Time>2019-08-04T16:07:47.000Z</Time>
            <Position>
              <LatitudeDegrees>-33.53782377205789089202880859375</LatitudeDegrees>
              <LongitudeDegrees>-70.23533326573669910430908203125</LongitudeDegrees>
            </Position>
            <AltitudeMeters>1906.199951171875</AltitudeMeters>
            <DistanceMeters>4098.7633994966</DistanceMeters>
          </Trackpoint>
          <Trackpoint>
            <Time>2019-08-04T16:07:52.000Z</Time>
            <Position>
              <LatitudeDegrees>-33.53782729245722293853759765625</LatitudeDegrees>
              <LongitudeDegrees>-70.23535388521850109100341796875</LongitudeDegrees>
            </Position>
            <AltitudeMeters>1907.4000244140625</AltitudeMeters>
            <DistanceMeters>4100.7154989457</DistanceMeters>
          </Trackpoint>
          <Trackpoint>
            <Time>2019-08-04T16:07:56.000Z</Time>
            <Position>
              <LatitudeDegrees>-33.5378381051123142242431640625</LatitudeDegrees>
              <LongitudeDegrees>-70.23535975255072116851806640625</LongitudeDegrees>
            </Position>
            <AltitudeMeters>1908</AltitudeMeters>
            <DistanceMeters>4102.0356522526</DistanceMeters>
          </Trackpoint>
          <Trackpoint>
            <Time>2019-08-04T16:07:58.000Z</Time>
            <Position>
              <LatitudeDegrees>-33.53784489445388317108154296875</LatitudeDegrees>
              <LongitudeDegrees>-70.23536209948360919952392578125</LongitudeDegrees>
            </Position>
            <AltitudeMeters>1908.5999755859375</AltitudeMeters>
            <DistanceMeters>4102.8307027863</DistanceMeters>
          </Trackpoint>
          <Trackpoint>
            <Time>2019-08-04T16:08:06.000Z</Time>
            <Position>
              <LatitudeDegrees>-33.537889234721660614013671875</LatitudeDegrees>
              <LongitudeDegrees>-70.2353752590715885162353515625</LongitudeDegrees>
            </Position>
            <AltitudeMeters>1909.5999755859375</AltitudeMeters>
            <DistanceMeters>4107.9144099752</DistanceMeters>
          </Trackpoint>
          <Trackpoint>
            <Time>2019-08-04T16:08:09.000Z</Time>
            <Position>
              <LatitudeDegrees>-33.53790340013802051544189453125</LatitudeDegrees>
              <LongitudeDegrees>-70.23539663292467594146728515625</LongitudeDegrees>
            </Position>
            <AltitudeMeters>1910</AltitudeMeters>
            <DistanceMeters>4110.4500389756</DistanceMeters>
          </Trackpoint>
          <Trackpoint>
            <Time>2019-08-04T16:08:13.000Z</Time>
            <Position>
              <LatitudeDegrees>-33.53790423832833766937255859375</LatitudeDegrees>
              <LongitudeDegrees>-70.2354280650615692138671875</LongitudeDegrees>
            </Position>
            <AltitudeMeters>1910.800048828125</AltitudeMeters>
            <DistanceMeters>4113.3666006517</DistanceMeters>
          </Trackpoint>
          <Trackpoint>
            <Time>2019-08-04T16:08:19.000Z</Time>
            <Position>
              <LatitudeDegrees>-33.53790306486189365386962890625</LatitudeDegrees>
              <LongitudeDegrees>-70.2354647777974605560302734375</LongitudeDegrees>
            </Position>
            <AltitudeMeters>1911.800048828125</AltitudeMeters>
            <DistanceMeters>4116.7743386561</DistanceMeters>
          </Trackpoint>
          <Trackpoint>
            <Time>2019-08-04T16:08:20.000Z</Time>
            <Position>
              <LatitudeDegrees>-33.5379048250615596771240234375</LatitudeDegrees>
              <LongitudeDegrees>-70.23547139950096607208251953125</LongitudeDegrees>
            </Position>
            <AltitudeMeters>1912</AltitudeMeters>
            <DistanceMeters>4117.4188411902</DistanceMeters>
          </Trackpoint>
          <Trackpoint>
            <Time>2019-08-04T16:08:26.000Z</Time>
            <Position>
              <LatitudeDegrees>-33.5379008017480373382568359375</LatitudeDegrees>
              <LongitudeDegrees>-70.2355050109326839447021484375</LongitudeDegrees>
            </Position>
            <AltitudeMeters>1913</AltitudeMeters>
            <DistanceMeters>4120.5705207565</DistanceMeters>
          </Trackpoint>
          <Trackpoint>
            <Time>2019-08-04T16:08:36.000Z</Time>
            <Position>
              <LatitudeDegrees>-33.5379148833453655242919921875</LatitudeDegrees>
              <LongitudeDegrees>-70.23556963540613651275634765625</LongitudeDegrees>
            </Position>
            <AltitudeMeters>1914</AltitudeMeters>
            <DistanceMeters>4126.7669620771</DistanceMeters>
          </Trackpoint>
          <Trackpoint>
            <Time>2019-08-04T16:08:37.000Z</Time>
            <Position>
              <LatitudeDegrees>-33.53791681118309497833251953125</LatitudeDegrees>
              <LongitudeDegrees>-70.2355797775089740753173828125</LongitudeDegrees>
            </Position>
            <AltitudeMeters>1914</AltitudeMeters>
            <DistanceMeters>4127.731377897</DistanceMeters>
          </Trackpoint>
          <Trackpoint>
            <Time>2019-08-04T16:08:38.000Z</Time>
            <Position>
              <LatitudeDegrees>-33.53791647590696811676025390625</LatitudeDegrees>
              <LongitudeDegrees>-70.2355878241360187530517578125</LongitudeDegrees>
            </Position>
            <AltitudeMeters>1914.199951171875</AltitudeMeters>
            <DistanceMeters>4128.4796189942</DistanceMeters>
          </Trackpoint>
          <Trackpoint>
            <Time>2019-08-04T16:08:44.000Z</Time>
            <Position>
              <LatitudeDegrees>-33.53789669461548328399658203125</LatitudeDegrees>
              <LongitudeDegrees>-70.23563853465020656585693359375</LongitudeDegrees>
            </Position>
            <AltitudeMeters>1915</AltitudeMeters>
            <DistanceMeters>4133.6740264113</DistanceMeters>
          </Trackpoint>
          <Trackpoint>
            <Time>2019-08-04T16:08:45.000Z</Time>
            <Position>
              <LatitudeDegrees>-33.5378951020538806915283203125</LatitudeDegrees>
              <LongitudeDegrees>-70.2356480062007904052734375</LongitudeDegrees>
            </Position>
            <AltitudeMeters>1915.199951171875</AltitudeMeters>
            <DistanceMeters>4134.5705066417</DistanceMeters>
          </Trackpoint>
          <Trackpoint>
            <Time>2019-08-04T16:08:49.000Z</Time>
            <Position>
              <LatitudeDegrees>-33.5378823615610599517822265625</LatitudeDegrees>
              <LongitudeDegrees>-70.2356897480785846710205078125</LongitudeDegrees>
            </Position>
            <AltitudeMeters>1915.800048828125</AltitudeMeters>
            <DistanceMeters>4138.6940529242</DistanceMeters>
          </Trackpoint>
          <Trackpoint>
            <Time>2019-08-04T16:08:52.000Z</Time>
            <Position>
              <LatitudeDegrees>-33.53786316700279712677001953125</LatitudeDegrees>
              <LongitudeDegrees>-70.235710032284259796142578125</LongitudeDegrees>
            </Position>
            <AltitudeMeters>1916.199951171875</AltitudeMeters>
            <DistanceMeters>4141.5416850364</DistanceMeters>
          </Trackpoint>
          <Trackpoint>
            <Time>2019-08-04T16:09:03.000Z</Time>
            <Position>
              <LatitudeDegrees>-33.53785662911832332611083984375</LatitudeDegrees>
              <LongitudeDegrees>-70.235789157450199127197265625</LongitudeDegrees>
            </Position>
            <AltitudeMeters>1917.199951171875</AltitudeMeters>
            <DistanceMeters>4148.9177416099</DistanceMeters>
          </Trackpoint>
          <Trackpoint>
            <Time>2019-08-04T16:09:05.000Z</Time>
            <Position>
              <LatitudeDegrees>-33.537870459258556365966796875</LatitudeDegrees>
              <LongitudeDegrees>-70.23580583743751049041748046875</LongitudeDegrees>
            </Position>
            <AltitudeMeters>1917.4000244140625</AltitudeMeters>
            <DistanceMeters>4151.0992205316</DistanceMeters>
          </Trackpoint>
          <Trackpoint>
            <Time>2019-08-04T16:09:13.000Z</Time>
            <Position>
              <LatitudeDegrees>-33.5379095189273357391357421875</LatitudeDegrees>
              <LongitudeDegrees>-70.23583970032632350921630859375</LongitudeDegrees>
            </Position>
            <AltitudeMeters>1918.5999755859375</AltitudeMeters>
            <DistanceMeters>4156.4629714161</DistanceMeters>
          </Trackpoint>
          <Trackpoint>
            <Time>2019-08-04T16:09:18.000Z</Time>
            <Position>
              <LatitudeDegrees>-33.5379239358007907867431640625</LatitudeDegrees>
              <LongitudeDegrees>-70.23587222211062908172607421875</LongitudeDegrees>
            </Position>
            <AltitudeMeters>1919.5999755859375</AltitudeMeters>
            <DistanceMeters>4159.8812924833</DistanceMeters>
          </Trackpoint>
          <Trackpoint>
            <Time>2019-08-04T16:09:24.000Z</Time>
            <Position>
              <LatitudeDegrees>-33.53792569600045680999755859375</LatitudeDegrees>
              <LongitudeDegrees>-70.23591631092131137847900390625</LongitudeDegrees>
            </Position>
            <AltitudeMeters>1920.199951171875</AltitudeMeters>
            <DistanceMeters>4163.9762713546</DistanceMeters>
          </Trackpoint>
          <Trackpoint>
            <Time>2019-08-04T16:09:27.000Z</Time>
            <Position>
              <LatitudeDegrees>-33.53792988695204257965087890625</LatitudeDegrees>
              <LongitudeDegrees>-70.23593927733600139617919921875</LongitudeDegrees>
            </Position>
            <AltitudeMeters>1920.5999755859375</AltitudeMeters>
            <DistanceMeters>4166.1598190097</DistanceMeters>
          </Trackpoint>
          <Trackpoint>
            <Time>2019-08-04T16:09:33.000Z</Time>
            <Position>
              <LatitudeDegrees>-33.53794522583484649658203125</LatitudeDegrees>
              <LongitudeDegrees>-70.235963165760040283203125</LongitudeDegrees>
            </Position>
            <AltitudeMeters>1921.800048828125</AltitudeMeters>
            <DistanceMeters>4168.9578676649</DistanceMeters>
          </Trackpoint>
          <Trackpoint>
            <Time>2019-08-04T16:09:36.000Z</Time>
            <Position>
              <LatitudeDegrees>-33.53796089999377727508544921875</LatitudeDegrees>
              <LongitudeDegrees>-70.23595335893332958221435546875</LongitudeDegrees>
            </Position>
            <AltitudeMeters>1922</AltitudeMeters>
            <DistanceMeters>4170.9283835545</DistanceMeters>
          </Trackpoint>
          <Trackpoint>
            <Time>2019-08-04T16:09:45.000Z</Time>
            <Position>
              <LatitudeDegrees>-33.53797934018075466156005859375</LatitudeDegrees>
              <LongitudeDegrees>-70.23589585907757282257080078125</LongitudeDegrees>
            </Position>
            <AltitudeMeters>1922.800048828125</AltitudeMeters>
            <DistanceMeters>4176.6442226507</DistanceMeters>
          </Trackpoint>
          <Trackpoint>
            <Time>2019-08-04T16:09:48.000Z</Time>
            <Position>
              <LatitudeDegrees>-33.53799191303551197052001953125</LatitudeDegrees>
              <LongitudeDegrees>-70.235879011452198028564453125</LongitudeDegrees>
            </Position>
            <AltitudeMeters>1923.199951171875</AltitudeMeters>
            <DistanceMeters>4178.7434313837</DistanceMeters>
          </Trackpoint>
          <Trackpoint>
            <Time>2019-08-04T16:09:54.000Z</Time>
            <Position>
              <LatitudeDegrees>-33.5380308888852596282958984375</LatitudeDegrees>
              <LongitudeDegrees>-70.23586551658809185028076171875</LongitudeDegrees>
            </Position>
            <AltitudeMeters>1923.800048828125</AltitudeMeters>
            <DistanceMeters>4183.2589504691</DistanceMeters>
          </Trackpoint>
          <Trackpoint>
            <Time>2019-08-04T16:10:00.000Z</Time>
            <Position>
              <LatitudeDegrees>-33.53806165046989917755126953125</LatitudeDegrees>
              <LongitudeDegrees>-70.23587725125253200531005859375</LongitudeDegrees>
            </Position>
            <AltitudeMeters>1924.4000244140625</AltitudeMeters>
            <DistanceMeters>4186.8499042647</DistanceMeters>
          </Trackpoint>
          <Trackpoint>
            <Time>2019-08-04T16:10:04.000Z</Time>
            <Position>
              <LatitudeDegrees>-33.53806165046989917755126953125</LatitudeDegrees>
              <LongitudeDegrees>-70.23591019213199615478515625</LongitudeDegrees>
            </Position>
            <AltitudeMeters>1925</AltitudeMeters>
            <DistanceMeters>4189.9055709747</DistanceMeters>
          </Trackpoint>
          <Trackpoint>
            <Time>2019-08-04T16:10:09.000Z</Time>
            <Position>
              <LatitudeDegrees>-33.53807874955236911773681640625</LatitudeDegrees>
              <LongitudeDegrees>-70.23593927733600139617919921875</LongitudeDegrees>
            </Position>
            <AltitudeMeters>1925.5999755859375</AltitudeMeters>
            <DistanceMeters>4193.2083474347</DistanceMeters>
          </Trackpoint>
          <Trackpoint>
            <Time>2019-08-04T16:10:13.000Z</Time>
            <Position>
              <LatitudeDegrees>-33.538075648248195648193359375</LatitudeDegrees>
              <LongitudeDegrees>-70.2359720505774021148681640625</LongitudeDegrees>
            </Position>
            <AltitudeMeters>1926</AltitudeMeters>
            <DistanceMeters>4196.2684437195</DistanceMeters>
          </Trackpoint>
          <Trackpoint>
            <Time>2019-08-04T16:10:15.000Z</Time>
            <Position>
              <LatitudeDegrees>-33.53806902654469013214111328125</LatitudeDegrees>
              <LongitudeDegrees>-70.23598051629960536956787109375</LongitudeDegrees>
            </Position>
            <AltitudeMeters>1926.199951171875</AltitudeMeters>
            <DistanceMeters>4197.3435482655</DistanceMeters>
          </Trackpoint>
          <Trackpoint>
            <Time>2019-08-04T16:10:19.000Z</Time>
            <Position>
              <LatitudeDegrees>-33.53807271458208560943603515625</LatitudeDegrees>
              <LongitudeDegrees>-70.23599979467689990997314453125</LongitudeDegrees>
            </Position>
            <AltitudeMeters>1926.5999755859375</AltitudeMeters>
            <DistanceMeters>4199.1788189577</DistanceMeters>
          </Trackpoint>
          <Trackpoint>
            <Time>2019-08-04T16:10:21.000Z</Time>
            <Position>
              <LatitudeDegrees>-33.538087718188762664794921875</LatitudeDegrees>
              <LongitudeDegrees>-70.23601387627422809600830078125</LongitudeDegrees>
            </Position>
            <AltitudeMeters>1927</AltitudeMeters>
            <DistanceMeters>4201.2994269057</DistanceMeters>
          </Trackpoint>
          <Trackpoint>
            <Time>2019-08-04T16:10:29.000Z</Time>
            <Position>
              <LatitudeDegrees>-33.538117222487926483154296875</LatitudeDegrees>
              <LongitudeDegrees>-70.236072130501270294189453125</LongitudeDegrees>
            </Position>
            <AltitudeMeters>1927.800048828125</AltitudeMeters>
            <DistanceMeters>4207.6235243567</DistanceMeters>
          </Trackpoint>
          <Trackpoint>
            <Time>2019-08-04T16:10:30.000Z</Time>
            <Position>
              <LatitudeDegrees>-33.53811898268759250640869140625</LatitudeDegrees>
              <LongitudeDegrees>-70.2360776625573635101318359375</LongitudeDegrees>
            </Position>
            <AltitudeMeters>1928</AltitudeMeters>
            <DistanceMeters>4208.1694112705</DistanceMeters>
          </Trackpoint>
          <Trackpoint>
            <Time>2019-08-04T16:10:37.000Z</Time>
            <Position>
              <LatitudeDegrees>-33.53814211674034595489501953125</LatitudeDegrees>
              <LongitudeDegrees>-70.23611563257873058319091796875</LongitudeDegrees>
            </Position>
            <AltitudeMeters>1929.4000244140625</AltitudeMeters>
            <DistanceMeters>4212.532369114</DistanceMeters>
          </Trackpoint>
          <Trackpoint>
            <Time>2019-08-04T16:10:45.000Z</Time>
            <Position>
              <LatitudeDegrees>-33.53816156275570392608642578125</LatitudeDegrees>
              <LongitudeDegrees>-70.23615519516170024871826171875</LongitudeDegrees>
            </Position>
            <AltitudeMeters>1930.199951171875</AltitudeMeters>
            <DistanceMeters>4216.7948230792</DistanceMeters>
          </Trackpoint>
          <Trackpoint>
            <Time>2019-08-04T16:10:46.000Z</Time>
            <Position>
              <LatitudeDegrees>-33.53816382586956024169921875</LatitudeDegrees>
              <LongitudeDegrees>-70.2361594699323177337646484375</LongitudeDegrees>
            </Position>
            <AltitudeMeters>1930.5999755859375</AltitudeMeters>
            <DistanceMeters>4217.2603570034</DistanceMeters>
          </Trackpoint>
          <Trackpoint>
            <Time>2019-08-04T16:10:53.000Z</Time>
            <Position>
              <LatitudeDegrees>-33.538185618817806243896484375</LatitudeDegrees>
              <LongitudeDegrees>-70.23618436418473720550537109375</LongitudeDegrees>
            </Position>
            <AltitudeMeters>1931.800048828125</AltitudeMeters>
            <DistanceMeters>4220.6119857263</DistanceMeters>
          </Trackpoint>
          <Trackpoint>
            <Time>2019-08-04T16:10:58.000Z</Time>
            <Position>
              <LatitudeDegrees>-33.5382038913667201995849609375</LatitudeDegrees>
              <LongitudeDegrees>-70.23620950989425182342529296875</LongitudeDegrees>
            </Position>
            <AltitudeMeters>1932.4000244140625</AltitudeMeters>
            <DistanceMeters>4223.7058313965</DistanceMeters>
          </Trackpoint>
          <Trackpoint>
            <Time>2019-08-04T16:11:01.000Z</Time>
            <Position>
              <LatitudeDegrees>-33.53822409175336360931396484375</LatitudeDegrees>
              <LongitudeDegrees>-70.23622225038707256317138671875</LongitudeDegrees>
            </Position>
            <AltitudeMeters>1932.800048828125</AltitudeMeters>
            <DistanceMeters>4226.2450191763</DistanceMeters>
          </Trackpoint>
          <Trackpoint>
            <Time>2019-08-04T16:11:05.000Z</Time>
            <Position>
              <LatitudeDegrees>-33.53823699988424777984619140625</LatitudeDegrees>
              <LongitudeDegrees>-70.23624689318239688873291015625</LongitudeDegrees>
            </Position>
            <AltitudeMeters>1933.4000244140625</AltitudeMeters>
            <DistanceMeters>4228.9445138864</DistanceMeters>
          </Trackpoint>
          <Trackpoint>
            <Time>2019-08-04T16:11:12.000Z</Time>
            <Position>
              <LatitudeDegrees>-33.53826105594635009765625</LatitudeDegrees>
              <LongitudeDegrees>-70.2362935803830623626708984375</LongitudeDegrees>
            </Position>
            <AltitudeMeters>1934</AltitudeMeters>
            <DistanceMeters>4234.0353212285</DistanceMeters>
          </Trackpoint>
          <Trackpoint>
            <Time>2019-08-04T16:11:16.000Z</Time>
            <Position>
              <LatitudeDegrees>-33.538286201655864715576171875</LatitudeDegrees>
              <LongitudeDegrees>-70.2363078296184539794921875</LongitudeDegrees>
            </Position>
            <AltitudeMeters>1935</AltitudeMeters>
            <DistanceMeters>4237.1320842455</DistanceMeters>
          </Trackpoint>
          <Trackpoint>
            <Time>2019-08-04T16:11:24.000Z</Time>
            <Position>
              <LatitudeDegrees>-33.5383192263543605804443359375</LatitudeDegrees>
              <LongitudeDegrees>-70.2363378368318080902099609375</LongitudeDegrees>
            </Position>
            <AltitudeMeters>1936</AltitudeMeters>
            <DistanceMeters>4241.7425939732</DistanceMeters>
          </Trackpoint>
          <Trackpoint>
            <Time>2019-08-04T16:11:25.000Z</Time>
            <Position>
              <LatitudeDegrees>-33.5383229143917560577392578125</LatitudeDegrees>
              <LongitudeDegrees>-70.23633959703147411346435546875</LongitudeDegrees>
            </Position>
            <AltitudeMeters>1936.199951171875</AltitudeMeters>
            <DistanceMeters>4242.1883087719</DistanceMeters>
          </Trackpoint>
          <Trackpoint>
            <Time>2019-08-04T16:11:35.000Z</Time>
            <Position>
              <LatitudeDegrees>-33.538342528045177459716796875</LatitudeDegrees>
              <LongitudeDegrees>-70.23639022372663021087646484375</LongitudeDegrees>
            </Position>
            <AltitudeMeters>1937.199951171875</AltitudeMeters>
            <DistanceMeters>4247.3679185173</DistanceMeters>
          </Trackpoint>
          <Trackpoint>
            <Time>2019-08-04T16:11:36.000Z</Time>
            <Position>
              <LatitudeDegrees>-33.53834688663482666015625</LatitudeDegrees>
              <LongitudeDegrees>-70.23639122955501079559326171875</LongitudeDegrees>
            </Position>
            <AltitudeMeters>1937.199951171875</AltitudeMeters>
            <DistanceMeters>4247.8707526256</DistanceMeters>
          </Trackpoint>
          <Trackpoint>
            <Time>2019-08-04T16:11:45.000Z</Time>
            <Position>
              <LatitudeDegrees>-33.538372032344341278076171875</LatitudeDegrees>
              <LongitudeDegrees>-70.236448310315608978271484375</LongitudeDegrees>
            </Position>
            <AltitudeMeters>1938.199951171875</AltitudeMeters>
            <DistanceMeters>4253.8604515923</DistanceMeters>
          </Trackpoint>
          <Trackpoint>
            <Time>2019-08-04T16:11:50.000Z</Time>
            <Position>
              <LatitudeDegrees>-33.53839172981679439544677734375</LatitudeDegrees>
              <LongitudeDegrees>-70.236488543450832366943359375</LongitudeDegrees>
            </Position>
            <AltitudeMeters>1938.800048828125</AltitudeMeters>
            <DistanceMeters>4258.1901673679</DistanceMeters>
          </Trackpoint>
          <Trackpoint>
            <Time>2019-08-04T16:11:55.000Z</Time>
            <Position>
              <LatitudeDegrees>-33.53839843533933162689208984375</LatitudeDegrees>
              <LongitudeDegrees>-70.23653254844248294830322265625</LongitudeDegrees>
            </Position>
            <AltitudeMeters>1939.199951171875</AltitudeMeters>
            <DistanceMeters>4262.3409969061</DistanceMeters>
          </Trackpoint>
          <Trackpoint>
            <Time>2019-08-04T16:12:02.000Z</Time>
            <Position>
              <LatitudeDegrees>-33.5384181328117847442626953125</LatitudeDegrees>
              <LongitudeDegrees>-70.23660513572394847869873046875</LongitudeDegrees>
            </Position>
            <AltitudeMeters>1939.800048828125</AltitudeMeters>
            <DistanceMeters>4269.4228783348</DistanceMeters>
          </Trackpoint>
          <Trackpoint>
            <Time>2019-08-04T16:12:07.000Z</Time>
            <Position>
              <LatitudeDegrees>-33.53842894546687602996826171875</LatitudeDegrees>
              <LongitudeDegrees>-70.236645452678203582763671875</LongitudeDegrees>
            </Position>
            <AltitudeMeters>1940</AltitudeMeters>
            <DistanceMeters>4273.3512877639</DistanceMeters>
          </Trackpoint>
          <Trackpoint>
            <Time>2019-08-04T16:12:11.000Z</Time>
            <Position>
              <LatitudeDegrees>-33.5384499840438365936279296875</LatitudeDegrees>
              <LongitudeDegrees>-70.2366814948618412017822265625</LongitudeDegrees>
            </Position>
            <AltitudeMeters>1940.199951171875</AltitudeMeters>
            <DistanceMeters>4277.4341202507</DistanceMeters>
          </Trackpoint>
          <Trackpoint>
            <Time>2019-08-04T16:12:14.000Z</Time>
            <Position>
              <LatitudeDegrees>-33.5384670831263065338134765625</LatitudeDegrees>
              <LongitudeDegrees>-70.236699096858501434326171875</LongitudeDegrees>
            </Position>
            <AltitudeMeters>1940.4000244140625</AltitudeMeters>
            <DistanceMeters>4279.942897499</DistanceMeters>
          </Trackpoint>
          <Trackpoint>
            <Time>2019-08-04T16:12:26.000Z</Time>
            <Position>
              <LatitudeDegrees>-33.5385324619710445404052734375</LatitudeDegrees>
              <LongitudeDegrees>-70.23681149818003177642822265625</LongitudeDegrees>
            </Position>
            <AltitudeMeters>1941.4000244140625</AltitudeMeters>
            <DistanceMeters>4292.6587360008</DistanceMeters>
          </Trackpoint>
          <Trackpoint>
            <Time>2019-08-04T16:12:35.000Z</Time>
            <Position>
              <LatitudeDegrees>-33.53856892324984073638916015625</LatitudeDegrees>
              <LongitudeDegrees>-70.23690587840974330902099609375</LongitudeDegrees>
            </Position>
            <AltitudeMeters>1942.4000244140625</AltitudeMeters>
            <DistanceMeters>4302.3094462567</DistanceMeters>
          </Trackpoint>
          <Trackpoint>
            <Time>2019-08-04T16:12:39.000Z</Time>
            <Position>
              <LatitudeDegrees>-33.53859373368322849273681640625</LatitudeDegrees>
              <LongitudeDegrees>-70.23693873547017574310302734375</LongitudeDegrees>
            </Position>
            <AltitudeMeters>1943</AltitudeMeters>
            <DistanceMeters>4306.4231262705</DistanceMeters>
          </Trackpoint>
          <Trackpoint>
            <Time>2019-08-04T16:12:42.000Z</Time>
            <Position>
              <LatitudeDegrees>-33.53861418552696704864501953125</LatitudeDegrees>
              <LongitudeDegrees>-70.23696538992226123809814453125</LongitudeDegrees>
            </Position>
            <AltitudeMeters>1943.5999755859375</AltitudeMeters>
            <DistanceMeters>4309.7855146639</DistanceMeters>
          </Trackpoint>
          <Trackpoint>
            <Time>2019-08-04T16:12:49.000Z</Time>
            <Position>
              <LatitudeDegrees>-33.53865190409123897552490234375</LatitudeDegrees>
              <LongitudeDegrees>-70.23701987229287624359130859375</LongitudeDegrees>
            </Position>
            <AltitudeMeters>1944.5999755859375</AltitudeMeters>
            <DistanceMeters>4316.3554283165</DistanceMeters>
          </Trackpoint>
          <Trackpoint>
            <Time>2019-08-04T16:12:53.000Z</Time>
            <Position>
              <LatitudeDegrees>-33.5386648960411548614501953125</LatitudeDegrees>
              <LongitudeDegrees>-70.23704937659204006195068359375</LongitudeDegrees>
            </Position>
            <AltitudeMeters>1945</AltitudeMeters>
            <DistanceMeters>4319.4521913335</DistanceMeters>
          </Trackpoint>
          <Trackpoint>
            <Time>2019-08-04T16:13:00.000Z</Time>
            <Position>
              <LatitudeDegrees>-33.53869331069290637969970703125</LatitudeDegrees>
              <LongitudeDegrees>-70.23709304630756378173828125</LongitudeDegrees>
            </Position>
            <AltitudeMeters>1945.5999755859375</AltitudeMeters>
            <DistanceMeters>4324.5915467015</DistanceMeters>
          </Trackpoint>
          <Trackpoint>
            <Time>2019-08-04T16:13:08.000Z</Time>
            <Position>
              <LatitudeDegrees>-33.538729436695575714111328125</LatitudeDegrees>
              <LongitudeDegrees>-70.2371492050588130950927734375</LongitudeDegrees>
            </Position>
            <AltitudeMeters>1946</AltitudeMeters>
            <DistanceMeters>4331.1724468394</DistanceMeters>
          </Trackpoint>
          <Trackpoint>
            <Time>2019-08-04T16:13:13.000Z</Time>
            <Position>
              <LatitudeDegrees>-33.53874863125383853912353515625</LatitudeDegrees>
              <LongitudeDegrees>-70.23717820644378662109375</LongitudeDegrees>
            </Position>
            <AltitudeMeters>1946.4000244140625</AltitudeMeters>
            <DistanceMeters>4334.6078958511</DistanceMeters>
          </Trackpoint>
          <Trackpoint>
            <Time>2019-08-04T16:13:16.000Z</Time>
            <Position>
              <LatitudeDegrees>-33.53876640088856220245361328125</LatitudeDegrees>
              <LongitudeDegrees>-70.2372015081346035003662109375</LongitudeDegrees>
            </Position>
            <AltitudeMeters>1946.5999755859375</AltitudeMeters>
            <DistanceMeters>4337.5398973475</DistanceMeters>
          </Trackpoint>
          <Trackpoint>
            <Time>2019-08-04T16:13:17.000Z</Time>
            <Position>
              <LatitudeDegrees>-33.538777716457843780517578125</LatitudeDegrees>
              <LongitudeDegrees>-70.2372078783810138702392578125</LongitudeDegrees>
            </Position>
            <AltitudeMeters>1946.5999755859375</AltitudeMeters>
            <DistanceMeters>4338.9332624954</DistanceMeters>
          </Trackpoint>
          <Trackpoint>
            <Time>2019-08-04T16:13:20.000Z</Time>
            <Position>
              <LatitudeDegrees>-33.5387923009693622589111328125</LatitudeDegrees>
              <LongitudeDegrees>-70.23722472600638866424560546875</LongitudeDegrees>
            </Position>
            <AltitudeMeters>1946.5999755859375</AltitudeMeters>
            <DistanceMeters>4341.186017023</DistanceMeters>
          </Trackpoint>
          <Trackpoint>
            <Time>2019-08-04T16:13:26.000Z</Time>
            <Position>
              <LatitudeDegrees>-33.53884032927453517913818359375</LatitudeDegrees>
              <LongitudeDegrees>-70.23727300576865673065185546875</LongitudeDegrees>
            </Position>
            <AltitudeMeters>1947</AltitudeMeters>
            <DistanceMeters>4348.1599679639</DistanceMeters>
          </Trackpoint>
          <Trackpoint>
            <Time>2019-08-04T16:13:32.000Z</Time>
            <Position>
              <LatitudeDegrees>-33.53887871839106082916259765625</LatitudeDegrees>
              <LongitudeDegrees>-70.23731340654194355010986328125</LongitudeDegrees>
            </Position>
            <AltitudeMeters>1947.5999755859375</AltitudeMeters>
            <DistanceMeters>4353.8441225639</DistanceMeters>
          </Trackpoint>
          <Trackpoint>
            <Time>2019-08-04T16:13:34.000Z</Time>
            <Position>
              <LatitudeDegrees>-33.53889028541743755340576171875</LatitudeDegrees>
              <LongitudeDegrees>-70.23732849396765232086181640625</LongitudeDegrees>
            </Position>
            <AltitudeMeters>1947.5999755859375</AltitudeMeters>
            <DistanceMeters>4355.7446568513</DistanceMeters>
          </Trackpoint>
          <Trackpoint>
            <Time>2019-08-04T16:13:44.000Z</Time>
            <Position>
              <LatitudeDegrees>-33.5389411635696887969970703125</LatitudeDegrees>
              <LongitudeDegrees>-70.23741784505546092987060546875</LongitudeDegrees>
            </Position>
            <AltitudeMeters>1948.4000244140625</AltitudeMeters>
            <DistanceMeters>4365.7833645926</DistanceMeters>
          </Trackpoint>
          <Trackpoint>
            <Time>2019-08-04T16:13:47.000Z</Time>
            <Position>
              <LatitudeDegrees>-33.5389522276818752288818359375</LatitudeDegrees>
              <LongitudeDegrees>-70.23743879981338977813720703125</LongitudeDegrees>
            </Position>
            <AltitudeMeters>1948.800048828125</AltitudeMeters>
            <DistanceMeters>4368.083717782</DistanceMeters>
          </Trackpoint>
          <Trackpoint>
            <Time>2019-08-04T16:13:56.000Z</Time>
            <Position>
              <LatitudeDegrees>-33.53900210000574588775634765625</LatitudeDegrees>
              <LongitudeDegrees>-70.23747970350086688995361328125</LongitudeDegrees>
            </Position>
            <AltitudeMeters>1949.800048828125</AltitudeMeters>
            <DistanceMeters>4374.8078231318</DistanceMeters>
          </Trackpoint>
          <Trackpoint>
            <Time>2019-08-04T16:13:58.000Z</Time>
            <Position>
              <LatitudeDegrees>-33.539017103612422943115234375</LatitudeDegrees>
              <LongitudeDegrees>-70.23749093525111675262451171875</LongitudeDegrees>
            </Position>
            <AltitudeMeters>1950</AltitudeMeters>
            <DistanceMeters>4376.7783390213</DistanceMeters>
          </Trackpoint>
          <Trackpoint>
            <Time>2019-08-04T16:14:05.000Z</Time>
            <Position>
              <LatitudeDegrees>-33.53907183744013309478759765625</LatitudeDegrees>
              <LongitudeDegrees>-70.23755698464810848236083984375</LongitudeDegrees>
            </Position>
            <AltitudeMeters>1950.800048828125</AltitudeMeters>
            <DistanceMeters>4385.4189797405</DistanceMeters>
          </Trackpoint>
          <Trackpoint>
            <Time>2019-08-04T16:14:08.000Z</Time>
            <Position>
              <LatitudeDegrees>-33.53909564204514026641845703125</LatitudeDegrees>
              <LongitudeDegrees>-70.23758498020470142364501953125</LongitudeDegrees>
            </Position>
            <AltitudeMeters>1951.199951171875</AltitudeMeters>
            <DistanceMeters>4389.1286746742</DistanceMeters>
          </Trackpoint>
          <Trackpoint>
            <Time>2019-08-04T16:14:15.000Z</Time>
            <Position>
              <LatitudeDegrees>-33.53913084603846073150634765625</LatitudeDegrees>
              <LongitudeDegrees>-70.2376306615769863128662109375</LongitudeDegrees>
            </Position>
            <AltitudeMeters>1951.800048828125</AltitudeMeters>
            <DistanceMeters>4394.9003253914</DistanceMeters>
          </Trackpoint>
          <Trackpoint>
            <Time>2019-08-04T16:14:19.000Z</Time>
            <Position>
              <LatitudeDegrees>-33.539144508540630340576171875</LatitudeDegrees>
              <LongitudeDegrees>-70.2376558072865009307861328125</LongitudeDegrees>
            </Position>
            <AltitudeMeters>1952.4000244140625</AltitudeMeters>
            <DistanceMeters>4397.6838134171</DistanceMeters>
          </Trackpoint>
          <Trackpoint>
            <Time>2019-08-04T16:14:20.000Z</Time>
            <Position>
              <LatitudeDegrees>-33.539148867130279541015625</LatitudeDegrees>
              <LongitudeDegrees>-70.23766175843775272369384765625</LongitudeDegrees>
            </Position>
            <AltitudeMeters>1952.5999755859375</AltitudeMeters>
            <DistanceMeters>4398.4198871815</DistanceMeters>
          </Trackpoint>
          <Trackpoint>
            <Time>2019-08-04T16:14:22.000Z</Time>
            <Position>
              <LatitudeDegrees>-33.5391607694327831268310546875</LatitudeDegrees>
              <LongitudeDegrees>-70.23767097853124141693115234375</LongitudeDegrees>
            </Position>
            <AltitudeMeters>1953.199951171875</AltitudeMeters>
            <DistanceMeters>4399.9985895279</DistanceMeters>
          </Trackpoint>
          <Trackpoint>
            <Time>2019-08-04T16:14:26.000Z</Time>
            <Position>
              <LatitudeDegrees>-33.539178371429443359375</LatitudeDegrees>
              <LongitudeDegrees>-70.23768740706145763397216796875</LongitudeDegrees>
            </Position>
            <AltitudeMeters>1954</AltitudeMeters>
            <DistanceMeters>4402.4802245</DistanceMeters>
          </Trackpoint>
          <Trackpoint>
            <Time>2019-08-04T16:14:28.000Z</Time>
            <Position>
              <LatitudeDegrees>-33.53919035755097866058349609375</LatitudeDegrees>
              <LongitudeDegrees>-70.23769595660269260406494140625</LongitudeDegrees>
            </Position>
            <AltitudeMeters>1954.199951171875</AltitudeMeters>
            <DistanceMeters>4404.030063309</DistanceMeters>
          </Trackpoint>
          <Trackpoint>
            <Time>2019-08-04T16:14:33.000Z</Time>
            <Position>
              <LatitudeDegrees>-33.53922036476433277130126953125</LatitudeDegrees>
              <LongitudeDegrees>-70.2377097867429256439208984375</LongitudeDegrees>
            </Position>
            <AltitudeMeters>1955</AltitudeMeters>
            <DistanceMeters>4407.6084216474</DistanceMeters>
          </Trackpoint>
          <Trackpoint>
            <Time>2019-08-04T16:14:35.000Z</Time>
            <Position>
              <LatitudeDegrees>-33.539234697818756103515625</LatitudeDegrees>
              <LongitudeDegrees>-70.23771188221871852874755859375</LongitudeDegrees>
            </Position>
            <AltitudeMeters>1955.4000244140625</AltitudeMeters>
            <DistanceMeters>4409.2126572244</DistanceMeters>
          </Trackpoint>
          <Trackpoint>
            <Time>2019-08-04T16:14:41.000Z</Time>
            <Position>
              <LatitudeDegrees>-33.53926621377468109130859375</LatitudeDegrees>
              <LongitudeDegrees>-70.23771129548549652099609375</LongitudeDegrees>
            </Position>
            <AltitudeMeters>1956.4000244140625</AltitudeMeters>
            <DistanceMeters>4412.7196451224</DistanceMeters>
          </Trackpoint>
          <Trackpoint>
            <Time>2019-08-04T16:14:42.000Z</Time>
            <Position>
              <LatitudeDegrees>-33.5392734222114086151123046875</LatitudeDegrees>
              <LongitudeDegrees>-70.23771489970386028289794921875</LongitudeDegrees>
            </Position>
            <AltitudeMeters>1956.4000244140625</AltitudeMeters>
            <DistanceMeters>4413.5905793456</DistanceMeters>
          </Trackpoint>
          <Trackpoint>
            <Time>2019-08-04T16:14:46.000Z</Time>
            <Position>
              <LatitudeDegrees>-33.539288006722927093505859375</LatitudeDegrees>
              <LongitudeDegrees>-70.2377299033105373382568359375</LongitudeDegrees>
            </Position>
            <AltitudeMeters>1957.199951171875</AltitudeMeters>
            <DistanceMeters>4415.7302636114</DistanceMeters>
          </Trackpoint>
          <Trackpoint>
            <Time>2019-08-04T16:14:48.000Z</Time>
            <Position>
              <LatitudeDegrees>-33.53929865173995494842529296875</LatitudeDegrees>
              <LongitudeDegrees>-70.23773903958499431610107421875</LongitudeDegrees>
            </Position>
            <AltitudeMeters>1957.5999755859375</AltitudeMeters>
            <DistanceMeters>4417.1900916974</DistanceMeters>
          </Trackpoint>
          <Trackpoint>
            <Time>2019-08-04T16:14:54.000Z</Time>
            <Position>
              <LatitudeDegrees>-33.5393220372498035430908203125</LatitudeDegrees>
              <LongitudeDegrees>-70.2377594076097011566162109375</LongitudeDegrees>
            </Position>
            <AltitudeMeters>1958.800048828125</AltitudeMeters>
            <DistanceMeters>4420.4041868192</DistanceMeters>
          </Trackpoint>
          <Trackpoint>
            <Time>2019-08-04T16:14:59.000Z</Time>
            <Position>
              <LatitudeDegrees>-33.53933737613260746002197265625</LatitudeDegrees>
              <LongitudeDegrees>-70.23778933100402355194091796875</LongitudeDegrees>
            </Position>
            <AltitudeMeters>1959.4000244140625</AltitudeMeters>
            <DistanceMeters>4423.6629242892</DistanceMeters>
          </Trackpoint>
          <Trackpoint>
            <Time>2019-08-04T16:15:01.000Z</Time>
            <Position>
              <LatitudeDegrees>-33.53934525512158870697021484375</LatitudeDegrees>
              <LongitudeDegrees>-70.23780290968716144561767578125</LongitudeDegrees>
            </Position>
            <AltitudeMeters>1959.800048828125</AltitudeMeters>
            <DistanceMeters>4425.1981278431</DistanceMeters>
          </Trackpoint>
          <Trackpoint>
            <Time>2019-08-04T16:15:10.000Z</Time>
            <Position>
              <LatitudeDegrees>-33.539377190172672271728515625</LatitudeDegrees>
              <LongitudeDegrees>-70.237867869436740875244140625</LongitudeDegrees>
            </Position>
            <AltitudeMeters>1960.800048828125</AltitudeMeters>
            <DistanceMeters>4432.1953468963</DistanceMeters>
          </Trackpoint>
          <Trackpoint>
            <Time>2019-08-04T16:15:13.000Z</Time>
            <Position>
              <LatitudeDegrees>-33.53938682936131954193115234375</LatitudeDegrees>
              <LongitudeDegrees>-70.237895362079143524169921875</LongitudeDegrees>
            </Position>
            <AltitudeMeters>1961</AltitudeMeters>
            <DistanceMeters>4434.9609344917</DistanceMeters>
          </Trackpoint>
          <Trackpoint>
            <Time>2019-08-04T16:15:21.000Z</Time>
            <Position>
              <LatitudeDegrees>-33.53941532783210277557373046875</LatitudeDegrees>
              <LongitudeDegrees>-70.2379612438380718231201171875</LongitudeDegrees>
            </Position>
            <AltitudeMeters>1961.800048828125</AltitudeMeters>
            <DistanceMeters>4441.8462740862</DistanceMeters>
          </Trackpoint>
          <Trackpoint>
            <Time>2019-08-04T16:15:27.000Z</Time>
            <Position>
              <LatitudeDegrees>-33.5394353605806827545166015625</LatitudeDegrees>
              <LongitudeDegrees>-70.23801564238965511322021484375</LongitudeDegrees>
            </Position>
            <AltitudeMeters>1962.199951171875</AltitudeMeters>
            <DistanceMeters>4447.3643731945</DistanceMeters>
          </Trackpoint>
          <Trackpoint>
            <Time>2019-08-04T16:15:31.000Z</Time>
            <Position>
              <LatitudeDegrees>-33.5394318401813507080078125</LatitudeDegrees>
              <LongitudeDegrees>-70.23807364515960216522216796875</LongitudeDegrees>
            </Position>
            <AltitudeMeters>1962.4000244140625</AltitudeMeters>
            <DistanceMeters>4452.7583426329</DistanceMeters>
          </Trackpoint>
          <Trackpoint>
            <Time>2019-08-04T16:15:33.000Z</Time>
            <Position>
              <LatitudeDegrees>-33.53943024761974811553955078125</LatitudeDegrees>
              <LongitudeDegrees>-70.23809644393622875213623046875</LongitudeDegrees>
            </Position>
            <AltitudeMeters>1962.5999755859375</AltitudeMeters>
            <DistanceMeters>4454.8789505809</DistanceMeters>
          </Trackpoint>
          <Trackpoint>
            <Time>2019-08-04T16:15:36.000Z</Time>
            <Position>
              <LatitudeDegrees>-33.53941834531724452972412109375</LatitudeDegrees>
              <LongitudeDegrees>-70.23812569677829742431640625</LongitudeDegrees>
            </Position>
            <AltitudeMeters>1962.5999755859375</AltitudeMeters>
            <DistanceMeters>4457.8989468074</DistanceMeters>
          </Trackpoint>
          <Trackpoint>
            <Time>2019-08-04T16:15:41.000Z</Time>
            <Position>
              <LatitudeDegrees>-33.53941884823143482208251953125</LatitudeDegrees>
              <LongitudeDegrees>-70.23818260990083217620849609375</LongitudeDegrees>
            </Position>
            <AltitudeMeters>1963</AltitudeMeters>
            <DistanceMeters>4463.179560035</DistanceMeters>
          </Trackpoint>
          <Trackpoint>
            <Time>2019-08-04T16:15:46.000Z</Time>
            <Position>
              <LatitudeDegrees>-33.5394211113452911376953125</LatitudeDegrees>
              <LongitudeDegrees>-70.238230638206005096435546875</LongitudeDegrees>
            </Position>
            <AltitudeMeters>1963.800048828125</AltitudeMeters>
            <DistanceMeters>4467.6417700882</DistanceMeters>
          </Trackpoint>
          <Trackpoint>
            <Time>2019-08-04T16:15:47.000Z</Time>
            <Position>
              <LatitudeDegrees>-33.5394229553639888763427734375</LatitudeDegrees>
              <LongitudeDegrees>-70.23824094794690608978271484375</LongitudeDegrees>
            </Position>
            <AltitudeMeters>1964</AltitudeMeters>
            <DistanceMeters>4468.6155041518</DistanceMeters>
          </Trackpoint>
          <Trackpoint>
            <Time>2019-08-04T16:15:48.000Z</Time>
            <Position>
              <LatitudeDegrees>-33.53942169807851314544677734375</LatitudeDegrees>
              <LongitudeDegrees>-70.2382502518594264984130859375</LongitudeDegrees>
            </Position>
            <AltitudeMeters>1964.199951171875</AltitudeMeters>
            <DistanceMeters>4469.4967456477</DistanceMeters>
          </Trackpoint>
          <Trackpoint>
            <Time>2019-08-04T16:15:54.000Z</Time>
            <Position>
              <LatitudeDegrees>-33.53943410329520702362060546875</LatitudeDegrees>
              <LongitudeDegrees>-70.23830674588680267333984375</LongitudeDegrees>
            </Position>
            <AltitudeMeters>1965.4000244140625</AltitudeMeters>
            <DistanceMeters>4474.9157684928</DistanceMeters>
          </Trackpoint>
          <Trackpoint>
            <Time>2019-08-04T16:15:55.000Z</Time>
            <Position>
              <LatitudeDegrees>-33.539432846009731292724609375</LatitudeDegrees>
              <LongitudeDegrees>-70.2383159659802913665771484375</LongitudeDegrees>
            </Position>
            <AltitudeMeters>1965.4000244140625</AltitudeMeters>
            <DistanceMeters>4475.7815030623</DistanceMeters>
          </Trackpoint>
          <Trackpoint>
            <Time>2019-08-04T16:16:03.000Z</Time>
            <Position>
              <LatitudeDegrees>-33.53939638473093509674072265625</LatitudeDegrees>
              <LongitudeDegrees>-70.238385535776615142822265625</LongitudeDegrees>
            </Position>
            <AltitudeMeters>1966.4000244140625</AltitudeMeters>
            <DistanceMeters>4483.4049912399</DistanceMeters>
          </Trackpoint>
          <Trackpoint>
            <Time>2019-08-04T16:16:07.000Z</Time>
            <Position>
              <LatitudeDegrees>-33.5394041799008846282958984375</LatitudeDegrees>
              <LongitudeDegrees>-70.2384225837886333465576171875</LongitudeDegrees>
            </Position>
            <AltitudeMeters>1966.800048828125</AltitudeMeters>
            <DistanceMeters>4486.9503919803</DistanceMeters>
          </Trackpoint>
          <Trackpoint>
            <Time>2019-08-04T16:16:12.000Z</Time>
            <Position>
              <LatitudeDegrees>-33.53941465727984905242919921875</LatitudeDegrees>
              <LongitudeDegrees>-70.23846524767577648162841796875</LongitudeDegrees>
            </Position>
            <AltitudeMeters>1967.4000244140625</AltitudeMeters>
            <DistanceMeters>4491.0783157017</DistanceMeters>
          </Trackpoint>
          <Trackpoint>
            <Time>2019-08-04T16:16:19.000Z</Time>
            <Position>
              <LatitudeDegrees>-33.539424799382686614990234375</LatitudeDegrees>
              <LongitudeDegrees>-70.2385422773659229278564453125</LongitudeDegrees>
            </Position>
            <AltitudeMeters>1968</AltitudeMeters>
            <DistanceMeters>4498.3134627732</DistanceMeters>
          </Trackpoint>
          <Trackpoint>
            <Time>2019-08-04T16:16:23.000Z</Time>
            <Position>
              <LatitudeDegrees>-33.53944147936999797821044921875</LatitudeDegrees>
              <LongitudeDegrees>-70.2385850250720977783203125</LongitudeDegrees>
            </Position>
            <AltitudeMeters>1968.5999755859375</AltitudeMeters>
            <DistanceMeters>4502.6919159578</DistanceMeters>
          </Trackpoint>
          <Trackpoint>
            <Time>2019-08-04T16:16:31.000Z</Time>
            <Position>
              <LatitudeDegrees>-33.5394752584397792816162109375</LatitudeDegrees>
              <LongitudeDegrees>-70.23867311887443065643310546875</LongitudeDegrees>
            </Position>
            <AltitudeMeters>1969.199951171875</AltitudeMeters>
            <DistanceMeters>4511.6878897845</DistanceMeters>
          </Trackpoint>
          <Trackpoint>
            <Time>2019-08-04T16:16:32.000Z</Time>
            <Position>
              <LatitudeDegrees>-33.5394765995442867279052734375</LatitudeDegrees>
              <LongitudeDegrees>-70.23868368007242679595947265625</LongitudeDegrees>
            </Position>
            <AltitudeMeters>1969.4000244140625</AltitudeMeters>
            <DistanceMeters>4512.684538373</DistanceMeters>
          </Trackpoint>
          <Trackpoint>
            <Time>2019-08-04T16:16:36.000Z</Time>
            <Position>
              <LatitudeDegrees>-33.539481125771999359130859375</LatitudeDegrees>
              <LongitudeDegrees>-70.238730199635028839111328125</LongitudeDegrees>
            </Position>
            <AltitudeMeters>1969.5999755859375</AltitudeMeters>
            <DistanceMeters>4517.0309069631</DistanceMeters>
          </Trackpoint>
          <Trackpoint>
            <Time>2019-08-04T16:16:43.000Z</Time>
            <Position>
              <LatitudeDegrees>-33.53949487209320068359375</LatitudeDegrees>
              <LongitudeDegrees>-70.23880404420197010040283203125</LongitudeDegrees>
            </Position>
            <AltitudeMeters>1970.199951171875</AltitudeMeters>
            <DistanceMeters>4524.0500306319</DistanceMeters>
          </Trackpoint>
          <Trackpoint>
            <Time>2019-08-04T16:16:47.000Z</Time>
            <Position>
              <LatitudeDegrees>-33.5395014099776744842529296875</LatitudeDegrees>
              <LongitudeDegrees>-70.2388413436710834503173828125</LongitudeDegrees>
            </Position>
            <AltitudeMeters>1970.800048828125</AltitudeMeters>
            <DistanceMeters>4527.5877821708</DistanceMeters>
          </Trackpoint>
          <Trackpoint>
            <Time>2019-08-04T16:16:50.000Z</Time>
            <Position>
              <LatitudeDegrees>-33.539507947862148284912109375</LatitudeDegrees>
              <LongitudeDegrees>-70.23886992596089839935302734375</LongitudeDegrees>
            </Position>
            <AltitudeMeters>1971.199951171875</AltitudeMeters>
            <DistanceMeters>4530.3386373215</DistanceMeters>
          </Trackpoint>
          <Trackpoint>
            <Time>2019-08-04T16:16:51.000Z</Time>
            <Position>
              <LatitudeDegrees>-33.53951255790889263153076171875</LatitudeDegrees>
              <LongitudeDegrees>-70.23888015188276767730712890625</LongitudeDegrees>
            </Position>
            <AltitudeMeters>1971.4000244140625</AltitudeMeters>
            <DistanceMeters>4531.4137418675</DistanceMeters>
          </Trackpoint>
          <Trackpoint>
            <Time>2019-08-04T16:16:57.000Z</Time>
            <Position>
              <LatitudeDegrees>-33.53951431810855865478515625</LatitudeDegrees>
              <LongitudeDegrees>-70.2389258332550525665283203125</LongitudeDegrees>
            </Position>
            <AltitudeMeters>1972</AltitudeMeters>
            <DistanceMeters>4535.6549577635</DistanceMeters>
          </Trackpoint>
          <Trackpoint>
            <Time>2019-08-04T16:17:07.000Z</Time>
            <Position>
              <LatitudeDegrees>-33.53953443467617034912109375</LatitudeDegrees>
              <LongitudeDegrees>-70.239025242626667022705078125</LongitudeDegrees>
            </Position>
            <AltitudeMeters>1973</AltitudeMeters>
            <DistanceMeters>4545.1443161348</DistanceMeters>
          </Trackpoint>
          <Trackpoint>
            <Time>2019-08-04T16:17:09.000Z</Time>
            <Position>
              <LatitudeDegrees>-33.5395439900457859039306640625</LatitudeDegrees>
              <LongitudeDegrees>-70.23904711939394474029541015625</LongitudeDegrees>
            </Position>
            <AltitudeMeters>1973.199951171875</AltitudeMeters>
            <DistanceMeters>4547.432862472</DistanceMeters>
          </Trackpoint>
          <Trackpoint>
            <Time>2019-08-04T16:17:18.000Z</Time>
            <Position>
              <LatitudeDegrees>-33.53957206942141056060791015625</LatitudeDegrees>
              <LongitudeDegrees>-70.239121131598949432373046875</LongitudeDegrees>
            </Position>
            <AltitudeMeters>1974</AltitudeMeters>
            <DistanceMeters>4554.976571225</DistanceMeters>
          </Trackpoint>
          <Trackpoint>
            <Time>2019-08-04T16:17:22.000Z</Time>
            <Position>
              <LatitudeDegrees>-33.53958900086581707000732421875</LatitudeDegrees>
              <LongitudeDegrees>-70.2391538210213184356689453125</LongitudeDegrees>
            </Position>
            <AltitudeMeters>1974.4000244140625</AltitudeMeters>
            <DistanceMeters>4558.5460862988</DistanceMeters>
          </Trackpoint>
          <Trackpoint>
            <Time>2019-08-04T16:17:29.000Z</Time>
            <Position>
              <LatitudeDegrees>-33.53961850516498088836669921875</LatitudeDegrees>
              <LongitudeDegrees>-70.239196904003620147705078125</LongitudeDegrees>
            </Position>
            <AltitudeMeters>1975</AltitudeMeters>
            <DistanceMeters>4563.7187177861</DistanceMeters>
          </Trackpoint>
          <Trackpoint>
            <Time>2019-08-04T16:17:32.000Z</Time>
            <Position>
              <LatitudeDegrees>-33.539636023342609405517578125</LatitudeDegrees>
              <LongitudeDegrees>-70.23921039886772632598876953125</LongitudeDegrees>
            </Position>
            <AltitudeMeters>1975.199951171875</AltitudeMeters>
            <DistanceMeters>4566.0347198171</DistanceMeters>
          </Trackpoint>
          <Trackpoint>
            <Time>2019-08-04T16:17:35.000Z</Time>
            <Position>
              <LatitudeDegrees>-33.53965915739536285400390625</LatitudeDegrees>
              <LongitudeDegrees>-70.23923403583467006683349609375</LongitudeDegrees>
            </Position>
            <AltitudeMeters>1975.4000244140625</AltitudeMeters>
            <DistanceMeters>4569.4158552445</DistanceMeters>
          </Trackpoint>
          <Trackpoint>
            <Time>2019-08-04T16:17:48.000Z</Time>
            <Position>
              <LatitudeDegrees>-33.53975915350019931793212890625</LatitudeDegrees>
              <LongitudeDegrees>-70.23932598531246185302734375</LongitudeDegrees>
            </Position>
            <AltitudeMeters>1975</AltitudeMeters>
            <DistanceMeters>4583.4386561289</DistanceMeters>
          </Trackpoint>
          <Trackpoint>
            <Time>2019-08-04T16:17:55.000Z</Time>
            <Position>
              <LatitudeDegrees>-33.53982486762106418609619140625</LatitudeDegrees>
              <LongitudeDegrees>-70.23934836499392986297607421875</LongitudeDegrees>
            </Position>
            <AltitudeMeters>1974.199951171875</AltitudeMeters>
            <DistanceMeters>4591.0407932785</DistanceMeters>
          </Trackpoint>
          <Trackpoint>
            <Time>2019-08-04T16:17:56.000Z</Time>
            <Position>
              <LatitudeDegrees>-33.5398313216865062713623046875</LatitudeDegrees>
              <LongitudeDegrees>-70.2393549866974353790283203125</LongitudeDegrees>
            </Position>
            <AltitudeMeters>1974</AltitudeMeters>
            <DistanceMeters>4591.9815097562</DistanceMeters>
          </Trackpoint>
          <Trackpoint>
            <Time>2019-08-04T16:17:59.000Z</Time>
            <Position>
              <LatitudeDegrees>-33.5398464091122150421142578125</LatitudeDegrees>
              <LongitudeDegrees>-70.23937568999826908111572265625</LongitudeDegrees>
            </Position>
            <AltitudeMeters>1973.5999755859375</AltitudeMeters>
            <DistanceMeters>4594.5313440724</DistanceMeters>
          </Trackpoint>
          <Trackpoint>
            <Time>2019-08-04T16:18:06.000Z</Time>
            <Position>
              <LatitudeDegrees>-33.53989561088383197784423828125</LatitudeDegrees>
              <LongitudeDegrees>-70.2394019253551959991455078125</LongitudeDegrees>
            </Position>
            <AltitudeMeters>1973</AltitudeMeters>
            <DistanceMeters>4600.5248108566</DistanceMeters>
          </Trackpoint>
          <Trackpoint>
            <Time>2019-08-04T16:18:11.000Z</Time>
            <Position>
              <LatitudeDegrees>-33.53991991840302944183349609375</LatitudeDegrees>
              <LongitudeDegrees>-70.2394455112516880035400390625</LongitudeDegrees>
            </Position>
            <AltitudeMeters>1972.4000244140625</AltitudeMeters>
            <DistanceMeters>4605.3888421356</DistanceMeters>
          </Trackpoint>
          <Trackpoint>
            <Time>2019-08-04T16:18:15.000Z</Time>
            <Position>
              <LatitudeDegrees>-33.53992402553558349609375</LatitudeDegrees>
              <LongitudeDegrees>-70.23948750458657741546630859375</LongitudeDegrees>
            </Position>
            <AltitudeMeters>1972</AltitudeMeters>
            <DistanceMeters>4609.3115007061</DistanceMeters>
          </Trackpoint>
          <Trackpoint>
            <Time>2019-08-04T16:18:21.000Z</Time>
            <Position>
              <LatitudeDegrees>-33.53990918956696987152099609375</LatitudeDegrees>
              <LongitudeDegrees>-70.2395437471568584442138671875</LongitudeDegrees>
            </Position>
            <AltitudeMeters>1971.5999755859375</AltitudeMeters>
            <DistanceMeters>4614.7844125056</DistanceMeters>
          </Trackpoint>
          <Trackpoint>
            <Time>2019-08-04T16:18:30.000Z</Time>
            <Position>
              <LatitudeDegrees>-33.539859987795352935791015625</LatitudeDegrees>
              <LongitudeDegrees>-70.239600241184234619140625</LongitudeDegrees>
            </Position>
            <AltitudeMeters>1971.199951171875</AltitudeMeters>
            <DistanceMeters>4622.3645428747</DistanceMeters>
          </Trackpoint>
          <Trackpoint>
            <Time>2019-08-04T16:18:32.000Z</Time>
            <Position>
              <LatitudeDegrees>-33.53986191563308238983154296875</LatitudeDegrees>
              <LongitudeDegrees>-70.23962077684700489044189453125</LongitudeDegrees>
            </Position>
            <AltitudeMeters>1971</AltitudeMeters>
            <DistanceMeters>4624.2792781139</DistanceMeters>
          </Trackpoint>
          <Trackpoint>
            <Time>2019-08-04T16:18:34.000Z</Time>
            <Position>
              <LatitudeDegrees>-33.53985554538667201995849609375</LatitudeDegrees>
              <LongitudeDegrees>-70.23963988758623600006103515625</LongitudeDegrees>
            </Position>
            <AltitudeMeters>1970.800048828125</AltitudeMeters>
            <DistanceMeters>4626.1869260916</DistanceMeters>
          </Trackpoint>
          <Trackpoint>
            <Time>2019-08-04T16:18:42.000Z</Time>
            <Position>
              <LatitudeDegrees>-33.53985034860670566558837890625</LatitudeDegrees>
              <LongitudeDegrees>-70.23970476351678371429443359375</LongitudeDegrees>
            </Position>
            <AltitudeMeters>1970.199951171875</AltitudeMeters>
            <DistanceMeters>4632.2328957777</DistanceMeters>
          </Trackpoint>
          <Trackpoint>
            <Time>2019-08-04T16:18:46.000Z</Time>
            <Position>
              <LatitudeDegrees>-33.53982788510620594024658203125</LatitudeDegrees>
              <LongitudeDegrees>-70.2397338487207889556884765625</LongitudeDegrees>
            </Position>
            <AltitudeMeters>1969.800048828125</AltitudeMeters>
            <DistanceMeters>4635.9132645997</DistanceMeters>
          </Trackpoint>
          <Trackpoint>
            <Time>2019-08-04T16:18:53.000Z</Time>
            <Position>
              <LatitudeDegrees>-33.53981212712824344635009765625</LatitudeDegrees>
              <LongitudeDegrees>-70.23977953009307384490966796875</LongitudeDegrees>
            </Position>
            <AltitudeMeters>1968.800048828125</AltitudeMeters>
            <DistanceMeters>4640.500211091</DistanceMeters>
          </Trackpoint>
          <Trackpoint>
            <Time>2019-08-04T16:18:54.000Z</Time>
            <Position>
              <LatitudeDegrees>-33.5398122109472751617431640625</LatitudeDegrees>
              <LongitudeDegrees>-70.23978288285434246063232421875</LongitudeDegrees>
            </Position>
            <AltitudeMeters>1968.5999755859375</AltitudeMeters>
            <DistanceMeters>4640.800711947</DistanceMeters>
          </Trackpoint>
          <Trackpoint>
            <Time>2019-08-04T16:18:58.000Z</Time>
            <Position>
              <LatitudeDegrees>-33.5398185811936855316162109375</LatitudeDegrees>
              <LongitudeDegrees>-70.23980073630809783935546875</LongitudeDegrees>
            </Position>
            <AltitudeMeters>1968.199951171875</AltitudeMeters>
            <DistanceMeters>4642.6037170828</DistanceMeters>
          </Trackpoint>
          <Trackpoint>
            <Time>2019-08-04T16:19:05.000Z</Time>
            <Position>
              <LatitudeDegrees>-33.53983157314360141754150390625</LatitudeDegrees>
              <LongitudeDegrees>-70.2398568950593471527099609375</LongitudeDegrees>
            </Position>
            <AltitudeMeters>1968</AltitudeMeters>
            <DistanceMeters>4648.0102277366</DistanceMeters>
          </Trackpoint>
          <Trackpoint>
            <Time>2019-08-04T16:19:08.000Z</Time>
            <Position>
              <LatitudeDegrees>-33.53982704691588878631591796875</LatitudeDegrees>
              <LongitudeDegrees>-70.2398786880075931549072265625</LongitudeDegrees>
            </Position>
            <AltitudeMeters>1968</AltitudeMeters>
            <DistanceMeters>4650.0921587376</DistanceMeters>
          </Trackpoint>
          <Trackpoint>
            <Time>2019-08-04T16:19:15.000Z</Time>
            <Position>
              <LatitudeDegrees>-33.53983827866613864898681640625</LatitudeDegrees>
              <LongitudeDegrees>-70.2399390377104282379150390625</LongitudeDegrees>
            </Position>
            <AltitudeMeters>1968</AltitudeMeters>
            <DistanceMeters>4655.828498909</DistanceMeters>
          </Trackpoint>
          <Trackpoint>
            <Time>2019-08-04T16:19:16.000Z</Time>
            <Position>
              <LatitudeDegrees>-33.5398390330374240875244140625</LatitudeDegrees>
              <LongitudeDegrees>-70.23994867689907550811767578125</LongitudeDegrees>
            </Position>
            <AltitudeMeters>1968</AltitudeMeters>
            <DistanceMeters>4656.7199285064</DistanceMeters>
          </Trackpoint>
          <Trackpoint>
            <Time>2019-08-04T16:19:18.000Z</Time>
            <Position>
              <LatitudeDegrees>-33.53983978740870952606201171875</LatitudeDegrees>
              <LongitudeDegrees>-70.23996762000024318695068359375</LongitudeDegrees>
            </Position>
            <AltitudeMeters>1968</AltitudeMeters>
            <DistanceMeters>4658.4772805325</DistanceMeters>
          </Trackpoint>
          <Trackpoint>
            <Time>2019-08-04T16:19:22.000Z</Time>
            <Position>
              <LatitudeDegrees>-33.539839200675487518310546875</LatitudeDegrees>
              <LongitudeDegrees>-70.24000315926969051361083984375</LongitudeDegrees>
            </Position>
            <AltitudeMeters>1968</AltitudeMeters>
            <DistanceMeters>4661.7745842854</DistanceMeters>
          </Trackpoint>
          <Trackpoint>
            <Time>2019-08-04T16:19:24.000Z</Time>
            <Position>
              <LatitudeDegrees>-33.53984020650386810302734375</LatitudeDegrees>
              <LongitudeDegrees>-70.240024030208587646484375</LongitudeDegrees>
            </Position>
            <AltitudeMeters>1968</AltitudeMeters>
            <DistanceMeters>4663.7150847046</DistanceMeters>
          </Trackpoint>
          <Trackpoint>
            <Time>2019-08-04T16:19:29.000Z</Time>
            <Position>
              <LatitudeDegrees>-33.539832495152950286865234375</LatitudeDegrees>
              <LongitudeDegrees>-70.240082032978534698486328125</LongitudeDegrees>
            </Position>
            <AltitudeMeters>1968</AltitudeMeters>
            <DistanceMeters>4669.1640195866</DistanceMeters>
          </Trackpoint>
          <Trackpoint>
            <Time>2019-08-04T16:19:31.000Z</Time>
            <Position>
              <LatitudeDegrees>-33.5398246161639690399169921875</LatitudeDegrees>
              <LongitudeDegrees>-70.24009904824197292327880859375</LongitudeDegrees>
            </Position>
            <AltitudeMeters>1968</AltitudeMeters>
            <DistanceMeters>4670.9670247224</DistanceMeters>
          </Trackpoint>
          <Trackpoint>
            <Time>2019-08-04T16:19:39.000Z</Time>
            <Position>
              <LatitudeDegrees>-33.539786897599697113037109375</LatitudeDegrees>
              <LongitudeDegrees>-70.24016015231609344482421875</LongitudeDegrees>
            </Position>
            <AltitudeMeters>1968.4000244140625</AltitudeMeters>
            <DistanceMeters>4678.0207982661</DistanceMeters>
          </Trackpoint>
          <Trackpoint>
            <Time>2019-08-04T16:19:40.000Z</Time>
            <Position>
              <LatitudeDegrees>-33.53978480212390422821044921875</LatitudeDegrees>
              <LongitudeDegrees>-70.24017062969505786895751953125</LongitudeDegrees>
            </Position>
            <AltitudeMeters>1968.5999755859375</AltitudeMeters>
            <DistanceMeters>4679.0174468546</DistanceMeters>
          </Trackpoint>
          <Trackpoint>
            <Time>2019-08-04T16:19:41.000Z</Time>
            <Position>
              <LatitudeDegrees>-33.539776504039764404296875</LatitudeDegrees>
              <LongitudeDegrees>-70.2401787601411342620849609375</LongitudeDegrees>
            </Position>
            <AltitudeMeters>1968.5999755859375</AltitudeMeters>
            <DistanceMeters>4680.2043301366</DistanceMeters>
          </Trackpoint>
          <Trackpoint>
            <Time>2019-08-04T16:19:43.000Z</Time>
            <Position>
              <LatitudeDegrees>-33.53976284153759479522705078125</LatitudeDegrees>
              <LongitudeDegrees>-70.24019057862460613250732421875</LongitudeDegrees>
            </Position>
            <AltitudeMeters>1968.800048828125</AltitudeMeters>
            <DistanceMeters>4682.0785499041</DistanceMeters>
          </Trackpoint>
          <Trackpoint>
            <Time>2019-08-04T16:19:44.000Z</Time>
            <Position>
              <LatitudeDegrees>-33.53975848294794559478759765625</LatitudeDegrees>
              <LongitudeDegrees>-70.2401975356042385101318359375</LongitudeDegrees>
            </Position>
            <AltitudeMeters>1968.800048828125</AltitudeMeters>
            <DistanceMeters>4682.8848783136</DistanceMeters>
          </Trackpoint>
          <Trackpoint>
            <Time>2019-08-04T16:19:52.000Z</Time>
            <Position>
              <LatitudeDegrees>-33.53971950709819793701171875</LatitudeDegrees>
              <LongitudeDegrees>-70.24025511927902698516845703125</LongitudeDegrees>
            </Position>
            <AltitudeMeters>1969.800048828125</AltitudeMeters>
            <DistanceMeters>4689.7662823035</DistanceMeters>
          </Trackpoint>
          <Trackpoint>
            <Time>2019-08-04T16:19:56.000Z</Time>
            <Position>
              <LatitudeDegrees>-33.5397008992731571197509765625</LatitudeDegrees>
              <LongitudeDegrees>-70.240273810923099517822265625</LongitudeDegrees>
            </Position>
            <AltitudeMeters>1970</AltitudeMeters>
            <DistanceMeters>4692.4674490452</DistanceMeters>
          </Trackpoint>
          <Trackpoint>
            <Time>2019-08-04T16:20:06.000Z</Time>
            <Position>
              <LatitudeDegrees>-33.5396308265626430511474609375</LatitudeDegrees>
              <LongitudeDegrees>-70.24032485671341419219970703125</LongitudeDegrees>
            </Position>
            <AltitudeMeters>1970.800048828125</AltitudeMeters>
            <DistanceMeters>4701.5914982963</DistanceMeters>
          </Trackpoint>
          <Trackpoint>
            <Time>2019-08-04T16:20:08.000Z</Time>
            <Position>
              <LatitudeDegrees>-33.539616577327251434326171875</LatitudeDegrees>
              <LongitudeDegrees>-70.2403309755027294158935546875</LongitudeDegrees>
            </Position>
            <AltitudeMeters>1971</AltitudeMeters>
            <DistanceMeters>4703.272692493</DistanceMeters>
          </Trackpoint>
          <Trackpoint>
            <Time>2019-08-04T16:20:11.000Z</Time>
            <Position>
              <LatitudeDegrees>-33.53958933614194393157958984375</LatitudeDegrees>
              <LongitudeDegrees>-70.24034178815782070159912109375</LongitudeDegrees>
            </Position>
            <AltitudeMeters>1971.4000244140625</AltitudeMeters>
            <DistanceMeters>4706.4670604089</DistanceMeters>
          </Trackpoint>
          <Trackpoint>
            <Time>2019-08-04T16:20:12.000Z</Time>
            <Position>
              <LatitudeDegrees>-33.5395815409719944000244140625</LatitudeDegrees>
              <LongitudeDegrees>-70.24034748785197734832763671875</LongitudeDegrees>
            </Position>
            <AltitudeMeters>1971.4000244140625</AltitudeMeters>
            <DistanceMeters>4707.4861083916</DistanceMeters>
          </Trackpoint>
          <Trackpoint>
            <Time>2019-08-04T16:20:19.000Z</Time>
            <Position>
              <LatitudeDegrees>-33.5395396314561367034912109375</LatitudeDegrees>
              <LongitudeDegrees>-70.2403973601758480072021484375</LongitudeDegrees>
            </Position>
            <AltitudeMeters>1971.800048828125</AltitudeMeters>
            <DistanceMeters>4714.0560220441</DistanceMeters>
          </Trackpoint>
          <Trackpoint>
            <Time>2019-08-04T16:20:21.000Z</Time>
            <Position>
              <LatitudeDegrees>-33.53952948935329914093017578125</LatitudeDegrees>
              <LongitudeDegrees>-70.24040834046900272369384765625</LongitudeDegrees>
            </Position>
            <AltitudeMeters>1972</AltitudeMeters>
            <DistanceMeters>4715.576449474</DistanceMeters>
          </Trackpoint>
          <Trackpoint>
            <Time>2019-08-04T16:20:30.000Z</Time>
            <Position>
              <LatitudeDegrees>-33.5395176708698272705078125</LatitudeDegrees>
              <LongitudeDegrees>-70.2404496632516384124755859375</LongitudeDegrees>
            </Position>
            <AltitudeMeters>1972.800048828125</AltitudeMeters>
            <DistanceMeters>4719.6293137762</DistanceMeters>
          </Trackpoint>
          <Trackpoint>
            <Time>2019-08-04T16:20:32.000Z</Time>
            <Position>
              <LatitudeDegrees>-33.5395258851349353790283203125</LatitudeDegrees>
              <LongitudeDegrees>-70.2404570393264293670654296875</LongitudeDegrees>
            </Position>
            <AltitudeMeters>1973</AltitudeMeters>
            <DistanceMeters>4720.7696343486</DistanceMeters>
          </Trackpoint>
          <Trackpoint>
            <Time>2019-08-04T16:20:44.000Z</Time>
            <Position>
              <LatitudeDegrees>-33.53952479548752307891845703125</LatitudeDegrees>
              <LongitudeDegrees>-70.24049048312008380889892578125</LongitudeDegrees>
            </Position>
            <AltitudeMeters>1973.800048828125</AltitudeMeters>
            <DistanceMeters>4723.8751329627</DistanceMeters>
          </Trackpoint>
          <Trackpoint>
            <Time>2019-08-04T16:20:46.000Z</Time>
            <Position>
              <LatitudeDegrees>-33.53952798061072826385498046875</LatitudeDegrees>
              <LongitudeDegrees>-70.24049249477684497833251953125</LongitudeDegrees>
            </Position>
            <AltitudeMeters>1973.800048828125</AltitudeMeters>
            <DistanceMeters>4724.2893448076</DistanceMeters>
          </Trackpoint>
          <Trackpoint>
            <Time>2019-08-04T16:20:56.000Z</Time>
            <Position>
              <LatitudeDegrees>-33.53952747769653797149658203125</LatitudeDegrees>
              <LongitudeDegrees>-70.2404821850359439849853515625</LongitudeDegrees>
            </Position>
            <AltitudeMeters>1974</AltitudeMeters>
            <DistanceMeters>4725.2490675786</DistanceMeters>
          </Trackpoint>
          <Trackpoint>
            <Time>2019-08-04T16:21:07.000Z</Time>
            <Position>
              <LatitudeDegrees>-33.5395262204110622406005859375</LatitudeDegrees>
              <LongitudeDegrees>-70.24049635045230388641357421875</LongitudeDegrees>
            </Position>
            <AltitudeMeters>1973.800048828125</AltitudeMeters>
            <DistanceMeters>4726.5692208855</DistanceMeters>
          </Trackpoint>
          <Trackpoint>
            <Time>2019-08-04T16:21:09.000Z</Time>
            <Position>
              <LatitudeDegrees>-33.539524711668491363525390625</LatitudeDegrees>
              <LongitudeDegrees>-70.24049819447100162506103515625</LongitudeDegrees>
            </Position>
            <AltitudeMeters>1973.800048828125</AltitudeMeters>
            <DistanceMeters>4726.8019878477</DistanceMeters>
          </Trackpoint>
          <Trackpoint>
            <Time>2019-08-04T16:21:17.000Z</Time>
            <Position>
              <LatitudeDegrees>-33.539524041116237640380859375</LatitudeDegrees>
              <LongitudeDegrees>-70.2405023016035556793212890625</LongitudeDegrees>
            </Position>
            <AltitudeMeters>1974.199951171875</AltitudeMeters>
            <DistanceMeters>4727.1937930283</DistanceMeters>
          </Trackpoint>
          <Trackpoint>
            <Time>2019-08-04T16:21:30.000Z</Time>
            <Position>
              <LatitudeDegrees>-33.53953720070421695709228515625</LatitudeDegrees>
              <LongitudeDegrees>-70.24049098603427410125732421875</LongitudeDegrees>
            </Position>
            <AltitudeMeters>1974.199951171875</AltitudeMeters>
            <DistanceMeters>4728.9942922489</DistanceMeters>
          </Trackpoint>
          <Trackpoint>
            <Time>2019-08-04T16:21:43.000Z</Time>
            <Position>
              <LatitudeDegrees>-33.53953418321907520294189453125</LatitudeDegrees>
              <LongitudeDegrees>-70.24048645980656147003173828125</LongitudeDegrees>
            </Position>
            <AltitudeMeters>1973.5999755859375</AltitudeMeters>
            <DistanceMeters>4729.5147749991</DistanceMeters>
          </Trackpoint>
          <Trackpoint>
            <Time>2019-08-04T16:21:48.000Z</Time>
            <Position>
              <LatitudeDegrees>-33.53952764533460140228271484375</LatitudeDegrees>
              <LongitudeDegrees>-70.2404858730733394622802734375</LongitudeDegrees>
            </Position>
            <AltitudeMeters>1973.800048828125</AltitudeMeters>
            <DistanceMeters>4730.2384768948</DistanceMeters>
          </Trackpoint>
          <Trackpoint>
            <Time>2019-08-04T16:21:50.000Z</Time>
            <Position>
              <LatitudeDegrees>-33.5395262204110622406005859375</LatitudeDegrees>
              <LongitudeDegrees>-70.2404821850359439849853515625</LongitudeDegrees>
            </Position>
            <AltitudeMeters>1973.800048828125</AltitudeMeters>
            <DistanceMeters>4730.6185837523</DistanceMeters>
          </Trackpoint>
          <Trackpoint>
            <Time>2019-08-04T16:21:53.000Z</Time>
            <Position>
              <LatitudeDegrees>-33.53952647186815738677978515625</LatitudeDegrees>
              <LongitudeDegrees>-70.24048126302659511566162109375</LongitudeDegrees>
            </Position>
            <AltitudeMeters>1973.800048828125</AltitudeMeters>
            <DistanceMeters>4730.7529718205</DistanceMeters>
          </Trackpoint>
          <Trackpoint>
            <Time>2019-08-04T16:21:57.000Z</Time>
            <Position>
              <LatitudeDegrees>-33.5395289026200771331787109375</LatitudeDegrees>
              <LongitudeDegrees>-70.24048260413110256195068359375</LongitudeDegrees>
            </Position>
            <AltitudeMeters>1973.800048828125</AltitudeMeters>
            <DistanceMeters>4731.0534726765</DistanceMeters>
          </Trackpoint>
          <Trackpoint>
            <Time>2019-08-04T16:22:00.000Z</Time>
            <Position>
              <LatitudeDegrees>-33.539530746638774871826171875</LatitudeDegrees>
              <LongitudeDegrees>-70.24048126302659511566162109375</LongitudeDegrees>
            </Position>
            <AltitudeMeters>1974</AltitudeMeters>
            <DistanceMeters>4731.2862396386</DistanceMeters>
          </Trackpoint>
          <Trackpoint>
            <Time>2019-08-04T16:22:06.000Z</Time>
            <Position>
              <LatitudeDegrees>-33.53952638804912567138671875</LatitudeDegrees>
              <LongitudeDegrees>-70.2404882200062274932861328125</LongitudeDegrees>
            </Position>
            <AltitudeMeters>1974.199951171875</AltitudeMeters>
            <DistanceMeters>4732.0981482421</DistanceMeters>
          </Trackpoint>
          <Trackpoint>
            <Time>2019-08-04T16:22:09.000Z</Time>
            <Position>
              <LatitudeDegrees>-33.5395268909633159637451171875</LatitudeDegrees>
              <LongitudeDegrees>-70.24049484170973300933837890625</LongitudeDegrees>
            </Position>
            <AltitudeMeters>1974.4000244140625</AltitudeMeters>
            <DistanceMeters>4732.7284841553</DistanceMeters>
          </Trackpoint>
          <Trackpoint>
            <Time>2019-08-04T16:22:10.000Z</Time>
            <Position>
              <LatitudeDegrees>-33.53952580131590366363525390625</LatitudeDegrees>
              <LongitudeDegrees>-70.24049450643360614776611328125</LongitudeDegrees>
            </Position>
            <AltitudeMeters>1974.4000244140625</AltitudeMeters>
            <DistanceMeters>4732.8930752527</DistanceMeters>
          </Trackpoint>
          <Trackpoint>
            <Time>2019-08-04T16:22:12.000Z</Time>
            <Position>
              <LatitudeDegrees>-33.53952395729720592498779296875</LatitudeDegrees>
              <LongitudeDegrees>-70.24049551226198673248291015625</LongitudeDegrees>
            </Position>
            <AltitudeMeters>1974.4000244140625</AltitudeMeters>
            <DistanceMeters>4733.1258422149</DistanceMeters>
          </Trackpoint>
          <Trackpoint>
            <Time>2019-08-04T16:22:14.000Z</Time>
            <Position>
              <LatitudeDegrees>-33.53952236473560333251953125</LatitudeDegrees>
              <LongitudeDegrees>-70.2404935844242572784423828125</LongitudeDegrees>
            </Position>
            <AltitudeMeters>1974.4000244140625</AltitudeMeters>
            <DistanceMeters>4733.377259269</DistanceMeters>
          </Trackpoint>
          <Trackpoint>
            <Time>2019-08-04T16:22:18.000Z</Time>
            <Position>
              <LatitudeDegrees>-33.5395176708698272705078125</LatitudeDegrees>
              <LongitudeDegrees>-70.2404945902526378631591796875</LongitudeDegrees>
            </Position>
            <AltitudeMeters>1974.4000244140625</AltitudeMeters>
            <DistanceMeters>4733.9063456228</DistanceMeters>
          </Trackpoint>
          <Trackpoint>
            <Time>2019-08-04T16:22:20.000Z</Time>
            <Position>
              <LatitudeDegrees>-33.53951591067016124725341796875</LatitudeDegrees>
              <LongitudeDegrees>-70.240480005741119384765625</LongitudeDegrees>
            </Position>
            <AltitudeMeters>1974.199951171875</AltitudeMeters>
            <DistanceMeters>4735.2702355551</DistanceMeters>
          </Trackpoint>
          <Trackpoint>
            <Time>2019-08-04T16:22:23.000Z</Time>
            <Position>
              <LatitudeDegrees>-33.53951272554695606231689453125</LatitudeDegrees>
              <LongitudeDegrees>-70.24048176594078540802001953125</LongitudeDegrees>
            </Position>
            <AltitudeMeters>1974</AltitudeMeters>
            <DistanceMeters>4735.6503424126</DistanceMeters>
          </Trackpoint>
          <Trackpoint>
            <Time>2019-08-04T16:22:26.000Z</Time>
            <Position>
              <LatitudeDegrees>-33.53951272554695606231689453125</LatitudeDegrees>
              <LongitudeDegrees>-70.240483023226261138916015625</LongitudeDegrees>
            </Position>
            <AltitudeMeters>1974</AltitudeMeters>
            <DistanceMeters>4735.6503424126</DistanceMeters>
          </Trackpoint>
          <Trackpoint>
            <Time>2019-08-04T16:22:32.000Z</Time>
            <Position>
              <LatitudeDegrees>-33.5395175032317638397216796875</LatitudeDegrees>
              <LongitudeDegrees>-70.2404825203120708465576171875</LongitudeDegrees>
            </Position>
            <AltitudeMeters>1974</AltitudeMeters>
            <DistanceMeters>4736.1794287663</DistanceMeters>
          </Trackpoint>
          <Trackpoint>
            <Time>2019-08-04T16:22:37.000Z</Time>
            <Position>
              <LatitudeDegrees>-33.53952345438301563262939453125</LatitudeDegrees>
              <LongitudeDegrees>-70.24047003127634525299072265625</LongitudeDegrees>
            </Position>
            <AltitudeMeters>1974.199951171875</AltitudeMeters>
            <DistanceMeters>4737.5165731624</DistanceMeters>
          </Trackpoint>
          <Trackpoint>
            <Time>2019-08-04T16:22:40.000Z</Time>
            <Position>
              <LatitudeDegrees>-33.53953116573393344879150390625</LatitudeDegrees>
              <LongitudeDegrees>-70.24046667851507663726806640625</LongitudeDegrees>
            </Position>
            <AltitudeMeters>1974.199951171875</AltitudeMeters>
            <DistanceMeters>4738.4230702426</DistanceMeters>
          </Trackpoint>
          <Trackpoint>
            <Time>2019-08-04T16:22:46.000Z</Time>
            <Position>
              <LatitudeDegrees>-33.5395315848290920257568359375</LatitudeDegrees>
              <LongitudeDegrees>-70.2404714561998844146728515625</LongitudeDegrees>
            </Position>
            <AltitudeMeters>1974.5999755859375</AltitudeMeters>
            <DistanceMeters>4738.8687850413</DistanceMeters>
          </Trackpoint>
          <Trackpoint>
            <Time>2019-08-04T16:22:47.000Z</Time>
            <Position>
              <LatitudeDegrees>-33.53952865116298198699951171875</LatitudeDegrees>
              <LongitudeDegrees>-70.24047774262726306915283203125</LongitudeDegrees>
            </Position>
            <AltitudeMeters>1974.5999755859375</AltitudeMeters>
            <DistanceMeters>4739.5407253825</DistanceMeters>
          </Trackpoint>
          <Trackpoint>
            <Time>2019-08-04T16:22:48.000Z</Time>
            <Position>
              <LatitudeDegrees>-33.53952546603977680206298828125</LatitudeDegrees>
              <LongitudeDegrees>-70.240481011569499969482421875</LongitudeDegrees>
            </Position>
            <AltitudeMeters>1974.5999755859375</AltitudeMeters>
            <DistanceMeters>4740.0062593068</DistanceMeters>
          </Trackpoint>
          <Trackpoint>
            <Time>2019-08-04T16:22:49.000Z</Time>
            <Position>
              <LatitudeDegrees>-33.5395232029259204864501953125</LatitudeDegrees>
              <LongitudeDegrees>-70.2404821850359439849853515625</LongitudeDegrees>
            </Position>
            <AltitudeMeters>1974.5999755859375</AltitudeMeters>
            <DistanceMeters>4740.2750354433</DistanceMeters>
          </Trackpoint>
          <Trackpoint>
            <Time>2019-08-04T16:22:51.000Z</Time>
            <Position>
              <LatitudeDegrees>-33.5395228676497936248779296875</LatitudeDegrees>
              <LongitudeDegrees>-70.240485705435276031494140625</LongitudeDegrees>
            </Position>
            <AltitudeMeters>1974.5999755859375</AltitudeMeters>
            <DistanceMeters>4740.604217638</DistanceMeters>
          </Trackpoint>
          <Trackpoint>
            <Time>2019-08-04T16:22:54.000Z</Time>
            <Position>
              <LatitudeDegrees>-33.53952546603977680206298828125</LatitudeDegrees>
              <LongitudeDegrees>-70.24048696272075176239013671875</LongitudeDegrees>
            </Position>
            <AltitudeMeters>1974.5999755859375</AltitudeMeters>
            <DistanceMeters>4740.904718494</DistanceMeters>
          </Trackpoint>
          <Trackpoint>
            <Time>2019-08-04T16:22:57.000Z</Time>
            <Position>
              <LatitudeDegrees>-33.5395292378962039947509765625</LatitudeDegrees>
              <LongitudeDegrees>-70.240487046539783477783203125</LongitudeDegrees>
            </Position>
            <AltitudeMeters>1974.5999755859375</AltitudeMeters>
            <DistanceMeters>4741.32969088</DistanceMeters>
          </Trackpoint>
          <Trackpoint>
            <Time>2019-08-04T16:23:00.000Z</Time>
            <Position>
              <LatitudeDegrees>-33.5395309142768383026123046875</LatitudeDegrees>
              <LongitudeDegrees>-70.2404831908643245697021484375</LongitudeDegrees>
            </Position>
            <AltitudeMeters>1974.5999755859375</AltitudeMeters>
            <DistanceMeters>4741.7328550848</DistanceMeters>
          </Trackpoint>
          <Trackpoint>
            <Time>2019-08-04T16:23:02.000Z</Time>
            <Position>
              <LatitudeDegrees>-33.53953175246715545654296875</LatitudeDegrees>
              <LongitudeDegrees>-70.2404835261404514312744140625</LongitudeDegrees>
            </Position>
            <AltitudeMeters>1974.5999755859375</AltitudeMeters>
            <DistanceMeters>4741.8278817991</DistanceMeters>
          </Trackpoint>
          <Trackpoint>
            <Time>2019-08-04T16:23:09.000Z</Time>
            <Position>
              <LatitudeDegrees>-33.5395319201052188873291015625</LatitudeDegrees>
              <LongitudeDegrees>-70.24047799408435821533203125</LongitudeDegrees>
            </Position>
            <AltitudeMeters>1974.5999755859375</AltitudeMeters>
            <DistanceMeters>4742.3396163171</DistanceMeters>
          </Trackpoint>
          <Trackpoint>
            <Time>2019-08-04T16:23:14.000Z</Time>
            <Position>
              <LatitudeDegrees>-33.539535440504550933837890625</LatitudeDegrees>
              <LongitudeDegrees>-70.240476988255977630615234375</LongitudeDegrees>
            </Position>
            <AltitudeMeters>1974.5999755859375</AltitudeMeters>
            <DistanceMeters>4742.7427805219</DistanceMeters>
          </Trackpoint>
          <Trackpoint>
            <Time>2019-08-04T16:23:17.000Z</Time>
            <Position>
              <LatitudeDegrees>-33.53953250683844089508056640625</LatitudeDegrees>
              <LongitudeDegrees>-70.2404674328863620758056640625</LongitudeDegrees>
            </Position>
            <AltitudeMeters>1974.800048828125</AltitudeMeters>
            <DistanceMeters>4743.6930476656</DistanceMeters>
          </Trackpoint>
          <Trackpoint>
            <Time>2019-08-04T16:23:19.000Z</Time>
            <Position>
              <LatitudeDegrees>-33.53953284211456775665283203125</LatitudeDegrees>
              <LongitudeDegrees>-70.2404679358005523681640625</LongitudeDegrees>
            </Position>
            <AltitudeMeters>1974.800048828125</AltitudeMeters>
            <DistanceMeters>4743.6930476656</DistanceMeters>
          </Trackpoint>
          <Trackpoint>
            <Time>2019-08-04T16:23:25.000Z</Time>
            <Position>
              <LatitudeDegrees>-33.53953485377132892608642578125</LatitudeDegrees>
              <LongitudeDegrees>-70.24046550504863262176513671875</LongitudeDegrees>
            </Position>
            <AltitudeMeters>1975</AltitudeMeters>
            <DistanceMeters>4744.0222298603</DistanceMeters>
          </Trackpoint>
          <Trackpoint>
            <Time>2019-08-04T16:23:26.000Z</Time>
            <Position>
              <LatitudeDegrees>-33.539534099400043487548828125</LatitudeDegrees>
              <LongitudeDegrees>-70.2404660917818546295166015625</LongitudeDegrees>
            </Position>
            <AltitudeMeters>1975</AltitudeMeters>
            <DistanceMeters>4744.0222298603</DistanceMeters>
          </Trackpoint>
          <Trackpoint>
            <Time>2019-08-04T16:23:30.000Z</Time>
            <Position>
              <LatitudeDegrees>-33.53953284211456775665283203125</LatitudeDegrees>
              <LongitudeDegrees>-70.240463912487030029296875</LongitudeDegrees>
            </Position>
            <AltitudeMeters>1975</AltitudeMeters>
            <DistanceMeters>4744.2910059968</DistanceMeters>
          </Trackpoint>
          <Trackpoint>
            <Time>2019-08-04T16:23:39.000Z</Time>
            <Position>
              <LatitudeDegrees>-33.5395325906574726104736328125</LatitudeDegrees>
              <LongitudeDegrees>-70.24045796133577823638916015625</LongitudeDegrees>
            </Position>
            <AltitudeMeters>1975.199951171875</AltitudeMeters>
            <DistanceMeters>4744.845102197</DistanceMeters>
          </Trackpoint>
          <Trackpoint>
            <Time>2019-08-04T16:23:42.000Z</Time>
            <Position>
              <LatitudeDegrees>-33.539530746638774871826171875</LatitudeDegrees>
              <LongitudeDegrees>-70.240458212792873382568359375</LongitudeDegrees>
            </Position>
            <AltitudeMeters>1975.199951171875</AltitudeMeters>
            <DistanceMeters>4745.05758839</DistanceMeters>
          </Trackpoint>
          <Trackpoint>
            <Time>2019-08-04T16:23:46.000Z</Time>
            <Position>
              <LatitudeDegrees>-33.5395176708698272705078125</LatitudeDegrees>
              <LongitudeDegrees>-70.24044354446232318878173828125</LongitudeDegrees>
            </Position>
            <AltitudeMeters>1975</AltitudeMeters>
            <DistanceMeters>4747.0508855669</DistanceMeters>
          </Trackpoint>
          <Trackpoint>
            <Time>2019-08-04T16:23:51.000Z</Time>
            <Position>
              <LatitudeDegrees>-33.539495877921581268310546875</LatitudeDegrees>
              <LongitudeDegrees>-70.24042292498052120208740234375</LongitudeDegrees>
            </Position>
            <AltitudeMeters>1974.800048828125</AltitudeMeters>
            <DistanceMeters>4750.1388882749</DistanceMeters>
          </Trackpoint>
          <Trackpoint>
            <Time>2019-08-04T16:24:00.000Z</Time>
            <Position>
              <LatitudeDegrees>-33.5394786112010478973388671875</LatitudeDegrees>
              <LongitudeDegrees>-70.2404473163187503814697265625</LongitudeDegrees>
            </Position>
            <AltitudeMeters>1974.4000244140625</AltitudeMeters>
            <DistanceMeters>4753.1076177354</DistanceMeters>
          </Trackpoint>
          <Trackpoint>
            <Time>2019-08-04T16:24:10.000Z</Time>
            <Position>
              <LatitudeDegrees>-33.5394908487796783447265625</LatitudeDegrees>
              <LongitudeDegrees>-70.24045645259320735931396484375</LongitudeDegrees>
            </Position>
            <AltitudeMeters>1974.5999755859375</AltitudeMeters>
            <DistanceMeters>4754.7118533124</DistanceMeters>
          </Trackpoint>
          <Trackpoint>
            <Time>2019-08-04T18:05:12.000Z</Time>
            <Position>
              <LatitudeDegrees>-33.53854847140610218048095703125</LatitudeDegrees>
              <LongitudeDegrees>-70.2367334626615047454833984375</LongitudeDegrees>
            </Position>
            <AltitudeMeters>1966.199951171875</AltitudeMeters>
            <DistanceMeters>5115.6737517339</DistanceMeters>
          </Trackpoint>
          <Trackpoint>
            <Time>2019-08-04T18:05:13.000Z</Time>
            <Position>
              <LatitudeDegrees>-33.53853003121912479400634765625</LatitudeDegrees>
              <LongitudeDegrees>-70.236728601157665252685546875</LongitudeDegrees>
            </Position>
            <AltitudeMeters>1964.4000244140625</AltitudeMeters>
            <DistanceMeters>5117.7751101948</DistanceMeters>
          </Trackpoint>
          <Trackpoint>
            <Time>2019-08-04T18:05:14.000Z</Time>
            <Position>
              <LatitudeDegrees>-33.53849516250193119049072265625</LatitudeDegrees>
              <LongitudeDegrees>-70.23673497140407562255859375</LongitudeDegrees>
            </Position>
            <AltitudeMeters>1959.4000244140625</AltitudeMeters>
            <DistanceMeters>5121.7023701258</DistanceMeters>
          </Trackpoint>
          <Trackpoint>
            <Time>2019-08-04T18:05:15.000Z</Time>
            <Position>
              <LatitudeDegrees>-33.53847806341946125030517578125</LatitudeDegrees>
              <LongitudeDegrees>-70.23673069663345813751220703125</LongitudeDegrees>
            </Position>
            <AltitudeMeters>1954</AltitudeMeters>
            <DistanceMeters>5123.645195891</DistanceMeters>
          </Trackpoint>
          <Trackpoint>
            <Time>2019-08-04T18:05:16.000Z</Time>
            <Position>
              <LatitudeDegrees>-33.53846582584083080291748046875</LatitudeDegrees>
              <LongitudeDegrees>-70.2367220632731914520263671875</LongitudeDegrees>
            </Position>
            <AltitudeMeters>1951.4000244140625</AltitudeMeters>
            <DistanceMeters>5125.2238982374</DistanceMeters>
          </Trackpoint>
          <Trackpoint>
            <Time>2019-08-04T18:05:17.000Z</Time>
            <Position>
              <LatitudeDegrees>-33.53846029378473758697509765625</LatitudeDegrees>
              <LongitudeDegrees>-70.23670974187552928924560546875</LongitudeDegrees>
            </Position>
            <AltitudeMeters>1950</AltitudeMeters>
            <DistanceMeters>5126.519889834</DistanceMeters>
          </Trackpoint>
          <Trackpoint>
            <Time>2019-08-04T18:05:18.000Z</Time>
            <Position>
              <LatitudeDegrees>-33.53845442645251750946044921875</LatitudeDegrees>
              <LongitudeDegrees>-70.23669934831559658050537109375</LongitudeDegrees>
            </Position>
            <AltitudeMeters>1948.5999755859375</AltitudeMeters>
            <DistanceMeters>5127.6837246447</DistanceMeters>
          </Trackpoint>
          <Trackpoint>
            <Time>2019-08-04T18:05:19.000Z</Time>
            <Position>
              <LatitudeDegrees>-33.5384466312825679779052734375</LatitudeDegrees>
              <LongitudeDegrees>-70.23668861947953701019287109375</LongitudeDegrees>
            </Position>
            <AltitudeMeters>1947.5999755859375</AltitudeMeters>
            <DistanceMeters>5129.0038779516</DistanceMeters>
          </Trackpoint>
          <Trackpoint>
            <Time>2019-08-04T18:05:20.000Z</Time>
            <Position>
              <LatitudeDegrees>-33.53844017721712589263916015625</LatitudeDegrees>
              <LongitudeDegrees>-70.236678309738636016845703125</LongitudeDegrees>
            </Position>
            <AltitudeMeters>1947</AltitudeMeters>
            <DistanceMeters>5130.1983452296</DistanceMeters>
          </Trackpoint>
          <Trackpoint>
            <Time>2019-08-04T18:05:25.000Z</Time>
            <Position>
              <LatitudeDegrees>-33.53841419331729412078857421875</LatitudeDegrees>
              <LongitudeDegrees>-70.23665190674364566802978515625</LongitudeDegrees>
            </Position>
            <AltitudeMeters>1945.800048828125</AltitudeMeters>
            <DistanceMeters>5133.9875168469</DistanceMeters>
          </Trackpoint>
          <Trackpoint>
            <Time>2019-08-04T18:05:28.000Z</Time>
            <Position>
              <LatitudeDegrees>-33.53838644921779632568359375</LatitudeDegrees>
              <LongitudeDegrees>-70.23662491701543331146240234375</LongitudeDegrees>
            </Position>
            <AltitudeMeters>1945.4000244140625</AltitudeMeters>
            <DistanceMeters>5137.9627695152</DistanceMeters>
          </Trackpoint>
          <Trackpoint>
            <Time>2019-08-04T18:05:35.000Z</Time>
            <Position>
              <LatitudeDegrees>-33.53831813670694828033447265625</LatitudeDegrees>
              <LongitudeDegrees>-70.23655082099139690399169921875</LongitudeDegrees>
            </Position>
            <AltitudeMeters>1944.5999755859375</AltitudeMeters>
            <DistanceMeters>5148.2128885109</DistanceMeters>
          </Trackpoint>
          <Trackpoint>
            <Time>2019-08-04T18:05:36.000Z</Time>
            <Position>
              <LatitudeDegrees>-33.53831293992698192596435546875</LatitudeDegrees>
              <LongitudeDegrees>-70.2365363202989101409912109375</LongitudeDegrees>
            </Position>
            <AltitudeMeters>1944.5999755859375</AltitudeMeters>
            <DistanceMeters>5149.6758061836</DistanceMeters>
          </Trackpoint>
          <Trackpoint>
            <Time>2019-08-04T18:05:41.000Z</Time>
            <Position>
              <LatitudeDegrees>-33.53831159882247447967529296875</LatitudeDegrees>
              <LongitudeDegrees>-70.2364702709019184112548828125</LongitudeDegrees>
            </Position>
            <AltitudeMeters>1944</AltitudeMeters>
            <DistanceMeters>5155.8048450974</DistanceMeters>
          </Trackpoint>
          <Trackpoint>
            <Time>2019-08-04T18:05:46.000Z</Time>
            <Position>
              <LatitudeDegrees>-33.53831076063215732574462890625</LatitudeDegrees>
              <LongitudeDegrees>-70.23643062449991703033447265625</LongitudeDegrees>
            </Position>
            <AltitudeMeters>1943.5999755859375</AltitudeMeters>
            <DistanceMeters>5159.4839869253</DistanceMeters>
          </Trackpoint>
          <Trackpoint>
            <Time>2019-08-04T18:05:52.000Z</Time>
            <Position>
              <LatitudeDegrees>-33.53828678838908672332763671875</LatitudeDegrees>
              <LongitudeDegrees>-70.23634336888790130615234375</LongitudeDegrees>
            </Position>
            <AltitudeMeters>1943</AltitudeMeters>
            <DistanceMeters>5168.0078355319</DistanceMeters>
          </Trackpoint>
          <Trackpoint>
            <Time>2019-08-04T18:05:53.000Z</Time>
            <Position>
              <LatitudeDegrees>-33.5382816754281520843505859375</LatitudeDegrees>
              <LongitudeDegrees>-70.23632467724382877349853515625</LongitudeDegrees>
            </Position>
            <AltitudeMeters>1942.800048828125</AltitudeMeters>
            <DistanceMeters>5169.8332391059</DistanceMeters>
          </Trackpoint>
          <Trackpoint>
            <Time>2019-08-04T18:05:58.000Z</Time>
            <Position>
              <LatitudeDegrees>-33.53823917917907238006591796875</LatitudeDegrees>
              <LongitudeDegrees>-70.23624010384082794189453125</LongitudeDegrees>
            </Position>
            <AltitudeMeters>1942.5999755859375</AltitudeMeters>
            <DistanceMeters>5178.9953125951</DistanceMeters>
          </Trackpoint>
          <Trackpoint>
            <Time>2019-08-04T18:06:00.000Z</Time>
            <Position>
              <LatitudeDegrees>-33.53822392411530017852783203125</LatitudeDegrees>
              <LongitudeDegrees>-70.23620733059942722320556640625</LongitudeDegrees>
            </Position>
            <AltitudeMeters>1942.199951171875</AltitudeMeters>
            <DistanceMeters>5182.4764564571</DistanceMeters>
          </Trackpoint>
          <Trackpoint>
            <Time>2019-08-04T18:06:02.000Z</Time>
            <Position>
              <LatitudeDegrees>-33.5382052324712276458740234375</LatitudeDegrees>
              <LongitudeDegrees>-70.2361826039850711822509765625</LongitudeDegrees>
            </Position>
            <AltitudeMeters>1940.800048828125</AltitudeMeters>
            <DistanceMeters>5185.5732194741</DistanceMeters>
          </Trackpoint>
          <Trackpoint>
            <Time>2019-08-04T18:06:05.000Z</Time>
            <Position>
              <LatitudeDegrees>-33.53817933239042758941650390625</LatitudeDegrees>
              <LongitudeDegrees>-70.23615519516170024871826171875</LongitudeDegrees>
            </Position>
            <AltitudeMeters>1939.4000244140625</AltitudeMeters>
            <DistanceMeters>5189.4168122026</DistanceMeters>
          </Trackpoint>
          <Trackpoint>
            <Time>2019-08-04T18:06:07.000Z</Time>
            <Position>
              <LatitudeDegrees>-33.5381589643657207489013671875</LatitudeDegrees>
              <LongitudeDegrees>-70.236145891249179840087890625</LongitudeDegrees>
            </Position>
            <AltitudeMeters>1938.800048828125</AltitudeMeters>
            <DistanceMeters>5191.8432519487</DistanceMeters>
          </Trackpoint>
          <Trackpoint>
            <Time>2019-08-04T18:06:08.000Z</Time>
            <Position>
              <LatitudeDegrees>-33.53814865462481975555419921875</LatitudeDegrees>
              <LongitudeDegrees>-70.23614061065018177032470703125</LongitudeDegrees>
            </Position>
            <AltitudeMeters>1938.4000244140625</AltitudeMeters>
            <DistanceMeters>5193.089515624</DistanceMeters>
          </Trackpoint>
          <Trackpoint>
            <Time>2019-08-04T18:06:11.000Z</Time>
            <Position>
              <LatitudeDegrees>-33.53812401182949542999267578125</LatitudeDegrees>
              <LongitudeDegrees>-70.23612250573933124542236328125</LongitudeDegrees>
            </Position>
            <AltitudeMeters>1937.800048828125</AltitudeMeters>
            <DistanceMeters>5196.3064190426</DistanceMeters>
          </Trackpoint>
          <Trackpoint>
            <Time>2019-08-04T18:06:13.000Z</Time>
            <Position>
              <LatitudeDegrees>-33.538107164204120635986328125</LatitudeDegrees>
              <LongitudeDegrees>-70.2361145429313182830810546875</LongitudeDegrees>
            </Position>
            <AltitudeMeters>1937</AltitudeMeters>
            <DistanceMeters>5198.3222400663</DistanceMeters>
          </Trackpoint>
          <Trackpoint>
            <Time>2019-08-04T18:06:15.000Z</Time>
            <Position>
              <LatitudeDegrees>-33.538087047636508941650390625</LatitudeDegrees>
              <LongitudeDegrees>-70.23610540665686130523681640625</LongitudeDegrees>
            </Position>
            <AltitudeMeters>1936.4000244140625</AltitudeMeters>
            <DistanceMeters>5200.7187226176</DistanceMeters>
          </Trackpoint>
          <Trackpoint>
            <Time>2019-08-04T18:06:17.000Z</Time>
            <Position>
              <LatitudeDegrees>-33.53807087056338787078857421875</LatitudeDegrees>
              <LongitudeDegrees>-70.23609115742146968841552734375</LongitudeDegrees>
            </Position>
            <AltitudeMeters>1935.800048828125</AltitudeMeters>
            <DistanceMeters>5202.9533662745</DistanceMeters>
          </Trackpoint>
          <Trackpoint>
            <Time>2019-08-04T18:06:20.000Z</Time>
            <Position>
              <LatitudeDegrees>-33.53805276565253734588623046875</LatitudeDegrees>
              <LongitudeDegrees>-70.236065089702606201171875</LongitudeDegrees>
            </Position>
            <AltitudeMeters>1935.4000244140625</AltitudeMeters>
            <DistanceMeters>5206.102179374</DistanceMeters>
          </Trackpoint>
          <Trackpoint>
            <Time>2019-08-04T18:06:23.000Z</Time>
            <Position>
              <LatitudeDegrees>-33.53804069571197032928466796875</LatitudeDegrees>
              <LongitudeDegrees>-70.236043632030487060546875</LongitudeDegrees>
            </Position>
            <AltitudeMeters>1935</AltitudeMeters>
            <DistanceMeters>5208.5043073572</DistanceMeters>
          </Trackpoint>
          <Trackpoint>
            <Time>2019-08-04T18:06:26.000Z</Time>
            <Position>
              <LatitudeDegrees>-33.5380315594375133514404296875</LatitudeDegrees>
              <LongitudeDegrees>-70.23602225817739963531494140625</LongitudeDegrees>
            </Position>
            <AltitudeMeters>1934.4000244140625</AltitudeMeters>
            <DistanceMeters>5210.7328813506</DistanceMeters>
          </Trackpoint>
          <Trackpoint>
            <Time>2019-08-04T18:06:30.000Z</Time>
            <Position>
              <LatitudeDegrees>-33.538022674620151519775390625</LatitudeDegrees>
              <LongitudeDegrees>-70.23598839528858661651611328125</LongitudeDegrees>
            </Position>
            <AltitudeMeters>1933.4000244140625</AltitudeMeters>
            <DistanceMeters>5214.0260746048</DistanceMeters>
          </Trackpoint>
          <Trackpoint>
            <Time>2019-08-04T18:06:31.000Z</Time>
            <Position>
              <LatitudeDegrees>-33.53802024386823177337646484375</LatitudeDegrees>
              <LongitudeDegrees>-70.23598168976604938507080078125</LongitudeDegrees>
            </Position>
            <AltitudeMeters>1933.199951171875</AltitudeMeters>
            <DistanceMeters>5214.7047010843</DistanceMeters>
          </Trackpoint>
          <Trackpoint>
            <Time>2019-08-04T18:06:35.000Z</Time>
            <Position>
              <LatitudeDegrees>-33.5380111075937747955322265625</LatitudeDegrees>
              <LongitudeDegrees>-70.2359497547149658203125</LongitudeDegrees>
            </Position>
            <AltitudeMeters>1932</AltitudeMeters>
            <DistanceMeters>5217.8362602835</DistanceMeters>
          </Trackpoint>
          <Trackpoint>
            <Time>2019-08-04T18:06:38.000Z</Time>
            <Position>
              <LatitudeDegrees>-33.53801940567791461944580078125</LatitudeDegrees>
              <LongitudeDegrees>-70.235921256244182586669921875</LongitudeDegrees>
            </Position>
            <AltitudeMeters>1931.800048828125</AltitudeMeters>
            <DistanceMeters>5220.6375343561</DistanceMeters>
          </Trackpoint>
          <Trackpoint>
            <Time>2019-08-04T18:06:44.000Z</Time>
            <Position>
              <LatitudeDegrees>-33.5380087606608867645263671875</LatitudeDegrees>
              <LongitudeDegrees>-70.2358503453433513641357421875</LongitudeDegrees>
            </Position>
            <AltitudeMeters>1931</AltitudeMeters>
            <DistanceMeters>5227.321905549</DistanceMeters>
          </Trackpoint>
          <Trackpoint>
            <Time>2019-08-04T18:06:47.000Z</Time>
            <Position>
              <LatitudeDegrees>-33.53798822499811649322509765625</LatitudeDegrees>
              <LongitudeDegrees>-70.23581120185554027557373046875</LongitudeDegrees>
            </Position>
            <AltitudeMeters>1930.199951171875</AltitudeMeters>
            <DistanceMeters>5231.6118118175</DistanceMeters>
          </Trackpoint>
          <Trackpoint>
            <Time>2019-08-04T18:06:49.000Z</Time>
            <Position>
              <LatitudeDegrees>-33.53797397576272487640380859375</LatitudeDegrees>
              <LongitudeDegrees>-70.23580919019877910614013671875</LongitudeDegrees>
            </Position>
            <AltitudeMeters>1930</AltitudeMeters>
            <DistanceMeters>5233.2104085877</DistanceMeters>
          </Trackpoint>
          <Trackpoint>
            <Time>2019-08-04T18:06:53.000Z</Time>
            <Position>
              <LatitudeDegrees>-33.5379259474575519561767578125</LatitudeDegrees>
              <LongitudeDegrees>-70.23582226596772670745849609375</LongitudeDegrees>
            </Position>
            <AltitudeMeters>1928.800048828125</AltitudeMeters>
            <DistanceMeters>5238.6923876469</DistanceMeters>
          </Trackpoint>
          <Trackpoint>
            <Time>2019-08-04T18:06:56.000Z</Time>
            <Position>
              <LatitudeDegrees>-33.5378924198448657989501953125</LatitudeDegrees>
              <LongitudeDegrees>-70.23584850132465362548828125</LongitudeDegrees>
            </Position>
            <AltitudeMeters>1928.199951171875</AltitudeMeters>
            <DistanceMeters>5243.1475091967</DistanceMeters>
          </Trackpoint>
          <Trackpoint>
            <Time>2019-08-04T18:06:57.000Z</Time>
            <Position>
              <LatitudeDegrees>-33.5378816910088062286376953125</LatitudeDegrees>
              <LongitudeDegrees>-70.23585730232298374176025390625</LongitudeDegrees>
            </Position>
            <AltitudeMeters>1928</AltitudeMeters>
            <DistanceMeters>5244.594912988</DistanceMeters>
          </Trackpoint>
          <Trackpoint>
            <Time>2019-08-04T18:06:59.000Z</Time>
            <Position>
              <LatitudeDegrees>-33.53785268962383270263671875</LatitudeDegrees>
              <LongitudeDegrees>-70.23587440140545368194580078125</LongitudeDegrees>
            </Position>
            <AltitudeMeters>1927.800048828125</AltitudeMeters>
            <DistanceMeters>5248.192147974</DistanceMeters>
          </Trackpoint>
          <Trackpoint>
            <Time>2019-08-04T18:07:00.000Z</Time>
            <Position>
              <LatitudeDegrees>-33.5378421284258365631103515625</LatitudeDegrees>
              <LongitudeDegrees>-70.2358704619109630584716796875</LongitudeDegrees>
            </Position>
            <AltitudeMeters>1927.5999755859375</AltitudeMeters>
            <DistanceMeters>5249.4238349645</DistanceMeters>
          </Trackpoint>
          <Trackpoint>
            <Time>2019-08-04T18:07:02.000Z</Time>
            <Position>
              <LatitudeDegrees>-33.537830226123332977294921875</LatitudeDegrees>
              <LongitudeDegrees>-70.23585663177073001861572265625</LongitudeDegrees>
            </Position>
            <AltitudeMeters>1927.4000244140625</AltitudeMeters>
            <DistanceMeters>5251.2664713211</DistanceMeters>
          </Trackpoint>
          <Trackpoint>
            <Time>2019-08-04T18:07:03.000Z</Time>
            <Position>
              <LatitudeDegrees>-33.53782746009528636932373046875</LatitudeDegrees>
              <LongitudeDegrees>-70.23584573529660701751708984375</LongitudeDegrees>
            </Position>
            <AltitudeMeters>1927.4000244140625</AltitudeMeters>
            <DistanceMeters>5252.3246440287</DistanceMeters>
          </Trackpoint>
          <Trackpoint>
            <Time>2019-08-04T18:07:05.000Z</Time>
            <Position>
              <LatitudeDegrees>-33.537816815078258514404296875</LatitudeDegrees>
              <LongitudeDegrees>-70.23581086657941341400146484375</LongitudeDegrees>
            </Position>
            <AltitudeMeters>1926.800048828125</AltitudeMeters>
            <DistanceMeters>5255.7692805041</DistanceMeters>
          </Trackpoint>
          <Trackpoint>
            <Time>2019-08-04T18:07:08.000Z</Time>
            <Position>
              <LatitudeDegrees>-33.53779309429228305816650390625</LatitudeDegrees>
              <LongitudeDegrees>-70.235769711434841156005859375</LongitudeDegrees>
            </Position>
            <AltitudeMeters>1925.4000244140625</AltitudeMeters>
            <DistanceMeters>5260.4110218147</DistanceMeters>
          </Trackpoint>
          <Trackpoint>
            <Time>2019-08-04T18:07:10.000Z</Time>
            <Position>
              <LatitudeDegrees>-33.53777222335338592529296875</LatitudeDegrees>
              <LongitudeDegrees>-70.235742218792438507080078125</LongitudeDegrees>
            </Position>
            <AltitudeMeters>1924.800048828125</AltitudeMeters>
            <DistanceMeters>5263.860897284</DistanceMeters>
          </Trackpoint>
          <Trackpoint>
            <Time>2019-08-04T18:07:11.000Z</Time>
            <Position>
              <LatitudeDegrees>-33.53776157833635807037353515625</LatitudeDegrees>
              <LongitudeDegrees>-70.23573475889861583709716796875</LongitudeDegrees>
            </Position>
            <AltitudeMeters>1924.5999755859375</AltitudeMeters>
            <DistanceMeters>5265.2313920488</DistanceMeters>
          </Trackpoint>
          <Trackpoint>
            <Time>2019-08-04T18:07:12.000Z</Time>
            <Position>
              <LatitudeDegrees>-33.53775906376540660858154296875</LatitudeDegrees>
              <LongitudeDegrees>-70.2357123792171478271484375</LongitudeDegrees>
            </Position>
            <AltitudeMeters>1924.4000244140625</AltitudeMeters>
            <DistanceMeters>5267.3241383486</DistanceMeters>
          </Trackpoint>
          <Trackpoint>
            <Time>2019-08-04T18:07:14.000Z</Time>
            <Position>
              <LatitudeDegrees>-33.5377562977373600006103515625</LatitudeDegrees>
              <LongitudeDegrees>-70.23566368035972118377685546875</LongitudeDegrees>
            </Position>
            <AltitudeMeters>1923.800048828125</AltitudeMeters>
            <DistanceMeters>5271.8536343118</DistanceMeters>
          </Trackpoint>
          <Trackpoint>
            <Time>2019-08-04T18:07:15.000Z</Time>
            <Position>
              <LatitudeDegrees>-33.53775839321315288543701171875</LatitudeDegrees>
              <LongitudeDegrees>-70.23564289323985576629638671875</LongitudeDegrees>
            </Position>
            <AltitudeMeters>1923.5999755859375</AltitudeMeters>
            <DistanceMeters>5273.7964600769</DistanceMeters>
          </Trackpoint>
          <Trackpoint>
            <Time>2019-08-04T18:07:16.000Z</Time>
            <Position>
              <LatitudeDegrees>-33.5377623327076435089111328125</LatitudeDegrees>
              <LongitudeDegrees>-70.235624872148036956787109375</LongitudeDegrees>
            </Position>
            <AltitudeMeters>1923</AltitudeMeters>
            <DistanceMeters>5275.5279292159</DistanceMeters>
          </Trackpoint>
          <Trackpoint>
            <Time>2019-08-04T18:07:19.000Z</Time>
            <Position>
              <LatitudeDegrees>-33.5377795994281768798828125</LatitudeDegrees>
              <LongitudeDegrees>-70.235573910176753997802734375</LongitudeDegrees>
            </Position>
            <AltitudeMeters>1921.800048828125</AltitudeMeters>
            <DistanceMeters>5280.6320227241</DistanceMeters>
          </Trackpoint>
          <Trackpoint>
            <Time>2019-08-04T18:07:23.000Z</Time>
            <Position>
              <LatitudeDegrees>-33.53780047036707401275634765625</LatitudeDegrees>
              <LongitudeDegrees>-70.235510207712650299072265625</LongitudeDegrees>
            </Position>
            <AltitudeMeters>1920.5999755859375</AltitudeMeters>
            <DistanceMeters>5286.9810589696</DistanceMeters>
          </Trackpoint>
          <Trackpoint>
            <Time>2019-08-04T18:07:24.000Z</Time>
            <Position>
              <LatitudeDegrees>-33.537803404033184051513671875</LatitudeDegrees>
              <LongitudeDegrees>-70.2354962937533855438232421875</LongitudeDegrees>
            </Position>
            <AltitudeMeters>1920.4000244140625</AltitudeMeters>
            <DistanceMeters>5288.3114329707</DistanceMeters>
          </Trackpoint>
          <Trackpoint>
            <Time>2019-08-04T18:07:29.000Z</Time>
            <Position>
              <LatitudeDegrees>-33.537815473973751068115234375</LatitudeDegrees>
              <LongitudeDegrees>-70.23542596958577632904052734375</LongitudeDegrees>
            </Position>
            <AltitudeMeters>1919.5999755859375</AltitudeMeters>
            <DistanceMeters>5294.9727988701</DistanceMeters>
          </Trackpoint>
          <Trackpoint>
            <Time>2019-08-04T18:07:30.000Z</Time>
            <Position>
              <LatitudeDegrees>-33.53782159276306629180908203125</LatitudeDegrees>
              <LongitudeDegrees>-70.2354138158261775970458984375</LongitudeDegrees>
            </Position>
            <AltitudeMeters>1919.5999755859375</AltitudeMeters>
            <DistanceMeters>5296.2895276491</DistanceMeters>
          </Trackpoint>
          <Trackpoint>
            <Time>2019-08-04T18:07:34.000Z</Time>
            <Position>
              <LatitudeDegrees>-33.5378330759704113006591796875</LatitudeDegrees>
              <LongitudeDegrees>-70.23537375032901763916015625</LongitudeDegrees>
            </Position>
            <AltitudeMeters>1918.4000244140625</AltitudeMeters>
            <DistanceMeters>5300.2213835559</DistanceMeters>
          </Trackpoint>
          <Trackpoint>
            <Time>2019-08-04T18:07:37.000Z</Time>
            <Position>
              <LatitudeDegrees>-33.53782452642917633056640625</LatitudeDegrees>
              <LongitudeDegrees>-70.23535874672234058380126953125</LongitudeDegrees>
            </Position>
            <AltitudeMeters>1918</AltitudeMeters>
            <DistanceMeters>5301.9106153802</DistanceMeters>
          </Trackpoint>
          <Trackpoint>
            <Time>2019-08-04T18:07:39.000Z</Time>
            <Position>
              <LatitudeDegrees>-33.53782276622951030731201171875</LatitudeDegrees>
              <LongitudeDegrees>-70.23535002954304218292236328125</LongitudeDegrees>
            </Position>
            <AltitudeMeters>1917.199951171875</AltitudeMeters>
            <DistanceMeters>5302.73903907</DistanceMeters>
          </Trackpoint>
          <Trackpoint>
            <Time>2019-08-04T18:07:42.000Z</Time>
            <Position>
              <LatitudeDegrees>-33.53781455196440219879150390625</LatitudeDegrees>
              <LongitudeDegrees>-70.235327146947383880615234375</LongitudeDegrees>
            </Position>
            <AltitudeMeters>1916.800048828125</AltitudeMeters>
            <DistanceMeters>5305.0511388201</DistanceMeters>
          </Trackpoint>
          <Trackpoint>
            <Time>2019-08-04T18:07:44.000Z</Time>
            <Position>
              <LatitudeDegrees>-33.53780013509094715118408203125</LatitudeDegrees>
              <LongitudeDegrees>-70.23531608283519744873046875</LongitudeDegrees>
            </Position>
            <AltitudeMeters>1916</AltitudeMeters>
            <DistanceMeters>5306.9587867979</DistanceMeters>
          </Trackpoint>
          <Trackpoint>
            <Time>2019-08-04T18:07:47.000Z</Time>
            <Position>
              <LatitudeDegrees>-33.537762165069580078125</LatitudeDegrees>
              <LongitudeDegrees>-70.235292948782444000244140625</LongitudeDegrees>
            </Position>
            <AltitudeMeters>1915.5999755859375</AltitudeMeters>
            <DistanceMeters>5311.6987055938</DistanceMeters>
          </Trackpoint>
          <Trackpoint>
            <Time>2019-08-04T18:07:50.000Z</Time>
            <Position>
              <LatitudeDegrees>-33.53772000409662723541259765625</LatitudeDegrees>
              <LongitudeDegrees>-70.235270150005817413330078125</LongitudeDegrees>
            </Position>
            <AltitudeMeters>1914.800048828125</AltitudeMeters>
            <DistanceMeters>5316.8459615897</DistanceMeters>
          </Trackpoint>
          <Trackpoint>
            <Time>2019-08-04T18:07:52.000Z</Time>
            <Position>
              <LatitudeDegrees>-33.53769988752901554107666015625</LatitudeDegrees>
              <LongitudeDegrees>-70.23525631986558437347412109375</LongitudeDegrees>
            </Position>
            <AltitudeMeters>1914</AltitudeMeters>
            <DistanceMeters>5319.425722497</DistanceMeters>
          </Trackpoint>
          <Trackpoint>
            <Time>2019-08-04T18:07:53.000Z</Time>
            <Position>
              <LatitudeDegrees>-33.5376929305493831634521484375</LatitudeDegrees>
              <LongitudeDegrees>-70.23525112308561801910400390625</LongitudeDegrees>
            </Position>
            <AltitudeMeters>1913.800048828125</AltitudeMeters>
            <DistanceMeters>5320.3371867217</DistanceMeters>
          </Trackpoint>
          <Trackpoint>
            <Time>2019-08-04T18:07:54.000Z</Time>
            <Position>
              <LatitudeDegrees>-33.53768714703619480133056640625</LatitudeDegrees>
              <LongitudeDegrees>-70.235246680676937103271484375</LongitudeDegrees>
            </Position>
            <AltitudeMeters>1913.5999755859375</AltitudeMeters>
            <DistanceMeters>5321.1091873987</DistanceMeters>
          </Trackpoint>
          <Trackpoint>
            <Time>2019-08-04T18:07:56.000Z</Time>
            <Position>
              <LatitudeDegrees>-33.5376776754856109619140625</LatitudeDegrees>
              <LongitudeDegrees>-70.235233940184116363525390625</LongitudeDegrees>
            </Position>
            <AltitudeMeters>1912.5999755859375</AltitudeMeters>
            <DistanceMeters>5322.6907471273</DistanceMeters>
          </Trackpoint>
          <Trackpoint>
            <Time>2019-08-04T18:07:59.000Z</Time>
            <Position>
              <LatitudeDegrees>-33.53766384534537792205810546875</LatitudeDegrees>
              <LongitudeDegrees>-70.23522480390965938568115234375</LongitudeDegrees>
            </Position>
            <AltitudeMeters>1911.5999755859375</AltitudeMeters>
            <DistanceMeters>5324.4480991534</DistanceMeters>
          </Trackpoint>
          <Trackpoint>
            <Time>2019-08-04T18:08:03.000Z</Time>
            <Position>
              <LatitudeDegrees>-33.5376441478729248046875</LatitudeDegrees>
              <LongitudeDegrees>-70.23520871065557003021240234375</LongitudeDegrees>
            </Position>
            <AltitudeMeters>1910.199951171875</AltitudeMeters>
            <DistanceMeters>5327.1020508535</DistanceMeters>
          </Trackpoint>
          <Trackpoint>
            <Time>2019-08-04T18:08:04.000Z</Time>
            <Position>
              <LatitudeDegrees>-33.5376419685781002044677734375</LatitudeDegrees>
              <LongitudeDegrees>-70.23520971648395061492919921875</LongitudeDegrees>
            </Position>
            <AltitudeMeters>1910</AltitudeMeters>
            <DistanceMeters>5327.37082699</DistanceMeters>
          </Trackpoint>
          <Trackpoint>
            <Time>2019-08-04T18:08:10.000Z</Time>
            <Position>
              <LatitudeDegrees>-33.53759846650063991546630859375</LatitudeDegrees>
              <LongitudeDegrees>-70.23518892936408519744873046875</LongitudeDegrees>
            </Position>
            <AltitudeMeters>1909.5999755859375</AltitudeMeters>
            <DistanceMeters>5332.5825896422</DistanceMeters>
          </Trackpoint>
          <Trackpoint>
            <Time>2019-08-04T18:08:11.000Z</Time>
            <Position>
              <LatitudeDegrees>-33.537594862282276153564453125</LatitudeDegrees>
              <LongitudeDegrees>-70.235180296003818511962890625</LongitudeDegrees>
            </Position>
            <AltitudeMeters>1909.4000244140625</AltitudeMeters>
            <DistanceMeters>5333.4790698726</DistanceMeters>
          </Trackpoint>
          <Trackpoint>
            <Time>2019-08-04T18:08:13.000Z</Time>
            <Position>
              <LatitudeDegrees>-33.53759142570197582244873046875</LatitudeDegrees>
              <LongitudeDegrees>-70.23516051471233367919921875</LongitudeDegrees>
            </Position>
            <AltitudeMeters>1909</AltitudeMeters>
            <DistanceMeters>5335.3532896401</DistanceMeters>
          </Trackpoint>
          <Trackpoint>
            <Time>2019-08-04T18:08:20.000Z</Time>
            <Position>
              <LatitudeDegrees>-33.537581451237201690673828125</LatitudeDegrees>
              <LongitudeDegrees>-70.2351196110248565673828125</LongitudeDegrees>
            </Position>
            <AltitudeMeters>1908</AltitudeMeters>
            <DistanceMeters>5339.3057613033</DistanceMeters>
          </Trackpoint>
          <Trackpoint>
            <Time>2019-08-04T18:08:21.000Z</Time>
            <Position>
              <LatitudeDegrees>-33.53757717646658420562744140625</LatitudeDegrees>
              <LongitudeDegrees>-70.23511349223554134368896484375</LongitudeDegrees>
            </Position>
            <AltitudeMeters>1907.800048828125</AltitudeMeters>
            <DistanceMeters>5340.0418350677</DistanceMeters>
          </Trackpoint>
          <Trackpoint>
            <Time>2019-08-04T18:08:24.000Z</Time>
            <Position>
              <LatitudeDegrees>-33.53755756281316280364990234375</LatitudeDegrees>
              <LongitudeDegrees>-70.2350953035056591033935546875</LongitudeDegrees>
            </Position>
            <AltitudeMeters>1907</AltitudeMeters>
            <DistanceMeters>5342.8025205837</DistanceMeters>
          </Trackpoint>
          <Trackpoint>
            <Time>2019-08-04T18:08:25.000Z</Time>
            <Position>
              <LatitudeDegrees>-33.5375571437180042266845703125</LatitudeDegrees>
              <LongitudeDegrees>-70.23508935235440731048583984375</LongitudeDegrees>
            </Position>
            <AltitudeMeters>1906.800048828125</AltitudeMeters>
            <DistanceMeters>5343.356616784</DistanceMeters>
          </Trackpoint>
          <Trackpoint>
            <Time>2019-08-04T18:08:31.000Z</Time>
            <Position>
              <LatitudeDegrees>-33.537522442638874053955078125</LatitudeDegrees>
              <LongitudeDegrees>-70.235067307949066162109375</LongitudeDegrees>
            </Position>
            <AltitudeMeters>1905.5999755859375</AltitudeMeters>
            <DistanceMeters>5347.7257793585</DistanceMeters>
          </Trackpoint>
          <Trackpoint>
            <Time>2019-08-04T18:08:37.000Z</Time>
            <Position>
              <LatitudeDegrees>-33.53749369271099567413330078125</LatitudeDegrees>
              <LongitudeDegrees>-70.235040150582790374755859375</LongitudeDegrees>
            </Position>
            <AltitudeMeters>1905</AltitudeMeters>
            <DistanceMeters>5351.7975382353</DistanceMeters>
          </Trackpoint>
          <Trackpoint>
            <Time>2019-08-04T18:08:41.000Z</Time>
            <Position>
              <LatitudeDegrees>-33.537466116249561309814453125</LatitudeDegrees>
              <LongitudeDegrees>-70.2350245602428913116455078125</LongitudeDegrees>
            </Position>
            <AltitudeMeters>1904.4000244140625</AltitudeMeters>
            <DistanceMeters>5355.1893397315</DistanceMeters>
          </Trackpoint>
          <Trackpoint>
            <Time>2019-08-04T18:08:42.000Z</Time>
            <Position>
              <LatitudeDegrees>-33.53745748288929462432861328125</LatitudeDegrees>
              <LongitudeDegrees>-70.2350230515003204345703125</LongitudeDegrees>
            </Position>
            <AltitudeMeters>1904.4000244140625</AltitudeMeters>
            <DistanceMeters>5356.1584258733</DistanceMeters>
          </Trackpoint>
          <Trackpoint>
            <Time>2019-08-04T18:08:46.000Z</Time>
            <Position>
              <LatitudeDegrees>-33.5374260507524013519287109375</LatitudeDegrees>
              <LongitudeDegrees>-70.23501005955040454864501953125</LongitudeDegrees>
            </Position>
            <AltitudeMeters>1903.4000244140625</AltitudeMeters>
            <DistanceMeters>5359.8583712633</DistanceMeters>
          </Trackpoint>
          <Trackpoint>
            <Time>2019-08-04T18:08:54.000Z</Time>
            <Position>
              <LatitudeDegrees>-33.5373879969120025634765625</LatitudeDegrees>
              <LongitudeDegrees>-70.234937556087970733642578125</LongitudeDegrees>
            </Position>
            <AltitudeMeters>1902.199951171875</AltitudeMeters>
            <DistanceMeters>5367.8071727376</DistanceMeters>
          </Trackpoint>
          <Trackpoint>
            <Time>2019-08-04T18:08:56.000Z</Time>
            <Position>
              <LatitudeDegrees>-33.53737718425691127777099609375</LatitudeDegrees>
              <LongitudeDegrees>-70.23491182364523410797119140625</LongitudeDegrees>
            </Position>
            <AltitudeMeters>1901.5999755859375</AltitudeMeters>
            <DistanceMeters>5370.4780827681</DistanceMeters>
          </Trackpoint>
          <Trackpoint>
            <Time>2019-08-04T18:09:00.000Z</Time>
            <Position>
              <LatitudeDegrees>-33.53736259974539279937744140625</LatitudeDegrees>
              <LongitudeDegrees>-70.23487075231969356536865234375</LongitudeDegrees>
            </Position>
            <AltitudeMeters>1901</AltitudeMeters>
            <DistanceMeters>5374.6202012168</DistanceMeters>
          </Trackpoint>
          <Trackpoint>
            <Time>2019-08-04T18:09:08.000Z</Time>
            <Position>
              <LatitudeDegrees>-33.53734843432903289794921875</LatitudeDegrees>
              <LongitudeDegrees>-70.23478106595575809478759765625</LongitudeDegrees>
            </Position>
            <AltitudeMeters>1900.4000244140625</AltitudeMeters>
            <DistanceMeters>5383.0887823918</DistanceMeters>
          </Trackpoint>
          <Trackpoint>
            <Time>2019-08-04T18:09:10.000Z</Time>
            <Position>
              <LatitudeDegrees>-33.53734667412936687469482421875</LatitudeDegrees>
              <LongitudeDegrees>-70.234766900539398193359375</LongitudeDegrees>
            </Position>
            <AltitudeMeters>1900</AltitudeMeters>
            <DistanceMeters>5384.4123513663</DistanceMeters>
          </Trackpoint>
          <Trackpoint>
            <Time>2019-08-04T18:09:12.000Z</Time>
            <Position>
              <LatitudeDegrees>-33.53734851814806461334228515625</LatitudeDegrees>
              <LongitudeDegrees>-70.23475793190300464630126953125</LongitudeDegrees>
            </Position>
            <AltitudeMeters>1899.800048828125</AltitudeMeters>
            <DistanceMeters>5385.2622961383</DistanceMeters>
          </Trackpoint>
          <Trackpoint>
            <Time>2019-08-04T18:09:17.000Z</Time>
            <Position>
              <LatitudeDegrees>-33.53733041323721408843994140625</LatitudeDegrees>
              <LongitudeDegrees>-70.23473982699215412139892578125</LongitudeDegrees>
            </Position>
            <AltitudeMeters>1898.800048828125</AltitudeMeters>
            <DistanceMeters>5387.887167245</DistanceMeters>
          </Trackpoint>
          <Trackpoint>
            <Time>2019-08-04T18:09:19.000Z</Time>
            <Position>
              <LatitudeDegrees>-33.5373160801827907562255859375</LatitudeDegrees>
              <LongitudeDegrees>-70.23473580367863178253173828125</LongitudeDegrees>
            </Position>
            <AltitudeMeters>1898.4000244140625</AltitudeMeters>
            <DistanceMeters>5389.5248279864</DistanceMeters>
          </Trackpoint>
          <Trackpoint>
            <Time>2019-08-04T18:09:23.000Z</Time>
            <Position>
              <LatitudeDegrees>-33.53729269467294216156005859375</LatitudeDegrees>
              <LongitudeDegrees>-70.234697498381137847900390625</LongitudeDegrees>
            </Position>
            <AltitudeMeters>1897.800048828125</AltitudeMeters>
            <DistanceMeters>5393.9300106475</DistanceMeters>
          </Trackpoint>
          <Trackpoint>
            <Time>2019-08-04T18:09:30.000Z</Time>
            <Position>
              <LatitudeDegrees>-33.5372621007263660430908203125</LatitudeDegrees>
              <LongitudeDegrees>-70.234655924141407012939453125</LongitudeDegrees>
            </Position>
            <AltitudeMeters>1897</AltitudeMeters>
            <DistanceMeters>5399.0746344489</DistanceMeters>
          </Trackpoint>
          <Trackpoint>
            <Time>2019-08-04T18:09:31.000Z</Time>
            <Position>
              <LatitudeDegrees>-33.5372503660619258880615234375</LatitudeDegrees>
              <LongitudeDegrees>-70.23465282283723354339599609375</LongitudeDegrees>
            </Position>
            <AltitudeMeters>1896.800048828125</AltitudeMeters>
            <DistanceMeters>5400.4117788449</DistanceMeters>
          </Trackpoint>
          <Trackpoint>
            <Time>2019-08-04T18:09:32.000Z</Time>
            <Position>
              <LatitudeDegrees>-33.53724223561584949493408203125</LatitudeDegrees>
              <LongitudeDegrees>-70.23464393801987171173095703125</LongitudeDegrees>
            </Position>
            <AltitudeMeters>1896.5999755859375</AltitudeMeters>
            <DistanceMeters>5401.6361124145</DistanceMeters>
          </Trackpoint>
          <Trackpoint>
            <Time>2019-08-04T18:09:35.000Z</Time>
            <Position>
              <LatitudeDegrees>-33.53723921813070774078369140625</LatitudeDegrees>
              <LongitudeDegrees>-70.23461057804524898529052734375</LongitudeDegrees>
            </Position>
            <AltitudeMeters>1896</AltitudeMeters>
            <DistanceMeters>5404.7503221218</DistanceMeters>
          </Trackpoint>
          <Trackpoint>
            <Time>2019-08-04T18:09:36.000Z</Time>
            <Position>
              <LatitudeDegrees>-33.53724257089197635650634765625</LatitudeDegrees>
              <LongitudeDegrees>-70.23459993302822113037109375</LongitudeDegrees>
            </Position>
            <AltitudeMeters>1895.800048828125</AltitudeMeters>
            <DistanceMeters>5405.8084948294</DistanceMeters>
          </Trackpoint>
          <Trackpoint>
            <Time>2019-08-04T18:09:38.000Z</Time>
            <Position>
              <LatitudeDegrees>-33.53724676184356212615966796875</LatitudeDegrees>
              <LongitudeDegrees>-70.2345752902328968048095703125</LongitudeDegrees>
            </Position>
            <AltitudeMeters>1895.4000244140625</AltitudeMeters>
            <DistanceMeters>5408.141976369</DistanceMeters>
          </Trackpoint>
          <Trackpoint>
            <Time>2019-08-04T18:09:40.000Z</Time>
            <Position>
              <LatitudeDegrees>-33.53724977932870388031005859375</LatitudeDegrees>
              <LongitudeDegrees>-70.23455358110368251800537109375</LongitudeDegrees>
            </Position>
            <AltitudeMeters>1895.199951171875</AltitudeMeters>
            <DistanceMeters>5410.1867074989</DistanceMeters>
          </Trackpoint>
          <Trackpoint>
            <Time>2019-08-04T18:09:43.000Z</Time>
            <Position>
              <LatitudeDegrees>-33.53725966997444629669189453125</LatitudeDegrees>
              <LongitudeDegrees>-70.23453748784959316253662109375</LongitudeDegrees>
            </Position>
            <AltitudeMeters>1895</AltitudeMeters>
            <DistanceMeters>5412.0439875536</DistanceMeters>
          </Trackpoint>
          <Trackpoint>
            <Time>2019-08-04T18:09:44.000Z</Time>
            <Position>
              <LatitudeDegrees>-33.5372565686702728271484375</LatitudeDegrees>
              <LongitudeDegrees>-70.23453145287930965423583984375</LongitudeDegrees>
            </Position>
            <AltitudeMeters>1894.800048828125</AltitudeMeters>
            <DistanceMeters>5412.7091745542</DistanceMeters>
          </Trackpoint>
          <Trackpoint>
            <Time>2019-08-04T18:09:48.000Z</Time>
            <Position>
              <LatitudeDegrees>-33.5372426547110080718994140625</LatitudeDegrees>
              <LongitudeDegrees>-70.23449691943824291229248046875</LongitudeDegrees>
            </Position>
            <AltitudeMeters>1893.800048828125</AltitudeMeters>
            <DistanceMeters>5416.2672874212</DistanceMeters>
          </Trackpoint>
          <Trackpoint>
            <Time>2019-08-04T18:09:49.000Z</Time>
            <Position>
              <LatitudeDegrees>-33.5372376255691051483154296875</LatitudeDegrees>
              <LongitudeDegrees>-70.234486274421215057373046875</LongitudeDegrees>
            </Position>
            <AltitudeMeters>1893.800048828125</AltitudeMeters>
            <DistanceMeters>5417.399661412</DistanceMeters>
          </Trackpoint>
          <Trackpoint>
            <Time>2019-08-04T18:09:56.000Z</Time>
            <Position>
              <LatitudeDegrees>-33.5372114740312099456787109375</LatitudeDegrees>
              <LongitudeDegrees>-70.23442181758582592010498046875</LongitudeDegrees>
            </Position>
            <AltitudeMeters>1892.800048828125</AltitudeMeters>
            <DistanceMeters>5424.0501737548</DistanceMeters>
          </Trackpoint>
          <Trackpoint>
            <Time>2019-08-04T18:10:00.000Z</Time>
            <Position>
              <LatitudeDegrees>-33.5371953807771205902099609375</LatitudeDegrees>
              <LongitudeDegrees>-70.23438937962055206298828125</LongitudeDegrees>
            </Position>
            <AltitudeMeters>1891.800048828125</AltitudeMeters>
            <DistanceMeters>5427.5520081043</DistanceMeters>
          </Trackpoint>
          <Trackpoint>
            <Time>2019-08-04T18:10:01.000Z</Time>
            <Position>
              <LatitudeDegrees>-33.5371937043964862823486328125</LatitudeDegrees>
              <LongitudeDegrees>-70.2343811653554439544677734375</LongitudeDegrees>
            </Position>
            <AltitudeMeters>1891.5999755859375</AltitudeMeters>
            <DistanceMeters>5428.3470586379</DistanceMeters>
          </Trackpoint>
          <Trackpoint>
            <Time>2019-08-04T18:10:02.000Z</Time>
            <Position>
              <LatitudeDegrees>-33.53719127364456653594970703125</LatitudeDegrees>
              <LongitudeDegrees>-70.2343754656612873077392578125</LongitudeDegrees>
            </Position>
            <AltitudeMeters>1891.4000244140625</AltitudeMeters>
            <DistanceMeters>5428.9480603499</DistanceMeters>
          </Trackpoint>
          <Trackpoint>
            <Time>2019-08-04T18:10:06.000Z</Time>
            <Position>
              <LatitudeDegrees>-33.53717409074306488037109375</LatitudeDegrees>
              <LongitudeDegrees>-70.23435409180819988250732421875</LongitudeDegrees>
            </Position>
            <AltitudeMeters>1890.5999755859375</AltitudeMeters>
            <DistanceMeters>5431.7054729715</DistanceMeters>
          </Trackpoint>
          <Trackpoint>
            <Time>2019-08-04T18:10:11.000Z</Time>
            <Position>
              <LatitudeDegrees>-33.53716864250600337982177734375</LatitudeDegrees>
              <LongitudeDegrees>-70.2343352325260639190673828125</LongitudeDegrees>
            </Position>
            <AltitudeMeters>1889.4000244140625</AltitudeMeters>
            <DistanceMeters>5433.5554456665</DistanceMeters>
          </Trackpoint>
          <Trackpoint>
            <Time>2019-08-04T18:10:14.000Z</Time>
            <Position>
              <LatitudeDegrees>-33.53717048652470111846923828125</LatitudeDegrees>
              <LongitudeDegrees>-70.234325341880321502685546875</LongitudeDegrees>
            </Position>
            <AltitudeMeters>1889</AltitudeMeters>
            <DistanceMeters>5434.4913502637</DistanceMeters>
          </Trackpoint>
          <Trackpoint>
            <Time>2019-08-04T18:10:19.000Z</Time>
            <Position>
              <LatitudeDegrees>-33.53715875186026096343994140625</LatitudeDegrees>
              <LongitudeDegrees>-70.2343077398836612701416015625</LongitudeDegrees>
            </Position>
            <AltitudeMeters>1888.4000244140625</AltitudeMeters>
            <DistanceMeters>5436.5819379798</DistanceMeters>
          </Trackpoint>
          <Trackpoint>
            <Time>2019-08-04T18:10:20.000Z</Time>
            <Position>
              <LatitudeDegrees>-33.53715891949832439422607421875</LatitudeDegrees>
              <LongitudeDegrees>-70.2342996932566165924072265625</LongitudeDegrees>
            </Position>
            <AltitudeMeters>1888.199951171875</AltitudeMeters>
            <DistanceMeters>5437.330179077</DistanceMeters>
          </Trackpoint>
          <Trackpoint>
            <Time>2019-08-04T18:10:24.000Z</Time>
            <Position>
              <LatitudeDegrees>-33.53714198805391788482666015625</LatitudeDegrees>
              <LongitudeDegrees>-70.23428368382155895233154296875</LongitudeDegrees>
            </Position>
            <AltitudeMeters>1887.199951171875</AltitudeMeters>
            <DistanceMeters>5439.7304267249</DistanceMeters>
          </Trackpoint>
          <Trackpoint>
            <Time>2019-08-04T18:10:26.000Z</Time>
            <Position>
              <LatitudeDegrees>-33.5371256433427333831787109375</LatitudeDegrees>
              <LongitudeDegrees>-70.23428234271705150604248046875</LongitudeDegrees>
            </Position>
            <AltitudeMeters>1886.800048828125</AltitudeMeters>
            <DistanceMeters>5441.5533551743</DistanceMeters>
          </Trackpoint>
          <Trackpoint>
            <Time>2019-08-04T18:10:31.000Z</Time>
            <Position>
              <LatitudeDegrees>-33.53709387592971324920654296875</LatitudeDegrees>
              <LongitudeDegrees>-70.234264992177486419677734375</LongitudeDegrees>
            </Position>
            <AltitudeMeters>1886.4000244140625</AltitudeMeters>
            <DistanceMeters>5445.4390067045</DistanceMeters>
          </Trackpoint>
          <Trackpoint>
            <Time>2019-08-04T18:10:33.000Z</Time>
            <Position>
              <LatitudeDegrees>-33.53708398528397083282470703125</LatitudeDegrees>
              <LongitudeDegrees>-70.23426197469234466552734375</LongitudeDegrees>
            </Position>
            <AltitudeMeters>1886</AltitudeMeters>
            <DistanceMeters>5446.5713806953</DistanceMeters>
          </Trackpoint>
          <Trackpoint>
            <Time>2019-08-04T18:10:38.000Z</Time>
            <Position>
              <LatitudeDegrees>-33.53706789202988147735595703125</LatitudeDegrees>
              <LongitudeDegrees>-70.23422165773808956146240234375</LongitudeDegrees>
            </Position>
            <AltitudeMeters>1885.199951171875</AltitudeMeters>
            <DistanceMeters>5450.7178569763</DistanceMeters>
          </Trackpoint>
          <Trackpoint>
            <Time>2019-08-04T18:10:39.000Z</Time>
            <Position>
              <LatitudeDegrees>-33.53706470690667629241943359375</LatitudeDegrees>
              <LongitudeDegrees>-70.234212018549442291259765625</LongitudeDegrees>
            </Position>
            <AltitudeMeters>1884.800048828125</AltitudeMeters>
            <DistanceMeters>5451.6775797474</DistanceMeters>
          </Trackpoint>
          <Trackpoint>
            <Time>2019-08-04T18:10:43.000Z</Time>
            <Position>
              <LatitudeDegrees>-33.5370569117367267608642578125</LatitudeDegrees>
              <LongitudeDegrees>-70.234189890325069427490234375</LongitudeDegrees>
            </Position>
            <AltitudeMeters>1884.199951171875</AltitudeMeters>
            <DistanceMeters>5453.9081787971</DistanceMeters>
          </Trackpoint>
          <Trackpoint>
            <Time>2019-08-04T18:10:44.000Z</Time>
            <Position>
              <LatitudeDegrees>-33.53705565445125102996826171875</LatitudeDegrees>
              <LongitudeDegrees>-70.2341835200786590576171875</LongitudeDegrees>
            </Position>
            <AltitudeMeters>1884.199951171875</AltitudeMeters>
            <DistanceMeters>5454.5240222924</DistanceMeters>
          </Trackpoint>
          <Trackpoint>
            <Time>2019-08-04T18:10:46.000Z</Time>
            <Position>
              <LatitudeDegrees>-33.537052385509014129638671875</LatitudeDegrees>
              <LongitudeDegrees>-70.234167762100696563720703125</LongitudeDegrees>
            </Position>
            <AltitudeMeters>1883.800048828125</AltitudeMeters>
            <DistanceMeters>5456.0325246171</DistanceMeters>
          </Trackpoint>
          <Trackpoint>
            <Time>2019-08-04T18:10:50.000Z</Time>
            <Position>
              <LatitudeDegrees>-33.53704408742487430572509765625</LatitudeDegrees>
              <LongitudeDegrees>-70.234155021607875823974609375</LongitudeDegrees>
            </Position>
            <AltitudeMeters>1883.199951171875</AltitudeMeters>
            <DistanceMeters>5457.535028897</DistanceMeters>
          </Trackpoint>
          <Trackpoint>
            <Time>2019-08-04T18:10:53.000Z</Time>
            <Position>
              <LatitudeDegrees>-33.53702380321919918060302734375</LatitudeDegrees>
              <LongitudeDegrees>-70.2341411076486110687255859375</LongitudeDegrees>
            </Position>
            <AltitudeMeters>1882.4000244140625</AltitudeMeters>
            <DistanceMeters>5460.1374426483</DistanceMeters>
          </Trackpoint>
          <Trackpoint>
            <Time>2019-08-04T18:10:59.000Z</Time>
            <Position>
              <LatitudeDegrees>-33.53699413128197193145751953125</LatitudeDegrees>
              <LongitudeDegrees>-70.23413666523993015289306640625</LongitudeDegrees>
            </Position>
            <AltitudeMeters>1881.4000244140625</AltitudeMeters>
            <DistanceMeters>5463.4674477344</DistanceMeters>
          </Trackpoint>
          <Trackpoint>
            <Time>2019-08-04T18:11:04.000Z</Time>
            <Position>
              <LatitudeDegrees>-33.5369734279811382293701171875</LatitudeDegrees>
              <LongitudeDegrees>-70.23412727750837802886962890625</LongitudeDegrees>
            </Position>
            <AltitudeMeters>1880.199951171875</AltitudeMeters>
            <DistanceMeters>5465.9308217154</DistanceMeters>
          </Trackpoint>
          <Trackpoint>
            <Time>2019-08-04T18:11:11.000Z</Time>
            <Position>
              <LatitudeDegrees>-33.53694518096745014190673828125</LatitudeDegrees>
              <LongitudeDegrees>-70.23411847651004791259765625</LongitudeDegrees>
            </Position>
            <AltitudeMeters>1879.4000244140625</AltitudeMeters>
            <DistanceMeters>5469.1784561293</DistanceMeters>
          </Trackpoint>
          <Trackpoint>
            <Time>2019-08-04T18:11:12.000Z</Time>
            <Position>
              <LatitudeDegrees>-33.5369409061968326568603515625</LatitudeDegrees>
              <LongitudeDegrees>-70.2341129444539546966552734375</LongitudeDegrees>
            </Position>
            <AltitudeMeters>1879.199951171875</AltitudeMeters>
            <DistanceMeters>5469.8767570157</DistanceMeters>
          </Trackpoint>
          <Trackpoint>
            <Time>2019-08-04T18:11:14.000Z</Time>
            <Position>
              <LatitudeDegrees>-33.53693679906427860260009765625</LatitudeDegrees>
              <LongitudeDegrees>-70.234106071293354034423828125</LongitudeDegrees>
            </Position>
            <AltitudeMeters>1879</AltitudeMeters>
            <DistanceMeters>5470.6603673769</DistanceMeters>
          </Trackpoint>
          <Trackpoint>
            <Time>2019-08-04T18:11:21.000Z</Time>
            <Position>
              <LatitudeDegrees>-33.536937050521373748779296875</LatitudeDegrees>
              <LongitudeDegrees>-70.23405971936881542205810546875</LongitudeDegrees>
            </Position>
            <AltitudeMeters>1878.199951171875</AltitudeMeters>
            <DistanceMeters>5474.9597355259</DistanceMeters>
          </Trackpoint>
          <Trackpoint>
            <Time>2019-08-04T18:11:24.000Z</Time>
            <Position>
              <LatitudeDegrees>-33.5369248129427433013916015625</LatitudeDegrees>
              <LongitudeDegrees>-70.2340287901461124420166015625</LongitudeDegrees>
            </Position>
            <AltitudeMeters>1877.199951171875</AltitudeMeters>
            <DistanceMeters>5478.1370969256</DistanceMeters>
          </Trackpoint>
          <Trackpoint>
            <Time>2019-08-04T18:11:26.000Z</Time>
            <Position>
              <LatitudeDegrees>-33.53691953234374523162841796875</LatitudeDegrees>
              <LongitudeDegrees>-70.234006829559803009033203125</LongitudeDegrees>
            </Position>
            <AltitudeMeters>1876.800048828125</AltitudeMeters>
            <DistanceMeters>5480.2577048736</DistanceMeters>
          </Trackpoint>
          <Trackpoint>
            <Time>2019-08-04T18:11:29.000Z</Time>
            <Position>
              <LatitudeDegrees>-33.53692330420017242431640625</LatitudeDegrees>
              <LongitudeDegrees>-70.23396466858685016632080078125</LongitudeDegrees>
            </Position>
            <AltitudeMeters>1876</AltitudeMeters>
            <DistanceMeters>5484.1918567549</DistanceMeters>
          </Trackpoint>
          <Trackpoint>
            <Time>2019-08-04T18:11:30.000Z</Time>
            <Position>
              <LatitudeDegrees>-33.53692741133272647857666015625</LatitudeDegrees>
              <LongitudeDegrees>-70.233949832618236541748046875</LongitudeDegrees>
            </Position>
            <AltitudeMeters>1875.800048828125</AltitudeMeters>
            <DistanceMeters>5485.6423765967</DistanceMeters>
          </Trackpoint>
          <Trackpoint>
            <Time>2019-08-04T18:11:31.000Z</Time>
            <Position>
              <LatitudeDegrees>-33.53693445213139057159423828125</LatitudeDegrees>
              <LongitudeDegrees>-70.233937762677669525146484375</LongitudeDegrees>
            </Position>
            <AltitudeMeters>1875.5999755859375</AltitudeMeters>
            <DistanceMeters>5487.0095729337</DistanceMeters>
          </Trackpoint>
          <Trackpoint>
            <Time>2019-08-04T18:11:34.000Z</Time>
            <Position>
              <LatitudeDegrees>-33.536953814327716827392578125</LatitudeDegrees>
              <LongitudeDegrees>-70.23391135968267917633056640625</LongitudeDegrees>
            </Position>
            <AltitudeMeters>1874.4000244140625</AltitudeMeters>
            <DistanceMeters>5490.2710802618</DistanceMeters>
          </Trackpoint>
          <Trackpoint>
            <Time>2019-08-04T18:11:38.000Z</Time>
            <Position>
              <LatitudeDegrees>-33.53697535581886768341064453125</LatitudeDegrees>
              <LongitudeDegrees>-70.2338589727878570556640625</LongitudeDegrees>
            </Position>
            <AltitudeMeters>1873.4000244140625</AltitudeMeters>
            <DistanceMeters>5495.6901031069</DistanceMeters>
          </Trackpoint>
          <Trackpoint>
            <Time>2019-08-04T18:11:43.000Z</Time>
            <Position>
              <LatitudeDegrees>-33.53701206855475902557373046875</LatitudeDegrees>
              <LongitudeDegrees>-70.23378294892609119415283203125</LongitudeDegrees>
            </Position>
            <AltitudeMeters>1872.5999755859375</AltitudeMeters>
            <DistanceMeters>5503.8413792324</DistanceMeters>
          </Trackpoint>
          <Trackpoint>
            <Time>2019-08-04T18:11:44.000Z</Time>
            <Position>
              <LatitudeDegrees>-33.53701843880116939544677734375</LatitudeDegrees>
              <LongitudeDegrees>-70.23376869969069957733154296875</LongitudeDegrees>
            </Position>
            <AltitudeMeters>1872.199951171875</AltitudeMeters>
            <DistanceMeters>5505.3408754927</DistanceMeters>
          </Trackpoint>
          <Trackpoint>
            <Time>2019-08-04T18:11:47.000Z</Time>
            <Position>
              <LatitudeDegrees>-33.5370441712439060211181640625</LatitudeDegrees>
              <LongitudeDegrees>-70.2337317354977130889892578125</LongitudeDegrees>
            </Position>
            <AltitudeMeters>1870.800048828125</AltitudeMeters>
            <DistanceMeters>5509.8081418762</DistanceMeters>
          </Trackpoint>
          <Trackpoint>
            <Time>2019-08-04T18:11:50.000Z</Time>
            <Position>
              <LatitudeDegrees>-33.537056744098663330078125</LatitudeDegrees>
              <LongitudeDegrees>-70.233720503747463226318359375</LongitudeDegrees>
            </Position>
            <AltitudeMeters>1869.800048828125</AltitudeMeters>
            <DistanceMeters>5511.5526004631</DistanceMeters>
          </Trackpoint>
          <Trackpoint>
            <Time>2019-08-04T18:11:51.000Z</Time>
            <Position>
              <LatitudeDegrees>-33.537056408822536468505859375</LatitudeDegrees>
              <LongitudeDegrees>-70.23371254093945026397705078125</LongitudeDegrees>
            </Position>
            <AltitudeMeters>1869.4000244140625</AltitudeMeters>
            <DistanceMeters>5512.2947828282</DistanceMeters>
          </Trackpoint>
          <Trackpoint>
            <Time>2019-08-04T18:11:52.000Z</Time>
            <Position>
              <LatitudeDegrees>-33.53705473244190216064453125</LatitudeDegrees>
              <LongitudeDegrees>-70.2337005548179149627685546875</LongitudeDegrees>
            </Position>
            <AltitudeMeters>1869.199951171875</AltitudeMeters>
            <DistanceMeters>5513.4231625421</DistanceMeters>
          </Trackpoint>
          <Trackpoint>
            <Time>2019-08-04T18:11:53.000Z</Time>
            <Position>
              <LatitudeDegrees>-33.53705339133739471435546875</LatitudeDegrees>
              <LongitudeDegrees>-70.2336868084967136383056640625</LongitudeDegrees>
            </Position>
            <AltitudeMeters>1868.800048828125</AltitudeMeters>
            <DistanceMeters>5514.7086601069</DistanceMeters>
          </Trackpoint>
          <Trackpoint>
            <Time>2019-08-04T18:11:54.000Z</Time>
            <Position>
              <LatitudeDegrees>-33.5370505414903163909912109375</LatitudeDegrees>
              <LongitudeDegrees>-70.23367281071841716766357421875</LongitudeDegrees>
            </Position>
            <AltitudeMeters>1868.4000244140625</AltitudeMeters>
            <DistanceMeters>5516.045804503</DistanceMeters>
          </Trackpoint>
          <Trackpoint>
            <Time>2019-08-04T18:11:55.000Z</Time>
            <Position>
              <LatitudeDegrees>-33.5370492003858089447021484375</LatitudeDegrees>
              <LongitudeDegrees>-70.23365956731140613555908203125</LongitudeDegrees>
            </Position>
            <AltitudeMeters>1868.199951171875</AltitudeMeters>
            <DistanceMeters>5517.2848012727</DistanceMeters>
          </Trackpoint>
          <Trackpoint>
            <Time>2019-08-04T18:11:56.000Z</Time>
            <Position>
              <LatitudeDegrees>-33.53703905828297138214111328125</LatitudeDegrees>
              <LongitudeDegrees>-70.23364179767668247222900390625</LongitudeDegrees>
            </Position>
            <AltitudeMeters>1868</AltitudeMeters>
            <DistanceMeters>5519.2848822373</DistanceMeters>
          </Trackpoint>
          <Trackpoint>
            <Time>2019-08-04T18:11:59.000Z</Time>
            <Position>
              <LatitudeDegrees>-33.53702631779015064239501953125</LatitudeDegrees>
              <LongitudeDegrees>-70.23360340856015682220458984375</LongitudeDegrees>
            </Position>
            <AltitudeMeters>1867.5999755859375</AltitudeMeters>
            <DistanceMeters>5523.1190659119</DistanceMeters>
          </Trackpoint>
          <Trackpoint>
            <Time>2019-08-04T18:12:00.000Z</Time>
            <Position>
              <LatitudeDegrees>-33.5370270721614360809326171875</LatitudeDegrees>
              <LongitudeDegrees>-70.233588404953479766845703125</LongitudeDegrees>
            </Position>
            <AltitudeMeters>1867</AltitudeMeters>
            <DistanceMeters>5524.5124310598</DistanceMeters>
          </Trackpoint>
          <Trackpoint>
            <Time>2019-08-04T18:12:02.000Z</Time>
            <Position>
              <LatitudeDegrees>-33.53702899999916553497314453125</LatitudeDegrees>
              <LongitudeDegrees>-70.23356325924396514892578125</LongitudeDegrees>
            </Position>
            <AltitudeMeters>1866.199951171875</AltitudeMeters>
            <DistanceMeters>5526.8555670947</DistanceMeters>
          </Trackpoint>
          <Trackpoint>
            <Time>2019-08-04T18:12:03.000Z</Time>
            <Position>
              <LatitudeDegrees>-33.537022210657596588134765625</LatitudeDegrees>
              <LongitudeDegrees>-70.23355345241725444793701171875</LongitudeDegrees>
            </Position>
            <AltitudeMeters>1866</AltitudeMeters>
            <DistanceMeters>5528.0386401477</DistanceMeters>
          </Trackpoint>
          <Trackpoint>
            <Time>2019-08-04T18:12:05.000Z</Time>
            <Position>
              <LatitudeDegrees>-33.537015505135059356689453125</LatitudeDegrees>
              <LongitudeDegrees>-70.2335449866950511932373046875</LongitudeDegrees>
            </Position>
            <AltitudeMeters>1865.4000244140625</AltitudeMeters>
            <DistanceMeters>5529.1221113922</DistanceMeters>
          </Trackpoint>
          <Trackpoint>
            <Time>2019-08-04T18:12:06.000Z</Time>
            <Position>
              <LatitudeDegrees>-33.53701374493539333343505859375</LatitudeDegrees>
              <LongitudeDegrees>-70.233542136847972869873046875</LongitudeDegrees>
            </Position>
            <AltitudeMeters>1864.800048828125</AltitudeMeters>
            <DistanceMeters>5529.451293587</DistanceMeters>
          </Trackpoint>
          <Trackpoint>
            <Time>2019-08-04T18:12:08.000Z</Time>
            <Position>
              <LatitudeDegrees>-33.5370150022208690643310546875</LatitudeDegrees>
              <LongitudeDegrees>-70.23352704942226409912109375</LongitudeDegrees>
            </Position>
            <AltitudeMeters>1864</AltitudeMeters>
            <DistanceMeters>5530.8575605393</DistanceMeters>
          </Trackpoint>
          <Trackpoint>
            <Time>2019-08-04T18:12:10.000Z</Time>
            <Position>
              <LatitudeDegrees>-33.53701114654541015625</LatitudeDegrees>
              <LongitudeDegrees>-70.23351036943495273590087890625</LongitudeDegrees>
            </Position>
            <AltitudeMeters>1863.5999755859375</AltitudeMeters>
            <DistanceMeters>5532.4646081002</DistanceMeters>
          </Trackpoint>
          <Trackpoint>
            <Time>2019-08-04T18:12:15.000Z</Time>
            <Position>
              <LatitudeDegrees>-33.5370143316686153411865234375</LatitudeDegrees>
              <LongitudeDegrees>-70.23346611298620700836181640625</LongitudeDegrees>
            </Position>
            <AltitudeMeters>1862.4000244140625</AltitudeMeters>
            <DistanceMeters>5536.5859639197</DistanceMeters>
          </Trackpoint>
          <Trackpoint>
            <Time>2019-08-04T18:12:19.000Z</Time>
            <Position>
              <LatitudeDegrees>-33.53700988925993442535400390625</LatitudeDegrees>
              <LongitudeDegrees>-70.23344616405665874481201171875</LongitudeDegrees>
            </Position>
            <AltitudeMeters>1861.4000244140625</AltitudeMeters>
            <DistanceMeters>5538.4983396568</DistanceMeters>
          </Trackpoint>
          <Trackpoint>
            <Time>2019-08-04T18:12:25.000Z</Time>
            <Position>
              <LatitudeDegrees>-33.537016175687313079833984375</LatitudeDegrees>
              <LongitudeDegrees>-70.233404003083705902099609375</LongitudeDegrees>
            </Position>
            <AltitudeMeters>1860.4000244140625</AltitudeMeters>
            <DistanceMeters>5542.4724563763</DistanceMeters>
          </Trackpoint>
          <Trackpoint>
            <Time>2019-08-04T18:12:29.000Z</Time>
            <Position>
              <LatitudeDegrees>-33.5370143316686153411865234375</LatitudeDegrees>
              <LongitudeDegrees>-70.2333817072212696075439453125</LongitudeDegrees>
            </Position>
            <AltitudeMeters>1859.5999755859375</AltitudeMeters>
            <DistanceMeters>5544.5500454936</DistanceMeters>
          </Trackpoint>
          <Trackpoint>
            <Time>2019-08-04T18:12:31.000Z</Time>
            <Position>
              <LatitudeDegrees>-33.5370143316686153411865234375</LatitudeDegrees>
              <LongitudeDegrees>-70.23338212631642818450927734375</LongitudeDegrees>
            </Position>
            <AltitudeMeters>1859.4000244140625</AltitudeMeters>
            <DistanceMeters>5544.5500454936</DistanceMeters>
          </Trackpoint>
          <Trackpoint>
            <Time>2019-08-04T18:12:37.000Z</Time>
            <Position>
              <LatitudeDegrees>-33.53700988925993442535400390625</LatitudeDegrees>
              <LongitudeDegrees>-70.23337148129940032958984375</LongitudeDegrees>
            </Position>
            <AltitudeMeters>1858.800048828125</AltitudeMeters>
            <DistanceMeters>5545.6500592406</DistanceMeters>
          </Trackpoint>
          <Trackpoint>
            <Time>2019-08-04T18:12:39.000Z</Time>
            <Position>
              <LatitudeDegrees>-33.53700787760317325592041015625</LatitudeDegrees>
              <LongitudeDegrees>-70.23337190039455890655517578125</LongitudeDegrees>
            </Position>
            <AltitudeMeters>1858.5999755859375</AltitudeMeters>
            <DistanceMeters>5545.8828262027</DistanceMeters>
          </Trackpoint>
          <Trackpoint>
            <Time>2019-08-04T18:12:42.000Z</Time>
            <Position>
              <LatitudeDegrees>-33.53700620122253894805908203125</LatitudeDegrees>
              <LongitudeDegrees>-70.23336888290941715240478515625</LongitudeDegrees>
            </Position>
            <AltitudeMeters>1858.5999755859375</AltitudeMeters>
            <DistanceMeters>5546.2120083974</DistanceMeters>
          </Trackpoint>
          <Trackpoint>
            <Time>2019-08-04T18:12:46.000Z</Time>
            <Position>
              <LatitudeDegrees>-33.53699664585292339324951171875</LatitudeDegrees>
              <LongitudeDegrees>-70.2333579026162624359130859375</LongitudeDegrees>
            </Position>
            <AltitudeMeters>1858.5999755859375</AltitudeMeters>
            <DistanceMeters>5547.6872197121</DistanceMeters>
          </Trackpoint>
          <Trackpoint>
            <Time>2019-08-04T18:12:50.000Z</Time>
            <Position>
              <LatitudeDegrees>-33.5369596816599369049072265625</LatitudeDegrees>
              <LongitudeDegrees>-70.2333414740860462188720703125</LongitudeDegrees>
            </Position>
            <AltitudeMeters>1858.5999755859375</AltitudeMeters>
            <DistanceMeters>5552.074943835</DistanceMeters>
          </Trackpoint>
          <Trackpoint>
            <Time>2019-08-04T18:12:54.000Z</Time>
            <Position>
              <LatitudeDegrees>-33.5369241423904895782470703125</LatitudeDegrees>
              <LongitudeDegrees>-70.23333686403930187225341796875</LongitudeDegrees>
            </Position>
            <AltitudeMeters>1858.4000244140625</AltitudeMeters>
            <DistanceMeters>5556.0524674276</DistanceMeters>
          </Trackpoint>
          <Trackpoint>
            <Time>2019-08-04T18:13:01.000Z</Time>
            <Position>
              <LatitudeDegrees>-33.53685515932738780975341796875</LatitudeDegrees>
              <LongitudeDegrees>-70.233341641724109649658203125</LongitudeDegrees>
            </Position>
            <AltitudeMeters>1857.4000244140625</AltitudeMeters>
            <DistanceMeters>5563.7431761536</DistanceMeters>
          </Trackpoint>
          <Trackpoint>
            <Time>2019-08-04T18:13:04.000Z</Time>
            <Position>
              <LatitudeDegrees>-33.53682464919984340667724609375</LatitudeDegrees>
              <LongitudeDegrees>-70.233345665037631988525390625</LongitudeDegrees>
            </Position>
            <AltitudeMeters>1856.800048828125</AltitudeMeters>
            <DistanceMeters>5567.1588545292</DistanceMeters>
          </Trackpoint>
          <Trackpoint>
            <Time>2019-08-04T18:13:06.000Z</Time>
            <Position>
              <LatitudeDegrees>-33.5368032753467559814453125</LatitudeDegrees>
              <LongitudeDegrees>-70.23334055207669734954833984375</LongitudeDegrees>
            </Position>
            <AltitudeMeters>1856.199951171875</AltitudeMeters>
            <DistanceMeters>5569.5834327946</DistanceMeters>
          </Trackpoint>
          <Trackpoint>
            <Time>2019-08-04T18:13:09.000Z</Time>
            <Position>
              <LatitudeDegrees>-33.5367799736559391021728515625</LatitudeDegrees>
              <LongitudeDegrees>-70.23333401419222354888916015625</LongitudeDegrees>
            </Position>
            <AltitudeMeters>1855.800048828125</AltitudeMeters>
            <DistanceMeters>5572.2458771618</DistanceMeters>
          </Trackpoint>
          <Trackpoint>
            <Time>2019-08-04T18:13:11.000Z</Time>
            <Position>
              <LatitudeDegrees>-33.5367715917527675628662109375</LatitudeDegrees>
              <LongitudeDegrees>-70.2333216927945613861083984375</LongitudeDegrees>
            </Position>
            <AltitudeMeters>1855.199951171875</AltitudeMeters>
            <DistanceMeters>5573.7210884765</DistanceMeters>
          </Trackpoint>
          <Trackpoint>
            <Time>2019-08-04T18:13:13.000Z</Time>
            <Position>
              <LatitudeDegrees>-33.5367806442081928253173828125</LatitudeDegrees>
              <LongitudeDegrees>-70.23328221403062343597412109375</LongitudeDegrees>
            </Position>
            <AltitudeMeters>1854.5999755859375</AltitudeMeters>
            <DistanceMeters>5577.5174027423</DistanceMeters>
          </Trackpoint>
          <Trackpoint>
            <Time>2019-08-04T18:13:14.000Z</Time>
            <Position>
              <LatitudeDegrees>-33.53678424842655658721923828125</LatitudeDegrees>
              <LongitudeDegrees>-70.23326712660491466522216796875</LongitudeDegrees>
            </Position>
            <AltitudeMeters>1854.4000244140625</AltitudeMeters>
            <DistanceMeters>5578.9710319549</DistanceMeters>
          </Trackpoint>
          <Trackpoint>
            <Time>2019-08-04T18:13:15.000Z</Time>
            <Position>
              <LatitudeDegrees>-33.53678642772138118743896484375</LatitudeDegrees>
              <LongitudeDegrees>-70.23325287736952304840087890625</LongitudeDegrees>
            </Position>
            <AltitudeMeters>1854</AltitudeMeters>
            <DistanceMeters>5580.31826815</DistanceMeters>
          </Trackpoint>
          <Trackpoint>
            <Time>2019-08-04T18:13:18.000Z</Time>
            <Position>
              <LatitudeDegrees>-33.53679883293807506561279296875</LatitudeDegrees>
              <LongitudeDegrees>-70.23321834392845630645751953125</LongitudeDegrees>
            </Position>
            <AltitudeMeters>1853.199951171875</AltitudeMeters>
            <DistanceMeters>5583.8071853239</DistanceMeters>
          </Trackpoint>
          <Trackpoint>
            <Time>2019-08-04T18:13:19.000Z</Time>
            <Position>
              <LatitudeDegrees>-33.5368007607758045196533203125</LatitudeDegrees>
              <LongitudeDegrees>-70.23320342414081096649169921875</LongitudeDegrees>
            </Position>
            <AltitudeMeters>1852.800048828125</AltitudeMeters>
            <DistanceMeters>5585.2070162381</DistanceMeters>
          </Trackpoint>
          <Trackpoint>
            <Time>2019-08-04T18:13:23.000Z</Time>
            <Position>
              <LatitudeDegrees>-33.5367970727384090423583984375</LatitudeDegrees>
              <LongitudeDegrees>-70.23315195925533771514892578125</LongitudeDegrees>
            </Position>
            <AltitudeMeters>1851.800048828125</AltitudeMeters>
            <DistanceMeters>5589.9990392344</DistanceMeters>
          </Trackpoint>
          <Trackpoint>
            <Time>2019-08-04T18:13:24.000Z</Time>
            <Position>
              <LatitudeDegrees>-33.53678994812071323394775390625</LatitudeDegrees>
              <LongitudeDegrees>-70.23314173333346843719482421875</LongitudeDegrees>
            </Position>
            <AltitudeMeters>1851.4000244140625</AltitudeMeters>
            <DistanceMeters>5591.2307262249</DistanceMeters>
          </Trackpoint>
          <Trackpoint>
            <Time>2019-08-04T18:13:28.000Z</Time>
            <Position>
              <LatitudeDegrees>-33.53675834834575653076171875</LatitudeDegrees>
              <LongitudeDegrees>-70.23311977274715900421142578125</LongitudeDegrees>
            </Position>
            <AltitudeMeters>1850.5999755859375</AltitudeMeters>
            <DistanceMeters>5595.2958264564</DistanceMeters>
          </Trackpoint>
          <Trackpoint>
            <Time>2019-08-04T18:13:31.000Z</Time>
            <Position>
              <LatitudeDegrees>-33.5367434285581111907958984375</LatitudeDegrees>
              <LongitudeDegrees>-70.23311608470976352691650390625</LongitudeDegrees>
            </Position>
            <AltitudeMeters>1849.800048828125</AltitudeMeters>
            <DistanceMeters>5596.9903955194</DistanceMeters>
          </Trackpoint>
          <Trackpoint>
            <Time>2019-08-04T18:13:32.000Z</Time>
            <Position>
              <LatitudeDegrees>-33.53673798032104969024658203125</LatitudeDegrees>
              <LongitudeDegrees>-70.2331173419952392578125</LongitudeDegrees>
            </Position>
            <AltitudeMeters>1849.4000244140625</AltitudeMeters>
            <DistanceMeters>5597.6062390147</DistanceMeters>
          </Trackpoint>
          <Trackpoint>
            <Time>2019-08-04T18:13:35.000Z</Time>
            <Position>
              <LatitudeDegrees>-33.53672683238983154296875</LatitudeDegrees>
              <LongitudeDegrees>-70.233105607330799102783203125</LongitudeDegrees>
            </Position>
            <AltitudeMeters>1848.5999755859375</AltitudeMeters>
            <DistanceMeters>5599.2576272446</DistanceMeters>
          </Trackpoint>
          <Trackpoint>
            <Time>2019-08-04T18:13:36.000Z</Time>
            <Position>
              <LatitudeDegrees>-33.5367263294756412506103515625</LatitudeDegrees>
              <LongitudeDegrees>-70.23309865035116672515869140625</LongitudeDegrees>
            </Position>
            <AltitudeMeters>1848.4000244140625</AltitudeMeters>
            <DistanceMeters>5599.9021297787</DistanceMeters>
          </Trackpoint>
          <Trackpoint>
            <Time>2019-08-04T18:13:41.000Z</Time>
            <Position>
              <LatitudeDegrees>-33.5366666503250598907470703125</LatitudeDegrees>
              <LongitudeDegrees>-70.23310686461627483367919921875</LongitudeDegrees>
            </Position>
            <AltitudeMeters>1847.5999755859375</AltitudeMeters>
            <DistanceMeters>5606.5892022735</DistanceMeters>
          </Trackpoint>
          <Trackpoint>
            <Time>2019-08-04T18:13:43.000Z</Time>
            <Position>
              <LatitudeDegrees>-33.536644689738750457763671875</LatitudeDegrees>
              <LongitudeDegrees>-70.23310862481594085693359375</LongitudeDegrees>
            </Position>
            <AltitudeMeters>1847.199951171875</AltitudeMeters>
            <DistanceMeters>5609.0397125949</DistanceMeters>
          </Trackpoint>
          <Trackpoint>
            <Time>2019-08-04T18:13:44.000Z</Time>
            <Position>
              <LatitudeDegrees>-33.53663639165461063385009765625</LatitudeDegrees>
              <LongitudeDegrees>-70.23311306722462177276611328125</LongitudeDegrees>
            </Position>
            <AltitudeMeters>1847</AltitudeMeters>
            <DistanceMeters>5610.0543202602</DistanceMeters>
          </Trackpoint>
          <Trackpoint>
            <Time>2019-08-04T18:13:46.000Z</Time>
            <Position>
              <LatitudeDegrees>-33.53662365116178989410400390625</LatitudeDegrees>
              <LongitudeDegrees>-70.23311725817620754241943359375</LongitudeDegrees>
            </Position>
            <AltitudeMeters>1846.4000244140625</AltitudeMeters>
            <DistanceMeters>5611.526467789</DistanceMeters>
          </Trackpoint>
          <Trackpoint>
            <Time>2019-08-04T18:13:47.000Z</Time>
            <Position>
              <LatitudeDegrees>-33.53661560453474521636962890625</LatitudeDegrees>
              <LongitudeDegrees>-70.23311759345233440399169921875</LongitudeDegrees>
            </Position>
            <AltitudeMeters>1846.199951171875</AltitudeMeters>
            <DistanceMeters>5612.4279703569</DistanceMeters>
          </Trackpoint>
          <Trackpoint>
            <Time>2019-08-04T18:13:48.000Z</Time>
            <Position>
              <LatitudeDegrees>-33.53660705499351024627685546875</LatitudeDegrees>
              <LongitudeDegrees>-70.23311910219490528106689453125</LongitudeDegrees>
            </Position>
            <AltitudeMeters>1845.800048828125</AltitudeMeters>
            <DistanceMeters>5613.387693128</DistanceMeters>
          </Trackpoint>
          <Trackpoint>
            <Time>2019-08-04T18:13:51.000Z</Time>
            <Position>
              <LatitudeDegrees>-33.5365831665694713592529296875</LatitudeDegrees>
              <LongitudeDegrees>-70.23312211968004703521728515625</LongitudeDegrees>
            </Position>
            <AltitudeMeters>1845.199951171875</AltitudeMeters>
            <DistanceMeters>5616.0619819201</DistanceMeters>
          </Trackpoint>
          <Trackpoint>
            <Time>2019-08-04T18:13:52.000Z</Time>
            <Position>
              <LatitudeDegrees>-33.53657604195177555084228515625</LatitudeDegrees>
              <LongitudeDegrees>-70.233124382793903350830078125</LongitudeDegrees>
            </Position>
            <AltitudeMeters>1845</AltitudeMeters>
            <DistanceMeters>5616.8794326262</DistanceMeters>
          </Trackpoint>
          <Trackpoint>
            <Time>2019-08-04T18:13:53.000Z</Time>
            <Position>
              <LatitudeDegrees>-33.53657218627631664276123046875</LatitudeDegrees>
              <LongitudeDegrees>-70.2331242151558399200439453125</LongitudeDegrees>
            </Position>
            <AltitudeMeters>1845</AltitudeMeters>
            <DistanceMeters>5617.3044050122</DistanceMeters>
          </Trackpoint>
          <Trackpoint>
            <Time>2019-08-04T18:13:54.000Z</Time>
            <Position>
              <LatitudeDegrees>-33.53656698949635028839111328125</LatitudeDegrees>
              <LongitudeDegrees>-70.233123041689395904541015625</LongitudeDegrees>
            </Position>
            <AltitudeMeters>1844.800048828125</AltitudeMeters>
            <DistanceMeters>5617.8901890209</DistanceMeters>
          </Trackpoint>
          <Trackpoint>
            <Time>2019-08-04T18:13:55.000Z</Time>
            <Position>
              <LatitudeDegrees>-33.5365573503077030181884765625</LatitudeDegrees>
              <LongitudeDegrees>-70.23312513716518878936767578125</LongitudeDegrees>
            </Position>
            <AltitudeMeters>1844.5999755859375</AltitudeMeters>
            <DistanceMeters>5618.9736602654</DistanceMeters>
          </Trackpoint>
          <Trackpoint>
            <Time>2019-08-04T18:14:00.000Z</Time>
            <Position>
              <LatitudeDegrees>-33.5365151055157184600830078125</LatitudeDegrees>
              <LongitudeDegrees>-70.2331406436860561370849609375</LongitudeDegrees>
            </Position>
            <AltitudeMeters>1844.4000244140625</AltitudeMeters>
            <DistanceMeters>5623.8903171215</DistanceMeters>
          </Trackpoint>
          <Trackpoint>
            <Time>2019-08-04T18:14:07.000Z</Time>
            <Position>
              <LatitudeDegrees>-33.5364500619471073150634765625</LatitudeDegrees>
              <LongitudeDegrees>-70.23314625956118106842041015625</LongitudeDegrees>
            </Position>
            <AltitudeMeters>1844</AltitudeMeters>
            <DistanceMeters>5631.1485170343</DistanceMeters>
          </Trackpoint>
          <Trackpoint>
            <Time>2019-08-04T18:14:08.000Z</Time>
            <Position>
              <LatitudeDegrees>-33.53644109331071376800537109375</LatitudeDegrees>
              <LongitudeDegrees>-70.23314156569540500640869140625</LongitudeDegrees>
            </Position>
            <AltitudeMeters>1843.800048828125</AltitudeMeters>
            <DistanceMeters>5632.2402908619</DistanceMeters>
          </Trackpoint>
          <Trackpoint>
            <Time>2019-08-04T18:14:13.000Z</Time>
            <Position>
              <LatitudeDegrees>-33.5364188812673091888427734375</LatitudeDegrees>
              <LongitudeDegrees>-70.23310183547437191009521484375</LongitudeDegrees>
            </Position>
            <AltitudeMeters>1842.5999755859375</AltitudeMeters>
            <DistanceMeters>5636.6771328298</DistanceMeters>
          </Trackpoint>
          <Trackpoint>
            <Time>2019-08-04T18:14:16.000Z</Time>
            <Position>
              <LatitudeDegrees>-33.5364036262035369873046875</LatitudeDegrees>
              <LongitudeDegrees>-70.2330890111625194549560546875</LongitudeDegrees>
            </Position>
            <AltitudeMeters>1842.4000244140625</AltitudeMeters>
            <DistanceMeters>5638.7503709703</DistanceMeters>
          </Trackpoint>
          <Trackpoint>
            <Time>2019-08-04T18:14:18.000Z</Time>
            <Position>
              <LatitudeDegrees>-33.53639851324260234832763671875</LatitudeDegrees>
              <LongitudeDegrees>-70.2330839820206165313720703125</LongitudeDegrees>
            </Position>
            <AltitudeMeters>1841.4000244140625</AltitudeMeters>
            <DistanceMeters>5639.4864447347</DistanceMeters>
          </Trackpoint>
          <Trackpoint>
            <Time>2019-08-04T18:14:22.000Z</Time>
            <Position>
              <LatitudeDegrees>-33.5363615490496158599853515625</LatitudeDegrees>
              <LongitudeDegrees>-70.23307484574615955352783203125</LongitudeDegrees>
            </Position>
            <AltitudeMeters>1840.4000244140625</AltitudeMeters>
            <DistanceMeters>5643.6870124786</DistanceMeters>
          </Trackpoint>
          <Trackpoint>
            <Time>2019-08-04T18:14:25.000Z</Time>
            <Position>
              <LatitudeDegrees>-33.53633724153041839599609375</LatitudeDegrees>
              <LongitudeDegrees>-70.23305229842662811279296875</LongitudeDegrees>
            </Position>
            <AltitudeMeters>1839.800048828125</AltitudeMeters>
            <DistanceMeters>5647.1053335458</DistanceMeters>
          </Trackpoint>
          <Trackpoint>
            <Time>2019-08-04T18:14:28.000Z</Time>
            <Position>
              <LatitudeDegrees>-33.53632575832307338714599609375</LatitudeDegrees>
              <LongitudeDegrees>-70.23304467089474201202392578125</LongitudeDegrees>
            </Position>
            <AltitudeMeters>1839.4000244140625</AltitudeMeters>
            <DistanceMeters>5648.5651616319</DistanceMeters>
          </Trackpoint>
          <Trackpoint>
            <Time>2019-08-04T18:14:30.000Z</Time>
            <Position>
              <LatitudeDegrees>-33.53631905280053615570068359375</LatitudeDegrees>
              <LongitudeDegrees>-70.2330424077808856964111328125</LongitudeDegrees>
            </Position>
            <AltitudeMeters>1838.4000244140625</AltitudeMeters>
            <DistanceMeters>5649.3371623089</DistanceMeters>
          </Trackpoint>
          <Trackpoint>
            <Time>2019-08-04T18:14:31.000Z</Time>
            <Position>
              <LatitudeDegrees>-33.53630647994577884674072265625</LatitudeDegrees>
              <LongitudeDegrees>-70.233045928180217742919921875</LongitudeDegrees>
            </Position>
            <AltitudeMeters>1837.800048828125</AltitudeMeters>
            <DistanceMeters>5650.7783137867</DistanceMeters>
          </Trackpoint>
          <Trackpoint>
            <Time>2019-08-04T18:14:32.000Z</Time>
            <Position>
              <LatitudeDegrees>-33.53629474528133869171142578125</LatitudeDegrees>
              <LongitudeDegrees>-70.2330464310944080352783203125</LongitudeDegrees>
            </Position>
            <AltitudeMeters>1837.4000244140625</AltitudeMeters>
            <DistanceMeters>5652.0881666504</DistanceMeters>
          </Trackpoint>
          <Trackpoint>
            <Time>2019-08-04T18:14:33.000Z</Time>
            <Position>
              <LatitudeDegrees>-33.53628225624561309814453125</LatitudeDegrees>
              <LongitudeDegrees>-70.233049280941486358642578125</LongitudeDegrees>
            </Position>
            <AltitudeMeters>1837.4000244140625</AltitudeMeters>
            <DistanceMeters>5653.5040328059</DistanceMeters>
          </Trackpoint>
          <Trackpoint>
            <Time>2019-08-04T18:14:34.000Z</Time>
            <Position>
              <LatitudeDegrees>-33.5362703539431095123291015625</LatitudeDegrees>
              <LongitudeDegrees>-70.2330514602363109588623046875</LongitudeDegrees>
            </Position>
            <AltitudeMeters>1837.199951171875</AltitudeMeters>
            <DistanceMeters>5654.8445495766</DistanceMeters>
          </Trackpoint>
          <Trackpoint>
            <Time>2019-08-04T18:14:37.000Z</Time>
            <Position>
              <LatitudeDegrees>-33.5362452082335948944091796875</LatitudeDegrees>
              <LongitudeDegrees>-70.23304349742829799652099609375</LongitudeDegrees>
            </Position>
            <AltitudeMeters>1836.800048828125</AltitudeMeters>
            <DistanceMeters>5657.7393571591</DistanceMeters>
          </Trackpoint>
          <Trackpoint>
            <Time>2019-08-04T18:14:41.000Z</Time>
            <Position>
              <LatitudeDegrees>-33.53624428622424602508544921875</LatitudeDegrees>
              <LongitudeDegrees>-70.2330087125301361083984375</LongitudeDegrees>
            </Position>
            <AltitudeMeters>1836.199951171875</AltitudeMeters>
            <DistanceMeters>5660.9674693344</DistanceMeters>
          </Trackpoint>
          <Trackpoint>
            <Time>2019-08-04T18:14:43.000Z</Time>
            <Position>
              <LatitudeDegrees>-33.53624068200588226318359375</LatitudeDegrees>
              <LongitudeDegrees>-70.23299337364733219146728515625</LongitudeDegrees>
            </Position>
            <AltitudeMeters>1835.4000244140625</AltitudeMeters>
            <DistanceMeters>5662.4426806491</DistanceMeters>
          </Trackpoint>
          <Trackpoint>
            <Time>2019-08-04T18:14:46.000Z</Time>
            <Position>
              <LatitudeDegrees>-33.5362267680466175079345703125</LatitudeDegrees>
              <LongitudeDegrees>-70.23297124542295932769775390625</LongitudeDegrees>
            </Position>
            <AltitudeMeters>1834.4000244140625</AltitudeMeters>
            <DistanceMeters>5665.0136757788</DistanceMeters>
          </Trackpoint>
          <Trackpoint>
            <Time>2019-08-04T18:14:49.000Z</Time>
            <Position>
              <LatitudeDegrees>-33.53621494956314563751220703125</LatitudeDegrees>
              <LongitudeDegrees>-70.23294366896152496337890625</LongitudeDegrees>
            </Position>
            <AltitudeMeters>1833.800048828125</AltitudeMeters>
            <DistanceMeters>5667.889706033</DistanceMeters>
          </Trackpoint>
          <Trackpoint>
            <Time>2019-08-04T18:14:52.000Z</Time>
            <Position>
              <LatitudeDegrees>-33.53621344082057476043701171875</LatitudeDegrees>
              <LongitudeDegrees>-70.2329069562256336212158203125</LongitudeDegrees>
            </Position>
            <AltitudeMeters>1833.4000244140625</AltitudeMeters>
            <DistanceMeters>5671.300092882</DistanceMeters>
          </Trackpoint>
          <Trackpoint>
            <Time>2019-08-04T18:14:53.000Z</Time>
            <Position>
              <LatitudeDegrees>-33.5362113453447818756103515625</LatitudeDegrees>
              <LongitudeDegrees>-70.2328958921134471893310546875</LongitudeDegrees>
            </Position>
            <AltitudeMeters>1833.199951171875</AltitudeMeters>
            <DistanceMeters>5672.3496972484</DistanceMeters>
          </Trackpoint>
          <Trackpoint>
            <Time>2019-08-04T18:14:54.000Z</Time>
            <Position>
              <LatitudeDegrees>-33.53621176443994045257568359375</LatitudeDegrees>
              <LongitudeDegrees>-70.23288457654416561126708984375</LongitudeDegrees>
            </Position>
            <AltitudeMeters>1833</AltitudeMeters>
            <DistanceMeters>5673.4035944933</DistanceMeters>
          </Trackpoint>
          <Trackpoint>
            <Time>2019-08-04T18:14:56.000Z</Time>
            <Position>
              <LatitudeDegrees>-33.5362079925835132598876953125</LatitudeDegrees>
              <LongitudeDegrees>-70.23286445997655391693115234375</LongitudeDegrees>
            </Position>
            <AltitudeMeters>1832.5999755859375</AltitudeMeters>
            <DistanceMeters>5675.3183297325</DistanceMeters>
          </Trackpoint>
          <Trackpoint>
            <Time>2019-08-04T18:14:59.000Z</Time>
            <Position>
              <LatitudeDegrees>-33.5362076573073863983154296875</LatitudeDegrees>
              <LongitudeDegrees>-70.23282565176486968994140625</LongitudeDegrees>
            </Position>
            <AltitudeMeters>1832.199951171875</AltitudeMeters>
            <DistanceMeters>5678.9193281737</DistanceMeters>
          </Trackpoint>
          <Trackpoint>
            <Time>2019-08-04T18:15:03.000Z</Time>
            <Position>
              <LatitudeDegrees>-33.53620623238384723663330078125</LatitudeDegrees>
              <LongitudeDegrees>-70.2327684871852397918701171875</LongitudeDegrees>
            </Position>
            <AltitudeMeters>1831</AltitudeMeters>
            <DistanceMeters>5684.22553005</DistanceMeters>
          </Trackpoint>
          <Trackpoint>
            <Time>2019-08-04T18:15:05.000Z</Time>
            <Position>
              <LatitudeDegrees>-33.53620640002191066741943359375</LatitudeDegrees>
              <LongitudeDegrees>-70.23273537866771221160888671875</LongitudeDegrees>
            </Position>
            <AltitudeMeters>1830</AltitudeMeters>
            <DistanceMeters>5687.2988767535</DistanceMeters>
          </Trackpoint>
          <Trackpoint>
            <Time>2019-08-04T18:15:09.000Z</Time>
            <Position>
              <LatitudeDegrees>-33.5362103395164012908935546875</LatitudeDegrees>
              <LongitudeDegrees>-70.23267888464033603668212890625</LongitudeDegrees>
            </Position>
            <AltitudeMeters>1829</AltitudeMeters>
            <DistanceMeters>5692.5589294362</DistanceMeters>
          </Trackpoint>
          <Trackpoint>
            <Time>2019-08-04T18:15:10.000Z</Time>
            <Position>
              <LatitudeDegrees>-33.53621059097349643707275390625</LatitudeDegrees>
              <LongitudeDegrees>-70.23266849108040332794189453125</LongitudeDegrees>
            </Position>
            <AltitudeMeters>1828.5999755859375</AltitudeMeters>
            <DistanceMeters>5693.528015578</DistanceMeters>
          </Trackpoint>
          <Trackpoint>
            <Time>2019-08-04T18:15:12.000Z</Time>
            <Position>
              <LatitudeDegrees>-33.53619919158518314361572265625</LatitudeDegrees>
              <LongitudeDegrees>-70.23264904506504535675048828125</LongitudeDegrees>
            </Position>
            <AltitudeMeters>1827.800048828125</AltitudeMeters>
            <DistanceMeters>5695.7362368712</DistanceMeters>
          </Trackpoint>
          <Trackpoint>
            <Time>2019-08-04T18:15:13.000Z</Time>
            <Position>
              <LatitudeDegrees>-33.5361895523965358734130859375</LatitudeDegrees>
              <LongitudeDegrees>-70.23263546638190746307373046875</LongitudeDegrees>
            </Position>
            <AltitudeMeters>1827.5999755859375</AltitudeMeters>
            <DistanceMeters>5697.3930842507</DistanceMeters>
          </Trackpoint>
          <Trackpoint>
            <Time>2019-08-04T18:15:17.000Z</Time>
            <Position>
              <LatitudeDegrees>-33.53614185936748981475830078125</LatitudeDegrees>
              <LongitudeDegrees>-70.232587270438671112060546875</LongitudeDegrees>
            </Position>
            <AltitudeMeters>1826.5999755859375</AltitudeMeters>
            <DistanceMeters>5704.3332879762</DistanceMeters>
          </Trackpoint>
          <Trackpoint>
            <Time>2019-08-04T18:15:18.000Z</Time>
            <Position>
              <LatitudeDegrees>-33.536132387816905975341796875</LatitudeDegrees>
              <LongitudeDegrees>-70.23257813416421413421630859375</LongitudeDegrees>
            </Position>
            <AltitudeMeters>1826.199951171875</AltitudeMeters>
            <DistanceMeters>5705.6905409352</DistanceMeters>
          </Trackpoint>
          <Trackpoint>
            <Time>2019-08-04T18:15:22.000Z</Time>
            <Position>
              <LatitudeDegrees>-33.536117635667324066162109375</LatitudeDegrees>
              <LongitudeDegrees>-70.23252935148775577545166015625</LongitudeDegrees>
            </Position>
            <AltitudeMeters>1824.5999755859375</AltitudeMeters>
            <DistanceMeters>5710.5051235995</DistanceMeters>
          </Trackpoint>
          <Trackpoint>
            <Time>2019-08-04T18:15:23.000Z</Time>
            <Position>
              <LatitudeDegrees>-33.5361166298389434814453125</LatitudeDegrees>
              <LongitudeDegrees>-70.23251744918525218963623046875</LongitudeDegrees>
            </Position>
            <AltitudeMeters>1824.199951171875</AltitudeMeters>
            <DistanceMeters>5711.6133159999</DistanceMeters>
          </Trackpoint>
          <Trackpoint>
            <Time>2019-08-04T18:15:25.000Z</Time>
            <Position>
              <LatitudeDegrees>-33.53610866703093051910400390625</LatitudeDegrees>
              <LongitudeDegrees>-70.232488028705120086669921875</LongitudeDegrees>
            </Position>
            <AltitudeMeters>1823.199951171875</AltitudeMeters>
            <DistanceMeters>5714.4830598416</DistanceMeters>
          </Trackpoint>
          <Trackpoint>
            <Time>2019-08-04T18:15:27.000Z</Time>
            <Position>
              <LatitudeDegrees>-33.53610196150839328765869140625</LatitudeDegrees>
              <LongitudeDegrees>-70.2324576862156391143798828125</LongitudeDegrees>
            </Position>
            <AltitudeMeters>1822.4000244140625</AltitudeMeters>
            <DistanceMeters>5717.3949736076</DistanceMeters>
          </Trackpoint>
          <Trackpoint>
            <Time>2019-08-04T18:15:28.000Z</Time>
            <Position>
              <LatitudeDegrees>-33.53610229678452014923095703125</LatitudeDegrees>
              <LongitudeDegrees>-70.23244620300829410552978515625</LongitudeDegrees>
            </Position>
            <AltitudeMeters>1821.800048828125</AltitudeMeters>
            <DistanceMeters>5718.4616458309</DistanceMeters>
          </Trackpoint>
          <Trackpoint>
            <Time>2019-08-04T18:15:29.000Z</Time>
            <Position>
              <LatitudeDegrees>-33.53609994985163211822509765625</LatitudeDegrees>
              <LongitudeDegrees>-70.23243295960128307342529296875</LongitudeDegrees>
            </Position>
            <AltitudeMeters>1821.5999755859375</AltitudeMeters>
            <DistanceMeters>5719.7151342837</DistanceMeters>
          </Trackpoint>
          <Trackpoint>
            <Time>2019-08-04T18:15:32.000Z</Time>
            <Position>
              <LatitudeDegrees>-33.53607463650405406951904296875</LatitudeDegrees>
              <LongitudeDegrees>-70.232410244643688201904296875</LongitudeDegrees>
            </Position>
            <AltitudeMeters>1820.4000244140625</AltitudeMeters>
            <DistanceMeters>5723.2336900677</DistanceMeters>
          </Trackpoint>
          <Trackpoint>
            <Time>2019-08-04T18:15:34.000Z</Time>
            <Position>
              <LatitudeDegrees>-33.53605602867901325225830078125</LatitudeDegrees>
              <LongitudeDegrees>-70.23239918053150177001953125</LongitudeDegrees>
            </Position>
            <AltitudeMeters>1820</AltitudeMeters>
            <DistanceMeters>5725.5457898178</DistanceMeters>
          </Trackpoint>
          <Trackpoint>
            <Time>2019-08-04T18:15:35.000Z</Time>
            <Position>
              <LatitudeDegrees>-33.53604898788034915924072265625</LatitudeDegrees>
              <LongitudeDegrees>-70.232390463352203369140625</LongitudeDegrees>
            </Position>
            <AltitudeMeters>1819.800048828125</AltitudeMeters>
            <DistanceMeters>5726.6701610653</DistanceMeters>
          </Trackpoint>
          <Trackpoint>
            <Time>2019-08-04T18:15:37.000Z</Time>
            <Position>
              <LatitudeDegrees>-33.5360366664826869964599609375</LatitudeDegrees>
              <LongitudeDegrees>-70.23237411864101886749267578125</LongitudeDegrees>
            </Position>
            <AltitudeMeters>1819.199951171875</AltitudeMeters>
            <DistanceMeters>5728.7148921952</DistanceMeters>
          </Trackpoint>
          <Trackpoint>
            <Time>2019-08-04T18:15:41.000Z</Time>
            <Position>
              <LatitudeDegrees>-33.53602744638919830322265625</LatitudeDegrees>
              <LongitudeDegrees>-70.232354588806629180908203125</LongitudeDegrees>
            </Position>
            <AltitudeMeters>1817.800048828125</AltitudeMeters>
            <DistanceMeters>5730.7968231963</DistanceMeters>
          </Trackpoint>
          <Trackpoint>
            <Time>2019-08-04T18:15:44.000Z</Time>
            <Position>
              <LatitudeDegrees>-33.536021076142787933349609375</LatitudeDegrees>
              <LongitudeDegrees>-70.2323410101234912872314453125</LongitudeDegrees>
            </Position>
            <AltitudeMeters>1817</AltitudeMeters>
            <DistanceMeters>5732.2442269875</DistanceMeters>
          </Trackpoint>
          <Trackpoint>
            <Time>2019-08-04T18:15:45.000Z</Time>
            <Position>
              <LatitudeDegrees>-33.5360188968479633331298828125</LatitudeDegrees>
              <LongitudeDegrees>-70.23233505897223949432373046875</LongitudeDegrees>
            </Position>
            <AltitudeMeters>1816.800048828125</AltitudeMeters>
            <DistanceMeters>5732.8452286995</DistanceMeters>
          </Trackpoint>
          <Trackpoint>
            <Time>2019-08-04T18:15:49.000Z</Time>
            <Position>
              <LatitudeDegrees>-33.5360142029821872711181640625</LatitudeDegrees>
              <LongitudeDegrees>-70.2323182113468647003173828125</LongitudeDegrees>
            </Position>
            <AltitudeMeters>1816</AltitudeMeters>
            <DistanceMeters>5734.4911396731</DistanceMeters>
          </Trackpoint>
          <Trackpoint>
            <Time>2019-08-04T18:15:52.000Z</Time>
            <Position>
              <LatitudeDegrees>-33.53599182330071926116943359375</LatitudeDegrees>
              <LongitudeDegrees>-70.23229734040796756744384765625</LongitudeDegrees>
            </Position>
            <AltitudeMeters>1815.800048828125</AltitudeMeters>
            <DistanceMeters>5737.6456831015</DistanceMeters>
          </Trackpoint>
          <Trackpoint>
            <Time>2019-08-04T18:15:55.000Z</Time>
            <Position>
              <LatitudeDegrees>-33.5359729640185832977294921875</LatitudeDegrees>
              <LongitudeDegrees>-70.23227554745972156524658203125</LongitudeDegrees>
            </Position>
            <AltitudeMeters>1815.199951171875</AltitudeMeters>
            <DistanceMeters>5740.5591469947</DistanceMeters>
          </Trackpoint>
          <Trackpoint>
            <Time>2019-08-04T18:16:02.000Z</Time>
            <Position>
              <LatitudeDegrees>-33.535921834409236907958984375</LatitudeDegrees>
              <LongitudeDegrees>-70.2322397567331790924072265625</LongitudeDegrees>
            </Position>
            <AltitudeMeters>1814.4000244140625</AltitudeMeters>
            <DistanceMeters>5747.1482749751</DistanceMeters>
          </Trackpoint>
          <Trackpoint>
            <Time>2019-08-04T18:16:04.000Z</Time>
            <Position>
              <LatitudeDegrees>-33.5359002090990543365478515625</LatitudeDegrees>
              <LongitudeDegrees>-70.23222207091748714447021484375</LongitudeDegrees>
            </Position>
            <AltitudeMeters>1814</AltitudeMeters>
            <DistanceMeters>5750.0601887412</DistanceMeters>
          </Trackpoint>
          <Trackpoint>
            <Time>2019-08-04T18:16:08.000Z</Time>
            <Position>
              <LatitudeDegrees>-33.53587028570473194122314453125</LatitudeDegrees>
              <LongitudeDegrees>-70.2321773953735828399658203125</LongitudeDegrees>
            </Position>
            <AltitudeMeters>1813</AltitudeMeters>
            <DistanceMeters>5755.3765915918</DistanceMeters>
          </Trackpoint>
          <Trackpoint>
            <Time>2019-08-04T18:16:10.000Z</Time>
            <Position>
              <LatitudeDegrees>-33.535856790840625762939453125</LatitudeDegrees>
              <LongitudeDegrees>-70.232159458100795745849609375</LongitudeDegrees>
            </Position>
            <AltitudeMeters>1812.199951171875</AltitudeMeters>
            <DistanceMeters>5757.6152725486</DistanceMeters>
          </Trackpoint>
          <Trackpoint>
            <Time>2019-08-04T18:16:11.000Z</Time>
            <Position>
              <LatitudeDegrees>-33.535846062004566192626953125</LatitudeDegrees>
              <LongitudeDegrees>-70.2321539260447025299072265625</LongitudeDegrees>
            </Position>
            <AltitudeMeters>1811.800048828125</AltitudeMeters>
            <DistanceMeters>5758.9147433236</DistanceMeters>
          </Trackpoint>
          <Trackpoint>
            <Time>2019-08-04T18:16:14.000Z</Time>
            <Position>
              <LatitudeDegrees>-33.5358036495745182037353515625</LatitudeDegrees>
              <LongitudeDegrees>-70.23213473148643970489501953125</LongitudeDegrees>
            </Position>
            <AltitudeMeters>1810.800048828125</AltitudeMeters>
            <DistanceMeters>5763.9592210387</DistanceMeters>
          </Trackpoint>
          <Trackpoint>
            <Time>2019-08-04T18:16:16.000Z</Time>
            <Position>
              <LatitudeDegrees>-33.53578110225498676300048828125</LatitudeDegrees>
              <LongitudeDegrees>-70.23210941813886165618896484375</LongitudeDegrees>
            </Position>
            <AltitudeMeters>1809.5999755859375</AltitudeMeters>
            <DistanceMeters>5767.3972975453</DistanceMeters>
          </Trackpoint>
          <Trackpoint>
            <Time>2019-08-04T18:16:18.000Z</Time>
            <Position>
              <LatitudeDegrees>-33.53574874810874462127685546875</LatitudeDegrees>
              <LongitudeDegrees>-70.23208309896290302276611328125</LongitudeDegrees>
            </Position>
            <AltitudeMeters>1809.199951171875</AltitudeMeters>
            <DistanceMeters>5771.7478193791</DistanceMeters>
          </Trackpoint>
          <Trackpoint>
            <Time>2019-08-04T18:16:19.000Z</Time>
            <Position>
              <LatitudeDegrees>-33.5357339121401309967041015625</LatitudeDegrees>
              <LongitudeDegrees>-70.23206918500363826751708984375</LongitudeDegrees>
            </Position>
            <AltitudeMeters>1808.800048828125</AltitudeMeters>
            <DistanceMeters>5773.8448761805</DistanceMeters>
          </Trackpoint>
          <Trackpoint>
            <Time>2019-08-04T18:16:20.000Z</Time>
            <Position>
              <LatitudeDegrees>-33.53572544641792774200439453125</LatitudeDegrees>
              <LongitudeDegrees>-70.2320540137588977813720703125</LongitudeDegrees>
            </Position>
            <AltitudeMeters>1808.199951171875</AltitudeMeters>
            <DistanceMeters>5775.5394452435</DistanceMeters>
          </Trackpoint>
          <Trackpoint>
            <Time>2019-08-04T18:16:22.000Z</Time>
            <Position>
              <LatitudeDegrees>-33.535709939897060394287109375</LatitudeDegrees>
              <LongitudeDegrees>-70.2320406027138233184814453125</LongitudeDegrees>
            </Position>
            <AltitudeMeters>1807</AltitudeMeters>
            <DistanceMeters>5777.6685526562</DistanceMeters>
          </Trackpoint>
          <Trackpoint>
            <Time>2019-08-04T18:16:23.000Z</Time>
            <Position>
              <LatitudeDegrees>-33.53570021688938140869140625</LatitudeDegrees>
              <LongitudeDegrees>-70.2320395968854427337646484375</LongitudeDegrees>
            </Position>
            <AltitudeMeters>1806.5999755859375</AltitudeMeters>
            <DistanceMeters>5778.7520239007</DistanceMeters>
          </Trackpoint>
          <Trackpoint>
            <Time>2019-08-04T18:16:24.000Z</Time>
            <Position>
              <LatitudeDegrees>-33.53569124825298786163330078125</LatitudeDegrees>
              <LongitudeDegrees>-70.23204110562801361083984375</LongitudeDegrees>
            </Position>
            <AltitudeMeters>1806.4000244140625</AltitudeMeters>
            <DistanceMeters>5779.7576921173</DistanceMeters>
          </Trackpoint>
          <Trackpoint>
            <Time>2019-08-04T18:16:25.000Z</Time>
            <Position>
              <LatitudeDegrees>-33.53568035177886486053466796875</LatitudeDegrees>
              <LongitudeDegrees>-70.2320419438183307647705078125</LongitudeDegrees>
            </Position>
            <AltitudeMeters>1805.800048828125</AltitudeMeters>
            <DistanceMeters>5780.9746278332</DistanceMeters>
          </Trackpoint>
          <Trackpoint>
            <Time>2019-08-04T18:16:28.000Z</Time>
            <Position>
              <LatitudeDegrees>-33.5356460697948932647705078125</LatitudeDegrees>
              <LongitudeDegrees>-70.232052505016326904296875</LongitudeDegrees>
            </Position>
            <AltitudeMeters>1804.5999755859375</AltitudeMeters>
            <DistanceMeters>5784.9133676483</DistanceMeters>
          </Trackpoint>
          <Trackpoint>
            <Time>2019-08-04T18:16:30.000Z</Time>
            <Position>
              <LatitudeDegrees>-33.5356303118169307708740234375</LatitudeDegrees>
              <LongitudeDegrees>-70.23206197656691074371337890625</LongitudeDegrees>
            </Position>
            <AltitudeMeters>1804.199951171875</AltitudeMeters>
            <DistanceMeters>5786.8700874576</DistanceMeters>
          </Trackpoint>
          <Trackpoint>
            <Time>2019-08-04T18:16:31.000Z</Time>
            <Position>
              <LatitudeDegrees>-33.53562167845666408538818359375</LatitudeDegrees>
              <LongitudeDegrees>-70.23206784389913082122802734375</LongitudeDegrees>
            </Position>
            <AltitudeMeters>1804.199951171875</AltitudeMeters>
            <DistanceMeters>5787.978279858</DistanceMeters>
          </Trackpoint>
          <Trackpoint>
            <Time>2019-08-04T18:16:35.000Z</Time>
            <Position>
              <LatitudeDegrees>-33.53559502400457859039306640625</LatitudeDegrees>
              <LongitudeDegrees>-70.23210271261632442474365234375</LongitudeDegrees>
            </Position>
            <AltitudeMeters>1803.4000244140625</AltitudeMeters>
            <DistanceMeters>5792.3680615305</DistanceMeters>
          </Trackpoint>
          <Trackpoint>
            <Time>2019-08-04T18:16:38.000Z</Time>
            <Position>
              <LatitudeDegrees>-33.53557289578020572662353515625</LatitudeDegrees>
              <LongitudeDegrees>-70.23212961852550506591796875</LongitudeDegrees>
            </Position>
            <AltitudeMeters>1803</AltitudeMeters>
            <DistanceMeters>5795.8750494284</DistanceMeters>
          </Trackpoint>
          <Trackpoint>
            <Time>2019-08-04T18:16:39.000Z</Time>
            <Position>
              <LatitudeDegrees>-33.53556434623897075653076171875</LatitudeDegrees>
              <LongitudeDegrees>-70.23213909007608890533447265625</LongitudeDegrees>
            </Position>
            <AltitudeMeters>1802.800048828125</AltitudeMeters>
            <DistanceMeters>5797.1640544966</DistanceMeters>
          </Trackpoint>
          <Trackpoint>
            <Time>2019-08-04T18:16:42.000Z</Time>
            <Position>
              <LatitudeDegrees>-33.53553132154047489166259765625</LatitudeDegrees>
              <LongitudeDegrees>-70.23216440342366695404052734375</LongitudeDegrees>
            </Position>
            <AltitudeMeters>1802.5999755859375</AltitudeMeters>
            <DistanceMeters>5801.5259773601</DistanceMeters>
          </Trackpoint>
          <Trackpoint>
            <Time>2019-08-04T18:16:46.000Z</Time>
            <Position>
              <LatitudeDegrees>-33.5354814492166042327880859375</LatitudeDegrees>
              <LongitudeDegrees>-70.2322112582623958587646484375</LongitudeDegrees>
            </Position>
            <AltitudeMeters>1802.4000244140625</AltitudeMeters>
            <DistanceMeters>5808.5771900856</DistanceMeters>
          </Trackpoint>
          <Trackpoint>
            <Time>2019-08-04T18:16:47.000Z</Time>
            <Position>
              <LatitudeDegrees>-33.53547667153179645538330078125</LatitudeDegrees>
              <LongitudeDegrees>-70.2322152815759181976318359375</LongitudeDegrees>
            </Position>
            <AltitudeMeters>1802.4000244140625</AltitudeMeters>
            <DistanceMeters>5809.2216926197</DistanceMeters>
          </Trackpoint>
          <Trackpoint>
            <Time>2019-08-04T18:16:51.000Z</Time>
            <Position>
              <LatitudeDegrees>-33.53545839898288249969482421875</LatitudeDegrees>
              <LongitudeDegrees>-70.23223799653351306915283203125</LongitudeDegrees>
            </Position>
            <AltitudeMeters>1802.199951171875</AltitudeMeters>
            <DistanceMeters>5812.1506126633</DistanceMeters>
          </Trackpoint>
          <Trackpoint>
            <Time>2019-08-04T18:16:56.000Z</Time>
            <Position>
              <LatitudeDegrees>-33.5354340076446533203125</LatitudeDegrees>
              <LongitudeDegrees>-70.23228426463901996612548828125</LongitudeDegrees>
            </Position>
            <AltitudeMeters>1802</AltitudeMeters>
            <DistanceMeters>5817.2298772164</DistanceMeters>
          </Trackpoint>
          <Trackpoint>
            <Time>2019-08-04T18:16:59.000Z</Time>
            <Position>
              <LatitudeDegrees>-33.53541716001927852630615234375</LatitudeDegrees>
              <LongitudeDegrees>-70.2323017828166484832763671875</LongitudeDegrees>
            </Position>
            <AltitudeMeters>1802.199951171875</AltitudeMeters>
            <DistanceMeters>5819.7115121885</DistanceMeters>
          </Trackpoint>
          <Trackpoint>
            <Time>2019-08-04T18:17:06.000Z</Time>
            <Position>
              <LatitudeDegrees>-33.535361923277378082275390625</LatitudeDegrees>
              <LongitudeDegrees>-70.2323158644139766693115234375</LongitudeDegrees>
            </Position>
            <AltitudeMeters>1802.4000244140625</AltitudeMeters>
            <DistanceMeters>5825.9969385418</DistanceMeters>
          </Trackpoint>
          <Trackpoint>
            <Time>2019-08-04T18:17:07.000Z</Time>
            <Position>
              <LatitudeDegrees>-33.53534993715584278106689453125</LatitudeDegrees>
              <LongitudeDegrees>-70.23231779225170612335205078125</LongitudeDegrees>
            </Position>
            <AltitudeMeters>1802.4000244140625</AltitudeMeters>
            <DistanceMeters>5827.3408192243</DistanceMeters>
          </Trackpoint>
          <Trackpoint>
            <Time>2019-08-04T18:17:08.000Z</Time>
            <Position>
              <LatitudeDegrees>-33.535341806709766387939453125</LatitudeDegrees>
              <LongitudeDegrees>-70.23231661878526210784912109375</LongitudeDegrees>
            </Position>
            <AltitudeMeters>1802.5999755859375</AltitudeMeters>
            <DistanceMeters>5828.2522834489</DistanceMeters>
          </Trackpoint>
          <Trackpoint>
            <Time>2019-08-04T18:17:10.000Z</Time>
            <Position>
              <LatitudeDegrees>-33.53532428853213787078857421875</LatitudeDegrees>
              <LongitudeDegrees>-70.23231745697557926177978515625</LongitudeDegrees>
            </Position>
            <AltitudeMeters>1802.5999755859375</AltitudeMeters>
            <DistanceMeters>5830.2043828981</DistanceMeters>
          </Trackpoint>
          <Trackpoint>
            <Time>2019-08-04T18:17:16.000Z</Time>
            <Position>
              <LatitudeDegrees>-33.53527240455150604248046875</LatitudeDegrees>
              <LongitudeDegrees>-70.23229750804603099822998046875</LongitudeDegrees>
            </Position>
            <AltitudeMeters>1801</AltitudeMeters>
            <DistanceMeters>5836.2682489322</DistanceMeters>
          </Trackpoint>
          <Trackpoint>
            <Time>2019-08-04T18:17:19.000Z</Time>
            <Position>
              <LatitudeDegrees>-33.535266704857349395751953125</LatitudeDegrees>
              <LongitudeDegrees>-70.23225811310112476348876953125</LongitudeDegrees>
            </Position>
            <AltitudeMeters>1799.800048828125</AltitudeMeters>
            <DistanceMeters>5839.9779438658</DistanceMeters>
          </Trackpoint>
          <Trackpoint>
            <Time>2019-08-04T18:17:24.000Z</Time>
            <Position>
              <LatitudeDegrees>-33.53528019972145557403564453125</LatitudeDegrees>
              <LongitudeDegrees>-70.23218854330480098724365234375</LongitudeDegrees>
            </Position>
            <AltitudeMeters>1799</AltitudeMeters>
            <DistanceMeters>5846.6039707048</DistanceMeters>
          </Trackpoint>
          <Trackpoint>
            <Time>2019-08-04T18:17:25.000Z</Time>
            <Position>
              <LatitudeDegrees>-33.53528103791177272796630859375</LatitudeDegrees>
              <LongitudeDegrees>-70.23217228241264820098876953125</LongitudeDegrees>
            </Position>
            <AltitudeMeters>1798.800048828125</AltitudeMeters>
            <DistanceMeters>5848.1184473196</DistanceMeters>
          </Trackpoint>
          <Trackpoint>
            <Time>2019-08-04T18:17:27.000Z</Time>
            <Position>
              <LatitudeDegrees>-33.53527165018022060394287109375</LatitudeDegrees>
              <LongitudeDegrees>-70.2321421913802623748779296875</LongitudeDegrees>
            </Position>
            <AltitudeMeters>1798.800048828125</AltitudeMeters>
            <DistanceMeters>5851.0993188735</DistanceMeters>
          </Trackpoint>
          <Trackpoint>
            <Time>2019-08-04T18:17:35.000Z</Time>
            <Position>
              <LatitudeDegrees>-33.5352293215692043304443359375</LatitudeDegrees>
              <LongitudeDegrees>-70.232082344591617584228515625</LongitudeDegrees>
            </Position>
            <AltitudeMeters>1798</AltitudeMeters>
            <DistanceMeters>5858.3811187113</DistanceMeters>
          </Trackpoint>
          <Trackpoint>
            <Time>2019-08-04T18:17:39.000Z</Time>
            <Position>
              <LatitudeDegrees>-33.5352303273975849151611328125</LatitudeDegrees>
              <LongitudeDegrees>-70.232083015143871307373046875</LongitudeDegrees>
            </Position>
            <AltitudeMeters>1798</AltitudeMeters>
            <DistanceMeters>5858.5155067796</DistanceMeters>
          </Trackpoint>
          <Trackpoint>
            <Time>2019-08-04T18:17:40.000Z</Time>
            <Position>
              <LatitudeDegrees>-33.53522772900760173797607421875</LatitudeDegrees>
              <LongitudeDegrees>-70.23208293132483959197998046875</LongitudeDegrees>
            </Position>
            <AltitudeMeters>1797.800048828125</AltitudeMeters>
            <DistanceMeters>5858.7842829161</DistanceMeters>
          </Trackpoint>
          <Trackpoint>
            <Time>2019-08-04T18:17:41.000Z</Time>
            <Position>
              <LatitudeDegrees>-33.53522521443665027618408203125</LatitudeDegrees>
              <LongitudeDegrees>-70.23208326660096645355224609375</LongitudeDegrees>
            </Position>
            <AltitudeMeters>1797.800048828125</AltitudeMeters>
            <DistanceMeters>5859.0530590526</DistanceMeters>
          </Trackpoint>
          <Trackpoint>
            <Time>2019-08-04T18:17:47.000Z</Time>
            <Position>
              <LatitudeDegrees>-33.53523493744432926177978515625</LatitudeDegrees>
              <LongitudeDegrees>-70.23208762519061565399169921875</LongitudeDegrees>
            </Position>
            <AltitudeMeters>1797.5999755859375</AltitudeMeters>
            <DistanceMeters>5860.2091089277</DistanceMeters>
          </Trackpoint>
          <Trackpoint>
            <Time>2019-08-04T18:17:49.000Z</Time>
            <Position>
              <LatitudeDegrees>-33.53524080477654933929443359375</LatitudeDegrees>
              <LongitudeDegrees>-70.23208804428577423095703125</LongitudeDegrees>
            </Position>
            <AltitudeMeters>1797.5999755859375</AltitudeMeters>
            <DistanceMeters>5860.8674733171</DistanceMeters>
          </Trackpoint>
          <Trackpoint>
            <Time>2019-08-04T18:17:50.000Z</Time>
            <Position>
              <LatitudeDegrees>-33.53523560799658298492431640625</LatitudeDegrees>
              <LongitudeDegrees>-70.2320872060954570770263671875</LongitudeDegrees>
            </Position>
            <AltitudeMeters>1797.800048828125</AltitudeMeters>
            <DistanceMeters>5861.4532573259</DistanceMeters>
          </Trackpoint>
          <Trackpoint>
            <Time>2019-08-04T18:17:56.000Z</Time>
            <Position>
              <LatitudeDegrees>-33.535193614661693572998046875</LatitudeDegrees>
              <LongitudeDegrees>-70.2320650778710842132568359375</LongitudeDegrees>
            </Position>
            <AltitudeMeters>1797.5999755859375</AltitudeMeters>
            <DistanceMeters>5866.5582353491</DistanceMeters>
          </Trackpoint>
          <Trackpoint>
            <Time>2019-08-04T18:18:05.000Z</Time>
            <Position>
              <LatitudeDegrees>-33.53513292968273162841796875</LatitudeDegrees>
              <LongitudeDegrees>-70.2320184744894504547119140625</LongitudeDegrees>
            </Position>
            <AltitudeMeters>1798</AltitudeMeters>
            <DistanceMeters>5874.5782873757</DistanceMeters>
          </Trackpoint>
          <Trackpoint>
            <Time>2019-08-04T18:18:08.000Z</Time>
            <Position>
              <LatitudeDegrees>-33.53512781672179698944091796875</LatitudeDegrees>
              <LongitudeDegrees>-70.232011266052722930908203125</LongitudeDegrees>
            </Position>
            <AltitudeMeters>1798.199951171875</AltitudeMeters>
            <DistanceMeters>5875.4595288717</DistanceMeters>
          </Trackpoint>
          <Trackpoint>
            <Time>2019-08-04T18:18:17.000Z</Time>
            <Position>
              <LatitudeDegrees>-33.5351300798356533050537109375</LatitudeDegrees>
              <LongitudeDegrees>-70.23202325217425823211669921875</LongitudeDegrees>
            </Position>
            <AltitudeMeters>1798.4000244140625</AltitudeMeters>
            <DistanceMeters>5876.5998494441</DistanceMeters>
          </Trackpoint>
          <Trackpoint>
            <Time>2019-08-04T18:18:29.000Z</Time>
            <Position>
              <LatitudeDegrees>-33.53515983559191226959228515625</LatitudeDegrees>
              <LongitudeDegrees>-70.23207572288811206817626953125</LongitudeDegrees>
            </Position>
            <AltitudeMeters>1798.4000244140625</AltitudeMeters>
            <DistanceMeters>5882.4876727659</DistanceMeters>
          </Trackpoint>
          <Trackpoint>
            <Time>2019-08-04T18:18:33.000Z</Time>
            <Position>
              <LatitudeDegrees>-33.53516100905835628509521484375</LatitudeDegrees>
              <LongitudeDegrees>-70.2320744656026363372802734375</LongitudeDegrees>
            </Position>
            <AltitudeMeters>1798.4000244140625</AltitudeMeters>
            <DistanceMeters>5882.6220608341</DistanceMeters>
          </Trackpoint>
          <Trackpoint>
            <Time>2019-08-04T18:18:35.000Z</Time>
            <Position>
              <LatitudeDegrees>-33.535149358212947845458984375</LatitudeDegrees>
              <LongitudeDegrees>-70.23206884972751140594482421875</LongitudeDegrees>
            </Position>
            <AltitudeMeters>1798.199951171875</AltitudeMeters>
            <DistanceMeters>5884.018662607</DistanceMeters>
          </Trackpoint>
          <Trackpoint>
            <Time>2019-08-04T18:18:39.000Z</Time>
            <Position>
              <LatitudeDegrees>-33.5351029224693775177001953125</LatitudeDegrees>
              <LongitudeDegrees>-70.23205292411148548126220703125</LongitudeDegrees>
            </Position>
            <AltitudeMeters>1798</AltitudeMeters>
            <DistanceMeters>5889.3941853369</DistanceMeters>
          </Trackpoint>
          <Trackpoint>
            <Time>2019-08-04T18:18:44.000Z</Time>
            <Position>
              <LatitudeDegrees>-33.5350445844233036041259765625</LatitudeDegrees>
              <LongitudeDegrees>-70.23202224634587764739990234375</LongitudeDegrees>
            </Position>
            <AltitudeMeters>1797.800048828125</AltitudeMeters>
            <DistanceMeters>5896.4837132117</DistanceMeters>
          </Trackpoint>
          <Trackpoint>
            <Time>2019-08-04T18:18:50.000Z</Time>
            <Position>
              <LatitudeDegrees>-33.53498146869242191314697265625</LatitudeDegrees>
              <LongitudeDegrees>-70.23197430185973644256591796875</LongitudeDegrees>
            </Position>
            <AltitudeMeters>1798.4000244140625</AltitudeMeters>
            <DistanceMeters>5904.7989579665</DistanceMeters>
          </Trackpoint>
          <Trackpoint>
            <Time>2019-08-04T18:18:57.000Z</Time>
            <Position>
              <LatitudeDegrees>-33.53490686975419521331787109375</LatitudeDegrees>
              <LongitudeDegrees>-70.231940858066082000732421875</LongitudeDegrees>
            </Position>
            <AltitudeMeters>1798.5999755859375</AltitudeMeters>
            <DistanceMeters>5913.6629691995</DistanceMeters>
          </Trackpoint>
          <Trackpoint>
            <Time>2019-08-04T18:18:59.000Z</Time>
            <Position>
              <LatitudeDegrees>-33.53489094413816928863525390625</LatitudeDegrees>
              <LongitudeDegrees>-70.231929123401641845703125</LongitudeDegrees>
            </Position>
            <AltitudeMeters>1798.5999755859375</AltitudeMeters>
            <DistanceMeters>5915.7427303917</DistanceMeters>
          </Trackpoint>
          <Trackpoint>
            <Time>2019-08-04T18:19:05.000Z</Time>
            <Position>
              <LatitudeDegrees>-33.5348467715084552764892578125</LatitudeDegrees>
              <LongitudeDegrees>-70.231885872781276702880859375</LongitudeDegrees>
            </Position>
            <AltitudeMeters>1798.4000244140625</AltitudeMeters>
            <DistanceMeters>5922.088209953</DistanceMeters>
          </Trackpoint>
          <Trackpoint>
            <Time>2019-08-04T18:19:06.000Z</Time>
            <Position>
              <LatitudeDegrees>-33.53484098799526691436767578125</LatitudeDegrees>
              <LongitudeDegrees>-70.23187925107777118682861328125</LongitudeDegrees>
            </Position>
            <AltitudeMeters>1798.4000244140625</AltitudeMeters>
            <DistanceMeters>5922.9796395504</DistanceMeters>
          </Trackpoint>
          <Trackpoint>
            <Time>2019-08-04T18:19:12.000Z</Time>
            <Position>
              <LatitudeDegrees>-33.5348310135304927825927734375</LatitudeDegrees>
              <LongitudeDegrees>-70.23187355138361454010009765625</LongitudeDegrees>
            </Position>
            <AltitudeMeters>1797.5999755859375</AltitudeMeters>
            <DistanceMeters>5924.2076553346</DistanceMeters>
          </Trackpoint>
          <Trackpoint>
            <Time>2019-08-04T18:19:16.000Z</Time>
            <Position>
              <LatitudeDegrees>-33.53479874320328235626220703125</LatitudeDegrees>
              <LongitudeDegrees>-70.23186181671917438507080078125</LongitudeDegrees>
            </Position>
            <AltitudeMeters>1797.199951171875</AltitudeMeters>
            <DistanceMeters>5927.9597066637</DistanceMeters>
          </Trackpoint>
          <Trackpoint>
            <Time>2019-08-04T18:19:18.000Z</Time>
            <Position>
              <LatitudeDegrees>-33.5347810573875904083251953125</LatitudeDegrees>
              <LongitudeDegrees>-70.23184706456959247589111328125</LongitudeDegrees>
            </Position>
            <AltitudeMeters>1796.800048828125</AltitudeMeters>
            <DistanceMeters>5930.3561892149</DistanceMeters>
          </Trackpoint>
          <Trackpoint>
            <Time>2019-08-04T18:19:21.000Z</Time>
            <Position>
              <LatitudeDegrees>-33.53474962525069713592529296875</LatitudeDegrees>
              <LongitudeDegrees>-70.23181982338428497314453125</LongitudeDegrees>
            </Position>
            <AltitudeMeters>1796.4000244140625</AltitudeMeters>
            <DistanceMeters>5934.6712810595</DistanceMeters>
          </Trackpoint>
          <Trackpoint>
            <Time>2019-08-04T18:19:23.000Z</Time>
            <Position>
              <LatitudeDegrees>-33.5347210429608821868896484375</LatitudeDegrees>
              <LongitudeDegrees>-70.2318008802831172943115234375</LongitudeDegrees>
            </Position>
            <AltitudeMeters>1796.199951171875</AltitudeMeters>
            <DistanceMeters>5938.304732829</DistanceMeters>
          </Trackpoint>
          <Trackpoint>
            <Time>2019-08-04T18:19:24.000Z</Time>
            <Position>
              <LatitudeDegrees>-33.53470754809677600860595703125</LatitudeDegrees>
              <LongitudeDegrees>-70.231794007122516632080078125</LongitudeDegrees>
            </Position>
            <AltitudeMeters>1796.199951171875</AltitudeMeters>
            <DistanceMeters>5939.9368702469</DistanceMeters>
          </Trackpoint>
          <Trackpoint>
            <Time>2019-08-04T18:19:26.000Z</Time>
            <Position>
              <LatitudeDegrees>-33.53468474932014942169189453125</LatitudeDegrees>
              <LongitudeDegrees>-70.23177615366876125335693359375</LongitudeDegrees>
            </Position>
            <AltitudeMeters>1796</AltitudeMeters>
            <DistanceMeters>5942.9658234765</DistanceMeters>
          </Trackpoint>
          <Trackpoint>
            <Time>2019-08-04T18:19:28.000Z</Time>
            <Position>
              <LatitudeDegrees>-33.5346667282283306121826171875</LatitudeDegrees>
              <LongitudeDegrees>-70.231752097606658935546875</LongitudeDegrees>
            </Position>
            <AltitudeMeters>1795.5999755859375</AltitudeMeters>
            <DistanceMeters>5945.964815997</DistanceMeters>
          </Trackpoint>
          <Trackpoint>
            <Time>2019-08-04T18:19:32.000Z</Time>
            <Position>
              <LatitudeDegrees>-33.53462222032248973846435546875</LatitudeDegrees>
              <LongitudeDegrees>-70.23171253502368927001953125</LongitudeDegrees>
            </Position>
            <AltitudeMeters>1794.800048828125</AltitudeMeters>
            <DistanceMeters>5952.1305780609</DistanceMeters>
          </Trackpoint>
          <Trackpoint>
            <Time>2019-08-04T18:19:34.000Z</Time>
            <Position>
              <LatitudeDegrees>-33.53459623642265796661376953125</LatitudeDegrees>
              <LongitudeDegrees>-70.2317043207585811614990234375</LongitudeDegrees>
            </Position>
            <AltitudeMeters>1794.5999755859375</AltitudeMeters>
            <DistanceMeters>5955.1205238263</DistanceMeters>
          </Trackpoint>
          <Trackpoint>
            <Time>2019-08-04T18:19:39.000Z</Time>
            <Position>
              <LatitudeDegrees>-33.5345322825014591217041015625</LatitudeDegrees>
              <LongitudeDegrees>-70.23167087696492671966552734375</LongitudeDegrees>
            </Position>
            <AltitudeMeters>1794</AltitudeMeters>
            <DistanceMeters>5962.8848518938</DistanceMeters>
          </Trackpoint>
          <Trackpoint>
            <Time>2019-08-04T18:19:43.000Z</Time>
            <Position>
              <LatitudeDegrees>-33.53449515067040920257568359375</LatitudeDegrees>
              <LongitudeDegrees>-70.2316406182944774627685546875</LongitudeDegrees>
            </Position>
            <AltitudeMeters>1793.4000244140625</AltitudeMeters>
            <DistanceMeters>5967.8807633513</DistanceMeters>
          </Trackpoint>
          <Trackpoint>
            <Time>2019-08-04T18:19:44.000Z</Time>
            <Position>
              <LatitudeDegrees>-33.534485511481761932373046875</LatitudeDegrees>
              <LongitudeDegrees>-70.23163139820098876953125</LongitudeDegrees>
            </Position>
            <AltitudeMeters>1793.4000244140625</AltitudeMeters>
            <DistanceMeters>5969.2578312701</DistanceMeters>
          </Trackpoint>
          <Trackpoint>
            <Time>2019-08-04T18:19:51.000Z</Time>
            <Position>
              <LatitudeDegrees>-33.53440328501164913177490234375</LatitudeDegrees>
              <LongitudeDegrees>-70.23159091360867023468017578125</LongitudeDegrees>
            </Position>
            <AltitudeMeters>1792.4000244140625</AltitudeMeters>
            <DistanceMeters>5979.1506553613</DistanceMeters>
          </Trackpoint>
          <Trackpoint>
            <Time>2019-08-04T18:19:52.000Z</Time>
            <Position>
              <LatitudeDegrees>-33.5343911312520503997802734375</LatitudeDegrees>
              <LongitudeDegrees>-70.23158957250416278839111328125</LongitudeDegrees>
            </Position>
            <AltitudeMeters>1792.199951171875</AltitudeMeters>
            <DistanceMeters>5980.5079083203</DistanceMeters>
          </Trackpoint>
          <Trackpoint>
            <Time>2019-08-04T18:19:54.000Z</Time>
            <Position>
              <LatitudeDegrees>-33.53436824865639209747314453125</LatitudeDegrees>
              <LongitudeDegrees>-70.2315836213529109954833984375</LongitudeDegrees>
            </Position>
            <AltitudeMeters>1791.5999755859375</AltitudeMeters>
            <DistanceMeters>5983.1137896464</DistanceMeters>
          </Trackpoint>
          <Trackpoint>
            <Time>2019-08-04T18:19:55.000Z</Time>
            <Position>
              <LatitudeDegrees>-33.53435575962066650390625</LatitudeDegrees>
              <LongitudeDegrees>-70.231580771505832672119140625</LongitudeDegrees>
            </Position>
            <AltitudeMeters>1791.4000244140625</AltitudeMeters>
            <DistanceMeters>5984.529655802</DistanceMeters>
          </Trackpoint>
          <Trackpoint>
            <Time>2019-08-04T18:19:56.000Z</Time>
            <Position>
              <LatitudeDegrees>-33.534345366060733795166015625</LatitudeDegrees>
              <LongitudeDegrees>-70.231575407087802886962890625</LongitudeDegrees>
            </Position>
            <AltitudeMeters>1791</AltitudeMeters>
            <DistanceMeters>5985.7903276285</DistanceMeters>
          </Trackpoint>
          <Trackpoint>
            <Time>2019-08-04T18:20:02.000Z</Time>
            <Position>
              <LatitudeDegrees>-33.5342593677341938018798828125</LatitudeDegrees>
              <LongitudeDegrees>-70.23149971850216388702392578125</LongitudeDegrees>
            </Position>
            <AltitudeMeters>1790</AltitudeMeters>
            <DistanceMeters>5997.6614426976</DistanceMeters>
          </Trackpoint>
          <Trackpoint>
            <Time>2019-08-04T18:20:03.000Z</Time>
            <Position>
              <LatitudeDegrees>-33.53424268774688243865966796875</LatitudeDegrees>
              <LongitudeDegrees>-70.231487564742565155029296875</LongitudeDegrees>
            </Position>
            <AltitudeMeters>1789.800048828125</AltitudeMeters>
            <DistanceMeters>5999.8325483846</DistanceMeters>
          </Trackpoint>
          <Trackpoint>
            <Time>2019-08-04T18:20:04.000Z</Time>
            <Position>
              <LatitudeDegrees>-33.53422827087342739105224609375</LatitudeDegrees>
              <LongitudeDegrees>-70.2314800210297107696533203125</LongitudeDegrees>
            </Position>
            <AltitudeMeters>1789.800048828125</AltitudeMeters>
            <DistanceMeters>6001.582175749</DistanceMeters>
          </Trackpoint>
          <Trackpoint>
            <Time>2019-08-04T18:20:05.000Z</Time>
            <Position>
              <LatitudeDegrees>-33.5342144407331943511962890625</LatitudeDegrees>
              <LongitudeDegrees>-70.23147339932620525360107421875</LongitudeDegrees>
            </Position>
            <AltitudeMeters>1789.5999755859375</AltitudeMeters>
            <DistanceMeters>6003.2390231285</DistanceMeters>
          </Trackpoint>
          <Trackpoint>
            <Time>2019-08-04T18:20:06.000Z</Time>
            <Position>
              <LatitudeDegrees>-33.5342013649642467498779296875</LatitudeDegrees>
              <LongitudeDegrees>-70.2314669452607631683349609375</LongitudeDegrees>
            </Position>
            <AltitudeMeters>1789.4000244140625</AltitudeMeters>
            <DistanceMeters>6004.811995139</DistanceMeters>
          </Trackpoint>
          <Trackpoint>
            <Time>2019-08-04T18:20:07.000Z</Time>
            <Position>
              <LatitudeDegrees>-33.53419155813753604888916015625</LatitudeDegrees>
              <LongitudeDegrees>-70.2314592339098453521728515625</LongitudeDegrees>
            </Position>
            <AltitudeMeters>1789.199951171875</AltitudeMeters>
            <DistanceMeters>6006.1183964739</DistanceMeters>
          </Trackpoint>
          <Trackpoint>
            <Time>2019-08-04T18:20:08.000Z</Time>
            <Position>
              <LatitudeDegrees>-33.534183092415332794189453125</LatitudeDegrees>
              <LongitudeDegrees>-70.23145546205341815948486328125</LongitudeDegrees>
            </Position>
            <AltitudeMeters>1788</AltitudeMeters>
            <DistanceMeters>6007.1240646904</DistanceMeters>
          </Trackpoint>
          <Trackpoint>
            <Time>2019-08-04T18:20:10.000Z</Time>
            <Position>
              <LatitudeDegrees>-33.53416020981967449188232421875</LatitudeDegrees>
              <LongitudeDegrees>-70.2314448170363903045654296875</LongitudeDegrees>
            </Position>
            <AltitudeMeters>1787.199951171875</AltitudeMeters>
            <DistanceMeters>6009.8551529612</DistanceMeters>
          </Trackpoint>
          <Trackpoint>
            <Time>2019-08-04T18:20:11.000Z</Time>
            <Position>
              <LatitudeDegrees>-33.5341467149555683135986328125</LatitudeDegrees>
              <LongitudeDegrees>-70.23143492639064788818359375</LongitudeDegrees>
            </Position>
            <AltitudeMeters>1786.800048828125</AltitudeMeters>
            <DistanceMeters>6011.6176359531</DistanceMeters>
          </Trackpoint>
          <Trackpoint>
            <Time>2019-08-04T18:20:15.000Z</Time>
            <Position>
              <LatitudeDegrees>-33.53409935720264911651611328125</LatitudeDegrees>
              <LongitudeDegrees>-70.23140676319599151611328125</LongitudeDegrees>
            </Position>
            <AltitudeMeters>1786.4000244140625</AltitudeMeters>
            <DistanceMeters>6017.5008564155</DistanceMeters>
          </Trackpoint>
          <Trackpoint>
            <Time>2019-08-04T18:20:17.000Z</Time>
            <Position>
              <LatitudeDegrees>-33.53408058173954486846923828125</LatitudeDegrees>
              <LongitudeDegrees>-70.23138522170484066009521484375</LongitudeDegrees>
            </Position>
            <AltitudeMeters>1786.4000244140625</AltitudeMeters>
            <DistanceMeters>6020.3925429108</DistanceMeters>
          </Trackpoint>
          <Trackpoint>
            <Time>2019-08-04T18:20:23.000Z</Time>
            <Position>
              <LatitudeDegrees>-33.5340169630944728851318359375</LatitudeDegrees>
              <LongitudeDegrees>-70.2313596569001674652099609375</LongitudeDegrees>
            </Position>
            <AltitudeMeters>1785.800048828125</AltitudeMeters>
            <DistanceMeters>6027.8598531388</DistanceMeters>
          </Trackpoint>
          <Trackpoint>
            <Time>2019-08-04T18:20:24.000Z</Time>
            <Position>
              <LatitudeDegrees>-33.53400665335357189178466796875</LatitudeDegrees>
              <LongitudeDegrees>-70.2313529513776302337646484375</LongitudeDegrees>
            </Position>
            <AltitudeMeters>1785.5999755859375</AltitudeMeters>
            <DistanceMeters>6029.1627938019</DistanceMeters>
          </Trackpoint>
          <Trackpoint>
            <Time>2019-08-04T18:20:26.000Z</Time>
            <Position>
              <LatitudeDegrees>-33.5339877940714359283447265625</LatitudeDegrees>
              <LongitudeDegrees>-70.2313328348100185394287109375</LongitudeDegrees>
            </Position>
            <AltitudeMeters>1785.4000244140625</AltitudeMeters>
            <DistanceMeters>6031.9721152168</DistanceMeters>
          </Trackpoint>
          <Trackpoint>
            <Time>2019-08-04T18:20:30.000Z</Time>
            <Position>
              <LatitudeDegrees>-33.5339641571044921875</LatitudeDegrees>
              <LongitudeDegrees>-70.23127667605876922607421875</LongitudeDegrees>
            </Position>
            <AltitudeMeters>1784.800048828125</AltitudeMeters>
            <DistanceMeters>6037.8091074579</DistanceMeters>
          </Trackpoint>
          <Trackpoint>
            <Time>2019-08-04T18:20:31.000Z</Time>
            <Position>
              <LatitudeDegrees>-33.53395937941968441009521484375</LatitudeDegrees>
              <LongitudeDegrees>-70.23126468993723392486572265625</LongitudeDegrees>
            </Position>
            <AltitudeMeters>1784.800048828125</AltitudeMeters>
            <DistanceMeters>6039.0407944484</DistanceMeters>
          </Trackpoint>
          <Trackpoint>
            <Time>2019-08-04T18:20:32.000Z</Time>
            <Position>
              <LatitudeDegrees>-33.53395116515457630157470703125</LatitudeDegrees>
              <LongitudeDegrees>-70.231254883110523223876953125</LongitudeDegrees>
            </Position>
            <AltitudeMeters>1784.800048828125</AltitudeMeters>
            <DistanceMeters>6040.3297995165</DistanceMeters>
          </Trackpoint>
          <Trackpoint>
            <Time>2019-08-04T18:20:37.000Z</Time>
            <Position>
              <LatitudeDegrees>-33.533912859857082366943359375</LatitudeDegrees>
              <LongitudeDegrees>-70.23120936937630176544189453125</LongitudeDegrees>
            </Position>
            <AltitudeMeters>1784.4000244140625</AltitudeMeters>
            <DistanceMeters>6046.3307948389</DistanceMeters>
          </Trackpoint>
          <Trackpoint>
            <Time>2019-08-04T18:20:39.000Z</Time>
            <Position>
              <LatitudeDegrees>-33.53390422649681568145751953125</LatitudeDegrees>
              <LongitudeDegrees>-70.23118036799132823944091796875</LongitudeDegrees>
            </Position>
            <AltitudeMeters>1784</AltitudeMeters>
            <DistanceMeters>6049.1879243608</DistanceMeters>
          </Trackpoint>
          <Trackpoint>
            <Time>2019-08-04T18:20:41.000Z</Time>
            <Position>
              <LatitudeDegrees>-33.5338979400694370269775390625</LatitudeDegrees>
              <LongitudeDegrees>-70.23115002550184726715087890625</LongitudeDegrees>
            </Position>
            <AltitudeMeters>1783.800048828125</AltitudeMeters>
            <DistanceMeters>6052.0889640444</DistanceMeters>
          </Trackpoint>
          <Trackpoint>
            <Time>2019-08-04T18:20:46.000Z</Time>
            <Position>
              <LatitudeDegrees>-33.5338724590837955474853515625</LatitudeDegrees>
              <LongitudeDegrees>-70.23107953369617462158203125</LongitudeDegrees>
            </Position>
            <AltitudeMeters>1782.5999755859375</AltitudeMeters>
            <DistanceMeters>6059.2166011055</DistanceMeters>
          </Trackpoint>
          <Trackpoint>
            <Time>2019-08-04T18:20:47.000Z</Time>
            <Position>
              <LatitudeDegrees>-33.5338677652180194854736328125</LatitudeDegrees>
              <LongitudeDegrees>-70.23106520064175128936767578125</LongitudeDegrees>
            </Position>
            <AltitudeMeters>1782.4000244140625</AltitudeMeters>
            <DistanceMeters>6060.6451658664</DistanceMeters>
          </Trackpoint>
          <Trackpoint>
            <Time>2019-08-04T18:20:50.000Z</Time>
            <Position>
              <LatitudeDegrees>-33.533863238990306854248046875</LatitudeDegrees>
              <LongitudeDegrees>-70.2310377918183803558349609375</LongitudeDegrees>
            </Position>
            <AltitudeMeters>1781.5999755859375</AltitudeMeters>
            <DistanceMeters>6063.2371490597</DistanceMeters>
          </Trackpoint>
          <Trackpoint>
            <Time>2019-08-04T18:20:53.000Z</Time>
            <Position>
              <LatitudeDegrees>-33.533854186534881591796875</LatitudeDegrees>
              <LongitudeDegrees>-70.23099998943507671356201171875</LongitudeDegrees>
            </Position>
            <AltitudeMeters>1781.199951171875</AltitudeMeters>
            <DistanceMeters>6066.8854819226</DistanceMeters>
          </Trackpoint>
          <Trackpoint>
            <Time>2019-08-04T18:20:54.000Z</Time>
            <Position>
              <LatitudeDegrees>-33.53384873829782009124755859375</LatitudeDegrees>
              <LongitudeDegrees>-70.230984985828399658203125</LongitudeDegrees>
            </Position>
            <AltitudeMeters>1780.4000244140625</AltitudeMeters>
            <DistanceMeters>6068.4059093525</DistanceMeters>
          </Trackpoint>
          <Trackpoint>
            <Time>2019-08-04T18:20:58.000Z</Time>
            <Position>
              <LatitudeDegrees>-33.5338258557021617889404296875</LatitudeDegrees>
              <LongitudeDegrees>-70.23091533221304416656494140625</LongitudeDegrees>
            </Position>
            <AltitudeMeters>1779.199951171875</AltitudeMeters>
            <DistanceMeters>6075.3519656754</DistanceMeters>
          </Trackpoint>
          <Trackpoint>
            <Time>2019-08-04T18:20:59.000Z</Time>
            <Position>
              <LatitudeDegrees>-33.5338161326944828033447265625</LatitudeDegrees>
              <LongitudeDegrees>-70.23090041242539882659912109375</LongitudeDegrees>
            </Position>
            <AltitudeMeters>1779</AltitudeMeters>
            <DistanceMeters>6077.1093177015</DistanceMeters>
          </Trackpoint>
          <Trackpoint>
            <Time>2019-08-04T18:21:03.000Z</Time>
            <Position>
              <LatitudeDegrees>-33.5337745584547519683837890625</LatitudeDegrees>
              <LongitudeDegrees>-70.23084945045411586761474609375</LongitudeDegrees>
            </Position>
            <AltitudeMeters>1777.800048828125</AltitudeMeters>
            <DistanceMeters>6083.725797929</DistanceMeters>
          </Trackpoint>
          <Trackpoint>
            <Time>2019-08-04T18:21:05.000Z</Time>
            <Position>
              <LatitudeDegrees>-33.53375586681067943572998046875</LatitudeDegrees>
              <LongitudeDegrees>-70.2308195270597934722900390625</LongitudeDegrees>
            </Position>
            <AltitudeMeters>1777.4000244140625</AltitudeMeters>
            <DistanceMeters>6087.1939475543</DistanceMeters>
          </Trackpoint>
          <Trackpoint>
            <Time>2019-08-04T18:21:06.000Z</Time>
            <Position>
              <LatitudeDegrees>-33.533749245107173919677734375</LatitudeDegrees>
              <LongitudeDegrees>-70.23080452345311641693115234375</LongitudeDegrees>
            </Position>
            <AltitudeMeters>1777</AltitudeMeters>
            <DistanceMeters>6088.7669195647</DistanceMeters>
          </Trackpoint>
          <Trackpoint>
            <Time>2019-08-04T18:21:07.000Z</Time>
            <Position>
              <LatitudeDegrees>-33.5337410308420658111572265625</LatitudeDegrees>
              <LongitudeDegrees>-70.23079119622707366943359375</LongitudeDegrees>
            </Position>
            <AltitudeMeters>1776.800048828125</AltitudeMeters>
            <DistanceMeters>6090.3050613099</DistanceMeters>
          </Trackpoint>
          <Trackpoint>
            <Time>2019-08-04T18:21:11.000Z</Time>
            <Position>
              <LatitudeDegrees>-33.533707670867443084716796875</LatitudeDegrees>
              <LongitudeDegrees>-70.2307360433042049407958984375</LongitudeDegrees>
            </Position>
            <AltitudeMeters>1775.5999755859375</AltitudeMeters>
            <DistanceMeters>6096.6270165724</DistanceMeters>
          </Trackpoint>
          <Trackpoint>
            <Time>2019-08-04T18:21:13.000Z</Time>
            <Position>
              <LatitudeDegrees>-33.53369870223104953765869140625</LatitudeDegrees>
              <LongitudeDegrees>-70.23070008493959903717041015625</LongitudeDegrees>
            </Position>
            <AltitudeMeters>1775.4000244140625</AltitudeMeters>
            <DistanceMeters>6100.1081604344</DistanceMeters>
          </Trackpoint>
          <Trackpoint>
            <Time>2019-08-04T18:21:14.000Z</Time>
            <Position>
              <LatitudeDegrees>-33.53369669057428836822509765625</LatitudeDegrees>
              <LongitudeDegrees>-70.230677537620067596435546875</LongitudeDegrees>
            </Position>
            <AltitudeMeters>1775.199951171875</AltitudeMeters>
            <DistanceMeters>6102.2095188953</DistanceMeters>
          </Trackpoint>
          <Trackpoint>
            <Time>2019-08-04T18:21:17.000Z</Time>
            <Position>
              <LatitudeDegrees>-33.5336743108928203582763671875</LatitudeDegrees>
              <LongitudeDegrees>-70.2306314371526241302490234375</LongitudeDegrees>
            </Position>
            <AltitudeMeters>1775</AltitudeMeters>
            <DistanceMeters>6107.1600367943</DistanceMeters>
          </Trackpoint>
          <Trackpoint>
            <Time>2019-08-04T18:21:19.000Z</Time>
            <Position>
              <LatitudeDegrees>-33.53364824317395687103271484375</LatitudeDegrees>
              <LongitudeDegrees>-70.23061274550855159759521484375</LongitudeDegrees>
            </Position>
            <AltitudeMeters>1774.5999755859375</AltitudeMeters>
            <DistanceMeters>6110.5411722217</DistanceMeters>
          </Trackpoint>
          <Trackpoint>
            <Time>2019-08-04T18:21:20.000Z</Time>
            <Position>
              <LatitudeDegrees>-33.53364170528948307037353515625</LatitudeDegrees>
              <LongitudeDegrees>-70.23060436360538005828857421875</LongitudeDegrees>
            </Position>
            <AltitudeMeters>1774.4000244140625</AltitudeMeters>
            <DistanceMeters>6111.6036031867</DistanceMeters>
          </Trackpoint>
          <Trackpoint>
            <Time>2019-08-04T18:21:24.000Z</Time>
            <Position>
              <LatitudeDegrees>-33.53359057568013668060302734375</LatitudeDegrees>
              <LongitudeDegrees>-70.23058357648551464080810546875</LongitudeDegrees>
            </Position>
            <AltitudeMeters>1773.199951171875</AltitudeMeters>
            <DistanceMeters>6117.611366127</DistanceMeters>
          </Trackpoint>
          <Trackpoint>
            <Time>2019-08-04T18:21:28.000Z</Time>
            <Position>
              <LatitudeDegrees>-33.53355201892554759979248046875</LatitudeDegrees>
              <LongitudeDegrees>-70.23055926896631717681884765625</LongitudeDegrees>
            </Position>
            <AltitudeMeters>1772.4000244140625</AltitudeMeters>
            <DistanceMeters>6122.4595914707</DistanceMeters>
          </Trackpoint>
          <Trackpoint>
            <Time>2019-08-04T18:21:29.000Z</Time>
            <Position>
              <LatitudeDegrees>-33.53353693149983882904052734375</LatitudeDegrees>
              <LongitudeDegrees>-70.23055507801473140716552734375</LongitudeDegrees>
            </Position>
            <AltitudeMeters>1771.800048828125</AltitudeMeters>
            <DistanceMeters>6124.1832199545</DistanceMeters>
          </Trackpoint>
          <Trackpoint>
            <Time>2019-08-04T18:21:32.000Z</Time>
            <Position>
              <LatitudeDegrees>-33.53350818157196044921875</LatitudeDegrees>
              <LongitudeDegrees>-70.2305432595312595367431640625</LongitudeDegrees>
            </Position>
            <AltitudeMeters>1771.199951171875</AltitudeMeters>
            <DistanceMeters>6127.567025051</DistanceMeters>
          </Trackpoint>
          <Trackpoint>
            <Time>2019-08-04T18:21:33.000Z</Time>
            <Position>
              <LatitudeDegrees>-33.5335019789636135101318359375</LatitudeDegrees>
              <LongitudeDegrees>-70.230536721646785736083984375</LongitudeDegrees>
            </Position>
            <AltitudeMeters>1771.199951171875</AltitudeMeters>
            <DistanceMeters>6128.4883432293</DistanceMeters>
          </Trackpoint>
          <Trackpoint>
            <Time>2019-08-04T18:21:36.000Z</Time>
            <Position>
              <LatitudeDegrees>-33.53348127566277980804443359375</LatitudeDegrees>
              <LongitudeDegrees>-70.2305187843739986419677734375</LongitudeDegrees>
            </Position>
            <AltitudeMeters>1770.800048828125</AltitudeMeters>
            <DistanceMeters>6131.3296260982</DistanceMeters>
          </Trackpoint>
          <Trackpoint>
            <Time>2019-08-04T18:21:38.000Z</Time>
            <Position>
              <LatitudeDegrees>-33.5334624163806438446044921875</LatitudeDegrees>
              <LongitudeDegrees>-70.2305083908140659332275390625</LongitudeDegrees>
            </Position>
            <AltitudeMeters>1770.4000244140625</AltitudeMeters>
            <DistanceMeters>6133.6378169702</DistanceMeters>
          </Trackpoint>
          <Trackpoint>
            <Time>2019-08-04T18:21:40.000Z</Time>
            <Position>
              <LatitudeDegrees>-33.5334449820220470428466796875</LatitudeDegrees>
              <LongitudeDegrees>-70.23049254901707172393798828125</LongitudeDegrees>
            </Position>
            <AltitudeMeters>1769.5999755859375</AltitudeMeters>
            <DistanceMeters>6136.0716884022</DistanceMeters>
          </Trackpoint>
          <Trackpoint>
            <Time>2019-08-04T18:21:46.000Z</Time>
            <Position>
              <LatitudeDegrees>-33.5334275476634502410888671875</LatitudeDegrees>
              <LongitudeDegrees>-70.23040822707116603851318359375</LongitudeDegrees>
            </Position>
            <AltitudeMeters>1768.4000244140625</AltitudeMeters>
            <DistanceMeters>6144.1316120952</DistanceMeters>
          </Trackpoint>
          <Trackpoint>
            <Time>2019-08-04T18:21:47.000Z</Time>
            <Position>
              <LatitudeDegrees>-33.53342645801603794097900390625</LatitudeDegrees>
              <LongitudeDegrees>-70.23039448074996471405029296875</LongitudeDegrees>
            </Position>
            <AltitudeMeters>1768.199951171875</AltitudeMeters>
            <DistanceMeters>6145.4135925603</DistanceMeters>
          </Trackpoint>
          <Trackpoint>
            <Time>2019-08-04T18:21:51.000Z</Time>
            <Position>
              <LatitudeDegrees>-33.53341522626578807830810546875</LatitudeDegrees>
              <LongitudeDegrees>-70.23035156540572643280029296875</LongitudeDegrees>
            </Position>
            <AltitudeMeters>1767.199951171875</AltitudeMeters>
            <DistanceMeters>6149.5861202575</DistanceMeters>
          </Trackpoint>
          <Trackpoint>
            <Time>2019-08-04T18:21:54.000Z</Time>
            <Position>
              <LatitudeDegrees>-33.53340215049684047698974609375</LatitudeDegrees>
              <LongitudeDegrees>-70.2303055487573146820068359375</LongitudeDegrees>
            </Position>
            <AltitudeMeters>1766.5999755859375</AltitudeMeters>
            <DistanceMeters>6154.0966371046</DistanceMeters>
          </Trackpoint>
          <Trackpoint>
            <Time>2019-08-04T18:21:56.000Z</Time>
            <Position>
              <LatitudeDegrees>-33.53338320739567279815673828125</LatitudeDegrees>
              <LongitudeDegrees>-70.23027545772492885589599609375</LongitudeDegrees>
            </Position>
            <AltitudeMeters>1766.199951171875</AltitudeMeters>
            <DistanceMeters>6157.5946013099</DistanceMeters>
          </Trackpoint>
          <Trackpoint>
            <Time>2019-08-04T18:21:59.000Z</Time>
            <Position>
              <LatitudeDegrees>-33.53336644358932971954345703125</LatitudeDegrees>
              <LongitudeDegrees>-70.230245701968669891357421875</LongitudeDegrees>
            </Position>
            <AltitudeMeters>1765.4000244140625</AltitudeMeters>
            <DistanceMeters>6160.9273170233</DistanceMeters>
          </Trackpoint>
          <Trackpoint>
            <Time>2019-08-04T18:22:00.000Z</Time>
            <Position>
              <LatitudeDegrees>-33.53336334228515625</LatitudeDegrees>
              <LongitudeDegrees>-70.23024327121675014495849609375</LongitudeDegrees>
            </Position>
            <AltitudeMeters>1764.800048828125</AltitudeMeters>
            <DistanceMeters>6161.330481228</DistanceMeters>
          </Trackpoint>
          <Trackpoint>
            <Time>2019-08-04T18:22:01.000Z</Time>
            <Position>
              <LatitudeDegrees>-33.53336426429450511932373046875</LatitudeDegrees>
              <LongitudeDegrees>-70.23024226538836956024169921875</LongitudeDegrees>
            </Position>
            <AltitudeMeters>1764.5999755859375</AltitudeMeters>
            <DistanceMeters>6161.4648692963</DistanceMeters>
          </Trackpoint>
          <Trackpoint>
            <Time>2019-08-04T18:22:03.000Z</Time>
            <Position>
              <LatitudeDegrees>-33.533362336456775665283203125</LatitudeDegrees>
              <LongitudeDegrees>-70.23023371584713459014892578125</LongitudeDegrees>
            </Position>
            <AltitudeMeters>1764.199951171875</AltitudeMeters>
            <DistanceMeters>6162.2823200023</DistanceMeters>
          </Trackpoint>
          <Trackpoint>
            <Time>2019-08-04T18:22:05.000Z</Time>
            <Position>
              <LatitudeDegrees>-33.5333648510277271270751953125</LatitudeDegrees>
              <LongitudeDegrees>-70.2302270941436290740966796875</LongitudeDegrees>
            </Position>
            <AltitudeMeters>1763.5999755859375</AltitudeMeters>
            <DistanceMeters>6162.9675673847</DistanceMeters>
          </Trackpoint>
          <Trackpoint>
            <Time>2019-08-04T18:22:10.000Z</Time>
            <Position>
              <LatitudeDegrees>-33.5333648510277271270751953125</LatitudeDegrees>
              <LongitudeDegrees>-70.23019415326416492462158203125</LongitudeDegrees>
            </Position>
            <AltitudeMeters>1763</AltitudeMeters>
            <DistanceMeters>6166.0261878574</DistanceMeters>
          </Trackpoint>
          <Trackpoint>
            <Time>2019-08-04T18:22:14.000Z</Time>
            <Position>
              <LatitudeDegrees>-33.53334582410752773284912109375</LatitudeDegrees>
              <LongitudeDegrees>-70.23015953600406646728515625</LongitudeDegrees>
            </Position>
            <AltitudeMeters>1762.800048828125</AltitudeMeters>
            <DistanceMeters>6169.8744764859</DistanceMeters>
          </Trackpoint>
          <Trackpoint>
            <Time>2019-08-04T18:22:17.000Z</Time>
            <Position>
              <LatitudeDegrees>-33.5333226062357425689697265625</LatitudeDegrees>
              <LongitudeDegrees>-70.23013749159872531890869140625</LongitudeDegrees>
            </Position>
            <AltitudeMeters>1762.5999755859375</AltitudeMeters>
            <DistanceMeters>6173.1690404761</DistanceMeters>
          </Trackpoint>
          <Trackpoint>
            <Time>2019-08-04T18:22:21.000Z</Time>
            <Position>
              <LatitudeDegrees>-33.533324114978313446044921875</LatitudeDegrees>
              <LongitudeDegrees>-70.23008979856967926025390625</LongitudeDegrees>
            </Position>
            <AltitudeMeters>1762</AltitudeMeters>
            <DistanceMeters>6177.597733967</DistanceMeters>
          </Trackpoint>
          <Trackpoint>
            <Time>2019-08-04T18:22:24.000Z</Time>
            <Position>
              <LatitudeDegrees>-33.5333279706537723541259765625</LatitudeDegrees>
              <LongitudeDegrees>-70.2300701849162578582763671875</LongitudeDegrees>
            </Position>
            <AltitudeMeters>1761.5999755859375</AltitudeMeters>
            <DistanceMeters>6179.4695431614</DistanceMeters>
          </Trackpoint>
          <Trackpoint>
            <Time>2019-08-04T18:22:31.000Z</Time>
            <Position>
              <LatitudeDegrees>-33.53333157487213611602783203125</LatitudeDegrees>
              <LongitudeDegrees>-70.23001444526016712188720703125</LongitudeDegrees>
            </Position>
            <AltitudeMeters>1761</AltitudeMeters>
            <DistanceMeters>6184.6561217761</DistanceMeters>
          </Trackpoint>
          <Trackpoint>
            <Time>2019-08-04T18:22:32.000Z</Time>
            <Position>
              <LatitudeDegrees>-33.5333252884447574615478515625</LatitudeDegrees>
              <LongitudeDegrees>-70.23000019602477550506591796875</LongitudeDegrees>
            </Position>
            <AltitudeMeters>1761</AltitudeMeters>
            <DistanceMeters>6186.1526039705</DistanceMeters>
          </Trackpoint>
          <Trackpoint>
            <Time>2019-08-04T18:22:33.000Z</Time>
            <Position>
              <LatitudeDegrees>-33.53332051075994968414306640625</LatitudeDegrees>
              <LongitudeDegrees>-70.22998787462711334228515625</LongitudeDegrees>
            </Position>
            <AltitudeMeters>1760.800048828125</AltitudeMeters>
            <DistanceMeters>6187.413275797</DistanceMeters>
          </Trackpoint>
          <Trackpoint>
            <Time>2019-08-04T18:22:35.000Z</Time>
            <Position>
              <LatitudeDegrees>-33.53331062011420726776123046875</LatitudeDegrees>
              <LongitudeDegrees>-70.22996733896434307098388671875</LongitudeDegrees>
            </Position>
            <AltitudeMeters>1760.5999755859375</AltitudeMeters>
            <DistanceMeters>6189.6133032909</DistanceMeters>
          </Trackpoint>
          <Trackpoint>
            <Time>2019-08-04T18:22:36.000Z</Time>
            <Position>
              <LatitudeDegrees>-33.53330307640135288238525390625</LatitudeDegrees>
              <LongitudeDegrees>-70.2299548499286174774169921875</LongitudeDegrees>
            </Position>
            <AltitudeMeters>1760.4000244140625</AltitudeMeters>
            <DistanceMeters>6191.045025105</DistanceMeters>
          </Trackpoint>
          <Trackpoint>
            <Time>2019-08-04T18:22:38.000Z</Time>
            <Position>
              <LatitudeDegrees>-33.5332904197275638580322265625</LatitudeDegrees>
              <LongitudeDegrees>-70.229931212961673736572265625</LongitudeDegrees>
            </Position>
            <AltitudeMeters>1760</AltitudeMeters>
            <DistanceMeters>6193.6509064311</DistanceMeters>
          </Trackpoint>
          <Trackpoint>
            <Time>2019-08-04T18:22:42.000Z</Time>
            <Position>
              <LatitudeDegrees>-33.53325865231454372406005859375</LatitudeDegrees>
              <LongitudeDegrees>-70.2299072407186031341552734375</LongitudeDegrees>
            </Position>
            <AltitudeMeters>1759.4000244140625</AltitudeMeters>
            <DistanceMeters>6197.8288410603</DistanceMeters>
          </Trackpoint>
          <Trackpoint>
            <Time>2019-08-04T18:22:43.000Z</Time>
            <Position>
              <LatitudeDegrees>-33.5332471691071987152099609375</LatitudeDegrees>
              <LongitudeDegrees>-70.22990112192928791046142578125</LongitudeDegrees>
            </Position>
            <AltitudeMeters>1759.199951171875</AltitudeMeters>
            <DistanceMeters>6199.2254428332</DistanceMeters>
          </Trackpoint>
          <Trackpoint>
            <Time>2019-08-04T18:22:45.000Z</Time>
            <Position>
              <LatitudeDegrees>-33.5332200117409229278564453125</LatitudeDegrees>
              <LongitudeDegrees>-70.229884944856166839599609375</LongitudeDegrees>
            </Position>
            <AltitudeMeters>1758.4000244140625</AltitudeMeters>
            <DistanceMeters>6202.5998948473</DistanceMeters>
          </Trackpoint>
          <Trackpoint>
            <Time>2019-08-04T18:22:50.000Z</Time>
            <Position>
              <LatitudeDegrees>-33.5331827960908412933349609375</LatitudeDegrees>
              <LongitudeDegrees>-70.2298532612621784210205078125</LongitudeDegrees>
            </Position>
            <AltitudeMeters>1757.199951171875</AltitudeMeters>
            <DistanceMeters>6207.6782704069</DistanceMeters>
          </Trackpoint>
          <Trackpoint>
            <Time>2019-08-04T18:22:52.000Z</Time>
            <Position>
              <LatitudeDegrees>-33.53317223489284515380859375</LatitudeDegrees>
              <LongitudeDegrees>-70.229840688407421112060546875</LongitudeDegrees>
            </Position>
            <AltitudeMeters>1756</AltitudeMeters>
            <DistanceMeters>6209.3351177864</DistanceMeters>
          </Trackpoint>
          <Trackpoint>
            <Time>2019-08-04T18:22:55.000Z</Time>
            <Position>
              <LatitudeDegrees>-33.53316628374159336090087890625</LatitudeDegrees>
              <LongitudeDegrees>-70.22983859293162822723388671875</LongitudeDegrees>
            </Position>
            <AltitudeMeters>1755</AltitudeMeters>
            <DistanceMeters>6210.0137442658</DistanceMeters>
          </Trackpoint>
          <Trackpoint>
            <Time>2019-08-04T18:23:00.000Z</Time>
            <Position>
              <LatitudeDegrees>-33.53316485881805419921875</LatitudeDegrees>
              <LongitudeDegrees>-70.2298287861049175262451171875</LongitudeDegrees>
            </Position>
            <AltitudeMeters>1754.199951171875</AltitudeMeters>
            <DistanceMeters>6210.9350624442</DistanceMeters>
          </Trackpoint>
          <Trackpoint>
            <Time>2019-08-04T18:23:01.000Z</Time>
            <Position>
              <LatitudeDegrees>-33.53316192515194416046142578125</LatitudeDegrees>
              <LongitudeDegrees>-70.2298210747539997100830078125</LongitudeDegrees>
            </Position>
            <AltitudeMeters>1754.199951171875</AltitudeMeters>
            <DistanceMeters>6211.7186728054</DistanceMeters>
          </Trackpoint>
          <Trackpoint>
            <Time>2019-08-04T18:23:03.000Z</Time>
            <Position>
              <LatitudeDegrees>-33.5331680439412593841552734375</LatitudeDegrees>
              <LongitudeDegrees>-70.2297885529696941375732421875</LongitudeDegrees>
            </Position>
            <AltitudeMeters>1754.199951171875</AltitudeMeters>
            <DistanceMeters>6214.81105877</DistanceMeters>
          </Trackpoint>
          <Trackpoint>
            <Time>2019-08-04T18:23:04.000Z</Time>
            <Position>
              <LatitudeDegrees>-33.533169217407703399658203125</LatitudeDegrees>
              <LongitudeDegrees>-70.2297727949917316436767578125</LongitudeDegrees>
            </Position>
            <AltitudeMeters>1754</AltitudeMeters>
            <DistanceMeters>6216.2770595182</DistanceMeters>
          </Trackpoint>
          <Trackpoint>
            <Time>2019-08-04T18:23:05.000Z</Time>
            <Position>
              <LatitudeDegrees>-33.533170558512210845947265625</LatitudeDegrees>
              <LongitudeDegrees>-70.229757539927959442138671875</LongitudeDegrees>
            </Position>
            <AltitudeMeters>1754</AltitudeMeters>
            <DistanceMeters>6217.6992891492</DistanceMeters>
          </Trackpoint>
          <Trackpoint>
            <Time>2019-08-04T18:23:07.000Z</Time>
            <Position>
              <LatitudeDegrees>-33.5331742465496063232421875</LatitudeDegrees>
              <LongitudeDegrees>-70.22974102757871150970458984375</LongitudeDegrees>
            </Position>
            <AltitudeMeters>1754</AltitudeMeters>
            <DistanceMeters>6219.2865482106</DistanceMeters>
          </Trackpoint>
          <Trackpoint>
            <Time>2019-08-04T18:23:09.000Z</Time>
            <Position>
              <LatitudeDegrees>-33.53317298926413059234619140625</LatitudeDegrees>
              <LongitudeDegrees>-70.22972309030592441558837890625</LongitudeDegrees>
            </Position>
            <AltitudeMeters>1754</AltitudeMeters>
            <DistanceMeters>6220.9542602795</DistanceMeters>
          </Trackpoint>
          <Trackpoint>
            <Time>2019-08-04T18:23:14.000Z</Time>
            <Position>
              <LatitudeDegrees>-33.53318237699568271636962890625</LatitudeDegrees>
              <LongitudeDegrees>-70.2296765707433223724365234375</LongitudeDegrees>
            </Position>
            <AltitudeMeters>1754</AltitudeMeters>
            <DistanceMeters>6225.3951708791</DistanceMeters>
          </Trackpoint>
          <Trackpoint>
            <Time>2019-08-04T18:23:16.000Z</Time>
            <Position>
              <LatitudeDegrees>-33.53317935951054096221923828125</LatitudeDegrees>
              <LongitudeDegrees>-70.22966793738305568695068359375</LongitudeDegrees>
            </Position>
            <AltitudeMeters>1754.4000244140625</AltitudeMeters>
            <DistanceMeters>6226.2661051024</DistanceMeters>
          </Trackpoint>
          <Trackpoint>
            <Time>2019-08-04T18:23:17.000Z</Time>
            <Position>
              <LatitudeDegrees>-33.53318254463374614715576171875</LatitudeDegrees>
              <LongitudeDegrees>-70.22965930402278900146484375</LongitudeDegrees>
            </Position>
            <AltitudeMeters>1754.5999755859375</AltitudeMeters>
            <DistanceMeters>6227.1370393257</DistanceMeters>
          </Trackpoint>
          <Trackpoint>
            <Time>2019-08-04T18:23:18.000Z</Time>
            <Position>
              <LatitudeDegrees>-33.53318489156663417816162109375</LatitudeDegrees>
              <LongitudeDegrees>-70.22965393960475921630859375</LongitudeDegrees>
            </Position>
            <AltitudeMeters>1754.800048828125</AltitudeMeters>
            <DistanceMeters>6227.7071996119</DistanceMeters>
          </Trackpoint>
          <Trackpoint>
            <Time>2019-08-04T18:23:20.000Z</Time>
            <Position>
              <LatitudeDegrees>-33.53318220935761928558349609375</LatitudeDegrees>
              <LongitudeDegrees>-70.22963994182646274566650390625</LongitudeDegrees>
            </Position>
            <AltitudeMeters>1755</AltitudeMeters>
            <DistanceMeters>6229.0443440079</DistanceMeters>
          </Trackpoint>
          <Trackpoint>
            <Time>2019-08-04T18:23:22.000Z</Time>
            <Position>
              <LatitudeDegrees>-33.53317852132022380828857421875</LatitudeDegrees>
              <LongitudeDegrees>-70.2296205796301364898681640625</LongitudeDegrees>
            </Position>
            <AltitudeMeters>1755.199951171875</AltitudeMeters>
            <DistanceMeters>6230.8869803646</DistanceMeters>
          </Trackpoint>
          <Trackpoint>
            <Time>2019-08-04T18:23:27.000Z</Time>
            <Position>
              <LatitudeDegrees>-33.53316578082740306854248046875</LatitudeDegrees>
              <LongitudeDegrees>-70.22957489825785160064697265625</LongitudeDegrees>
            </Position>
            <AltitudeMeters>1756</AltitudeMeters>
            <DistanceMeters>6235.3552573275</DistanceMeters>
          </Trackpoint>
          <Trackpoint>
            <Time>2019-08-04T18:23:33.000Z</Time>
            <Position>
              <LatitudeDegrees>-33.5331687144935131072998046875</LatitudeDegrees>
              <LongitudeDegrees>-70.22951706312596797943115234375</LongitudeDegrees>
            </Position>
            <AltitudeMeters>1756.4000244140625</AltitudeMeters>
            <DistanceMeters>6240.7316199174</DistanceMeters>
          </Trackpoint>
          <Trackpoint>
            <Time>2019-08-04T18:23:34.000Z</Time>
            <Position>
              <LatitudeDegrees>-33.53316863067448139190673828125</LatitudeDegrees>
              <LongitudeDegrees>-70.2295112796127796173095703125</LongitudeDegrees>
            </Position>
            <AltitudeMeters>1756.4000244140625</AltitudeMeters>
            <DistanceMeters>6241.2691721904</DistanceMeters>
          </Trackpoint>
          <Trackpoint>
            <Time>2019-08-04T18:23:38.000Z</Time>
            <Position>
              <LatitudeDegrees>-33.5331539623439311981201171875</LatitudeDegrees>
              <LongitudeDegrees>-70.229488648474216461181640625</LongitudeDegrees>
            </Position>
            <AltitudeMeters>1756.800048828125</AltitudeMeters>
            <DistanceMeters>6243.9265242143</DistanceMeters>
          </Trackpoint>
          <Trackpoint>
            <Time>2019-08-04T18:23:41.000Z</Time>
            <Position>
              <LatitudeDegrees>-33.53315077722072601318359375</LatitudeDegrees>
              <LongitudeDegrees>-70.22946945391595363616943359375</LongitudeDegrees>
            </Position>
            <AltitudeMeters>1757.199951171875</AltitudeMeters>
            <DistanceMeters>6245.7395183747</DistanceMeters>
          </Trackpoint>
          <Trackpoint>
            <Time>2019-08-04T18:23:49.000Z</Time>
            <Position>
              <LatitudeDegrees>-33.5331553034484386444091796875</LatitudeDegrees>
              <LongitudeDegrees>-70.2294277958571910858154296875</LongitudeDegrees>
            </Position>
            <AltitudeMeters>1757.800048828125</AltitudeMeters>
            <DistanceMeters>6249.6367723539</DistanceMeters>
          </Trackpoint>
          <Trackpoint>
            <Time>2019-08-04T18:23:53.000Z</Time>
            <Position>
              <LatitudeDegrees>-33.53315069340169429779052734375</LatitudeDegrees>
              <LongitudeDegrees>-70.2294051647186279296875</LongitudeDegrees>
            </Position>
            <AltitudeMeters>1757.800048828125</AltitudeMeters>
            <DistanceMeters>6251.7953643592</DistanceMeters>
          </Trackpoint>
          <Trackpoint>
            <Time>2019-08-04T18:23:56.000Z</Time>
            <Position>
              <LatitudeDegrees>-33.53315169923007488250732421875</LatitudeDegrees>
              <LongitudeDegrees>-70.2293878979980945587158203125</LongitudeDegrees>
            </Position>
            <AltitudeMeters>1757.800048828125</AltitudeMeters>
            <DistanceMeters>6253.3995999362</DistanceMeters>
          </Trackpoint>
          <Trackpoint>
            <Time>2019-08-04T18:23:57.000Z</Time>
            <Position>
              <LatitudeDegrees>-33.53314868174493312835693359375</LatitudeDegrees>
              <LongitudeDegrees>-70.22937959991395473480224609375</LongitudeDegrees>
            </Position>
            <AltitudeMeters>1757.800048828125</AltitudeMeters>
            <DistanceMeters>6254.2388531534</DistanceMeters>
          </Trackpoint>
          <Trackpoint>
            <Time>2019-08-04T18:24:02.000Z</Time>
            <Position>
              <LatitudeDegrees>-33.5331123881042003631591796875</LatitudeDegrees>
              <LongitudeDegrees>-70.229345820844173431396484375</LongitudeDegrees>
            </Position>
            <AltitudeMeters>1757.5999755859375</AltitudeMeters>
            <DistanceMeters>6259.3509017867</DistanceMeters>
          </Trackpoint>
          <Trackpoint>
            <Time>2019-08-04T18:24:08.000Z</Time>
            <Position>
              <LatitudeDegrees>-33.53305262513458728790283203125</LatitudeDegrees>
              <LongitudeDegrees>-70.22930952720344066619873046875</LongitudeDegrees>
            </Position>
            <AltitudeMeters>1756.5999755859375</AltitudeMeters>
            <DistanceMeters>6266.8067149944</DistanceMeters>
          </Trackpoint>
          <Trackpoint>
            <Time>2019-08-04T18:24:09.000Z</Time>
            <Position>
              <LatitudeDegrees>-33.53303653188049793243408203125</LatitudeDegrees>
              <LongitudeDegrees>-70.22930449806153774261474609375</LongitudeDegrees>
            </Position>
            <AltitudeMeters>1756</AltitudeMeters>
            <DistanceMeters>6268.6591266789</DistanceMeters>
          </Trackpoint>
          <Trackpoint>
            <Time>2019-08-04T18:24:11.000Z</Time>
            <Position>
              <LatitudeDegrees>-33.53301800787448883056640625</LatitudeDegrees>
              <LongitudeDegrees>-70.2292876504361629486083984375</LongitudeDegrees>
            </Position>
            <AltitudeMeters>1755</AltitudeMeters>
            <DistanceMeters>6271.244132785</DistanceMeters>
          </Trackpoint>
          <Trackpoint>
            <Time>2019-08-04T18:24:13.000Z</Time>
            <Position>
              <LatitudeDegrees>-33.5330161638557910919189453125</LatitudeDegrees>
              <LongitudeDegrees>-70.2292511053383350372314453125</LongitudeDegrees>
            </Position>
            <AltitudeMeters>1754</AltitudeMeters>
            <DistanceMeters>6274.6399254198</DistanceMeters>
          </Trackpoint>
          <Trackpoint>
            <Time>2019-08-04T18:24:14.000Z</Time>
            <Position>
              <LatitudeDegrees>-33.53300685994327068328857421875</LatitudeDegrees>
              <LongitudeDegrees>-70.22924113087356090545654296875</LongitudeDegrees>
            </Position>
            <AltitudeMeters>1753.4000244140625</AltitudeMeters>
            <DistanceMeters>6276.0267946576</DistanceMeters>
          </Trackpoint>
          <Trackpoint>
            <Time>2019-08-04T18:24:16.000Z</Time>
            <Position>
              <LatitudeDegrees>-33.5329876653850078582763671875</LatitudeDegrees>
              <LongitudeDegrees>-70.22922486998140811920166015625</LongitudeDegrees>
            </Position>
            <AltitudeMeters>1752.5999755859375</AltitudeMeters>
            <DistanceMeters>6278.6430511328</DistanceMeters>
          </Trackpoint>
          <Trackpoint>
            <Time>2019-08-04T18:24:19.000Z</Time>
            <Position>
              <LatitudeDegrees>-33.5329544730484485626220703125</LatitudeDegrees>
              <LongitudeDegrees>-70.22920089773833751678466796875</LongitudeDegrees>
            </Position>
            <AltitudeMeters>1751.4000244140625</AltitudeMeters>
            <DistanceMeters>6282.9560497967</DistanceMeters>
          </Trackpoint>
          <Trackpoint>
            <Time>2019-08-04T18:24:25.000Z</Time>
            <Position>
              <LatitudeDegrees>-33.53291013278067111968994140625</LatitudeDegrees>
              <LongitudeDegrees>-70.2291444875299930572509765625</LongitudeDegrees>
            </Position>
            <AltitudeMeters>1750.4000244140625</AltitudeMeters>
            <DistanceMeters>6290.1492645178</DistanceMeters>
          </Trackpoint>
          <Trackpoint>
            <Time>2019-08-04T18:24:27.000Z</Time>
            <Position>
              <LatitudeDegrees>-33.53289957158267498016357421875</LatitudeDegrees>
              <LongitudeDegrees>-70.229128561913967132568359375</LongitudeDegrees>
            </Position>
            <AltitudeMeters>1750</AltitudeMeters>
            <DistanceMeters>6292.0354909408</DistanceMeters>
          </Trackpoint>
          <Trackpoint>
            <Time>2019-08-04T18:24:30.000Z</Time>
            <Position>
              <LatitudeDegrees>-33.5328790359199047088623046875</LatitudeDegrees>
              <LongitudeDegrees>-70.2291076071560382843017578125</LongitudeDegrees>
            </Position>
            <AltitudeMeters>1749.199951171875</AltitudeMeters>
            <DistanceMeters>6295.0344834614</DistanceMeters>
          </Trackpoint>
          <Trackpoint>
            <Time>2019-08-04T18:24:32.000Z</Time>
            <Position>
              <LatitudeDegrees>-33.53287576697766780853271484375</LatitudeDegrees>
              <LongitudeDegrees>-70.22907726466655731201171875</LongitudeDegrees>
            </Position>
            <AltitudeMeters>1749</AltitudeMeters>
            <DistanceMeters>6297.872586382</DistanceMeters>
          </Trackpoint>
          <Trackpoint>
            <Time>2019-08-04T18:24:36.000Z</Time>
            <Position>
              <LatitudeDegrees>-33.5328797064721584320068359375</LatitudeDegrees>
              <LongitudeDegrees>-70.22902269847691059112548828125</LongitudeDegrees>
            </Position>
            <AltitudeMeters>1748</AltitudeMeters>
            <DistanceMeters>6302.9536284555</DistanceMeters>
          </Trackpoint>
          <Trackpoint>
            <Time>2019-08-04T18:24:37.000Z</Time>
            <Position>
              <LatitudeDegrees>-33.53288180194795131683349609375</LatitudeDegrees>
              <LongitudeDegrees>-70.22901213727891445159912109375</LongitudeDegrees>
            </Position>
            <AltitudeMeters>1747.800048828125</AltitudeMeters>
            <DistanceMeters>6303.9592966721</DistanceMeters>
          </Trackpoint>
          <Trackpoint>
            <Time>2019-08-04T18:24:41.000Z</Time>
            <Position>
              <LatitudeDegrees>-33.5328706540167331695556640625</LatitudeDegrees>
              <LongitudeDegrees>-70.22896704263985157012939453125</LongitudeDegrees>
            </Position>
            <AltitudeMeters>1747.4000244140625</AltitudeMeters>
            <DistanceMeters>6308.3243237392</DistanceMeters>
          </Trackpoint>
          <Trackpoint>
            <Time>2019-08-04T18:24:42.000Z</Time>
            <Position>
              <LatitudeDegrees>-33.53286034427583217620849609375</LatitudeDegrees>
              <LongitudeDegrees>-70.2289585769176483154296875</LongitudeDegrees>
            </Position>
            <AltitudeMeters>1747.199951171875</AltitudeMeters>
            <DistanceMeters>6309.7144447264</DistanceMeters>
          </Trackpoint>
          <Trackpoint>
            <Time>2019-08-04T18:24:47.000Z</Time>
            <Position>
              <LatitudeDegrees>-33.53285095654428005218505859375</LatitudeDegrees>
              <LongitudeDegrees>-70.22889629937708377838134765625</LongitudeDegrees>
            </Position>
            <AltitudeMeters>1747</AltitudeMeters>
            <DistanceMeters>6315.5861422546</DistanceMeters>
          </Trackpoint>
          <Trackpoint>
            <Time>2019-08-04T18:24:48.000Z</Time>
            <Position>
              <LatitudeDegrees>-33.53285296820104122161865234375</LatitudeDegrees>
              <LongitudeDegrees>-70.22888473235070705413818359375</LongitudeDegrees>
            </Position>
            <AltitudeMeters>1746.800048828125</AltitudeMeters>
            <DistanceMeters>6316.6861560016</DistanceMeters>
          </Trackpoint>
          <Trackpoint>
            <Time>2019-08-04T18:25:00.000Z</Time>
            <Position>
              <LatitudeDegrees>-33.5328384675085544586181640625</LatitudeDegrees>
              <LongitudeDegrees>-70.228757746517658233642578125</LongitudeDegrees>
            </Position>
            <AltitudeMeters>1746.199951171875</AltitudeMeters>
            <DistanceMeters>6328.5774119081</DistanceMeters>
          </Trackpoint>
          <Trackpoint>
            <Time>2019-08-04T18:25:05.000Z</Time>
            <Position>
              <LatitudeDegrees>-33.53279748000204563140869140625</LatitudeDegrees>
              <LongitudeDegrees>-70.228707790374755859375</LongitudeDegrees>
            </Position>
            <AltitudeMeters>1745.800048828125</AltitudeMeters>
            <DistanceMeters>6335.0810169133</DistanceMeters>
          </Trackpoint>
          <Trackpoint>
            <Time>2019-08-04T18:25:08.000Z</Time>
            <Position>
              <LatitudeDegrees>-33.53278222493827342987060546875</LatitudeDegrees>
              <LongitudeDegrees>-70.2286734245717525482177734375</LongitudeDegrees>
            </Position>
            <AltitudeMeters>1745.4000244140625</AltitudeMeters>
            <DistanceMeters>6338.6945318971</DistanceMeters>
          </Trackpoint>
          <Trackpoint>
            <Time>2019-08-04T18:25:10.000Z</Time>
            <Position>
              <LatitudeDegrees>-33.53276596404612064361572265625</LatitudeDegrees>
              <LongitudeDegrees>-70.22864819504320621490478515625</LongitudeDegrees>
            </Position>
            <AltitudeMeters>1744.800048828125</AltitudeMeters>
            <DistanceMeters>6341.6541220969</DistanceMeters>
          </Trackpoint>
          <Trackpoint>
            <Time>2019-08-04T18:25:13.000Z</Time>
            <Position>
              <LatitudeDegrees>-33.5327432490885257720947265625</LatitudeDegrees>
              <LongitudeDegrees>-70.2286160923540592193603515625</LongitudeDegrees>
            </Position>
            <AltitudeMeters>1743.800048828125</AltitudeMeters>
            <DistanceMeters>6345.5617888261</DistanceMeters>
          </Trackpoint>
          <Trackpoint>
            <Time>2019-08-04T18:25:16.000Z</Time>
            <Position>
              <LatitudeDegrees>-33.5327289998531341552734375</LatitudeDegrees>
              <LongitudeDegrees>-70.228592455387115478515625</LongitudeDegrees>
            </Position>
            <AltitudeMeters>1743.199951171875</AltitudeMeters>
            <DistanceMeters>6348.2662965299</DistanceMeters>
          </Trackpoint>
          <Trackpoint>
            <Time>2019-08-04T18:25:18.000Z</Time>
            <Position>
              <LatitudeDegrees>-33.5327157564461231231689453125</LatitudeDegrees>
              <LongitudeDegrees>-70.2285865880548954010009765625</LongitudeDegrees>
            </Position>
            <AltitudeMeters>1742.800048828125</AltitudeMeters>
            <DistanceMeters>6349.8363955297</DistanceMeters>
          </Trackpoint>
          <Trackpoint>
            <Time>2019-08-04T18:25:19.000Z</Time>
            <Position>
              <LatitudeDegrees>-33.53271148167550563812255859375</LatitudeDegrees>
              <LongitudeDegrees>-70.228586085140705108642578125</LongitudeDegrees>
            </Position>
            <AltitudeMeters>1742.800048828125</AltitudeMeters>
            <DistanceMeters>6350.3209386006</DistanceMeters>
          </Trackpoint>
          <Trackpoint>
            <Time>2019-08-04T18:25:27.000Z</Time>
            <Position>
              <LatitudeDegrees>-33.5327241383492946624755859375</LatitudeDegrees>
              <LongitudeDegrees>-70.2285775355994701385498046875</LongitudeDegrees>
            </Position>
            <AltitudeMeters>1742.199951171875</AltitudeMeters>
            <DistanceMeters>6351.9363927448</DistanceMeters>
          </Trackpoint>
          <Trackpoint>
            <Time>2019-08-04T18:25:30.000Z</Time>
            <Position>
              <LatitudeDegrees>-33.532729335129261016845703125</LatitudeDegrees>
              <LongitudeDegrees>-70.22857359610497951507568359375</LongitudeDegrees>
            </Position>
            <AltitudeMeters>1741.800048828125</AltitudeMeters>
            <DistanceMeters>6352.6216401272</DistanceMeters>
          </Trackpoint>
          <Trackpoint>
            <Time>2019-08-04T18:25:31.000Z</Time>
            <Position>
              <LatitudeDegrees>-33.5327318497002124786376953125</LatitudeDegrees>
              <LongitudeDegrees>-70.228571332991123199462890625</LongitudeDegrees>
            </Position>
            <AltitudeMeters>1741.800048828125</AltitudeMeters>
            <DistanceMeters>6352.977197535</DistanceMeters>
          </Trackpoint>
          <Trackpoint>
            <Time>2019-08-04T18:25:35.000Z</Time>
            <Position>
              <LatitudeDegrees>-33.5327348671853542327880859375</LatitudeDegrees>
              <LongitudeDegrees>-70.2285641245543956756591796875</LongitudeDegrees>
            </Position>
            <AltitudeMeters>1741.5999755859375</AltitudeMeters>
            <DistanceMeters>6353.7254386322</DistanceMeters>
          </Trackpoint>
          <Trackpoint>
            <Time>2019-08-04T18:25:38.000Z</Time>
            <Position>
              <LatitudeDegrees>-33.53273545391857624053955078125</LatitudeDegrees>
              <LongitudeDegrees>-70.2285574190318584442138671875</LongitudeDegrees>
            </Position>
            <AltitudeMeters>1741.5999755859375</AltitudeMeters>
            <DistanceMeters>6354.3557745454</DistanceMeters>
          </Trackpoint>
          <Trackpoint>
            <Time>2019-08-04T18:25:44.000Z</Time>
            <Position>
              <LatitudeDegrees>-33.532738052308559417724609375</LatitudeDegrees>
              <LongitudeDegrees>-70.22855423390865325927734375</LongitudeDegrees>
            </Position>
            <AltitudeMeters>1741.800048828125</AltitudeMeters>
            <DistanceMeters>6354.7699863903</DistanceMeters>
          </Trackpoint>
          <Trackpoint>
            <Time>2019-08-04T18:25:46.000Z</Time>
            <Position>
              <LatitudeDegrees>-33.5327395610511302947998046875</LatitudeDegrees>
              <LongitudeDegrees>-70.22855197079479694366455078125</LongitudeDegrees>
            </Position>
            <AltitudeMeters>1742</AltitudeMeters>
            <DistanceMeters>6355.0387625268</DistanceMeters>
          </Trackpoint>
          <Trackpoint>
            <Time>2019-08-04T18:25:47.000Z</Time>
            <Position>
              <LatitudeDegrees>-33.53274148888885974884033203125</LatitudeDegrees>
              <LongitudeDegrees>-70.22855498827993869781494140625</LongitudeDegrees>
            </Position>
            <AltitudeMeters>1742</AltitudeMeters>
            <DistanceMeters>6355.381386218</DistanceMeters>
          </Trackpoint>
          <Trackpoint>
            <Time>2019-08-04T18:25:48.000Z</Time>
            <Position>
              <LatitudeDegrees>-33.53273998014628887176513671875</LatitudeDegrees>
              <LongitudeDegrees>-70.2285544015467166900634765625</LongitudeDegrees>
            </Position>
            <AltitudeMeters>1742.199951171875</AltitudeMeters>
            <DistanceMeters>6355.5714396468</DistanceMeters>
          </Trackpoint>
          <Trackpoint>
            <Time>2019-08-04T18:25:50.000Z</Time>
            <Position>
              <LatitudeDegrees>-33.5327422432601451873779296875</LatitudeDegrees>
              <LongitudeDegrees>-70.22855448536574840545654296875</LongitudeDegrees>
            </Position>
            <AltitudeMeters>1742.199951171875</AltitudeMeters>
            <DistanceMeters>6355.8042066089</DistanceMeters>
          </Trackpoint>
          <Trackpoint>
            <Time>2019-08-04T18:25:52.000Z</Time>
            <Position>
              <LatitudeDegrees>-33.53274417109787464141845703125</LatitudeDegrees>
              <LongitudeDegrees>-70.2285530604422092437744140625</LongitudeDegrees>
            </Position>
            <AltitudeMeters>1742.4000244140625</AltitudeMeters>
            <DistanceMeters>6356.0729827454</DistanceMeters>
          </Trackpoint>
          <Trackpoint>
            <Time>2019-08-04T18:25:57.000Z</Time>
            <Position>
              <LatitudeDegrees>-33.5327424108982086181640625</LatitudeDegrees>
              <LongitudeDegrees>-70.22855029441416263580322265625</LongitudeDegrees>
            </Position>
            <AltitudeMeters>1742.800048828125</AltitudeMeters>
            <DistanceMeters>6356.388150702</DistanceMeters>
          </Trackpoint>
          <Trackpoint>
            <Time>2019-08-04T18:26:09.000Z</Time>
            <Position>
              <LatitudeDegrees>-33.5327352024614810943603515625</LatitudeDegrees>
              <LongitudeDegrees>-70.2285527251660823822021484375</LongitudeDegrees>
            </Position>
            <AltitudeMeters>1742.4000244140625</AltitudeMeters>
            <DistanceMeters>6357.2220067365</DistanceMeters>
          </Trackpoint>
          <Trackpoint>
            <Time>2019-08-04T18:26:11.000Z</Time>
            <Position>
              <LatitudeDegrees>-33.53273360989987850189208984375</LatitudeDegrees>
              <LongitudeDegrees>-70.2285560779273509979248046875</LongitudeDegrees>
            </Position>
            <AltitudeMeters>1742.199951171875</AltitudeMeters>
            <DistanceMeters>6357.5511889312</DistanceMeters>
          </Trackpoint>
          <Trackpoint>
            <Time>2019-08-04T18:26:19.000Z</Time>
            <Position>
              <LatitudeDegrees>-33.5327415727078914642333984375</LatitudeDegrees>
              <LongitudeDegrees>-70.22854727692902088165283203125</LongitudeDegrees>
            </Position>
            <AltitudeMeters>1741.800048828125</AltitudeMeters>
            <DistanceMeters>6358.7531923551</DistanceMeters>
          </Trackpoint>
          <Trackpoint>
            <Time>2019-08-04T18:26:22.000Z</Time>
            <Position>
              <LatitudeDegrees>-33.5327439196407794952392578125</LatitudeDegrees>
              <LongitudeDegrees>-70.22854258306324481964111328125</LongitudeDegrees>
            </Position>
            <AltitudeMeters>1741.5999755859375</AltitudeMeters>
            <DistanceMeters>6359.2649268731</DistanceMeters>
          </Trackpoint>
          <Trackpoint>
            <Time>2019-08-04T18:26:25.000Z</Time>
            <Position>
              <LatitudeDegrees>-33.53274584747850894927978515625</LatitudeDegrees>
              <LongitudeDegrees>-70.22854149341583251953125</LongitudeDegrees>
            </Position>
            <AltitudeMeters>1741.4000244140625</AltitudeMeters>
            <DistanceMeters>6359.4976938352</DistanceMeters>
          </Trackpoint>
          <Trackpoint>
            <Time>2019-08-04T18:26:30.000Z</Time>
            <Position>
              <LatitudeDegrees>-33.5327489487826824188232421875</LatitudeDegrees>
              <LongitudeDegrees>-70.2285399846732616424560546875</LongitudeDegrees>
            </Position>
            <AltitudeMeters>1741.199951171875</AltitudeMeters>
            <DistanceMeters>6359.8778006927</DistanceMeters>
          </Trackpoint>
          <Trackpoint>
            <Time>2019-08-04T18:26:33.000Z</Time>
            <Position>
              <LatitudeDegrees>-33.5327486135065555572509765625</LatitudeDegrees>
              <LongitudeDegrees>-70.22854208014905452728271484375</LongitudeDegrees>
            </Position>
            <AltitudeMeters>1741.4000244140625</AltitudeMeters>
            <DistanceMeters>6360.0678541214</DistanceMeters>
          </Trackpoint>
          <Trackpoint>
            <Time>2019-08-04T18:26:36.000Z</Time>
            <Position>
              <LatitudeDegrees>-33.532743752002716064453125</LatitudeDegrees>
              <LongitudeDegrees>-70.228547863662242889404296875</LongitudeDegrees>
            </Position>
            <AltitudeMeters>1741.4000244140625</AltitudeMeters>
            <DistanceMeters>6360.8280678364</DistanceMeters>
          </Trackpoint>
          <Trackpoint>
            <Time>2019-08-04T18:26:38.000Z</Time>
            <Position>
              <LatitudeDegrees>-33.53274081833660602569580078125</LatitudeDegrees>
              <LongitudeDegrees>-70.228549540042877197265625</LongitudeDegrees>
            </Position>
            <AltitudeMeters>1741.5999755859375</AltitudeMeters>
            <DistanceMeters>6361.1961047186</DistanceMeters>
          </Trackpoint>
          <Trackpoint>
            <Time>2019-08-04T18:26:44.000Z</Time>
            <Position>
              <LatitudeDegrees>-33.5327335260808467864990234375</LatitudeDegrees>
              <LongitudeDegrees>-70.22855984978377819061279296875</LongitudeDegrees>
            </Position>
            <AltitudeMeters>1741.5999755859375</AltitudeMeters>
            <DistanceMeters>6362.4495931713</DistanceMeters>
          </Trackpoint>
          <Trackpoint>
            <Time>2019-08-04T18:26:50.000Z</Time>
            <Position>
              <LatitudeDegrees>-33.53274014778435230255126953125</LatitudeDegrees>
              <LongitudeDegrees>-70.2285681478679180145263671875</LongitudeDegrees>
            </Position>
            <AltitudeMeters>1742.800048828125</AltitudeMeters>
            <DistanceMeters>6363.5162653946</DistanceMeters>
          </Trackpoint>
          <Trackpoint>
            <Time>2019-08-04T18:26:52.000Z</Time>
            <Position>
              <LatitudeDegrees>-33.53273377753794193267822265625</LatitudeDegrees>
              <LongitudeDegrees>-70.22857342846691608428955078125</LongitudeDegrees>
            </Position>
            <AltitudeMeters>1743.5999755859375</AltitudeMeters>
            <DistanceMeters>6364.3767688917</DistanceMeters>
          </Trackpoint>
          <Trackpoint>
            <Time>2019-08-04T18:26:54.000Z</Time>
            <Position>
              <LatitudeDegrees>-33.53273629210889339447021484375</LatitudeDegrees>
              <LongitudeDegrees>-70.228569321334362030029296875</LongitudeDegrees>
            </Position>
            <AltitudeMeters>1744</AltitudeMeters>
            <DistanceMeters>6364.8423028159</DistanceMeters>
          </Trackpoint>
          <Trackpoint>
            <Time>2019-08-04T18:26:55.000Z</Time>
            <Position>
              <LatitudeDegrees>-33.532737381756305694580078125</LatitudeDegrees>
              <LongitudeDegrees>-70.22857074625790119171142578125</LongitudeDegrees>
            </Position>
            <AltitudeMeters>1744</AltitudeMeters>
            <DistanceMeters>6365.0323562447</DistanceMeters>
          </Trackpoint>
          <Trackpoint>
            <Time>2019-08-04T18:27:01.000Z</Time>
            <Position>
              <LatitudeDegrees>-33.532741069793701171875</LatitudeDegrees>
              <LongitudeDegrees>-70.22856437601149082183837890625</LongitudeDegrees>
            </Position>
            <AltitudeMeters>1744</AltitudeMeters>
            <DistanceMeters>6365.7560581403</DistanceMeters>
          </Trackpoint>
          <Trackpoint>
            <Time>2019-08-04T18:27:09.000Z</Time>
            <Position>
              <LatitudeDegrees>-33.53274844586849212646484375</LatitudeDegrees>
              <LongitudeDegrees>-70.2285584248602390289306640625</LongitudeDegrees>
            </Position>
            <AltitudeMeters>1744</AltitudeMeters>
            <DistanceMeters>6366.7436047245</DistanceMeters>
          </Trackpoint>
          <Trackpoint>
            <Time>2019-08-04T18:27:17.000Z</Time>
            <Position>
              <LatitudeDegrees>-33.53274148888885974884033203125</LatitudeDegrees>
              <LongitudeDegrees>-70.2285708300769329071044921875</LongitudeDegrees>
            </Position>
            <AltitudeMeters>1744</AltitudeMeters>
            <DistanceMeters>6368.1337257117</DistanceMeters>
          </Trackpoint>
          <Trackpoint>
            <Time>2019-08-04T18:27:19.000Z</Time>
            <Position>
              <LatitudeDegrees>-33.532741069793701171875</LatitudeDegrees>
              <LongitudeDegrees>-70.2285701595246791839599609375</LongitudeDegrees>
            </Position>
            <AltitudeMeters>1744</AltitudeMeters>
            <DistanceMeters>6368.2287524261</DistanceMeters>
          </Trackpoint>
          <Trackpoint>
            <Time>2019-08-04T18:27:22.000Z</Time>
            <Position>
              <LatitudeDegrees>-33.53273763321340084075927734375</LatitudeDegrees>
              <LongitudeDegrees>-70.2285651303827762603759765625</LongitudeDegrees>
            </Position>
            <AltitudeMeters>1743.800048828125</AltitudeMeters>
            <DistanceMeters>6368.829754138</DistanceMeters>
          </Trackpoint>
          <Trackpoint>
            <Time>2019-08-04T18:27:23.000Z</Time>
            <Position>
              <LatitudeDegrees>-33.53273746557533740997314453125</LatitudeDegrees>
              <LongitudeDegrees>-70.228561945259571075439453125</LongitudeDegrees>
            </Position>
            <AltitudeMeters>1743.800048828125</AltitudeMeters>
            <DistanceMeters>6369.130254994</DistanceMeters>
          </Trackpoint>
          <Trackpoint>
            <Time>2019-08-04T18:27:29.000Z</Time>
            <Position>
              <LatitudeDegrees>-33.532736711204051971435546875</LatitudeDegrees>
              <LongitudeDegrees>-70.2285500429570674896240234375</LongitudeDegrees>
            </Position>
            <AltitudeMeters>1742.5999755859375</AltitudeMeters>
            <DistanceMeters>6370.2384473944</DistanceMeters>
          </Trackpoint>
          <Trackpoint>
            <Time>2019-08-04T18:27:32.000Z</Time>
            <Position>
              <LatitudeDegrees>-33.53273729793727397918701171875</LatitudeDegrees>
              <LongitudeDegrees>-70.2285480313003063201904296875</LongitudeDegrees>
            </Position>
            <AltitudeMeters>1741.5999755859375</AltitudeMeters>
            <DistanceMeters>6370.4285008232</DistanceMeters>
          </Trackpoint>
          <Trackpoint>
            <Time>2019-08-04T18:27:43.000Z</Time>
            <Position>
              <LatitudeDegrees>-33.53273562155663967132568359375</LatitudeDegrees>
              <LongitudeDegrees>-70.2285508811473846435546875</LongitudeDegrees>
            </Position>
            <AltitudeMeters>1741.800048828125</AltitudeMeters>
            <DistanceMeters>6370.7576830179</DistanceMeters>
          </Trackpoint>
          <Trackpoint>
            <Time>2019-08-04T18:27:50.000Z</Time>
            <Position>
              <LatitudeDegrees>-33.53270779363811016082763671875</LatitudeDegrees>
              <LongitudeDegrees>-70.22858449257910251617431640625</LongitudeDegrees>
            </Position>
            <AltitudeMeters>1741.5999755859375</AltitudeMeters>
            <DistanceMeters>6375.1526043498</DistanceMeters>
          </Trackpoint>
          <Trackpoint>
            <Time>2019-08-04T18:27:56.000Z</Time>
            <Position>
              <LatitudeDegrees>-33.5326805524528026580810546875</LatitudeDegrees>
              <LongitudeDegrees>-70.22861726582050323486328125</LongitudeDegrees>
            </Position>
            <AltitudeMeters>1741.4000244140625</AltitudeMeters>
            <DistanceMeters>6379.4467184725</DistanceMeters>
          </Trackpoint>
          <Trackpoint>
            <Time>2019-08-04T18:27:58.000Z</Time>
            <Position>
              <LatitudeDegrees>-33.53267711587250232696533203125</LatitudeDegrees>
              <LongitudeDegrees>-70.22861936129629611968994140625</LongitudeDegrees>
            </Position>
            <AltitudeMeters>1741</AltitudeMeters>
            <DistanceMeters>6379.8716908585</DistanceMeters>
          </Trackpoint>
          <Trackpoint>
            <Time>2019-08-04T18:28:04.000Z</Time>
            <Position>
              <LatitudeDegrees>-33.53267795406281948089599609375</LatitudeDegrees>
              <LongitudeDegrees>-70.22861667908728122711181640625</LongitudeDegrees>
            </Position>
            <AltitudeMeters>1740.5999755859375</AltitudeMeters>
            <DistanceMeters>6380.140466995</DistanceMeters>
          </Trackpoint>
          <Trackpoint>
            <Time>2019-08-04T18:28:09.000Z</Time>
            <Position>
              <LatitudeDegrees>-33.53268130682408809661865234375</LatitudeDegrees>
              <LongitudeDegrees>-70.228614248335361480712890625</LongitudeDegrees>
            </Position>
            <AltitudeMeters>1741</AltitudeMeters>
            <DistanceMeters>6380.5759341066</DistanceMeters>
          </Trackpoint>
          <Trackpoint>
            <Time>2019-08-04T18:28:12.000Z</Time>
            <Position>
              <LatitudeDegrees>-33.5326807200908660888671875</LatitudeDegrees>
              <LongitudeDegrees>-70.2286137454211711883544921875</LongitudeDegrees>
            </Position>
            <AltitudeMeters>1741</AltitudeMeters>
            <DistanceMeters>6380.5759341066</DistanceMeters>
          </Trackpoint>
          <Trackpoint>
            <Time>2019-08-04T18:28:14.000Z</Time>
            <Position>
              <LatitudeDegrees>-33.5326828993856906890869140625</LatitudeDegrees>
              <LongitudeDegrees>-70.2286124043166637420654296875</LongitudeDegrees>
            </Position>
            <AltitudeMeters>1741</AltitudeMeters>
            <DistanceMeters>6380.8447102431</DistanceMeters>
          </Trackpoint>
          <Trackpoint>
            <Time>2019-08-04T18:28:18.000Z</Time>
            <Position>
              <LatitudeDegrees>-33.532682396471500396728515625</LatitudeDegrees>
              <LongitudeDegrees>-70.22861148230731487274169921875</LongitudeDegrees>
            </Position>
            <AltitudeMeters>1741</AltitudeMeters>
            <DistanceMeters>6380.9790983114</DistanceMeters>
          </Trackpoint>
          <Trackpoint>
            <Time>2019-08-04T18:28:23.000Z</Time>
            <Position>
              <LatitudeDegrees>-33.53268566541373729705810546875</LatitudeDegrees>
              <LongitudeDegrees>-70.228600837290287017822265625</LongitudeDegrees>
            </Position>
            <AltitudeMeters>1741.199951171875</AltitudeMeters>
            <DistanceMeters>6382.0287026779</DistanceMeters>
          </Trackpoint>
          <Trackpoint>
            <Time>2019-08-04T18:28:28.000Z</Time>
            <Position>
              <LatitudeDegrees>-33.5326741822063922882080078125</LatitudeDegrees>
              <LongitudeDegrees>-70.2286020107567310333251953125</LongitudeDegrees>
            </Position>
            <AltitudeMeters>1741.199951171875</AltitudeMeters>
            <DistanceMeters>6383.3106831429</DistanceMeters>
          </Trackpoint>
          <Trackpoint>
            <Time>2019-08-04T18:28:29.000Z</Time>
            <Position>
              <LatitudeDegrees>-33.5326738469302654266357421875</LatitudeDegrees>
              <LongitudeDegrees>-70.22860092110931873321533203125</LongitudeDegrees>
            </Position>
            <AltitudeMeters>1741.199951171875</AltitudeMeters>
            <DistanceMeters>6383.4057098573</DistanceMeters>
          </Trackpoint>
          <Trackpoint>
            <Time>2019-08-04T18:28:42.000Z</Time>
            <Position>
              <LatitudeDegrees>-33.5326989926397800445556640625</LatitudeDegrees>
              <LongitudeDegrees>-70.22858801297843456268310546875</LongitudeDegrees>
            </Position>
            <AltitudeMeters>1741.199951171875</AltitudeMeters>
            <DistanceMeters>6386.4495328534</DistanceMeters>
          </Trackpoint>
          <Trackpoint>
            <Time>2019-08-04T18:28:44.000Z</Time>
            <Position>
              <LatitudeDegrees>-33.53270226158201694488525390625</LatitudeDegrees>
              <LongitudeDegrees>-70.2285872586071491241455078125</LongitudeDegrees>
            </Position>
            <AltitudeMeters>1741.4000244140625</AltitudeMeters>
            <DistanceMeters>6386.8296397109</DistanceMeters>
          </Trackpoint>
          <Trackpoint>
            <Time>2019-08-04T18:28:46.000Z</Time>
            <Position>
              <LatitudeDegrees>-33.5327046923339366912841796875</LatitudeDegrees>
              <LongitudeDegrees>-70.228588096797466278076171875</LongitudeDegrees>
            </Position>
            <AltitudeMeters>1741.4000244140625</AltitudeMeters>
            <DistanceMeters>6387.1301405668</DistanceMeters>
          </Trackpoint>
          <Trackpoint>
            <Time>2019-08-04T18:28:47.000Z</Time>
            <Position>
              <LatitudeDegrees>-33.532706201076507568359375</LatitudeDegrees>
              <LongitudeDegrees>-70.2285879291594028472900390625</LongitudeDegrees>
            </Position>
            <AltitudeMeters>1741.5999755859375</AltitudeMeters>
            <DistanceMeters>6387.3201939956</DistanceMeters>
          </Trackpoint>
          <Trackpoint>
            <Time>2019-08-04T18:28:48.000Z</Time>
            <Position>
              <LatitudeDegrees>-33.532707877457141876220703125</LatitudeDegrees>
              <LongitudeDegrees>-70.22858818061649799346923828125</LongitudeDegrees>
            </Position>
            <AltitudeMeters>1741.5999755859375</AltitudeMeters>
            <DistanceMeters>6387.5102474243</DistanceMeters>
          </Trackpoint>
          <Trackpoint>
            <Time>2019-08-04T18:28:49.000Z</Time>
            <Position>
              <LatitudeDegrees>-33.53270947001874446868896484375</LatitudeDegrees>
              <LongitudeDegrees>-70.22858851589262485504150390625</LongitudeDegrees>
            </Position>
            <AltitudeMeters>1741.4000244140625</AltitudeMeters>
            <DistanceMeters>6387.7003008531</DistanceMeters>
          </Trackpoint>
          <Trackpoint>
            <Time>2019-08-04T18:28:51.000Z</Time>
            <Position>
              <LatitudeDegrees>-33.53271265514194965362548828125</LatitudeDegrees>
              <LongitudeDegrees>-70.22859086282551288604736328125</LongitudeDegrees>
            </Position>
            <AltitudeMeters>1741.800048828125</AltitudeMeters>
            <DistanceMeters>6388.1252732391</DistanceMeters>
          </Trackpoint>
          <Trackpoint>
            <Time>2019-08-04T18:28:53.000Z</Time>
            <Position>
              <LatitudeDegrees>-33.532715924084186553955078125</LatitudeDegrees>
              <LongitudeDegrees>-70.22859153337776660919189453125</LongitudeDegrees>
            </Position>
            <AltitudeMeters>1741.800048828125</AltitudeMeters>
            <DistanceMeters>6388.5053800966</DistanceMeters>
          </Trackpoint>
          <Trackpoint>
            <Time>2019-08-04T18:28:56.000Z</Time>
            <Position>
              <LatitudeDegrees>-33.5327194444835186004638671875</LatitudeDegrees>
              <LongitudeDegrees>-70.22859505377709865570068359375</LongitudeDegrees>
            </Position>
            <AltitudeMeters>1742</AltitudeMeters>
            <DistanceMeters>6389.0258628468</DistanceMeters>
          </Trackpoint>
          <Trackpoint>
            <Time>2019-08-04T18:28:58.000Z</Time>
            <Position>
              <LatitudeDegrees>-33.53272455744445323944091796875</LatitudeDegrees>
              <LongitudeDegrees>-70.22859555669128894805908203125</LongitudeDegrees>
            </Position>
            <AltitudeMeters>1742.5999755859375</AltitudeMeters>
            <DistanceMeters>6389.596023133</DistanceMeters>
          </Trackpoint>
          <Trackpoint>
            <Time>2019-08-04T18:29:05.000Z</Time>
            <Position>
              <LatitudeDegrees>-33.5327231325209140777587890625</LatitudeDegrees>
              <LongitudeDegrees>-70.22859103046357631683349609375</LongitudeDegrees>
            </Position>
            <AltitudeMeters>1743</AltitudeMeters>
            <DistanceMeters>6390.0417379317</DistanceMeters>
          </Trackpoint>
          <Trackpoint>
            <Time>2019-08-04T18:29:10.000Z</Time>
            <Position>
              <LatitudeDegrees>-33.5327238030731678009033203125</LatitudeDegrees>
              <LongitudeDegrees>-70.228585414588451385498046875</LongitudeDegrees>
            </Position>
            <AltitudeMeters>1743</AltitudeMeters>
            <DistanceMeters>6390.5708242855</DistanceMeters>
          </Trackpoint>
          <Trackpoint>
            <Time>2019-08-04T18:29:11.000Z</Time>
            <Position>
              <LatitudeDegrees>-33.53272355161607265472412109375</LatitudeDegrees>
              <LongitudeDegrees>-70.22858507931232452392578125</LongitudeDegrees>
            </Position>
            <AltitudeMeters>1743.199951171875</AltitudeMeters>
            <DistanceMeters>6390.5708242855</DistanceMeters>
          </Trackpoint>
          <Trackpoint>
            <Time>2019-08-04T18:29:12.000Z</Time>
            <Position>
              <LatitudeDegrees>-33.5327251441776752471923828125</LatitudeDegrees>
              <LongitudeDegrees>-70.22858197800815105438232421875</LongitudeDegrees>
            </Position>
            <AltitudeMeters>1743</AltitudeMeters>
            <DistanceMeters>6390.9000064802</DistanceMeters>
          </Trackpoint>
          <Trackpoint>
            <Time>2019-08-04T18:29:19.000Z</Time>
            <Position>
              <LatitudeDegrees>-33.5327221266925334930419921875</LatitudeDegrees>
              <LongitudeDegrees>-70.22857359610497951507568359375</LongitudeDegrees>
            </Position>
            <AltitudeMeters>1743.199951171875</AltitudeMeters>
            <DistanceMeters>6391.7499512523</DistanceMeters>
          </Trackpoint>
          <Trackpoint>
            <Time>2019-08-04T18:29:25.000Z</Time>
            <Position>
              <LatitudeDegrees>-33.53271667845547199249267578125</LatitudeDegrees>
              <LongitudeDegrees>-70.22857141681015491485595703125</LongitudeDegrees>
            </Position>
            <AltitudeMeters>1743.199951171875</AltitudeMeters>
            <DistanceMeters>6392.3944537863</DistanceMeters>
          </Trackpoint>
          <Trackpoint>
            <Time>2019-08-04T18:29:41.000Z</Time>
            <Position>
              <LatitudeDegrees>-33.5327127389609813690185546875</LatitudeDegrees>
              <LongitudeDegrees>-70.22856772877275943756103515625</LongitudeDegrees>
            </Position>
            <AltitudeMeters>1743</AltitudeMeters>
            <DistanceMeters>6392.9646140726</DistanceMeters>
          </Trackpoint>
          <Trackpoint>
            <Time>2019-08-04T18:29:56.000Z</Time>
            <Position>
              <LatitudeDegrees>-33.53270309977233409881591796875</LatitudeDegrees>
              <LongitudeDegrees>-70.2285587601363658905029296875</LongitudeDegrees>
            </Position>
            <AltitudeMeters>1743.199951171875</AltitudeMeters>
            <DistanceMeters>6394.3218670315</DistanceMeters>
          </Trackpoint>
          <Trackpoint>
            <Time>2019-08-04T18:30:11.000Z</Time>
            <Position>
              <LatitudeDegrees>-33.532701171934604644775390625</LatitudeDegrees>
              <LongitudeDegrees>-70.2285601012408733367919921875</LongitudeDegrees>
            </Position>
            <AltitudeMeters>1743.4000244140625</AltitudeMeters>
            <DistanceMeters>6394.5546339937</DistanceMeters>
          </Trackpoint>
          <Trackpoint>
            <Time>2019-08-04T18:30:22.000Z</Time>
            <Position>
              <LatitudeDegrees>-33.53270997293293476104736328125</LatitudeDegrees>
              <LongitudeDegrees>-70.2285544015467166900634765625</LongitudeDegrees>
            </Position>
            <AltitudeMeters>1743.4000244140625</AltitudeMeters>
            <DistanceMeters>6395.6628263941</DistanceMeters>
          </Trackpoint>
          <Trackpoint>
            <Time>2019-08-04T18:30:27.000Z</Time>
            <Position>
              <LatitudeDegrees>-33.53271198458969593048095703125</LatitudeDegrees>
              <LongitudeDegrees>-70.2285483665764331817626953125</LongitudeDegrees>
            </Position>
            <AltitudeMeters>1743.4000244140625</AltitudeMeters>
            <DistanceMeters>6396.2712942521</DistanceMeters>
          </Trackpoint>
          <Trackpoint>
            <Time>2019-08-04T18:30:35.000Z</Time>
            <Position>
              <LatitudeDegrees>-33.53270963765680789947509765625</LatitudeDegrees>
              <LongitudeDegrees>-70.22855021059513092041015625</LongitudeDegrees>
            </Position>
            <AltitudeMeters>1743.4000244140625</AltitudeMeters>
            <DistanceMeters>6396.571795108</DistanceMeters>
          </Trackpoint>
          <Trackpoint>
            <Time>2019-08-04T18:30:38.000Z</Time>
            <Position>
              <LatitudeDegrees>-33.53270729072391986846923828125</LatitudeDegrees>
              <LongitudeDegrees>-70.22854241542518138885498046875</LongitudeDegrees>
            </Position>
            <AltitudeMeters>1743.4000244140625</AltitudeMeters>
            <DistanceMeters>6397.3379249723</DistanceMeters>
          </Trackpoint>
          <Trackpoint>
            <Time>2019-08-04T18:30:39.000Z</Time>
            <Position>
              <LatitudeDegrees>-33.5327056981623172760009765625</LatitudeDegrees>
              <LongitudeDegrees>-70.228541828691959381103515625</LongitudeDegrees>
            </Position>
            <AltitudeMeters>1743.4000244140625</AltitudeMeters>
            <DistanceMeters>6397.527978401</DistanceMeters>
          </Trackpoint>
          <Trackpoint>
            <Time>2019-08-04T18:30:42.000Z</Time>
            <Position>
              <LatitudeDegrees>-33.532702513039112091064453125</LatitudeDegrees>
              <LongitudeDegrees>-70.22854484617710113525390625</LongitudeDegrees>
            </Position>
            <AltitudeMeters>1743.4000244140625</AltitudeMeters>
            <DistanceMeters>6397.9837105133</DistanceMeters>
          </Trackpoint>
          <Trackpoint>
            <Time>2019-08-04T18:30:48.000Z</Time>
            <Position>
              <LatitudeDegrees>-33.53270393796265125274658203125</LatitudeDegrees>
              <LongitudeDegrees>-70.22854660637676715850830078125</LongitudeDegrees>
            </Position>
            <AltitudeMeters>1743.4000244140625</AltitudeMeters>
            <DistanceMeters>6398.2164774755</DistanceMeters>
          </Trackpoint>
          <Trackpoint>
            <Time>2019-08-04T18:30:57.000Z</Time>
            <Position>
              <LatitudeDegrees>-33.532709218561649322509765625</LatitudeDegrees>
              <LongitudeDegrees>-70.2285369671881198883056640625</LongitudeDegrees>
            </Position>
            <AltitudeMeters>1743.4000244140625</AltitudeMeters>
            <DistanceMeters>6399.2831496988</DistanceMeters>
          </Trackpoint>
          <Trackpoint>
            <Time>2019-08-04T18:31:00.000Z</Time>
            <Position>
              <LatitudeDegrees>-33.5327137447893619537353515625</LatitudeDegrees>
              <LongitudeDegrees>-70.2285352908074855804443359375</LongitudeDegrees>
            </Position>
            <AltitudeMeters>1743.5999755859375</AltitudeMeters>
            <DistanceMeters>6399.8122360526</DistanceMeters>
          </Trackpoint>
          <Trackpoint>
            <Time>2019-08-04T18:31:07.000Z</Time>
            <Position>
              <LatitudeDegrees>-33.532716594636440277099609375</LatitudeDegrees>
              <LongitudeDegrees>-70.228534452617168426513671875</LongitudeDegrees>
            </Position>
            <AltitudeMeters>1743.4000244140625</AltitudeMeters>
            <DistanceMeters>6400.1414182473</DistanceMeters>
          </Trackpoint>
          <Trackpoint>
            <Time>2019-08-04T18:31:14.000Z</Time>
            <Position>
              <LatitudeDegrees>-33.53271885775029659271240234375</LatitudeDegrees>
              <LongitudeDegrees>-70.2285352908074855804443359375</LongitudeDegrees>
            </Position>
            <AltitudeMeters>1743.199951171875</AltitudeMeters>
            <DistanceMeters>6400.4101943838</DistanceMeters>
          </Trackpoint>
          <Trackpoint>
            <Time>2019-08-04T18:31:22.000Z</Time>
            <Position>
              <LatitudeDegrees>-33.53272036649286746978759765625</LatitudeDegrees>
              <LongitudeDegrees>-70.22854425944387912750244140625</LongitudeDegrees>
            </Position>
            <AltitudeMeters>1743.199951171875</AltitudeMeters>
            <DistanceMeters>6401.2548102959</DistanceMeters>
          </Trackpoint>
          <Trackpoint>
            <Time>2019-08-04T18:31:30.000Z</Time>
            <Position>
              <LatitudeDegrees>-33.53272103704512119293212890625</LatitudeDegrees>
              <LongitudeDegrees>-70.228547863662242889404296875</LongitudeDegrees>
            </Position>
            <AltitudeMeters>1743.199951171875</AltitudeMeters>
            <DistanceMeters>6401.5974339871</DistanceMeters>
          </Trackpoint>
          <Trackpoint>
            <Time>2019-08-04T18:31:49.000Z</Time>
            <Position>
              <LatitudeDegrees>-33.53271801955997943878173828125</LatitudeDegrees>
              <LongitudeDegrees>-70.22855666466057300567626953125</LongitudeDegrees>
            </Position>
            <AltitudeMeters>1743.199951171875</AltitudeMeters>
            <DistanceMeters>6402.4786754831</DistanceMeters>
          </Trackpoint>
          <Trackpoint>
            <Time>2019-08-04T18:32:07.000Z</Time>
            <Position>
              <LatitudeDegrees>-33.5327127389609813690185546875</LatitudeDegrees>
              <LongitudeDegrees>-70.2285399846732616424560546875</LongitudeDegrees>
            </Position>
            <AltitudeMeters>1743.199951171875</AltitudeMeters>
            <DistanceMeters>6404.1355228626</DistanceMeters>
          </Trackpoint>
          <Trackpoint>
            <Time>2019-08-04T18:32:12.000Z</Time>
            <Position>
              <LatitudeDegrees>-33.53270812891423702239990234375</LatitudeDegrees>
              <LongitudeDegrees>-70.22853814065456390380859375</LongitudeDegrees>
            </Position>
            <AltitudeMeters>1743.199951171875</AltitudeMeters>
            <DistanceMeters>6404.6730751356</DistanceMeters>
          </Trackpoint>
          <Trackpoint>
            <Time>2019-08-04T18:32:17.000Z</Time>
            <Position>
              <LatitudeDegrees>-33.53270729072391986846923828125</LatitudeDegrees>
              <LongitudeDegrees>-70.22854945622384548187255859375</LongitudeDegrees>
            </Position>
            <AltitudeMeters>1743.199951171875</AltitudeMeters>
            <DistanceMeters>6405.7269723804</DistanceMeters>
          </Trackpoint>
          <Trackpoint>
            <Time>2019-08-04T18:32:18.000Z</Time>
            <Position>
              <LatitudeDegrees>-33.53270695544779300689697265625</LatitudeDegrees>
              <LongitudeDegrees>-70.22855180315673351287841796875</LongitudeDegrees>
            </Position>
            <AltitudeMeters>1743.199951171875</AltitudeMeters>
            <DistanceMeters>6405.9597393425</DistanceMeters>
          </Trackpoint>
          <Trackpoint>
            <Time>2019-08-04T18:32:23.000Z</Time>
            <Position>
              <LatitudeDegrees>-33.5327046923339366912841796875</LatitudeDegrees>
              <LongitudeDegrees>-70.228549875319004058837890625</LongitudeDegrees>
            </Position>
            <AltitudeMeters>1743.199951171875</AltitudeMeters>
            <DistanceMeters>6406.2602401985</DistanceMeters>
          </Trackpoint>
          <Trackpoint>
            <Time>2019-08-04T18:32:32.000Z</Time>
            <Position>
              <LatitudeDegrees>-33.532706536352634429931640625</LatitudeDegrees>
              <LongitudeDegrees>-70.22854484617710113525390625</LongitudeDegrees>
            </Position>
            <AltitudeMeters>1743.199951171875</AltitudeMeters>
            <DistanceMeters>6406.7630743068</DistanceMeters>
          </Trackpoint>
          <Trackpoint>
            <Time>2019-08-04T18:32:35.000Z</Time>
            <Position>
              <LatitudeDegrees>-33.53270829655230045318603515625</LatitudeDegrees>
              <LongitudeDegrees>-70.2285423316061496734619140625</LongitudeDegrees>
            </Position>
            <AltitudeMeters>1743.199951171875</AltitudeMeters>
            <DistanceMeters>6407.0635751627</DistanceMeters>
          </Trackpoint>
          <Trackpoint>
            <Time>2019-08-04T18:32:39.000Z</Time>
            <Position>
              <LatitudeDegrees>-33.53270896710455417633056640625</LatitudeDegrees>
              <LongitudeDegrees>-70.22854174487292766571044921875</LongitudeDegrees>
            </Position>
            <AltitudeMeters>1743.199951171875</AltitudeMeters>
            <DistanceMeters>6407.0635751627</DistanceMeters>
          </Trackpoint>
          <Trackpoint>
            <Time>2019-08-04T18:32:49.000Z</Time>
            <Position>
              <LatitudeDegrees>-33.5326996631920337677001953125</LatitudeDegrees>
              <LongitudeDegrees>-70.22852900438010692596435546875</LongitudeDegrees>
            </Position>
            <AltitudeMeters>1743.199951171875</AltitudeMeters>
            <DistanceMeters>6408.6336741625</DistanceMeters>
          </Trackpoint>
          <Trackpoint>
            <Time>2019-08-04T18:32:53.000Z</Time>
            <Position>
              <LatitudeDegrees>-33.53269773535430431365966796875</LatitudeDegrees>
              <LongitudeDegrees>-70.22852816618978977203369140625</LongitudeDegrees>
            </Position>
            <AltitudeMeters>1743.199951171875</AltitudeMeters>
            <DistanceMeters>6408.8461603556</DistanceMeters>
          </Trackpoint>
          <Trackpoint>
            <Time>2019-08-04T18:32:54.000Z</Time>
            <Position>
              <LatitudeDegrees>-33.5326963104307651519775390625</LatitudeDegrees>
              <LongitudeDegrees>-70.2285289205610752105712890625</LongitudeDegrees>
            </Position>
            <AltitudeMeters>1743.199951171875</AltitudeMeters>
            <DistanceMeters>6409.0362137843</DistanceMeters>
          </Trackpoint>
          <Trackpoint>
            <Time>2019-08-04T18:33:00.000Z</Time>
            <Position>
              <LatitudeDegrees>-33.53270410560071468353271484375</LatitudeDegrees>
              <LongitudeDegrees>-70.22853302769362926483154296875</LongitudeDegrees>
            </Position>
            <AltitudeMeters>1743.199951171875</AltitudeMeters>
            <DistanceMeters>6409.986480928</DistanceMeters>
          </Trackpoint>
          <Trackpoint>
            <Time>2019-08-04T18:33:09.000Z</Time>
            <Position>
              <LatitudeDegrees>-33.53270896710455417633056640625</LatitudeDegrees>
              <LongitudeDegrees>-70.22853679955005645751953125</LongitudeDegrees>
            </Position>
            <AltitudeMeters>1743.199951171875</AltitudeMeters>
            <DistanceMeters>6410.6379512595</DistanceMeters>
          </Trackpoint>
          <Trackpoint>
            <Time>2019-08-04T18:33:23.000Z</Time>
            <Position>
              <LatitudeDegrees>-33.53271667845547199249267578125</LatitudeDegrees>
              <LongitudeDegrees>-70.22854752838611602783203125</LongitudeDegrees>
            </Position>
            <AltitudeMeters>1743.199951171875</AltitudeMeters>
            <DistanceMeters>6411.9546800384</DistanceMeters>
          </Trackpoint>
          <Trackpoint>
            <Time>2019-08-04T18:33:37.000Z</Time>
            <Position>
              <LatitudeDegrees>-33.53271894156932830810546875</LatitudeDegrees>
              <LongitudeDegrees>-70.2285490371286869049072265625</LongitudeDegrees>
            </Position>
            <AltitudeMeters>1743.199951171875</AltitudeMeters>
            <DistanceMeters>6412.2551808944</DistanceMeters>
          </Trackpoint>
          <Trackpoint>
            <Time>2019-08-04T18:33:51.000Z</Time>
            <Position>
              <LatitudeDegrees>-33.53272103704512119293212890625</LatitudeDegrees>
              <LongitudeDegrees>-70.2285597659647464752197265625</LongitudeDegrees>
            </Position>
            <AltitudeMeters>1743.199951171875</AltitudeMeters>
            <DistanceMeters>6413.2786499303</DistanceMeters>
          </Trackpoint>
          <Trackpoint>
            <Time>2019-08-04T18:33:54.000Z</Time>
            <Position>
              <LatitudeDegrees>-33.5327194444835186004638671875</LatitudeDegrees>
              <LongitudeDegrees>-70.22856052033603191375732421875</LongitudeDegrees>
            </Position>
            <AltitudeMeters>1743.199951171875</AltitudeMeters>
            <DistanceMeters>6413.5114168925</DistanceMeters>
          </Trackpoint>
          <Trackpoint>
            <Time>2019-08-04T18:33:57.000Z</Time>
            <Position>
              <LatitudeDegrees>-33.5327194444835186004638671875</LatitudeDegrees>
              <LongitudeDegrees>-70.228559263050556182861328125</LongitudeDegrees>
            </Position>
            <AltitudeMeters>1743.199951171875</AltitudeMeters>
            <DistanceMeters>6413.6458049607</DistanceMeters>
          </Trackpoint>
          <Trackpoint>
            <Time>2019-08-04T18:34:02.000Z</Time>
            <Position>
              <LatitudeDegrees>-33.532713912427425384521484375</LatitudeDegrees>
              <LongitudeDegrees>-70.22855666466057300567626953125</LongitudeDegrees>
            </Position>
            <AltitudeMeters>1743.199951171875</AltitudeMeters>
            <DistanceMeters>6414.3041693502</DistanceMeters>
          </Trackpoint>
          <Trackpoint>
            <Time>2019-08-04T18:34:04.000Z</Time>
            <Position>
              <LatitudeDegrees>-33.53270930238068103790283203125</LatitudeDegrees>
              <LongitudeDegrees>-70.228559263050556182861328125</LongitudeDegrees>
            </Position>
            <AltitudeMeters>1743.199951171875</AltitudeMeters>
            <DistanceMeters>6414.8582655504</DistanceMeters>
          </Trackpoint>
          <Trackpoint>
            <Time>2019-08-04T18:34:08.000Z</Time>
            <Position>
              <LatitudeDegrees>-33.53270460851490497589111328125</LatitudeDegrees>
              <LongitudeDegrees>-70.2285611070692539215087890625</LongitudeDegrees>
            </Position>
            <AltitudeMeters>1743.199951171875</AltitudeMeters>
            <DistanceMeters>6415.3958178234</DistanceMeters>
          </Trackpoint>
          <Trackpoint>
            <Time>2019-08-04T18:34:10.000Z</Time>
            <Position>
              <LatitudeDegrees>-33.53270611725747585296630859375</LatitudeDegrees>
              <LongitudeDegrees>-70.228562615811824798583984375</LongitudeDegrees>
            </Position>
            <AltitudeMeters>1743.199951171875</AltitudeMeters>
            <DistanceMeters>6415.6083040164</DistanceMeters>
          </Trackpoint>
          <Trackpoint>
            <Time>2019-08-04T18:34:12.000Z</Time>
            <Position>
              <LatitudeDegrees>-33.53270687162876129150390625</LatitudeDegrees>
              <LongitudeDegrees>-70.22856286726891994476318359375</LongitudeDegrees>
            </Position>
            <AltitudeMeters>1743.199951171875</AltitudeMeters>
            <DistanceMeters>6415.6083040164</DistanceMeters>
          </Trackpoint>
          <Trackpoint>
            <Time>2019-08-04T18:34:14.000Z</Time>
            <Position>
              <LatitudeDegrees>-33.5327073745429515838623046875</LatitudeDegrees>
              <LongitudeDegrees>-70.22856588475406169891357421875</LongitudeDegrees>
            </Position>
            <AltitudeMeters>1743.199951171875</AltitudeMeters>
            <DistanceMeters>6415.8770801529</DistanceMeters>
          </Trackpoint>
          <Trackpoint>
            <Time>2019-08-04T18:34:20.000Z</Time>
            <Position>
              <LatitudeDegrees>-33.53270879946649074554443359375</LatitudeDegrees>
              <LongitudeDegrees>-70.22856898605823516845703125</LongitudeDegrees>
            </Position>
            <AltitudeMeters>1743.199951171875</AltitudeMeters>
            <DistanceMeters>6416.2197038441</DistanceMeters>
          </Trackpoint>
          <Trackpoint>
            <Time>2019-08-04T18:34:24.000Z</Time>
            <Position>
              <LatitudeDegrees>-33.532711230218410491943359375</LatitudeDegrees>
              <LongitudeDegrees>-70.22856630384922027587890625</LongitudeDegrees>
            </Position>
            <AltitudeMeters>1743.199951171875</AltitudeMeters>
            <DistanceMeters>6416.5752612519</DistanceMeters>
          </Trackpoint>
          <Trackpoint>
            <Time>2019-08-04T18:34:33.000Z</Time>
            <Position>
              <LatitudeDegrees>-33.53271483443677425384521484375</LatitudeDegrees>
              <LongitudeDegrees>-70.22855314426124095916748046875</LongitudeDegrees>
            </Position>
            <AltitudeMeters>1743.199951171875</AltitudeMeters>
            <DistanceMeters>6417.8572417169</DistanceMeters>
          </Trackpoint>
          <Trackpoint>
            <Time>2019-08-04T18:34:38.000Z</Time>
            <Position>
              <LatitudeDegrees>-33.5327150858938694000244140625</LatitudeDegrees>
              <LongitudeDegrees>-70.22854191251099109649658203125</LongitudeDegrees>
            </Position>
            <AltitudeMeters>1743.199951171875</AltitudeMeters>
            <DistanceMeters>6418.8982072175</DistanceMeters>
          </Trackpoint>
          <Trackpoint>
            <Time>2019-08-04T18:34:42.000Z</Time>
            <Position>
              <LatitudeDegrees>-33.532717265188694000244140625</LatitudeDegrees>
              <LongitudeDegrees>-70.22853721864521503448486328125</LongitudeDegrees>
            </Position>
            <AltitudeMeters>1743.199951171875</AltitudeMeters>
            <DistanceMeters>6419.4010413257</DistanceMeters>
          </Trackpoint>
          <Trackpoint>
            <Time>2019-08-04T18:34:49.000Z</Time>
            <Position>
              <LatitudeDegrees>-33.53272187523543834686279296875</LatitudeDegrees>
              <LongitudeDegrees>-70.2285326085984706878662109375</LongitudeDegrees>
            </Position>
            <AltitudeMeters>1743.199951171875</AltitudeMeters>
            <DistanceMeters>6420.072981667</DistanceMeters>
          </Trackpoint>
          <Trackpoint>
            <Time>2019-08-04T18:34:53.000Z</Time>
            <Position>
              <LatitudeDegrees>-33.53271801955997943878173828125</LatitudeDegrees>
              <LongitudeDegrees>-70.2285369671881198883056640625</LongitudeDegrees>
            </Position>
            <AltitudeMeters>1743.199951171875</AltitudeMeters>
            <DistanceMeters>6420.6587656757</DistanceMeters>
          </Trackpoint>
          <Trackpoint>
            <Time>2019-08-04T18:34:56.000Z</Time>
            <Position>
              <LatitudeDegrees>-33.53271625936031341552734375</LatitudeDegrees>
              <LongitudeDegrees>-70.2285369671881198883056640625</LongitudeDegrees>
            </Position>
            <AltitudeMeters>1743.199951171875</AltitudeMeters>
            <DistanceMeters>6420.8488191044</DistanceMeters>
          </Trackpoint>
          <Trackpoint>
            <Time>2019-08-04T18:35:07.000Z</Time>
            <Position>
              <LatitudeDegrees>-33.5327093861997127532958984375</LatitudeDegrees>
              <LongitudeDegrees>-70.22852883674204349517822265625</LongitudeDegrees>
            </Position>
            <AltitudeMeters>1743.199951171875</AltitudeMeters>
            <DistanceMeters>6421.9239236504</DistanceMeters>
          </Trackpoint>
          <Trackpoint>
            <Time>2019-08-04T18:35:12.000Z</Time>
            <Position>
              <LatitudeDegrees>-33.532710559666156768798828125</LatitudeDegrees>
              <LongitudeDegrees>-70.228527076542377471923828125</LongitudeDegrees>
            </Position>
            <AltitudeMeters>1743.199951171875</AltitudeMeters>
            <DistanceMeters>6422.1139770792</DistanceMeters>
          </Trackpoint>
          <Trackpoint>
            <Time>2019-08-04T18:35:23.000Z</Time>
            <Position>
              <LatitudeDegrees>-33.53270159102976322174072265625</LatitudeDegrees>
              <LongitudeDegrees>-70.22851492278277873992919921875</LongitudeDegrees>
            </Position>
            <AltitudeMeters>1743.199951171875</AltitudeMeters>
            <DistanceMeters>6423.6194833686</DistanceMeters>
          </Trackpoint>
          <Trackpoint>
            <Time>2019-08-04T18:35:31.000Z</Time>
            <Position>
              <LatitudeDegrees>-33.53273101150989532470703125</LatitudeDegrees>
              <LongitudeDegrees>-70.228482149541378021240234375</LongitudeDegrees>
            </Position>
            <AltitudeMeters>1743.199951171875</AltitudeMeters>
            <DistanceMeters>6428.0867497521</DistanceMeters>
          </Trackpoint>
          <Trackpoint>
            <Time>2019-08-04T18:35:32.000Z</Time>
            <Position>
              <LatitudeDegrees>-33.5327343642711639404296875</LatitudeDegrees>
              <LongitudeDegrees>-70.228478126227855682373046875</LongitudeDegrees>
            </Position>
            <AltitudeMeters>1743.199951171875</AltitudeMeters>
            <DistanceMeters>6428.6072325023</DistanceMeters>
          </Trackpoint>
          <Trackpoint>
            <Time>2019-08-04T18:35:33.000Z</Time>
            <Position>
              <LatitudeDegrees>-33.5327395610511302947998046875</LatitudeDegrees>
              <LongitudeDegrees>-70.22847284562885761260986328125</LongitudeDegrees>
            </Position>
            <AltitudeMeters>1743.199951171875</AltitudeMeters>
            <DistanceMeters>6429.3554735995</DistanceMeters>
          </Trackpoint>
          <Trackpoint>
            <Time>2019-08-04T18:35:36.000Z</Time>
            <Position>
              <LatitudeDegrees>-33.53274785913527011871337890625</LatitudeDegrees>
              <LongitudeDegrees>-70.22846044041216373443603515625</LongitudeDegrees>
            </Position>
            <AltitudeMeters>1743.199951171875</AltitudeMeters>
            <DistanceMeters>6430.8306849142</DistanceMeters>
          </Trackpoint>
          <Trackpoint>
            <Time>2019-08-04T18:35:40.000Z</Time>
            <Position>
              <LatitudeDegrees>-33.53276931680738925933837890625</LatitudeDegrees>
              <LongitudeDegrees>-70.22844417952001094818115234375</LongitudeDegrees>
            </Position>
            <AltitudeMeters>1743.199951171875</AltitudeMeters>
            <DistanceMeters>6433.6560322515</DistanceMeters>
          </Trackpoint>
          <Trackpoint>
            <Time>2019-08-04T18:35:46.000Z</Time>
            <Position>
              <LatitudeDegrees>-33.532787002623081207275390625</LatitudeDegrees>
              <LongitudeDegrees>-70.22841165773570537567138671875</LongitudeDegrees>
            </Position>
            <AltitudeMeters>1743.199951171875</AltitudeMeters>
            <DistanceMeters>6437.2582843041</DistanceMeters>
          </Trackpoint>
          <Trackpoint>
            <Time>2019-08-04T18:35:56.000Z</Time>
            <Position>
              <LatitudeDegrees>-33.5327593423426151275634765625</LatitudeDegrees>
              <LongitudeDegrees>-70.228347368538379669189453125</LongitudeDegrees>
            </Position>
            <AltitudeMeters>1743.199951171875</AltitudeMeters>
            <DistanceMeters>6443.9709649501</DistanceMeters>
          </Trackpoint>
          <Trackpoint>
            <Time>2019-08-04T18:36:04.000Z</Time>
            <Position>
              <LatitudeDegrees>-33.53269102983176708221435546875</LatitudeDegrees>
              <LongitudeDegrees>-70.22832800634205341339111328125</LongitudeDegrees>
            </Position>
            <AltitudeMeters>1743.199951171875</AltitudeMeters>
            <DistanceMeters>6451.7828313473</DistanceMeters>
          </Trackpoint>
          <Trackpoint>
            <Time>2019-08-04T18:36:07.000Z</Time>
            <Position>
              <LatitudeDegrees>-33.53266420774161815643310546875</LatitudeDegrees>
              <LongitudeDegrees>-70.228329263627529144287109375</LongitudeDegrees>
            </Position>
            <AltitudeMeters>1743.199951171875</AltitudeMeters>
            <DistanceMeters>6454.7697554385</DistanceMeters>
          </Trackpoint>
          <Trackpoint>
            <Time>2019-08-04T18:36:11.000Z</Time>
            <Position>
              <LatitudeDegrees>-33.53263453580439090728759765625</LatitudeDegrees>
              <LongitudeDegrees>-70.22832398302853107452392578125</LongitudeDegrees>
            </Position>
            <AltitudeMeters>1743.199951171875</AltitudeMeters>
            <DistanceMeters>6458.1078858032</DistanceMeters>
          </Trackpoint>
          <Trackpoint>
            <Time>2019-08-04T18:36:16.000Z</Time>
            <Position>
              <LatitudeDegrees>-33.53260905481874942779541015625</LatitudeDegrees>
              <LongitudeDegrees>-70.228335969150066375732421875</LongitudeDegrees>
            </Position>
            <AltitudeMeters>1743.199951171875</AltitudeMeters>
            <DistanceMeters>6461.154674044</DistanceMeters>
          </Trackpoint>
          <Trackpoint>
            <Time>2019-08-04T18:36:17.000Z</Time>
            <Position>
              <LatitudeDegrees>-33.5326002538204193115234375</LatitudeDegrees>
              <LongitudeDegrees>-70.2283416688442230224609375</LongitudeDegrees>
            </Position>
            <AltitudeMeters>1743.199951171875</AltitudeMeters>
            <DistanceMeters>6462.2709851787</DistanceMeters>
          </Trackpoint>
          <Trackpoint>
            <Time>2019-08-04T18:36:18.000Z</Time>
            <Position>
              <LatitudeDegrees>-33.53258910588920116424560546875</LatitudeDegrees>
              <LongitudeDegrees>-70.22834711708128452301025390625</LongitudeDegrees>
            </Position>
            <AltitudeMeters>1743.199951171875</AltitudeMeters>
            <DistanceMeters>6463.6081295747</DistanceMeters>
          </Trackpoint>
          <Trackpoint>
            <Time>2019-08-04T18:36:24.000Z</Time>
            <Position>
              <LatitudeDegrees>-33.53254820220172405242919921875</LatitudeDegrees>
              <LongitudeDegrees>-70.22835482843220233917236328125</LongitudeDegrees>
            </Position>
            <AltitudeMeters>1743.199951171875</AltitudeMeters>
            <DistanceMeters>6468.2157004879</DistanceMeters>
          </Trackpoint>
          <Trackpoint>
            <Time>2019-08-04T18:36:25.000Z</Time>
            <Position>
              <LatitudeDegrees>-33.5325370542705059051513671875</LatitudeDegrees>
              <LongitudeDegrees>-70.22835399024188518524169921875</LongitudeDegrees>
            </Position>
            <AltitudeMeters>1743.199951171875</AltitudeMeters>
            <DistanceMeters>6469.4619641632</DistanceMeters>
          </Trackpoint>
          <Trackpoint>
            <Time>2019-08-04T18:36:26.000Z</Time>
            <Position>
              <LatitudeDegrees>-33.5325202904641628265380859375</LatitudeDegrees>
              <LongitudeDegrees>-70.22834678180515766143798828125</LongitudeDegrees>
            </Position>
            <AltitudeMeters>1743.199951171875</AltitudeMeters>
            <DistanceMeters>6471.4439034289</DistanceMeters>
          </Trackpoint>
          <Trackpoint>
            <Time>2019-08-04T18:36:28.000Z</Time>
            <Position>
              <LatitudeDegrees>-33.5324867628514766693115234375</LatitudeDegrees>
              <LongitudeDegrees>-70.228328593075275421142578125</LongitudeDegrees>
            </Position>
            <AltitudeMeters>1743.199951171875</AltitudeMeters>
            <DistanceMeters>6475.5399847309</DistanceMeters>
          </Trackpoint>
          <Trackpoint>
            <Time>2019-08-04T18:36:29.000Z</Time>
            <Position>
              <LatitudeDegrees>-33.53247058577835559844970703125</LatitudeDegrees>
              <LongitudeDegrees>-70.22831945680081844329833984375</LongitudeDegrees>
            </Position>
            <AltitudeMeters>1743.199951171875</AltitudeMeters>
            <DistanceMeters>6477.5310155089</DistanceMeters>
          </Trackpoint>
          <Trackpoint>
            <Time>2019-08-04T18:36:30.000Z</Time>
            <Position>
              <LatitudeDegrees>-33.5324592702090740203857421875</LatitudeDegrees>
              <LongitudeDegrees>-70.22830822505056858062744140625</LongitudeDegrees>
            </Position>
            <AltitudeMeters>1743.199951171875</AltitudeMeters>
            <DistanceMeters>6479.1659169211</DistanceMeters>
          </Trackpoint>
          <Trackpoint>
            <Time>2019-08-04T18:36:31.000Z</Time>
            <Position>
              <LatitudeDegrees>-33.532447703182697296142578125</LatitudeDegrees>
              <LongitudeDegrees>-70.22829716093838214874267578125</LongitudeDegrees>
            </Position>
            <AltitudeMeters>1743.199951171875</AltitudeMeters>
            <DistanceMeters>6480.8118278947</DistanceMeters>
          </Trackpoint>
          <Trackpoint>
            <Time>2019-08-04T18:36:32.000Z</Time>
            <Position>
              <LatitudeDegrees>-33.53244057856500148773193359375</LatitudeDegrees>
              <LongitudeDegrees>-70.22828467190265655517578125</LongitudeDegrees>
            </Position>
            <AltitudeMeters>1743.199951171875</AltitudeMeters>
            <DistanceMeters>6482.2148805184</DistanceMeters>
          </Trackpoint>
          <Trackpoint>
            <Time>2019-08-04T18:36:33.000Z</Time>
            <Position>
              <LatitudeDegrees>-33.532432280480861663818359375</LatitudeDegrees>
              <LongitudeDegrees>-70.22827260196208953857421875</LongitudeDegrees>
            </Position>
            <AltitudeMeters>1743.199951171875</AltitudeMeters>
            <DistanceMeters>6483.668509731</DistanceMeters>
          </Trackpoint>
          <Trackpoint>
            <Time>2019-08-04T18:36:34.000Z</Time>
            <Position>
              <LatitudeDegrees>-33.53241962380707263946533203125</LatitudeDegrees>
              <LongitudeDegrees>-70.22826396860182285308837890625</LongitudeDegrees>
            </Position>
            <AltitudeMeters>1743.199951171875</AltitudeMeters>
            <DistanceMeters>6485.2867563651</DistanceMeters>
          </Trackpoint>
          <Trackpoint>
            <Time>2019-08-04T18:36:36.000Z</Time>
            <Position>
              <LatitudeDegrees>-33.532399423420429229736328125</LatitudeDegrees>
              <LongitudeDegrees>-70.2282476238906383514404296875</LongitudeDegrees>
            </Position>
            <AltitudeMeters>1743.199951171875</AltitudeMeters>
            <DistanceMeters>6487.9979336418</DistanceMeters>
          </Trackpoint>
          <Trackpoint>
            <Time>2019-08-04T18:36:37.000Z</Time>
            <Position>
              <LatitudeDegrees>-33.53239079006016254425048828125</LatitudeDegrees>
              <LongitudeDegrees>-70.22823907434940338134765625</LongitudeDegrees>
            </Position>
            <AltitudeMeters>1743.199951171875</AltitudeMeters>
            <DistanceMeters>6489.2441973171</DistanceMeters>
          </Trackpoint>
          <Trackpoint>
            <Time>2019-08-04T18:36:45.000Z</Time>
            <Position>
              <LatitudeDegrees>-33.53229783475399017333984375</LatitudeDegrees>
              <LongitudeDegrees>-70.2281968295574188232421875</LongitudeDegrees>
            </Position>
            <AltitudeMeters>1743.199951171875</AltitudeMeters>
            <DistanceMeters>6500.3081801566</DistanceMeters>
          </Trackpoint>
          <Trackpoint>
            <Time>2019-08-04T18:36:46.000Z</Time>
            <Position>
              <LatitudeDegrees>-33.532288111746311187744140625</LatitudeDegrees>
              <LongitudeDegrees>-70.2281899563968181610107421875</LongitudeDegrees>
            </Position>
            <AltitudeMeters>1743.199951171875</AltitudeMeters>
            <DistanceMeters>6501.5652654273</DistanceMeters>
          </Trackpoint>
          <Trackpoint>
            <Time>2019-08-04T18:36:50.000Z</Time>
            <Position>
              <LatitudeDegrees>-33.5322557576000690460205078125</LatitudeDegrees>
              <LongitudeDegrees>-70.2281431853771209716796875</LongitudeDegrees>
            </Position>
            <AltitudeMeters>1743.199951171875</AltitudeMeters>
            <DistanceMeters>6507.2031612301</DistanceMeters>
          </Trackpoint>
          <Trackpoint>
            <Time>2019-08-04T18:36:51.000Z</Time>
            <Position>
              <LatitudeDegrees>-33.532239496707916259765625</LatitudeDegrees>
              <LongitudeDegrees>-70.22813421674072742462158203125</LongitudeDegrees>
            </Position>
            <AltitudeMeters>1743.199951171875</AltitudeMeters>
            <DistanceMeters>6509.194192008</DistanceMeters>
          </Trackpoint>
          <Trackpoint>
            <Time>2019-08-04T18:36:52.000Z</Time>
            <Position>
              <LatitudeDegrees>-33.532227762043476104736328125</LatitudeDegrees>
              <LongitudeDegrees>-70.2281215600669384002685546875</LongitudeDegrees>
            </Position>
            <AltitudeMeters>1743.199951171875</AltitudeMeters>
            <DistanceMeters>6510.9515440342</DistanceMeters>
          </Trackpoint>
          <Trackpoint>
            <Time>2019-08-04T18:36:57.000Z</Time>
            <Position>
              <LatitudeDegrees>-33.53220119141042232513427734375</LatitudeDegrees>
              <LongitudeDegrees>-70.2280481345951557159423828125</LongitudeDegrees>
            </Position>
            <AltitudeMeters>1743.199951171875</AltitudeMeters>
            <DistanceMeters>6518.3782328603</DistanceMeters>
          </Trackpoint>
          <Trackpoint>
            <Time>2019-08-04T18:36:58.000Z</Time>
            <Position>
              <LatitudeDegrees>-33.53219565935432910919189453125</LatitudeDegrees>
              <LongitudeDegrees>-70.2280343882739543914794921875</LongitudeDegrees>
            </Position>
            <AltitudeMeters>1743.199951171875</AltitudeMeters>
            <DistanceMeters>6519.7940990159</DistanceMeters>
          </Trackpoint>
          <Trackpoint>
            <Time>2019-08-04T18:37:01.000Z</Time>
            <Position>
              <LatitudeDegrees>-33.5321729443967342376708984375</LatitudeDegrees>
              <LongitudeDegrees>-70.22800647653639316558837890625</LongitudeDegrees>
            </Position>
            <AltitudeMeters>1743.199951171875</AltitudeMeters>
            <DistanceMeters>6523.4126084941</DistanceMeters>
          </Trackpoint>
          <Trackpoint>
            <Time>2019-08-04T18:37:02.000Z</Time>
            <Position>
              <LatitudeDegrees>-33.53216950781643390655517578125</LatitudeDegrees>
              <LongitudeDegrees>-70.22799432277679443359375</LongitudeDegrees>
            </Position>
            <AltitudeMeters>1743.199951171875</AltitudeMeters>
            <DistanceMeters>6524.607075772</DistanceMeters>
          </Trackpoint>
          <Trackpoint>
            <Time>2019-08-04T18:37:09.000Z</Time>
            <Position>
              <LatitudeDegrees>-33.53213413618505001068115234375</LatitudeDegrees>
              <LongitudeDegrees>-70.2279170416295528411865234375</LongitudeDegrees>
            </Position>
            <AltitudeMeters>1743.199951171875</AltitudeMeters>
            <DistanceMeters>6532.7871042836</DistanceMeters>
          </Trackpoint>
          <Trackpoint>
            <Time>2019-08-04T18:37:13.000Z</Time>
            <Position>
              <LatitudeDegrees>-33.532094657421112060546875</LatitudeDegrees>
              <LongitudeDegrees>-70.227888040244579315185546875</LongitudeDegrees>
            </Position>
            <AltitudeMeters>1743.199951171875</AltitudeMeters>
            <DistanceMeters>6537.9396206344</DistanceMeters>
          </Trackpoint>
          <Trackpoint>
            <Time>2019-08-04T18:37:17.000Z</Time>
            <Position>
              <LatitudeDegrees>-33.53205618448555469512939453125</LatitudeDegrees>
              <LongitudeDegrees>-70.2278680913150310516357421875</LongitudeDegrees>
            </Position>
            <AltitudeMeters>1743.199951171875</AltitudeMeters>
            <DistanceMeters>6542.6046484189</DistanceMeters>
          </Trackpoint>
          <Trackpoint>
            <Time>2019-08-04T18:37:19.000Z</Time>
            <Position>
              <LatitudeDegrees>-33.53203573264181613922119140625</LatitudeDegrees>
              <LongitudeDegrees>-70.2278486452996730804443359375</LongitudeDegrees>
            </Position>
            <AltitudeMeters>1737.4000244140625</AltitudeMeters>
            <DistanceMeters>6545.5103534065</DistanceMeters>
          </Trackpoint>
          <Trackpoint>
            <Time>2019-08-04T18:37:20.000Z</Time>
            <Position>
              <LatitudeDegrees>-33.5320304520428180694580078125</LatitudeDegrees>
              <LongitudeDegrees>-70.22783481515944004058837890625</LongitudeDegrees>
            </Position>
            <AltitudeMeters>1734.4000244140625</AltitudeMeters>
            <DistanceMeters>6546.9230270751</DistanceMeters>
          </Trackpoint>
          <Trackpoint>
            <Time>2019-08-04T18:37:21.000Z</Time>
            <Position>
              <LatitudeDegrees>-33.5320230759680271148681640625</LatitudeDegrees>
              <LongitudeDegrees>-70.22782073356211185455322265625</LongitudeDegrees>
            </Position>
            <AltitudeMeters>1733</AltitudeMeters>
            <DistanceMeters>6548.4670284292</DistanceMeters>
          </Trackpoint>
          <Trackpoint>
            <Time>2019-08-04T18:37:22.000Z</Time>
            <Position>
              <LatitudeDegrees>-33.53201779536902904510498046875</LatitudeDegrees>
              <LongitudeDegrees>-70.2278070710599422454833984375</LongitudeDegrees>
            </Position>
            <AltitudeMeters>1732</AltitudeMeters>
            <DistanceMeters>6549.863630202</DistanceMeters>
          </Trackpoint>
          <Trackpoint>
            <Time>2019-08-04T18:37:23.000Z</Time>
            <Position>
              <LatitudeDegrees>-33.53201025165617465972900390625</LatitudeDegrees>
              <LongitudeDegrees>-70.2277973480522632598876953125</LongitudeDegrees>
            </Position>
            <AltitudeMeters>1731.4000244140625</AltitudeMeters>
            <DistanceMeters>6551.0953171925</DistanceMeters>
          </Trackpoint>
          <Trackpoint>
            <Time>2019-08-04T18:37:29.000Z</Time>
            <Position>
              <LatitudeDegrees>-33.531951494514942169189453125</LatitudeDegrees>
              <LongitudeDegrees>-70.22772945463657379150390625</LongitudeDegrees>
            </Position>
            <AltitudeMeters>1730.5999755859375</AltitudeMeters>
            <DistanceMeters>6560.1752179592</DistanceMeters>
          </Trackpoint>
          <Trackpoint>
            <Time>2019-08-04T18:37:31.000Z</Time>
            <Position>
              <LatitudeDegrees>-33.53193146176636219024658203125</LatitudeDegrees>
              <LongitudeDegrees>-70.22770623676478862762451171875</LongitudeDegrees>
            </Position>
            <AltitudeMeters>1730.4000244140625</AltitudeMeters>
            <DistanceMeters>6563.2748955774</DistanceMeters>
          </Trackpoint>
          <Trackpoint>
            <Time>2019-08-04T18:37:35.000Z</Time>
            <Position>
              <LatitudeDegrees>-33.53190950118005275726318359375</LatitudeDegrees>
              <LongitudeDegrees>-70.22762107662856578826904296875</LongitudeDegrees>
            </Position>
            <AltitudeMeters>1729.5999755859375</AltitudeMeters>
            <DistanceMeters>6571.5454958617</DistanceMeters>
          </Trackpoint>
          <Trackpoint>
            <Time>2019-08-04T18:37:36.000Z</Time>
            <Position>
              <LatitudeDegrees>-33.53190380148589611053466796875</LatitudeDegrees>
              <LongitudeDegrees>-70.22760649211704730987548828125</LongitudeDegrees>
            </Position>
            <AltitudeMeters>1729.4000244140625</AltitudeMeters>
            <DistanceMeters>6573.0419780561</DistanceMeters>
          </Trackpoint>
          <Trackpoint>
            <Time>2019-08-04T18:37:38.000Z</Time>
            <Position>
              <LatitudeDegrees>-33.53189156390726566314697265625</LatitudeDegrees>
              <LongitudeDegrees>-70.22757883183658123016357421875</LongitudeDegrees>
            </Position>
            <AltitudeMeters>1729</AltitudeMeters>
            <DistanceMeters>6575.9492364814</DistanceMeters>
          </Trackpoint>
          <Trackpoint>
            <Time>2019-08-04T18:37:42.000Z</Time>
            <Position>
              <LatitudeDegrees>-33.531877063214778900146484375</LatitudeDegrees>
              <LongitudeDegrees>-70.22752158343791961669921875</LongitudeDegrees>
            </Position>
            <AltitudeMeters>1728.800048828125</AltitudeMeters>
            <DistanceMeters>6581.5007813928</DistanceMeters>
          </Trackpoint>
          <Trackpoint>
            <Time>2019-08-04T18:37:43.000Z</Time>
            <Position>
              <LatitudeDegrees>-33.53187630884349346160888671875</LatitudeDegrees>
              <LongitudeDegrees>-70.227508842945098876953125</LongitudeDegrees>
            </Position>
            <AltitudeMeters>1728.800048828125</AltitudeMeters>
            <DistanceMeters>6582.6876646748</DistanceMeters>
          </Trackpoint>
          <Trackpoint>
            <Time>2019-08-04T18:37:48.000Z</Time>
            <Position>
              <LatitudeDegrees>-33.5318688489496707916259765625</LatitudeDegrees>
              <LongitudeDegrees>-70.22745142690837383270263671875</LongitudeDegrees>
            </Position>
            <AltitudeMeters>1728.5999755859375</AltitudeMeters>
            <DistanceMeters>6588.0799597474</DistanceMeters>
          </Trackpoint>
          <Trackpoint>
            <Time>2019-08-04T18:37:51.000Z</Time>
            <Position>
              <LatitudeDegrees>-33.531855605542659759521484375</LatitudeDegrees>
              <LongitudeDegrees>-70.22743131034076213836669921875</LongitudeDegrees>
            </Position>
            <AltitudeMeters>1728.5999755859375</AltitudeMeters>
            <DistanceMeters>6590.4594256392</DistanceMeters>
          </Trackpoint>
          <Trackpoint>
            <Time>2019-08-04T18:37:55.000Z</Time>
            <Position>
              <LatitudeDegrees>-33.531818054616451263427734375</LatitudeDegrees>
              <LongitudeDegrees>-70.2274094335734844207763671875</LongitudeDegrees>
            </Position>
            <AltitudeMeters>1728.4000244140625</AltitudeMeters>
            <DistanceMeters>6595.1060279223</DistanceMeters>
          </Trackpoint>
          <Trackpoint>
            <Time>2019-08-04T18:37:56.000Z</Time>
            <Position>
              <LatitudeDegrees>-33.5318078286945819854736328125</LatitudeDegrees>
              <LongitudeDegrees>-70.22739392705261707305908203125</LongitudeDegrees>
            </Position>
            <AltitudeMeters>1728.4000244140625</AltitudeMeters>
            <DistanceMeters>6596.938836815</DistanceMeters>
          </Trackpoint>
          <Trackpoint>
            <Time>2019-08-04T18:37:57.000Z</Time>
            <Position>
              <LatitudeDegrees>-33.53179869242012500762939453125</LatitudeDegrees>
              <LongitudeDegrees>-70.22738152183592319488525390625</LongitudeDegrees>
            </Position>
            <AltitudeMeters>1728</AltitudeMeters>
            <DistanceMeters>6598.4769785602</DistanceMeters>
          </Trackpoint>
          <Trackpoint>
            <Time>2019-08-04T18:37:59.000Z</Time>
            <Position>
              <LatitudeDegrees>-33.531785868108272552490234375</LatitudeDegrees>
              <LongitudeDegrees>-70.2273537777364253997802734375</LongitudeDegrees>
            </Position>
            <AltitudeMeters>1727</AltitudeMeters>
            <DistanceMeters>6601.4197397313</DistanceMeters>
          </Trackpoint>
          <Trackpoint>
            <Time>2019-08-04T18:38:00.000Z</Time>
            <Position>
              <LatitudeDegrees>-33.5317786596715450286865234375</LatitudeDegrees>
              <LongitudeDegrees>-70.22733927704393863677978515625</LongitudeDegrees>
            </Position>
            <AltitudeMeters>1726.5999755859375</AltitudeMeters>
            <DistanceMeters>6602.9869604537</DistanceMeters>
          </Trackpoint>
          <Trackpoint>
            <Time>2019-08-04T18:38:02.000Z</Time>
            <Position>
              <LatitudeDegrees>-33.53176365606486797332763671875</LatitudeDegrees>
              <LongitudeDegrees>-70.22732066921889781951904296875</LongitudeDegrees>
            </Position>
            <AltitudeMeters>1725.5999755859375</AltitudeMeters>
            <DistanceMeters>6605.3909673014</DistanceMeters>
          </Trackpoint>
          <Trackpoint>
            <Time>2019-08-04T18:38:09.000Z</Time>
            <Position>
              <LatitudeDegrees>-33.53171118535101413726806640625</LatitudeDegrees>
              <LongitudeDegrees>-70.22723852656781673431396484375</LongitudeDegrees>
            </Position>
            <AltitudeMeters>1724.5999755859375</AltitudeMeters>
            <DistanceMeters>6614.9924281495</DistanceMeters>
          </Trackpoint>
          <Trackpoint>
            <Time>2019-08-04T18:38:10.000Z</Time>
            <Position>
              <LatitudeDegrees>-33.53170506656169891357421875</LatitudeDegrees>
              <LongitudeDegrees>-70.22722494788467884063720703125</LongitudeDegrees>
            </Position>
            <AltitudeMeters>1724.5999755859375</AltitudeMeters>
            <DistanceMeters>6616.4273000703</DistanceMeters>
          </Trackpoint>
          <Trackpoint>
            <Time>2019-08-04T18:38:15.000Z</Time>
            <Position>
              <LatitudeDegrees>-33.531668186187744140625</LatitudeDegrees>
              <LongitudeDegrees>-70.22716945968568325042724609375</LongitudeDegrees>
            </Position>
            <AltitudeMeters>1723.4000244140625</AltitudeMeters>
            <DistanceMeters>6623.0116297254</DistanceMeters>
          </Trackpoint>
          <Trackpoint>
            <Time>2019-08-04T18:38:19.000Z</Time>
            <Position>
              <LatitudeDegrees>-33.5316462256014347076416015625</LatitudeDegrees>
              <LongitudeDegrees>-70.22712805308401584625244140625</LongitudeDegrees>
            </Position>
            <AltitudeMeters>1723</AltitudeMeters>
            <DistanceMeters>6627.5649862363</DistanceMeters>
          </Trackpoint>
          <Trackpoint>
            <Time>2019-08-04T18:38:20.000Z</Time>
            <Position>
              <LatitudeDegrees>-33.5316391848027706146240234375</LatitudeDegrees>
              <LongitudeDegrees>-70.22711791098117828369140625</LongitudeDegrees>
            </Position>
            <AltitudeMeters>1722.800048828125</AltitudeMeters>
            <DistanceMeters>6628.789319806</DistanceMeters>
          </Trackpoint>
          <Trackpoint>
            <Time>2019-08-04T18:38:23.000Z</Time>
            <Position>
              <LatitudeDegrees>-33.53161697275936603546142578125</LatitudeDegrees>
              <LongitudeDegrees>-70.227084718644618988037109375</LongitudeDegrees>
            </Position>
            <AltitudeMeters>1722.5999755859375</AltitudeMeters>
            <DistanceMeters>6632.7383629836</DistanceMeters>
          </Trackpoint>
          <Trackpoint>
            <Time>2019-08-04T18:38:26.000Z</Time>
            <Position>
              <LatitudeDegrees>-33.5315875522792339324951171875</LatitudeDegrees>
              <LongitudeDegrees>-70.22706292569637298583984375</LongitudeDegrees>
            </Position>
            <AltitudeMeters>1722.199951171875</AltitudeMeters>
            <DistanceMeters>6636.5866516121</DistanceMeters>
          </Trackpoint>
          <Trackpoint>
            <Time>2019-08-04T18:38:28.000Z</Time>
            <Position>
              <LatitudeDegrees>-33.531563915312290191650390625</LatitudeDegrees>
              <LongitudeDegrees>-70.22704641334712505340576171875</LongitudeDegrees>
            </Position>
            <AltitudeMeters>1722</AltitudeMeters>
            <DistanceMeters>6639.6304746081</DistanceMeters>
          </Trackpoint>
          <Trackpoint>
            <Time>2019-08-04T18:38:32.000Z</Time>
            <Position>
              <LatitudeDegrees>-33.53152695111930370330810546875</LatitudeDegrees>
              <LongitudeDegrees>-70.22701255045831203460693359375</LongitudeDegrees>
            </Position>
            <AltitudeMeters>1721</AltitudeMeters>
            <DistanceMeters>6644.8074686091</DistanceMeters>
          </Trackpoint>
          <Trackpoint>
            <Time>2019-08-04T18:38:35.000Z</Time>
            <Position>
              <LatitudeDegrees>-33.53149157948791980743408203125</LatitudeDegrees>
              <LongitudeDegrees>-70.22698648273944854736328125</LongitudeDegrees>
            </Position>
            <AltitudeMeters>1720.4000244140625</AltitudeMeters>
            <DistanceMeters>6649.4277608848</DistanceMeters>
          </Trackpoint>
          <Trackpoint>
            <Time>2019-08-04T18:38:38.000Z</Time>
            <Position>
              <LatitudeDegrees>-33.53146894834935665130615234375</LatitudeDegrees>
              <LongitudeDegrees>-70.2269631810486316680908203125</LongitudeDegrees>
            </Position>
            <AltitudeMeters>1720.199951171875</AltitudeMeters>
            <DistanceMeters>6652.746901325</DistanceMeters>
          </Trackpoint>
          <Trackpoint>
            <Time>2019-08-04T18:38:40.000Z</Time>
            <Position>
              <LatitudeDegrees>-33.53145553730428218841552734375</LatitudeDegrees>
              <LongitudeDegrees>-70.22694750688970088958740234375</LongitudeDegrees>
            </Position>
            <AltitudeMeters>1720</AltitudeMeters>
            <DistanceMeters>6654.8288323261</DistanceMeters>
          </Trackpoint>
          <Trackpoint>
            <Time>2019-08-04T18:38:42.000Z</Time>
            <Position>
              <LatitudeDegrees>-33.53143944405019283294677734375</LatitudeDegrees>
              <LongitudeDegrees>-70.2269333414733409881591796875</LongitudeDegrees>
            </Position>
            <AltitudeMeters>1719.800048828125</AltitudeMeters>
            <DistanceMeters>6657.0492876259</DistanceMeters>
          </Trackpoint>
          <Trackpoint>
            <Time>2019-08-04T18:38:48.000Z</Time>
            <Position>
              <LatitudeDegrees>-33.531407676637172698974609375</LatitudeDegrees>
              <LongitudeDegrees>-70.22686972282826900482177734375</LongitudeDegrees>
            </Position>
            <AltitudeMeters>1718.800048828125</AltitudeMeters>
            <DistanceMeters>6663.9293792473</DistanceMeters>
          </Trackpoint>
          <Trackpoint>
            <Time>2019-08-04T18:38:50.000Z</Time>
            <Position>
              <LatitudeDegrees>-33.53140331804752349853515625</LatitudeDegrees>
              <LongitudeDegrees>-70.2268471755087375640869140625</LongitudeDegrees>
            </Position>
            <AltitudeMeters>1718.5999755859375</AltitudeMeters>
            <DistanceMeters>6666.0753846029</DistanceMeters>
          </Trackpoint>
          <Trackpoint>
            <Time>2019-08-04T18:38:59.000Z</Time>
            <Position>
              <LatitudeDegrees>-33.5313810221850872039794921875</LatitudeDegrees>
              <LongitudeDegrees>-70.22676360793411731719970703125</LongitudeDegrees>
            </Position>
            <AltitudeMeters>1718.4000244140625</AltitudeMeters>
            <DistanceMeters>6674.2161297176</DistanceMeters>
          </Trackpoint>
          <Trackpoint>
            <Time>2019-08-04T18:39:01.000Z</Time>
            <Position>
              <LatitudeDegrees>-33.53137004189193248748779296875</LatitudeDegrees>
              <LongitudeDegrees>-70.2267479337751865386962890625</LongitudeDegrees>
            </Position>
            <AltitudeMeters>1718.4000244140625</AltitudeMeters>
            <DistanceMeters>6676.116664005</DistanceMeters>
          </Trackpoint>
          <Trackpoint>
            <Time>2019-08-04T18:39:06.000Z</Time>
            <Position>
              <LatitudeDegrees>-33.5313357599079608917236328125</LatitudeDegrees>
              <LongitudeDegrees>-70.22671063430607318878173828125</LongitudeDegrees>
            </Position>
            <AltitudeMeters>1717.800048828125</AltitudeMeters>
            <DistanceMeters>6681.268304003</DistanceMeters>
          </Trackpoint>
          <Trackpoint>
            <Time>2019-08-04T18:39:11.000Z</Time>
            <Position>
              <LatitudeDegrees>-33.53131941519677639007568359375</LatitudeDegrees>
              <LongitudeDegrees>-70.2266634441912174224853515625</LongitudeDegrees>
            </Position>
            <AltitudeMeters>1717.199951171875</AltitudeMeters>
            <DistanceMeters>6686.0101275283</DistanceMeters>
          </Trackpoint>
          <Trackpoint>
            <Time>2019-08-04T18:39:14.000Z</Time>
            <Position>
              <LatitudeDegrees>-33.53130181320011615753173828125</LatitudeDegrees>
              <LongitudeDegrees>-70.22662815637886524200439453125</LongitudeDegrees>
            </Position>
            <AltitudeMeters>1717</AltitudeMeters>
            <DistanceMeters>6689.8254234838</DistanceMeters>
          </Trackpoint>
          <Trackpoint>
            <Time>2019-08-04T18:39:16.000Z</Time>
            <Position>
              <LatitudeDegrees>-33.53129007853567600250244140625</LatitudeDegrees>
              <LongitudeDegrees>-70.22661088965833187103271484375</LongitudeDegrees>
            </Position>
            <AltitudeMeters>1717</AltitudeMeters>
            <DistanceMeters>6691.8943014972</DistanceMeters>
          </Trackpoint>
          <Trackpoint>
            <Time>2019-08-04T18:39:18.000Z</Time>
            <Position>
              <LatitudeDegrees>-33.5312713868916034698486328125</LatitudeDegrees>
              <LongitudeDegrees>-70.2265920303761959075927734375</LongitudeDegrees>
            </Position>
            <AltitudeMeters>1716.800048828125</AltitudeMeters>
            <DistanceMeters>6694.6121319796</DistanceMeters>
          </Trackpoint>
          <Trackpoint>
            <Time>2019-08-04T18:39:23.000Z</Time>
            <Position>
              <LatitudeDegrees>-33.53124196641147136688232421875</LatitudeDegrees>
              <LongitudeDegrees>-70.22653729654848575592041015625</LongitudeDegrees>
            </Position>
            <AltitudeMeters>1716.5999755859375</AltitudeMeters>
            <DistanceMeters>6700.6551137882</DistanceMeters>
          </Trackpoint>
          <Trackpoint>
            <Time>2019-08-04T18:39:30.000Z</Time>
            <Position>
              <LatitudeDegrees>-33.531213887035846710205078125</LatitudeDegrees>
              <LongitudeDegrees>-70.2264629490673542022705078125</LongitudeDegrees>
            </Position>
            <AltitudeMeters>1716.4000244140625</AltitudeMeters>
            <DistanceMeters>6708.2274968622</DistanceMeters>
          </Trackpoint>
          <Trackpoint>
            <Time>2019-08-04T18:39:37.000Z</Time>
            <Position>
              <LatitudeDegrees>-33.53119620122015476226806640625</LatitudeDegrees>
              <LongitudeDegrees>-70.22638943977653980255126953125</LongitudeDegrees>
            </Position>
            <AltitudeMeters>1716</AltitudeMeters>
            <DistanceMeters>6715.3259351804</DistanceMeters>
          </Trackpoint>
          <Trackpoint>
            <Time>2019-08-04T18:39:38.000Z</Time>
            <Position>
              <LatitudeDegrees>-33.531196117401123046875</LatitudeDegrees>
              <LongitudeDegrees>-70.22638323716819286346435546875</LongitudeDegrees>
            </Position>
            <AltitudeMeters>1715.800048828125</AltitudeMeters>
            <DistanceMeters>6715.9117191891</DistanceMeters>
          </Trackpoint>
          <Trackpoint>
            <Time>2019-08-04T18:39:40.000Z</Time>
            <Position>
              <LatitudeDegrees>-33.53119636885821819305419921875</LatitudeDegrees>
              <LongitudeDegrees>-70.22637519054114818572998046875</LongitudeDegrees>
            </Position>
            <AltitudeMeters>1715.800048828125</AltitudeMeters>
            <DistanceMeters>6716.6599602863</DistanceMeters>
          </Trackpoint>
          <Trackpoint>
            <Time>2019-08-04T18:39:43.000Z</Time>
            <Position>
              <LatitudeDegrees>-33.53119050152599811553955078125</LatitudeDegrees>
              <LongitudeDegrees>-70.2263653837144374847412109375</LongitudeDegrees>
            </Position>
            <AltitudeMeters>1715.5999755859375</AltitudeMeters>
            <DistanceMeters>6717.7803087257</DistanceMeters>
          </Trackpoint>
          <Trackpoint>
            <Time>2019-08-04T18:39:46.000Z</Time>
            <Position>
              <LatitudeDegrees>-33.53118010796606540679931640625</LatitudeDegrees>
              <LongitudeDegrees>-70.226352475583553314208984375</LongitudeDegrees>
            </Position>
            <AltitudeMeters>1715.5999755859375</AltitudeMeters>
            <DistanceMeters>6719.4453112688</DistanceMeters>
          </Trackpoint>
          <Trackpoint>
            <Time>2019-08-04T18:39:49.000Z</Time>
            <Position>
              <LatitudeDegrees>-33.531160913407802581787109375</LatitudeDegrees>
              <LongitudeDegrees>-70.22634099237620830535888671875</LongitudeDegrees>
            </Position>
            <AltitudeMeters>1715.4000244140625</AltitudeMeters>
            <DistanceMeters>6721.8342458247</DistanceMeters>
          </Trackpoint>
          <Trackpoint>
            <Time>2019-08-04T18:39:56.000Z</Time>
            <Position>
              <LatitudeDegrees>-33.53112361393868923187255859375</LatitudeDegrees>
              <LongitudeDegrees>-70.2263067103922367095947265625</LongitudeDegrees>
            </Position>
            <AltitudeMeters>1714.800048828125</AltitudeMeters>
            <DistanceMeters>6727.0633061105</DistanceMeters>
          </Trackpoint>
          <Trackpoint>
            <Time>2019-08-04T18:40:02.000Z</Time>
            <Position>
              <LatitudeDegrees>-33.53110232390463352203369140625</LatitudeDegrees>
              <LongitudeDegrees>-70.226264297962188720703125</LongitudeDegrees>
            </Position>
            <AltitudeMeters>1713.5999755859375</AltitudeMeters>
            <DistanceMeters>6731.6561547443</DistanceMeters>
          </Trackpoint>
          <Trackpoint>
            <Time>2019-08-04T18:40:03.000Z</Time>
            <Position>
              <LatitudeDegrees>-33.53109888732433319091796875</LatitudeDegrees>
              <LongitudeDegrees>-70.2262549102306365966796875</LongitudeDegrees>
            </Position>
            <AltitudeMeters>1713.4000244140625</AltitudeMeters>
            <DistanceMeters>6732.606421888</DistanceMeters>
          </Trackpoint>
          <Trackpoint>
            <Time>2019-08-04T18:40:14.000Z</Time>
            <Position>
              <LatitudeDegrees>-33.5310708917677402496337890625</LatitudeDegrees>
              <LongitudeDegrees>-70.2261655591428279876708984375</LongitudeDegrees>
            </Position>
            <AltitudeMeters>1712.800048828125</AltitudeMeters>
            <DistanceMeters>6741.4627893144</DistanceMeters>
          </Trackpoint>
          <Trackpoint>
            <Time>2019-08-04T18:40:23.000Z</Time>
            <Position>
              <LatitudeDegrees>-33.5310467518866062164306640625</LatitudeDegrees>
              <LongitudeDegrees>-70.2261065505445003509521484375</LongitudeDegrees>
            </Position>
            <AltitudeMeters>1712.800048828125</AltitudeMeters>
            <DistanceMeters>6747.5608098782</DistanceMeters>
          </Trackpoint>
          <Trackpoint>
            <Time>2019-08-04T18:40:25.000Z</Time>
            <Position>
              <LatitudeDegrees>-33.53104281239211559295654296875</LatitudeDegrees>
              <LongitudeDegrees>-70.22608769126236438751220703125</LongitudeDegrees>
            </Position>
            <AltitudeMeters>1712.800048828125</AltitudeMeters>
            <DistanceMeters>6749.363815014</DistanceMeters>
          </Trackpoint>
          <Trackpoint>
            <Time>2019-08-04T18:40:36.000Z</Time>
            <Position>
              <LatitudeDegrees>-33.53098531253635883331298828125</LatitudeDegrees>
              <LongitudeDegrees>-70.22599674761295318603515625</LongitudeDegrees>
            </Position>
            <AltitudeMeters>1713</AltitudeMeters>
            <DistanceMeters>6759.9540723024</DistanceMeters>
          </Trackpoint>
          <Trackpoint>
            <Time>2019-08-04T18:40:43.000Z</Time>
            <Position>
              <LatitudeDegrees>-33.5309414751827716827392578125</LatitudeDegrees>
              <LongitudeDegrees>-70.225934721529483795166015625</LongitudeDegrees>
            </Position>
            <AltitudeMeters>1712.5999755859375</AltitudeMeters>
            <DistanceMeters>6767.4995763929</DistanceMeters>
          </Trackpoint>
          <Trackpoint>
            <Time>2019-08-04T18:40:44.000Z</Time>
            <Position>
              <LatitudeDegrees>-33.53093703277409076690673828125</LatitudeDegrees>
              <LongitudeDegrees>-70.22592491470277309417724609375</LongitudeDegrees>
            </Position>
            <AltitudeMeters>1712.199951171875</AltitudeMeters>
            <DistanceMeters>6768.5361954631</DistanceMeters>
          </Trackpoint>
          <Trackpoint>
            <Time>2019-08-04T18:40:52.000Z</Time>
            <Position>
              <LatitudeDegrees>-33.5308809578418731689453125</LatitudeDegrees>
              <LongitudeDegrees>-70.22585500963032245635986328125</LongitudeDegrees>
            </Position>
            <AltitudeMeters>1711.199951171875</AltitudeMeters>
            <DistanceMeters>6777.5371868449</DistanceMeters>
          </Trackpoint>
          <Trackpoint>
            <Time>2019-08-04T18:40:53.000Z</Time>
            <Position>
              <LatitudeDegrees>-33.5308740846812725067138671875</LatitudeDegrees>
              <LongitudeDegrees>-70.22584713064134120941162109375</LongitudeDegrees>
            </Position>
            <AltitudeMeters>1711.199951171875</AltitudeMeters>
            <DistanceMeters>6778.5953595525</DistanceMeters>
          </Trackpoint>
          <Trackpoint>
            <Time>2019-08-04T18:40:54.000Z</Time>
            <Position>
              <LatitudeDegrees>-33.53086712770164012908935546875</LatitudeDegrees>
              <LongitudeDegrees>-70.2258390001952648162841796875</LongitudeDegrees>
            </Position>
            <AltitudeMeters>1711</AltitudeMeters>
            <DistanceMeters>6779.6704640985</DistanceMeters>
          </Trackpoint>
          <Trackpoint>
            <Time>2019-08-04T18:41:00.000Z</Time>
            <Position>
              <LatitudeDegrees>-33.5308190993964672088623046875</LatitudeDegrees>
              <LongitudeDegrees>-70.225779823958873748779296875</LongitudeDegrees>
            </Position>
            <AltitudeMeters>1710.800048828125</AltitudeMeters>
            <DistanceMeters>6787.3329413114</DistanceMeters>
          </Trackpoint>
          <Trackpoint>
            <Time>2019-08-04T18:41:01.000Z</Time>
            <Position>
              <LatitudeDegrees>-33.53081365115940570831298828125</LatitudeDegrees>
              <LongitudeDegrees>-70.22577001713216304779052734375</LongitudeDegrees>
            </Position>
            <AltitudeMeters>1710.800048828125</AltitudeMeters>
            <DistanceMeters>6788.424715139</DistanceMeters>
          </Trackpoint>
          <Trackpoint>
            <Time>2019-08-04T18:41:07.000Z</Time>
            <Position>
              <LatitudeDegrees>-33.530790098011493682861328125</LatitudeDegrees>
              <LongitudeDegrees>-70.2257340587675571441650390625</LongitudeDegrees>
            </Position>
            <AltitudeMeters>1710.199951171875</AltitudeMeters>
            <DistanceMeters>6792.6680596253</DistanceMeters>
          </Trackpoint>
          <Trackpoint>
            <Time>2019-08-04T18:41:08.000Z</Time>
            <Position>
              <LatitudeDegrees>-33.5307879187166690826416015625</LatitudeDegrees>
              <LongitudeDegrees>-70.225726850330829620361328125</LongitudeDegrees>
            </Position>
            <AltitudeMeters>1710.199951171875</AltitudeMeters>
            <DistanceMeters>6793.3791744408</DistanceMeters>
          </Trackpoint>
          <Trackpoint>
            <Time>2019-08-04T18:41:09.000Z</Time>
            <Position>
              <LatitudeDegrees>-33.5307855717837810516357421875</LatitudeDegrees>
              <LongitudeDegrees>-70.2257166244089603424072265625</LongitudeDegrees>
            </Position>
            <AltitudeMeters>1710</AltitudeMeters>
            <DistanceMeters>6794.3575343455</DistanceMeters>
          </Trackpoint>
          <Trackpoint>
            <Time>2019-08-04T18:41:10.000Z</Time>
            <Position>
              <LatitudeDegrees>-33.5307843983173370361328125</LatitudeDegrees>
              <LongitudeDegrees>-70.22570514120161533355712890625</LongitudeDegrees>
            </Position>
            <AltitudeMeters>1709.800048828125</AltitudeMeters>
            <DistanceMeters>6795.4326388915</DistanceMeters>
          </Trackpoint>
          <Trackpoint>
            <Time>2019-08-04T18:41:12.000Z</Time>
            <Position>
              <LatitudeDegrees>-33.53077241219580173492431640625</LatitudeDegrees>
              <LongitudeDegrees>-70.22568318061530590057373046875</LongitudeDegrees>
            </Position>
            <AltitudeMeters>1709.800048828125</AltitudeMeters>
            <DistanceMeters>6797.8702176697</DistanceMeters>
          </Trackpoint>
          <Trackpoint>
            <Time>2019-08-04T18:41:15.000Z</Time>
            <Position>
              <LatitudeDegrees>-33.53075346909463405609130859375</LatitudeDegrees>
              <LongitudeDegrees>-70.22565049119293689727783203125</LongitudeDegrees>
            </Position>
            <AltitudeMeters>1709.5999755859375</AltitudeMeters>
            <DistanceMeters>6801.5652786412</DistanceMeters>
          </Trackpoint>
          <Trackpoint>
            <Time>2019-08-04T18:41:18.000Z</Time>
            <Position>
              <LatitudeDegrees>-33.5307426564395427703857421875</LatitudeDegrees>
              <LongitudeDegrees>-70.2256240881979465484619140625</LongitudeDegrees>
            </Position>
            <AltitudeMeters>1709.4000244140625</AltitudeMeters>
            <DistanceMeters>6804.2930585059</DistanceMeters>
          </Trackpoint>
          <Trackpoint>
            <Time>2019-08-04T18:41:19.000Z</Time>
            <Position>
              <LatitudeDegrees>-33.53074005804955959320068359375</LatitudeDegrees>
              <LongitudeDegrees>-70.22561377845704555511474609375</LongitudeDegrees>
            </Position>
            <AltitudeMeters>1709.199951171875</AltitudeMeters>
            <DistanceMeters>6805.2897070943</DistanceMeters>
          </Trackpoint>
          <Trackpoint>
            <Time>2019-08-04T18:41:20.000Z</Time>
            <Position>
              <LatitudeDegrees>-33.5307359509170055389404296875</LatitudeDegrees>
              <LongitudeDegrees>-70.22560187615454196929931640625</LongitudeDegrees>
            </Position>
            <AltitudeMeters>1709.199951171875</AltitudeMeters>
            <DistanceMeters>6806.4841743723</DistanceMeters>
          </Trackpoint>
          <Trackpoint>
            <Time>2019-08-04T18:41:21.000Z</Time>
            <Position>
              <LatitudeDegrees>-33.530731759965419769287109375</LatitudeDegrees>
              <LongitudeDegrees>-70.225595422089099884033203125</LongitudeDegrees>
            </Position>
            <AltitudeMeters>1709</AltitudeMeters>
            <DistanceMeters>6807.2443880872</DistanceMeters>
          </Trackpoint>
          <Trackpoint>
            <Time>2019-08-04T18:41:25.000Z</Time>
            <Position>
              <LatitudeDegrees>-33.530723713338375091552734375</LatitudeDegrees>
              <LongitudeDegrees>-70.2255566976964473724365234375</LongitudeDegrees>
            </Position>
            <AltitudeMeters>1708.5999755859375</AltitudeMeters>
            <DistanceMeters>6810.9467732701</DistanceMeters>
          </Trackpoint>
          <Trackpoint>
            <Time>2019-08-04T18:41:32.000Z</Time>
            <Position>
              <LatitudeDegrees>-33.530687503516674041748046875</LatitudeDegrees>
              <LongitudeDegrees>-70.2255013771355152130126953125</LongitudeDegrees>
            </Position>
            <AltitudeMeters>1708</AltitudeMeters>
            <DistanceMeters>6817.4725560208</DistanceMeters>
          </Trackpoint>
          <Trackpoint>
            <Time>2019-08-04T18:41:34.000Z</Time>
            <Position>
              <LatitudeDegrees>-33.53066839277744293212890625</LatitudeDegrees>
              <LongitudeDegrees>-70.2254919894039630889892578125</LongitudeDegrees>
            </Position>
            <AltitudeMeters>1707.4000244140625</AltitudeMeters>
            <DistanceMeters>6819.7729092102</DistanceMeters>
          </Trackpoint>
          <Trackpoint>
            <Time>2019-08-04T18:41:36.000Z</Time>
            <Position>
              <LatitudeDegrees>-33.53065053932368755340576171875</LatitudeDegrees>
              <LongitudeDegrees>-70.225478745996952056884765625</LongitudeDegrees>
            </Position>
            <AltitudeMeters>1706.800048828125</AltitudeMeters>
            <DistanceMeters>6822.1083248418</DistanceMeters>
          </Trackpoint>
          <Trackpoint>
            <Time>2019-08-04T18:41:37.000Z</Time>
            <Position>
              <LatitudeDegrees>-33.53064500726759433746337890625</LatitudeDegrees>
              <LongitudeDegrees>-70.225472711026668548583984375</LongitudeDegrees>
            </Position>
            <AltitudeMeters>1706.5999755859375</AltitudeMeters>
            <DistanceMeters>6822.9367485315</DistanceMeters>
          </Trackpoint>
          <Trackpoint>
            <Time>2019-08-04T18:41:38.000Z</Time>
            <Position>
              <LatitudeDegrees>-33.530638217926025390625</LatitudeDegrees>
              <LongitudeDegrees>-70.225466005504131317138671875</LongitudeDegrees>
            </Position>
            <AltitudeMeters>1706.199951171875</AltitudeMeters>
            <DistanceMeters>6823.9151084362</DistanceMeters>
          </Trackpoint>
          <Trackpoint>
            <Time>2019-08-04T18:41:42.000Z</Time>
            <Position>
              <LatitudeDegrees>-33.530611731112003326416015625</LatitudeDegrees>
              <LongitudeDegrees>-70.225427448749542236328125</LongitudeDegrees>
            </Position>
            <AltitudeMeters>1705.5999755859375</AltitudeMeters>
            <DistanceMeters>6828.551009852</DistanceMeters>
          </Trackpoint>
          <Trackpoint>
            <Time>2019-08-04T18:41:43.000Z</Time>
            <Position>
              <LatitudeDegrees>-33.53060494177043437957763671875</LatitudeDegrees>
              <LongitudeDegrees>-70.22541881538927555084228515625</LongitudeDegrees>
            </Position>
            <AltitudeMeters>1705.4000244140625</AltitudeMeters>
            <DistanceMeters>6829.6510235989</DistanceMeters>
          </Trackpoint>
          <Trackpoint>
            <Time>2019-08-04T18:41:49.000Z</Time>
            <Position>
              <LatitudeDegrees>-33.53055381216108798980712890625</LatitudeDegrees>
              <LongitudeDegrees>-70.2253773249685764312744140625</LongitudeDegrees>
            </Position>
            <AltitudeMeters>1704.5999755859375</AltitudeMeters>
            <DistanceMeters>6836.5219216224</DistanceMeters>
          </Trackpoint>
          <Trackpoint>
            <Time>2019-08-04T18:41:50.000Z</Time>
            <Position>
              <LatitudeDegrees>-33.5305455140769481658935546875</LatitudeDegrees>
              <LongitudeDegrees>-70.225369445979595184326171875</LongitudeDegrees>
            </Position>
            <AltitudeMeters>1704.4000244140625</AltitudeMeters>
            <DistanceMeters>6837.7011721354</DistanceMeters>
          </Trackpoint>
          <Trackpoint>
            <Time>2019-08-04T18:41:54.000Z</Time>
            <Position>
              <LatitudeDegrees>-33.5305129922926425933837890625</LatitudeDegrees>
              <LongitudeDegrees>-70.22533935494720935821533203125</LongitudeDegrees>
            </Position>
            <AltitudeMeters>1703.5999755859375</AltitudeMeters>
            <DistanceMeters>6842.2723423238</DistanceMeters>
          </Trackpoint>
          <Trackpoint>
            <Time>2019-08-04T18:41:57.000Z</Time>
            <Position>
              <LatitudeDegrees>-33.53048591874539852142333984375</LatitudeDegrees>
              <LongitudeDegrees>-70.2253250218927860260009765625</LongitudeDegrees>
            </Position>
            <AltitudeMeters>1703</AltitudeMeters>
            <DistanceMeters>6845.566906314</DistanceMeters>
          </Trackpoint>
          <Trackpoint>
            <Time>2019-08-04T18:41:58.000Z</Time>
            <Position>
              <LatitudeDegrees>-33.53047502227127552032470703125</LatitudeDegrees>
              <LongitudeDegrees>-70.225320160388946533203125</LongitudeDegrees>
            </Position>
            <AltitudeMeters>1703</AltitudeMeters>
            <DistanceMeters>6846.8559113821</DistanceMeters>
          </Trackpoint>
          <Trackpoint>
            <Time>2019-08-04T18:42:00.000Z</Time>
            <Position>
              <LatitudeDegrees>-33.530459515750408172607421875</LatitudeDegrees>
              <LongitudeDegrees>-70.2253095991909503936767578125</LongitudeDegrees>
            </Position>
            <AltitudeMeters>1702.800048828125</AltitudeMeters>
            <DistanceMeters>6848.8401274312</DistanceMeters>
          </Trackpoint>
          <Trackpoint>
            <Time>2019-08-04T18:42:02.000Z</Time>
            <Position>
              <LatitudeDegrees>-33.5304409079253673553466796875</LatitudeDegrees>
              <LongitudeDegrees>-70.22529828362166881561279296875</LongitudeDegrees>
            </Position>
            <AltitudeMeters>1702.4000244140625</AltitudeMeters>
            <DistanceMeters>6851.1619705864</DistanceMeters>
          </Trackpoint>
          <Trackpoint>
            <Time>2019-08-04T18:42:07.000Z</Time>
            <Position>
              <LatitudeDegrees>-33.5303906165063381195068359375</LatitudeDegrees>
              <LongitudeDegrees>-70.2252697013318538665771484375</LongitudeDegrees>
            </Position>
            <AltitudeMeters>1701.4000244140625</AltitudeMeters>
            <DistanceMeters>6857.3562255707</DistanceMeters>
          </Trackpoint>
          <Trackpoint>
            <Time>2019-08-04T18:42:12.000Z</Time>
            <Position>
              <LatitudeDegrees>-33.53034560568630695343017578125</LatitudeDegrees>
              <LongitudeDegrees>-70.22522569634020328521728515625</LongitudeDegrees>
            </Position>
            <AltitudeMeters>1700.199951171875</AltitudeMeters>
            <DistanceMeters>6863.8194394484</DistanceMeters>
          </Trackpoint>
          <Trackpoint>
            <Time>2019-08-04T18:42:14.000Z</Time>
            <Position>
              <LatitudeDegrees>-33.53032951243221759796142578125</LatitudeDegrees>
              <LongitudeDegrees>-70.22520792670547962188720703125</LongitudeDegrees>
            </Position>
            <AltitudeMeters>1700</AltitudeMeters>
            <DistanceMeters>6866.2533108804</DistanceMeters>
          </Trackpoint>
          <Trackpoint>
            <Time>2019-08-04T18:42:19.000Z</Time>
            <Position>
              <LatitudeDegrees>-33.530301265418529510498046875</LatitudeDegrees>
              <LongitudeDegrees>-70.2251661010086536407470703125</LongitudeDegrees>
            </Position>
            <AltitudeMeters>1699</AltitudeMeters>
            <DistanceMeters>6871.2492223379</DistanceMeters>
          </Trackpoint>
          <Trackpoint>
            <Time>2019-08-04T18:42:24.000Z</Time>
            <Position>
              <LatitudeDegrees>-33.530274443328380584716796875</LatitudeDegrees>
              <LongitudeDegrees>-70.2251215092837810516357421875</LongitudeDegrees>
            </Position>
            <AltitudeMeters>1698.5999755859375</AltitudeMeters>
            <DistanceMeters>6876.3515463562</DistanceMeters>
          </Trackpoint>
          <Trackpoint>
            <Time>2019-08-04T18:42:27.000Z</Time>
            <Position>
              <LatitudeDegrees>-33.53026379831135272979736328125</LatitudeDegrees>
              <LongitudeDegrees>-70.22509016096591949462890625</LongitudeDegrees>
            </Position>
            <AltitudeMeters>1698.199951171875</AltitudeMeters>
            <DistanceMeters>6879.4917443558</DistanceMeters>
          </Trackpoint>
          <Trackpoint>
            <Time>2019-08-04T18:42:28.000Z</Time>
            <Position>
              <LatitudeDegrees>-33.53025927208364009857177734375</LatitudeDegrees>
              <LongitudeDegrees>-70.2250789292156696319580078125</LongitudeDegrees>
            </Position>
            <AltitudeMeters>1698</AltitudeMeters>
            <DistanceMeters>6880.6477942309</DistanceMeters>
          </Trackpoint>
          <Trackpoint>
            <Time>2019-08-04T18:42:37.000Z</Time>
            <Position>
              <LatitudeDegrees>-33.5302050411701202392578125</LatitudeDegrees>
              <LongitudeDegrees>-70.22500642575323581695556640625</LongitudeDegrees>
            </Position>
            <AltitudeMeters>1697</AltitudeMeters>
            <DistanceMeters>6889.685828946</DistanceMeters>
          </Trackpoint>
          <Trackpoint>
            <Time>2019-08-04T18:42:38.000Z</Time>
            <Position>
              <LatitudeDegrees>-33.5301983356475830078125</LatitudeDegrees>
              <LongitudeDegrees>-70.22499921731650829315185546875</LongitudeDegrees>
            </Position>
            <AltitudeMeters>1696.800048828125</AltitudeMeters>
            <DistanceMeters>6890.6824775345</DistanceMeters>
          </Trackpoint>
          <Trackpoint>
            <Time>2019-08-04T18:42:43.000Z</Time>
            <Position>
              <LatitudeDegrees>-33.5301736928522586822509765625</LatitudeDegrees>
              <LongitudeDegrees>-70.22496434859931468963623046875</LongitudeDegrees>
            </Position>
            <AltitudeMeters>1695.800048828125</AltitudeMeters>
            <DistanceMeters>6894.9236934304</DistanceMeters>
          </Trackpoint>
          <Trackpoint>
            <Time>2019-08-04T18:42:47.000Z</Time>
            <Position>
              <LatitudeDegrees>-33.53016003035008907318115234375</LatitudeDegrees>
              <LongitudeDegrees>-70.22494339384138584136962890625</LongitudeDegrees>
            </Position>
            <AltitudeMeters>1695.199951171875</AltitudeMeters>
            <DistanceMeters>6897.3907304231</DistanceMeters>
          </Trackpoint>
          <Trackpoint>
            <Time>2019-08-04T18:42:49.000Z</Time>
            <Position>
              <LatitudeDegrees>-33.53014762513339519500732421875</LatitudeDegrees>
              <LongitudeDegrees>-70.22492864169180393218994140625</LongitudeDegrees>
            </Position>
            <AltitudeMeters>1694.5999755859375</AltitudeMeters>
            <DistanceMeters>6899.3335561882</DistanceMeters>
          </Trackpoint>
          <Trackpoint>
            <Time>2019-08-04T18:42:53.000Z</Time>
            <Position>
              <LatitudeDegrees>-33.53010856546461582183837890625</LatitudeDegrees>
              <LongitudeDegrees>-70.22488622926175594329833984375</LongitudeDegrees>
            </Position>
            <AltitudeMeters>1693.800048828125</AltitudeMeters>
            <DistanceMeters>6905.1975591809</DistanceMeters>
          </Trackpoint>
          <Trackpoint>
            <Time>2019-08-04T18:42:54.000Z</Time>
            <Position>
              <LatitudeDegrees>-33.530099093914031982421875</LatitudeDegrees>
              <LongitudeDegrees>-70.224875248968601226806640625</LongitudeDegrees>
            </Position>
            <AltitudeMeters>1693.5999755859375</AltitudeMeters>
            <DistanceMeters>6906.6635599291</DistanceMeters>
          </Trackpoint>
          <Trackpoint>
            <Time>2019-08-04T18:42:57.000Z</Time>
            <Position>
              <LatitudeDegrees>-33.53008207865059375762939453125</LatitudeDegrees>
              <LongitudeDegrees>-70.2248425595462322235107421875</LongitudeDegrees>
            </Position>
            <AltitudeMeters>1693.199951171875</AltitudeMeters>
            <DistanceMeters>6910.2393938521</DistanceMeters>
          </Trackpoint>
          <Trackpoint>
            <Time>2019-08-04T18:42:58.000Z</Time>
            <Position>
              <LatitudeDegrees>-33.53008006699383258819580078125</LatitudeDegrees>
              <LongitudeDegrees>-70.2248325012624263763427734375</LongitudeDegrees>
            </Position>
            <AltitudeMeters>1693</AltitudeMeters>
            <DistanceMeters>6911.203809672</DistanceMeters>
          </Trackpoint>
          <Trackpoint>
            <Time>2019-08-04T18:42:59.000Z</Time>
            <Position>
              <LatitudeDegrees>-33.53007570840418338775634765625</LatitudeDegrees>
              <LongitudeDegrees>-70.22482520900666713714599609375</LongitudeDegrees>
            </Position>
            <AltitudeMeters>1693</AltitudeMeters>
            <DistanceMeters>6912.0322333618</DistanceMeters>
          </Trackpoint>
          <Trackpoint>
            <Time>2019-08-04T18:43:00.000Z</Time>
            <Position>
              <LatitudeDegrees>-33.5300694219768047332763671875</LatitudeDegrees>
              <LongitudeDegrees>-70.22481934167444705963134765625</LongitudeDegrees>
            </Position>
            <AltitudeMeters>1692.5999755859375</AltitudeMeters>
            <DistanceMeters>6912.9236629591</DistanceMeters>
          </Trackpoint>
          <Trackpoint>
            <Time>2019-08-04T18:43:02.000Z</Time>
            <Position>
              <LatitudeDegrees>-33.53005743585526943206787109375</LatitudeDegrees>
              <LongitudeDegrees>-70.2248120494186878204345703125</LongitudeDegrees>
            </Position>
            <AltitudeMeters>1692.199951171875</AltitudeMeters>
            <DistanceMeters>6914.4231592194</DistanceMeters>
          </Trackpoint>
          <Trackpoint>
            <Time>2019-08-04T18:43:03.000Z</Time>
            <Position>
              <LatitudeDegrees>-33.5300503112375736236572265625</LatitudeDegrees>
              <LongitudeDegrees>-70.2248100377619266510009765625</LongitudeDegrees>
            </Position>
            <AltitudeMeters>1691.800048828125</AltitudeMeters>
            <DistanceMeters>6915.2461147062</DistanceMeters>
          </Trackpoint>
          <Trackpoint>
            <Time>2019-08-04T18:43:05.000Z</Time>
            <Position>
              <LatitudeDegrees>-33.5300365649163722991943359375</LatitudeDegrees>
              <LongitudeDegrees>-70.22481095977127552032470703125</LongitudeDegrees>
            </Position>
            <AltitudeMeters>1691.5999755859375</AltitudeMeters>
            <DistanceMeters>6916.7813182601</DistanceMeters>
          </Trackpoint>
          <Trackpoint>
            <Time>2019-08-04T18:43:10.000Z</Time>
            <Position>
              <LatitudeDegrees>-33.530000858008861541748046875</LatitudeDegrees>
              <LongitudeDegrees>-70.224792100489139556884765625</LongitudeDegrees>
            </Position>
            <AltitudeMeters>1690.4000244140625</AltitudeMeters>
            <DistanceMeters>6921.1235296339</DistanceMeters>
          </Trackpoint>
          <Trackpoint>
            <Time>2019-08-04T18:43:12.000Z</Time>
            <Position>
              <LatitudeDegrees>-33.52998585440218448638916015625</LatitudeDegrees>
              <LongitudeDegrees>-70.224778354167938232421875</LongitudeDegrees>
            </Position>
            <AltitudeMeters>1690</AltitudeMeters>
            <DistanceMeters>6923.2227383669</DistanceMeters>
          </Trackpoint>
          <Trackpoint>
            <Time>2019-08-04T18:43:13.000Z</Time>
            <Position>
              <LatitudeDegrees>-33.52997864596545696258544921875</LatitudeDegrees>
              <LongitudeDegrees>-70.22477072663605213165283203125</LongitudeDegrees>
            </Position>
            <AltitudeMeters>1689.800048828125</AltitudeMeters>
            <DistanceMeters>6924.2978429129</DistanceMeters>
          </Trackpoint>
          <Trackpoint>
            <Time>2019-08-04T18:43:15.000Z</Time>
            <Position>
              <LatitudeDegrees>-33.52996573783457279205322265625</LatitudeDegrees>
              <LongitudeDegrees>-70.22475563921034336090087890625</LongitudeDegrees>
            </Position>
            <AltitudeMeters>1689.4000244140625</AltitudeMeters>
            <DistanceMeters>6926.3046847338</DistanceMeters>
          </Trackpoint>
          <Trackpoint>
            <Time>2019-08-04T18:43:20.000Z</Time>
            <Position>
              <LatitudeDegrees>-33.52993975393474102020263671875</LatitudeDegrees>
              <LongitudeDegrees>-70.2247171662747859954833984375</LongitudeDegrees>
            </Position>
            <AltitudeMeters>1688.4000244140625</AltitudeMeters>
            <DistanceMeters>6930.8985163208</DistanceMeters>
          </Trackpoint>
          <Trackpoint>
            <Time>2019-08-04T18:43:23.000Z</Time>
            <Position>
              <LatitudeDegrees>-33.52991762571036815643310546875</LatitudeDegrees>
              <LongitudeDegrees>-70.224694870412349700927734375</LongitudeDegrees>
            </Position>
            <AltitudeMeters>1687.5999755859375</AltitudeMeters>
            <DistanceMeters>6934.1154197394</DistanceMeters>
          </Trackpoint>
          <Trackpoint>
            <Time>2019-08-04T18:43:27.000Z</Time>
            <Position>
              <LatitudeDegrees>-33.529900610446929931640625</LatitudeDegrees>
              <LongitudeDegrees>-70.224657319486141204833984375</LongitudeDegrees>
            </Position>
            <AltitudeMeters>1687.199951171875</AltitudeMeters>
            <DistanceMeters>6938.0804371529</DistanceMeters>
          </Trackpoint>
          <Trackpoint>
            <Time>2019-08-04T18:43:30.000Z</Time>
            <Position>
              <LatitudeDegrees>-33.52989147417247295379638671875</LatitudeDegrees>
              <LongitudeDegrees>-70.22460828535258769989013671875</LongitudeDegrees>
            </Position>
            <AltitudeMeters>1686.5999755859375</AltitudeMeters>
            <DistanceMeters>6942.7415919373</DistanceMeters>
          </Trackpoint>
          <Trackpoint>
            <Time>2019-08-04T18:43:32.000Z</Time>
            <Position>
              <LatitudeDegrees>-33.52988644503057003021240234375</LatitudeDegrees>
              <LongitudeDegrees>-70.2245813794434070587158203125</LongitudeDegrees>
            </Position>
            <AltitudeMeters>1686.199951171875</AltitudeMeters>
            <DistanceMeters>6945.2984993164</DistanceMeters>
          </Trackpoint>
          <Trackpoint>
            <Time>2019-08-04T18:43:33.000Z</Time>
            <Position>
              <LatitudeDegrees>-33.529884181916713714599609375</LatitudeDegrees>
              <LongitudeDegrees>-70.22457006387412548065185546875</LongitudeDegrees>
            </Position>
            <AltitudeMeters>1686.199951171875</AltitudeMeters>
            <DistanceMeters>6946.3819705609</DistanceMeters>
          </Trackpoint>
          <Trackpoint>
            <Time>2019-08-04T18:43:40.000Z</Time>
            <Position>
              <LatitudeDegrees>-33.5298786498606204986572265625</LatitudeDegrees>
              <LongitudeDegrees>-70.22450753487646579742431640625</LongitudeDegrees>
            </Position>
            <AltitudeMeters>1685</AltitudeMeters>
            <DistanceMeters>6952.2166417765</DistanceMeters>
          </Trackpoint>
          <Trackpoint>
            <Time>2019-08-04T18:43:43.000Z</Time>
            <Position>
              <LatitudeDegrees>-33.52987286634743213653564453125</LatitudeDegrees>
              <LongitudeDegrees>-70.22447333671152591705322265625</LongitudeDegrees>
            </Position>
            <AltitudeMeters>1684.5999755859375</AltitudeMeters>
            <DistanceMeters>6955.4531350447</DistanceMeters>
          </Trackpoint>
          <Trackpoint>
            <Time>2019-08-04T18:43:50.000Z</Time>
            <Position>
              <LatitudeDegrees>-33.52987085469067096710205078125</LatitudeDegrees>
              <LongitudeDegrees>-70.2244016714394092559814453125</LongitudeDegrees>
            </Position>
            <AltitudeMeters>1683.5999755859375</AltitudeMeters>
            <DistanceMeters>6962.1050050506</DistanceMeters>
          </Trackpoint>
          <Trackpoint>
            <Time>2019-08-04T18:43:52.000Z</Time>
            <Position>
              <LatitudeDegrees>-33.5298645682632923126220703125</LatitudeDegrees>
              <LongitudeDegrees>-70.224377028644084930419921875</LongitudeDegrees>
            </Position>
            <AltitudeMeters>1683.199951171875</AltitudeMeters>
            <DistanceMeters>6964.4939396065</DistanceMeters>
          </Trackpoint>
          <Trackpoint>
            <Time>2019-08-04T18:43:55.000Z</Time>
            <Position>
              <LatitudeDegrees>-33.529860042035579681396484375</LatitudeDegrees>
              <LongitudeDegrees>-70.22434475831687450408935546875</LongitudeDegrees>
            </Position>
            <AltitudeMeters>1682.5999755859375</AltitudeMeters>
            <DistanceMeters>6967.5288494854</DistanceMeters>
          </Trackpoint>
          <Trackpoint>
            <Time>2019-08-04T18:43:58.000Z</Time>
            <Position>
              <LatitudeDegrees>-33.52986079640686511993408203125</LatitudeDegrees>
              <LongitudeDegrees>-70.224311985075473785400390625</LongitudeDegrees>
            </Position>
            <AltitudeMeters>1682.199951171875</AltitudeMeters>
            <DistanceMeters>6970.5711887753</DistanceMeters>
          </Trackpoint>
          <Trackpoint>
            <Time>2019-08-04T18:44:03.000Z</Time>
            <Position>
              <LatitudeDegrees>-33.529848642647266387939453125</LatitudeDegrees>
              <LongitudeDegrees>-70.2242702431976795196533203125</LongitudeDegrees>
            </Position>
            <AltitudeMeters>1681.4000244140625</AltitudeMeters>
            <DistanceMeters>6974.6738784408</DistanceMeters>
          </Trackpoint>
          <Trackpoint>
            <Time>2019-08-04T18:44:09.000Z</Time>
            <Position>
              <LatitudeDegrees>-33.52984118275344371795654296875</LatitudeDegrees>
              <LongitudeDegrees>-70.22423713468015193939208984375</LongitudeDegrees>
            </Position>
            <AltitudeMeters>1680.5999755859375</AltitudeMeters>
            <DistanceMeters>6977.8554999918</DistanceMeters>
          </Trackpoint>
          <Trackpoint>
            <Time>2019-08-04T18:44:12.000Z</Time>
            <Position>
              <LatitudeDegrees>-33.5298343934118747711181640625</LatitudeDegrees>
              <LongitudeDegrees>-70.22422405891120433807373046875</LongitudeDegrees>
            </Position>
            <AltitudeMeters>1680.4000244140625</AltitudeMeters>
            <DistanceMeters>6979.2840647528</DistanceMeters>
          </Trackpoint>
          <Trackpoint>
            <Time>2019-08-04T18:44:15.000Z</Time>
            <Position>
              <LatitudeDegrees>-33.52982877753674983978271484375</LatitudeDegrees>
              <LongitudeDegrees>-70.22422070614993572235107421875</LongitudeDegrees>
            </Position>
            <AltitudeMeters>1679.800048828125</AltitudeMeters>
            <DistanceMeters>6979.9823656392</DistanceMeters>
          </Trackpoint>
          <Trackpoint>
            <Time>2019-08-04T18:44:20.000Z</Time>
            <Position>
              <LatitudeDegrees>-33.5298055596649646759033203125</LatitudeDegrees>
              <LongitudeDegrees>-70.22421668283641338348388671875</LongitudeDegrees>
            </Position>
            <AltitudeMeters>1679.199951171875</AltitudeMeters>
            <DistanceMeters>6982.5934396931</DistanceMeters>
          </Trackpoint>
          <Trackpoint>
            <Time>2019-08-04T18:44:25.000Z</Time>
            <Position>
              <LatitudeDegrees>-33.529787957668304443359375</LatitudeDegrees>
              <LongitudeDegrees>-70.22419991903007030487060546875</LongitudeDegrees>
            </Position>
            <AltitudeMeters>1678.800048828125</AltitudeMeters>
            <DistanceMeters>6985.0950077965</DistanceMeters>
          </Trackpoint>
          <Trackpoint>
            <Time>2019-08-04T18:44:27.000Z</Time>
            <Position>
              <LatitudeDegrees>-33.5297830961644649505615234375</LatitudeDegrees>
              <LongitudeDegrees>-70.22419237531721591949462890625</LongitudeDegrees>
            </Position>
            <AltitudeMeters>1678.5999755859375</AltitudeMeters>
            <DistanceMeters>6985.9864373939</DistanceMeters>
          </Trackpoint>
          <Trackpoint>
            <Time>2019-08-04T18:44:28.000Z</Time>
            <Position>
              <LatitudeDegrees>-33.52977915666997432708740234375</LatitudeDegrees>
              <LongitudeDegrees>-70.224183909595012664794921875</LongitudeDegrees>
            </Position>
            <AltitudeMeters>1678.4000244140625</AltitudeMeters>
            <DistanceMeters>6986.8879399618</DistanceMeters>
          </Trackpoint>
          <Trackpoint>
            <Time>2019-08-04T18:44:29.000Z</Time>
            <Position>
              <LatitudeDegrees>-33.5297758877277374267578125</LatitudeDegrees>
              <LongitudeDegrees>-70.22417980246245861053466796875</LongitudeDegrees>
            </Position>
            <AltitudeMeters>1678.199951171875</AltitudeMeters>
            <DistanceMeters>6987.408422712</DistanceMeters>
          </Trackpoint>
          <Trackpoint>
            <Time>2019-08-04T18:44:33.000Z</Time>
            <Position>
              <LatitudeDegrees>-33.5297582857310771942138671875</LatitudeDegrees>
              <LongitudeDegrees>-70.2241699956357479095458984375</LongitudeDegrees>
            </Position>
            <AltitudeMeters>1677.800048828125</AltitudeMeters>
            <DistanceMeters>6989.5711939893</DistanceMeters>
          </Trackpoint>
          <Trackpoint>
            <Time>2019-08-04T18:44:36.000Z</Time>
            <Position>
              <LatitudeDegrees>-33.529758788645267486572265625</LatitudeDegrees>
              <LongitudeDegrees>-70.224159099161624908447265625</LongitudeDegrees>
            </Position>
            <AltitudeMeters>1677.199951171875</AltitudeMeters>
            <DistanceMeters>6990.5813418192</DistanceMeters>
          </Trackpoint>
          <Trackpoint>
            <Time>2019-08-04T18:44:37.000Z</Time>
            <Position>
              <LatitudeDegrees>-33.5297599621117115020751953125</LatitudeDegrees>
              <LongitudeDegrees>-70.22415717132389545440673828125</LongitudeDegrees>
            </Position>
            <AltitudeMeters>1677</AltitudeMeters>
            <DistanceMeters>6990.7713952479</DistanceMeters>
          </Trackpoint>
          <Trackpoint>
            <Time>2019-08-04T18:44:38.000Z</Time>
            <Position>
              <LatitudeDegrees>-33.52975585497915744781494140625</LatitudeDegrees>
              <LongitudeDegrees>-70.22415700368583202362060546875</LongitudeDegrees>
            </Position>
            <AltitudeMeters>1676.5999755859375</AltitudeMeters>
            <DistanceMeters>6991.2171100466</DistanceMeters>
          </Trackpoint>
          <Trackpoint>
            <Time>2019-08-04T18:44:40.000Z</Time>
            <Position>
              <LatitudeDegrees>-33.5297437012195587158203125</LatitudeDegrees>
              <LongitudeDegrees>-70.224145352840423583984375</LongitudeDegrees>
            </Position>
            <AltitudeMeters>1676</AltitudeMeters>
            <DistanceMeters>6992.9485791856</DistanceMeters>
          </Trackpoint>
          <Trackpoint>
            <Time>2019-08-04T18:44:41.000Z</Time>
            <Position>
              <LatitudeDegrees>-33.52973657660186290740966796875</LatitudeDegrees>
              <LongitudeDegrees>-70.2241332828998565673828125</LongitudeDegrees>
            </Position>
            <AltitudeMeters>1675.800048828125</AltitudeMeters>
            <DistanceMeters>6994.3190739504</DistanceMeters>
          </Trackpoint>
          <Trackpoint>
            <Time>2019-08-04T18:44:47.000Z</Time>
            <Position>
              <LatitudeDegrees>-33.529712520539760589599609375</LatitudeDegrees>
              <LongitudeDegrees>-70.22407201118767261505126953125</LongitudeDegrees>
            </Position>
            <AltitudeMeters>1675.4000244140625</AltitudeMeters>
            <DistanceMeters>7000.6037819282</DistanceMeters>
          </Trackpoint>
          <Trackpoint>
            <Time>2019-08-04T18:44:50.000Z</Time>
            <Position>
              <LatitudeDegrees>-33.52968729101121425628662109375</LatitudeDegrees>
              <LongitudeDegrees>-70.22403446026146411895751953125</LongitudeDegrees>
            </Position>
            <AltitudeMeters>1674.800048828125</AltitudeMeters>
            <DistanceMeters>7005.0781175746</DistanceMeters>
          </Trackpoint>
          <Trackpoint>
            <Time>2019-08-04T18:44:54.000Z</Time>
            <Position>
              <LatitudeDegrees>-33.5296766459941864013671875</LatitudeDegrees>
              <LongitudeDegrees>-70.2240087278187274932861328125</LongitudeDegrees>
            </Position>
            <AltitudeMeters>1673.800048828125</AltitudeMeters>
            <DistanceMeters>7007.7422572265</DistanceMeters>
          </Trackpoint>
          <Trackpoint>
            <Time>2019-08-04T18:44:55.000Z</Time>
            <Position>
              <LatitudeDegrees>-33.52967371232807636260986328125</LatitudeDegrees>
              <LongitudeDegrees>-70.2239991724491119384765625</LongitudeDegrees>
            </Position>
            <AltitudeMeters>1673.4000244140625</AltitudeMeters>
            <DistanceMeters>7008.6877610964</DistanceMeters>
          </Trackpoint>
          <Trackpoint>
            <Time>2019-08-04T18:44:59.000Z</Time>
            <Position>
              <LatitudeDegrees>-33.52966952137649059295654296875</LatitudeDegrees>
              <LongitudeDegrees>-70.22397704422473907470703125</LongitudeDegrees>
            </Position>
            <AltitudeMeters>1672.4000244140625</AltitudeMeters>
            <DistanceMeters>7010.795555586</DistanceMeters>
          </Trackpoint>
          <Trackpoint>
            <Time>2019-08-04T18:45:02.000Z</Time>
            <Position>
              <LatitudeDegrees>-33.52965175174176692962646484375</LatitudeDegrees>
              <LongitudeDegrees>-70.22395214997231960296630859375</LongitudeDegrees>
            </Position>
            <AltitudeMeters>1672</AltitudeMeters>
            <DistanceMeters>7013.8364104458</DistanceMeters>
          </Trackpoint>
          <Trackpoint>
            <Time>2019-08-04T18:45:05.000Z</Time>
            <Position>
              <LatitudeDegrees>-33.52963037788867950439453125</LatitudeDegrees>
              <LongitudeDegrees>-70.22394091822206974029541015625</LongitudeDegrees>
            </Position>
            <AltitudeMeters>1671.199951171875</AltitudeMeters>
            <DistanceMeters>7016.4318751493</DistanceMeters>
          </Trackpoint>
          <Trackpoint>
            <Time>2019-08-04T18:45:07.000Z</Time>
            <Position>
              <LatitudeDegrees>-33.5296171344816684722900390625</LatitudeDegrees>
              <LongitudeDegrees>-70.2239322848618030548095703125</LongitudeDegrees>
            </Position>
            <AltitudeMeters>1670.800048828125</AltitudeMeters>
            <DistanceMeters>7018.1103815838</DistanceMeters>
          </Trackpoint>
          <Trackpoint>
            <Time>2019-08-04T18:45:09.000Z</Time>
            <Position>
              <LatitudeDegrees>-33.52960699237883090972900390625</LatitudeDegrees>
              <LongitudeDegrees>-70.22392197512090206146240234375</LongitudeDegrees>
            </Position>
            <AltitudeMeters>1670.199951171875</AltitudeMeters>
            <DistanceMeters>7019.5917014601</DistanceMeters>
          </Trackpoint>
          <Trackpoint>
            <Time>2019-08-04T18:45:10.000Z</Time>
            <Position>
              <LatitudeDegrees>-33.5295988619327545166015625</LatitudeDegrees>
              <LongitudeDegrees>-70.223919712007045745849609375</LongitudeDegrees>
            </Position>
            <AltitudeMeters>1670</AltitudeMeters>
            <DistanceMeters>7020.5227693086</DistanceMeters>
          </Trackpoint>
          <Trackpoint>
            <Time>2019-08-04T18:45:12.000Z</Time>
            <Position>
              <LatitudeDegrees>-33.52958318777382373809814453125</LatitudeDegrees>
              <LongitudeDegrees>-70.22391535341739654541015625</LongitudeDegrees>
            </Position>
            <AltitudeMeters>1669.5999755859375</AltitudeMeters>
            <DistanceMeters>7022.3132097957</DistanceMeters>
          </Trackpoint>
          <Trackpoint>
            <Time>2019-08-04T18:45:16.000Z</Time>
            <Position>
              <LatitudeDegrees>-33.5295639932155609130859375</LatitudeDegrees>
              <LongitudeDegrees>-70.22388358600437641143798828125</LongitudeDegrees>
            </Position>
            <AltitudeMeters>1669</AltitudeMeters>
            <DistanceMeters>7025.9528694148</DistanceMeters>
          </Trackpoint>
          <Trackpoint>
            <Time>2019-08-04T18:45:19.000Z</Time>
            <Position>
              <LatitudeDegrees>-33.529546558856964111328125</LatitudeDegrees>
              <LongitudeDegrees>-70.22385508753359317779541015625</LongitudeDegrees>
            </Position>
            <AltitudeMeters>1667.800048828125</AltitudeMeters>
            <DistanceMeters>7029.232323797</DistanceMeters>
          </Trackpoint>
          <Trackpoint>
            <Time>2019-08-04T18:45:23.000Z</Time>
            <Position>
              <LatitudeDegrees>-33.5295118577778339385986328125</LatitudeDegrees>
              <LongitudeDegrees>-70.2238243259489536285400390625</LongitudeDegrees>
            </Position>
            <AltitudeMeters>1667</AltitudeMeters>
            <DistanceMeters>7034.0346997962</DistanceMeters>
          </Trackpoint>
          <Trackpoint>
            <Time>2019-08-04T18:45:24.000Z</Time>
            <Position>
              <LatitudeDegrees>-33.52950473316013813018798828125</LatitudeDegrees>
              <LongitudeDegrees>-70.22381477057933807373046875</LongitudeDegrees>
            </Position>
            <AltitudeMeters>1666.800048828125</AltitudeMeters>
            <DistanceMeters>7035.2215830783</DistanceMeters>
          </Trackpoint>
          <Trackpoint>
            <Time>2019-08-04T18:45:29.000Z</Time>
            <Position>
              <LatitudeDegrees>-33.52947271429002285003662109375</LatitudeDegrees>
              <LongitudeDegrees>-70.2237827517092227935791015625</LongitudeDegrees>
            </Position>
            <AltitudeMeters>1665.800048828125</AltitudeMeters>
            <DistanceMeters>7039.861378574</DistanceMeters>
          </Trackpoint>
          <Trackpoint>
            <Time>2019-08-04T18:45:34.000Z</Time>
            <Position>
              <LatitudeDegrees>-33.52944270707666873931884765625</LatitudeDegrees>
              <LongitudeDegrees>-70.2237604558467864990234375</LongitudeDegrees>
            </Position>
            <AltitudeMeters>1664.4000244140625</AltitudeMeters>
            <DistanceMeters>7043.7897880031</DistanceMeters>
          </Trackpoint>
          <Trackpoint>
            <Time>2019-08-04T18:45:36.000Z</Time>
            <Position>
              <LatitudeDegrees>-33.5294270329177379608154296875</LatitudeDegrees>
              <LongitudeDegrees>-70.22374595515429973602294921875</LongitudeDegrees>
            </Position>
            <AltitudeMeters>1664.199951171875</AltitudeMeters>
            <DistanceMeters>7045.9918668052</DistanceMeters>
          </Trackpoint>
          <Trackpoint>
            <Time>2019-08-04T18:45:40.000Z</Time>
            <Position>
              <LatitudeDegrees>-33.52939903736114501953125</LatitudeDegrees>
              <LongitudeDegrees>-70.22371142171323299407958984375</LongitudeDegrees>
            </Position>
            <AltitudeMeters>1663.199951171875</AltitudeMeters>
            <DistanceMeters>7050.4621642416</DistanceMeters>
          </Trackpoint>
          <Trackpoint>
            <Time>2019-08-04T18:45:45.000Z</Time>
            <Position>
              <LatitudeDegrees>-33.52936006151139736175537109375</LatitudeDegrees>
              <LongitudeDegrees>-70.22367822937667369842529296875</LongitudeDegrees>
            </Position>
            <AltitudeMeters>1662.199951171875</AltitudeMeters>
            <DistanceMeters>7055.7819630701</DistanceMeters>
          </Trackpoint>
          <Trackpoint>
            <Time>2019-08-04T18:45:46.000Z</Time>
            <Position>
              <LatitudeDegrees>-33.52935134433209896087646484375</LatitudeDegrees>
              <LongitudeDegrees>-70.22367236204445362091064453125</LongitudeDegrees>
            </Position>
            <AltitudeMeters>1662</AltitudeMeters>
            <DistanceMeters>7056.8982742047</DistanceMeters>
          </Trackpoint>
          <Trackpoint>
            <Time>2019-08-04T18:45:52.000Z</Time>
            <Position>
              <LatitudeDegrees>-33.52930323220789432525634765625</LatitudeDegrees>
              <LongitudeDegrees>-70.22366951219737529754638671875</LongitudeDegrees>
            </Position>
            <AltitudeMeters>1660.800048828125</AltitudeMeters>
            <DistanceMeters>7062.2603412873</DistanceMeters>
          </Trackpoint>
          <Trackpoint>
            <Time>2019-08-04T18:45:57.000Z</Time>
            <Position>
              <LatitudeDegrees>-33.5292714647948741912841796875</LatitudeDegrees>
              <LongitudeDegrees>-70.2236885391175746917724609375</LongitudeDegrees>
            </Position>
            <AltitudeMeters>1660</AltitudeMeters>
            <DistanceMeters>7066.2128129504</DistanceMeters>
          </Trackpoint>
          <Trackpoint>
            <Time>2019-08-04T18:45:59.000Z</Time>
            <Position>
              <LatitudeDegrees>-33.52925595827400684356689453125</LatitudeDegrees>
              <LongitudeDegrees>-70.2236959151923656463623046875</LongitudeDegrees>
            </Position>
            <AltitudeMeters>1659.800048828125</AltitudeMeters>
            <DistanceMeters>7068.0700930051</DistanceMeters>
          </Trackpoint>
          <Trackpoint>
            <Time>2019-08-04T18:46:03.000Z</Time>
            <Position>
              <LatitudeDegrees>-33.52922611869871616363525390625</LatitudeDegrees>
              <LongitudeDegrees>-70.22372114472091197967529296875</LongitudeDegrees>
            </Position>
            <AltitudeMeters>1658.5999755859375</AltitudeMeters>
            <DistanceMeters>7072.1329712631</DistanceMeters>
          </Trackpoint>
          <Trackpoint>
            <Time>2019-08-04T18:46:06.000Z</Time>
            <Position>
              <LatitudeDegrees>-33.52920264936983585357666015625</LatitudeDegrees>
              <LongitudeDegrees>-70.223745368421077728271484375</LongitudeDegrees>
            </Position>
            <AltitudeMeters>1657.800048828125</AltitudeMeters>
            <DistanceMeters>7075.5789182337</DistanceMeters>
          </Trackpoint>
          <Trackpoint>
            <Time>2019-08-04T18:46:07.000Z</Time>
            <Position>
              <LatitudeDegrees>-33.5291769169270992279052734375</LatitudeDegrees>
              <LongitudeDegrees>-70.22375483997166156768798828125</LongitudeDegrees>
            </Position>
            <AltitudeMeters>1657.5999755859375</AltitudeMeters>
            <DistanceMeters>7078.5748982045</DistanceMeters>
          </Trackpoint>
          <Trackpoint>
            <Time>2019-08-04T18:46:10.000Z</Time>
            <Position>
              <LatitudeDegrees>-33.529149591922760009765625</LatitudeDegrees>
              <LongitudeDegrees>-70.22375685162842273712158203125</LongitudeDegrees>
            </Position>
            <AltitudeMeters>1657</AltitudeMeters>
            <DistanceMeters>7081.6216864453</DistanceMeters>
          </Trackpoint>
          <Trackpoint>
            <Time>2019-08-04T18:46:12.000Z</Time>
            <Position>
              <LatitudeDegrees>-33.52912905625998973846435546875</LatitudeDegrees>
              <LongitudeDegrees>-70.22374612279236316680908203125</LongitudeDegrees>
            </Position>
            <AltitudeMeters>1656.800048828125</AltitudeMeters>
            <DistanceMeters>7084.1142137959</DistanceMeters>
          </Trackpoint>
          <Trackpoint>
            <Time>2019-08-04T18:46:14.000Z</Time>
            <Position>
              <LatitudeDegrees>-33.52911137044429779052734375</LatitudeDegrees>
              <LongitudeDegrees>-70.223732627928256988525390625</LongitudeDegrees>
            </Position>
            <AltitudeMeters>1656.199951171875</AltitudeMeters>
            <DistanceMeters>7086.4457596391</DistanceMeters>
          </Trackpoint>
          <Trackpoint>
            <Time>2019-08-04T18:46:16.000Z</Time>
            <Position>
              <LatitudeDegrees>-33.5290927626192569732666015625</LatitudeDegrees>
              <LongitudeDegrees>-70.2237229049205780029296875</LongitudeDegrees>
            </Position>
            <AltitudeMeters>1654.800048828125</AltitudeMeters>
            <DistanceMeters>7088.7025190668</DistanceMeters>
          </Trackpoint>
          <Trackpoint>
            <Time>2019-08-04T18:46:17.000Z</Time>
            <Position>
              <LatitudeDegrees>-33.5290823690593242645263671875</LatitudeDegrees>
              <LongitudeDegrees>-70.22371686995029449462890625</LongitudeDegrees>
            </Position>
            <AltitudeMeters>1654.4000244140625</AltitudeMeters>
            <DistanceMeters>7089.9915241349</DistanceMeters>
          </Trackpoint>
          <Trackpoint>
            <Time>2019-08-04T18:46:18.000Z</Time>
            <Position>
              <LatitudeDegrees>-33.52907323278486728668212890625</LatitudeDegrees>
              <LongitudeDegrees>-70.223710499703884124755859375</LongitudeDegrees>
            </Position>
            <AltitudeMeters>1654</AltitudeMeters>
            <DistanceMeters>7091.1707746479</DistanceMeters>
          </Trackpoint>
          <Trackpoint>
            <Time>2019-08-04T18:46:20.000Z</Time>
            <Position>
              <LatitudeDegrees>-33.52905462495982646942138671875</LatitudeDegrees>
              <LongitudeDegrees>-70.22370345890522003173828125</LongitudeDegrees>
            </Position>
            <AltitudeMeters>1653.800048828125</AltitudeMeters>
            <DistanceMeters>7093.3418803348</DistanceMeters>
          </Trackpoint>
          <Trackpoint>
            <Time>2019-08-04T18:46:23.000Z</Time>
            <Position>
              <LatitudeDegrees>-33.5290367715060710906982421875</LatitudeDegrees>
              <LongitudeDegrees>-70.2237126789987087249755859375</LongitudeDegrees>
            </Position>
            <AltitudeMeters>1653.4000244140625</AltitudeMeters>
            <DistanceMeters>7095.5067382227</DistanceMeters>
          </Trackpoint>
          <Trackpoint>
            <Time>2019-08-04T18:46:27.000Z</Time>
            <Position>
              <LatitudeDegrees>-33.529004752635955810546875</LatitudeDegrees>
              <LongitudeDegrees>-70.22371477447450160980224609375</LongitudeDegrees>
            </Position>
            <AltitudeMeters>1652.800048828125</AltitudeMeters>
            <DistanceMeters>7099.0775179609</DistanceMeters>
          </Trackpoint>
          <Trackpoint>
            <Time>2019-08-04T18:46:28.000Z</Time>
            <Position>
              <LatitudeDegrees>-33.52899762801826000213623046875</LatitudeDegrees>
              <LongitudeDegrees>-70.22371946834027767181396484375</LongitudeDegrees>
            </Position>
            <AltitudeMeters>1652.5999755859375</AltitudeMeters>
            <DistanceMeters>7099.9840150411</DistanceMeters>
          </Trackpoint>
          <Trackpoint>
            <Time>2019-08-04T18:46:33.000Z</Time>
            <Position>
              <LatitudeDegrees>-33.52897264994680881500244140625</LatitudeDegrees>
              <LongitudeDegrees>-70.22374696098268032073974609375</LongitudeDegrees>
            </Position>
            <AltitudeMeters>1651.4000244140625</AltitudeMeters>
            <DistanceMeters>7103.7576645415</DistanceMeters>
          </Trackpoint>
          <Trackpoint>
            <Time>2019-08-04T18:46:37.000Z</Time>
            <Position>
              <LatitudeDegrees>-33.52896393276751041412353515625</LatitudeDegrees>
              <LongitudeDegrees>-70.22378861904144287109375</LongitudeDegrees>
            </Position>
            <AltitudeMeters>1650.5999755859375</AltitudeMeters>
            <DistanceMeters>7107.7442588952</DistanceMeters>
          </Trackpoint>
          <Trackpoint>
            <Time>2019-08-04T18:46:38.000Z</Time>
            <Position>
              <LatitudeDegrees>-33.52896460331976413726806640625</LatitudeDegrees>
              <LongitudeDegrees>-70.2238015271723270416259765625</LongitudeDegrees>
            </Position>
            <AltitudeMeters>1650.4000244140625</AltitudeMeters>
            <DistanceMeters>7108.9462623191</DistanceMeters>
          </Trackpoint>
          <Trackpoint>
            <Time>2019-08-04T18:46:39.000Z</Time>
            <Position>
              <LatitudeDegrees>-33.528969548642635345458984375</LatitudeDegrees>
              <LongitudeDegrees>-70.22381116636097431182861328125</LongitudeDegrees>
            </Position>
            <AltitudeMeters>1650</AltitudeMeters>
            <DistanceMeters>7109.9958666856</DistanceMeters>
          </Trackpoint>
          <Trackpoint>
            <Time>2019-08-04T18:46:43.000Z</Time>
            <Position>
              <LatitudeDegrees>-33.5289656929671764373779296875</LatitudeDegrees>
              <LongitudeDegrees>-70.2238489687442779541015625</LongitudeDegrees>
            </Position>
            <AltitudeMeters>1649.199951171875</AltitudeMeters>
            <DistanceMeters>7113.5285095554</DistanceMeters>
          </Trackpoint>
          <Trackpoint>
            <Time>2019-08-04T18:46:45.000Z</Time>
            <Position>
              <LatitudeDegrees>-33.528964519500732421875</LatitudeDegrees>
              <LongitudeDegrees>-70.22387914359569549560546875</LongitudeDegrees>
            </Position>
            <AltitudeMeters>1649</AltitudeMeters>
            <DistanceMeters>7116.3313949449</DistanceMeters>
          </Trackpoint>
          <Trackpoint>
            <Time>2019-08-04T18:46:47.000Z</Time>
            <Position>
              <LatitudeDegrees>-33.52895940653979778289794921875</LatitudeDegrees>
              <LongitudeDegrees>-70.2239071391522884368896484375</LongitudeDegrees>
            </Position>
            <AltitudeMeters>1648.4000244140625</AltitudeMeters>
            <DistanceMeters>7118.9904455001</DistanceMeters>
          </Trackpoint>
          <Trackpoint>
            <Time>2019-08-04T18:46:49.000Z</Time>
            <Position>
              <LatitudeDegrees>-33.52896041236817836761474609375</LatitudeDegrees>
              <LongitudeDegrees>-70.22392968647181987762451171875</LongitudeDegrees>
            </Position>
            <AltitudeMeters>1647.800048828125</AltitudeMeters>
            <DistanceMeters>7121.0853481594</DistanceMeters>
          </Trackpoint>
          <Trackpoint>
            <Time>2019-08-04T18:46:51.000Z</Time>
            <Position>
              <LatitudeDegrees>-33.528961502015590667724609375</LatitudeDegrees>
              <LongitudeDegrees>-70.22394795902073383331298828125</LongitudeDegrees>
            </Position>
            <AltitudeMeters>1647.5999755859375</AltitudeMeters>
            <DistanceMeters>7122.7878917091</DistanceMeters>
          </Trackpoint>
          <Trackpoint>
            <Time>2019-08-04T18:46:54.000Z</Time>
            <Position>
              <LatitudeDegrees>-33.5289449058473110198974609375</LatitudeDegrees>
              <LongitudeDegrees>-70.2239644713699817657470703125</LongitudeDegrees>
            </Position>
            <AltitudeMeters>1646.5999755859375</AltitudeMeters>
            <DistanceMeters>7125.1900196923</DistanceMeters>
          </Trackpoint>
          <Trackpoint>
            <Time>2019-08-04T18:46:55.000Z</Time>
            <Position>
              <LatitudeDegrees>-33.52893023751676082611083984375</LatitudeDegrees>
              <LongitudeDegrees>-70.223961956799030303955078125</LongitudeDegrees>
            </Position>
            <AltitudeMeters>1646.4000244140625</AltitudeMeters>
            <DistanceMeters>7126.8414079222</DistanceMeters>
          </Trackpoint>
          <Trackpoint>
            <Time>2019-08-04T18:46:57.000Z</Time>
            <Position>
              <LatitudeDegrees>-33.52891531772911548614501953125</LatitudeDegrees>
              <LongitudeDegrees>-70.2239644713699817657470703125</LongitudeDegrees>
            </Position>
            <AltitudeMeters>1646</AltitudeMeters>
            <DistanceMeters>7128.5172222837</DistanceMeters>
          </Trackpoint>
          <Trackpoint>
            <Time>2019-08-04T18:46:59.000Z</Time>
            <Position>
              <LatitudeDegrees>-33.5289043374359607696533203125</LatitudeDegrees>
              <LongitudeDegrees>-70.22396639920771121978759765625</LongitudeDegrees>
            </Position>
            <AltitudeMeters>1645.5999755859375</AltitudeMeters>
            <DistanceMeters>7129.7489092742</DistanceMeters>
          </Trackpoint>
          <Trackpoint>
            <Time>2019-08-04T18:47:00.000Z</Time>
            <Position>
              <LatitudeDegrees>-33.52889788337051868438720703125</LatitudeDegrees>
              <LongitudeDegrees>-70.22396908141672611236572265625</LongitudeDegrees>
            </Position>
            <AltitudeMeters>1645.4000244140625</AltitudeMeters>
            <DistanceMeters>7130.5091229892</DistanceMeters>
          </Trackpoint>
          <Trackpoint>
            <Time>2019-08-04T18:47:03.000Z</Time>
            <Position>
              <LatitudeDegrees>-33.5288775153458118438720703125</LatitudeDegrees>
              <LongitudeDegrees>-70.2239671535789966583251953125</LongitudeDegrees>
            </Position>
            <AltitudeMeters>1644.4000244140625</AltitudeMeters>
            <DistanceMeters>7132.7818314452</DistanceMeters>
          </Trackpoint>
          <Trackpoint>
            <Time>2019-08-04T18:47:05.000Z</Time>
            <Position>
              <LatitudeDegrees>-33.52886485867202281951904296875</LatitudeDegrees>
              <LongitudeDegrees>-70.22397394292056560516357421875</LongitudeDegrees>
            </Position>
            <AltitudeMeters>1643.5999755859375</AltitudeMeters>
            <DistanceMeters>7134.3229057798</DistanceMeters>
          </Trackpoint>
          <Trackpoint>
            <Time>2019-08-04T18:47:07.000Z</Time>
            <Position>
              <LatitudeDegrees>-33.52885480038821697235107421875</LatitudeDegrees>
              <LongitudeDegrees>-70.22396874614059925079345703125</LongitudeDegrees>
            </Position>
            <AltitudeMeters>1643.199951171875</AltitudeMeters>
            <DistanceMeters>7135.5398414957</DistanceMeters>
          </Trackpoint>
          <Trackpoint>
            <Time>2019-08-04T18:47:10.000Z</Time>
            <Position>
              <LatitudeDegrees>-33.52883242070674896240234375</LatitudeDegrees>
              <LongitudeDegrees>-70.2239752002060413360595703125</LongitudeDegrees>
            </Position>
            <AltitudeMeters>1642.5999755859375</AltitudeMeters>
            <DistanceMeters>7138.1020408585</DistanceMeters>
          </Trackpoint>
          <Trackpoint>
            <Time>2019-08-04T18:47:12.000Z</Time>
            <Position>
              <LatitudeDegrees>-33.5288158245384693145751953125</LatitudeDegrees>
              <LongitudeDegrees>-70.22399188019335269927978515625</LongitudeDegrees>
            </Position>
            <AltitudeMeters>1641.800048828125</AltitudeMeters>
            <DistanceMeters>7140.51167551</DistanceMeters>
          </Trackpoint>
          <Trackpoint>
            <Time>2019-08-04T18:47:15.000Z</Time>
            <Position>
              <LatitudeDegrees>-33.52881004102528095245361328125</LatitudeDegrees>
              <LongitudeDegrees>-70.224006883800029754638671875</LongitudeDegrees>
            </Position>
            <AltitudeMeters>1640.800048828125</AltitudeMeters>
            <DistanceMeters>7142.0439352384</DistanceMeters>
          </Trackpoint>
          <Trackpoint>
            <Time>2019-08-04T18:47:17.000Z</Time>
            <Position>
              <LatitudeDegrees>-33.52880568243563175201416015625</LatitudeDegrees>
              <LongitudeDegrees>-70.22401995956897735595703125</LongitudeDegrees>
            </Position>
            <AltitudeMeters>1640.4000244140625</AltitudeMeters>
            <DistanceMeters>7143.3468759015</DistanceMeters>
          </Trackpoint>
          <Trackpoint>
            <Time>2019-08-04T18:47:19.000Z</Time>
            <Position>
              <LatitudeDegrees>-33.5288024134933948516845703125</LatitudeDegrees>
              <LongitudeDegrees>-70.2240389026701450347900390625</LongitudeDegrees>
            </Position>
            <AltitudeMeters>1640.199951171875</AltitudeMeters>
            <DistanceMeters>7145.1398363623</DistanceMeters>
          </Trackpoint>
          <Trackpoint>
            <Time>2019-08-04T18:47:21.000Z</Time>
            <Position>
              <LatitudeDegrees>-33.5287997312843799591064453125</LatitudeDegrees>
              <LongitudeDegrees>-70.22406689822673797607421875</LongitudeDegrees>
            </Position>
            <AltitudeMeters>1639</AltitudeMeters>
            <DistanceMeters>7147.7526390322</DistanceMeters>
          </Trackpoint>
          <Trackpoint>
            <Time>2019-08-04T18:47:28.000Z</Time>
            <Position>
              <LatitudeDegrees>-33.52879847399890422821044921875</LatitudeDegrees>
              <LongitudeDegrees>-70.22415583021938800811767578125</LongitudeDegrees>
            </Position>
            <AltitudeMeters>1638</AltitudeMeters>
            <DistanceMeters>7156.0052044842</DistanceMeters>
          </Trackpoint>
          <Trackpoint>
            <Time>2019-08-04T18:47:30.000Z</Time>
            <Position>
              <LatitudeDegrees>-33.52880517952144145965576171875</LatitudeDegrees>
              <LongitudeDegrees>-70.22418357431888580322265625</LongitudeDegrees>
            </Position>
            <AltitudeMeters>1637.4000244140625</AltitudeMeters>
            <DistanceMeters>7158.6862380255</DistanceMeters>
          </Trackpoint>
          <Trackpoint>
            <Time>2019-08-04T18:47:31.000Z</Time>
            <Position>
              <LatitudeDegrees>-33.52880702354013919830322265625</LatitudeDegrees>
              <LongitudeDegrees>-70.2241964824497699737548828125</LongitudeDegrees>
            </Position>
            <AltitudeMeters>1637.199951171875</AltitudeMeters>
            <DistanceMeters>7159.9031737415</DistanceMeters>
          </Trackpoint>
          <Trackpoint>
            <Time>2019-08-04T18:47:32.000Z</Time>
            <Position>
              <LatitudeDegrees>-33.52880802936851978302001953125</LatitudeDegrees>
              <LongitudeDegrees>-70.22421173751354217529296875</LongitudeDegrees>
            </Position>
            <AltitudeMeters>1637</AltitudeMeters>
            <DistanceMeters>7161.3254033725</DistanceMeters>
          </Trackpoint>
          <Trackpoint>
            <Time>2019-08-04T18:47:35.000Z</Time>
            <Position>
              <LatitudeDegrees>-33.52881624363362789154052734375</LatitudeDegrees>
              <LongitudeDegrees>-70.2242528088390827178955078125</LongitudeDegrees>
            </Position>
            <AltitudeMeters>1636.5999755859375</AltitudeMeters>
            <DistanceMeters>7165.2446073773</DistanceMeters>
          </Trackpoint>
          <Trackpoint>
            <Time>2019-08-04T18:47:37.000Z</Time>
            <Position>
              <LatitudeDegrees>-33.5288210213184356689453125</LatitudeDegrees>
              <LongitudeDegrees>-70.22428013384342193603515625</LongitudeDegrees>
            </Position>
            <AltitudeMeters>1636.199951171875</AltitudeMeters>
            <DistanceMeters>7167.8365905706</DistanceMeters>
          </Trackpoint>
          <Trackpoint>
            <Time>2019-08-04T18:47:38.000Z</Time>
            <Position>
              <LatitudeDegrees>-33.52882496081292629241943359375</LatitudeDegrees>
              <LongitudeDegrees>-70.224291868507862091064453125</LongitudeDegrees>
            </Position>
            <AltitudeMeters>1636</AltitudeMeters>
            <DistanceMeters>7169.0158410836</DistanceMeters>
          </Trackpoint>
          <Trackpoint>
            <Time>2019-08-04T18:47:43.000Z</Time>
            <Position>
              <LatitudeDegrees>-33.52884725667536258697509765625</LatitudeDegrees>
              <LongitudeDegrees>-70.22437191568315029144287109375</LongitudeDegrees>
            </Position>
            <AltitudeMeters>1635.199951171875</AltitudeMeters>
            <DistanceMeters>7176.8467573218</DistanceMeters>
          </Trackpoint>
          <Trackpoint>
            <Time>2019-08-04T18:47:45.000Z</Time>
            <Position>
              <LatitudeDegrees>-33.5288563929498195648193359375</LatitudeDegrees>
              <LongitudeDegrees>-70.22440862841904163360595703125</LongitudeDegrees>
            </Position>
            <AltitudeMeters>1634.800048828125</AltitudeMeters>
            <DistanceMeters>7180.4023313995</DistanceMeters>
          </Trackpoint>
          <Trackpoint>
            <Time>2019-08-04T18:47:50.000Z</Time>
            <Position>
              <LatitudeDegrees>-33.52886653505265712738037109375</LatitudeDegrees>
              <LongitudeDegrees>-70.2244821377098560333251953125</LongitudeDegrees>
            </Position>
            <AltitudeMeters>1633.800048828125</AltitudeMeters>
            <DistanceMeters>7187.3151574888</DistanceMeters>
          </Trackpoint>
          <Trackpoint>
            <Time>2019-08-04T18:47:51.000Z</Time>
            <Position>
              <LatitudeDegrees>-33.52887139655649662017822265625</LatitudeDegrees>
              <LongitudeDegrees>-70.22449563257396221160888671875</LongitudeDegrees>
            </Position>
            <AltitudeMeters>1633.5999755859375</AltitudeMeters>
            <DistanceMeters>7188.6790474211</DistanceMeters>
          </Trackpoint>
          <Trackpoint>
            <Time>2019-08-04T18:47:54.000Z</Time>
            <Position>
              <LatitudeDegrees>-33.528884388506412506103515625</LatitudeDegrees>
              <LongitudeDegrees>-70.22453268058598041534423828125</LongitudeDegrees>
            </Position>
            <AltitudeMeters>1633</AltitudeMeters>
            <DistanceMeters>7192.4081649741</DistanceMeters>
          </Trackpoint>
          <Trackpoint>
            <Time>2019-08-04T18:47:57.000Z</Time>
            <Position>
              <LatitudeDegrees>-33.52888011373579502105712890625</LatitudeDegrees>
              <LongitudeDegrees>-70.22457391954958438873291015625</LongitudeDegrees>
            </Position>
            <AltitudeMeters>1632.5999755859375</AltitudeMeters>
            <DistanceMeters>7196.2634867281</DistanceMeters>
          </Trackpoint>
          <Trackpoint>
            <Time>2019-08-04T18:47:58.000Z</Time>
            <Position>
              <LatitudeDegrees>-33.52888028137385845184326171875</LatitudeDegrees>
              <LongitudeDegrees>-70.22458590567111968994140625</LongitudeDegrees>
            </Position>
            <AltitudeMeters>1632.5999755859375</AltitudeMeters>
            <DistanceMeters>7197.3757459033</DistanceMeters>
          </Trackpoint>
          <Trackpoint>
            <Time>2019-08-04T18:48:06.000Z</Time>
            <Position>
              <LatitudeDegrees>-33.5288718156516551971435546875</LatitudeDegrees>
              <LongitudeDegrees>-70.22469109855592250823974609375</LongitudeDegrees>
            </Position>
            <AltitudeMeters>1631.5999755859375</AltitudeMeters>
            <DistanceMeters>7207.1814714743</DistanceMeters>
          </Trackpoint>
          <Trackpoint>
            <Time>2019-08-04T18:48:07.000Z</Time>
            <Position>
              <LatitudeDegrees>-33.5288708098232746124267578125</LatitudeDegrees>
              <LongitudeDegrees>-70.22470249794423580169677734375</LongitudeDegrees>
            </Position>
            <AltitudeMeters>1631.199951171875</AltitudeMeters>
            <DistanceMeters>7208.2481436976</DistanceMeters>
          </Trackpoint>
          <Trackpoint>
            <Time>2019-08-04T18:48:09.000Z</Time>
            <Position>
              <LatitudeDegrees>-33.5288664512336254119873046875</LatitudeDegrees>
              <LongitudeDegrees>-70.22472261451184749603271484375</LongitudeDegrees>
            </Position>
            <AltitudeMeters>1630.4000244140625</AltitudeMeters>
            <DistanceMeters>7210.1746331003</DistanceMeters>
          </Trackpoint>
          <Trackpoint>
            <Time>2019-08-04T18:48:14.000Z</Time>
            <Position>
              <LatitudeDegrees>-33.52884591557085514068603515625</LatitudeDegrees>
              <LongitudeDegrees>-70.22480090148746967315673828125</LongitudeDegrees>
            </Position>
            <AltitudeMeters>1629.5999755859375</AltitudeMeters>
            <DistanceMeters>7217.7898252136</DistanceMeters>
          </Trackpoint>
          <Trackpoint>
            <Time>2019-08-04T18:48:16.000Z</Time>
            <Position>
              <LatitudeDegrees>-33.52883786894381046295166015625</LatitudeDegrees>
              <LongitudeDegrees>-70.224826969206333160400390625</LongitudeDegrees>
            </Position>
            <AltitudeMeters>1629.4000244140625</AltitudeMeters>
            <DistanceMeters>7220.369586121</DistanceMeters>
          </Trackpoint>
          <Trackpoint>
            <Time>2019-08-04T18:48:19.000Z</Time>
            <Position>
              <LatitudeDegrees>-33.52882864885032176971435546875</LatitudeDegrees>
              <LongitudeDegrees>-70.22487298585474491119384765625</LongitudeDegrees>
            </Position>
            <AltitudeMeters>1628.4000244140625</AltitudeMeters>
            <DistanceMeters>7224.761424379</DistanceMeters>
          </Trackpoint>
          <Trackpoint>
            <Time>2019-08-04T18:48:20.000Z</Time>
            <Position>
              <LatitudeDegrees>-33.52882898412644863128662109375</LatitudeDegrees>
              <LongitudeDegrees>-70.22488656453788280487060546875</LongitudeDegrees>
            </Position>
            <AltitudeMeters>1628.199951171875</AltitudeMeters>
            <DistanceMeters>7226.0256725866</DistanceMeters>
          </Trackpoint>
          <Trackpoint>
            <Time>2019-08-04T18:48:25.000Z</Time>
            <Position>
              <LatitudeDegrees>-33.5288263857364654541015625</LatitudeDegrees>
              <LongitudeDegrees>-70.22496535442769527435302734375</LongitudeDegrees>
            </Position>
            <AltitudeMeters>1627.199951171875</AltitudeMeters>
            <DistanceMeters>7233.3408781891</DistanceMeters>
          </Trackpoint>
          <Trackpoint>
            <Time>2019-08-04T18:48:31.000Z</Time>
            <Position>
              <LatitudeDegrees>-33.52881154976785182952880859375</LatitudeDegrees>
              <LongitudeDegrees>-70.2250715531408786773681640625</LongitudeDegrees>
            </Position>
            <AltitudeMeters>1626.4000244140625</AltitudeMeters>
            <DistanceMeters>7243.3317973166</DistanceMeters>
          </Trackpoint>
          <Trackpoint>
            <Time>2019-08-04T18:48:32.000Z</Time>
            <Position>
              <LatitudeDegrees>-33.52881138212978839874267578125</LatitudeDegrees>
              <LongitudeDegrees>-70.22508823312819004058837890625</LongitudeDegrees>
            </Position>
            <AltitudeMeters>1626.199951171875</AltitudeMeters>
            <DistanceMeters>7244.8757986706</DistanceMeters>
          </Trackpoint>
          <Trackpoint>
            <Time>2019-08-04T18:48:38.000Z</Time>
            <Position>
              <LatitudeDegrees>-33.52882529608905315399169921875</LatitudeDegrees>
              <LongitudeDegrees>-70.22516258060932159423828125</LongitudeDegrees>
            </Position>
            <AltitudeMeters>1625</AltitudeMeters>
            <DistanceMeters>7251.9449176426</DistanceMeters>
          </Trackpoint>
          <Trackpoint>
            <Time>2019-08-04T18:48:42.000Z</Time>
            <Position>
              <LatitudeDegrees>-33.52882496081292629241943359375</LatitudeDegrees>
              <LongitudeDegrees>-70.22521362639963626861572265625</LongitudeDegrees>
            </Position>
            <AltitudeMeters>1623.800048828125</AltitudeMeters>
            <DistanceMeters>7256.6829309436</DistanceMeters>
          </Trackpoint>
          <Trackpoint>
            <Time>2019-08-04T18:48:46.000Z</Time>
            <Position>
              <LatitudeDegrees>-33.5288047604262828826904296875</LatitudeDegrees>
              <LongitudeDegrees>-70.22524530999362468719482421875</LongitudeDegrees>
            </Position>
            <AltitudeMeters>1622.800048828125</AltitudeMeters>
            <DistanceMeters>7260.3828763336</DistanceMeters>
          </Trackpoint>
          <Trackpoint>
            <Time>2019-08-04T18:48:51.000Z</Time>
            <Position>
              <LatitudeDegrees>-33.52879093028604984283447265625</LatitudeDegrees>
              <LongitudeDegrees>-70.22529560141265392303466796875</LongitudeDegrees>
            </Position>
            <AltitudeMeters>1621.800048828125</AltitudeMeters>
            <DistanceMeters>7265.2958585577</DistanceMeters>
          </Trackpoint>
          <Trackpoint>
            <Time>2019-08-04T18:48:52.000Z</Time>
            <Position>
              <LatitudeDegrees>-33.5287936963140964508056640625</LatitudeDegrees>
              <LongitudeDegrees>-70.22530918009579181671142578125</LongitudeDegrees>
            </Position>
            <AltitudeMeters>1621.4000244140625</AltitudeMeters>
            <DistanceMeters>7266.5953293327</DistanceMeters>
          </Trackpoint>
          <Trackpoint>
            <Time>2019-08-04T18:48:54.000Z</Time>
            <Position>
              <LatitudeDegrees>-33.52879679761826992034912109375</LatitudeDegrees>
              <LongitudeDegrees>-70.22533331997692584991455078125</LongitudeDegrees>
            </Position>
            <AltitudeMeters>1620.800048828125</AltitudeMeters>
            <DistanceMeters>7268.8600773143</DistanceMeters>
          </Trackpoint>
          <Trackpoint>
            <Time>2019-08-04T18:48:55.000Z</Time>
            <Position>
              <LatitudeDegrees>-33.5287995636463165283203125</LatitudeDegrees>
              <LongitudeDegrees>-70.2253464795649051666259765625</LongitudeDegrees>
            </Position>
            <AltitudeMeters>1620.5999755859375</AltitudeMeters>
            <DistanceMeters>7270.1207491408</DistanceMeters>
          </Trackpoint>
          <Trackpoint>
            <Time>2019-08-04T18:48:58.000Z</Time>
            <Position>
              <LatitudeDegrees>-33.52880693972110748291015625</LatitudeDegrees>
              <LongitudeDegrees>-70.2253818511962890625</LongitudeDegrees>
            </Position>
            <AltitudeMeters>1619.5999755859375</AltitudeMeters>
            <DistanceMeters>7273.5032196661</DistanceMeters>
          </Trackpoint>
          <Trackpoint>
            <Time>2019-08-04T18:49:01.000Z</Time>
            <Position>
              <LatitudeDegrees>-33.52881037630140781402587890625</LatitudeDegrees>
              <LongitudeDegrees>-70.22542183287441730499267578125</LongitudeDegrees>
            </Position>
            <AltitudeMeters>1618.5999755859375</AltitudeMeters>
            <DistanceMeters>7277.232337219</DistanceMeters>
          </Trackpoint>
          <Trackpoint>
            <Time>2019-08-04T18:49:03.000Z</Time>
            <Position>
              <LatitudeDegrees>-33.52880635298788547515869140625</LatitudeDegrees>
              <LongitudeDegrees>-70.2254423685371875762939453125</LongitudeDegrees>
            </Position>
            <AltitudeMeters>1618.199951171875</AltitudeMeters>
            <DistanceMeters>7279.1890570284</DistanceMeters>
          </Trackpoint>
          <Trackpoint>
            <Time>2019-08-04T18:49:08.000Z</Time>
            <Position>
              <LatitudeDegrees>-33.52876075543463230133056640625</LatitudeDegrees>
              <LongitudeDegrees>-70.2254636585712432861328125</LongitudeDegrees>
            </Position>
            <AltitudeMeters>1617.5999755859375</AltitudeMeters>
            <DistanceMeters>7284.6346764644</DistanceMeters>
          </Trackpoint>
          <Trackpoint>
            <Time>2019-08-04T18:49:09.000Z</Time>
            <Position>
              <LatitudeDegrees>-33.5287480987608432769775390625</LatitudeDegrees>
              <LongitudeDegrees>-70.2254681847989559173583984375</LongitudeDegrees>
            </Position>
            <AltitudeMeters>1617.4000244140625</AltitudeMeters>
            <DistanceMeters>7286.1068239932</DistanceMeters>
          </Trackpoint>
          <Trackpoint>
            <Time>2019-08-04T18:49:10.000Z</Time>
            <Position>
              <LatitudeDegrees>-33.5287351906299591064453125</LatitudeDegrees>
              <LongitudeDegrees>-70.22547413595020771026611328125</LongitudeDegrees>
            </Position>
            <AltitudeMeters>1616.800048828125</AltitudeMeters>
            <DistanceMeters>7287.6478983278</DistanceMeters>
          </Trackpoint>
          <Trackpoint>
            <Time>2019-08-04T18:49:12.000Z</Time>
            <Position>
              <LatitudeDegrees>-33.528712727129459381103515625</LatitudeDegrees>
              <LongitudeDegrees>-70.22548444569110870361328125</LongitudeDegrees>
            </Position>
            <AltitudeMeters>1616.4000244140625</AltitudeMeters>
            <DistanceMeters>7290.3238749009</DistanceMeters>
          </Trackpoint>
          <Trackpoint>
            <Time>2019-08-04T18:49:18.000Z</Time>
            <Position>
              <LatitudeDegrees>-33.52864156477153301239013671875</LatitudeDegrees>
              <LongitudeDegrees>-70.22551126778125762939453125</LongitudeDegrees>
            </Position>
            <AltitudeMeters>1615.4000244140625</AltitudeMeters>
            <DistanceMeters>7298.6266216496</DistanceMeters>
          </Trackpoint>
          <Trackpoint>
            <Time>2019-08-04T18:49:21.000Z</Time>
            <Position>
              <LatitudeDegrees>-33.528600744903087615966796875</LatitudeDegrees>
              <LongitudeDegrees>-70.22551529109477996826171875</LongitudeDegrees>
            </Position>
            <AltitudeMeters>1614.5999755859375</AltitudeMeters>
            <DistanceMeters>7303.1859237864</DistanceMeters>
          </Trackpoint>
          <Trackpoint>
            <Time>2019-08-04T18:49:22.000Z</Time>
            <Position>
              <LatitudeDegrees>-33.52858842350542545318603515625</LatitudeDegrees>
              <LongitudeDegrees>-70.22551872767508029937744140625</LongitudeDegrees>
            </Position>
            <AltitudeMeters>1614.5999755859375</AltitudeMeters>
            <DistanceMeters>7304.595397737</DistanceMeters>
          </Trackpoint>
          <Trackpoint>
            <Time>2019-08-04T18:49:24.000Z</Time>
            <Position>
              <LatitudeDegrees>-33.52856579236686229705810546875</LatitudeDegrees>
              <LongitudeDegrees>-70.2255268581211566925048828125</LongitudeDegrees>
            </Position>
            <AltitudeMeters>1614.199951171875</AltitudeMeters>
            <DistanceMeters>7307.2254240784</DistanceMeters>
          </Trackpoint>
          <Trackpoint>
            <Time>2019-08-04T18:49:28.000Z</Time>
            <Position>
              <LatitudeDegrees>-33.52851768024265766143798828125</LatitudeDegrees>
              <LongitudeDegrees>-70.22554404102265834808349609375</LongitudeDegrees>
            </Position>
            <AltitudeMeters>1613.5999755859375</AltitudeMeters>
            <DistanceMeters>7312.8126393299</DistanceMeters>
          </Trackpoint>
          <Trackpoint>
            <Time>2019-08-04T18:49:32.000Z</Time>
            <Position>
              <LatitudeDegrees>-33.52847258560359477996826171875</LatitudeDegrees>
              <LongitudeDegrees>-70.22555577568709850311279296875</LongitudeDegrees>
            </Position>
            <AltitudeMeters>1613</AltitudeMeters>
            <DistanceMeters>7317.9493584549</DistanceMeters>
          </Trackpoint>
          <Trackpoint>
            <Time>2019-08-04T18:49:34.000Z</Time>
            <Position>
              <LatitudeDegrees>-33.5284513793885707855224609375</LatitudeDegrees>
              <LongitudeDegrees>-70.225568599998950958251953125</LongitudeDegrees>
            </Position>
            <AltitudeMeters>1613</AltitudeMeters>
            <DistanceMeters>7320.5930829427</DistanceMeters>
          </Trackpoint>
          <Trackpoint>
            <Time>2019-08-04T18:49:45.000Z</Time>
            <Position>
              <LatitudeDegrees>-33.52831148542463779449462890625</LatitudeDegrees>
              <LongitudeDegrees>-70.22562920115888118743896484375</LongitudeDegrees>
            </Position>
            <AltitudeMeters>1612.4000244140625</AltitudeMeters>
            <DistanceMeters>7337.147925741</DistanceMeters>
          </Trackpoint>
          <Trackpoint>
            <Time>2019-08-04T18:49:49.000Z</Time>
            <Position>
              <LatitudeDegrees>-33.5282525606453418731689453125</LatitudeDegrees>
              <LongitudeDegrees>-70.2256482280790805816650390625</LongitudeDegrees>
            </Position>
            <AltitudeMeters>1612</AltitudeMeters>
            <DistanceMeters>7343.9395110107</DistanceMeters>
          </Trackpoint>
          <Trackpoint>
            <Time>2019-08-04T18:49:51.000Z</Time>
            <Position>
              <LatitudeDegrees>-33.52822012268006801605224609375</LatitudeDegrees>
              <LongitudeDegrees>-70.2256599627435207366943359375</LongitudeDegrees>
            </Position>
            <AltitudeMeters>1612</AltitudeMeters>
            <DistanceMeters>7347.7107668226</DistanceMeters>
          </Trackpoint>
          <Trackpoint>
            <Time>2019-08-04T18:49:52.000Z</Time>
            <Position>
              <LatitudeDegrees>-33.5282041132450103759765625</LatitudeDegrees>
              <LongitudeDegrees>-70.2256653271615505218505859375</LongitudeDegrees>
            </Position>
            <AltitudeMeters>1611.800048828125</AltitudeMeters>
            <DistanceMeters>7349.5607395176</DistanceMeters>
          </Trackpoint>
          <Trackpoint>
            <Time>2019-08-04T18:49:55.000Z</Time>
            <Position>
              <LatitudeDegrees>-33.5281526483595371246337890625</LatitudeDegrees>
              <LongitudeDegrees>-70.22567228414118289947509765625</LongitudeDegrees>
            </Position>
            <AltitudeMeters>1611.800048828125</AltitudeMeters>
            <DistanceMeters>7355.3245621413</DistanceMeters>
          </Trackpoint>
          <Trackpoint>
            <Time>2019-08-04T18:50:00.000Z</Time>
            <Position>
              <LatitudeDegrees>-33.52808400057256221771240234375</LatitudeDegrees>
              <LongitudeDegrees>-70.22568024694919586181640625</LongitudeDegrees>
            </Position>
            <AltitudeMeters>1611.800048828125</AltitudeMeters>
            <DistanceMeters>7363.0005799108</DistanceMeters>
          </Trackpoint>
          <Trackpoint>
            <Time>2019-08-04T18:50:07.000Z</Time>
            <Position>
              <LatitudeDegrees>-33.5279890336096286773681640625</LatitudeDegrees>
              <LongitudeDegrees>-70.22570841014385223388671875</LongitudeDegrees>
            </Position>
            <AltitudeMeters>1611.800048828125</AltitudeMeters>
            <DistanceMeters>7373.8885018225</DistanceMeters>
          </Trackpoint>
          <Trackpoint>
            <Time>2019-08-04T18:50:09.000Z</Time>
            <Position>
              <LatitudeDegrees>-33.527963720262050628662109375</LatitudeDegrees>
              <LongitudeDegrees>-70.22571184672415256500244140625</LongitudeDegrees>
            </Position>
            <AltitudeMeters>1612</AltitudeMeters>
            <DistanceMeters>7376.7234212279</DistanceMeters>
          </Trackpoint>
          <Trackpoint>
            <Time>2019-08-04T18:50:11.000Z</Time>
            <Position>
              <LatitudeDegrees>-33.52793631143867969512939453125</LatitudeDegrees>
              <LongitudeDegrees>-70.22572006098926067352294921875</LongitudeDegrees>
            </Position>
            <AltitudeMeters>1612</AltitudeMeters>
            <DistanceMeters>7379.8693652488</DistanceMeters>
          </Trackpoint>
          <Trackpoint>
            <Time>2019-08-04T18:50:13.000Z</Time>
            <Position>
              <LatitudeDegrees>-33.52790839970111846923828125</LatitudeDegrees>
              <LongitudeDegrees>-70.22573632188141345977783203125</LongitudeDegrees>
            </Position>
            <AltitudeMeters>1612.199951171875</AltitudeMeters>
            <DistanceMeters>7383.3218572337</DistanceMeters>
          </Trackpoint>
          <Trackpoint>
            <Time>2019-08-04T18:50:16.000Z</Time>
            <Position>
              <LatitudeDegrees>-33.52787017822265625</LatitudeDegrees>
              <LongitudeDegrees>-70.22575878538191318511962890625</LongitudeDegrees>
            </Position>
            <AltitudeMeters>1612.199951171875</AltitudeMeters>
            <DistanceMeters>7388.0598705347</DistanceMeters>
          </Trackpoint>
          <Trackpoint>
            <Time>2019-08-04T18:50:17.000Z</Time>
            <Position>
              <LatitudeDegrees>-33.52785953320562839508056640625</LatitudeDegrees>
              <LongitudeDegrees>-70.22576783783733844757080078125</LongitudeDegrees>
            </Position>
            <AltitudeMeters>1612.199951171875</AltitudeMeters>
            <DistanceMeters>7389.5134997473</DistanceMeters>
          </Trackpoint>
          <Trackpoint>
            <Time>2019-08-04T18:50:23.000Z</Time>
            <Position>
              <LatitudeDegrees>-33.52779381908476352691650390625</LatitudeDegrees>
              <LongitudeDegrees>-70.225820057094097137451171875</LongitudeDegrees>
            </Position>
            <AltitudeMeters>1612.4000244140625</AltitudeMeters>
            <DistanceMeters>7398.2868897197</DistanceMeters>
          </Trackpoint>
          <Trackpoint>
            <Time>2019-08-04T18:50:25.000Z</Time>
            <Position>
              <LatitudeDegrees>-33.5277749598026275634765625</LatitudeDegrees>
              <LongitudeDegrees>-70.22583313286304473876953125</LongitudeDegrees>
            </Position>
            <AltitudeMeters>1612.5999755859375</AltitudeMeters>
            <DistanceMeters>7400.7096050742</DistanceMeters>
          </Trackpoint>
          <Trackpoint>
            <Time>2019-08-04T18:50:27.000Z</Time>
            <Position>
              <LatitudeDegrees>-33.5277657397091388702392578125</LatitudeDegrees>
              <LongitudeDegrees>-70.22584855556488037109375</LongitudeDegrees>
            </Position>
            <AltitudeMeters>1613</AltitudeMeters>
            <DistanceMeters>7402.4695244531</DistanceMeters>
          </Trackpoint>
          <Trackpoint>
            <Time>2019-08-04T18:50:30.000Z</Time>
            <Position>
              <LatitudeDegrees>-33.52774956263601779937744140625</LatitudeDegrees>
              <LongitudeDegrees>-70.22587604820728302001953125</LongitudeDegrees>
            </Position>
            <AltitudeMeters>1613.199951171875</AltitudeMeters>
            <DistanceMeters>7405.5924209546</DistanceMeters>
          </Trackpoint>
          <Trackpoint>
            <Time>2019-08-04T18:50:31.000Z</Time>
            <Position>
              <LatitudeDegrees>-33.5277405939996242523193359375</LatitudeDegrees>
              <LongitudeDegrees>-70.2258812449872493743896484375</LongitudeDegrees>
            </Position>
            <AltitudeMeters>1613.199951171875</AltitudeMeters>
            <DistanceMeters>7406.7046801298</DistanceMeters>
          </Trackpoint>
          <Trackpoint>
            <Time>2019-08-04T18:50:33.000Z</Time>
            <Position>
              <LatitudeDegrees>-33.52772139944136142730712890625</LatitudeDegrees>
              <LongitudeDegrees>-70.22588753141462802886962890625</LongitudeDegrees>
            </Position>
            <AltitudeMeters>1613.199951171875</AltitudeMeters>
            <DistanceMeters>7408.9210649307</DistanceMeters>
          </Trackpoint>
          <Trackpoint>
            <Time>2019-08-04T18:50:34.000Z</Time>
            <Position>
              <LatitudeDegrees>-33.52771435864269733428955078125</LatitudeDegrees>
              <LongitudeDegrees>-70.22589071653783321380615234375</LongitudeDegrees>
            </Position>
            <AltitudeMeters>1613.199951171875</AltitudeMeters>
            <DistanceMeters>7409.7603181479</DistanceMeters>
          </Trackpoint>
          <Trackpoint>
            <Time>2019-08-04T18:50:36.000Z</Time>
            <Position>
              <LatitudeDegrees>-33.52770388126373291015625</LatitudeDegrees>
              <LongitudeDegrees>-70.225904546678066253662109375</LongitudeDegrees>
            </Position>
            <AltitudeMeters>1613.199951171875</AltitudeMeters>
            <DistanceMeters>7411.4943929606</DistanceMeters>
          </Trackpoint>
          <Trackpoint>
            <Time>2019-08-04T18:50:38.000Z</Time>
            <Position>
              <LatitudeDegrees>-33.52769541554152965545654296875</LatitudeDegrees>
              <LongitudeDegrees>-70.22592960856854915618896484375</LongitudeDegrees>
            </Position>
            <AltitudeMeters>1612.5999755859375</AltitudeMeters>
            <DistanceMeters>7414.0031702088</DistanceMeters>
          </Trackpoint>
          <Trackpoint>
            <Time>2019-08-04T18:50:39.000Z</Time>
            <Position>
              <LatitudeDegrees>-33.5276886261999607086181640625</LatitudeDegrees>
              <LongitudeDegrees>-70.225939415395259857177734375</LongitudeDegrees>
            </Position>
            <AltitudeMeters>1612.4000244140625</AltitudeMeters>
            <DistanceMeters>7415.1824207218</DistanceMeters>
          </Trackpoint>
          <Trackpoint>
            <Time>2019-08-04T18:50:41.000Z</Time>
            <Position>
              <LatitudeDegrees>-33.527665995061397552490234375</LatitudeDegrees>
              <LongitudeDegrees>-70.22594871930778026580810546875</LongitudeDegrees>
            </Position>
            <AltitudeMeters>1612.199951171875</AltitudeMeters>
            <DistanceMeters>7417.8431687242</DistanceMeters>
          </Trackpoint>
          <Trackpoint>
            <Time>2019-08-04T18:50:43.000Z</Time>
            <Position>
              <LatitudeDegrees>-33.52764043025672435760498046875</LatitudeDegrees>
              <LongitudeDegrees>-70.22595089860260486602783203125</LongitudeDegrees>
            </Position>
            <AltitudeMeters>1612</AltitudeMeters>
            <DistanceMeters>7420.6955534942</DistanceMeters>
          </Trackpoint>
          <Trackpoint>
            <Time>2019-08-04T18:50:46.000Z</Time>
            <Position>
              <LatitudeDegrees>-33.52761243470013141632080078125</LatitudeDegrees>
              <LongitudeDegrees>-70.22595584392547607421875</LongitudeDegrees>
            </Position>
            <AltitudeMeters>1611</AltitudeMeters>
            <DistanceMeters>7423.8443665936</DistanceMeters>
          </Trackpoint>
          <Trackpoint>
            <Time>2019-08-04T18:50:49.000Z</Time>
            <Position>
              <LatitudeDegrees>-33.52758117020130157470703125</LatitudeDegrees>
              <LongitudeDegrees>-70.22597386501729488372802734375</LongitudeDegrees>
            </Position>
            <AltitudeMeters>1609.800048828125</AltitudeMeters>
            <DistanceMeters>7427.7043699787</DistanceMeters>
          </Trackpoint>
          <Trackpoint>
            <Time>2019-08-04T18:50:51.000Z</Time>
            <Position>
              <LatitudeDegrees>-33.5275632329285144805908203125</LatitudeDegrees>
              <LongitudeDegrees>-70.22598258219659328460693359375</LongitudeDegrees>
            </Position>
            <AltitudeMeters>1609</AltitudeMeters>
            <DistanceMeters>7429.85667786</DistanceMeters>
          </Trackpoint>
          <Trackpoint>
            <Time>2019-08-04T18:50:52.000Z</Time>
            <Position>
              <LatitudeDegrees>-33.52755376137793064117431640625</LatitudeDegrees>
              <LongitudeDegrees>-70.2259881980717182159423828125</LongitudeDegrees>
            </Position>
            <AltitudeMeters>1608.5999755859375</AltitudeMeters>
            <DistanceMeters>7431.0282458774</DistanceMeters>
          </Trackpoint>
          <Trackpoint>
            <Time>2019-08-04T18:50:58.000Z</Time>
            <Position>
              <LatitudeDegrees>-33.52750095538794994354248046875</LatitudeDegrees>
              <LongitudeDegrees>-70.225999765098094940185546875</LongitudeDegrees>
            </Position>
            <AltitudeMeters>1607.5999755859375</AltitudeMeters>
            <DistanceMeters>7437.0036054699</DistanceMeters>
          </Trackpoint>
          <Trackpoint>
            <Time>2019-08-04T18:51:01.000Z</Time>
            <Position>
              <LatitudeDegrees>-33.5274727083742618560791015625</LatitudeDegrees>
              <LongitudeDegrees>-70.22600001655519008636474609375</LongitudeDegrees>
            </Position>
            <AltitudeMeters>1606.4000244140625</AltitudeMeters>
            <DistanceMeters>7440.1481139698</DistanceMeters>
          </Trackpoint>
          <Trackpoint>
            <Time>2019-08-04T18:51:04.000Z</Time>
            <Position>
              <LatitudeDegrees>-33.52744932286441326141357421875</LatitudeDegrees>
              <LongitudeDegrees>-70.22599431686103343963623046875</LongitudeDegrees>
            </Position>
            <AltitudeMeters>1605.4000244140625</AltitudeMeters>
            <DistanceMeters>7442.803766376</DistanceMeters>
          </Trackpoint>
          <Trackpoint>
            <Time>2019-08-04T18:51:05.000Z</Time>
            <Position>
              <LatitudeDegrees>-33.52744194678962230682373046875</LatitudeDegrees>
              <LongitudeDegrees>-70.22599364630877971649169921875</LongitudeDegrees>
            </Position>
            <AltitudeMeters>1605.199951171875</AltitudeMeters>
            <DistanceMeters>7443.6321900658</DistanceMeters>
          </Trackpoint>
          <Trackpoint>
            <Time>2019-08-04T18:51:07.000Z</Time>
            <Position>
              <LatitudeDegrees>-33.527419567108154296875</LatitudeDegrees>
              <LongitudeDegrees>-70.2259965799748897552490234375</LongitudeDegrees>
            </Position>
            <AltitudeMeters>1604.4000244140625</AltitudeMeters>
            <DistanceMeters>7446.1373653348</DistanceMeters>
          </Trackpoint>
          <Trackpoint>
            <Time>2019-08-04T18:51:08.000Z</Time>
            <Position>
              <LatitudeDegrees>-33.5274069942533969879150390625</LatitudeDegrees>
              <LongitudeDegrees>-70.22599766962230205535888671875</LongitudeDegrees>
            </Position>
            <AltitudeMeters>1604.199951171875</AltitudeMeters>
            <DistanceMeters>7447.5404179585</DistanceMeters>
          </Trackpoint>
          <Trackpoint>
            <Time>2019-08-04T18:51:11.000Z</Time>
            <Position>
              <LatitudeDegrees>-33.52737128734588623046875</LatitudeDegrees>
              <LongitudeDegrees>-70.2259995974600315093994140625</LongitudeDegrees>
            </Position>
            <AltitudeMeters>1603.4000244140625</AltitudeMeters>
            <DistanceMeters>7451.5179415511</DistanceMeters>
          </Trackpoint>
          <Trackpoint>
            <Time>2019-08-04T18:51:12.000Z</Time>
            <Position>
              <LatitudeDegrees>-33.52736114524304866790771484375</LatitudeDegrees>
              <LongitudeDegrees>-70.225997753441333770751953125</LongitudeDegrees>
            </Position>
            <AltitudeMeters>1603</AltitudeMeters>
            <DistanceMeters>7452.6582621235</DistanceMeters>
          </Trackpoint>
          <Trackpoint>
            <Time>2019-08-04T18:51:14.000Z</Time>
            <Position>
              <LatitudeDegrees>-33.52734521962702274322509765625</LatitudeDegrees>
              <LongitudeDegrees>-70.225996412336826324462890625</LongitudeDegrees>
            </Position>
            <AltitudeMeters>1602.800048828125</AltitudeMeters>
            <DistanceMeters>7454.4335076499</DistanceMeters>
          </Trackpoint>
          <Trackpoint>
            <Time>2019-08-04T18:51:16.000Z</Time>
            <Position>
              <LatitudeDegrees>-33.52732225321233272552490234375</LatitudeDegrees>
              <LongitudeDegrees>-70.22600169293582439422607421875</LongitudeDegrees>
            </Position>
            <AltitudeMeters>1602</AltitudeMeters>
            <DistanceMeters>7457.03418588</DistanceMeters>
          </Trackpoint>
          <Trackpoint>
            <Time>2019-08-04T18:51:21.000Z</Time>
            <Position>
              <LatitudeDegrees>-33.527269698679447174072265625</LatitudeDegrees>
              <LongitudeDegrees>-70.2260177023708820343017578125</LongitudeDegrees>
            </Position>
            <AltitudeMeters>1601.4000244140625</AltitudeMeters>
            <DistanceMeters>7463.0696915237</DistanceMeters>
          </Trackpoint>
          <Trackpoint>
            <Time>2019-08-04T18:51:22.000Z</Time>
            <Position>
              <LatitudeDegrees>-33.52726073004305362701416015625</LatitudeDegrees>
              <LongitudeDegrees>-70.22602088749408721923828125</LongitudeDegrees>
            </Position>
            <AltitudeMeters>1601.199951171875</AltitudeMeters>
            <DistanceMeters>7464.1106570242</DistanceMeters>
          </Trackpoint>
          <Trackpoint>
            <Time>2019-08-04T18:51:23.000Z</Time>
            <Position>
              <LatitudeDegrees>-33.52725150994956493377685546875</LatitudeDegrees>
              <LongitudeDegrees>-70.22602180950343608856201171875</LongitudeDegrees>
            </Position>
            <AltitudeMeters>1601.199951171875</AltitudeMeters>
            <DistanceMeters>7465.1429113632</DistanceMeters>
          </Trackpoint>
          <Trackpoint>
            <Time>2019-08-04T18:51:24.000Z</Time>
            <Position>
              <LatitudeDegrees>-33.52724614553153514862060546875</LatitudeDegrees>
              <LongitudeDegrees>-70.22601879201829433441162109375</LongitudeDegrees>
            </Position>
            <AltitudeMeters>1600.800048828125</AltitudeMeters>
            <DistanceMeters>7465.7943816947</DistanceMeters>
          </Trackpoint>
          <Trackpoint>
            <Time>2019-08-04T18:51:28.000Z</Time>
            <Position>
              <LatitudeDegrees>-33.52721362374722957611083984375</LatitudeDegrees>
              <LongitudeDegrees>-70.2260237373411655426025390625</LongitudeDegrees>
            </Position>
            <AltitudeMeters>1599.800048828125</AltitudeMeters>
            <DistanceMeters>7469.4439519098</DistanceMeters>
          </Trackpoint>
          <Trackpoint>
            <Time>2019-08-04T18:51:33.000Z</Time>
            <Position>
              <LatitudeDegrees>-33.52716065011918544769287109375</LatitudeDegrees>
              <LongitudeDegrees>-70.22602616809308528900146484375</LongitudeDegrees>
            </Position>
            <AltitudeMeters>1598.800048828125</AltitudeMeters>
            <DistanceMeters>7475.3447971686</DistanceMeters>
          </Trackpoint>
          <Trackpoint>
            <Time>2019-08-04T18:51:34.000Z</Time>
            <Position>
              <LatitudeDegrees>-33.52715092711150646209716796875</LatitudeDegrees>
              <LongitudeDegrees>-70.226029269397258758544921875</LongitudeDegrees>
            </Position>
            <AltitudeMeters>1598.5999755859375</AltitudeMeters>
            <DistanceMeters>7476.465145608</DistanceMeters>
          </Trackpoint>
          <Trackpoint>
            <Time>2019-08-04T18:51:39.000Z</Time>
            <Position>
              <LatitudeDegrees>-33.5270958580076694488525390625</LatitudeDegrees>
              <LongitudeDegrees>-70.2260321192443370819091796875</LongitudeDegrees>
            </Position>
            <AltitudeMeters>1597.5999755859375</AltitudeMeters>
            <DistanceMeters>7482.6000749979</DistanceMeters>
          </Trackpoint>
          <Trackpoint>
            <Time>2019-08-04T18:51:41.000Z</Time>
            <Position>
              <LatitudeDegrees>-33.52707750163972377777099609375</LatitudeDegrees>
              <LongitudeDegrees>-70.2260267548263072967529296875</LongitudeDegrees>
            </Position>
            <AltitudeMeters>1597.4000244140625</AltitudeMeters>
            <DistanceMeters>7484.7014334587</DistanceMeters>
          </Trackpoint>
          <Trackpoint>
            <Time>2019-08-04T18:51:43.000Z</Time>
            <Position>
              <LatitudeDegrees>-33.52706191129982471466064453125</LatitudeDegrees>
              <LongitudeDegrees>-70.22602432407438755035400390625</LongitudeDegrees>
            </Position>
            <AltitudeMeters>1596.5999755859375</AltitudeMeters>
            <DistanceMeters>7486.4510608232</DistanceMeters>
          </Trackpoint>
          <Trackpoint>
            <Time>2019-08-04T18:51:45.000Z</Time>
            <Position>
              <LatitudeDegrees>-33.5270465724170207977294921875</LatitudeDegrees>
              <LongitudeDegrees>-70.226024575531482696533203125</LongitudeDegrees>
            </Position>
            <AltitudeMeters>1596.199951171875</AltitudeMeters>
            <DistanceMeters>7488.158900011</DistanceMeters>
          </Trackpoint>
          <Trackpoint>
            <Time>2019-08-04T18:51:52.000Z</Time>
            <Position>
              <LatitudeDegrees>-33.5269855521619319915771484375</LatitudeDegrees>
              <LongitudeDegrees>-70.22606556303799152374267578125</LongitudeDegrees>
            </Position>
            <AltitudeMeters>1595.5999755859375</AltitudeMeters>
            <DistanceMeters>7495.9429743259</DistanceMeters>
          </Trackpoint>
          <Trackpoint>
            <Time>2019-08-04T18:51:57.000Z</Time>
            <Position>
              <LatitudeDegrees>-33.5269396193325519561767578125</LatitudeDegrees>
              <LongitudeDegrees>-70.2260733582079410552978515625</LongitudeDegrees>
            </Position>
            <AltitudeMeters>1594.4000244140625</AltitudeMeters>
            <DistanceMeters>7501.105995308</DistanceMeters>
          </Trackpoint>
          <Trackpoint>
            <Time>2019-08-04T18:52:00.000Z</Time>
            <Position>
              <LatitudeDegrees>-33.52690684609115123748779296875</LatitudeDegrees>
              <LongitudeDegrees>-70.22607008926570415496826171875</LongitudeDegrees>
            </Position>
            <AltitudeMeters>1593.4000244140625</AltitudeMeters>
            <DistanceMeters>7504.7666828723</DistanceMeters>
          </Trackpoint>
          <Trackpoint>
            <Time>2019-08-04T18:52:03.000Z</Time>
            <Position>
              <LatitudeDegrees>-33.5268832929432392120361328125</LatitudeDegrees>
              <LongitudeDegrees>-70.2260596118867397308349609375</LongitudeDegrees>
            </Position>
            <AltitudeMeters>1593</AltitudeMeters>
            <DistanceMeters>7507.5663447007</DistanceMeters>
          </Trackpoint>
          <Trackpoint>
            <Time>2019-08-04T18:52:11.000Z</Time>
            <Position>
              <LatitudeDegrees>-33.52682487107813358306884765625</LatitudeDegrees>
              <LongitudeDegrees>-70.2260391600430011749267578125</LongitudeDegrees>
            </Position>
            <AltitudeMeters>1592.4000244140625</AltitudeMeters>
            <DistanceMeters>7514.3406231484</DistanceMeters>
          </Trackpoint>
          <Trackpoint>
            <Time>2019-08-04T18:52:12.000Z</Time>
            <Position>
              <LatitudeDegrees>-33.52681808173656463623046875</LatitudeDegrees>
              <LongitudeDegrees>-70.22603941150009632110595703125</LongitudeDegrees>
            </Position>
            <AltitudeMeters>1592.199951171875</AltitudeMeters>
            <DistanceMeters>7515.1008368634</DistanceMeters>
          </Trackpoint>
          <Trackpoint>
            <Time>2019-08-04T18:52:19.000Z</Time>
            <Position>
              <LatitudeDegrees>-33.5267572291195392608642578125</LatitudeDegrees>
              <LongitudeDegrees>-70.2260297723114490509033203125</LongitudeDegrees>
            </Position>
            <AltitudeMeters>1591</AltitudeMeters>
            <DistanceMeters>7521.9321936146</DistanceMeters>
          </Trackpoint>
          <Trackpoint>
            <Time>2019-08-04T18:52:20.000Z</Time>
            <Position>
              <LatitudeDegrees>-33.52674876339733600616455078125</LatitudeDegrees>
              <LongitudeDegrees>-70.2260260842740535736083984375</LongitudeDegrees>
            </Position>
            <AltitudeMeters>1590.5999755859375</AltitudeMeters>
            <DistanceMeters>7522.9378618311</DistanceMeters>
          </Trackpoint>
          <Trackpoint>
            <Time>2019-08-04T18:52:21.000Z</Time>
            <Position>
              <LatitudeDegrees>-33.526739291846752166748046875</LatitudeDegrees>
              <LongitudeDegrees>-70.22602499462664127349853515625</LongitudeDegrees>
            </Position>
            <AltitudeMeters>1590.199951171875</AltitudeMeters>
            <DistanceMeters>7523.9960345387</DistanceMeters>
          </Trackpoint>
          <Trackpoint>
            <Time>2019-08-04T18:52:22.000Z</Time>
            <Position>
              <LatitudeDegrees>-33.526732921600341796875</LatitudeDegrees>
              <LongitudeDegrees>-70.226020552217960357666015625</LongitudeDegrees>
            </Position>
            <AltitudeMeters>1589.5999755859375</AltitudeMeters>
            <DistanceMeters>7524.8134852448</DistanceMeters>
          </Trackpoint>
          <Trackpoint>
            <Time>2019-08-04T18:52:25.000Z</Time>
            <Position>
              <LatitudeDegrees>-33.52671154774725437164306640625</LatitudeDegrees>
              <LongitudeDegrees>-70.22601074539124965667724609375</LongitudeDegrees>
            </Position>
            <AltitudeMeters>1588.4000244140625</AltitudeMeters>
            <DistanceMeters>7527.3615482274</DistanceMeters>
          </Trackpoint>
          <Trackpoint>
            <Time>2019-08-04T18:52:30.000Z</Time>
            <Position>
              <LatitudeDegrees>-33.52663996629416942596435546875</LatitudeDegrees>
              <LongitudeDegrees>-70.22601225413382053375244140625</LongitudeDegrees>
            </Position>
            <AltitudeMeters>1587.199951171875</AltitudeMeters>
            <DistanceMeters>7535.3302054263</DistanceMeters>
          </Trackpoint>
          <Trackpoint>
            <Time>2019-08-04T18:52:34.000Z</Time>
            <Position>
              <LatitudeDegrees>-33.52659143507480621337890625</LatitudeDegrees>
              <LongitudeDegrees>-70.22602264769375324249267578125</LongitudeDegrees>
            </Position>
            <AltitudeMeters>1586.5999755859375</AltitudeMeters>
            <DistanceMeters>7540.817123948</DistanceMeters>
          </Trackpoint>
          <Trackpoint>
            <Time>2019-08-04T18:52:35.000Z</Time>
            <Position>
              <LatitudeDegrees>-33.5265786945819854736328125</LatitudeDegrees>
              <LongitudeDegrees>-70.22601828910410404205322265625</LongitudeDegrees>
            </Position>
            <AltitudeMeters>1586.4000244140625</AltitudeMeters>
            <DistanceMeters>7542.2923352627</DistanceMeters>
          </Trackpoint>
          <Trackpoint>
            <Time>2019-08-04T18:52:37.000Z</Time>
            <Position>
              <LatitudeDegrees>-33.5265518724918365478515625</LatitudeDegrees>
              <LongitudeDegrees>-70.22601745091378688812255859375</LongitudeDegrees>
            </Position>
            <AltitudeMeters>1586</AltitudeMeters>
            <DistanceMeters>7545.2792593539</DistanceMeters>
          </Trackpoint>
          <Trackpoint>
            <Time>2019-08-04T18:52:43.000Z</Time>
            <Position>
              <LatitudeDegrees>-33.526485152542591094970703125</LatitudeDegrees>
              <LongitudeDegrees>-70.22602717392146587371826171875</LongitudeDegrees>
            </Position>
            <AltitudeMeters>1585.4000244140625</AltitudeMeters>
            <DistanceMeters>7552.7592562554</DistanceMeters>
          </Trackpoint>
          <Trackpoint>
            <Time>2019-08-04T18:52:47.000Z</Time>
            <Position>
              <LatitudeDegrees>-33.52645003236830234527587890625</LatitudeDegrees>
              <LongitudeDegrees>-70.22604611702263355255126953125</LongitudeDegrees>
            </Position>
            <AltitudeMeters>1585</AltitudeMeters>
            <DistanceMeters>7557.043896895</DistanceMeters>
          </Trackpoint>
          <Trackpoint>
            <Time>2019-08-04T18:52:50.000Z</Time>
            <Position>
              <LatitudeDegrees>-33.5264209471642971038818359375</LatitudeDegrees>
              <LongitudeDegrees>-70.2260564267635345458984375</LongitudeDegrees>
            </Position>
            <AltitudeMeters>1584.800048828125</AltitudeMeters>
            <DistanceMeters>7560.4183489092</DistanceMeters>
          </Trackpoint>
          <Trackpoint>
            <Time>2019-08-04T18:52:53.000Z</Time>
            <Position>
              <LatitudeDegrees>-33.526386916637420654296875</LatitudeDegrees>
              <LongitudeDegrees>-70.2260512299835681915283203125</LongitudeDegrees>
            </Position>
            <AltitudeMeters>1584.4000244140625</AltitudeMeters>
            <DistanceMeters>7564.2360109399</DistanceMeters>
          </Trackpoint>
          <Trackpoint>
            <Time>2019-08-04T18:52:57.000Z</Time>
            <Position>
              <LatitudeDegrees>-33.5263357870280742645263671875</LatitudeDegrees>
              <LongitudeDegrees>-70.2260669879615306854248046875</LongitudeDegrees>
            </Position>
            <AltitudeMeters>1584.199951171875</AltitudeMeters>
            <DistanceMeters>7570.1115519571</DistanceMeters>
          </Trackpoint>
          <Trackpoint>
            <Time>2019-08-04T18:53:00.000Z</Time>
            <Position>
              <LatitudeDegrees>-33.526298739016056060791015625</LatitudeDegrees>
              <LongitudeDegrees>-70.22606472484767436981201171875</LongitudeDegrees>
            </Position>
            <AltitudeMeters>1584</AltitudeMeters>
            <DistanceMeters>7574.2405693131</DistanceMeters>
          </Trackpoint>
          <Trackpoint>
            <Time>2019-08-04T18:53:07.000Z</Time>
            <Position>
              <LatitudeDegrees>-33.52621802128851413726806640625</LatitudeDegrees>
              <LongitudeDegrees>-70.226081572473049163818359375</LongitudeDegrees>
            </Position>
            <AltitudeMeters>1583.199951171875</AltitudeMeters>
            <DistanceMeters>7583.3591735866</DistanceMeters>
          </Trackpoint>
          <Trackpoint>
            <Time>2019-08-04T18:53:10.000Z</Time>
            <Position>
              <LatitudeDegrees>-33.52618499659001827239990234375</LatitudeDegrees>
              <LongitudeDegrees>-70.226087272167205810546875</LongitudeDegrees>
            </Position>
            <AltitudeMeters>1582.800048828125</AltitudeMeters>
            <DistanceMeters>7587.0713019051</DistanceMeters>
          </Trackpoint>
          <Trackpoint>
            <Time>2019-08-04T18:53:14.000Z</Time>
            <Position>
              <LatitudeDegrees>-33.52613235823810100555419921875</LatitudeDegrees>
              <LongitudeDegrees>-70.2260954864323139190673828125</LongitudeDegrees>
            </Position>
            <AltitudeMeters>1581.800048828125</AltitudeMeters>
            <DistanceMeters>7592.9797937205</DistanceMeters>
          </Trackpoint>
          <Trackpoint>
            <Time>2019-08-04T18:53:16.000Z</Time>
            <Position>
              <LatitudeDegrees>-33.52610805071890354156494140625</LatitudeDegrees>
              <LongitudeDegrees>-70.22610931657254695892333984375</LongitudeDegrees>
            </Position>
            <AltitudeMeters>1581</AltitudeMeters>
            <DistanceMeters>7595.9757736913</DistanceMeters>
          </Trackpoint>
          <Trackpoint>
            <Time>2019-08-04T18:53:17.000Z</Time>
            <Position>
              <LatitudeDegrees>-33.52610151283442974090576171875</LatitudeDegrees>
              <LongitudeDegrees>-70.22611585445702075958251953125</LongitudeDegrees>
            </Position>
            <AltitudeMeters>1580.5999755859375</AltitudeMeters>
            <DistanceMeters>7596.926040835</DistanceMeters>
          </Trackpoint>
          <Trackpoint>
            <Time>2019-08-04T18:53:19.000Z</Time>
            <Position>
              <LatitudeDegrees>-33.5260883532464504241943359375</LatitudeDegrees>
              <LongitudeDegrees>-70.22612675093114376068115234375</LongitudeDegrees>
            </Position>
            <AltitudeMeters>1580</AltitudeMeters>
            <DistanceMeters>7598.7038278738</DistanceMeters>
          </Trackpoint>
          <Trackpoint>
            <Time>2019-08-04T18:53:20.000Z</Time>
            <Position>
              <LatitudeDegrees>-33.52608382701873779296875</LatitudeDegrees>
              <LongitudeDegrees>-70.2261417545378208160400390625</LongitudeDegrees>
            </Position>
            <AltitudeMeters>1579.5999755859375</AltitudeMeters>
            <DistanceMeters>7600.1820966246</DistanceMeters>
          </Trackpoint>
          <Trackpoint>
            <Time>2019-08-04T18:53:21.000Z</Time>
            <Position>
              <LatitudeDegrees>-33.52607452310621738433837890625</LatitudeDegrees>
              <LongitudeDegrees>-70.2261511422693729400634765625</LongitudeDegrees>
            </Position>
            <AltitudeMeters>1579.199951171875</AltitudeMeters>
            <DistanceMeters>7601.5360188964</DistanceMeters>
          </Trackpoint>
          <Trackpoint>
            <Time>2019-08-04T18:53:26.000Z</Time>
            <Position>
              <LatitudeDegrees>-33.526041917502880096435546875</LatitudeDegrees>
              <LongitudeDegrees>-70.22619766183197498321533203125</LongitudeDegrees>
            </Position>
            <AltitudeMeters>1578.199951171875</AltitudeMeters>
            <DistanceMeters>7607.1755161466</DistanceMeters>
          </Trackpoint>
          <Trackpoint>
            <Time>2019-08-04T18:53:31.000Z</Time>
            <Position>
              <LatitudeDegrees>-33.526012413203716278076171875</LatitudeDegrees>
              <LongitudeDegrees>-70.2262577600777149200439453125</LongitudeDegrees>
            </Position>
            <AltitudeMeters>1577</AltitudeMeters>
            <DistanceMeters>7613.6471074924</DistanceMeters>
          </Trackpoint>
          <Trackpoint>
            <Time>2019-08-04T18:53:32.000Z</Time>
            <Position>
              <LatitudeDegrees>-33.5260048694908618927001953125</LatitudeDegrees>
              <LongitudeDegrees>-70.226267315447330474853515625</LongitudeDegrees>
            </Position>
            <AltitudeMeters>1576.800048828125</AltitudeMeters>
            <DistanceMeters>7614.871441062</DistanceMeters>
          </Trackpoint>
          <Trackpoint>
            <Time>2019-08-04T18:53:35.000Z</Time>
            <Position>
              <LatitudeDegrees>-33.52597444318234920501708984375</LatitudeDegrees>
              <LongitudeDegrees>-70.226299501955509185791015625</LongitudeDegrees>
            </Position>
            <AltitudeMeters>1576</AltitudeMeters>
            <DistanceMeters>7619.3869601474</DistanceMeters>
          </Trackpoint>
          <Trackpoint>
            <Time>2019-08-04T18:53:38.000Z</Time>
            <Position>
              <LatitudeDegrees>-33.5259508900344371795654296875</LatitudeDegrees>
              <LongitudeDegrees>-70.2263248153030872344970703125</LongitudeDegrees>
            </Position>
            <AltitudeMeters>1575.4000244140625</AltitudeMeters>
            <DistanceMeters>7622.9067989053</DistanceMeters>
          </Trackpoint>
          <Trackpoint>
            <Time>2019-08-04T18:53:40.000Z</Time>
            <Position>
              <LatitudeDegrees>-33.52593722753226757049560546875</LatitudeDegrees>
              <LongitudeDegrees>-70.22633445449173450469970703125</LongitudeDegrees>
            </Position>
            <AltitudeMeters>1575</AltitudeMeters>
            <DistanceMeters>7624.6692818972</DistanceMeters>
          </Trackpoint>
          <Trackpoint>
            <Time>2019-08-04T18:53:41.000Z</Time>
            <Position>
              <LatitudeDegrees>-33.52592733688652515411376953125</LatitudeDegrees>
              <LongitudeDegrees>-70.22634099237620830535888671875</LongitudeDegrees>
            </Position>
            <AltitudeMeters>1574.800048828125</AltitudeMeters>
            <DistanceMeters>7625.9299537237</DistanceMeters>
          </Trackpoint>
          <Trackpoint>
            <Time>2019-08-04T18:53:43.000Z</Time>
            <Position>
              <LatitudeDegrees>-33.52591509930789470672607421875</LatitudeDegrees>
              <LongitudeDegrees>-70.2263536490499973297119140625</LongitudeDegrees>
            </Position>
            <AltitudeMeters>1574.5999755859375</AltitudeMeters>
            <DistanceMeters>7627.7304529443</DistanceMeters>
          </Trackpoint>
          <Trackpoint>
            <Time>2019-08-04T18:53:44.000Z</Time>
            <Position>
              <LatitudeDegrees>-33.52590939961373805999755859375</LatitudeDegrees>
              <LongitudeDegrees>-70.22636295296251773834228515625</LongitudeDegrees>
            </Position>
            <AltitudeMeters>1574.4000244140625</AltitudeMeters>
            <DistanceMeters>7628.8055574903</DistanceMeters>
          </Trackpoint>
          <Trackpoint>
            <Time>2019-08-04T18:53:45.000Z</Time>
            <Position>
              <LatitudeDegrees>-33.52590353228151798248291015625</LatitudeDegrees>
              <LongitudeDegrees>-70.22637401707470417022705078125</LongitudeDegrees>
            </Position>
            <AltitudeMeters>1574.199951171875</AltitudeMeters>
            <DistanceMeters>7630.0224932062</DistanceMeters>
          </Trackpoint>
          <Trackpoint>
            <Time>2019-08-04T18:53:51.000Z</Time>
            <Position>
              <LatitudeDegrees>-33.52586095221340656280517578125</LatitudeDegrees>
              <LongitudeDegrees>-70.22642916999757289886474609375</LongitudeDegrees>
            </Position>
            <AltitudeMeters>1573.800048828125</AltitudeMeters>
            <DistanceMeters>7636.9977388564</DistanceMeters>
          </Trackpoint>
          <Trackpoint>
            <Time>2019-08-04T18:53:54.000Z</Time>
            <Position>
              <LatitudeDegrees>-33.525834381580352783203125</LatitudeDegrees>
              <LongitudeDegrees>-70.2264461852610111236572265625</LongitudeDegrees>
            </Position>
            <AltitudeMeters>1573.800048828125</AltitudeMeters>
            <DistanceMeters>7640.3493675793</DistanceMeters>
          </Trackpoint>
          <Trackpoint>
            <Time>2019-08-04T18:53:56.000Z</Time>
            <Position>
              <LatitudeDegrees>-33.5258117504417896270751953125</LatitudeDegrees>
              <LongitudeDegrees>-70.2264579199254512786865234375</LongitudeDegrees>
            </Position>
            <AltitudeMeters>1573.800048828125</AltitudeMeters>
            <DistanceMeters>7643.09364959</DistanceMeters>
          </Trackpoint>
          <Trackpoint>
            <Time>2019-08-04T18:54:06.000Z</Time>
            <Position>
              <LatitudeDegrees>-33.52567814290523529052734375</LatitudeDegrees>
              <LongitudeDegrees>-70.226489938795566558837890625</LongitudeDegrees>
            </Position>
            <AltitudeMeters>1572.800048828125</AltitudeMeters>
            <DistanceMeters>7658.2580792437</DistanceMeters>
          </Trackpoint>
          <Trackpoint>
            <Time>2019-08-04T18:54:07.000Z</Time>
            <Position>
              <LatitudeDegrees>-33.52566540241241455078125</LatitudeDegrees>
              <LongitudeDegrees>-70.22649421356618404388427734375</LongitudeDegrees>
            </Position>
            <AltitudeMeters>1572.5999755859375</AltitudeMeters>
            <DistanceMeters>7659.7302267725</DistanceMeters>
          </Trackpoint>
          <Trackpoint>
            <Time>2019-08-04T18:54:12.000Z</Time>
            <Position>
              <LatitudeDegrees>-33.52561351843178272247314453125</LatitudeDegrees>
              <LongitudeDegrees>-70.22653059102594852447509765625</LongitudeDegrees>
            </Position>
            <AltitudeMeters>1571.5999755859375</AltitudeMeters>
            <DistanceMeters>7666.4186495091</DistanceMeters>
          </Trackpoint>
          <Trackpoint>
            <Time>2019-08-04T18:54:15.000Z</Time>
            <Position>
              <LatitudeDegrees>-33.52558904327452182769775390625</LatitudeDegrees>
              <LongitudeDegrees>-70.22653855383396148681640625</LongitudeDegrees>
            </Position>
            <AltitudeMeters>1571.199951171875</AltitudeMeters>
            <DistanceMeters>7669.2407989423</DistanceMeters>
          </Trackpoint>
          <Trackpoint>
            <Time>2019-08-04T18:54:17.000Z</Time>
            <Position>
              <LatitudeDegrees>-33.525575213134288787841796875</LatitudeDegrees>
              <LongitudeDegrees>-70.226551629602909088134765625</LongitudeDegrees>
            </Position>
            <AltitudeMeters>1570.5999755859375</AltitudeMeters>
            <DistanceMeters>7671.2021282276</DistanceMeters>
          </Trackpoint>
          <Trackpoint>
            <Time>2019-08-04T18:54:18.000Z</Time>
            <Position>
              <LatitudeDegrees>-33.5255649872124195098876953125</LatitudeDegrees>
              <LongitudeDegrees>-70.2265524677932262420654296875</LongitudeDegrees>
            </Position>
            <AltitudeMeters>1570.4000244140625</AltitudeMeters>
            <DistanceMeters>7672.3464013962</DistanceMeters>
          </Trackpoint>
          <Trackpoint>
            <Time>2019-08-04T18:54:20.000Z</Time>
            <Position>
              <LatitudeDegrees>-33.5255512408912181854248046875</LatitudeDegrees>
              <LongitudeDegrees>-70.22656898014247417449951171875</LongitudeDegrees>
            </Position>
            <AltitudeMeters>1569.800048828125</AltitudeMeters>
            <DistanceMeters>7674.511259284</DistanceMeters>
          </Trackpoint>
          <Trackpoint>
            <Time>2019-08-04T18:54:22.000Z</Time>
            <Position>
              <LatitudeDegrees>-33.5255381651222705841064453125</LatitudeDegrees>
              <LongitudeDegrees>-70.22658540867269039154052734375</LongitudeDegrees>
            </Position>
            <AltitudeMeters>1569.4000244140625</AltitudeMeters>
            <DistanceMeters>7676.6169106165</DistanceMeters>
          </Trackpoint>
          <Trackpoint>
            <Time>2019-08-04T18:54:25.000Z</Time>
            <Position>
              <LatitudeDegrees>-33.52551712654531002044677734375</LatitudeDegrees>
              <LongitudeDegrees>-70.22659999318420886993408203125</LongitudeDegrees>
            </Position>
            <AltitudeMeters>1568.199951171875</AltitudeMeters>
            <DistanceMeters>7679.3214183202</DistanceMeters>
          </Trackpoint>
          <Trackpoint>
            <Time>2019-08-04T18:54:26.000Z</Time>
            <Position>
              <LatitudeDegrees>-33.52550916373729705810546875</LatitudeDegrees>
              <LongitudeDegrees>-70.226603262126445770263671875</LongitudeDegrees>
            </Position>
            <AltitudeMeters>1567.800048828125</AltitudeMeters>
            <DistanceMeters>7680.2524861688</DistanceMeters>
          </Trackpoint>
          <Trackpoint>
            <Time>2019-08-04T18:54:28.000Z</Time>
            <Position>
              <LatitudeDegrees>-33.525493405759334564208984375</LatitudeDegrees>
              <LongitudeDegrees>-70.2266134880483150482177734375</LongitudeDegrees>
            </Position>
            <AltitudeMeters>1567.4000244140625</AltitudeMeters>
            <DistanceMeters>7682.2457833456</DistanceMeters>
          </Trackpoint>
          <Trackpoint>
            <Time>2019-08-04T18:54:29.000Z</Time>
            <Position>
              <LatitudeDegrees>-33.52548745460808277130126953125</LatitudeDegrees>
              <LongitudeDegrees>-70.226618684828281402587890625</LongitudeDegrees>
            </Position>
            <AltitudeMeters>1567.199951171875</AltitudeMeters>
            <DistanceMeters>7683.0742070354</DistanceMeters>
          </Trackpoint>
          <Trackpoint>
            <Time>2019-08-04T18:54:34.000Z</Time>
            <Position>
              <LatitudeDegrees>-33.52545828558504581451416015625</LatitudeDegrees>
              <LongitudeDegrees>-70.22664475254714488983154296875</LongitudeDegrees>
            </Position>
            <AltitudeMeters>1566</AltitudeMeters>
            <DistanceMeters>7687.1226127396</DistanceMeters>
          </Trackpoint>
          <Trackpoint>
            <Time>2019-08-04T18:54:40.000Z</Time>
            <Position>
              <LatitudeDegrees>-33.525420315563678741455078125</LatitudeDegrees>
              <LongitudeDegrees>-70.226685740053653717041015625</LongitudeDegrees>
            </Position>
            <AltitudeMeters>1564.800048828125</AltitudeMeters>
            <DistanceMeters>7692.8075616042</DistanceMeters>
          </Trackpoint>
          <Trackpoint>
            <Time>2019-08-04T18:54:41.000Z</Time>
            <Position>
              <LatitudeDegrees>-33.5254060663282871246337890625</LatitudeDegrees>
              <LongitudeDegrees>-70.22668699733912944793701171875</LongitudeDegrees>
            </Position>
            <AltitudeMeters>1564.5999755859375</AltitudeMeters>
            <DistanceMeters>7694.3919735618</DistanceMeters>
          </Trackpoint>
          <Trackpoint>
            <Time>2019-08-04T18:54:46.000Z</Time>
            <Position>
              <LatitudeDegrees>-33.52534479461610317230224609375</LatitudeDegrees>
              <LongitudeDegrees>-70.2267043478786945343017578125</LongitudeDegrees>
            </Position>
            <AltitudeMeters>1563.5999755859375</AltitudeMeters>
            <DistanceMeters>7701.3988648572</DistanceMeters>
          </Trackpoint>
          <Trackpoint>
            <Time>2019-08-04T18:54:50.000Z</Time>
            <Position>
              <LatitudeDegrees>-33.525319062173366546630859375</LatitudeDegrees>
              <LongitudeDegrees>-70.22672371007502079010009765625</LongitudeDegrees>
            </Position>
            <AltitudeMeters>1562.4000244140625</AltitudeMeters>
            <DistanceMeters>7704.7800002845</DistanceMeters>
          </Trackpoint>
          <Trackpoint>
            <Time>2019-08-04T18:54:51.000Z</Time>
            <Position>
              <LatitudeDegrees>-33.5253138653934001922607421875</LatitudeDegrees>
              <LongitudeDegrees>-70.22673410363495349884033203125</LongitudeDegrees>
            </Position>
            <AltitudeMeters>1562</AltitudeMeters>
            <DistanceMeters>7705.904371532</DistanceMeters>
          </Trackpoint>
          <Trackpoint>
            <Time>2019-08-04T18:54:54.000Z</Time>
            <Position>
              <LatitudeDegrees>-33.525281511247158050537109375</LatitudeDegrees>
              <LongitudeDegrees>-70.226748771965503692626953125</LongitudeDegrees>
            </Position>
            <AltitudeMeters>1561.4000244140625</AltitudeMeters>
            <DistanceMeters>7709.7538332404</DistanceMeters>
          </Trackpoint>
          <Trackpoint>
            <Time>2019-08-04T18:54:55.000Z</Time>
            <Position>
              <LatitudeDegrees>-33.5252686031162738800048828125</LatitudeDegrees>
              <LongitudeDegrees>-70.226744078099727630615234375</LongitudeDegrees>
            </Position>
            <AltitudeMeters>1561.199951171875</AltitudeMeters>
            <DistanceMeters>7711.2563375203</DistanceMeters>
          </Trackpoint>
          <Trackpoint>
            <Time>2019-08-04T18:54:58.000Z</Time>
            <Position>
              <LatitudeDegrees>-33.52523968555033206939697265625</LatitudeDegrees>
              <LongitudeDegrees>-70.22672404535114765167236328125</LongitudeDegrees>
            </Position>
            <AltitudeMeters>1560.199951171875</AltitudeMeters>
            <DistanceMeters>7714.9733278296</DistanceMeters>
          </Trackpoint>
          <Trackpoint>
            <Time>2019-08-04T18:55:04.000Z</Time>
            <Position>
              <LatitudeDegrees>-33.52520414628088474273681640625</LatitudeDegrees>
              <LongitudeDegrees>-70.22667861543595790863037109375</LongitudeDegrees>
            </Position>
            <AltitudeMeters>1559</AltitudeMeters>
            <DistanceMeters>7720.7527960375</DistanceMeters>
          </Trackpoint>
          <Trackpoint>
            <Time>2019-08-04T18:55:09.000Z</Time>
            <Position>
              <LatitudeDegrees>-33.52517665363848209381103515625</LatitudeDegrees>
              <LongitudeDegrees>-70.22665129043161869049072265625</LongitudeDegrees>
            </Position>
            <AltitudeMeters>1557.800048828125</AltitudeMeters>
            <DistanceMeters>7724.7257764834</DistanceMeters>
          </Trackpoint>
          <Trackpoint>
            <Time>2019-08-04T18:55:13.000Z</Time>
            <Position>
              <LatitudeDegrees>-33.5251525975763797760009765625</LatitudeDegrees>
              <LongitudeDegrees>-70.22663779556751251220703125</LongitudeDegrees>
            </Position>
            <AltitudeMeters>1556.4000244140625</AltitudeMeters>
            <DistanceMeters>7727.6823139849</DistanceMeters>
          </Trackpoint>
          <Trackpoint>
            <Time>2019-08-04T18:55:17.000Z</Time>
            <Position>
              <LatitudeDegrees>-33.525116555392742156982421875</LatitudeDegrees>
              <LongitudeDegrees>-70.22662304341793060302734375</LongitudeDegrees>
            </Position>
            <AltitudeMeters>1555.800048828125</AltitudeMeters>
            <DistanceMeters>7731.9214002218</DistanceMeters>
          </Trackpoint>
          <Trackpoint>
            <Time>2019-08-04T18:55:19.000Z</Time>
            <Position>
              <LatitudeDegrees>-33.52509467862546443939208984375</LatitudeDegrees>
              <LongitudeDegrees>-70.22661290131509304046630859375</LongitudeDegrees>
            </Position>
            <AltitudeMeters>1555.4000244140625</AltitudeMeters>
            <DistanceMeters>7734.5307445146</DistanceMeters>
          </Trackpoint>
          <Trackpoint>
            <Time>2019-08-04T18:55:24.000Z</Time>
            <Position>
              <LatitudeDegrees>-33.52511647157371044158935546875</LatitudeDegrees>
              <LongitudeDegrees>-70.22657015360891819000244140625</LongitudeDegrees>
            </Position>
            <AltitudeMeters>1554.4000244140625</AltitudeMeters>
            <DistanceMeters>7739.1792897635</DistanceMeters>
          </Trackpoint>
          <Trackpoint>
            <Time>2019-08-04T18:55:25.000Z</Time>
            <Position>
              <LatitudeDegrees>-33.52512368001043796539306640625</LatitudeDegrees>
              <LongitudeDegrees>-70.22656269371509552001953125</LongitudeDegrees>
            </Position>
            <AltitudeMeters>1554</AltitudeMeters>
            <DistanceMeters>7740.237462471</DistanceMeters>
          </Trackpoint>
          <Trackpoint>
            <Time>2019-08-04T18:55:28.000Z</Time>
            <Position>
              <LatitudeDegrees>-33.52513826452195644378662109375</LatitudeDegrees>
              <LongitudeDegrees>-70.226538889110088348388671875</LongitudeDegrees>
            </Position>
            <AltitudeMeters>1553.4000244140625</AltitudeMeters>
            <DistanceMeters>7742.9784520006</DistanceMeters>
          </Trackpoint>
          <Trackpoint>
            <Time>2019-08-04T18:55:32.000Z</Time>
            <Position>
              <LatitudeDegrees>-33.52516047656536102294921875</LatitudeDegrees>
              <LongitudeDegrees>-70.2265231311321258544921875</LongitudeDegrees>
            </Position>
            <AltitudeMeters>1552.4000244140625</AltitudeMeters>
            <DistanceMeters>7745.851340768</DistanceMeters>
          </Trackpoint>
          <Trackpoint>
            <Time>2019-08-04T18:55:38.000Z</Time>
            <Position>
              <LatitudeDegrees>-33.52518654428422451019287109375</LatitudeDegrees>
              <LongitudeDegrees>-70.22648214362561702728271484375</LongitudeDegrees>
            </Position>
            <AltitudeMeters>1551.199951171875</AltitudeMeters>
            <DistanceMeters>7750.6348764592</DistanceMeters>
          </Trackpoint>
          <Trackpoint>
            <Time>2019-08-04T18:55:44.000Z</Time>
            <Position>
              <LatitudeDegrees>-33.525194339454174041748046875</LatitudeDegrees>
              <LongitudeDegrees>-70.2264274097979068756103515625</LongitudeDegrees>
            </Position>
            <AltitudeMeters>1550.199951171875</AltitudeMeters>
            <DistanceMeters>7755.78739281</DistanceMeters>
          </Trackpoint>
          <Trackpoint>
            <Time>2019-08-04T18:55:49.000Z</Time>
            <Position>
              <LatitudeDegrees>-33.52521068416535854339599609375</LatitudeDegrees>
              <LongitudeDegrees>-70.226374603807926177978515625</LongitudeDegrees>
            </Position>
            <AltitudeMeters>1549.199951171875</AltitudeMeters>
            <DistanceMeters>7761.0129981497</DistanceMeters>
          </Trackpoint>
          <Trackpoint>
            <Time>2019-08-04T18:55:54.000Z</Time>
            <Position>
              <LatitudeDegrees>-33.52521353401243686676025390625</LatitudeDegrees>
              <LongitudeDegrees>-70.226337723433971405029296875</LongitudeDegrees>
            </Position>
            <AltitudeMeters>1548</AltitudeMeters>
            <DistanceMeters>7764.44976116</DistanceMeters>
          </Trackpoint>
          <Trackpoint>
            <Time>2019-08-04T18:55:59.000Z</Time>
            <Position>
              <LatitudeDegrees>-33.52518117986619472503662109375</LatitudeDegrees>
              <LongitudeDegrees>-70.22630394436419010162353515625</LongitudeDegrees>
            </Position>
            <AltitudeMeters>1546.800048828125</AltitudeMeters>
            <DistanceMeters>7769.2238488157</DistanceMeters>
          </Trackpoint>
          <Trackpoint>
            <Time>2019-08-04T18:56:00.000Z</Time>
            <Position>
              <LatitudeDegrees>-33.525169529020786285400390625</LatitudeDegrees>
              <LongitudeDegrees>-70.22630117833614349365234375</LongitudeDegrees>
            </Position>
            <AltitudeMeters>1546.4000244140625</AltitudeMeters>
            <DistanceMeters>7770.5405775947</DistanceMeters>
          </Trackpoint>
          <Trackpoint>
            <Time>2019-08-04T18:56:05.000Z</Time>
            <Position>
              <LatitudeDegrees>-33.52512032724916934967041015625</LatitudeDegrees>
              <LongitudeDegrees>-70.22631702013313770294189453125</LongitudeDegrees>
            </Position>
            <AltitudeMeters>1545.5999755859375</AltitudeMeters>
            <DistanceMeters>7776.2104164055</DistanceMeters>
          </Trackpoint>
          <Trackpoint>
            <Time>2019-08-04T18:56:07.000Z</Time>
            <Position>
              <LatitudeDegrees>-33.52510289289057254791259765625</LatitudeDegrees>
              <LongitudeDegrees>-70.226322971284389495849609375</LongitudeDegrees>
            </Position>
            <AltitudeMeters>1544.800048828125</AltitudeMeters>
            <DistanceMeters>7778.2284759874</DistanceMeters>
          </Trackpoint>
          <Trackpoint>
            <Time>2019-08-04T18:56:09.000Z</Time>
            <Position>
              <LatitudeDegrees>-33.5250912420451641082763671875</LatitudeDegrees>
              <LongitudeDegrees>-70.2263300120830535888671875</LongitudeDegrees>
            </Position>
            <AltitudeMeters>1544.4000244140625</AltitudeMeters>
            <DistanceMeters>7779.6789958292</DistanceMeters>
          </Trackpoint>
          <Trackpoint>
            <Time>2019-08-04T18:56:13.000Z</Time>
            <Position>
              <LatitudeDegrees>-33.52506383322179317474365234375</LatitudeDegrees>
              <LongitudeDegrees>-70.22633026354014873504638671875</LongitudeDegrees>
            </Position>
            <AltitudeMeters>1543.5999755859375</AltitudeMeters>
            <DistanceMeters>7782.7302265339</DistanceMeters>
          </Trackpoint>
          <Trackpoint>
            <Time>2019-08-04T18:56:14.000Z</Time>
            <Position>
              <LatitudeDegrees>-33.5250607319176197052001953125</LatitudeDegrees>
              <LongitudeDegrees>-70.22633193992078304290771484375</LongitudeDegrees>
            </Position>
            <AltitudeMeters>1543.4000244140625</AltitudeMeters>
            <DistanceMeters>7783.1103333914</DistanceMeters>
          </Trackpoint>
          <Trackpoint>
            <Time>2019-08-04T18:56:16.000Z</Time>
            <Position>
              <LatitudeDegrees>-33.52504958398640155792236328125</LatitudeDegrees>
              <LongitudeDegrees>-70.2263331972062587738037109375</LongitudeDegrees>
            </Position>
            <AltitudeMeters>1543.199951171875</AltitudeMeters>
            <DistanceMeters>7784.3565970667</DistanceMeters>
          </Trackpoint>
          <Trackpoint>
            <Time>2019-08-04T18:56:18.000Z</Time>
            <Position>
              <LatitudeDegrees>-33.5250429622828960418701171875</LatitudeDegrees>
              <LongitudeDegrees>-70.22633328102529048919677734375</LongitudeDegrees>
            </Position>
            <AltitudeMeters>1543</AltitudeMeters>
            <DistanceMeters>7785.0926708311</DistanceMeters>
          </Trackpoint>
          <Trackpoint>
            <Time>2019-08-04T18:56:21.000Z</Time>
            <Position>
              <LatitudeDegrees>-33.52503499947488307952880859375</LatitudeDegrees>
              <LongitudeDegrees>-70.226331688463687896728515625</LongitudeDegrees>
            </Position>
            <AltitudeMeters>1543</AltitudeMeters>
            <DistanceMeters>7785.9891510615</DistanceMeters>
          </Trackpoint>
          <Trackpoint>
            <Time>2019-08-04T18:56:23.000Z</Time>
            <Position>
              <LatitudeDegrees>-33.52503734640777111053466796875</LatitudeDegrees>
              <LongitudeDegrees>-70.226329676806926727294921875</LongitudeDegrees>
            </Position>
            <AltitudeMeters>1542.800048828125</AltitudeMeters>
            <DistanceMeters>7786.3183332563</DistanceMeters>
          </Trackpoint>
          <Trackpoint>
            <Time>2019-08-04T18:56:32.000Z</Time>
            <Position>
              <LatitudeDegrees>-33.52503248490393161773681640625</LatitudeDegrees>
              <LongitudeDegrees>-70.2263461053371429443359375</LongitudeDegrees>
            </Position>
            <AltitudeMeters>1542.5999755859375</AltitudeMeters>
            <DistanceMeters>7787.9365798904</DistanceMeters>
          </Trackpoint>
          <Trackpoint>
            <Time>2019-08-04T18:56:36.000Z</Time>
            <Position>
              <LatitudeDegrees>-33.5250391066074371337890625</LatitudeDegrees>
              <LongitudeDegrees>-70.22635390050709247589111328125</LongitudeDegrees>
            </Position>
            <AltitudeMeters>1542.5999755859375</AltitudeMeters>
            <DistanceMeters>7788.9688342294</DistanceMeters>
          </Trackpoint>
          <Trackpoint>
            <Time>2019-08-04T18:56:40.000Z</Time>
            <Position>
              <LatitudeDegrees>-33.52505377493798732757568359375</LatitudeDegrees>
              <LongitudeDegrees>-70.22635892964899539947509765625</LongitudeDegrees>
            </Position>
            <AltitudeMeters>1542.4000244140625</AltitudeMeters>
            <DistanceMeters>7790.6687237734</DistanceMeters>
          </Trackpoint>
          <Trackpoint>
            <Time>2019-08-04T18:56:44.000Z</Time>
            <Position>
              <LatitudeDegrees>-33.5250630788505077362060546875</LatitudeDegrees>
              <LongitudeDegrees>-70.22635616362094879150390625</LongitudeDegrees>
            </Position>
            <AltitudeMeters>1542.199951171875</AltitudeMeters>
            <DistanceMeters>7791.7353959967</DistanceMeters>
          </Trackpoint>
          <Trackpoint>
            <Time>2019-08-04T18:56:45.000Z</Time>
            <Position>
              <LatitudeDegrees>-33.52506433613598346710205078125</LatitudeDegrees>
              <LongitudeDegrees>-70.2263549901545047760009765625</LongitudeDegrees>
            </Position>
            <AltitudeMeters>1542.199951171875</AltitudeMeters>
            <DistanceMeters>7791.869784065</DistanceMeters>
          </Trackpoint>
          <Trackpoint>
            <Time>2019-08-04T18:56:56.000Z</Time>
            <Position>
              <LatitudeDegrees>-33.5250536911189556121826171875</LatitudeDegrees>
              <LongitudeDegrees>-70.22635138593614101409912109375</LongitudeDegrees>
            </Position>
            <AltitudeMeters>1542</AltitudeMeters>
            <DistanceMeters>7793.1014710555</DistanceMeters>
          </Trackpoint>
          <Trackpoint>
            <Time>2019-08-04T18:57:05.000Z</Time>
            <Position>
              <LatitudeDegrees>-33.52506048046052455902099609375</LatitudeDegrees>
              <LongitudeDegrees>-70.2263487875461578369140625</LongitudeDegrees>
            </Position>
            <AltitudeMeters>1542.800048828125</AltitudeMeters>
            <DistanceMeters>7793.8850814167</DistanceMeters>
          </Trackpoint>
          <Trackpoint>
            <Time>2019-08-04T18:57:10.000Z</Time>
            <Position>
              <LatitudeDegrees>-33.52506165392696857452392578125</LatitudeDegrees>
              <LongitudeDegrees>-70.2263449318706989288330078125</LongitudeDegrees>
            </Position>
            <AltitudeMeters>1542.800048828125</AltitudeMeters>
            <DistanceMeters>7794.2651882742</DistanceMeters>
          </Trackpoint>
          <Trackpoint>
            <Time>2019-08-04T18:57:11.000Z</Time>
            <Position>
              <LatitudeDegrees>-33.5250620730221271514892578125</LatitudeDegrees>
              <LongitudeDegrees>-70.22634551860392093658447265625</LongitudeDegrees>
            </Position>
            <AltitudeMeters>1542.800048828125</AltitudeMeters>
            <DistanceMeters>7794.2651882742</DistanceMeters>
          </Trackpoint>
          <Trackpoint>
            <Time>2019-08-04T18:57:12.000Z</Time>
            <Position>
              <LatitudeDegrees>-33.52506165392696857452392578125</LatitudeDegrees>
              <LongitudeDegrees>-70.2263456024229526519775390625</LongitudeDegrees>
            </Position>
            <AltitudeMeters>1542.800048828125</AltitudeMeters>
            <DistanceMeters>7794.2651882742</DistanceMeters>
          </Trackpoint>
          <Trackpoint>
            <Time>2019-08-04T18:57:16.000Z</Time>
            <Position>
              <LatitudeDegrees>-33.52506299503147602081298828125</LatitudeDegrees>
              <LongitudeDegrees>-70.226343758404254913330078125</LongitudeDegrees>
            </Position>
            <AltitudeMeters>1542.800048828125</AltitudeMeters>
            <DistanceMeters>7794.4552417029</DistanceMeters>
          </Trackpoint>
          <Trackpoint>
            <Time>2019-08-04T18:57:24.000Z</Time>
            <Position>
              <LatitudeDegrees>-33.5250563733279705047607421875</LatitudeDegrees>
              <LongitudeDegrees>-70.2263353765010833740234375</LongitudeDegrees>
            </Position>
            <AltitudeMeters>1542.800048828125</AltitudeMeters>
            <DistanceMeters>7795.5303462489</DistanceMeters>
          </Trackpoint>
          <Trackpoint>
            <Time>2019-08-04T18:57:27.000Z</Time>
            <Position>
              <LatitudeDegrees>-33.52505452930927276611328125</LatitudeDegrees>
              <LongitudeDegrees>-70.22633068263530731201171875</LongitudeDegrees>
            </Position>
            <AltitudeMeters>1542.5999755859375</AltitudeMeters>
            <DistanceMeters>7796.0148893198</DistanceMeters>
          </Trackpoint>
          <Trackpoint>
            <Time>2019-08-04T18:57:28.000Z</Time>
            <Position>
              <LatitudeDegrees>-33.52505461312830448150634765625</LatitudeDegrees>
              <LongitudeDegrees>-70.226332359015941619873046875</LongitudeDegrees>
            </Position>
            <AltitudeMeters>1542.5999755859375</AltitudeMeters>
            <DistanceMeters>7796.2049427485</DistanceMeters>
          </Trackpoint>
          <Trackpoint>
            <Time>2019-08-04T18:57:31.000Z</Time>
            <Position>
              <LatitudeDegrees>-33.52505184710025787353515625</LatitudeDegrees>
              <LongitudeDegrees>-70.22633093409240245819091796875</LongitudeDegrees>
            </Position>
            <AltitudeMeters>1542.5999755859375</AltitudeMeters>
            <DistanceMeters>7796.5475664397</DistanceMeters>
          </Trackpoint>
          <Trackpoint>
            <Time>2019-08-04T18:57:40.000Z</Time>
            <Position>
              <LatitudeDegrees>-33.52504874579608440399169921875</LatitudeDegrees>
              <LongitudeDegrees>-70.22634384222328662872314453125</LongitudeDegrees>
            </Position>
            <AltitudeMeters>1542.4000244140625</AltitudeMeters>
            <DistanceMeters>7797.793830115</DistanceMeters>
          </Trackpoint>
          <Trackpoint>
            <Time>2019-08-04T18:57:41.000Z</Time>
            <Position>
              <LatitudeDegrees>-33.52504455484449863433837890625</LatitudeDegrees>
              <LongitudeDegrees>-70.2263407409191131591796875</LongitudeDegrees>
            </Position>
            <AltitudeMeters>1542.4000244140625</AltitudeMeters>
            <DistanceMeters>7798.331382388</DistanceMeters>
          </Trackpoint>
          <Trackpoint>
            <Time>2019-08-04T18:57:46.000Z</Time>
            <Position>
              <LatitudeDegrees>-33.5250349156558513641357421875</LatitudeDegrees>
              <LongitudeDegrees>-70.2263311855494976043701171875</LongitudeDegrees>
            </Position>
            <AltitudeMeters>1543</AltitudeMeters>
            <DistanceMeters>7799.7215033752</DistanceMeters>
          </Trackpoint>
          <Trackpoint>
            <Time>2019-08-04T18:57:53.000Z</Time>
            <Position>
              <LatitudeDegrees>-33.5250178165733814239501953125</LatitudeDegrees>
              <LongitudeDegrees>-70.22634870372712612152099609375</LongitudeDegrees>
            </Position>
            <AltitudeMeters>1543</AltitudeMeters>
            <DistanceMeters>7802.2248757111</DistanceMeters>
          </Trackpoint>
          <Trackpoint>
            <Time>2019-08-04T18:57:55.000Z</Time>
            <Position>
              <LatitudeDegrees>-33.52500767447054386138916015625</LatitudeDegrees>
              <LongitudeDegrees>-70.2263556607067584991455078125</LongitudeDegrees>
            </Position>
            <AltitudeMeters>1543</AltitudeMeters>
            <DistanceMeters>7803.5243464861</DistanceMeters>
          </Trackpoint>
          <Trackpoint>
            <Time>2019-08-04T18:58:03.000Z</Time>
            <Position>
              <LatitudeDegrees>-33.524959646165370941162109375</LatitudeDegrees>
              <LongitudeDegrees>-70.22637628018856048583984375</LongitudeDegrees>
            </Position>
            <AltitudeMeters>1541.5999755859375</AltitudeMeters>
            <DistanceMeters>7809.201347704</DistanceMeters>
          </Trackpoint>
          <Trackpoint>
            <Time>2019-08-04T18:58:04.000Z</Time>
            <Position>
              <LatitudeDegrees>-33.5249500907957553863525390625</LatitudeDegrees>
              <LongitudeDegrees>-70.2263751067221164703369140625</LongitudeDegrees>
            </Position>
            <AltitudeMeters>1540.5999755859375</AltitudeMeters>
            <DistanceMeters>7810.2680199273</DistanceMeters>
          </Trackpoint>
          <Trackpoint>
            <Time>2019-08-04T18:58:05.000Z</Time>
            <Position>
              <LatitudeDegrees>-33.5249400325119495391845703125</LatitudeDegrees>
              <LongitudeDegrees>-70.22637334652245044708251953125</LongitudeDegrees>
            </Position>
            <AltitudeMeters>1541.5999755859375</AltitudeMeters>
            <DistanceMeters>7811.4003939181</DistanceMeters>
          </Trackpoint>
          <Trackpoint>
            <Time>2019-08-04T18:58:06.000Z</Time>
            <Position>
              <LatitudeDegrees>-33.52492787875235080718994140625</LatitudeDegrees>
              <LongitudeDegrees>-70.22637703455984592437744140625</LongitudeDegrees>
            </Position>
            <AltitudeMeters>1542.199951171875</AltitudeMeters>
            <DistanceMeters>7812.7969956909</DistanceMeters>
          </Trackpoint>
          <Trackpoint>
            <Time>2019-08-04T18:58:14.000Z</Time>
            <Position>
              <LatitudeDegrees>-33.52484573610126972198486328125</LatitudeDegrees>
              <LongitudeDegrees>-70.22644325159490108489990234375</LongitudeDegrees>
            </Position>
            <AltitudeMeters>1540.5999755859375</AltitudeMeters>
            <DistanceMeters>7823.8127193283</DistanceMeters>
          </Trackpoint>
          <Trackpoint>
            <Time>2019-08-04T18:58:16.000Z</Time>
            <Position>
              <LatitudeDegrees>-33.5248325765132904052734375</LatitudeDegrees>
              <LongitudeDegrees>-70.226448364555835723876953125</LongitudeDegrees>
            </Position>
            <AltitudeMeters>1540</AltitudeMeters>
            <DistanceMeters>7825.3567206823</DistanceMeters>
          </Trackpoint>
          <Trackpoint>
            <Time>2019-08-04T18:58:20.000Z</Time>
            <Position>
              <LatitudeDegrees>-33.5248045809566974639892578125</LatitudeDegrees>
              <LongitudeDegrees>-70.22647091187536716461181640625</LongitudeDegrees>
            </Position>
            <AltitudeMeters>1539.4000244140625</AltitudeMeters>
            <DistanceMeters>7829.1087720114</DistanceMeters>
          </Trackpoint>
          <Trackpoint>
            <Time>2019-08-04T18:58:26.000Z</Time>
            <Position>
              <LatitudeDegrees>-33.52472771890461444854736328125</LatitudeDegrees>
              <LongitudeDegrees>-70.22647946141660213470458984375</LongitudeDegrees>
            </Position>
            <AltitudeMeters>1539.199951171875</AltitudeMeters>
            <DistanceMeters>7837.700154022</DistanceMeters>
          </Trackpoint>
          <Trackpoint>
            <Time>2019-08-04T18:58:30.000Z</Time>
            <Position>
              <LatitudeDegrees>-33.52467692457139492034912109375</LatitudeDegrees>
              <LongitudeDegrees>-70.226468145847320556640625</LongitudeDegrees>
            </Position>
            <AltitudeMeters>1538.199951171875</AltitudeMeters>
            <DistanceMeters>7843.4506444305</DistanceMeters>
          </Trackpoint>
          <Trackpoint>
            <Time>2019-08-04T18:58:31.000Z</Time>
            <Position>
              <LatitudeDegrees>-33.52466384880244731903076171875</LatitudeDegrees>
              <LongitudeDegrees>-70.22646504454314708709716796875</LongitudeDegrees>
            </Position>
            <AltitudeMeters>1538</AltitudeMeters>
            <DistanceMeters>7844.9350091607</DistanceMeters>
          </Trackpoint>
          <Trackpoint>
            <Time>2019-08-04T18:58:33.000Z</Time>
            <Position>
              <LatitudeDegrees>-33.524639122188091278076171875</LatitudeDegrees>
              <LongitudeDegrees>-70.22646403871476650238037109375</LongitudeDegrees>
            </Position>
            <AltitudeMeters>1537.5999755859375</AltitudeMeters>
            <DistanceMeters>7847.6891449985</DistanceMeters>
          </Trackpoint>
          <Trackpoint>
            <Time>2019-08-04T18:58:34.000Z</Time>
            <Position>
              <LatitudeDegrees>-33.524626381695270538330078125</LatitudeDegrees>
              <LongitudeDegrees>-70.22646403871476650238037109375</LongitudeDegrees>
            </Position>
            <AltitudeMeters>1537.199951171875</AltitudeMeters>
            <DistanceMeters>7849.1081964588</DistanceMeters>
          </Trackpoint>
          <Trackpoint>
            <Time>2019-08-04T18:58:35.000Z</Time>
            <Position>
              <LatitudeDegrees>-33.52461674250662326812744140625</LatitudeDegrees>
              <LongitudeDegrees>-70.22646521218121051788330078125</LongitudeDegrees>
            </Position>
            <AltitudeMeters>1536.5999755859375</AltitudeMeters>
            <DistanceMeters>7850.1916677033</DistanceMeters>
          </Trackpoint>
          <Trackpoint>
            <Time>2019-08-04T18:58:36.000Z</Time>
            <Position>
              <LatitudeDegrees>-33.52460869587957859039306640625</LatitudeDegrees>
              <LongitudeDegrees>-70.22646320052444934844970703125</LongitudeDegrees>
            </Position>
            <AltitudeMeters>1536.199951171875</AltitudeMeters>
            <DistanceMeters>7851.1080721497</DistanceMeters>
          </Trackpoint>
          <Trackpoint>
            <Time>2019-08-04T18:58:37.000Z</Time>
            <Position>
              <LatitudeDegrees>-33.52459679357707500457763671875</LatitudeDegrees>
              <LongitudeDegrees>-70.22645942866802215576171875</LongitudeDegrees>
            </Position>
            <AltitudeMeters>1536</AltitudeMeters>
            <DistanceMeters>7852.4785669145</DistanceMeters>
          </Trackpoint>
          <Trackpoint>
            <Time>2019-08-04T18:58:39.000Z</Time>
            <Position>
              <LatitudeDegrees>-33.52457215078175067901611328125</LatitudeDegrees>
              <LongitudeDegrees>-70.226451717317104339599609375</LongitudeDegrees>
            </Position>
            <AltitudeMeters>1535</AltitudeMeters>
            <DistanceMeters>7855.3134863199</DistanceMeters>
          </Trackpoint>
          <Trackpoint>
            <Time>2019-08-04T18:58:43.000Z</Time>
            <Position>
              <LatitudeDegrees>-33.52452554740011692047119140625</LatitudeDegrees>
              <LongitudeDegrees>-70.2264431677758693695068359375</LongitudeDegrees>
            </Position>
            <AltitudeMeters>1534</AltitudeMeters>
            <DistanceMeters>7860.5597872073</DistanceMeters>
          </Trackpoint>
          <Trackpoint>
            <Time>2019-08-04T18:58:44.000Z</Time>
            <Position>
              <LatitudeDegrees>-33.52451532147824764251708984375</LatitudeDegrees>
              <LongitudeDegrees>-70.226440988481044769287109375</LongitudeDegrees>
            </Position>
            <AltitudeMeters>1533.5999755859375</AltitudeMeters>
            <DistanceMeters>7861.7158370823</DistanceMeters>
          </Trackpoint>
          <Trackpoint>
            <Time>2019-08-04T18:58:46.000Z</Time>
            <Position>
              <LatitudeDegrees>-33.524494282901287078857421875</LatitudeDegrees>
              <LongitudeDegrees>-70.226434953510761260986328125</LongitudeDegrees>
            </Position>
            <AltitudeMeters>1532.800048828125</AltitudeMeters>
            <DistanceMeters>7864.1235972608</DistanceMeters>
          </Trackpoint>
          <Trackpoint>
            <Time>2019-08-04T18:58:48.000Z</Time>
            <Position>
              <LatitudeDegrees>-33.52447743527591228485107421875</LatitudeDegrees>
              <LongitudeDegrees>-70.22643554024398326873779296875</LongitudeDegrees>
            </Position>
            <AltitudeMeters>1532.199951171875</AltitudeMeters>
            <DistanceMeters>7866.0002245049</DistanceMeters>
          </Trackpoint>
          <Trackpoint>
            <Time>2019-08-04T18:58:50.000Z</Time>
            <Position>
              <LatitudeDegrees>-33.52445664815604686737060546875</LatitudeDegrees>
              <LongitudeDegrees>-70.22642648778855800628662109375</LongitudeDegrees>
            </Position>
            <AltitudeMeters>1532</AltitudeMeters>
            <DistanceMeters>7868.4599300193</DistanceMeters>
          </Trackpoint>
          <Trackpoint>
            <Time>2019-08-04T18:58:53.000Z</Time>
            <Position>
              <LatitudeDegrees>-33.5244330950081348419189453125</LatitudeDegrees>
              <LongitudeDegrees>-70.22643134929239749908447265625</LongitudeDegrees>
            </Position>
            <AltitudeMeters>1531.800048828125</AltitudeMeters>
            <DistanceMeters>7871.1172820432</DistanceMeters>
          </Trackpoint>
          <Trackpoint>
            <Time>2019-08-04T18:58:54.000Z</Time>
            <Position>
              <LatitudeDegrees>-33.52442312054336071014404296875</LatitudeDegrees>
              <LongitudeDegrees>-70.22643470205366611480712890625</LongitudeDegrees>
            </Position>
            <AltitudeMeters>1531.5999755859375</AltitudeMeters>
            <DistanceMeters>7872.2654942017</DistanceMeters>
          </Trackpoint>
          <Trackpoint>
            <Time>2019-08-04T18:58:56.000Z</Time>
            <Position>
              <LatitudeDegrees>-33.5244025848805904388427734375</LatitudeDegrees>
              <LongitudeDegrees>-70.2264401502907276153564453125</LongitudeDegrees>
            </Position>
            <AltitudeMeters>1531.199951171875</AltitudeMeters>
            <DistanceMeters>7874.6067025225</DistanceMeters>
          </Trackpoint>
          <Trackpoint>
            <Time>2019-08-04T18:58:58.000Z</Time>
            <Position>
              <LatitudeDegrees>-33.5243814624845981597900390625</LatitudeDegrees>
              <LongitudeDegrees>-70.2264428324997425079345703125</LongitudeDegrees>
            </Position>
            <AltitudeMeters>1530.800048828125</AltitudeMeters>
            <DistanceMeters>7876.9709396761</DistanceMeters>
          </Trackpoint>
          <Trackpoint>
            <Time>2019-08-04T18:58:59.000Z</Time>
            <Position>
              <LatitudeDegrees>-33.52436997927725315093994140625</LatitudeDegrees>
              <LongitudeDegrees>-70.22644358687102794647216796875</LongitudeDegrees>
            </Position>
            <AltitudeMeters>1530.5999755859375</AltitudeMeters>
            <DistanceMeters>7878.2493933657</DistanceMeters>
          </Trackpoint>
          <Trackpoint>
            <Time>2019-08-04T18:59:01.000Z</Time>
            <Position>
              <LatitudeDegrees>-33.52434416301548480987548828125</LatitudeDegrees>
              <LongitudeDegrees>-70.2264445088803768157958984375</LongitudeDegrees>
            </Position>
            <AltitudeMeters>1530.4000244140625</AltitudeMeters>
            <DistanceMeters>7881.1238533056</DistanceMeters>
          </Trackpoint>
          <Trackpoint>
            <Time>2019-08-04T18:59:04.000Z</Time>
            <Position>
              <LatitudeDegrees>-33.52430895902216434478759765625</LatitudeDegrees>
              <LongitudeDegrees>-70.2264455147087574005126953125</LongitudeDegrees>
            </Position>
            <AltitudeMeters>1529.800048828125</AltitudeMeters>
            <DistanceMeters>7885.0430573104</DistanceMeters>
          </Trackpoint>
          <Trackpoint>
            <Time>2019-08-04T18:59:05.000Z</Time>
            <Position>
              <LatitudeDegrees>-33.52429621852934360504150390625</LatitudeDegrees>
              <LongitudeDegrees>-70.22644543088972568511962890625</LongitudeDegrees>
            </Position>
            <AltitudeMeters>1529.5999755859375</AltitudeMeters>
            <DistanceMeters>7886.4652869415</DistanceMeters>
          </Trackpoint>
          <Trackpoint>
            <Time>2019-08-04T18:59:09.000Z</Time>
            <Position>
              <LatitudeDegrees>-33.524256907403469085693359375</LatitudeDegrees>
              <LongitudeDegrees>-70.22644258104264736175537109375</LongitudeDegrees>
            </Position>
            <AltitudeMeters>1528.4000244140625</AltitudeMeters>
            <DistanceMeters>7890.848893068</DistanceMeters>
          </Trackpoint>
          <Trackpoint>
            <Time>2019-08-04T18:59:11.000Z</Time>
            <Position>
              <LatitudeDegrees>-33.52423938922584056854248046875</LatitudeDegrees>
              <LongitudeDegrees>-70.22644895128905773162841796875</LongitudeDegrees>
            </Position>
            <AltitudeMeters>1528</AltitudeMeters>
            <DistanceMeters>7892.8892031525</DistanceMeters>
          </Trackpoint>
          <Trackpoint>
            <Time>2019-08-04T18:59:13.000Z</Time>
            <Position>
              <LatitudeDegrees>-33.52421499788761138916015625</LatitudeDegrees>
              <LongitudeDegrees>-70.2264428324997425079345703125</LongitudeDegrees>
            </Position>
            <AltitudeMeters>1527.4000244140625</AltitudeMeters>
            <DistanceMeters>7895.6629416279</DistanceMeters>
          </Trackpoint>
          <Trackpoint>
            <Time>2019-08-04T18:59:14.000Z</Time>
            <Position>
              <LatitudeDegrees>-33.5242024250328540802001953125</LatitudeDegrees>
              <LongitudeDegrees>-70.22643654607236385345458984375</LongitudeDegrees>
            </Position>
            <AltitudeMeters>1527.199951171875</AltitudeMeters>
            <DistanceMeters>7897.1803965674</DistanceMeters>
          </Trackpoint>
          <Trackpoint>
            <Time>2019-08-04T18:59:20.000Z</Time>
            <Position>
              <LatitudeDegrees>-33.524141572415828704833984375</LatitudeDegrees>
              <LongitudeDegrees>-70.2263863384723663330078125</LongitudeDegrees>
            </Position>
            <AltitudeMeters>1526.4000244140625</AltitudeMeters>
            <DistanceMeters>7905.4011685571</DistanceMeters>
          </Trackpoint>
          <Trackpoint>
            <Time>2019-08-04T18:59:21.000Z</Time>
            <Position>
              <LatitudeDegrees>-33.52413411252200603485107421875</LatitudeDegrees>
              <LongitudeDegrees>-70.2263756096363067626953125</LongitudeDegrees>
            </Position>
            <AltitudeMeters>1526.199951171875</AltitudeMeters>
            <DistanceMeters>7906.6971601537</DistanceMeters>
          </Trackpoint>
          <Trackpoint>
            <Time>2019-08-04T18:59:26.000Z</Time>
            <Position>
              <LatitudeDegrees>-33.5241031832993030548095703125</LatitudeDegrees>
              <LongitudeDegrees>-70.22630780003964900970458984375</LongitudeDegrees>
            </Position>
            <AltitudeMeters>1525</AltitudeMeters>
            <DistanceMeters>7913.869001997</DistanceMeters>
          </Trackpoint>
          <Trackpoint>
            <Time>2019-08-04T18:59:29.000Z</Time>
            <Position>
              <LatitudeDegrees>-33.52408750914037227630615234375</LatitudeDegrees>
              <LongitudeDegrees>-70.22627108730375766754150390625</LongitudeDegrees>
            </Position>
            <AltitudeMeters>1524.199951171875</AltitudeMeters>
            <DistanceMeters>7917.6961137006</DistanceMeters>
          </Trackpoint>
          <Trackpoint>
            <Time>2019-08-04T18:59:30.000Z</Time>
            <Position>
              <LatitudeDegrees>-33.52408197708427906036376953125</LatitudeDegrees>
              <LongitudeDegrees>-70.22626069374382495880126953125</LongitudeDegrees>
            </Position>
            <AltitudeMeters>1524</AltitudeMeters>
            <DistanceMeters>7918.8403868692</DistanceMeters>
          </Trackpoint>
          <Trackpoint>
            <Time>2019-08-04T18:59:32.000Z</Time>
            <Position>
              <LatitudeDegrees>-33.5240730084478855133056640625</LatitudeDegrees>
              <LongitudeDegrees>-70.22625365294516086578369140625</LongitudeDegrees>
            </Position>
            <AltitudeMeters>1523.5999755859375</AltitudeMeters>
            <DistanceMeters>7920.0348541472</DistanceMeters>
          </Trackpoint>
          <Trackpoint>
            <Time>2019-08-04T18:59:35.000Z</Time>
            <Position>
              <LatitudeDegrees>-33.52406068705022335052490234375</LatitudeDegrees>
              <LongitudeDegrees>-70.22623051889240741729736328125</LongitudeDegrees>
            </Position>
            <AltitudeMeters>1523</AltitudeMeters>
            <DistanceMeters>7922.581144564</DistanceMeters>
          </Trackpoint>
          <Trackpoint>
            <Time>2019-08-04T18:59:38.000Z</Time>
            <Position>
              <LatitudeDegrees>-33.52406118996441364288330078125</LatitudeDegrees>
              <LongitudeDegrees>-70.2261959016323089599609375</LongitudeDegrees>
            </Position>
            <AltitudeMeters>1522.199951171875</AltitudeMeters>
            <DistanceMeters>7925.7952396858</DistanceMeters>
          </Trackpoint>
          <Trackpoint>
            <Time>2019-08-04T18:59:41.000Z</Time>
            <Position>
              <LatitudeDegrees>-33.524077869951725006103515625</LatitudeDegrees>
              <LongitudeDegrees>-70.22616514004766941070556640625</LongitudeDegrees>
            </Position>
            <AltitudeMeters>1522</AltitudeMeters>
            <DistanceMeters>7929.2003267851</DistanceMeters>
          </Trackpoint>
          <Trackpoint>
            <Time>2019-08-04T18:59:45.000Z</Time>
            <Position>
              <LatitudeDegrees>-33.52407954633235931396484375</LatitudeDegrees>
              <LongitudeDegrees>-70.2261253260076045989990234375</LongitudeDegrees>
            </Position>
            <AltitudeMeters>1521.5999755859375</AltitudeMeters>
            <DistanceMeters>7932.9002721751</DistanceMeters>
          </Trackpoint>
          <Trackpoint>
            <Time>2019-08-04T18:59:47.000Z</Time>
            <Position>
              <LatitudeDegrees>-33.52406638674437999725341796875</LatitudeDegrees>
              <LongitudeDegrees>-70.22611149586737155914306640625</LongitudeDegrees>
            </Position>
            <AltitudeMeters>1520.800048828125</AltitudeMeters>
            <DistanceMeters>7934.8430979402</DistanceMeters>
          </Trackpoint>
          <Trackpoint>
            <Time>2019-08-04T18:59:49.000Z</Time>
            <Position>
              <LatitudeDegrees>-33.52406269870698451995849609375</LatitudeDegrees>
              <LongitudeDegrees>-70.22608987055718898773193359375</LongitudeDegrees>
            </Position>
            <AltitudeMeters>1520.5999755859375</AltitudeMeters>
            <DistanceMeters>7936.8922405771</DistanceMeters>
          </Trackpoint>
          <Trackpoint>
            <Time>2019-08-04T18:59:53.000Z</Time>
            <Position>
              <LatitudeDegrees>-33.524069823324680328369140625</LatitudeDegrees>
              <LongitudeDegrees>-70.2260495536029338836669921875</LongitudeDegrees>
            </Position>
            <AltitudeMeters>1519.800048828125</AltitudeMeters>
            <DistanceMeters>7940.7169920513</DistanceMeters>
          </Trackpoint>
          <Trackpoint>
            <Time>2019-08-04T18:59:57.000Z</Time>
            <Position>
              <LatitudeDegrees>-33.5240646265447139739990234375</LatitudeDegrees>
              <LongitudeDegrees>-70.2260304428637027740478515625</LongitudeDegrees>
            </Position>
            <AltitudeMeters>1518</AltitudeMeters>
            <DistanceMeters>7942.5791277484</DistanceMeters>
          </Trackpoint>
          <Trackpoint>
            <Time>2019-08-04T18:59:59.000Z</Time>
            <Position>
              <LatitudeDegrees>-33.52406638674437999725341796875</LatitudeDegrees>
              <LongitudeDegrees>-70.226020552217960357666015625</LongitudeDegrees>
            </Position>
            <AltitudeMeters>1517</AltitudeMeters>
            <DistanceMeters>7943.510195597</DistanceMeters>
          </Trackpoint>
          <Trackpoint>
            <Time>2019-08-04T19:00:00.000Z</Time>
            <Position>
              <LatitudeDegrees>-33.52406890131533145904541015625</LatitudeDegrees>
              <LongitudeDegrees>-70.2260133437812328338623046875</LongitudeDegrees>
            </Position>
            <AltitudeMeters>1516.800048828125</AltitudeMeters>
            <DistanceMeters>7944.2338974926</DistanceMeters>
          </Trackpoint>
          <Trackpoint>
            <Time>2019-08-04T19:00:05.000Z</Time>
            <Position>
              <LatitudeDegrees>-33.5240471921861171722412109375</LatitudeDegrees>
              <LongitudeDegrees>-70.22595341317355632781982421875</LongitudeDegrees>
            </Position>
            <AltitudeMeters>1516.199951171875</AltitudeMeters>
            <DistanceMeters>7950.2962741822</DistanceMeters>
          </Trackpoint>
          <Trackpoint>
            <Time>2019-08-04T19:00:09.000Z</Time>
            <Position>
              <LatitudeDegrees>-33.52402992546558380126953125</LatitudeDegrees>
              <LongitudeDegrees>-70.22590027190744876861572265625</LongitudeDegrees>
            </Position>
            <AltitudeMeters>1516</AltitudeMeters>
            <DistanceMeters>7955.5871377201</DistanceMeters>
          </Trackpoint>
          <Trackpoint>
            <Time>2019-08-04T19:00:10.000Z</Time>
            <Position>
              <LatitudeDegrees>-33.52403755299746990203857421875</LatitudeDegrees>
              <LongitudeDegrees>-70.22587814368307590484619140625</LongitudeDegrees>
            </Position>
            <AltitudeMeters>1515.5999755859375</AltitudeMeters>
            <DistanceMeters>7957.8075930199</DistanceMeters>
          </Trackpoint>
          <Trackpoint>
            <Time>2019-08-04T19:00:11.000Z</Time>
            <Position>
              <LatitudeDegrees>-33.52403487078845500946044921875</LatitudeDegrees>
              <LongitudeDegrees>-70.22586490027606487274169921875</LongitudeDegrees>
            </Position>
            <AltitudeMeters>1515.4000244140625</AltitudeMeters>
            <DistanceMeters>7959.0682648464</DistanceMeters>
          </Trackpoint>
          <Trackpoint>
            <Time>2019-08-04T19:00:13.000Z</Time>
            <Position>
              <LatitudeDegrees>-33.52403537370264530181884765625</LatitudeDegrees>
              <LongitudeDegrees>-70.225843526422977447509765625</LongitudeDegrees>
            </Position>
            <AltitudeMeters>1514.199951171875</AltitudeMeters>
            <DistanceMeters>7961.0547550694</DistanceMeters>
          </Trackpoint>
          <Trackpoint>
            <Time>2019-08-04T19:00:16.000Z</Time>
            <Position>
              <LatitudeDegrees>-33.524031937122344970703125</LatitudeDegrees>
              <LongitudeDegrees>-70.225819051265716552734375</LongitudeDegrees>
            </Position>
            <AltitudeMeters>1513.199951171875</AltitudeMeters>
            <DistanceMeters>7963.3570701809</DistanceMeters>
          </Trackpoint>
          <Trackpoint>
            <Time>2019-08-04T19:00:18.000Z</Time>
            <Position>
              <LatitudeDegrees>-33.52402749471366405487060546875</LatitudeDegrees>
              <LongitudeDegrees>-70.22580119781196117401123046875</LongitudeDegrees>
            </Position>
            <AltitudeMeters>1512.5999755859375</AltitudeMeters>
            <DistanceMeters>7965.0833161733</DistanceMeters>
          </Trackpoint>
          <Trackpoint>
            <Time>2019-08-04T19:00:20.000Z</Time>
            <Position>
              <LatitudeDegrees>-33.52401860989630222320556640625</LatitudeDegrees>
              <LongitudeDegrees>-70.22578309290111064910888671875</LongitudeDegrees>
            </Position>
            <AltitudeMeters>1512.199951171875</AltitudeMeters>
            <DistanceMeters>7967.0354156225</DistanceMeters>
          </Trackpoint>
          <Trackpoint>
            <Time>2019-08-04T19:00:22.000Z</Time>
            <Position>
              <LatitudeDegrees>-33.524007461965084075927734375</LatitudeDegrees>
              <LongitudeDegrees>-70.22577169351279735565185546875</LongitudeDegrees>
            </Position>
            <AltitudeMeters>1511.5999755859375</AltitudeMeters>
            <DistanceMeters>7968.6647843575</DistanceMeters>
          </Trackpoint>
          <Trackpoint>
            <Time>2019-08-04T19:00:24.000Z</Time>
            <Position>
              <LatitudeDegrees>-33.52399379946291446685791015625</LatitudeDegrees>
              <LongitudeDegrees>-70.22577345371246337890625</LongitudeDegrees>
            </Position>
            <AltitudeMeters>1511</AltitudeMeters>
            <DistanceMeters>7970.1940945938</DistanceMeters>
          </Trackpoint>
          <Trackpoint>
            <Time>2019-08-04T19:00:27.000Z</Time>
            <Position>
              <LatitudeDegrees>-33.523970581591129302978515625</LatitudeDegrees>
              <LongitudeDegrees>-70.225775800645351409912109375</LongitudeDegrees>
            </Position>
            <AltitudeMeters>1510.5999755859375</AltitudeMeters>
            <DistanceMeters>7972.7895592973</DistanceMeters>
          </Trackpoint>
          <Trackpoint>
            <Time>2019-08-04T19:00:30.000Z</Time>
            <Position>
              <LatitudeDegrees>-33.5239533148705959320068359375</LatitudeDegrees>
              <LongitudeDegrees>-70.22578275762498378753662109375</LongitudeDegrees>
            </Position>
            <AltitudeMeters>1510</AltitudeMeters>
            <DistanceMeters>7974.818774628</DistanceMeters>
          </Trackpoint>
          <Trackpoint>
            <Time>2019-08-04T19:00:31.000Z</Time>
            <Position>
              <LatitudeDegrees>-33.52394719608128070831298828125</LatitudeDegrees>
              <LongitudeDegrees>-70.2257816679775714874267578125</LongitudeDegrees>
            </Position>
            <AltitudeMeters>1510</AltitudeMeters>
            <DistanceMeters>7975.5105795511</DistanceMeters>
          </Trackpoint>
          <Trackpoint>
            <Time>2019-08-04T19:00:35.000Z</Time>
            <Position>
              <LatitudeDegrees>-33.5239254869520664215087890625</LatitudeDegrees>
              <LongitudeDegrees>-70.2257974259555339813232421875</LongitudeDegrees>
            </Position>
            <AltitudeMeters>1508.800048828125</AltitudeMeters>
            <DistanceMeters>7978.3359268884</DistanceMeters>
          </Trackpoint>
          <Trackpoint>
            <Time>2019-08-04T19:00:37.000Z</Time>
            <Position>
              <LatitudeDegrees>-33.52391148917376995086669921875</LatitudeDegrees>
              <LongitudeDegrees>-70.2258014492690563201904296875</LongitudeDegrees>
            </Position>
            <AltitudeMeters>1508.199951171875</AltitudeMeters>
            <DistanceMeters>7979.9373455439</DistanceMeters>
          </Trackpoint>
          <Trackpoint>
            <Time>2019-08-04T19:00:39.000Z</Time>
            <Position>
              <LatitudeDegrees>-33.5238943062722682952880859375</LatitudeDegrees>
              <LongitudeDegrees>-70.225809328258037567138671875</LongitudeDegrees>
            </Position>
            <AltitudeMeters>1507.800048828125</AltitudeMeters>
            <DistanceMeters>7981.9842836157</DistanceMeters>
          </Trackpoint>
          <Trackpoint>
            <Time>2019-08-04T19:00:41.000Z</Time>
            <Position>
              <LatitudeDegrees>-33.52387569844722747802734375</LatitudeDegrees>
              <LongitudeDegrees>-70.22582114674150943756103515625</LongitudeDegrees>
            </Position>
            <AltitudeMeters>1507.4000244140625</AltitudeMeters>
            <DistanceMeters>7984.3274196506</DistanceMeters>
          </Trackpoint>
          <Trackpoint>
            <Time>2019-08-04T19:00:45.000Z</Time>
            <Position>
              <LatitudeDegrees>-33.523853234946727752685546875</LatitudeDegrees>
              <LongitudeDegrees>-70.22583086974918842315673828125</LongitudeDegrees>
            </Position>
            <AltitudeMeters>1506.800048828125</AltitudeMeters>
            <DistanceMeters>7986.9847716745</DistanceMeters>
          </Trackpoint>
          <Trackpoint>
            <Time>2019-08-04T19:00:46.000Z</Time>
            <Position>
              <LatitudeDegrees>-33.5238470323383808135986328125</LatitudeDegrees>
              <LongitudeDegrees>-70.22583304904401302337646484375</LongitudeDegrees>
            </Position>
            <AltitudeMeters>1506.199951171875</AltitudeMeters>
            <DistanceMeters>7987.7084735702</DistanceMeters>
          </Trackpoint>
          <Trackpoint>
            <Time>2019-08-04T19:00:52.000Z</Time>
            <Position>
              <LatitudeDegrees>-33.5237903706729412078857421875</LatitudeDegrees>
              <LongitudeDegrees>-70.22587445564568042755126953125</LongitudeDegrees>
            </Position>
            <AltitudeMeters>1505.199951171875</AltitudeMeters>
            <DistanceMeters>7995.0937062491</DistanceMeters>
          </Trackpoint>
          <Trackpoint>
            <Time>2019-08-04T19:00:55.000Z</Time>
            <Position>
              <LatitudeDegrees>-33.52376363240182399749755859375</LatitudeDegrees>
              <LongitudeDegrees>-70.225907899439334869384765625</LongitudeDegrees>
            </Position>
            <AltitudeMeters>1504.199951171875</AltitudeMeters>
            <DistanceMeters>7999.3941244331</DistanceMeters>
          </Trackpoint>
          <Trackpoint>
            <Time>2019-08-04T19:00:56.000Z</Time>
            <Position>
              <LatitudeDegrees>-33.52375977672636508941650390625</LatitudeDegrees>
              <LongitudeDegrees>-70.2259169518947601318359375</LongitudeDegrees>
            </Position>
            <AltitudeMeters>1504</AltitudeMeters>
            <DistanceMeters>8000.3348409108</DistanceMeters>
          </Trackpoint>
          <Trackpoint>
            <Time>2019-08-04T19:01:01.000Z</Time>
            <Position>
              <LatitudeDegrees>-33.5237226448953151702880859375</LatitudeDegrees>
              <LongitudeDegrees>-70.22594821639358997344970703125</LongitudeDegrees>
            </Position>
            <AltitudeMeters>1503</AltitudeMeters>
            <DistanceMeters>8005.3846860448</DistanceMeters>
          </Trackpoint>
          <Trackpoint>
            <Time>2019-08-04T19:01:03.000Z</Time>
            <Position>
              <LatitudeDegrees>-33.52369825355708599090576171875</LatitudeDegrees>
              <LongitudeDegrees>-70.2259543351829051971435546875</LongitudeDegrees>
            </Position>
            <AltitudeMeters>1502.800048828125</AltitudeMeters>
            <DistanceMeters>8008.1584245203</DistanceMeters>
          </Trackpoint>
          <Trackpoint>
            <Time>2019-08-04T19:01:05.000Z</Time>
            <Position>
              <LatitudeDegrees>-33.52367830462753772735595703125</LatitudeDegrees>
              <LongitudeDegrees>-70.2259613759815692901611328125</LongitudeDegrees>
            </Position>
            <AltitudeMeters>1502.5999755859375</AltitudeMeters>
            <DistanceMeters>8010.4705242705</DistanceMeters>
          </Trackpoint>
          <Trackpoint>
            <Time>2019-08-04T19:01:09.000Z</Time>
            <Position>
              <LatitudeDegrees>-33.523638658225536346435546875</LatitudeDegrees>
              <LongitudeDegrees>-70.22598761133849620819091796875</LongitudeDegrees>
            </Position>
            <AltitudeMeters>1502.199951171875</AltitudeMeters>
            <DistanceMeters>8015.5087327699</DistanceMeters>
          </Trackpoint>
          <Trackpoint>
            <Time>2019-08-04T19:01:11.000Z</Time>
            <Position>
              <LatitudeDegrees>-33.52362063713371753692626953125</LatitudeDegrees>
              <LongitudeDegrees>-70.22600051946938037872314453125</LongitudeDegrees>
            </Position>
            <AltitudeMeters>1501.5999755859375</AltitudeMeters>
            <DistanceMeters>8017.8441484015</DistanceMeters>
          </Trackpoint>
          <Trackpoint>
            <Time>2019-08-04T19:01:13.000Z</Time>
            <Position>
              <LatitudeDegrees>-33.52360538206994533538818359375</LatitudeDegrees>
              <LongitudeDegrees>-70.22601678036153316497802734375</LongitudeDegrees>
            </Position>
            <AltitudeMeters>1500.4000244140625</AltitudeMeters>
            <DistanceMeters>8020.1128801117</DistanceMeters>
          </Trackpoint>
          <Trackpoint>
            <Time>2019-08-04T19:01:16.000Z</Time>
            <Position>
              <LatitudeDegrees>-33.5235781408846378326416015625</LatitudeDegrees>
              <LongitudeDegrees>-70.22603874094784259796142578125</LongitudeDegrees>
            </Position>
            <AltitudeMeters>1499.5999755859375</AltitudeMeters>
            <DistanceMeters>8023.7661598689</DistanceMeters>
          </Trackpoint>
          <Trackpoint>
            <Time>2019-08-04T19:01:18.000Z</Time>
            <Position>
              <LatitudeDegrees>-33.52355743758380413055419921875</LatitudeDegrees>
              <LongitudeDegrees>-70.22605550475418567657470703125</LongitudeDegrees>
            </Position>
            <AltitudeMeters>1499.4000244140625</AltitudeMeters>
            <DistanceMeters>8026.5464018433</DistanceMeters>
          </Trackpoint>
          <Trackpoint>
            <Time>2019-08-04T19:01:20.000Z</Time>
            <Position>
              <LatitudeDegrees>-33.52353765629231929779052734375</LatitudeDegrees>
              <LongitudeDegrees>-70.22605801932513713836669921875</LongitudeDegrees>
            </Position>
            <AltitudeMeters>1499</AltitudeMeters>
            <DistanceMeters>8028.7587086558</DistanceMeters>
          </Trackpoint>
          <Trackpoint>
            <Time>2019-08-04T19:01:23.000Z</Time>
            <Position>
              <LatitudeDegrees>-33.52351184003055095672607421875</LatitudeDegrees>
              <LongitudeDegrees>-70.22606187500059604644775390625</LongitudeDegrees>
            </Position>
            <AltitudeMeters>1498.4000244140625</AltitudeMeters>
            <DistanceMeters>8031.6535162383</DistanceMeters>
          </Trackpoint>
          <Trackpoint>
            <Time>2019-08-04T19:01:25.000Z</Time>
            <Position>
              <LatitudeDegrees>-33.52349842898547649383544921875</LatitudeDegrees>
              <LongitudeDegrees>-70.226068831980228424072265625</LongitudeDegrees>
            </Position>
            <AltitudeMeters>1497.800048828125</AltitudeMeters>
            <DistanceMeters>8033.2773334453</DistanceMeters>
          </Trackpoint>
          <Trackpoint>
            <Time>2019-08-04T19:01:26.000Z</Time>
            <Position>
              <LatitudeDegrees>-33.5234896279871463775634765625</LatitudeDegrees>
              <LongitudeDegrees>-70.22607319056987762451171875</LongitudeDegrees>
            </Position>
            <AltitudeMeters>1497.5999755859375</AltitudeMeters>
            <DistanceMeters>8034.3355061529</DistanceMeters>
          </Trackpoint>
          <Trackpoint>
            <Time>2019-08-04T19:01:28.000Z</Time>
            <Position>
              <LatitudeDegrees>-33.523468337953090667724609375</LatitudeDegrees>
              <LongitudeDegrees>-70.226089619100093841552734375</LongitudeDegrees>
            </Position>
            <AltitudeMeters>1497.4000244140625</AltitudeMeters>
            <DistanceMeters>8037.152851924</DistanceMeters>
          </Trackpoint>
          <Trackpoint>
            <Time>2019-08-04T19:01:34.000Z</Time>
            <Position>
              <LatitudeDegrees>-33.52340354584157466888427734375</LatitudeDegrees>
              <LongitudeDegrees>-70.226112417876720428466796875</LongitudeDegrees>
            </Position>
            <AltitudeMeters>1496.199951171875</AltitudeMeters>
            <DistanceMeters>8044.6677769456</DistanceMeters>
          </Trackpoint>
          <Trackpoint>
            <Time>2019-08-04T19:01:41.000Z</Time>
            <Position>
              <LatitudeDegrees>-33.5233357362449169158935546875</LatitudeDegrees>
              <LongitudeDegrees>-70.22610227577388286590576171875</LongitudeDegrees>
            </Position>
            <AltitudeMeters>1495.199951171875</AltitudeMeters>
            <DistanceMeters>8052.2734767622</DistanceMeters>
          </Trackpoint>
          <Trackpoint>
            <Time>2019-08-04T19:01:45.000Z</Time>
            <Position>
              <LatitudeDegrees>-33.52330304682254791259765625</LatitudeDegrees>
              <LongitudeDegrees>-70.22607721388339996337890625</LongitudeDegrees>
            </Position>
            <AltitudeMeters>1494.4000244140625</AltitudeMeters>
            <DistanceMeters>8056.5917064755</DistanceMeters>
          </Trackpoint>
          <Trackpoint>
            <Time>2019-08-04T19:01:46.000Z</Time>
            <Position>
              <LatitudeDegrees>-33.52329374291002750396728515625</LatitudeDegrees>
              <LongitudeDegrees>-70.2260736934840679168701171875</LongitudeDegrees>
            </Position>
            <AltitudeMeters>1494.199951171875</AltitudeMeters>
            <DistanceMeters>8057.679336934</DistanceMeters>
          </Trackpoint>
          <Trackpoint>
            <Time>2019-08-04T19:01:52.000Z</Time>
            <Position>
              <LatitudeDegrees>-33.52324244566261768341064453125</LatitudeDegrees>
              <LongitudeDegrees>-70.22605567239224910736083984375</LongitudeDegrees>
            </Position>
            <AltitudeMeters>1493</AltitudeMeters>
            <DistanceMeters>8063.6289503382</DistanceMeters>
          </Trackpoint>
          <Trackpoint>
            <Time>2019-08-04T19:01:57.000Z</Time>
            <Position>
              <LatitudeDegrees>-33.52319802157580852508544921875</LatitudeDegrees>
              <LongitudeDegrees>-70.22603656165301799774169921875</LongitudeDegrees>
            </Position>
            <AltitudeMeters>1492</AltitudeMeters>
            <DistanceMeters>8068.8821316232</DistanceMeters>
          </Trackpoint>
          <Trackpoint>
            <Time>2019-08-04T19:01:58.000Z</Time>
            <Position>
              <LatitudeDegrees>-33.5231862030923366546630859375</LatitudeDegrees>
              <LongitudeDegrees>-70.2260301075875759124755859375</LongitudeDegrees>
            </Position>
            <AltitudeMeters>1491.800048828125</AltitudeMeters>
            <DistanceMeters>8070.3264126411</DistanceMeters>
          </Trackpoint>
          <Trackpoint>
            <Time>2019-08-04T19:02:03.000Z</Time>
            <Position>
              <LatitudeDegrees>-33.5231426171958446502685546875</LatitudeDegrees>
              <LongitudeDegrees>-70.22599917836487293243408203125</LongitudeDegrees>
            </Position>
            <AltitudeMeters>1490.800048828125</AltitudeMeters>
            <DistanceMeters>8075.9627065413</DistanceMeters>
          </Trackpoint>
          <Trackpoint>
            <Time>2019-08-04T19:02:04.000Z</Time>
            <Position>
              <LatitudeDegrees>-33.52313364855945110321044921875</LatitudeDegrees>
              <LongitudeDegrees>-70.225998423993587493896484375</LongitudeDegrees>
            </Position>
            <AltitudeMeters>1490.5999755859375</AltitudeMeters>
            <DistanceMeters>8076.9683747578</DistanceMeters>
          </Trackpoint>
          <Trackpoint>
            <Time>2019-08-04T19:02:06.000Z</Time>
            <Position>
              <LatitudeDegrees>-33.52311797440052032470703125</LatitudeDegrees>
              <LongitudeDegrees>-70.22599766962230205535888671875</LongitudeDegrees>
            </Position>
            <AltitudeMeters>1490.199951171875</AltitudeMeters>
            <DistanceMeters>8078.7154196451</DistanceMeters>
          </Trackpoint>
          <Trackpoint>
            <Time>2019-08-04T19:02:08.000Z</Time>
            <Position>
              <LatitudeDegrees>-33.5231000371277332305908203125</LatitudeDegrees>
              <LongitudeDegrees>-70.2259935624897480010986328125</LongitudeDegrees>
            </Position>
            <AltitudeMeters>1489.4000244140625</AltitudeMeters>
            <DistanceMeters>8080.7490801407</DistanceMeters>
          </Trackpoint>
          <Trackpoint>
            <Time>2019-08-04T19:02:09.000Z</Time>
            <Position>
              <LatitudeDegrees>-33.52309039793908596038818359375</LatitudeDegrees>
              <LongitudeDegrees>-70.22599180229008197784423828125</LongitudeDegrees>
            </Position>
            <AltitudeMeters>1489.199951171875</AltitudeMeters>
            <DistanceMeters>8081.8325513852</DistanceMeters>
          </Trackpoint>
          <Trackpoint>
            <Time>2019-08-04T19:02:13.000Z</Time>
            <Position>
              <LatitudeDegrees>-33.5230515897274017333984375</LatitudeDegrees>
              <LongitudeDegrees>-70.22599674761295318603515625</LongitudeDegrees>
            </Position>
            <AltitudeMeters>1488.4000244140625</AltitudeMeters>
            <DistanceMeters>8086.1768418644</DistanceMeters>
          </Trackpoint>
          <Trackpoint>
            <Time>2019-08-04T19:02:20.000Z</Time>
            <Position>
              <LatitudeDegrees>-33.52299115620553493499755859375</LatitudeDegrees>
              <LongitudeDegrees>-70.226006805896759033203125</LongitudeDegrees>
            </Position>
            <AltitudeMeters>1487.4000244140625</AltitudeMeters>
            <DistanceMeters>8092.9684271341</DistanceMeters>
          </Trackpoint>
          <Trackpoint>
            <Time>2019-08-04T19:02:21.000Z</Time>
            <Position>
              <LatitudeDegrees>-33.52298277430236339569091796875</LatitudeDegrees>
              <LongitudeDegrees>-70.2260108292102813720703125</LongitudeDegrees>
            </Position>
            <AltitudeMeters>1487.4000244140625</AltitudeMeters>
            <DistanceMeters>8093.969595694</DistanceMeters>
          </Trackpoint>
          <Trackpoint>
            <Time>2019-08-04T19:02:29.000Z</Time>
            <Position>
              <LatitudeDegrees>-33.5229337401688098907470703125</LatitudeDegrees>
              <LongitudeDegrees>-70.22598073817789554595947265625</LongitudeDegrees>
            </Position>
            <AltitudeMeters>1486.199951171875</AltitudeMeters>
            <DistanceMeters>8100.0993712269</DistanceMeters>
          </Trackpoint>
          <Trackpoint>
            <Time>2019-08-04T19:02:35.000Z</Time>
            <Position>
              <LatitudeDegrees>-33.52288839407265186309814453125</LatitudeDegrees>
              <LongitudeDegrees>-70.2259881980717182159423828125</LongitudeDegrees>
            </Position>
            <AltitudeMeters>1485</AltitudeMeters>
            <DistanceMeters>8105.1946111404</DistanceMeters>
          </Trackpoint>
          <Trackpoint>
            <Time>2019-08-04T19:02:38.000Z</Time>
            <Position>
              <LatitudeDegrees>-33.5228717140853404998779296875</LatitudeDegrees>
              <LongitudeDegrees>-70.22598090581595897674560546875</LongitudeDegrees>
            </Position>
            <AltitudeMeters>1484.4000244140625</AltitudeMeters>
            <DistanceMeters>8107.1719889749</DistanceMeters>
          </Trackpoint>
          <Trackpoint>
            <Time>2019-08-04T19:02:41.000Z</Time>
            <Position>
              <LatitudeDegrees>-33.522852770984172821044921875</LatitudeDegrees>
              <LongitudeDegrees>-70.22598274983465671539306640625</LongitudeDegrees>
            </Position>
            <AltitudeMeters>1484</AltitudeMeters>
            <DistanceMeters>8109.2861999009</DistanceMeters>
          </Trackpoint>
          <Trackpoint>
            <Time>2019-08-04T19:02:47.000Z</Time>
            <Position>
              <LatitudeDegrees>-33.52281278930604457855224609375</LatitudeDegrees>
              <LongitudeDegrees>-70.22598023526370525360107421875</LongitudeDegrees>
            </Position>
            <AltitudeMeters>1482.4000244140625</AltitudeMeters>
            <DistanceMeters>8113.7413214507</DistanceMeters>
          </Trackpoint>
          <Trackpoint>
            <Time>2019-08-04T19:02:50.000Z</Time>
            <Position>
              <LatitudeDegrees>-33.52279745042324066162109375</LatitudeDegrees>
              <LongitudeDegrees>-70.2259804867208003997802734375</LongitudeDegrees>
            </Position>
            <AltitudeMeters>1481.800048828125</AltitudeMeters>
            <DistanceMeters>8115.4491606385</DistanceMeters>
          </Trackpoint>
          <Trackpoint>
            <Time>2019-08-04T19:02:51.000Z</Time>
            <Position>
              <LatitudeDegrees>-33.52279208600521087646484375</LatitudeDegrees>
              <LongitudeDegrees>-70.22597855888307094573974609375</LongitudeDegrees>
            </Position>
            <AltitudeMeters>1481.5999755859375</AltitudeMeters>
            <DistanceMeters>8116.0722924762</DistanceMeters>
          </Trackpoint>
          <Trackpoint>
            <Time>2019-08-04T19:02:53.000Z</Time>
            <Position>
              <LatitudeDegrees>-33.52277842350304126739501953125</LatitudeDegrees>
              <LongitudeDegrees>-70.225973613560199737548828125</LongitudeDegrees>
            </Position>
            <AltitudeMeters>1481.4000244140625</AltitudeMeters>
            <DistanceMeters>8117.6623935435</DistanceMeters>
          </Trackpoint>
          <Trackpoint>
            <Time>2019-08-04T19:02:55.000Z</Time>
            <Position>
              <LatitudeDegrees>-33.522764258086681365966796875</LatitudeDegrees>
              <LongitudeDegrees>-70.22596866823732852935791015625</LongitudeDegrees>
            </Position>
            <AltitudeMeters>1481</AltitudeMeters>
            <DistanceMeters>8119.3083045171</DistanceMeters>
          </Trackpoint>
          <Trackpoint>
            <Time>2019-08-04T19:03:02.000Z</Time>
            <Position>
              <LatitudeDegrees>-33.52272829972207546234130859375</LatitudeDegrees>
              <LongitudeDegrees>-70.22595391608774662017822265625</LongitudeDegrees>
            </Position>
            <AltitudeMeters>1480.199951171875</AltitudeMeters>
            <DistanceMeters>8123.5388613968</DistanceMeters>
          </Trackpoint>
          <Trackpoint>
            <Time>2019-08-04T19:03:04.000Z</Time>
            <Position>
              <LatitudeDegrees>-33.522723019123077392578125</LatitudeDegrees>
              <LongitudeDegrees>-70.22594301961362361907958984375</LongitudeDegrees>
            </Position>
            <AltitudeMeters>1479.800048828125</AltitudeMeters>
            <DistanceMeters>8124.7104294142</DistanceMeters>
          </Trackpoint>
          <Trackpoint>
            <Time>2019-08-04T19:03:08.000Z</Time>
            <Position>
              <LatitudeDegrees>-33.52270583622157573699951171875</LatitudeDegrees>
              <LongitudeDegrees>-70.2259047143161296844482421875</LongitudeDegrees>
            </Position>
            <AltitudeMeters>1479.199951171875</AltitudeMeters>
            <DistanceMeters>8128.7465485781</DistanceMeters>
          </Trackpoint>
          <Trackpoint>
            <Time>2019-08-04T19:03:12.000Z</Time>
            <Position>
              <LatitudeDegrees>-33.5226946882903575897216796875</LatitudeDegrees>
              <LongitudeDegrees>-70.22588434629142284393310546875</LongitudeDegrees>
            </Position>
            <AltitudeMeters>1479</AltitudeMeters>
            <DistanceMeters>8131.0073058112</DistanceMeters>
          </Trackpoint>
          <Trackpoint>
            <Time>2019-08-04T19:03:16.000Z</Time>
            <Position>
              <LatitudeDegrees>-33.52268186397850513458251953125</LatitudeDegrees>
              <LongitudeDegrees>-70.2258758805692195892333984375</LongitudeDegrees>
            </Position>
            <AltitudeMeters>1478.199951171875</AltitudeMeters>
            <DistanceMeters>8132.6366745462</DistanceMeters>
          </Trackpoint>
          <Trackpoint>
            <Time>2019-08-04T19:03:21.000Z</Time>
            <Position>
              <LatitudeDegrees>-33.5226665250957012176513671875</LatitudeDegrees>
              <LongitudeDegrees>-70.22585618309676647186279296875</LongitudeDegrees>
            </Position>
            <AltitudeMeters>1477.199951171875</AltitudeMeters>
            <DistanceMeters>8135.1382426496</DistanceMeters>
          </Trackpoint>
          <Trackpoint>
            <Time>2019-08-04T19:03:23.000Z</Time>
            <Position>
              <LatitudeDegrees>-33.52265537716448307037353515625</LatitudeDegrees>
              <LongitudeDegrees>-70.22584612481296062469482421875</LongitudeDegrees>
            </Position>
            <AltitudeMeters>1476.800048828125</AltitudeMeters>
            <DistanceMeters>8136.6938970093</DistanceMeters>
          </Trackpoint>
          <Trackpoint>
            <Time>2019-08-04T19:03:28.000Z</Time>
            <Position>
              <LatitudeDegrees>-33.52265990339219570159912109375</LatitudeDegrees>
              <LongitudeDegrees>-70.22581025026738643646240234375</LongitudeDegrees>
            </Position>
            <AltitudeMeters>1476</AltitudeMeters>
            <DistanceMeters>8140.0616523469</DistanceMeters>
          </Trackpoint>
          <Trackpoint>
            <Time>2019-08-04T19:03:29.000Z</Time>
            <Position>
              <LatitudeDegrees>-33.52266040630638599395751953125</LatitudeDegrees>
              <LongitudeDegrees>-70.22580522112548351287841796875</LongitudeDegrees>
            </Position>
            <AltitudeMeters>1475.800048828125</AltitudeMeters>
            <DistanceMeters>8140.5367859187</DistanceMeters>
          </Trackpoint>
          <Trackpoint>
            <Time>2019-08-04T19:03:31.000Z</Time>
            <Position>
              <LatitudeDegrees>-33.52266375906765460968017578125</LatitudeDegrees>
              <LongitudeDegrees>-70.22579717449843883514404296875</LongitudeDegrees>
            </Position>
            <AltitudeMeters>1475.199951171875</AltitudeMeters>
            <DistanceMeters>8141.3760391359</DistanceMeters>
          </Trackpoint>
          <Trackpoint>
            <Time>2019-08-04T19:03:32.000Z</Time>
            <Position>
              <LatitudeDegrees>-33.52266359142959117889404296875</LatitudeDegrees>
              <LongitudeDegrees>-70.2257935702800750732421875</LongitudeDegrees>
            </Position>
            <AltitudeMeters>1475</AltitudeMeters>
            <DistanceMeters>8141.7315965437</DistanceMeters>
          </Trackpoint>
          <Trackpoint>
            <Time>2019-08-04T19:03:37.000Z</Time>
            <Position>
              <LatitudeDegrees>-33.522664010524749755859375</LatitudeDegrees>
              <LongitudeDegrees>-70.225753001868724822998046875</LongitudeDegrees>
            </Position>
            <AltitudeMeters>1473.800048828125</AltitudeMeters>
            <DistanceMeters>8145.4956621569</DistanceMeters>
          </Trackpoint>
          <Trackpoint>
            <Time>2019-08-04T19:03:43.000Z</Time>
            <Position>
              <LatitudeDegrees>-33.52265018038451671600341796875</LatitudeDegrees>
              <LongitudeDegrees>-70.22569759748876094818115234375</LongitudeDegrees>
            </Position>
            <AltitudeMeters>1472.800048828125</AltitudeMeters>
            <DistanceMeters>8150.8627790604</DistanceMeters>
          </Trackpoint>
          <Trackpoint>
            <Time>2019-08-04T19:03:44.000Z</Time>
            <Position>
              <LatitudeDegrees>-33.5226484201848506927490234375</LatitudeDegrees>
              <LongitudeDegrees>-70.22569072432816028594970703125</LongitudeDegrees>
            </Position>
            <AltitudeMeters>1472.800048828125</AltitudeMeters>
            <DistanceMeters>8151.5347194017</DistanceMeters>
          </Trackpoint>
          <Trackpoint>
            <Time>2019-08-04T19:03:51.000Z</Time>
            <Position>
              <LatitudeDegrees>-33.52259854786098003387451171875</LatitudeDegrees>
              <LongitudeDegrees>-70.22566943429410457611083984375</LongitudeDegrees>
            </Position>
            <AltitudeMeters>1471.4000244140625</AltitudeMeters>
            <DistanceMeters>8157.4279081823</DistanceMeters>
          </Trackpoint>
          <Trackpoint>
            <Time>2019-08-04T19:03:55.000Z</Time>
            <Position>
              <LatitudeDegrees>-33.522571139037609100341796875</LatitudeDegrees>
              <LongitudeDegrees>-70.225680582225322723388671875</LongitudeDegrees>
            </Position>
            <AltitudeMeters>1470.199951171875</AltitudeMeters>
            <DistanceMeters>8160.6504208526</DistanceMeters>
          </Trackpoint>
          <Trackpoint>
            <Time>2019-08-04T19:03:57.000Z</Time>
            <Position>
              <LatitudeDegrees>-33.5225515253841876983642578125</LatitudeDegrees>
              <LongitudeDegrees>-70.2256814204156398773193359375</LongitudeDegrees>
            </Position>
            <AltitudeMeters>1469.800048828125</AltitudeMeters>
            <DistanceMeters>8162.8381001059</DistanceMeters>
          </Trackpoint>
          <Trackpoint>
            <Time>2019-08-04T19:04:00.000Z</Time>
            <Position>
              <LatitudeDegrees>-33.52251942269504070281982421875</LatitudeDegrees>
              <LongitudeDegrees>-70.22568502463400363922119140625</LongitudeDegrees>
            </Position>
            <AltitudeMeters>1469</AltitudeMeters>
            <DistanceMeters>8166.4265383469</DistanceMeters>
          </Trackpoint>
          <Trackpoint>
            <Time>2019-08-04T19:04:01.000Z</Time>
            <Position>
              <LatitudeDegrees>-33.52250399999320507049560546875</LatitudeDegrees>
              <LongitudeDegrees>-70.22568636573851108551025390625</LongitudeDegrees>
            </Position>
            <AltitudeMeters>1468.800048828125</AltitudeMeters>
            <DistanceMeters>8168.1422903455</DistanceMeters>
          </Trackpoint>
          <Trackpoint>
            <Time>2019-08-04T19:04:06.000Z</Time>
            <Position>
              <LatitudeDegrees>-33.52245680987834930419921875</LatitudeDegrees>
              <LongitudeDegrees>-70.225688628852367401123046875</LongitudeDegrees>
            </Position>
            <AltitudeMeters>1467.800048828125</AltitudeMeters>
            <DistanceMeters>8173.3989084521</DistanceMeters>
          </Trackpoint>
          <Trackpoint>
            <Time>2019-08-04T19:04:11.000Z</Time>
            <Position>
              <LatitudeDegrees>-33.52241791784763336181640625</LatitudeDegrees>
              <LongitudeDegrees>-70.225706733763217926025390625</LongitudeDegrees>
            </Position>
            <AltitudeMeters>1466.800048828125</AltitudeMeters>
            <DistanceMeters>8178.0425947623</DistanceMeters>
          </Trackpoint>
          <Trackpoint>
            <Time>2019-08-04T19:04:16.000Z</Time>
            <Position>
              <LatitudeDegrees>-33.52238497696816921234130859375</LatitudeDegrees>
              <LongitudeDegrees>-70.2257058955729007720947265625</LongitudeDegrees>
            </Position>
            <AltitudeMeters>1465.800048828125</AltitudeMeters>
            <DistanceMeters>8181.7106751733</DistanceMeters>
          </Trackpoint>
          <Trackpoint>
            <Time>2019-08-04T19:04:17.000Z</Time>
            <Position>
              <LatitudeDegrees>-33.5223765112459659576416015625</LatitudeDegrees>
              <LongitudeDegrees>-70.22570815868675708770751953125</LongitudeDegrees>
            </Position>
            <AltitudeMeters>1465.5999755859375</AltitudeMeters>
            <DistanceMeters>8182.6703979444</DistanceMeters>
          </Trackpoint>
          <Trackpoint>
            <Time>2019-08-04T19:04:20.000Z</Time>
            <Position>
              <LatitudeDegrees>-33.52234642021358013153076171875</LatitudeDegrees>
              <LongitudeDegrees>-70.22570732049643993377685546875</LongitudeDegrees>
            </Position>
            <AltitudeMeters>1465.199951171875</AltitudeMeters>
            <DistanceMeters>8186.0193313482</DistanceMeters>
          </Trackpoint>
          <Trackpoint>
            <Time>2019-08-04T19:04:22.000Z</Time>
            <Position>
              <LatitudeDegrees>-33.52232806384563446044921875</LatitudeDegrees>
              <LongitudeDegrees>-70.2257129363715648651123046875</LongitudeDegrees>
            </Position>
            <AltitudeMeters>1464.4000244140625</AltitudeMeters>
            <DistanceMeters>8188.1271258378</DistanceMeters>
          </Trackpoint>
          <Trackpoint>
            <Time>2019-08-04T19:04:26.000Z</Time>
            <Position>
              <LatitudeDegrees>-33.52229529060423374176025390625</LatitudeDegrees>
              <LongitudeDegrees>-70.22571788169443607330322265625</LongitudeDegrees>
            </Position>
            <AltitudeMeters>1463.199951171875</AltitudeMeters>
            <DistanceMeters>8191.803812449</DistanceMeters>
          </Trackpoint>
          <Trackpoint>
            <Time>2019-08-04T19:04:30.000Z</Time>
            <Position>
              <LatitudeDegrees>-33.52227349765598773956298828125</LatitudeDegrees>
              <LongitudeDegrees>-70.2257065661251544952392578125</LongitudeDegrees>
            </Position>
            <AltitudeMeters>1462.800048828125</AltitudeMeters>
            <DistanceMeters>8194.4458285525</DistanceMeters>
          </Trackpoint>
          <Trackpoint>
            <Time>2019-08-04T19:04:33.000Z</Time>
            <Position>
              <LatitudeDegrees>-33.5222531296312808990478515625</LatitudeDegrees>
              <LongitudeDegrees>-70.22571109235286712646484375</LongitudeDegrees>
            </Position>
            <AltitudeMeters>1462</AltitudeMeters>
            <DistanceMeters>8196.7501039156</DistanceMeters>
          </Trackpoint>
          <Trackpoint>
            <Time>2019-08-04T19:04:35.000Z</Time>
            <Position>
              <LatitudeDegrees>-33.5222450830042362213134765625</LatitudeDegrees>
              <LongitudeDegrees>-70.2257119305431842803955078125</LongitudeDegrees>
            </Position>
            <AltitudeMeters>1461.5999755859375</AltitudeMeters>
            <DistanceMeters>8197.6516064835</DistanceMeters>
          </Trackpoint>
          <Trackpoint>
            <Time>2019-08-04T19:04:39.000Z</Time>
            <Position>
              <LatitudeDegrees>-33.5222219489514827728271484375</LatitudeDegrees>
              <LongitudeDegrees>-70.225736908614635467529296875</LongitudeDegrees>
            </Position>
            <AltitudeMeters>1460.800048828125</AltitudeMeters>
            <DistanceMeters>8201.1171514147</DistanceMeters>
          </Trackpoint>
          <Trackpoint>
            <Time>2019-08-04T19:04:40.000Z</Time>
            <Position>
              <LatitudeDegrees>-33.5222172550857067108154296875</LatitudeDegrees>
              <LongitudeDegrees>-70.22573648951947689056396484375</LongitudeDegrees>
            </Position>
            <AltitudeMeters>1460.800048828125</AltitudeMeters>
            <DistanceMeters>8201.637634165</DistanceMeters>
          </Trackpoint>
          <Trackpoint>
            <Time>2019-08-04T19:04:44.000Z</Time>
            <Position>
              <LatitudeDegrees>-33.52218699641525745391845703125</LatitudeDegrees>
              <LongitudeDegrees>-70.22572274319827556610107421875</LongitudeDegrees>
            </Position>
            <AltitudeMeters>1459.800048828125</AltitudeMeters>
            <DistanceMeters>8205.2386326062</DistanceMeters>
          </Trackpoint>
          <Trackpoint>
            <Time>2019-08-04T19:04:45.000Z</Time>
            <Position>
              <LatitudeDegrees>-33.52218045853078365325927734375</LatitudeDegrees>
              <LongitudeDegrees>-70.22571670822799205780029296875</LongitudeDegrees>
            </Position>
            <AltitudeMeters>1459.4000244140625</AltitudeMeters>
            <DistanceMeters>8206.1599507845</DistanceMeters>
          </Trackpoint>
          <Trackpoint>
            <Time>2019-08-04T19:04:46.000Z</Time>
            <Position>
              <LatitudeDegrees>-33.52217542938888072967529296875</LatitudeDegrees>
              <LongitudeDegrees>-70.22571251727640628814697265625</LongitudeDegrees>
            </Position>
            <AltitudeMeters>1459.199951171875</AltitudeMeters>
            <DistanceMeters>8206.8451981669</DistanceMeters>
          </Trackpoint>
          <Trackpoint>
            <Time>2019-08-04T19:04:48.000Z</Time>
            <Position>
              <LatitudeDegrees>-33.5221652872860431671142578125</LatitudeDegrees>
              <LongitudeDegrees>-70.225706063210964202880859375</LongitudeDegrees>
            </Position>
            <AltitudeMeters>1458.5999755859375</AltitudeMeters>
            <DistanceMeters>8208.127178632</DistanceMeters>
          </Trackpoint>
          <Trackpoint>
            <Time>2019-08-04T19:04:50.000Z</Time>
            <Position>
              <LatitudeDegrees>-33.52215497754514217376708984375</LatitudeDegrees>
              <LongitudeDegrees>-70.2257018722593784332275390625</LongitudeDegrees>
            </Position>
            <AltitudeMeters>1458</AltitudeMeters>
            <DistanceMeters>8209.340398505</DistanceMeters>
          </Trackpoint>
          <Trackpoint>
            <Time>2019-08-04T19:04:53.000Z</Time>
            <Position>
              <LatitudeDegrees>-33.52214240469038486480712890625</LatitudeDegrees>
              <LongitudeDegrees>-70.2257035486400127410888671875</LongitudeDegrees>
            </Position>
            <AltitudeMeters>1457.5999755859375</AltitudeMeters>
            <DistanceMeters>8210.7498724557</DistanceMeters>
          </Trackpoint>
          <Trackpoint>
            <Time>2019-08-04T19:04:58.000Z</Time>
            <Position>
              <LatitudeDegrees>-33.52212228812277317047119140625</LatitudeDegrees>
              <LongitudeDegrees>-70.225722491741180419921875</LongitudeDegrees>
            </Position>
            <AltitudeMeters>1456.4000244140625</AltitudeMeters>
            <DistanceMeters>8213.597504568</DistanceMeters>
          </Trackpoint>
          <Trackpoint>
            <Time>2019-08-04T19:05:01.000Z</Time>
            <Position>
              <LatitudeDegrees>-33.52210116572678089141845703125</LatitudeDegrees>
              <LongitudeDegrees>-70.22572039626538753509521484375</LongitudeDegrees>
            </Position>
            <AltitudeMeters>1456.199951171875</AltitudeMeters>
            <DistanceMeters>8215.9560055939</DistanceMeters>
          </Trackpoint>
          <Trackpoint>
            <Time>2019-08-04T19:05:04.000Z</Time>
            <Position>
              <LatitudeDegrees>-33.52208808995783329010009765625</LatitudeDegrees>
              <LongitudeDegrees>-70.22571050561964511871337890625</LongitudeDegrees>
            </Position>
            <AltitudeMeters>1455.4000244140625</AltitudeMeters>
            <DistanceMeters>8217.677012588</DistanceMeters>
          </Trackpoint>
          <Trackpoint>
            <Time>2019-08-04T19:05:10.000Z</Time>
            <Position>
              <LatitudeDegrees>-33.52204835973680019378662109375</LatitudeDegrees>
              <LongitudeDegrees>-70.22568888030946254730224609375</LongitudeDegrees>
            </Position>
            <AltitudeMeters>1454.4000244140625</AltitudeMeters>
            <DistanceMeters>8222.532682428</DistanceMeters>
          </Trackpoint>
          <Trackpoint>
            <Time>2019-08-04T19:05:12.000Z</Time>
            <Position>
              <LatitudeDegrees>-33.522033356130123138427734375</LatitudeDegrees>
              <LongitudeDegrees>-70.2256755530834197998046875</LongitudeDegrees>
            </Position>
            <AltitudeMeters>1453.800048828125</AltitudeMeters>
            <DistanceMeters>8224.6102715453</DistanceMeters>
          </Trackpoint>
          <Trackpoint>
            <Time>2019-08-04T19:05:14.000Z</Time>
            <Position>
              <LatitudeDegrees>-33.52202137000858783721923828125</LatitudeDegrees>
              <LongitudeDegrees>-70.2256683446466922760009765625</LongitudeDegrees>
            </Position>
            <AltitudeMeters>1453.5999755859375</AltitudeMeters>
            <DistanceMeters>8226.1007073222</DistanceMeters>
          </Trackpoint>
          <Trackpoint>
            <Time>2019-08-04T19:05:16.000Z</Time>
            <Position>
              <LatitudeDegrees>-33.52201030589640140533447265625</LatitudeDegrees>
              <LongitudeDegrees>-70.225659124553203582763671875</LongitudeDegrees>
            </Position>
            <AltitudeMeters>1453.199951171875</AltitudeMeters>
            <DistanceMeters>8227.5971895166</DistanceMeters>
          </Trackpoint>
          <Trackpoint>
            <Time>2019-08-04T19:05:20.000Z</Time>
            <Position>
              <LatitudeDegrees>-33.5219939611852169036865234375</LatitudeDegrees>
              <LongitudeDegrees>-70.22561998106539249420166015625</LongitudeDegrees>
            </Position>
            <AltitudeMeters>1452</AltitudeMeters>
            <DistanceMeters>8231.6589563321</DistanceMeters>
          </Trackpoint>
          <Trackpoint>
            <Time>2019-08-04T19:05:21.000Z</Time>
            <Position>
              <LatitudeDegrees>-33.521991111338138580322265625</LatitudeDegrees>
              <LongitudeDegrees>-70.2256110124289989471435546875</LongitudeDegrees>
            </Position>
            <AltitudeMeters>1451.800048828125</AltitudeMeters>
            <DistanceMeters>8232.5503859294</DistanceMeters>
          </Trackpoint>
          <Trackpoint>
            <Time>2019-08-04T19:05:23.000Z</Time>
            <Position>
              <LatitudeDegrees>-33.52198834531009197235107421875</LatitudeDegrees>
              <LongitudeDegrees>-70.2255922369658946990966796875</LongitudeDegrees>
            </Position>
            <AltitudeMeters>1451.4000244140625</AltitudeMeters>
            <DistanceMeters>8234.317984993</DistanceMeters>
          </Trackpoint>
          <Trackpoint>
            <Time>2019-08-04T19:05:25.000Z</Time>
            <Position>
              <LatitudeDegrees>-33.5219875909388065338134765625</LatitudeDegrees>
              <LongitudeDegrees>-70.22556767798960208892822265625</LongitudeDegrees>
            </Position>
            <AltitudeMeters>1451</AltitudeMeters>
            <DistanceMeters>8236.5966455547</DistanceMeters>
          </Trackpoint>
          <Trackpoint>
            <Time>2019-08-04T19:05:33.000Z</Time>
            <Position>
              <LatitudeDegrees>-33.52198608219623565673828125</LatitudeDegrees>
              <LongitudeDegrees>-70.2254993654787540435791015625</LongitudeDegrees>
            </Position>
            <AltitudeMeters>1449.800048828125</AltitudeMeters>
            <DistanceMeters>8242.9371424066</DistanceMeters>
          </Trackpoint>
          <Trackpoint>
            <Time>2019-08-04T19:05:34.000Z</Time>
            <Position>
              <LatitudeDegrees>-33.5219808854162693023681640625</LatitudeDegrees>
              <LongitudeDegrees>-70.2254933305084705352783203125</LongitudeDegrees>
            </Position>
            <AltitudeMeters>1449.5999755859375</AltitudeMeters>
            <DistanceMeters>8243.7434708161</DistanceMeters>
          </Trackpoint>
          <Trackpoint>
            <Time>2019-08-04T19:05:39.000Z</Time>
            <Position>
              <LatitudeDegrees>-33.52193956263363361358642578125</LatitudeDegrees>
              <LongitudeDegrees>-70.22547447122633457183837890625</LongitudeDegrees>
            </Position>
            <AltitudeMeters>1448.800048828125</AltitudeMeters>
            <DistanceMeters>8248.6647171036</DistanceMeters>
          </Trackpoint>
          <Trackpoint>
            <Time>2019-08-04T19:05:41.000Z</Time>
            <Position>
              <LatitudeDegrees>-33.5219252295792102813720703125</LatitudeDegrees>
              <LongitudeDegrees>-70.22546826861798763275146484375</LongitudeDegrees>
            </Position>
            <AltitudeMeters>1448.4000244140625</AltitudeMeters>
            <DistanceMeters>8250.3646066477</DistanceMeters>
          </Trackpoint>
          <Trackpoint>
            <Time>2019-08-04T19:05:43.000Z</Time>
            <Position>
              <LatitudeDegrees>-33.52190569974482059478759765625</LatitudeDegrees>
              <LongitudeDegrees>-70.2254618145525455474853515625</LongitudeDegrees>
            </Position>
            <AltitudeMeters>1448.199951171875</AltitudeMeters>
            <DistanceMeters>8252.6213660754</DistanceMeters>
          </Trackpoint>
          <Trackpoint>
            <Time>2019-08-04T19:05:45.000Z</Time>
            <Position>
              <LatitudeDegrees>-33.52189086377620697021484375</LatitudeDegrees>
              <LongitudeDegrees>-70.22545116953551769256591796875</LongitudeDegrees>
            </Position>
            <AltitudeMeters>1448</AltitudeMeters>
            <DistanceMeters>8254.5455103896</DistanceMeters>
          </Trackpoint>
          <Trackpoint>
            <Time>2019-08-04T19:05:47.000Z</Time>
            <Position>
              <LatitudeDegrees>-33.52187619544565677642822265625</LatitudeDegrees>
              <LongitudeDegrees>-70.22544111125171184539794921875</LongitudeDegrees>
            </Position>
            <AltitudeMeters>1447.5999755859375</AltitudeMeters>
            <DistanceMeters>8256.4269433451</DistanceMeters>
          </Trackpoint>
          <Trackpoint>
            <Time>2019-08-04T19:05:51.000Z</Time>
            <Position>
              <LatitudeDegrees>-33.52185406722128391265869140625</LatitudeDegrees>
              <LongitudeDegrees>-70.22543172352015972137451171875</LongitudeDegrees>
            </Position>
            <AltitudeMeters>1446.4000244140625</AltitudeMeters>
            <DistanceMeters>8259.039746015</DistanceMeters>
          </Trackpoint>
          <Trackpoint>
            <Time>2019-08-04T19:05:56.000Z</Time>
            <Position>
              <LatitudeDegrees>-33.52182707749307155609130859375</LatitudeDegrees>
              <LongitudeDegrees>-70.22540691308677196502685546875</LongitudeDegrees>
            </Position>
            <AltitudeMeters>1445.5999755859375</AltitudeMeters>
            <DistanceMeters>8262.8241483773</DistanceMeters>
          </Trackpoint>
          <Trackpoint>
            <Time>2019-08-04T19:05:57.000Z</Time>
            <Position>
              <LatitudeDegrees>-33.52182439528405666351318359375</LatitudeDegrees>
              <LongitudeDegrees>-70.22540003992617130279541015625</LongitudeDegrees>
            </Position>
            <AltitudeMeters>1445.199951171875</AltitudeMeters>
            <DistanceMeters>8263.5352631928</DistanceMeters>
          </Trackpoint>
          <Trackpoint>
            <Time>2019-08-04T19:06:00.000Z</Time>
            <Position>
              <LatitudeDegrees>-33.52180771529674530029296875</LatitudeDegrees>
              <LongitudeDegrees>-70.225387550890445709228515625</LongitudeDegrees>
            </Position>
            <AltitudeMeters>1444</AltitudeMeters>
            <DistanceMeters>8265.7250053219</DistanceMeters>
          </Trackpoint>
          <Trackpoint>
            <Time>2019-08-04T19:06:05.000Z</Time>
            <Position>
              <LatitudeDegrees>-33.521784581243991851806640625</LatitudeDegrees>
              <LongitudeDegrees>-70.2253505028784275054931640625</LongitudeDegrees>
            </Position>
            <AltitudeMeters>1442.800048828125</AltitudeMeters>
            <DistanceMeters>8270.0191194446</DistanceMeters>
          </Trackpoint>
          <Trackpoint>
            <Time>2019-08-04T19:06:06.000Z</Time>
            <Position>
              <LatitudeDegrees>-33.52178583852946758270263671875</LatitudeDegrees>
              <LongitudeDegrees>-70.22534094750881195068359375</LongitudeDegrees>
            </Position>
            <AltitudeMeters>1442.5999755859375</AltitudeMeters>
            <DistanceMeters>8270.9206220125</DistanceMeters>
          </Trackpoint>
          <Trackpoint>
            <Time>2019-08-04T19:06:07.000Z</Time>
            <Position>
              <LatitudeDegrees>-33.5217867605388164520263671875</LatitudeDegrees>
              <LongitudeDegrees>-70.22532963193953037261962890625</LongitudeDegrees>
            </Position>
            <AltitudeMeters>1442.4000244140625</AltitudeMeters>
            <DistanceMeters>8271.97879472</DistanceMeters>
          </Trackpoint>
          <Trackpoint>
            <Time>2019-08-04T19:06:09.000Z</Time>
            <Position>
              <LatitudeDegrees>-33.52179170586168766021728515625</LatitudeDegrees>
              <LongitudeDegrees>-70.2253067493438720703125</LongitudeDegrees>
            </Position>
            <AltitudeMeters>1441.5999755859375</AltitudeMeters>
            <DistanceMeters>8274.1705977833</DistanceMeters>
          </Trackpoint>
          <Trackpoint>
            <Time>2019-08-04T19:06:13.000Z</Time>
            <Position>
              <LatitudeDegrees>-33.521809391677379608154296875</LatitudeDegrees>
              <LongitudeDegrees>-70.2252638339996337890625</LongitudeDegrees>
            </Position>
            <AltitudeMeters>1440.800048828125</AltitudeMeters>
            <DistanceMeters>8278.6135413016</DistanceMeters>
          </Trackpoint>
          <Trackpoint>
            <Time>2019-08-04T19:06:14.000Z</Time>
            <Position>
              <LatitudeDegrees>-33.52181148715317249298095703125</LatitudeDegrees>
              <LongitudeDegrees>-70.225255787372589111328125</LongitudeDegrees>
            </Position>
            <AltitudeMeters>1440.5999755859375</AltitudeMeters>
            <DistanceMeters>8279.3971516628</DistanceMeters>
          </Trackpoint>
          <Trackpoint>
            <Time>2019-08-04T19:06:17.000Z</Time>
            <Position>
              <LatitudeDegrees>-33.521822802722454071044921875</LatitudeDegrees>
              <LongitudeDegrees>-70.22522552870213985443115234375</LongitudeDegrees>
            </Position>
            <AltitudeMeters>1440.199951171875</AltitudeMeters>
            <DistanceMeters>8282.4749024957</DistanceMeters>
          </Trackpoint>
          <Trackpoint>
            <Time>2019-08-04T19:06:21.000Z</Time>
            <Position>
              <LatitudeDegrees>-33.521810062229633331298828125</LatitudeDegrees>
              <LongitudeDegrees>-70.225191414356231689453125</LongitudeDegrees>
            </Position>
            <AltitudeMeters>1439.5999755859375</AltitudeMeters>
            <DistanceMeters>8285.9456548603</DistanceMeters>
          </Trackpoint>
          <Trackpoint>
            <Time>2019-08-04T19:06:22.000Z</Time>
            <Position>
              <LatitudeDegrees>-33.52180344052612781524658203125</LatitudeDegrees>
              <LongitudeDegrees>-70.22518764249980449676513671875</LongitudeDegrees>
            </Position>
            <AltitudeMeters>1439.4000244140625</AltitudeMeters>
            <DistanceMeters>8286.7631055664</DistanceMeters>
          </Trackpoint>
          <Trackpoint>
            <Time>2019-08-04T19:06:24.000Z</Time>
            <Position>
              <LatitudeDegrees>-33.52178701199591159820556640625</LatitudeDegrees>
              <LongitudeDegrees>-70.22519350983202457427978515625</LongitudeDegrees>
            </Position>
            <AltitudeMeters>1439.199951171875</AltitudeMeters>
            <DistanceMeters>8288.6731188866</DistanceMeters>
          </Trackpoint>
          <Trackpoint>
            <Time>2019-08-04T19:06:25.000Z</Time>
            <Position>
              <LatitudeDegrees>-33.52177712135016918182373046875</LatitudeDegrees>
              <LongitudeDegrees>-70.2252002991735935211181640625</LongitudeDegrees>
            </Position>
            <AltitudeMeters>1438.800048828125</AltitudeMeters>
            <DistanceMeters>8289.9409333868</DistanceMeters>
          </Trackpoint>
          <Trackpoint>
            <Time>2019-08-04T19:06:26.000Z</Time>
            <Position>
              <LatitudeDegrees>-33.5217716731131076812744140625</LatitudeDegrees>
              <LongitudeDegrees>-70.22520792670547962188720703125</LongitudeDegrees>
            </Position>
            <AltitudeMeters>1438.5999755859375</AltitudeMeters>
            <DistanceMeters>8290.8720012354</DistanceMeters>
          </Trackpoint>
          <Trackpoint>
            <Time>2019-08-04T19:06:28.000Z</Time>
            <Position>
              <LatitudeDegrees>-33.5217534005641937255859375</LatitudeDegrees>
              <LongitudeDegrees>-70.22521865554153919219970703125</LongitudeDegrees>
            </Position>
            <AltitudeMeters>1438.4000244140625</AltitudeMeters>
            <DistanceMeters>8293.136749217</DistanceMeters>
          </Trackpoint>
          <Trackpoint>
            <Time>2019-08-04T19:06:29.000Z</Time>
            <Position>
              <LatitudeDegrees>-33.52174225263297557830810546875</LatitudeDegrees>
              <LongitudeDegrees>-70.2252230979502201080322265625</LongitudeDegrees>
            </Position>
            <AltitudeMeters>1438</AltitudeMeters>
            <DistanceMeters>8294.4466020806</DistanceMeters>
          </Trackpoint>
          <Trackpoint>
            <Time>2019-08-04T19:06:30.000Z</Time>
            <Position>
              <LatitudeDegrees>-33.52172917686402797698974609375</LatitudeDegrees>
              <LongitudeDegrees>-70.22522552870213985443115234375</LongitudeDegrees>
            </Position>
            <AltitudeMeters>1437.5999755859375</AltitudeMeters>
            <DistanceMeters>8295.9187496094</DistanceMeters>
          </Trackpoint>
          <Trackpoint>
            <Time>2019-08-04T19:06:34.000Z</Time>
            <Position>
              <LatitudeDegrees>-33.521681986749172210693359375</LatitudeDegrees>
              <LongitudeDegrees>-70.22522603161633014678955078125</LongitudeDegrees>
            </Position>
            <AltitudeMeters>1436.800048828125</AltitudeMeters>
            <DistanceMeters>8301.1702116401</DistanceMeters>
          </Trackpoint>
          <Trackpoint>
            <Time>2019-08-04T19:06:35.000Z</Time>
            <Position>
              <LatitudeDegrees>-33.52167150937020778656005859375</LatitudeDegrees>
              <LongitudeDegrees>-70.22523005492985248565673828125</LongitudeDegrees>
            </Position>
            <AltitudeMeters>1436.5999755859375</AltitudeMeters>
            <DistanceMeters>8302.3945452097</DistanceMeters>
          </Trackpoint>
          <Trackpoint>
            <Time>2019-08-04T19:06:37.000Z</Time>
            <Position>
              <LatitudeDegrees>-33.52165625430643558502197265625</LatitudeDegrees>
              <LongitudeDegrees>-70.2252378500998020172119140625</LongitudeDegrees>
            </Position>
            <AltitudeMeters>1436.4000244140625</AltitudeMeters>
            <DistanceMeters>8304.2371815664</DistanceMeters>
          </Trackpoint>
          <Trackpoint>
            <Time>2019-08-04T19:06:40.000Z</Time>
            <Position>
              <LatitudeDegrees>-33.521624319255352020263671875</LatitudeDegrees>
              <LongitudeDegrees>-70.2252423763275146484375</LongitudeDegrees>
            </Position>
            <AltitudeMeters>1435.800048828125</AltitudeMeters>
            <DistanceMeters>8307.8155399047</DistanceMeters>
          </Trackpoint>
          <Trackpoint>
            <Time>2019-08-04T19:06:45.000Z</Time>
            <Position>
              <LatitudeDegrees>-33.52158433757722377777099609375</LatitudeDegrees>
              <LongitudeDegrees>-70.22525151260197162628173828125</LongitudeDegrees>
            </Position>
            <AltitudeMeters>1434.800048828125</AltitudeMeters>
            <DistanceMeters>8312.3470290456</DistanceMeters>
          </Trackpoint>
          <Trackpoint>
            <Time>2019-08-04T19:06:48.000Z</Time>
            <Position>
              <LatitudeDegrees>-33.52155868895351886749267578125</LatitudeDegrees>
              <LongitudeDegrees>-70.22524799220263957977294921875</LongitudeDegrees>
            </Position>
            <AltitudeMeters>1434</AltitudeMeters>
            <DistanceMeters>8315.2230592997</DistanceMeters>
          </Trackpoint>
          <Trackpoint>
            <Time>2019-08-04T19:06:51.000Z</Time>
            <Position>
              <LatitudeDegrees>-33.52154946886003017425537109375</LatitudeDegrees>
              <LongitudeDegrees>-70.225220583379268646240234375</LongitudeDegrees>
            </Position>
            <AltitudeMeters>1433.5999755859375</AltitudeMeters>
            <DistanceMeters>8317.9673413104</DistanceMeters>
          </Trackpoint>
          <Trackpoint>
            <Time>2019-08-04T19:06:55.000Z</Time>
            <Position>
              <LatitudeDegrees>-33.52154192514717578887939453125</LatitudeDegrees>
              <LongitudeDegrees>-70.225188396871089935302734375</LongitudeDegrees>
            </Position>
            <AltitudeMeters>1432.5999755859375</AltitudeMeters>
            <DistanceMeters>8321.0699307917</DistanceMeters>
          </Trackpoint>
          <Trackpoint>
            <Time>2019-08-04T19:06:59.000Z</Time>
            <Position>
              <LatitudeDegrees>-33.52154142223298549652099609375</LatitudeDegrees>
              <LongitudeDegrees>-70.22515587508678436279296875</LongitudeDegrees>
            </Position>
            <AltitudeMeters>1431.4000244140625</AltitudeMeters>
            <DistanceMeters>8324.0869354412</DistanceMeters>
          </Trackpoint>
          <Trackpoint>
            <Time>2019-08-04T19:07:02.000Z</Time>
            <Position>
              <LatitudeDegrees>-33.52155030705034732818603515625</LatitudeDegrees>
              <LongitudeDegrees>-70.22513265721499919891357421875</LongitudeDegrees>
            </Position>
            <AltitudeMeters>1430.5999755859375</AltitudeMeters>
            <DistanceMeters>8326.4568948392</DistanceMeters>
          </Trackpoint>
          <Trackpoint>
            <Time>2019-08-04T19:07:03.000Z</Time>
            <Position>
              <LatitudeDegrees>-33.52155600674450397491455078125</LatitudeDegrees>
              <LongitudeDegrees>-70.22512209601700305938720703125</LongitudeDegrees>
            </Position>
            <AltitudeMeters>1430.4000244140625</AltitudeMeters>
            <DistanceMeters>8327.6207296499</DistanceMeters>
          </Trackpoint>
          <Trackpoint>
            <Time>2019-08-04T19:07:07.000Z</Time>
            <Position>
              <LatitudeDegrees>-33.5215718485414981842041015625</LatitudeDegrees>
              <LongitudeDegrees>-70.22509175352752208709716796875</LongitudeDegrees>
            </Position>
            <AltitudeMeters>1430</AltitudeMeters>
            <DistanceMeters>8330.9425895829</DistanceMeters>
          </Trackpoint>
          <Trackpoint>
            <Time>2019-08-04T19:07:10.000Z</Time>
            <Position>
              <LatitudeDegrees>-33.521585427224636077880859375</LatitudeDegrees>
              <LongitudeDegrees>-70.2250621654093265533447265625</LongitudeDegrees>
            </Position>
            <AltitudeMeters>1429.199951171875</AltitudeMeters>
            <DistanceMeters>8334.0755902364</DistanceMeters>
          </Trackpoint>
          <Trackpoint>
            <Time>2019-08-04T19:07:12.000Z</Time>
            <Position>
              <LatitudeDegrees>-33.52158844470977783203125</LatitudeDegrees>
              <LongitudeDegrees>-70.22503794170916080474853515625</LongitudeDegrees>
            </Position>
            <AltitudeMeters>1429</AltitudeMeters>
            <DistanceMeters>8336.3482986924</DistanceMeters>
          </Trackpoint>
          <Trackpoint>
            <Time>2019-08-04T19:07:14.000Z</Time>
            <Position>
              <LatitudeDegrees>-33.52158852852880954742431640625</LatitudeDegrees>
              <LongitudeDegrees>-70.225010700523853302001953125</LongitudeDegrees>
            </Position>
            <AltitudeMeters>1428.5999755859375</AltitudeMeters>
            <DistanceMeters>8338.8767951077</DistanceMeters>
          </Trackpoint>
          <Trackpoint>
            <Time>2019-08-04T19:07:15.000Z</Time>
            <Position>
              <LatitudeDegrees>-33.52159121073782444000244140625</LatitudeDegrees>
              <LongitudeDegrees>-70.22500139661133289337158203125</LongitudeDegrees>
            </Position>
            <AltitudeMeters>1428.5999755859375</AltitudeMeters>
            <DistanceMeters>8339.7882593324</DistanceMeters>
          </Trackpoint>
          <Trackpoint>
            <Time>2019-08-04T19:07:16.000Z</Time>
            <Position>
              <LatitudeDegrees>-33.521593473851680755615234375</LatitudeDegrees>
              <LongitudeDegrees>-70.22499167360365390777587890625</LongitudeDegrees>
            </Position>
            <AltitudeMeters>1428.5999755859375</AltitudeMeters>
            <DistanceMeters>8340.7193271809</DistanceMeters>
          </Trackpoint>
          <Trackpoint>
            <Time>2019-08-04T19:07:18.000Z</Time>
            <Position>
              <LatitudeDegrees>-33.521603532135486602783203125</LatitudeDegrees>
              <LongitudeDegrees>-70.22496736608445644378662109375</LongitudeDegrees>
            </Position>
            <AltitudeMeters>1428.199951171875</AltitudeMeters>
            <DistanceMeters>8343.2370868326</DistanceMeters>
          </Trackpoint>
          <Trackpoint>
            <Time>2019-08-04T19:07:19.000Z</Time>
            <Position>
              <LatitudeDegrees>-33.5216080583631992340087890625</LatitudeDegrees>
              <LongitudeDegrees>-70.22495546378195285797119140625</LongitudeDegrees>
            </Position>
            <AltitudeMeters>1427.800048828125</AltitudeMeters>
            <DistanceMeters>8344.4465794469</DistanceMeters>
          </Trackpoint>
          <Trackpoint>
            <Time>2019-08-04T19:07:25.000Z</Time>
            <Position>
              <LatitudeDegrees>-33.52163664065301418304443359375</LatitudeDegrees>
              <LongitudeDegrees>-70.224901735782623291015625</LongitudeDegrees>
            </Position>
            <AltitudeMeters>1427</AltitudeMeters>
            <DistanceMeters>8350.3604179691</DistanceMeters>
          </Trackpoint>
          <Trackpoint>
            <Time>2019-08-04T19:07:30.000Z</Time>
            <Position>
              <LatitudeDegrees>-33.52161769755184650421142578125</LatitudeDegrees>
              <LongitudeDegrees>-70.2248777635395526885986328125</LongitudeDegrees>
            </Position>
            <AltitudeMeters>1426.199951171875</AltitudeMeters>
            <DistanceMeters>8353.424937426</DistanceMeters>
          </Trackpoint>
          <Trackpoint>
            <Time>2019-08-04T19:07:32.000Z</Time>
            <Position>
              <LatitudeDegrees>-33.5216020233929157257080078125</LatitudeDegrees>
              <LongitudeDegrees>-70.2248878218233585357666015625</LongitudeDegrees>
            </Position>
            <AltitudeMeters>1425.800048828125</AltitudeMeters>
            <DistanceMeters>8355.4045972899</DistanceMeters>
          </Trackpoint>
          <Trackpoint>
            <Time>2019-08-04T19:07:36.000Z</Time>
            <Position>
              <LatitudeDegrees>-33.521570675075054168701171875</LatitudeDegrees>
              <LongitudeDegrees>-70.2248871512711048126220703125</LongitudeDegrees>
            </Position>
            <AltitudeMeters>1424.800048828125</AltitudeMeters>
            <DistanceMeters>8358.8935144638</DistanceMeters>
          </Trackpoint>
          <Trackpoint>
            <Time>2019-08-04T19:07:39.000Z</Time>
            <Position>
              <LatitudeDegrees>-33.52154460735619068145751953125</LatitudeDegrees>
              <LongitudeDegrees>-70.2248780988156795501708984375</LongitudeDegrees>
            </Position>
            <AltitudeMeters>1424.199951171875</AltitudeMeters>
            <DistanceMeters>8361.9135106904</DistanceMeters>
          </Trackpoint>
          <Trackpoint>
            <Time>2019-08-04T19:07:42.000Z</Time>
            <Position>
              <LatitudeDegrees>-33.52152206003665924072265625</LatitudeDegrees>
              <LongitudeDegrees>-70.22486862726509571075439453125</LongitudeDegrees>
            </Position>
            <AltitudeMeters>1424</AltitudeMeters>
            <DistanceMeters>8364.5708627143</DistanceMeters>
          </Trackpoint>
          <Trackpoint>
            <Time>2019-08-04T19:07:44.000Z</Time>
            <Position>
              <LatitudeDegrees>-33.52150672115385532379150390625</LatitudeDegrees>
              <LongitudeDegrees>-70.22486275993287563323974609375</LongitudeDegrees>
            </Position>
            <AltitudeMeters>1423.4000244140625</AltitudeMeters>
            <DistanceMeters>8366.3613032014</DistanceMeters>
          </Trackpoint>
          <Trackpoint>
            <Time>2019-08-04T19:07:48.000Z</Time>
            <Position>
              <LatitudeDegrees>-33.52147939614951610565185546875</LatitudeDegrees>
              <LongitudeDegrees>-70.2248519472777843475341796875</LongitudeDegrees>
            </Position>
            <AltitudeMeters>1422</AltitudeMeters>
            <DistanceMeters>8369.5627305024</DistanceMeters>
          </Trackpoint>
          <Trackpoint>
            <Time>2019-08-04T19:07:53.000Z</Time>
            <Position>
              <LatitudeDegrees>-33.5214501433074474334716796875</LatitudeDegrees>
              <LongitudeDegrees>-70.2248408831655979156494140625</LongitudeDegrees>
            </Position>
            <AltitudeMeters>1421</AltitudeMeters>
            <DistanceMeters>8372.9770867652</DistanceMeters>
          </Trackpoint>
          <Trackpoint>
            <Time>2019-08-04T19:07:59.000Z</Time>
            <Position>
              <LatitudeDegrees>-33.5214181244373321533203125</LatitudeDegrees>
              <LongitudeDegrees>-70.22482504136860370635986328125</LongitudeDegrees>
            </Position>
            <AltitudeMeters>1420</AltitudeMeters>
            <DistanceMeters>8376.8324085192</DistanceMeters>
          </Trackpoint>
          <Trackpoint>
            <Time>2019-08-04T19:08:05.000Z</Time>
            <Position>
              <LatitudeDegrees>-33.52136841975152492523193359375</LatitudeDegrees>
              <LongitudeDegrees>-70.2248070202767848968505859375</LongitudeDegrees>
            </Position>
            <AltitudeMeters>1418.800048828125</AltitudeMeters>
            <DistanceMeters>8382.6126578946</DistanceMeters>
          </Trackpoint>
          <Trackpoint>
            <Time>2019-08-04T19:08:06.000Z</Time>
            <Position>
              <LatitudeDegrees>-33.52135710418224334716796875</LatitudeDegrees>
              <LongitudeDegrees>-70.2248083613812923431396484375</LongitudeDegrees>
            </Position>
            <AltitudeMeters>1418.800048828125</AltitudeMeters>
            <DistanceMeters>8383.8769061023</DistanceMeters>
          </Trackpoint>
          <Trackpoint>
            <Time>2019-08-04T19:08:08.000Z</Time>
            <Position>
              <LatitudeDegrees>-33.5213322937488555908203125</LatitudeDegrees>
              <LongitudeDegrees>-70.22480861283838748931884765625</LongitudeDegrees>
            </Position>
            <AltitudeMeters>1418</AltitudeMeters>
            <DistanceMeters>8386.6392266114</DistanceMeters>
          </Trackpoint>
          <Trackpoint>
            <Time>2019-08-04T19:08:09.000Z</Time>
            <Position>
              <LatitudeDegrees>-33.52132315747439861297607421875</LatitudeDegrees>
              <LongitudeDegrees>-70.2248066850006580352783203125</LongitudeDegrees>
            </Position>
            <AltitudeMeters>1417.800048828125</AltitudeMeters>
            <DistanceMeters>8387.6714809504</DistanceMeters>
          </Trackpoint>
          <Trackpoint>
            <Time>2019-08-04T19:08:13.000Z</Time>
            <Position>
              <LatitudeDegrees>-33.52128862403333187103271484375</LatitudeDegrees>
              <LongitudeDegrees>-70.224797464907169342041015625</LongitudeDegrees>
            </Position>
            <AltitudeMeters>1416.5999755859375</AltitudeMeters>
            <DistanceMeters>8391.6090742832</DistanceMeters>
          </Trackpoint>
          <Trackpoint>
            <Time>2019-08-04T19:08:19.000Z</Time>
            <Position>
              <LatitudeDegrees>-33.521232716739177703857421875</LatitudeDegrees>
              <LongitudeDegrees>-70.22477810271084308624267578125</LongitudeDegrees>
            </Position>
            <AltitudeMeters>1415.800048828125</AltitudeMeters>
            <DistanceMeters>8398.085547481</DistanceMeters>
          </Trackpoint>
          <Trackpoint>
            <Time>2019-08-04T19:08:20.000Z</Time>
            <Position>
              <LatitudeDegrees>-33.52122123353183269500732421875</LatitudeDegrees>
              <LongitudeDegrees>-70.2247785218060016632080078125</LongitudeDegrees>
            </Position>
            <AltitudeMeters>1415.199951171875</AltitudeMeters>
            <DistanceMeters>8399.3604646391</DistanceMeters>
          </Trackpoint>
          <Trackpoint>
            <Time>2019-08-04T19:08:23.000Z</Time>
            <Position>
              <LatitudeDegrees>-33.5211923159658908843994140625</LatitudeDegrees>
              <LongitudeDegrees>-70.22477558813989162445068359375</LongitudeDegrees>
            </Position>
            <AltitudeMeters>1414.5999755859375</AltitudeMeters>
            <DistanceMeters>8402.5899751736</DistanceMeters>
          </Trackpoint>
          <Trackpoint>
            <Time>2019-08-04T19:08:25.000Z</Time>
            <Position>
              <LatitudeDegrees>-33.5211718641221523284912109375</LatitudeDegrees>
              <LongitudeDegrees>-70.22477190010249614715576171875</LongitudeDegrees>
            </Position>
            <AltitudeMeters>1414.199951171875</AltitudeMeters>
            <DistanceMeters>8404.8922902851</DistanceMeters>
          </Trackpoint>
          <Trackpoint>
            <Time>2019-08-04T19:08:26.000Z</Time>
            <Position>
              <LatitudeDegrees>-33.52116532623767852783203125</LatitudeDegrees>
              <LongitudeDegrees>-70.22477089427411556243896484375</LongitudeDegrees>
            </Position>
            <AltitudeMeters>1414.199951171875</AltitudeMeters>
            <DistanceMeters>8405.6283640495</DistanceMeters>
          </Trackpoint>
          <Trackpoint>
            <Time>2019-08-04T19:08:27.000Z</Time>
            <Position>
              <LatitudeDegrees>-33.52116339839994907379150390625</LatitudeDegrees>
              <LongitudeDegrees>-70.22477089427411556243896484375</LongitudeDegrees>
            </Position>
            <AltitudeMeters>1414</AltitudeMeters>
            <DistanceMeters>8405.8611310117</DistanceMeters>
          </Trackpoint>
          <Trackpoint>
            <Time>2019-08-04T19:08:32.000Z</Time>
            <Position>
              <LatitudeDegrees>-33.52113238535821437835693359375</LatitudeDegrees>
              <LongitudeDegrees>-70.22473736666142940521240234375</LongitudeDegrees>
            </Position>
            <AltitudeMeters>1413.199951171875</AltitudeMeters>
            <DistanceMeters>8410.5087048792</DistanceMeters>
          </Trackpoint>
          <Trackpoint>
            <Time>2019-08-04T19:08:33.000Z</Time>
            <Position>
              <LatitudeDegrees>-33.52112601511180400848388671875</LatitudeDegrees>
              <LongitudeDegrees>-70.224727056920528411865234375</LongitudeDegrees>
            </Position>
            <AltitudeMeters>1413</AltitudeMeters>
            <DistanceMeters>8411.7031721571</DistanceMeters>
          </Trackpoint>
          <Trackpoint>
            <Time>2019-08-04T19:08:38.000Z</Time>
            <Position>
              <LatitudeDegrees>-33.52109181694686412811279296875</LatitudeDegrees>
              <LongitudeDegrees>-70.224684812128543853759765625</LongitudeDegrees>
            </Position>
            <AltitudeMeters>1412</AltitudeMeters>
            <DistanceMeters>8417.1670016497</DistanceMeters>
          </Trackpoint>
          <Trackpoint>
            <Time>2019-08-04T19:08:42.000Z</Time>
            <Position>
              <LatitudeDegrees>-33.52104236371815204620361328125</LatitudeDegrees>
              <LongitudeDegrees>-70.224653966724872589111328125</LongitudeDegrees>
            </Position>
            <AltitudeMeters>1411</AltitudeMeters>
            <DistanceMeters>8423.3707251932</DistanceMeters>
          </Trackpoint>
          <Trackpoint>
            <Time>2019-08-04T19:08:43.000Z</Time>
            <Position>
              <LatitudeDegrees>-33.52102844975888729095458984375</LatitudeDegrees>
              <LongitudeDegrees>-70.224650613963603973388671875</LongitudeDegrees>
            </Position>
            <AltitudeMeters>1410.800048828125</AltitudeMeters>
            <DistanceMeters>8424.9436972036</DistanceMeters>
          </Trackpoint>
          <Trackpoint>
            <Time>2019-08-04T19:08:44.000Z</Time>
            <Position>
              <LatitudeDegrees>-33.52101822383701801300048828125</LatitudeDegrees>
              <LongitudeDegrees>-70.22464969195425510406494140625</LongitudeDegrees>
            </Position>
            <AltitudeMeters>1410.800048828125</AltitudeMeters>
            <DistanceMeters>8426.0840177761</DistanceMeters>
          </Trackpoint>
          <Trackpoint>
            <Time>2019-08-04T19:08:45.000Z</Time>
            <Position>
              <LatitudeDegrees>-33.52100632153451442718505859375</LatitudeDegrees>
              <LongitudeDegrees>-70.22465120069682598114013671875</LongitudeDegrees>
            </Position>
            <AltitudeMeters>1410.199951171875</AltitudeMeters>
            <DistanceMeters>8427.4143917773</DistanceMeters>
          </Trackpoint>
          <Trackpoint>
            <Time>2019-08-04T19:08:46.000Z</Time>
            <Position>
              <LatitudeDegrees>-33.52099492214620113372802734375</LatitudeDegrees>
              <LongitudeDegrees>-70.22465203888714313507080078125</LongitudeDegrees>
            </Position>
            <AltitudeMeters>1410</AltitudeMeters>
            <DistanceMeters>8428.6893089353</DistanceMeters>
          </Trackpoint>
          <Trackpoint>
            <Time>2019-08-04T19:08:47.000Z</Time>
            <Position>
              <LatitudeDegrees>-33.52098536677658557891845703125</LatitudeDegrees>
              <LongitudeDegrees>-70.2246507816016674041748046875</LongitudeDegrees>
            </Position>
            <AltitudeMeters>1409.800048828125</AltitudeMeters>
            <DistanceMeters>8429.7559811586</DistanceMeters>
          </Trackpoint>
          <Trackpoint>
            <Time>2019-08-04T19:08:48.000Z</Time>
            <Position>
              <LatitudeDegrees>-33.52097631432116031646728515625</LatitudeDegrees>
              <LongitudeDegrees>-70.22464751265943050384521484375</LongitudeDegrees>
            </Position>
            <AltitudeMeters>1409.4000244140625</AltitudeMeters>
            <DistanceMeters>8430.8055855251</DistanceMeters>
          </Trackpoint>
          <Trackpoint>
            <Time>2019-08-04T19:08:49.000Z</Time>
            <Position>
              <LatitudeDegrees>-33.52096776477992534637451171875</LatitudeDegrees>
              <LongitudeDegrees>-70.2246403880417346954345703125</LongitudeDegrees>
            </Position>
            <AltitudeMeters>1409</AltitudeMeters>
            <DistanceMeters>8431.9694203358</DistanceMeters>
          </Trackpoint>
          <Trackpoint>
            <Time>2019-08-04T19:08:50.000Z</Time>
            <Position>
              <LatitudeDegrees>-33.52095871232450008392333984375</LatitudeDegrees>
              <LongitudeDegrees>-70.22463125176727771759033203125</LongitudeDegrees>
            </Position>
            <AltitudeMeters>1408.5999755859375</AltitudeMeters>
            <DistanceMeters>8433.2861491147</DistanceMeters>
          </Trackpoint>
          <Trackpoint>
            <Time>2019-08-04T19:08:54.000Z</Time>
            <Position>
              <LatitudeDegrees>-33.52093867957592010498046875</LatitudeDegrees>
              <LongitudeDegrees>-70.2245904318988323211669921875</LongitudeDegrees>
            </Position>
            <AltitudeMeters>1407.4000244140625</AltitudeMeters>
            <DistanceMeters>8437.6820976574</DistanceMeters>
          </Trackpoint>
          <Trackpoint>
            <Time>2019-08-04T19:08:55.000Z</Time>
            <Position>
              <LatitudeDegrees>-33.52093306370079517364501953125</LatitudeDegrees>
              <LongitudeDegrees>-70.22458481602370738983154296875</LongitudeDegrees>
            </Position>
            <AltitudeMeters>1407.199951171875</AltitudeMeters>
            <DistanceMeters>8438.4995483635</DistanceMeters>
          </Trackpoint>
          <Trackpoint>
            <Time>2019-08-04T19:08:59.000Z</Time>
            <Position>
              <LatitudeDegrees>-33.52089710533618927001953125</LatitudeDegrees>
              <LongitudeDegrees>-70.22456872276961803436279296875</LongitudeDegrees>
            </Position>
            <AltitudeMeters>1406.199951171875</AltitudeMeters>
            <DistanceMeters>8442.772581779</DistanceMeters>
          </Trackpoint>
          <Trackpoint>
            <Time>2019-08-04T19:09:00.000Z</Time>
            <Position>
              <LatitudeDegrees>-33.52089316584169864654541015625</LatitudeDegrees>
              <LongitudeDegrees>-70.2245605923235416412353515625</LongitudeDegrees>
            </Position>
            <AltitudeMeters>1406</AltitudeMeters>
            <DistanceMeters>8443.6538232749</DistanceMeters>
          </Trackpoint>
          <Trackpoint>
            <Time>2019-08-04T19:09:03.000Z</Time>
            <Position>
              <LatitudeDegrees>-33.52087858133018016815185546875</LatitudeDegrees>
              <LongitudeDegrees>-70.2245528809726238250732421875</LongitudeDegrees>
            </Position>
            <AltitudeMeters>1405.4000244140625</AltitudeMeters>
            <DistanceMeters>8445.4316103137</DistanceMeters>
          </Trackpoint>
          <Trackpoint>
            <Time>2019-08-04T19:09:05.000Z</Time>
            <Position>
              <LatitudeDegrees>-33.52085896767675876617431640625</LatitudeDegrees>
              <LongitudeDegrees>-70.2245438285171985626220703125</LongitudeDegrees>
            </Position>
            <AltitudeMeters>1405.199951171875</AltitudeMeters>
            <DistanceMeters>8447.7708893319</DistanceMeters>
          </Trackpoint>
          <Trackpoint>
            <Time>2019-08-04T19:09:07.000Z</Time>
            <Position>
              <LatitudeDegrees>-33.52083097212016582489013671875</LatitudeDegrees>
              <LongitudeDegrees>-70.22453494369983673095703125</LongitudeDegrees>
            </Position>
            <AltitudeMeters>1404.199951171875</AltitudeMeters>
            <DistanceMeters>8450.9948027903</DistanceMeters>
          </Trackpoint>
          <Trackpoint>
            <Time>2019-08-04T19:09:08.000Z</Time>
            <Position>
              <LatitudeDegrees>-33.52081957273185253143310546875</LatitudeDegrees>
              <LongitudeDegrees>-70.2245317585766315460205078125</LongitudeDegrees>
            </Position>
            <AltitudeMeters>1403.800048828125</AltitudeMeters>
            <DistanceMeters>8452.2977434533</DistanceMeters>
          </Trackpoint>
          <Trackpoint>
            <Time>2019-08-04T19:09:14.000Z</Time>
            <Position>
              <LatitudeDegrees>-33.52075587026774883270263671875</LatitudeDegrees>
              <LongitudeDegrees>-70.22448825649917125701904296875</LongitudeDegrees>
            </Position>
            <AltitudeMeters>1402.800048828125</AltitudeMeters>
            <DistanceMeters>8460.4567705733</DistanceMeters>
          </Trackpoint>
          <Trackpoint>
            <Time>2019-08-04T19:09:18.000Z</Time>
            <Position>
              <LatitudeDegrees>-33.52071044035255908966064453125</LatitudeDegrees>
              <LongitudeDegrees>-70.22446612827479839324951171875</LongitudeDegrees>
            </Position>
            <AltitudeMeters>1401.800048828125</AltitudeMeters>
            <DistanceMeters>8465.9139852578</DistanceMeters>
          </Trackpoint>
          <Trackpoint>
            <Time>2019-08-04T19:09:20.000Z</Time>
            <Position>
              <LatitudeDegrees>-33.5206887312233448028564453125</LatitudeDegrees>
              <LongitudeDegrees>-70.22445707581937313079833984375</LongitudeDegrees>
            </Position>
            <AltitudeMeters>1401.199951171875</AltitudeMeters>
            <DistanceMeters>8468.4708926369</DistanceMeters>
          </Trackpoint>
          <Trackpoint>
            <Time>2019-08-04T19:09:21.000Z</Time>
            <Position>
              <LatitudeDegrees>-33.5206769965589046478271484375</LatitudeDegrees>
              <LongitudeDegrees>-70.22445313632488250732421875</LongitudeDegrees>
            </Position>
            <AltitudeMeters>1400.5999755859375</AltitudeMeters>
            <DistanceMeters>8469.8281455959</DistanceMeters>
          </Trackpoint>
          <Trackpoint>
            <Time>2019-08-04T19:09:25.000Z</Time>
            <Position>
              <LatitudeDegrees>-33.52063919417560100555419921875</LatitudeDegrees>
              <LongitudeDegrees>-70.22443394176661968231201171875</LongitudeDegrees>
            </Position>
            <AltitudeMeters>1399.5999755859375</AltitudeMeters>
            <DistanceMeters>8474.3963516619</DistanceMeters>
          </Trackpoint>
          <Trackpoint>
            <Time>2019-08-04T19:09:28.000Z</Time>
            <Position>
              <LatitudeDegrees>-33.5206196643412113189697265625</LatitudeDegrees>
              <LongitudeDegrees>-70.22440217435359954833984375</LongitudeDegrees>
            </Position>
            <AltitudeMeters>1399</AltitudeMeters>
            <DistanceMeters>8478.0582724037</DistanceMeters>
          </Trackpoint>
          <Trackpoint>
            <Time>2019-08-04T19:09:30.000Z</Time>
            <Position>
              <LatitudeDegrees>-33.520614467561244964599609375</LatitudeDegrees>
              <LongitudeDegrees>-70.22437845356762409210205078125</LongitudeDegrees>
            </Position>
            <AltitudeMeters>1398.800048828125</AltitudeMeters>
            <DistanceMeters>8480.3349506592</DistanceMeters>
          </Trackpoint>
          <Trackpoint>
            <Time>2019-08-04T19:09:31.000Z</Time>
            <Position>
              <LatitudeDegrees>-33.5206134617328643798828125</LatitudeDegrees>
              <LongitudeDegrees>-70.22436873055994510650634765625</LongitudeDegrees>
            </Position>
            <AltitudeMeters>1398.5999755859375</AltitudeMeters>
            <DistanceMeters>8481.2464148838</DistanceMeters>
          </Trackpoint>
          <Trackpoint>
            <Time>2019-08-04T19:09:32.000Z</Time>
            <Position>
              <LatitudeDegrees>-33.520607762038707733154296875</LatitudeDegrees>
              <LongitudeDegrees>-70.224359594285488128662109375</LongitudeDegrees>
            </Position>
            <AltitudeMeters>1398.4000244140625</AltitudeMeters>
            <DistanceMeters>8482.3045875914</DistanceMeters>
          </Trackpoint>
          <Trackpoint>
            <Time>2019-08-04T19:09:35.000Z</Time>
            <Position>
              <LatitudeDegrees>-33.520586974918842315673828125</LatitudeDegrees>
              <LongitudeDegrees>-70.2243264019489288330078125</LongitudeDegrees>
            </Position>
            <AltitudeMeters>1397.199951171875</AltitudeMeters>
            <DistanceMeters>8486.1552220224</DistanceMeters>
          </Trackpoint>
          <Trackpoint>
            <Time>2019-08-04T19:09:39.000Z</Time>
            <Position>
              <LatitudeDegrees>-33.5205445624887943267822265625</LatitudeDegrees>
              <LongitudeDegrees>-70.224287509918212890625</LongitudeDegrees>
            </Position>
            <AltitudeMeters>1396</AltitudeMeters>
            <DistanceMeters>8492.0972417881</DistanceMeters>
          </Trackpoint>
          <Trackpoint>
            <Time>2019-08-04T19:09:41.000Z</Time>
            <Position>
              <LatitudeDegrees>-33.520523607730865478515625</LatitudeDegrees>
              <LongitudeDegrees>-70.224269740283489227294921875</LongitudeDegrees>
            </Position>
            <AltitudeMeters>1395.5999755859375</AltitudeMeters>
            <DistanceMeters>8494.952790602</DistanceMeters>
          </Trackpoint>
          <Trackpoint>
            <Time>2019-08-04T19:09:42.000Z</Time>
            <Position>
              <LatitudeDegrees>-33.5205142199993133544921875</LatitudeDegrees>
              <LongitudeDegrees>-70.22426043637096881866455078125</LongitudeDegrees>
            </Position>
            <AltitudeMeters>1395.4000244140625</AltitudeMeters>
            <DistanceMeters>8496.310043561</DistanceMeters>
          </Trackpoint>
          <Trackpoint>
            <Time>2019-08-04T19:09:46.000Z</Time>
            <Position>
              <LatitudeDegrees>-33.5204768367111682891845703125</LatitudeDegrees>
              <LongitudeDegrees>-70.22423981688916683197021484375</LongitudeDegrees>
            </Position>
            <AltitudeMeters>1394.5999755859375</AltitudeMeters>
            <DistanceMeters>8500.8891086951</DistanceMeters>
          </Trackpoint>
          <Trackpoint>
            <Time>2019-08-04T19:09:51.000Z</Time>
            <Position>
              <LatitudeDegrees>-33.52043651975691318511962890625</LatitudeDegrees>
              <LongitudeDegrees>-70.22419975139200687408447265625</LongitudeDegrees>
            </Position>
            <AltitudeMeters>1393.5999755859375</AltitudeMeters>
            <DistanceMeters>8506.7160364816</DistanceMeters>
          </Trackpoint>
          <Trackpoint>
            <Time>2019-08-04T19:09:52.000Z</Time>
            <Position>
              <LatitudeDegrees>-33.5204288922250270843505859375</LatitudeDegrees>
              <LongitudeDegrees>-70.22418986074626445770263671875</LongitudeDegrees>
            </Position>
            <AltitudeMeters>1393.4000244140625</AltitudeMeters>
            <DistanceMeters>8507.9623001569</DistanceMeters>
          </Trackpoint>
          <Trackpoint>
            <Time>2019-08-04T19:09:57.000Z</Time>
            <Position>
              <LatitudeDegrees>-33.52038882672786712646484375</LatitudeDegrees>
              <LongitudeDegrees>-70.2241468615829944610595703125</LongitudeDegrees>
            </Position>
            <AltitudeMeters>1392.199951171875</AltitudeMeters>
            <DistanceMeters>8513.9452110725</DistanceMeters>
          </Trackpoint>
          <Trackpoint>
            <Time>2019-08-04T19:10:00.000Z</Time>
            <Position>
              <LatitudeDegrees>-33.52036292664706707000732421875</LatitudeDegrees>
              <LongitudeDegrees>-70.2241197042167186737060546875</LongitudeDegrees>
            </Position>
            <AltitudeMeters>1391.199951171875</AltitudeMeters>
            <DistanceMeters>8517.7735023452</DistanceMeters>
          </Trackpoint>
          <Trackpoint>
            <Time>2019-08-04T19:10:01.000Z</Time>
            <Position>
              <LatitudeDegrees>-33.5203554667532444000244140625</LatitudeDegrees>
              <LongitudeDegrees>-70.2241113223135471343994140625</LongitudeDegrees>
            </Position>
            <AltitudeMeters>1391</AltitudeMeters>
            <DistanceMeters>8518.9138229177</DistanceMeters>
          </Trackpoint>
          <Trackpoint>
            <Time>2019-08-04T19:10:02.000Z</Time>
            <Position>
              <LatitudeDegrees>-33.52034582756459712982177734375</LatitudeDegrees>
              <LongitudeDegrees>-70.22410134784877300262451171875</LongitudeDegrees>
            </Position>
            <AltitudeMeters>1390.5999755859375</AltitudeMeters>
            <DistanceMeters>8520.3296890733</DistanceMeters>
          </Trackpoint>
          <Trackpoint>
            <Time>2019-08-04T19:10:04.000Z</Time>
            <Position>
              <LatitudeDegrees>-33.52032671682536602020263671875</LatitudeDegrees>
              <LongitudeDegrees>-70.2240818180143833160400390625</LongitudeDegrees>
            </Position>
            <AltitudeMeters>1390.4000244140625</AltitudeMeters>
            <DistanceMeters>8523.1228926189</DistanceMeters>
          </Trackpoint>
          <Trackpoint>
            <Time>2019-08-04T19:10:06.000Z</Time>
            <Position>
              <LatitudeDegrees>-33.52030945010483264923095703125</LatitudeDegrees>
              <LongitudeDegrees>-70.2240657247602939605712890625</LongitudeDegrees>
            </Position>
            <AltitudeMeters>1389.800048828125</AltitudeMeters>
            <DistanceMeters>8525.5567640509</DistanceMeters>
          </Trackpoint>
          <Trackpoint>
            <Time>2019-08-04T19:10:08.000Z</Time>
            <Position>
              <LatitudeDegrees>-33.5202991403639316558837890625</LatitudeDegrees>
              <LongitudeDegrees>-70.22404703311622142791748046875</LongitudeDegrees>
            </Position>
            <AltitudeMeters>1389</AltitudeMeters>
            <DistanceMeters>8527.6365252431</DistanceMeters>
          </Trackpoint>
          <Trackpoint>
            <Time>2019-08-04T19:10:11.000Z</Time>
            <Position>
              <LatitudeDegrees>-33.52028380148112773895263671875</LatitudeDegrees>
              <LongitudeDegrees>-70.2240137569606304168701171875</LongitudeDegrees>
            </Position>
            <AltitudeMeters>1388.5999755859375</AltitudeMeters>
            <DistanceMeters>8531.1653317575</DistanceMeters>
          </Trackpoint>
          <Trackpoint>
            <Time>2019-08-04T19:10:15.000Z</Time>
            <Position>
              <LatitudeDegrees>-33.5202605836093425750732421875</LatitudeDegrees>
              <LongitudeDegrees>-70.22396757267415523529052734375</LongitudeDegrees>
            </Position>
            <AltitudeMeters>1388.199951171875</AltitudeMeters>
            <DistanceMeters>8536.1693703244</DistanceMeters>
          </Trackpoint>
          <Trackpoint>
            <Time>2019-08-04T19:10:17.000Z</Time>
            <Position>
              <LatitudeDegrees>-33.5202511958777904510498046875</LatitudeDegrees>
              <LongitudeDegrees>-70.22394510917365550994873046875</LongitudeDegrees>
            </Position>
            <AltitudeMeters>1387.5999755859375</AltitudeMeters>
            <DistanceMeters>8538.5009161677</DistanceMeters>
          </Trackpoint>
          <Trackpoint>
            <Time>2019-08-04T19:10:18.000Z</Time>
            <Position>
              <LatitudeDegrees>-33.52024675346910953521728515625</LatitudeDegrees>
              <LongitudeDegrees>-70.2239309437572956085205078125</LongitudeDegrees>
            </Position>
            <AltitudeMeters>1387.4000244140625</AltitudeMeters>
            <DistanceMeters>8539.9039687914</DistanceMeters>
          </Trackpoint>
          <Trackpoint>
            <Time>2019-08-04T19:10:25.000Z</Time>
            <Position>
              <LatitudeDegrees>-33.5202082805335521697998046875</LatitudeDegrees>
              <LongitudeDegrees>-70.22386615164577960968017578125</LongitudeDegrees>
            </Position>
            <AltitudeMeters>1386.4000244140625</AltitudeMeters>
            <DistanceMeters>8547.2855323969</DistanceMeters>
          </Trackpoint>
          <Trackpoint>
            <Time>2019-08-04T19:10:29.000Z</Time>
            <Position>
              <LatitudeDegrees>-33.52018942125141620635986328125</LatitudeDegrees>
              <LongitudeDegrees>-70.22383681498467922210693359375</LongitudeDegrees>
            </Position>
            <AltitudeMeters>1385.199951171875</AltitudeMeters>
            <DistanceMeters>8550.7222954072</DistanceMeters>
          </Trackpoint>
          <Trackpoint>
            <Time>2019-08-04T19:10:30.000Z</Time>
            <Position>
              <LatitudeDegrees>-33.52018204517662525177001953125</LatitudeDegrees>
              <LongitudeDegrees>-70.22383379749953746795654296875</LongitudeDegrees>
            </Position>
            <AltitudeMeters>1385</AltitudeMeters>
            <DistanceMeters>8551.5932296305</DistanceMeters>
          </Trackpoint>
          <Trackpoint>
            <Time>2019-08-04T19:10:36.000Z</Time>
            <Position>
              <LatitudeDegrees>-33.52013946510851383209228515625</LatitudeDegrees>
              <LongitudeDegrees>-70.2238087356090545654296875</LongitudeDegrees>
            </Position>
            <AltitudeMeters>1384.199951171875</AltitudeMeters>
            <DistanceMeters>8556.8721325379</DistanceMeters>
          </Trackpoint>
          <Trackpoint>
            <Time>2019-08-04T19:10:40.000Z</Time>
            <Position>
              <LatitudeDegrees>-33.52010962553322315216064453125</LatitudeDegrees>
              <LongitudeDegrees>-70.22378124296665191650390625</LongitudeDegrees>
            </Position>
            <AltitudeMeters>1383.4000244140625</AltitudeMeters>
            <DistanceMeters>8561.0597820521</DistanceMeters>
          </Trackpoint>
          <Trackpoint>
            <Time>2019-08-04T19:10:41.000Z</Time>
            <Position>
              <LatitudeDegrees>-33.52010174654424190521240234375</LatitudeDegrees>
              <LongitudeDegrees>-70.223775207996368408203125</LongitudeDegrees>
            </Position>
            <AltitudeMeters>1383.4000244140625</AltitudeMeters>
            <DistanceMeters>8562.1007475526</DistanceMeters>
          </Trackpoint>
          <Trackpoint>
            <Time>2019-08-04T19:10:43.000Z</Time>
            <Position>
              <LatitudeDegrees>-33.5200916044414043426513671875</LatitudeDegrees>
              <LongitudeDegrees>-70.22375701926648616790771484375</LongitudeDegrees>
            </Position>
            <AltitudeMeters>1383</AltitudeMeters>
            <DistanceMeters>8564.1344080482</DistanceMeters>
          </Trackpoint>
          <Trackpoint>
            <Time>2019-08-04T19:10:45.000Z</Time>
            <Position>
              <LatitudeDegrees>-33.52007961831986904144287109375</LatitudeDegrees>
              <LongitudeDegrees>-70.22374344058334827423095703125</LongitudeDegrees>
            </Position>
            <AltitudeMeters>1382.4000244140625</AltitudeMeters>
            <DistanceMeters>8565.9721372421</DistanceMeters>
          </Trackpoint>
          <Trackpoint>
            <Time>2019-08-04T19:10:46.000Z</Time>
            <Position>
              <LatitudeDegrees>-33.5200716555118560791015625</LatitudeDegrees>
              <LongitudeDegrees>-70.223737657070159912109375</LongitudeDegrees>
            </Position>
            <AltitudeMeters>1382.199951171875</AltitudeMeters>
            <DistanceMeters>8567.0087563124</DistanceMeters>
          </Trackpoint>
          <Trackpoint>
            <Time>2019-08-04T19:10:47.000Z</Time>
            <Position>
              <LatitudeDegrees>-33.52005950175225734710693359375</LatitudeDegrees>
              <LongitudeDegrees>-70.2237321250140666961669921875</LongitudeDegrees>
            </Position>
            <AltitudeMeters>1382</AltitudeMeters>
            <DistanceMeters>8568.4561601037</DistanceMeters>
          </Trackpoint>
          <Trackpoint>
            <Time>2019-08-04T19:10:48.000Z</Time>
            <Position>
              <LatitudeDegrees>-33.52004961110651493072509765625</LatitudeDegrees>
              <LongitudeDegrees>-70.22372868843376636505126953125</LongitudeDegrees>
            </Position>
            <AltitudeMeters>1381.800048828125</AltitudeMeters>
            <DistanceMeters>8569.6004332723</DistanceMeters>
          </Trackpoint>
          <Trackpoint>
            <Time>2019-08-04T19:10:49.000Z</Time>
            <Position>
              <LatitudeDegrees>-33.520038463175296783447265625</LatitudeDegrees>
              <LongitudeDegrees>-70.22372650913894176483154296875</LongitudeDegrees>
            </Position>
            <AltitudeMeters>1381.4000244140625</AltitudeMeters>
            <DistanceMeters>8570.8611050988</DistanceMeters>
          </Trackpoint>
          <Trackpoint>
            <Time>2019-08-04T19:10:50.000Z</Time>
            <Position>
              <LatitudeDegrees>-33.520030081272125244140625</LatitudeDegrees>
              <LongitudeDegrees>-70.2237250842154026031494140625</LongitudeDegrees>
            </Position>
            <AltitudeMeters>1380.800048828125</AltitudeMeters>
            <DistanceMeters>8571.8066089686</DistanceMeters>
          </Trackpoint>
          <Trackpoint>
            <Time>2019-08-04T19:10:51.000Z</Time>
            <Position>
              <LatitudeDegrees>-33.5200235433876514434814453125</LatitudeDegrees>
              <LongitudeDegrees>-70.2237254194915294647216796875</LongitudeDegrees>
            </Position>
            <AltitudeMeters>1380.4000244140625</AltitudeMeters>
            <DistanceMeters>8572.5303108643</DistanceMeters>
          </Trackpoint>
          <Trackpoint>
            <Time>2019-08-04T19:10:53.000Z</Time>
            <Position>
              <LatitudeDegrees>-33.52001122198998928070068359375</LatitudeDegrees>
              <LongitudeDegrees>-70.223728604614734649658203125</LongitudeDegrees>
            </Position>
            <AltitudeMeters>1379.800048828125</AltitudeMeters>
            <DistanceMeters>8573.9333634879</DistanceMeters>
          </Trackpoint>
          <Trackpoint>
            <Time>2019-08-04T19:10:54.000Z</Time>
            <Position>
              <LatitudeDegrees>-33.5200059413909912109375</LatitudeDegrees>
              <LongitudeDegrees>-70.22372600622475147247314453125</LongitudeDegrees>
            </Position>
            <AltitudeMeters>1379.5999755859375</AltitudeMeters>
            <DistanceMeters>8574.5636994012</DistanceMeters>
          </Trackpoint>
          <Trackpoint>
            <Time>2019-08-04T19:10:55.000Z</Time>
            <Position>
              <LatitudeDegrees>-33.52000082843005657196044921875</LatitudeDegrees>
              <LongitudeDegrees>-70.2237247489392757415771484375</LongitudeDegrees>
            </Position>
            <AltitudeMeters>1379.4000244140625</AltitudeMeters>
            <DistanceMeters>8575.1338596874</DistanceMeters>
          </Trackpoint>
          <Trackpoint>
            <Time>2019-08-04T19:10:59.000Z</Time>
            <Position>
              <LatitudeDegrees>-33.5199719108641147613525390625</LatitudeDegrees>
              <LongitudeDegrees>-70.2237240783870220184326171875</LongitudeDegrees>
            </Position>
            <AltitudeMeters>1378.199951171875</AltitudeMeters>
            <DistanceMeters>8578.3549709606</DistanceMeters>
          </Trackpoint>
          <Trackpoint>
            <Time>2019-08-04T19:11:04.000Z</Time>
            <Position>
              <LatitudeDegrees>-33.51992656476795673370361328125</LatitudeDegrees>
              <LongitudeDegrees>-70.22369951941072940826416015625</LongitudeDegrees>
            </Position>
            <AltitudeMeters>1377.199951171875</AltitudeMeters>
            <DistanceMeters>8583.8926726141</DistanceMeters>
          </Trackpoint>
          <Trackpoint>
            <Time>2019-08-04T19:11:07.000Z</Time>
            <Position>
              <LatitudeDegrees>-33.519903682172298431396484375</LatitudeDegrees>
              <LongitudeDegrees>-70.22367387078702449798583984375</LongitudeDegrees>
            </Position>
            <AltitudeMeters>1376.4000244140625</AltitudeMeters>
            <DistanceMeters>8587.3764095073</DistanceMeters>
          </Trackpoint>
          <Trackpoint>
            <Time>2019-08-04T19:11:08.000Z</Time>
            <Position>
              <LatitudeDegrees>-33.51989873684942722320556640625</LatitudeDegrees>
              <LongitudeDegrees>-70.2236690931022167205810546875</LongitudeDegrees>
            </Position>
            <AltitudeMeters>1376.199951171875</AltitudeMeters>
            <DistanceMeters>8588.0747103937</DistanceMeters>
          </Trackpoint>
          <Trackpoint>
            <Time>2019-08-04T19:11:15.000Z</Time>
            <Position>
              <LatitudeDegrees>-33.519876860082149505615234375</LatitudeDegrees>
              <LongitudeDegrees>-70.2236362360417842864990234375</LongitudeDegrees>
            </Position>
            <AltitudeMeters>1375.199951171875</AltitudeMeters>
            <DistanceMeters>8591.9765956924</DistanceMeters>
          </Trackpoint>
          <Trackpoint>
            <Time>2019-08-04T19:11:16.000Z</Time>
            <Position>
              <LatitudeDegrees>-33.519875518977642059326171875</LatitudeDegrees>
              <LongitudeDegrees>-70.22363732568919658660888671875</LongitudeDegrees>
            </Position>
            <AltitudeMeters>1375</AltitudeMeters>
            <DistanceMeters>8592.1666491212</DistanceMeters>
          </Trackpoint>
          <Trackpoint>
            <Time>2019-08-04T19:11:17.000Z</Time>
            <Position>
              <LatitudeDegrees>-33.5198730044066905975341796875</LatitudeDegrees>
              <LongitudeDegrees>-70.22363749332726001739501953125</LongitudeDegrees>
            </Position>
            <AltitudeMeters>1375</AltitudeMeters>
            <DistanceMeters>8592.4354252577</DistanceMeters>
          </Trackpoint>
          <Trackpoint>
            <Time>2019-08-04T19:11:19.000Z</Time>
            <Position>
              <LatitudeDegrees>-33.5198597609996795654296875</LatitudeDegrees>
              <LongitudeDegrees>-70.22363313473761081695556640625</LongitudeDegrees>
            </Position>
            <AltitudeMeters>1374.800048828125</AltitudeMeters>
            <DistanceMeters>8593.964735494</DistanceMeters>
          </Trackpoint>
          <Trackpoint>
            <Time>2019-08-04T19:11:21.000Z</Time>
            <Position>
              <LatitudeDegrees>-33.51984475739300251007080078125</LatitudeDegrees>
              <LongitudeDegrees>-70.223627351224422454833984375</LongitudeDegrees>
            </Position>
            <AltitudeMeters>1374.800048828125</AltitudeMeters>
            <DistanceMeters>8595.7220875202</DistanceMeters>
          </Trackpoint>
          <Trackpoint>
            <Time>2019-08-04T19:11:25.000Z</Time>
            <Position>
              <LatitudeDegrees>-33.519807122647762298583984375</LatitudeDegrees>
              <LongitudeDegrees>-70.22363078780472278594970703125</LongitudeDegrees>
            </Position>
            <AltitudeMeters>1374</AltitudeMeters>
            <DistanceMeters>8599.9226552641</DistanceMeters>
          </Trackpoint>
          <Trackpoint>
            <Time>2019-08-04T19:11:27.000Z</Time>
            <Position>
              <LatitudeDegrees>-33.51978574879467487335205078125</LatitudeDegrees>
              <LongitudeDegrees>-70.2236375771462917327880859375</LongitudeDegrees>
            </Position>
            <AltitudeMeters>1373.5999755859375</AltitudeMeters>
            <DistanceMeters>8602.3823607785</DistanceMeters>
          </Trackpoint>
          <Trackpoint>
            <Time>2019-08-04T19:11:30.000Z</Time>
            <Position>
              <LatitudeDegrees>-33.51976278237998485565185546875</LatitudeDegrees>
              <LongitudeDegrees>-70.22364503704011440277099609375</LongitudeDegrees>
            </Position>
            <AltitudeMeters>1372.800048828125</AltitudeMeters>
            <DistanceMeters>8605.0312038084</DistanceMeters>
          </Trackpoint>
          <Trackpoint>
            <Time>2019-08-04T19:11:36.000Z</Time>
            <Position>
              <LatitudeDegrees>-33.5197229683399200439453125</LatitudeDegrees>
              <LongitudeDegrees>-70.22363782860338687896728515625</LongitudeDegrees>
            </Position>
            <AltitudeMeters>1372</AltitudeMeters>
            <DistanceMeters>8609.512597566</DistanceMeters>
          </Trackpoint>
          <Trackpoint>
            <Time>2019-08-04T19:11:37.000Z</Time>
            <Position>
              <LatitudeDegrees>-33.5197202861309051513671875</LatitudeDegrees>
              <LongitudeDegrees>-70.2236302010715007781982421875</LongitudeDegrees>
            </Position>
            <AltitudeMeters>1371.800048828125</AltitudeMeters>
            <DistanceMeters>8610.284598243</DistanceMeters>
          </Trackpoint>
          <Trackpoint>
            <Time>2019-08-04T19:11:43.000Z</Time>
            <Position>
              <LatitudeDegrees>-33.51968516595661640167236328125</LatitudeDegrees>
              <LongitudeDegrees>-70.22360983304679393768310546875</LongitudeDegrees>
            </Position>
            <AltitudeMeters>1370.800048828125</AltitudeMeters>
            <DistanceMeters>8614.6257696908</DistanceMeters>
          </Trackpoint>
          <Trackpoint>
            <Time>2019-08-04T19:11:46.000Z</Time>
            <Position>
              <LatitudeDegrees>-33.51966018788516521453857421875</LatitudeDegrees>
              <LongitudeDegrees>-70.22360933013260364532470703125</LongitudeDegrees>
            </Position>
            <AltitudeMeters>1370</AltitudeMeters>
            <DistanceMeters>8617.4060116651</DistanceMeters>
          </Trackpoint>
          <Trackpoint>
            <Time>2019-08-04T19:11:49.000Z</Time>
            <Position>
              <LatitudeDegrees>-33.51964962668716907501220703125</LatitudeDegrees>
              <LongitudeDegrees>-70.22359994240105152130126953125</LongitudeDegrees>
            </Position>
            <AltitudeMeters>1369.5999755859375</AltitudeMeters>
            <DistanceMeters>8618.8658397512</DistanceMeters>
          </Trackpoint>
          <Trackpoint>
            <Time>2019-08-04T19:11:54.000Z</Time>
            <Position>
              <LatitudeDegrees>-33.51961442269384860992431640625</LatitudeDegrees>
              <LongitudeDegrees>-70.22360153496265411376953125</LongitudeDegrees>
            </Position>
            <AltitudeMeters>1368.5999755859375</AltitudeMeters>
            <DistanceMeters>8622.7861956161</DistanceMeters>
          </Trackpoint>
          <Trackpoint>
            <Time>2019-08-04T19:11:55.000Z</Time>
            <Position>
              <LatitudeDegrees>-33.51960520260035991668701171875</LatitudeDegrees>
              <LongitudeDegrees>-70.2236053906381130218505859375</LongitudeDegrees>
            </Position>
            <AltitudeMeters>1368.4000244140625</AltitudeMeters>
            <DistanceMeters>8623.8696668606</DistanceMeters>
          </Trackpoint>
          <Trackpoint>
            <Time>2019-08-04T19:11:59.000Z</Time>
            <Position>
              <LatitudeDegrees>-33.51957209408283233642578125</LatitudeDegrees>
              <LongitudeDegrees>-70.22361368872225284576416015625</LongitudeDegrees>
            </Position>
            <AltitudeMeters>1367.4000244140625</AltitudeMeters>
            <DistanceMeters>8627.6325327716</DistanceMeters>
          </Trackpoint>
          <Trackpoint>
            <Time>2019-08-04T19:12:05.000Z</Time>
            <Position>
              <LatitudeDegrees>-33.51953563280403614044189453125</LatitudeDegrees>
              <LongitudeDegrees>-70.22361637093126773834228515625</LongitudeDegrees>
            </Position>
            <AltitudeMeters>1366.199951171875</AltitudeMeters>
            <DistanceMeters>8631.6998537628</DistanceMeters>
          </Trackpoint>
          <Trackpoint>
            <Time>2019-08-04T19:12:07.000Z</Time>
            <Position>
              <LatitudeDegrees>-33.51952658034861087799072265625</LatitudeDegrees>
              <LongitudeDegrees>-70.2236070670187473297119140625</LongitudeDegrees>
            </Position>
            <AltitudeMeters>1365.5999755859375</AltitudeMeters>
            <DistanceMeters>8633.030227764</DistanceMeters>
          </Trackpoint>
          <Trackpoint>
            <Time>2019-08-04T19:12:10.000Z</Time>
            <Position>
              <LatitudeDegrees>-33.519512079656124114990234375</LatitudeDegrees>
              <LongitudeDegrees>-70.22360011003911495208740234375</LongitudeDegrees>
            </Position>
            <AltitudeMeters>1365.199951171875</AltitudeMeters>
            <DistanceMeters>8634.7669043407</DistanceMeters>
          </Trackpoint>
          <Trackpoint>
            <Time>2019-08-04T19:12:17.000Z</Time>
            <Position>
              <LatitudeDegrees>-33.51949003525078296661376953125</LatitudeDegrees>
              <LongitudeDegrees>-70.22360379807651042938232421875</LongitudeDegrees>
            </Position>
            <AltitudeMeters>1364.199951171875</AltitudeMeters>
            <DistanceMeters>8637.2448978803</DistanceMeters>
          </Trackpoint>
          <Trackpoint>
            <Time>2019-08-04T19:12:19.000Z</Time>
            <Position>
              <LatitudeDegrees>-33.51949305273592472076416015625</LatitudeDegrees>
              <LongitudeDegrees>-70.22360480390489101409912109375</LongitudeDegrees>
            </Position>
            <AltitudeMeters>1363.800048828125</AltitudeMeters>
            <DistanceMeters>8637.600455288</DistanceMeters>
          </Trackpoint>
          <Trackpoint>
            <Time>2019-08-04T19:12:25.000Z</Time>
            <Position>
              <LatitudeDegrees>-33.519458435475826263427734375</LatitudeDegrees>
              <LongitudeDegrees>-70.22364235483109951019287109375</LongitudeDegrees>
            </Position>
            <AltitudeMeters>1363</AltitudeMeters>
            <DistanceMeters>8642.7948627051</DistanceMeters>
          </Trackpoint>
          <Trackpoint>
            <Time>2019-08-04T19:12:27.000Z</Time>
            <Position>
              <LatitudeDegrees>-33.519443683326244354248046875</LatitudeDegrees>
              <LongitudeDegrees>-70.22364771924912929534912109375</LongitudeDegrees>
            </Position>
            <AltitudeMeters>1362.800048828125</AltitudeMeters>
            <DistanceMeters>8644.5106147037</DistanceMeters>
          </Trackpoint>
          <Trackpoint>
            <Time>2019-08-04T19:12:32.000Z</Time>
            <Position>
              <LatitudeDegrees>-33.51941652595996856689453125</LatitudeDegrees>
              <LongitudeDegrees>-70.2236617170274257659912109375</LongitudeDegrees>
            </Position>
            <AltitudeMeters>1362</AltitudeMeters>
            <DistanceMeters>8647.8010647727</DistanceMeters>
          </Trackpoint>
          <Trackpoint>
            <Time>2019-08-04T19:12:35.000Z</Time>
            <Position>
              <LatitudeDegrees>-33.5193925537168979644775390625</LatitudeDegrees>
              <LongitudeDegrees>-70.22365844808518886566162109375</LongitudeDegrees>
            </Position>
            <AltitudeMeters>1360.5999755859375</AltitudeMeters>
            <DistanceMeters>8650.4854643335</DistanceMeters>
          </Trackpoint>
          <Trackpoint>
            <Time>2019-08-04T19:12:38.000Z</Time>
            <Position>
              <LatitudeDegrees>-33.51937889121472835540771484375</LatitudeDegrees>
              <LongitudeDegrees>-70.223652161657810211181640625</LongitudeDegrees>
            </Position>
            <AltitudeMeters>1359.800048828125</AltitudeMeters>
            <DistanceMeters>8652.1148330685</DistanceMeters>
          </Trackpoint>
          <Trackpoint>
            <Time>2019-08-04T19:12:40.000Z</Time>
            <Position>
              <LatitudeDegrees>-33.5193687491118907928466796875</LatitudeDegrees>
              <LongitudeDegrees>-70.223657526075839996337890625</LongitudeDegrees>
            </Position>
            <AltitudeMeters>1359.4000244140625</AltitudeMeters>
            <DistanceMeters>8653.346520059</DistanceMeters>
          </Trackpoint>
          <Trackpoint>
            <Time>2019-08-04T19:12:44.000Z</Time>
            <Position>
              <LatitudeDegrees>-33.51934469304978847503662109375</LatitudeDegrees>
              <LongitudeDegrees>-70.22368543781340122222900390625</LongitudeDegrees>
            </Position>
            <AltitudeMeters>1358.199951171875</AltitudeMeters>
            <DistanceMeters>8657.0720035839</DistanceMeters>
          </Trackpoint>
          <Trackpoint>
            <Time>2019-08-04T19:12:47.000Z</Time>
            <Position>
              <LatitudeDegrees>-33.5193385742604732513427734375</LatitudeDegrees>
              <LongitudeDegrees>-70.22367822937667369842529296875</LongitudeDegrees>
            </Position>
            <AltitudeMeters>1357.5999755859375</AltitudeMeters>
            <DistanceMeters>8658.027010244</DistanceMeters>
          </Trackpoint>
          <Trackpoint>
            <Time>2019-08-04T19:12:49.000Z</Time>
            <Position>
              <LatitudeDegrees>-33.51933932863175868988037109375</LatitudeDegrees>
              <LongitudeDegrees>-70.22366230376064777374267578125</LongitudeDegrees>
            </Position>
            <AltitudeMeters>1357.199951171875</AltitudeMeters>
            <DistanceMeters>8659.5113749742</DistanceMeters>
          </Trackpoint>
          <Trackpoint>
            <Time>2019-08-04T19:12:50.000Z</Time>
            <Position>
              <LatitudeDegrees>-33.519340418279170989990234375</LatitudeDegrees>
              <LongitudeDegrees>-70.2236476354300975799560546875</LongitudeDegrees>
            </Position>
            <AltitudeMeters>1357</AltitudeMeters>
            <DistanceMeters>8660.8752649065</DistanceMeters>
          </Trackpoint>
          <Trackpoint>
            <Time>2019-08-04T19:12:53.000Z</Time>
            <Position>
              <LatitudeDegrees>-33.5193412564694881439208984375</LatitudeDegrees>
              <LongitudeDegrees>-70.2236228249967098236083984375</LongitudeDegrees>
            </Position>
            <AltitudeMeters>1356.5999755859375</AltitudeMeters>
            <DistanceMeters>8663.175618096</DistanceMeters>
          </Trackpoint>
          <Trackpoint>
            <Time>2019-08-04T19:12:55.000Z</Time>
            <Position>
              <LatitudeDegrees>-33.519343771040439605712890625</LatitudeDegrees>
              <LongitudeDegrees>-70.22361301816999912261962890625</LongitudeDegrees>
            </Position>
            <AltitudeMeters>1356.4000244140625</AltitudeMeters>
            <DistanceMeters>8664.1258852397</DistanceMeters>
          </Trackpoint>
          <Trackpoint>
            <Time>2019-08-04T19:12:57.000Z</Time>
            <Position>
              <LatitudeDegrees>-33.5193536616861820220947265625</LatitudeDegrees>
              <LongitudeDegrees>-70.22362022660672664642333984375</LongitudeDegrees>
            </Position>
            <AltitudeMeters>1356.199951171875</AltitudeMeters>
            <DistanceMeters>8665.4148903078</DistanceMeters>
          </Trackpoint>
          <Trackpoint>
            <Time>2019-08-04T19:13:04.000Z</Time>
            <Position>
              <LatitudeDegrees>-33.5193700902163982391357421875</LatitudeDegrees>
              <LongitudeDegrees>-70.22360463626682758331298828125</LongitudeDegrees>
            </Position>
            <AltitudeMeters>1355.5999755859375</AltitudeMeters>
            <DistanceMeters>8667.7444988463</DistanceMeters>
          </Trackpoint>
          <Trackpoint>
            <Time>2019-08-04T19:13:08.000Z</Time>
            <Position>
              <LatitudeDegrees>-33.5193573497235774993896484375</LatitudeDegrees>
              <LongitudeDegrees>-70.22356088273227214813232421875</LongitudeDegrees>
            </Position>
            <AltitudeMeters>1355</AltitudeMeters>
            <DistanceMeters>8672.0449170303</DistanceMeters>
          </Trackpoint>
          <Trackpoint>
            <Time>2019-08-04T19:13:12.000Z</Time>
            <Position>
              <LatitudeDegrees>-33.51933513768017292022705078125</LatitudeDegrees>
              <LongitudeDegrees>-70.2235004492104053497314453125</LongitudeDegrees>
            </Position>
            <AltitudeMeters>1354.199951171875</AltitudeMeters>
            <DistanceMeters>8678.1732192365</DistanceMeters>
          </Trackpoint>
          <Trackpoint>
            <Time>2019-08-04T19:13:14.000Z</Time>
            <Position>
              <LatitudeDegrees>-33.51931862533092498779296875</LatitudeDegrees>
              <LongitudeDegrees>-70.223469436168670654296875</LongitudeDegrees>
            </Position>
            <AltitudeMeters>1353.800048828125</AltitudeMeters>
            <DistanceMeters>8681.5875754993</DistanceMeters>
          </Trackpoint>
          <Trackpoint>
            <Time>2019-08-04T19:13:18.000Z</Time>
            <Position>
              <LatitudeDegrees>-33.51927495561540126800537109375</LatitudeDegrees>
              <LongitudeDegrees>-70.22340715862810611724853515625</LongitudeDegrees>
            </Position>
            <AltitudeMeters>1352.4000244140625</AltitudeMeters>
            <DistanceMeters>8689.138463041</DistanceMeters>
          </Trackpoint>
          <Trackpoint>
            <Time>2019-08-04T19:13:19.000Z</Time>
            <Position>
              <LatitudeDegrees>-33.51926037110388278961181640625</LatitudeDegrees>
              <LongitudeDegrees>-70.22339592687785625457763671875</LongitudeDegrees>
            </Position>
            <AltitudeMeters>1352</AltitudeMeters>
            <DistanceMeters>8691.0649524436</DistanceMeters>
          </Trackpoint>
          <Trackpoint>
            <Time>2019-08-04T19:13:21.000Z</Time>
            <Position>
              <LatitudeDegrees>-33.51923841051757335662841796875</LatitudeDegrees>
              <LongitudeDegrees>-70.22337212227284908294677734375</LongitudeDegrees>
            </Position>
            <AltitudeMeters>1351</AltitudeMeters>
            <DistanceMeters>8694.3581456978</DistanceMeters>
          </Trackpoint>
          <Trackpoint>
            <Time>2019-08-04T19:13:23.000Z</Time>
            <Position>
              <LatitudeDegrees>-33.51921242661774158477783203125</LatitudeDegrees>
              <LongitudeDegrees>-70.22334815002977848052978515625</LongitudeDegrees>
            </Position>
            <AltitudeMeters>1350</AltitudeMeters>
            <DistanceMeters>8698.0064785607</DistanceMeters>
          </Trackpoint>
          <Trackpoint>
            <Time>2019-08-04T19:13:25.000Z</Time>
            <Position>
              <LatitudeDegrees>-33.51918325759470462799072265625</LatitudeDegrees>
              <LongitudeDegrees>-70.223324596881866455078125</LongitudeDegrees>
            </Position>
            <AltitudeMeters>1348.800048828125</AltitudeMeters>
            <DistanceMeters>8701.9210717356</DistanceMeters>
          </Trackpoint>
          <Trackpoint>
            <Time>2019-08-04T19:13:26.000Z</Time>
            <Position>
              <LatitudeDegrees>-33.519175462424755096435546875</LatitudeDegrees>
              <LongitudeDegrees>-70.22330875508487224578857421875</LongitudeDegrees>
            </Position>
            <AltitudeMeters>1348.5999755859375</AltitudeMeters>
            <DistanceMeters>8703.6262651601</DistanceMeters>
          </Trackpoint>
          <Trackpoint>
            <Time>2019-08-04T19:13:28.000Z</Time>
            <Position>
              <LatitudeDegrees>-33.51915207691490650177001953125</LatitudeDegrees>
              <LongitudeDegrees>-70.223287045955657958984375</LongitudeDegrees>
            </Position>
            <AltitudeMeters>1347.800048828125</AltitudeMeters>
            <DistanceMeters>8706.9194584143</DistanceMeters>
          </Trackpoint>
          <Trackpoint>
            <Time>2019-08-04T19:13:29.000Z</Time>
            <Position>
              <LatitudeDegrees>-33.5191397555172443389892578125</LatitudeDegrees>
              <LongitudeDegrees>-70.22328008897602558135986328125</LongitudeDegrees>
            </Position>
            <AltitudeMeters>1347.5999755859375</AltitudeMeters>
            <DistanceMeters>8708.4339350291</DistanceMeters>
          </Trackpoint>
          <Trackpoint>
            <Time>2019-08-04T19:13:32.000Z</Time>
            <Position>
              <LatitudeDegrees>-33.519107736647129058837890625</LatitudeDegrees>
              <LongitudeDegrees>-70.22326734848320484161376953125</LongitudeDegrees>
            </Position>
            <AltitudeMeters>1346.4000244140625</AltitudeMeters>
            <DistanceMeters>8712.1895946789</DistanceMeters>
          </Trackpoint>
          <Trackpoint>
            <Time>2019-08-04T19:13:36.000Z</Time>
            <Position>
              <LatitudeDegrees>-33.51906406693160533905029296875</LatitudeDegrees>
              <LongitudeDegrees>-70.2232486568391323089599609375</LongitudeDegrees>
            </Position>
            <AltitudeMeters>1345.800048828125</AltitudeMeters>
            <DistanceMeters>8717.3499915079</DistanceMeters>
          </Trackpoint>
          <Trackpoint>
            <Time>2019-08-04T19:13:38.000Z</Time>
            <Position>
              <LatitudeDegrees>-33.51903967559337615966796875</LatitudeDegrees>
              <LongitudeDegrees>-70.22323549725115299224853515625</LongitudeDegrees>
            </Position>
            <AltitudeMeters>1345.4000244140625</AltitudeMeters>
            <DistanceMeters>8720.32783218</DistanceMeters>
          </Trackpoint>
          <Trackpoint>
            <Time>2019-08-04T19:13:40.000Z</Time>
            <Position>
              <LatitudeDegrees>-33.51901712827384471893310546875</LatitudeDegrees>
              <LongitudeDegrees>-70.22322745062410831451416015625</LongitudeDegrees>
            </Position>
            <AltitudeMeters>1344.800048828125</AltitudeMeters>
            <DistanceMeters>8722.9475379072</DistanceMeters>
          </Trackpoint>
          <Trackpoint>
            <Time>2019-08-04T19:13:45.000Z</Time>
            <Position>
              <LatitudeDegrees>-33.5189707763493061065673828125</LatitudeDegrees>
              <LongitudeDegrees>-70.223196856677532196044921875</LongitudeDegrees>
            </Position>
            <AltitudeMeters>1344.4000244140625</AltitudeMeters>
            <DistanceMeters>8728.8361280224</DistanceMeters>
          </Trackpoint>
          <Trackpoint>
            <Time>2019-08-04T19:13:47.000Z</Time>
            <Position>
              <LatitudeDegrees>-33.5189546830952167510986328125</LatitudeDegrees>
              <LongitudeDegrees>-70.223183445632457733154296875</LongitudeDegrees>
            </Position>
            <AltitudeMeters>1344</AltitudeMeters>
            <DistanceMeters>8731.0196756776</DistanceMeters>
          </Trackpoint>
          <Trackpoint>
            <Time>2019-08-04T19:13:49.000Z</Time>
            <Position>
              <LatitudeDegrees>-33.51893750019371509552001953125</LatitudeDegrees>
              <LongitudeDegrees>-70.223169028759002685546875</LongitudeDegrees>
            </Position>
            <AltitudeMeters>1343.5999755859375</AltitudeMeters>
            <DistanceMeters>8733.3550913091</DistanceMeters>
          </Trackpoint>
          <Trackpoint>
            <Time>2019-08-04T19:13:54.000Z</Time>
            <Position>
              <LatitudeDegrees>-33.518889136612415313720703125</LatitudeDegrees>
              <LongitudeDegrees>-70.22313877008855342864990234375</LongitudeDegrees>
            </Position>
            <AltitudeMeters>1343.199951171875</AltitudeMeters>
            <DistanceMeters>8739.4263985855</DistanceMeters>
          </Trackpoint>
          <Trackpoint>
            <Time>2019-08-04T19:13:55.000Z</Time>
            <Position>
              <LatitudeDegrees>-33.518880419433116912841796875</LatitudeDegrees>
              <LongitudeDegrees>-70.22313617169857025146484375</LongitudeDegrees>
            </Position>
            <AltitudeMeters>1342.800048828125</AltitudeMeters>
            <DistanceMeters>8740.423047174</DistanceMeters>
          </Trackpoint>
          <Trackpoint>
            <Time>2019-08-04T19:14:04.000Z</Time>
            <Position>
              <LatitudeDegrees>-33.5188064910471439361572265625</LatitudeDegrees>
              <LongitudeDegrees>-70.22311429493129253387451171875</LongitudeDegrees>
            </Position>
            <AltitudeMeters>1342</AltitudeMeters>
            <DistanceMeters>8748.8990891859</DistanceMeters>
          </Trackpoint>
          <Trackpoint>
            <Time>2019-08-04T19:14:09.000Z</Time>
            <Position>
              <LatitudeDegrees>-33.51874521933495998382568359375</LatitudeDegrees>
              <LongitudeDegrees>-70.223111696541309356689453125</LongitudeDegrees>
            </Position>
            <AltitudeMeters>1341.800048828125</AltitudeMeters>
            <DistanceMeters>8755.722510186</DistanceMeters>
          </Trackpoint>
          <Trackpoint>
            <Time>2019-08-04T19:14:11.000Z</Time>
            <Position>
              <LatitudeDegrees>-33.51873029954731464385986328125</LatitudeDegrees>
              <LongitudeDegrees>-70.22310909815132617950439453125</LongitudeDegrees>
            </Position>
            <AltitudeMeters>1341.5999755859375</AltitudeMeters>
            <DistanceMeters>8757.3956281429</DistanceMeters>
          </Trackpoint>
          <Trackpoint>
            <Time>2019-08-04T19:14:18.000Z</Time>
            <Position>
              <LatitudeDegrees>-33.51867212913930416107177734375</LatitudeDegrees>
              <LongitudeDegrees>-70.223080851137638092041015625</LongitudeDegrees>
            </Position>
            <AltitudeMeters>1341.4000244140625</AltitudeMeters>
            <DistanceMeters>8764.3812228279</DistanceMeters>
          </Trackpoint>
          <Trackpoint>
            <Time>2019-08-04T19:14:24.000Z</Time>
            <Position>
              <LatitudeDegrees>-33.5186462290585041046142578125</LatitudeDegrees>
              <LongitudeDegrees>-70.223061405122280120849609375</LongitudeDegrees>
            </Position>
            <AltitudeMeters>1341</AltitudeMeters>
            <DistanceMeters>8767.7836569568</DistanceMeters>
          </Trackpoint>
          <Trackpoint>
            <Time>2019-08-04T19:14:25.000Z</Time>
            <Position>
              <LatitudeDegrees>-33.51864413358271121978759765625</LatitudeDegrees>
              <LongitudeDegrees>-70.22306081838905811309814453125</LongitudeDegrees>
            </Position>
            <AltitudeMeters>1341</AltitudeMeters>
            <DistanceMeters>8768.0164239189</DistanceMeters>
          </Trackpoint>
          <Trackpoint>
            <Time>2019-08-04T19:14:34.000Z</Time>
            <Position>
              <LatitudeDegrees>-33.5186401940882205963134765625</LatitudeDegrees>
              <LongitudeDegrees>-70.22306048311293125152587890625</LongitudeDegrees>
            </Position>
            <AltitudeMeters>1340.800048828125</AltitudeMeters>
            <DistanceMeters>8768.4518910305</DistanceMeters>
          </Trackpoint>
          <Trackpoint>
            <Time>2019-08-04T19:14:38.000Z</Time>
            <Position>
              <LatitudeDegrees>-33.51863793097436428070068359375</LatitudeDegrees>
              <LongitudeDegrees>-70.22305897437036037445068359375</LongitudeDegrees>
            </Position>
            <AltitudeMeters>1340.5999755859375</AltitudeMeters>
            <DistanceMeters>8768.7369711737</DistanceMeters>
          </Trackpoint>
          <Trackpoint>
            <Time>2019-08-04T19:14:40.000Z</Time>
            <Position>
              <LatitudeDegrees>-33.51863692514598369598388671875</LatitudeDegrees>
              <LongitudeDegrees>-70.22305746562778949737548828125</LongitudeDegrees>
            </Position>
            <AltitudeMeters>1340.5999755859375</AltitudeMeters>
            <DistanceMeters>8768.9270246024</DistanceMeters>
          </Trackpoint>
          <Trackpoint>
            <Time>2019-08-04T19:14:43.000Z</Time>
            <Position>
              <LatitudeDegrees>-33.51863734424114227294921875</LatitudeDegrees>
              <LongitudeDegrees>-70.22305645979940891265869140625</LongitudeDegrees>
            </Position>
            <AltitudeMeters>1340.5999755859375</AltitudeMeters>
            <DistanceMeters>8769.0220513168</DistanceMeters>
          </Trackpoint>
          <Trackpoint>
            <Time>2019-08-04T19:14:56.000Z</Time>
            <Position>
              <LatitudeDegrees>-33.5186284594237804412841796875</LatitudeDegrees>
              <LongitudeDegrees>-70.22304405458271503448486328125</LongitudeDegrees>
            </Position>
            <AltitudeMeters>1340.5999755859375</AltitudeMeters>
            <DistanceMeters>8770.5365279316</DistanceMeters>
          </Trackpoint>
          <Trackpoint>
            <Time>2019-08-04T19:15:00.000Z</Time>
            <Position>
              <LatitudeDegrees>-33.51861446164548397064208984375</LatitudeDegrees>
              <LongitudeDegrees>-70.22303332574665546417236328125</LongitudeDegrees>
            </Position>
            <AltitudeMeters>1340.5999755859375</AltitudeMeters>
            <DistanceMeters>8772.3840584173</DistanceMeters>
          </Trackpoint>
          <Trackpoint>
            <Time>2019-08-04T19:15:06.000Z</Time>
            <Position>
              <LatitudeDegrees>-33.518579341471195220947265625</LatitudeDegrees>
              <LongitudeDegrees>-70.22301144897937774658203125</LongitudeDegrees>
            </Position>
            <AltitudeMeters>1340.5999755859375</AltitudeMeters>
            <DistanceMeters>8776.7892410785</DistanceMeters>
          </Trackpoint>
          <Trackpoint>
            <Time>2019-08-04T19:15:10.000Z</Time>
            <Position>
              <LatitudeDegrees>-33.51855914108455181121826171875</LatitudeDegrees>
              <LongitudeDegrees>-70.22297515533864498138427734375</LongitudeDegrees>
            </Position>
            <AltitudeMeters>1340.4000244140625</AltitudeMeters>
            <DistanceMeters>8780.8387618924</DistanceMeters>
          </Trackpoint>
          <Trackpoint>
            <Time>2019-08-04T19:15:11.000Z</Time>
            <Position>
              <LatitudeDegrees>-33.51855285465717315673828125</LatitudeDegrees>
              <LongitudeDegrees>-70.22296593524515628814697265625</LongitudeDegrees>
            </Position>
            <AltitudeMeters>1340.199951171875</AltitudeMeters>
            <DistanceMeters>8781.942872539</DistanceMeters>
          </Trackpoint>
          <Trackpoint>
            <Time>2019-08-04T19:15:15.000Z</Time>
            <Position>
              <LatitudeDegrees>-33.51853810250759124755859375</LatitudeDegrees>
              <LongitudeDegrees>-70.2229334972798824310302734375</LongitudeDegrees>
            </Position>
            <AltitudeMeters>1340</AltitudeMeters>
            <DistanceMeters>8785.3717440049</DistanceMeters>
          </Trackpoint>
          <Trackpoint>
            <Time>2019-08-04T19:15:18.000Z</Time>
            <Position>
              <LatitudeDegrees>-33.51852930150926113128662109375</LatitudeDegrees>
              <LongitudeDegrees>-70.22290843538939952850341796875</LongitudeDegrees>
            </Position>
            <AltitudeMeters>1339.800048828125</AltitudeMeters>
            <DistanceMeters>8787.8948777495</DistanceMeters>
          </Trackpoint>
          <Trackpoint>
            <Time>2019-08-04T19:15:23.000Z</Time>
            <Position>
              <LatitudeDegrees>-33.518512286245822906494140625</LatitudeDegrees>
              <LongitudeDegrees>-70.222864262759685516357421875</LongitudeDegrees>
            </Position>
            <AltitudeMeters>1339.4000244140625</AltitudeMeters>
            <DistanceMeters>8792.4103968349</DistanceMeters>
          </Trackpoint>
          <Trackpoint>
            <Time>2019-08-04T19:15:31.000Z</Time>
            <Position>
              <LatitudeDegrees>-33.51846325211226940155029296875</LatitudeDegrees>
              <LongitudeDegrees>-70.22281623445451259613037109375</LongitudeDegrees>
            </Position>
            <AltitudeMeters>1339</AltitudeMeters>
            <DistanceMeters>8799.4564851319</DistanceMeters>
          </Trackpoint>
          <Trackpoint>
            <Time>2019-08-04T19:15:34.000Z</Time>
            <Position>
              <LatitudeDegrees>-33.51844648830592632293701171875</LatitudeDegrees>
              <LongitudeDegrees>-70.22281053476035594940185546875</LongitudeDegrees>
            </Position>
            <AltitudeMeters>1338.4000244140625</AltitudeMeters>
            <DistanceMeters>8801.3946574154</DistanceMeters>
          </Trackpoint>
          <Trackpoint>
            <Time>2019-08-04T19:15:39.000Z</Time>
            <Position>
              <LatitudeDegrees>-33.51841044612228870391845703125</LatitudeDegrees>
              <LongitudeDegrees>-70.22279796190559864044189453125</LongitudeDegrees>
            </Position>
            <AltitudeMeters>1338</AltitudeMeters>
            <DistanceMeters>8805.5725920446</DistanceMeters>
          </Trackpoint>
          <Trackpoint>
            <Time>2019-08-04T19:15:40.000Z</Time>
            <Position>
              <LatitudeDegrees>-33.51840575225651264190673828125</LatitudeDegrees>
              <LongitudeDegrees>-70.22279150784015655517578125</LongitudeDegrees>
            </Position>
            <AltitudeMeters>1337.800048828125</AltitudeMeters>
            <DistanceMeters>8806.3676425783</DistanceMeters>
          </Trackpoint>
          <Trackpoint>
            <Time>2019-08-04T19:15:44.000Z</Time>
            <Position>
              <LatitudeDegrees>-33.518417738378047943115234375</LatitudeDegrees>
              <LongitudeDegrees>-70.22275420837104320526123046875</LongitudeDegrees>
            </Position>
            <AltitudeMeters>1337.199951171875</AltitudeMeters>
            <DistanceMeters>8810.0773375119</DistanceMeters>
          </Trackpoint>
          <Trackpoint>
            <Time>2019-08-04T19:15:47.000Z</Time>
            <Position>
              <LatitudeDegrees>-33.5184155590832233428955078125</LatitudeDegrees>
              <LongitudeDegrees>-70.2227380312979221343994140625</LongitudeDegrees>
            </Position>
            <AltitudeMeters>1336.5999755859375</AltitudeMeters>
            <DistanceMeters>8811.6036925566</DistanceMeters>
          </Trackpoint>
          <Trackpoint>
            <Time>2019-08-04T19:15:53.000Z</Time>
            <Position>
              <LatitudeDegrees>-33.5183920897543430328369140625</LatitudeDegrees>
              <LongitudeDegrees>-70.22270299494266510009765625</LongitudeDegrees>
            </Position>
            <AltitudeMeters>1335.5999755859375</AltitudeMeters>
            <DistanceMeters>8815.7751380264</DistanceMeters>
          </Trackpoint>
          <Trackpoint>
            <Time>2019-08-04T19:15:55.000Z</Time>
            <Position>
              <LatitudeDegrees>-33.51838563568890094757080078125</LatitudeDegrees>
              <LongitudeDegrees>-70.222685225307941436767578125</LongitudeDegrees>
            </Position>
            <AltitudeMeters>1335.199951171875</AltitudeMeters>
            <DistanceMeters>8817.5781431623</DistanceMeters>
          </Trackpoint>
          <Trackpoint>
            <Time>2019-08-04T19:15:58.000Z</Time>
            <Position>
              <LatitudeDegrees>-33.5183699615299701690673828125</LatitudeDegrees>
              <LongitudeDegrees>-70.22266116924583911895751953125</LongitudeDegrees>
            </Position>
            <AltitudeMeters>1334.4000244140625</AltitudeMeters>
            <DistanceMeters>8820.4114694687</DistanceMeters>
          </Trackpoint>
          <Trackpoint>
            <Time>2019-08-04T19:16:03.000Z</Time>
            <Position>
              <LatitudeDegrees>-33.51835143752396106719970703125</LatitudeDegrees>
              <LongitudeDegrees>-70.22266753949224948883056640625</LongitudeDegrees>
            </Position>
            <AltitudeMeters>1333.4000244140625</AltitudeMeters>
            <DistanceMeters>8822.5574748243</DistanceMeters>
          </Trackpoint>
          <Trackpoint>
            <Time>2019-08-04T19:16:05.000Z</Time>
            <Position>
              <LatitudeDegrees>-33.5183443129062652587890625</LatitudeDegrees>
              <LongitudeDegrees>-70.222671814262866973876953125</LongitudeDegrees>
            </Position>
            <AltitudeMeters>1333</AltitudeMeters>
            <DistanceMeters>8823.4387163203</DistanceMeters>
          </Trackpoint>
          <Trackpoint>
            <Time>2019-08-04T19:16:09.000Z</Time>
            <Position>
              <LatitudeDegrees>-33.51832327432930469512939453125</LatitudeDegrees>
              <LongitudeDegrees>-70.22266150452196598052978515625</LongitudeDegrees>
            </Position>
            <AltitudeMeters>1332.199951171875</AltitudeMeters>
            <DistanceMeters>8825.9672127356</DistanceMeters>
          </Trackpoint>
          <Trackpoint>
            <Time>2019-08-04T19:16:15.000Z</Time>
            <Position>
              <LatitudeDegrees>-33.51831589825451374053955078125</LatitudeDegrees>
              <LongitudeDegrees>-70.22263434715569019317626953125</LongitudeDegrees>
            </Position>
            <AltitudeMeters>1331.4000244140625</AltitudeMeters>
            <DistanceMeters>8828.6177597496</DistanceMeters>
          </Trackpoint>
          <Trackpoint>
            <Time>2019-08-04T19:16:17.000Z</Time>
            <Position>
              <LatitudeDegrees>-33.5183220170438289642333984375</LatitudeDegrees>
              <LongitudeDegrees>-70.22263132967054843902587890625</LongitudeDegrees>
            </Position>
            <AltitudeMeters>1331.199951171875</AltitudeMeters>
            <DistanceMeters>8829.353833514</DistanceMeters>
          </Trackpoint>
          <Trackpoint>
            <Time>2019-08-04T19:16:27.000Z</Time>
            <Position>
              <LatitudeDegrees>-33.5183166526257991790771484375</LatitudeDegrees>
              <LongitudeDegrees>-70.22259998135268688201904296875</LongitudeDegrees>
            </Position>
            <AltitudeMeters>1330.199951171875</AltitudeMeters>
            <DistanceMeters>8832.3256031488</DistanceMeters>
          </Trackpoint>
          <Trackpoint>
            <Time>2019-08-04T19:16:29.000Z</Time>
            <Position>
              <LatitudeDegrees>-33.5183069296181201934814453125</LatitudeDegrees>
              <LongitudeDegrees>-70.22258858196437358856201171875</LongitudeDegrees>
            </Position>
            <AltitudeMeters>1330.199951171875</AltitudeMeters>
            <DistanceMeters>8833.8400797636</DistanceMeters>
          </Trackpoint>
          <Trackpoint>
            <Time>2019-08-04T19:16:36.000Z</Time>
            <Position>
              <LatitudeDegrees>-33.51827926933765411376953125</LatitudeDegrees>
              <LongitudeDegrees>-70.22255823947489261627197265625</LongitudeDegrees>
            </Position>
            <AltitudeMeters>1329.199951171875</AltitudeMeters>
            <DistanceMeters>8838.0126074608</DistanceMeters>
          </Trackpoint>
          <Trackpoint>
            <Time>2019-08-04T19:16:39.000Z</Time>
            <Position>
              <LatitudeDegrees>-33.51826761849224567413330078125</LatitudeDegrees>
              <LongitudeDegrees>-70.22255136631429195404052734375</LongitudeDegrees>
            </Position>
            <AltitudeMeters>1328.199951171875</AltitudeMeters>
            <DistanceMeters>8839.460011252</DistanceMeters>
          </Trackpoint>
          <Trackpoint>
            <Time>2019-08-04T19:16:40.000Z</Time>
            <Position>
              <LatitudeDegrees>-33.5182643495500087738037109375</LatitudeDegrees>
              <LongitudeDegrees>-70.22254935465753078460693359375</LongitudeDegrees>
            </Position>
            <AltitudeMeters>1328</AltitudeMeters>
            <DistanceMeters>8839.8742230969</DistanceMeters>
          </Trackpoint>
          <Trackpoint>
            <Time>2019-08-04T19:16:45.000Z</Time>
            <Position>
              <LatitudeDegrees>-33.518256805837154388427734375</LatitudeDegrees>
              <LongitudeDegrees>-70.22253124974668025970458984375</LongitudeDegrees>
            </Position>
            <AltitudeMeters>1327</AltitudeMeters>
            <DistanceMeters>8841.7556560524</DistanceMeters>
          </Trackpoint>
          <Trackpoint>
            <Time>2019-08-04T19:16:52.000Z</Time>
            <Position>
              <LatitudeDegrees>-33.51825647056102752685546875</LatitudeDegrees>
              <LongitudeDegrees>-70.2225281484425067901611328125</LongitudeDegrees>
            </Position>
            <AltitudeMeters>1326.199951171875</AltitudeMeters>
            <DistanceMeters>8842.0244321889</DistanceMeters>
          </Trackpoint>
          <Trackpoint>
            <Time>2019-08-04T19:16:54.000Z</Time>
            <Position>
              <LatitudeDegrees>-33.51823442615568637847900390625</LatitudeDegrees>
              <LongitudeDegrees>-70.2225293219089508056640625</LongitudeDegrees>
            </Position>
            <AltitudeMeters>1326</AltitudeMeters>
            <DistanceMeters>8844.4786247217</DistanceMeters>
          </Trackpoint>
          <Trackpoint>
            <Time>2019-08-04T19:16:59.000Z</Time>
            <Position>
              <LatitudeDegrees>-33.51819989271461963653564453125</LatitudeDegrees>
              <LongitudeDegrees>-70.222508870065212249755859375</LongitudeDegrees>
            </Position>
            <AltitudeMeters>1325.5999755859375</AltitudeMeters>
            <DistanceMeters>8848.7664255147</DistanceMeters>
          </Trackpoint>
          <Trackpoint>
            <Time>2019-08-04T19:17:03.000Z</Time>
            <Position>
              <LatitudeDegrees>-33.51817172951996326446533203125</LatitudeDegrees>
              <LongitudeDegrees>-70.2224842272698879241943359375</LongitudeDegrees>
            </Position>
            <AltitudeMeters>1325</AltitudeMeters>
            <DistanceMeters>8852.6462628092</DistanceMeters>
          </Trackpoint>
          <Trackpoint>
            <Time>2019-08-04T19:17:08.000Z</Time>
            <Position>
              <LatitudeDegrees>-33.5181315802037715911865234375</LatitudeDegrees>
              <LongitudeDegrees>-70.22246955893933773040771484375</LongitudeDegrees>
            </Position>
            <AltitudeMeters>1324.199951171875</AltitudeMeters>
            <DistanceMeters>8857.3170940723</DistanceMeters>
          </Trackpoint>
          <Trackpoint>
            <Time>2019-08-04T19:17:09.000Z</Time>
            <Position>
              <LatitudeDegrees>-33.51811909116804599761962890625</LatitudeDegrees>
              <LongitudeDegrees>-70.2224691398441791534423828125</LongitudeDegrees>
            </Position>
            <AltitudeMeters>1324</AltitudeMeters>
            <DistanceMeters>8858.7072150595</DistanceMeters>
          </Trackpoint>
          <Trackpoint>
            <Time>2019-08-04T19:17:10.000Z</Time>
            <Position>
              <LatitudeDegrees>-33.51810718886554241180419921875</LatitudeDegrees>
              <LongitudeDegrees>-70.22246587090194225311279296875</LongitudeDegrees>
            </Position>
            <AltitudeMeters>1323.5999755859375</AltitudeMeters>
            <DistanceMeters>8860.0644680185</DistanceMeters>
          </Trackpoint>
          <Trackpoint>
            <Time>2019-08-04T19:17:14.000Z</Time>
            <Position>
              <LatitudeDegrees>-33.5180769301950931549072265625</LatitudeDegrees>
              <LongitudeDegrees>-70.22244240157306194305419921875</LongitudeDegrees>
            </Position>
            <AltitudeMeters>1322.199951171875</AltitudeMeters>
            <DistanceMeters>8864.0747755063</DistanceMeters>
          </Trackpoint>
          <Trackpoint>
            <Time>2019-08-04T19:17:17.000Z</Time>
            <Position>
              <LatitudeDegrees>-33.51805589161813259124755859375</LatitudeDegrees>
              <LongitudeDegrees>-70.222430415451526641845703125</LongitudeDegrees>
            </Position>
            <AltitudeMeters>1321</AltitudeMeters>
            <DistanceMeters>8866.6667586995</DistanceMeters>
          </Trackpoint>
          <Trackpoint>
            <Time>2019-08-04T19:17:21.000Z</Time>
            <Position>
              <LatitudeDegrees>-33.51803208701312541961669921875</LatitudeDegrees>
              <LongitudeDegrees>-70.2224020846188068389892578125</LongitudeDegrees>
            </Position>
            <AltitudeMeters>1319.800048828125</AltitudeMeters>
            <DistanceMeters>8870.3982969717</DistanceMeters>
          </Trackpoint>
          <Trackpoint>
            <Time>2019-08-04T19:17:25.000Z</Time>
            <Position>
              <LatitudeDegrees>-33.51800166070461273193359375</LatitudeDegrees>
              <LongitudeDegrees>-70.22237618453800678253173828125</LongitudeDegrees>
            </Position>
            <AltitudeMeters>1318.5999755859375</AltitudeMeters>
            <DistanceMeters>8874.5491265099</DistanceMeters>
          </Trackpoint>
          <Trackpoint>
            <Time>2019-08-04T19:17:30.000Z</Time>
            <Position>
              <LatitudeDegrees>-33.51796637289226055145263671875</LatitudeDegrees>
              <LongitudeDegrees>-70.22232941351830959320068359375</LongitudeDegrees>
            </Position>
            <AltitudeMeters>1317.4000244140625</AltitudeMeters>
            <DistanceMeters>8880.4023401595</DistanceMeters>
          </Trackpoint>
          <Trackpoint>
            <Time>2019-08-04T19:17:37.000Z</Time>
            <Position>
              <LatitudeDegrees>-33.5179216973483562469482421875</LatitudeDegrees>
              <LongitudeDegrees>-70.2222810499370098114013671875</LongitudeDegrees>
            </Position>
            <AltitudeMeters>1316.4000244140625</AltitudeMeters>
            <DistanceMeters>8887.1002069672</DistanceMeters>
          </Trackpoint>
          <Trackpoint>
            <Time>2019-08-04T19:17:38.000Z</Time>
            <Position>
              <LatitudeDegrees>-33.5179139859974384307861328125</LatitudeDegrees>
              <LongitudeDegrees>-70.22227778099477291107177734375</LongitudeDegrees>
            </Position>
            <AltitudeMeters>1316.199951171875</AltitudeMeters>
            <DistanceMeters>8888.0116711919</DistanceMeters>
          </Trackpoint>
          <Trackpoint>
            <Time>2019-08-04T19:17:40.000Z</Time>
            <Position>
              <LatitudeDegrees>-33.51790384389460086822509765625</LatitudeDegrees>
              <LongitudeDegrees>-70.22228281013667583465576171875</LongitudeDegrees>
            </Position>
            <AltitudeMeters>1315.800048828125</AltitudeMeters>
            <DistanceMeters>8889.2286069079</DistanceMeters>
          </Trackpoint>
          <Trackpoint>
            <Time>2019-08-04T19:17:42.000Z</Time>
            <Position>
              <LatitudeDegrees>-33.51789646781980991363525390625</LatitudeDegrees>
              <LongitudeDegrees>-70.22228633053600788116455078125</LongitudeDegrees>
            </Position>
            <AltitudeMeters>1315.5999755859375</AltitudeMeters>
            <DistanceMeters>8890.1098484038</DistanceMeters>
          </Trackpoint>
          <Trackpoint>
            <Time>2019-08-04T19:17:47.000Z</Time>
            <Position>
              <LatitudeDegrees>-33.517870567739009857177734375</LatitudeDegrees>
              <LongitudeDegrees>-70.22228029556572437286376953125</LongitudeDegrees>
            </Position>
            <AltitudeMeters>1315.199951171875</AltitudeMeters>
            <DistanceMeters>8893.0480031105</DistanceMeters>
          </Trackpoint>
          <Trackpoint>
            <Time>2019-08-04T19:17:53.000Z</Time>
            <Position>
              <LatitudeDegrees>-33.5178481042385101318359375</LatitudeDegrees>
              <LongitudeDegrees>-70.2222709916532039642333984375</LongitudeDegrees>
            </Position>
            <AltitudeMeters>1314</AltitudeMeters>
            <DistanceMeters>8895.6951410594</DistanceMeters>
          </Trackpoint>
          <Trackpoint>
            <Time>2019-08-04T19:17:58.000Z</Time>
            <Position>
              <LatitudeDegrees>-33.51780979894101619720458984375</LatitudeDegrees>
              <LongitudeDegrees>-70.22223629057407379150390625</LongitudeDegrees>
            </Position>
            <AltitudeMeters>1313</AltitudeMeters>
            <DistanceMeters>8901.0369611203</DistanceMeters>
          </Trackpoint>
          <Trackpoint>
            <Time>2019-08-04T19:18:04.000Z</Time>
            <Position>
              <LatitudeDegrees>-33.517775349318981170654296875</LatitudeDegrees>
              <LongitudeDegrees>-70.22219178266823291778564453125</LongitudeDegrees>
            </Position>
            <AltitudeMeters>1312.4000244140625</AltitudeMeters>
            <DistanceMeters>8906.6724538985</DistanceMeters>
          </Trackpoint>
          <Trackpoint>
            <Time>2019-08-04T19:18:06.000Z</Time>
            <Position>
              <LatitudeDegrees>-33.5177708230912685394287109375</LatitudeDegrees>
              <LongitudeDegrees>-70.22217635996639728546142578125</LongitudeDegrees>
            </Position>
            <AltitudeMeters>1312</AltitudeMeters>
            <DistanceMeters>8908.1869305133</DistanceMeters>
          </Trackpoint>
          <Trackpoint>
            <Time>2019-08-04T19:18:14.000Z</Time>
            <Position>
              <LatitudeDegrees>-33.51771189831197261810302734375</LatitudeDegrees>
              <LongitudeDegrees>-70.22212992422282695770263671875</LongitudeDegrees>
            </Position>
            <AltitudeMeters>1311.199951171875</AltitudeMeters>
            <DistanceMeters>8916.0345493463</DistanceMeters>
          </Trackpoint>
          <Trackpoint>
            <Time>2019-08-04T19:18:15.000Z</Time>
            <Position>
              <LatitudeDegrees>-33.517703600227832794189453125</LatitudeDegrees>
              <LongitudeDegrees>-70.222122967243194580078125</LongitudeDegrees>
            </Position>
            <AltitudeMeters>1311</AltitudeMeters>
            <DistanceMeters>8917.1589205938</DistanceMeters>
          </Trackpoint>
          <Trackpoint>
            <Time>2019-08-04T19:18:19.000Z</Time>
            <Position>
              <LatitudeDegrees>-33.51766764186322689056396484375</LatitudeDegrees>
              <LongitudeDegrees>-70.22209740243852138519287109375</LongitudeDegrees>
            </Position>
            <AltitudeMeters>1310</AltitudeMeters>
            <DistanceMeters>8921.8113493397</DistanceMeters>
          </Trackpoint>
          <Trackpoint>
            <Time>2019-08-04T19:18:23.000Z</Time>
            <Position>
              <LatitudeDegrees>-33.5176320187747478485107421875</LatitudeDegrees>
              <LongitudeDegrees>-70.2220785431563854217529296875</LongitudeDegrees>
            </Position>
            <AltitudeMeters>1308.5999755859375</AltitudeMeters>
            <DistanceMeters>8926.1441923933</DistanceMeters>
          </Trackpoint>
          <Trackpoint>
            <Time>2019-08-04T19:18:28.000Z</Time>
            <Position>
              <LatitudeDegrees>-33.5175840742886066436767578125</LatitudeDegrees>
              <LongitudeDegrees>-70.22206907160580158233642578125</LongitudeDegrees>
            </Position>
            <AltitudeMeters>1307.800048828125</AltitudeMeters>
            <DistanceMeters>8931.5515380939</DistanceMeters>
          </Trackpoint>
          <Trackpoint>
            <Time>2019-08-04T19:18:29.000Z</Time>
            <Position>
              <LatitudeDegrees>-33.51757326163351535797119140625</LatitudeDegrees>
              <LongitudeDegrees>-70.22207192145287990570068359375</LongitudeDegrees>
            </Position>
            <AltitudeMeters>1307.5999755859375</AltitudeMeters>
            <DistanceMeters>8932.7868853807</DistanceMeters>
          </Trackpoint>
          <Trackpoint>
            <Time>2019-08-04T19:18:33.000Z</Time>
            <Position>
              <LatitudeDegrees>-33.5175639577209949493408203125</LatitudeDegrees>
              <LongitudeDegrees>-70.22210628725588321685791015625</LongitudeDegrees>
            </Position>
            <AltitudeMeters>1306.5999755859375</AltitudeMeters>
            <DistanceMeters>8936.1398609506</DistanceMeters>
          </Trackpoint>
          <Trackpoint>
            <Time>2019-08-04T19:18:35.000Z</Time>
            <Position>
              <LatitudeDegrees>-33.51756840012967586517333984375</LatitudeDegrees>
              <LongitudeDegrees>-70.222126655280590057373046875</LongitudeDegrees>
            </Position>
            <AltitudeMeters>1306.4000244140625</AltitudeMeters>
            <DistanceMeters>8938.09658076</DistanceMeters>
          </Trackpoint>
          <Trackpoint>
            <Time>2019-08-04T19:18:42.000Z</Time>
            <Position>
              <LatitudeDegrees>-33.51757460273802280426025390625</LatitudeDegrees>
              <LongitudeDegrees>-70.22219882346689701080322265625</LongitudeDegrees>
            </Position>
            <AltitudeMeters>1305.5999755859375</AltitudeMeters>
            <DistanceMeters>8944.8287389334</DistanceMeters>
          </Trackpoint>
          <Trackpoint>
            <Time>2019-08-04T19:18:43.000Z</Time>
            <Position>
              <LatitudeDegrees>-33.51757678203284740447998046875</LatitudeDegrees>
              <LongitudeDegrees>-70.222209803760051727294921875</LongitudeDegrees>
            </Position>
            <AltitudeMeters>1305.199951171875</AltitudeMeters>
            <DistanceMeters>8945.8783432999</DistanceMeters>
          </Trackpoint>
          <Trackpoint>
            <Time>2019-08-04T19:18:46.000Z</Time>
            <Position>
              <LatitudeDegrees>-33.5175693221390247344970703125</LatitudeDegrees>
              <LongitudeDegrees>-70.22224375046789646148681640625</LongitudeDegrees>
            </Position>
            <AltitudeMeters>1304.4000244140625</AltitudeMeters>
            <DistanceMeters>8949.1370807699</DistanceMeters>
          </Trackpoint>
          <Trackpoint>
            <Time>2019-08-04T19:18:49.000Z</Time>
            <Position>
              <LatitudeDegrees>-33.51753361523151397705078125</LatitudeDegrees>
              <LongitudeDegrees>-70.22226520814001560211181640625</LongitudeDegrees>
            </Position>
            <AltitudeMeters>1303.800048828125</AltitudeMeters>
            <DistanceMeters>8953.582056277</DistanceMeters>
          </Trackpoint>
          <Trackpoint>
            <Time>2019-08-04T19:18:53.000Z</Time>
            <Position>
              <LatitudeDegrees>-33.517492376267910003662109375</LatitudeDegrees>
              <LongitudeDegrees>-70.22227241657674312591552734375</LongitudeDegrees>
            </Position>
            <AltitudeMeters>1303.4000244140625</AltitudeMeters>
            <DistanceMeters>8958.2199051415</DistanceMeters>
          </Trackpoint>
          <Trackpoint>
            <Time>2019-08-04T19:18:57.000Z</Time>
            <Position>
              <LatitudeDegrees>-33.517450131475925445556640625</LatitudeDegrees>
              <LongitudeDegrees>-70.2222696505486965179443359375</LongitudeDegrees>
            </Position>
            <AltitudeMeters>1302.199951171875</AltitudeMeters>
            <DistanceMeters>8962.929243497</DistanceMeters>
          </Trackpoint>
          <Trackpoint>
            <Time>2019-08-04T19:19:01.000Z</Time>
            <Position>
              <LatitudeDegrees>-33.51741484366357326507568359375</LatitudeDegrees>
              <LongitudeDegrees>-70.2222988195717334747314453125</LongitudeDegrees>
            </Position>
            <AltitudeMeters>1301</AltitudeMeters>
            <DistanceMeters>8967.6995466989</DistanceMeters>
          </Trackpoint>
          <Trackpoint>
            <Time>2019-08-04T19:19:02.000Z</Time>
            <Position>
              <LatitudeDegrees>-33.51740880869328975677490234375</LatitudeDegrees>
              <LongitudeDegrees>-70.22230468690395355224609375</LongitudeDegrees>
            </Position>
            <AltitudeMeters>1301</AltitudeMeters>
            <DistanceMeters>8968.5652812684</DistanceMeters>
          </Trackpoint>
          <Trackpoint>
            <Time>2019-08-04T19:19:08.000Z</Time>
            <Position>
              <LatitudeDegrees>-33.51736061275005340576171875</LatitudeDegrees>
              <LongitudeDegrees>-70.22234089672565460205078125</LongitudeDegrees>
            </Position>
            <AltitudeMeters>1300</AltitudeMeters>
            <DistanceMeters>8974.8943743398</DistanceMeters>
          </Trackpoint>
          <Trackpoint>
            <Time>2019-08-04T19:19:12.000Z</Time>
            <Position>
              <LatitudeDegrees>-33.5173379816114902496337890625</LatitudeDegrees>
              <LongitudeDegrees>-70.22231784649193286895751953125</LongitudeDegrees>
            </Position>
            <AltitudeMeters>1299.4000244140625</AltitudeMeters>
            <DistanceMeters>8978.1998837554</DistanceMeters>
          </Trackpoint>
          <Trackpoint>
            <Time>2019-08-04T19:19:16.000Z</Time>
            <Position>
              <LatitudeDegrees>-33.5173356346786022186279296875</LatitudeDegrees>
              <LongitudeDegrees>-70.22227275185286998748779296875</LongitudeDegrees>
            </Position>
            <AltitudeMeters>1298.800048828125</AltitudeMeters>
            <DistanceMeters>8982.3929207021</DistanceMeters>
          </Trackpoint>
          <Trackpoint>
            <Time>2019-08-04T19:19:21.000Z</Time>
            <Position>
              <LatitudeDegrees>-33.51732037961483001708984375</LatitudeDegrees>
              <LongitudeDegrees>-70.222225897014141082763671875</LongitudeDegrees>
            </Position>
            <AltitudeMeters>1297.800048828125</AltitudeMeters>
            <DistanceMeters>8987.0618182739</DistanceMeters>
          </Trackpoint>
          <Trackpoint>
            <Time>2019-08-04T19:19:22.000Z</Time>
            <Position>
              <LatitudeDegrees>-33.51731711067259311676025390625</LatitudeDegrees>
              <LongitudeDegrees>-70.22221692837774753570556640625</LongitudeDegrees>
            </Position>
            <AltitudeMeters>1297.800048828125</AltitudeMeters>
            <DistanceMeters>8987.9732824986</DistanceMeters>
          </Trackpoint>
          <Trackpoint>
            <Time>2019-08-04T19:19:28.000Z</Time>
            <Position>
              <LatitudeDegrees>-33.51728148758411407470703125</LatitudeDegrees>
              <LongitudeDegrees>-70.2221764437854290008544921875</LongitudeDegrees>
            </Position>
            <AltitudeMeters>1296.5999755859375</AltitudeMeters>
            <DistanceMeters>8993.4354590401</DistanceMeters>
          </Trackpoint>
          <Trackpoint>
            <Time>2019-08-04T19:19:31.000Z</Time>
            <Position>
              <LatitudeDegrees>-33.51727352477610111236572265625</LatitudeDegrees>
              <LongitudeDegrees>-70.222146101295948028564453125</LongitudeDegrees>
            </Position>
            <AltitudeMeters>1296.199951171875</AltitudeMeters>
            <DistanceMeters>8996.3858816695</DistanceMeters>
          </Trackpoint>
          <Trackpoint>
            <Time>2019-08-04T19:19:32.000Z</Time>
            <Position>
              <LatitudeDegrees>-33.5172736085951328277587890625</LatitudeDegrees>
              <LongitudeDegrees>-70.2221315167844295501708984375</LongitudeDegrees>
            </Position>
            <AltitudeMeters>1296</AltitudeMeters>
            <DistanceMeters>8997.7364650404</DistanceMeters>
          </Trackpoint>
          <Trackpoint>
            <Time>2019-08-04T19:19:35.000Z</Time>
            <Position>
              <LatitudeDegrees>-33.517269752919673919677734375</LatitudeDegrees>
              <LongitudeDegrees>-70.22210427559912204742431640625</LongitudeDegrees>
            </Position>
            <AltitudeMeters>1295.5999755859375</AltitudeMeters>
            <DistanceMeters>9000.3004259705</DistanceMeters>
          </Trackpoint>
          <Trackpoint>
            <Time>2019-08-04T19:19:36.000Z</Time>
            <Position>
              <LatitudeDegrees>-33.51726849563419818878173828125</LatitudeDegrees>
              <LongitudeDegrees>-70.22209547460079193115234375</LongitudeDegrees>
            </Position>
            <AltitudeMeters>1295.5999755859375</AltitudeMeters>
            <DistanceMeters>9001.1233814573</DistanceMeters>
          </Trackpoint>
          <Trackpoint>
            <Time>2019-08-04T19:19:41.000Z</Time>
            <Position>
              <LatitudeDegrees>-33.51726313121616840362548828125</LatitudeDegrees>
              <LongitudeDegrees>-70.22205255925655364990234375</LongitudeDegrees>
            </Position>
            <AltitudeMeters>1294.800048828125</AltitudeMeters>
            <DistanceMeters>9005.1505414111</DistanceMeters>
          </Trackpoint>
          <Trackpoint>
            <Time>2019-08-04T19:19:44.000Z</Time>
            <Position>
              <LatitudeDegrees>-33.517259694635868072509765625</LatitudeDegrees>
              <LongitudeDegrees>-70.222030766308307647705078125</LongitudeDegrees>
            </Position>
            <AltitudeMeters>1294.5999755859375</AltitudeMeters>
            <DistanceMeters>9007.2106714868</DistanceMeters>
          </Trackpoint>
          <Trackpoint>
            <Time>2019-08-04T19:19:45.000Z</Time>
            <Position>
              <LatitudeDegrees>-33.5172555036842823028564453125</LatitudeDegrees>
              <LongitudeDegrees>-70.22202548570930957794189453125</LongitudeDegrees>
            </Position>
            <AltitudeMeters>1294.5999755859375</AltitudeMeters>
            <DistanceMeters>9007.882611828</DistanceMeters>
          </Trackpoint>
          <Trackpoint>
            <Time>2019-08-04T19:19:53.000Z</Time>
            <Position>
              <LatitudeDegrees>-33.5172373987734317779541015625</LatitudeDegrees>
              <LongitudeDegrees>-70.2220188640058040618896484375</LongitudeDegrees>
            </Position>
            <AltitudeMeters>1293.4000244140625</AltitudeMeters>
            <DistanceMeters>9009.9904063176</DistanceMeters>
          </Trackpoint>
          <Trackpoint>
            <Time>2019-08-04T19:19:54.000Z</Time>
            <Position>
              <LatitudeDegrees>-33.51723765023052692413330078125</LatitudeDegrees>
              <LongitudeDegrees>-70.22202414460480213165283203125</LongitudeDegrees>
            </Position>
            <AltitudeMeters>1293.199951171875</AltitudeMeters>
            <DistanceMeters>9010.4749493885</DistanceMeters>
          </Trackpoint>
          <Trackpoint>
            <Time>2019-08-04T19:19:56.000Z</Time>
            <Position>
              <LatitudeDegrees>-33.5172270052134990692138671875</LatitudeDegrees>
              <LongitudeDegrees>-70.22203981876373291015625</LongitudeDegrees>
            </Position>
            <AltitudeMeters>1293</AltitudeMeters>
            <DistanceMeters>9012.3515766326</DistanceMeters>
          </Trackpoint>
          <Trackpoint>
            <Time>2019-08-04T19:19:59.000Z</Time>
            <Position>
              <LatitudeDegrees>-33.51720546372234821319580078125</LatitudeDegrees>
              <LongitudeDegrees>-70.22205247543752193450927734375</LongitudeDegrees>
            </Position>
            <AltitudeMeters>1292.4000244140625</AltitudeMeters>
            <DistanceMeters>9015.022486663</DistanceMeters>
          </Trackpoint>
          <Trackpoint>
            <Time>2019-08-04T19:20:02.000Z</Time>
            <Position>
              <LatitudeDegrees>-33.5171855986118316650390625</LatitudeDegrees>
              <LongitudeDegrees>-70.22205884568393230438232421875</LongitudeDegrees>
            </Position>
            <AltitudeMeters>1292</AltitudeMeters>
            <DistanceMeters>9017.3110330002</DistanceMeters>
          </Trackpoint>
          <Trackpoint>
            <Time>2019-08-04T19:20:09.000Z</Time>
            <Position>
              <LatitudeDegrees>-33.51712399162352085113525390625</LatitudeDegrees>
              <LongitudeDegrees>-70.22208751179277896881103515625</LongitudeDegrees>
            </Position>
            <AltitudeMeters>1291.199951171875</AltitudeMeters>
            <DistanceMeters>9024.6656341382</DistanceMeters>
          </Trackpoint>
          <Trackpoint>
            <Time>2019-08-04T19:20:13.000Z</Time>
            <Position>
              <LatitudeDegrees>-33.5170818306505680084228515625</LatitudeDegrees>
              <LongitudeDegrees>-70.2221083827316761016845703125</LongitudeDegrees>
            </Position>
            <AltitudeMeters>1290.4000244140625</AltitudeMeters>
            <DistanceMeters>9029.7422312437</DistanceMeters>
          </Trackpoint>
          <Trackpoint>
            <Time>2019-08-04T19:20:15.000Z</Time>
            <Position>
              <LatitudeDegrees>-33.51706783287227153778076171875</LatitudeDegrees>
              <LongitudeDegrees>-70.22211450152099132537841796875</LongitudeDegrees>
            </Position>
            <AltitudeMeters>1290.199951171875</AltitudeMeters>
            <DistanceMeters>9031.3990786232</DistanceMeters>
          </Trackpoint>
          <Trackpoint>
            <Time>2019-08-04T19:20:17.000Z</Time>
            <Position>
              <LatitudeDegrees>-33.51705106906592845916748046875</LatitudeDegrees>
              <LongitudeDegrees>-70.22212355397641658782958984375</LongitudeDegrees>
            </Position>
            <AltitudeMeters>1290</AltitudeMeters>
            <DistanceMeters>9033.4438097531</DistanceMeters>
          </Trackpoint>
          <Trackpoint>
            <Time>2019-08-04T19:20:18.000Z</Time>
            <Position>
              <LatitudeDegrees>-33.51704369299113750457763671875</LatitudeDegrees>
              <LongitudeDegrees>-70.22212388925254344940185546875</LongitudeDegrees>
            </Position>
            <AltitudeMeters>1290</AltitudeMeters>
            <DistanceMeters>9034.2612604591</DistanceMeters>
          </Trackpoint>
          <Trackpoint>
            <Time>2019-08-04T19:20:24.000Z</Time>
            <Position>
              <LatitudeDegrees>-33.516985438764095306396484375</LatitudeDegrees>
              <LongitudeDegrees>-70.2221181057393550872802734375</LongitudeDegrees>
            </Position>
            <AltitudeMeters>1290</AltitudeMeters>
            <DistanceMeters>9040.7676418166</DistanceMeters>
          </Trackpoint>
          <Trackpoint>
            <Time>2019-08-04T19:20:25.000Z</Time>
            <Position>
              <LatitudeDegrees>-33.51697512902319431304931640625</LatitudeDegrees>
              <LongitudeDegrees>-70.22211684845387935638427734375</LongitudeDegrees>
            </Position>
            <AltitudeMeters>1290</AltitudeMeters>
            <DistanceMeters>9041.9197794982</DistanceMeters>
          </Trackpoint>
          <Trackpoint>
            <Time>2019-08-04T19:20:29.000Z</Time>
            <Position>
              <LatitudeDegrees>-33.516937159001827239990234375</LatitudeDegrees>
              <LongitudeDegrees>-70.22211584262549877166748046875</LongitudeDegrees>
            </Position>
            <AltitudeMeters>1290</AltitudeMeters>
            <DistanceMeters>9046.1460652441</DistanceMeters>
          </Trackpoint>
          <Trackpoint>
            <Time>2019-08-04T19:20:38.000Z</Time>
            <Position>
              <LatitudeDegrees>-33.516855351626873016357421875</LatitudeDegrees>
              <LongitudeDegrees>-70.222122631967067718505859375</LongitudeDegrees>
            </Position>
            <AltitudeMeters>1290</AltitudeMeters>
            <DistanceMeters>9055.2735777898</DistanceMeters>
          </Trackpoint>
          <Trackpoint>
            <Time>2019-08-04T19:20:39.000Z</Time>
            <Position>
              <LatitudeDegrees>-33.51684621535241603851318359375</LatitudeDegrees>
              <LongitudeDegrees>-70.222124643623828887939453125</LongitudeDegrees>
            </Position>
            <AltitudeMeters>1290</AltitudeMeters>
            <DistanceMeters>9056.3058321288</DistanceMeters>
          </Trackpoint>
          <Trackpoint>
            <Time>2019-08-04T19:20:43.000Z</Time>
            <Position>
              <LatitudeDegrees>-33.51680950261652469635009765625</LatitudeDegrees>
              <LongitudeDegrees>-70.22212766110897064208984375</LongitudeDegrees>
            </Position>
            <AltitudeMeters>1290</AltitudeMeters>
            <DistanceMeters>9060.3997082725</DistanceMeters>
          </Trackpoint>
          <Trackpoint>
            <Time>2019-08-04T19:20:51.000Z</Time>
            <Position>
              <LatitudeDegrees>-33.5167284496128559112548828125</LatitudeDegrees>
              <LongitudeDegrees>-70.222100503742694854736328125</LongitudeDegrees>
            </Position>
            <AltitudeMeters>1289.5999755859375</AltitudeMeters>
            <DistanceMeters>9069.7664698649</DistanceMeters>
          </Trackpoint>
          <Trackpoint>
            <Time>2019-08-04T19:21:06.000Z</Time>
            <Position>
              <LatitudeDegrees>-33.5165936686098575592041015625</LatitudeDegrees>
              <LongitudeDegrees>-70.2220074646174907684326171875</LongitudeDegrees>
            </Position>
            <AltitudeMeters>1289.199951171875</AltitudeMeters>
            <DistanceMeters>9087.0749018016</DistanceMeters>
          </Trackpoint>
          <Trackpoint>
            <Time>2019-08-04T19:21:07.000Z</Time>
            <Position>
              <LatitudeDegrees>-33.5165856219828128814697265625</LatitudeDegrees>
              <LongitudeDegrees>-70.22200134582817554473876953125</LongitudeDegrees>
            </Position>
            <AltitudeMeters>1289.199951171875</AltitudeMeters>
            <DistanceMeters>9088.1330745091</DistanceMeters>
          </Trackpoint>
          <Trackpoint>
            <Time>2019-08-04T19:21:10.000Z</Time>
            <Position>
              <LatitudeDegrees>-33.516562320291996002197265625</LatitudeDegrees>
              <LongitudeDegrees>-70.2219806425273418426513671875</LongitudeDegrees>
            </Position>
            <AltitudeMeters>1289.199951171875</AltitudeMeters>
            <DistanceMeters>9091.3611866844</DistanceMeters>
          </Trackpoint>
          <Trackpoint>
            <Time>2019-08-04T19:21:18.000Z</Time>
            <Position>
              <LatitudeDegrees>-33.51650297641754150390625</LatitudeDegrees>
              <LongitudeDegrees>-70.22193144075572490692138671875</LongitudeDegrees>
            </Position>
            <AltitudeMeters>1289.199951171875</AltitudeMeters>
            <DistanceMeters>9099.3908034754</DistanceMeters>
          </Trackpoint>
          <Trackpoint>
            <Time>2019-08-04T19:21:33.000Z</Time>
            <Position>
              <LatitudeDegrees>-33.51641806773841381072998046875</LatitudeDegrees>
              <LongitudeDegrees>-70.22176229394972324371337890625</LongitudeDegrees>
            </Position>
            <AltitudeMeters>1289</AltitudeMeters>
            <DistanceMeters>9117.7124863055</DistanceMeters>
          </Trackpoint>
          <Trackpoint>
            <Time>2019-08-04T19:21:46.000Z</Time>
            <Position>
              <LatitudeDegrees>-33.51638252846896648406982421875</LatitudeDegrees>
              <LongitudeDegrees>-70.221607983112335205078125</LongitudeDegrees>
            </Position>
            <AltitudeMeters>1289.199951171875</AltitudeMeters>
            <DistanceMeters>9132.5682955494</DistanceMeters>
          </Trackpoint>
          <Trackpoint>
            <Time>2019-08-04T19:21:51.000Z</Time>
            <Position>
              <LatitudeDegrees>-33.5163851268589496612548828125</LatitudeDegrees>
              <LongitudeDegrees>-70.22153765894472599029541015625</LongitudeDegrees>
            </Position>
            <AltitudeMeters>1289.199951171875</AltitudeMeters>
            <DistanceMeters>9139.1009934051</DistanceMeters>
          </Trackpoint>
        </Track>
      </Lap>
    </Activity>
  </Activities>
</TrainingCenterDatabase>
